<?xml version="1.0" encoding="UTF-8"?>
<gpx version="1.1" creator="https://www.youtrack.es" xsi:schemaLocation="http://www.topografix.com/GPX/1/1 http://www.topografix.com/GPX/1/1/gpx.xsd http://www.garmin.com/xmlschemas/GpxExtensions/v3 http://www.garmin.com/xmlschemas/GpxExtensionsv3.xsd http://www.garmin.com/xmlschemas/TrackPointExtension/v1 http://www.garmin.com/xmlschemas/TrackPointExtensionv1.xsd" xmlns:gpxtpx="http://www.garmin.com/xmlschemas/TrackPointExtension/v1" xmlns:gpxx="http://www.garmin.com/xmlschemas/GpxExtensions/v3" xmlns:xsi="http://www.w3.org/2001/XMLSchema-instance">
  <metadata>
    <link href="https://www.youtrack.es">
      <text>YouTrack.es</text>
    </link>
    <time>2026-05-10T18:00:04Z</time>
  </metadata>
  <trk>
    <src>https://www.youtrack.es</src>
    <link href="https://www.youtrack.es/ruta/4107-oviedo">
      <text>YouTrack.es</text>
    </link>
    <trkseg>
      <trkpt lat="43.41860468499362468719482421875" lon="-5.8748901821672916412353515625">
        <ele>187</ele>
        <time>2019-02-14T09:52:22.000Z</time>
      </trkpt>
      <trkpt lat="43.418604768812656402587890625" lon="-5.8748898468911647796630859375">
        <ele>187.600006103515625</ele>
        <time>2019-02-14T09:52:23.000Z</time>
      </trkpt>
      <trkpt lat="43.418588340282440185546875" lon="-5.874937288463115692138671875">
        <ele>188</ele>
        <time>2019-02-14T09:52:33.000Z</time>
      </trkpt>
      <trkpt lat="43.41857233084738254547119140625" lon="-5.8749538846313953399658203125">
        <ele>187.600006103515625</ele>
        <time>2019-02-14T09:52:34.000Z</time>
      </trkpt>
      <trkpt lat="43.41855238191783428192138671875" lon="-5.87496587075293064117431640625">
        <ele>187.399993896484375</ele>
        <time>2019-02-14T09:52:35.000Z</time>
      </trkpt>
      <trkpt lat="43.4185298345983028411865234375" lon="-5.8749729953706264495849609375">
        <ele>187.399993896484375</ele>
        <time>2019-02-14T09:52:36.000Z</time>
      </trkpt>
      <trkpt lat="43.4185050241649150848388671875" lon="-5.87497760541737079620361328125">
        <ele>187.399993896484375</ele>
        <time>2019-02-14T09:52:37.000Z</time>
      </trkpt>
      <trkpt lat="43.41847694478929042816162109375" lon="-5.87498389184474945068359375">
        <ele>187.399993896484375</ele>
        <time>2019-02-14T09:52:38.000Z</time>
      </trkpt>
      <trkpt lat="43.4184081293642520904541015625" lon="-5.87498766370117664337158203125">
        <ele>187.399993896484375</ele>
        <time>2019-02-14T09:52:40.000Z</time>
      </trkpt>
      <trkpt lat="43.41832078993320465087890625" lon="-5.87498724460601806640625">
        <ele>186.8000030517578125</ele>
        <time>2019-02-14T09:52:42.000Z</time>
      </trkpt>
      <trkpt lat="43.418273515999317169189453125" lon="-5.8749941177666187286376953125">
        <ele>186.399993896484375</ele>
        <time>2019-02-14T09:52:43.000Z</time>
      </trkpt>
      <trkpt lat="43.418186008930206298828125" lon="-5.875023789703845977783203125">
        <ele>185.8000030517578125</ele>
        <time>2019-02-14T09:52:45.000Z</time>
      </trkpt>
      <trkpt lat="43.4181435965001583099365234375" lon="-5.8750420622527599334716796875">
        <ele>185.600006103515625</ele>
        <time>2019-02-14T09:52:46.000Z</time>
      </trkpt>
      <trkpt lat="43.41806354932487010955810546875" lon="-5.8750839717686176300048828125">
        <ele>185.600006103515625</ele>
        <time>2019-02-14T09:52:48.000Z</time>
      </trkpt>
      <trkpt lat="43.41796497814357280731201171875" lon="-5.87515429593622684478759765625">
        <ele>185.8000030517578125</ele>
        <time>2019-02-14T09:52:51.000Z</time>
      </trkpt>
      <trkpt lat="43.41788384132087230682373046875" lon="-5.87522604502737522125244140625">
        <ele>186.399993896484375</ele>
        <time>2019-02-14T09:52:54.000Z</time>
      </trkpt>
      <trkpt lat="43.41785785742104053497314453125" lon="-5.8752485923469066619873046875">
        <ele>187</ele>
        <time>2019-02-14T09:52:55.000Z</time>
      </trkpt>
      <trkpt lat="43.4177818335592746734619140625" lon="-5.87531573139131069183349609375">
        <ele>188.600006103515625</ele>
        <time>2019-02-14T09:52:58.000Z</time>
      </trkpt>
      <trkpt lat="43.41773212887346744537353515625" lon="-5.87535462342202663421630859375">
        <ele>189</ele>
        <time>2019-02-14T09:53:00.000Z</time>
      </trkpt>
      <trkpt lat="43.4175457991659641265869140625" lon="-5.87552041746675968170166015625">
        <ele>188.600006103515625</ele>
        <time>2019-02-14T09:53:07.000Z</time>
      </trkpt>
      <trkpt lat="43.41743876226246356964111328125" lon="-5.87560750544071197509765625">
        <ele>188</ele>
        <time>2019-02-14T09:53:10.000Z</time>
      </trkpt>
      <trkpt lat="43.4173572063446044921875" lon="-5.87565519846975803375244140625">
        <ele>188</ele>
        <time>2019-02-14T09:53:12.000Z</time>
      </trkpt>
      <trkpt lat="43.41720725409686565399169921875" lon="-5.87575561366975307464599609375">
        <ele>187.600006103515625</ele>
        <time>2019-02-14T09:53:16.000Z</time>
      </trkpt>
      <trkpt lat="43.41713500209152698516845703125" lon="-5.8757981099188327789306640625">
        <ele>187.600006103515625</ele>
        <time>2019-02-14T09:53:18.000Z</time>
      </trkpt>
      <trkpt lat="43.41698027215898036956787109375" lon="-5.87590523064136505126953125">
        <ele>188</ele>
        <time>2019-02-14T09:53:23.000Z</time>
      </trkpt>
      <trkpt lat="43.41688488610088825225830078125" lon="-5.87595091201364994049072265625">
        <ele>188</ele>
        <time>2019-02-14T09:53:26.000Z</time>
      </trkpt>
      <trkpt lat="43.4168175794184207916259765625" lon="-5.87598544545471668243408203125">
        <ele>188</ele>
        <time>2019-02-14T09:53:28.000Z</time>
      </trkpt>
      <trkpt lat="43.41665388084948062896728515625" lon="-5.87606289424002170562744140625">
        <ele>187.399993896484375</ele>
        <time>2019-02-14T09:53:32.000Z</time>
      </trkpt>
      <trkpt lat="43.4164799563586711883544921875" lon="-5.8760695159435272216796875">
        <ele>186.399993896484375</ele>
        <time>2019-02-14T09:53:36.000Z</time>
      </trkpt>
      <trkpt lat="43.4164383821189403533935546875" lon="-5.87605954147875308990478515625">
        <ele>186.399993896484375</ele>
        <time>2019-02-14T09:53:37.000Z</time>
      </trkpt>
      <trkpt lat="43.416351377964019775390625" lon="-5.87604344822466373443603515625">
        <ele>185.8000030517578125</ele>
        <time>2019-02-14T09:53:39.000Z</time>
      </trkpt>
      <trkpt lat="43.416307456791400909423828125" lon="-5.87603691034018993377685546875">
        <ele>185.600006103515625</ele>
        <time>2019-02-14T09:53:40.000Z</time>
      </trkpt>
      <trkpt lat="43.41626445762813091278076171875" lon="-5.8760274387896060943603515625">
        <ele>185.600006103515625</ele>
        <time>2019-02-14T09:53:41.000Z</time>
      </trkpt>
      <trkpt lat="43.41617091558873653411865234375" lon="-5.87599751539528369903564453125">
        <ele>184.600006103515625</ele>
        <time>2019-02-14T09:53:43.000Z</time>
      </trkpt>
      <trkpt lat="43.41608206741511821746826171875" lon="-5.8759687654674053192138671875">
        <ele>183.399993896484375</ele>
        <time>2019-02-14T09:53:45.000Z</time>
      </trkpt>
      <trkpt lat="43.4159411676228046417236328125" lon="-5.8759285323321819305419921875">
        <ele>183</ele>
        <time>2019-02-14T09:53:48.000Z</time>
      </trkpt>
      <trkpt lat="43.41585558839142322540283203125" lon="-5.87590120732784271240234375">
        <ele>182.600006103515625</ele>
        <time>2019-02-14T09:53:50.000Z</time>
      </trkpt>
      <trkpt lat="43.4157768823206424713134765625" lon="-5.87586625479161739349365234375">
        <ele>182</ele>
        <time>2019-02-14T09:53:52.000Z</time>
      </trkpt>
      <trkpt lat="43.4157416783273220062255859375" lon="-5.87584622204303741455078125">
        <ele>181.600006103515625</ele>
        <time>2019-02-14T09:53:53.000Z</time>
      </trkpt>
      <trkpt lat="43.4156276844441890716552734375" lon="-5.8757964335381984710693359375">
        <ele>180.600006103515625</ele>
        <time>2019-02-14T09:53:56.000Z</time>
      </trkpt>
      <trkpt lat="43.415514528751373291015625" lon="-5.87579391896724700927734375">
        <ele>180</ele>
        <time>2019-02-14T09:53:59.000Z</time>
      </trkpt>
      <trkpt lat="43.41548510827124118804931640625" lon="-5.87581244297325611114501953125">
        <ele>179.600006103515625</ele>
        <time>2019-02-14T09:54:00.000Z</time>
      </trkpt>
      <trkpt lat="43.4154600463807582855224609375" lon="-5.8758361637592315673828125">
        <ele>179.399993896484375</ele>
        <time>2019-02-14T09:54:01.000Z</time>
      </trkpt>
      <trkpt lat="43.41544621624052524566650390625" lon="-5.875875391066074371337890625">
        <ele>179.1999969482421875</ele>
        <time>2019-02-14T09:54:02.000Z</time>
      </trkpt>
      <trkpt lat="43.41539709828794002532958984375" lon="-5.87595283985137939453125">
        <ele>178.8000030517578125</ele>
        <time>2019-02-14T09:54:04.000Z</time>
      </trkpt>
      <trkpt lat="43.41537530533969402313232421875" lon="-5.8760012872517108917236328125">
        <ele>178.8000030517578125</ele>
        <time>2019-02-14T09:54:05.000Z</time>
      </trkpt>
      <trkpt lat="43.4153480641543865203857421875" lon="-5.87604730390012264251708984375">
        <ele>178.600006103515625</ele>
        <time>2019-02-14T09:54:06.000Z</time>
      </trkpt>
      <trkpt lat="43.41532283462584018707275390625" lon="-5.8760985173285007476806640625">
        <ele>178.399993896484375</ele>
        <time>2019-02-14T09:54:07.000Z</time>
      </trkpt>
      <trkpt lat="43.41529257595539093017578125" lon="-5.87614168412983417510986328125">
        <ele>178.399993896484375</ele>
        <time>2019-02-14T09:54:08.000Z</time>
      </trkpt>
      <trkpt lat="43.415235579013824462890625" lon="-5.876221396028995513916015625">
        <ele>178</ele>
        <time>2019-02-14T09:54:10.000Z</time>
      </trkpt>
      <trkpt lat="43.4152055718004703521728515625" lon="-5.8762718550860881805419921875">
        <ele>177.600006103515625</ele>
        <time>2019-02-14T09:54:11.000Z</time>
      </trkpt>
      <trkpt lat="43.4151435457170009613037109375" lon="-5.8763640560209751129150390625">
        <ele>176.600006103515625</ele>
        <time>2019-02-14T09:54:13.000Z</time>
      </trkpt>
      <trkpt lat="43.41510725207626819610595703125" lon="-5.87641091085970401763916015625">
        <ele>176</ele>
        <time>2019-02-14T09:54:14.000Z</time>
      </trkpt>
      <trkpt lat="43.4149795956909656524658203125" lon="-5.876550972461700439453125">
        <ele>175.399993896484375</ele>
        <time>2019-02-14T09:54:17.000Z</time>
      </trkpt>
      <trkpt lat="43.414942212402820587158203125" lon="-5.8766086399555206298828125">
        <ele>174.600006103515625</ele>
        <time>2019-02-14T09:54:18.000Z</time>
      </trkpt>
      <trkpt lat="43.41486208140850067138671875" lon="-5.87672087363898754119873046875">
        <ele>173.1999969482421875</ele>
        <time>2019-02-14T09:54:20.000Z</time>
      </trkpt>
      <trkpt lat="43.41482277028262615203857421875" lon="-5.87677694857120513916015625">
        <ele>172.600006103515625</ele>
        <time>2019-02-14T09:54:21.000Z</time>
      </trkpt>
      <trkpt lat="43.41478521935641765594482421875" lon="-5.87682430632412433624267578125">
        <ele>172</ele>
        <time>2019-02-14T09:54:22.000Z</time>
      </trkpt>
      <trkpt lat="43.41474716551601886749267578125" lon="-5.876867137849330902099609375">
        <ele>171.8000030517578125</ele>
        <time>2019-02-14T09:54:23.000Z</time>
      </trkpt>
      <trkpt lat="43.41459310613572597503662109375" lon="-5.87708431296050548553466796875">
        <ele>170.8000030517578125</ele>
        <time>2019-02-14T09:54:27.000Z</time>
      </trkpt>
      <trkpt lat="43.41455739922821521759033203125" lon="-5.87714935652911663055419921875">
        <ele>170.600006103515625</ele>
        <time>2019-02-14T09:54:28.000Z</time>
      </trkpt>
      <trkpt lat="43.414525799453258514404296875" lon="-5.87720953859388828277587890625">
        <ele>170.399993896484375</ele>
        <time>2019-02-14T09:54:29.000Z</time>
      </trkpt>
      <trkpt lat="43.41444709338247776031494140625" lon="-5.87737030349671840667724609375">
        <ele>170.1999969482421875</ele>
        <time>2019-02-14T09:54:32.000Z</time>
      </trkpt>
      <trkpt lat="43.41442027129232883453369140625" lon="-5.8774305693805217742919921875">
        <ele>170.399993896484375</ele>
        <time>2019-02-14T09:54:33.000Z</time>
      </trkpt>
      <trkpt lat="43.414393030107021331787109375" lon="-5.8774862252175807952880859375">
        <ele>170.1999969482421875</ele>
        <time>2019-02-14T09:54:34.000Z</time>
      </trkpt>
      <trkpt lat="43.4143600054085254669189453125" lon="-5.8775348402559757232666015625">
        <ele>169.600006103515625</ele>
        <time>2019-02-14T09:54:35.000Z</time>
      </trkpt>
      <trkpt lat="43.41429856605827808380126953125" lon="-5.87762259878218173980712890625">
        <ele>168.399993896484375</ele>
        <time>2019-02-14T09:54:37.000Z</time>
      </trkpt>
      <trkpt lat="43.4142470173537731170654296875" lon="-5.87770574726164340972900390625">
        <ele>167.8000030517578125</ele>
        <time>2019-02-14T09:54:39.000Z</time>
      </trkpt>
      <trkpt lat="43.41420016251504421234130859375" lon="-5.8777923323214054107666015625">
        <ele>167.399993896484375</ele>
        <time>2019-02-14T09:54:41.000Z</time>
      </trkpt>
      <trkpt lat="43.41418239288032054901123046875" lon="-5.87782896123826503753662109375">
        <ele>167.399993896484375</ele>
        <time>2019-02-14T09:54:42.000Z</time>
      </trkpt>
      <trkpt lat="43.4141638688743114471435546875" lon="-5.87787657044827938079833984375">
        <ele>167.399993896484375</ele>
        <time>2019-02-14T09:54:43.000Z</time>
      </trkpt>
      <trkpt lat="43.41413863934576511383056640625" lon="-5.87793256156146526336669921875">
        <ele>167.1999969482421875</ele>
        <time>2019-02-14T09:54:44.000Z</time>
      </trkpt>
      <trkpt lat="43.4140887670218944549560546875" lon="-5.878032557666301727294921875">
        <ele>165.8000030517578125</ele>
        <time>2019-02-14T09:54:46.000Z</time>
      </trkpt>
      <trkpt lat="43.41405733488500118255615234375" lon="-5.878117382526397705078125">
        <ele>164.399993896484375</ele>
        <time>2019-02-14T09:54:48.000Z</time>
      </trkpt>
      <trkpt lat="43.41401995159685611724853515625" lon="-5.87820631451904773712158203125">
        <ele>163.1999969482421875</ele>
        <time>2019-02-14T09:54:50.000Z</time>
      </trkpt>
      <trkpt lat="43.41400268487632274627685546875" lon="-5.87824302725493907928466796875">
        <ele>161.8000030517578125</ele>
        <time>2019-02-14T09:54:51.000Z</time>
      </trkpt>
      <trkpt lat="43.4139861725270748138427734375" lon="-5.87826733477413654327392578125">
        <ele>161.1999969482421875</ele>
        <time>2019-02-14T09:54:52.000Z</time>
      </trkpt>
      <trkpt lat="43.413971923291683197021484375" lon="-5.8783029578626155853271484375">
        <ele>160.8000030517578125</ele>
        <time>2019-02-14T09:54:53.000Z</time>
      </trkpt>
      <trkpt lat="43.41395121999084949493408203125" lon="-5.87834830395877361297607421875">
        <ele>160.399993896484375</ele>
        <time>2019-02-14T09:54:54.000Z</time>
      </trkpt>
      <trkpt lat="43.41392791830003261566162109375" lon="-5.87839775718748569488525390625">
        <ele>159.600006103515625</ele>
        <time>2019-02-14T09:54:55.000Z</time>
      </trkpt>
      <trkpt lat="43.4139016829431056976318359375" lon="-5.8784414269030094146728515625">
        <ele>158.1999969482421875</ele>
        <time>2019-02-14T09:54:56.000Z</time>
      </trkpt>
      <trkpt lat="43.413873016834259033203125" lon="-5.878479145467281341552734375">
        <ele>157</ele>
        <time>2019-02-14T09:54:57.000Z</time>
      </trkpt>
      <trkpt lat="43.41382180340588092803955078125" lon="-5.8785339631140232086181640625">
        <ele>155.399993896484375</ele>
        <time>2019-02-14T09:54:59.000Z</time>
      </trkpt>
      <trkpt lat="43.4137722663581371307373046875" lon="-5.8785792253911495208740234375">
        <ele>153.600006103515625</ele>
        <time>2019-02-14T09:55:01.000Z</time>
      </trkpt>
      <trkpt lat="43.41374502517282962799072265625" lon="-5.87861032225191593170166015625">
        <ele>152.399993896484375</ele>
        <time>2019-02-14T09:55:02.000Z</time>
      </trkpt>
      <trkpt lat="43.41369389556348323822021484375" lon="-5.878715179860591888427734375">
        <ele>151</ele>
        <time>2019-02-14T09:55:04.000Z</time>
      </trkpt>
      <trkpt lat="43.41366992332041263580322265625" lon="-5.87878382764756679534912109375">
        <ele>150.399993896484375</ele>
        <time>2019-02-14T09:55:05.000Z</time>
      </trkpt>
      <trkpt lat="43.41364762745797634124755859375" lon="-5.87883613072335720062255859375">
        <ele>149.8000030517578125</ele>
        <time>2019-02-14T09:55:06.000Z</time>
      </trkpt>
      <trkpt lat="43.413614518940448760986328125" lon="-5.87891777046024799346923828125">
        <ele>148.8000030517578125</ele>
        <time>2019-02-14T09:55:08.000Z</time>
      </trkpt>
      <trkpt lat="43.41359364800155162811279296875" lon="-5.87894819676876068115234375">
        <ele>148.399993896484375</ele>
        <time>2019-02-14T09:55:09.000Z</time>
      </trkpt>
      <trkpt lat="43.41356280259788036346435546875" lon="-5.87900846265256404876708984375">
        <ele>147.1999969482421875</ele>
        <time>2019-02-14T09:55:11.000Z</time>
      </trkpt>
      <trkpt lat="43.4135402552783489227294921875" lon="-5.87905003689229488372802734375">
        <ele>146.399993896484375</ele>
        <time>2019-02-14T09:55:12.000Z</time>
      </trkpt>
      <trkpt lat="43.4135114215314388275146484375" lon="-5.8791035972535610198974609375">
        <ele>145.8000030517578125</ele>
        <time>2019-02-14T09:55:13.000Z</time>
      </trkpt>
      <trkpt lat="43.413479737937450408935546875" lon="-5.8791579119861125946044921875">
        <ele>145.399993896484375</ele>
        <time>2019-02-14T09:55:14.000Z</time>
      </trkpt>
      <trkpt lat="43.413454592227935791015625" lon="-5.87920057587325572967529296875">
        <ele>144.399993896484375</ele>
        <time>2019-02-14T09:55:15.000Z</time>
      </trkpt>
      <trkpt lat="43.41341234743595123291015625" lon="-5.87923577986657619476318359375">
        <ele>143.600006103515625</ele>
        <time>2019-02-14T09:55:16.000Z</time>
      </trkpt>
      <trkpt lat="43.413365073502063751220703125" lon="-5.87928079068660736083984375">
        <ele>142.8000030517578125</ele>
        <time>2019-02-14T09:55:17.000Z</time>
      </trkpt>
      <trkpt lat="43.4132126905024051666259765625" lon="-5.87942940182983875274658203125">
        <ele>141</ele>
        <time>2019-02-14T09:55:20.000Z</time>
      </trkpt>
      <trkpt lat="43.4131261892616748809814453125" lon="-5.87956233881413936614990234375">
        <ele>139.399993896484375</ele>
        <time>2019-02-14T09:55:22.000Z</time>
      </trkpt>
      <trkpt lat="43.41305167414247989654541015625" lon="-5.879673399031162261962890625">
        <ele>138</ele>
        <time>2019-02-14T09:55:24.000Z</time>
      </trkpt>
      <trkpt lat="43.4129857085645198822021484375" lon="-5.8797925896942615509033203125">
        <ele>136.600006103515625</ele>
        <time>2019-02-14T09:55:26.000Z</time>
      </trkpt>
      <trkpt lat="43.41293097473680973052978515625" lon="-5.879912786185741424560546875">
        <ele>134.8000030517578125</ele>
        <time>2019-02-14T09:55:28.000Z</time>
      </trkpt>
      <trkpt lat="43.41285771690309047698974609375" lon="-5.88002032600343227386474609375">
        <ele>133.399993896484375</ele>
        <time>2019-02-14T09:55:30.000Z</time>
      </trkpt>
      <trkpt lat="43.412807174026966094970703125" lon="-5.8800767362117767333984375">
        <ele>132</ele>
        <time>2019-02-14T09:55:31.000Z</time>
      </trkpt>
      <trkpt lat="43.4127194993197917938232421875" lon="-5.8801684342324733734130859375">
        <ele>130.1999969482421875</ele>
        <time>2019-02-14T09:55:33.000Z</time>
      </trkpt>
      <trkpt lat="43.41257013380527496337890625" lon="-5.88025853969156742095947265625">
        <ele>128.600006103515625</ele>
        <time>2019-02-14T09:55:36.000Z</time>
      </trkpt>
      <trkpt lat="43.41251514852046966552734375" lon="-5.88028854690492153167724609375">
        <ele>127.59999847412109375</ele>
        <time>2019-02-14T09:55:37.000Z</time>
      </trkpt>
      <trkpt lat="43.4124554693698883056640625" lon="-5.88032693602144718170166015625">
        <ele>126.1999969482421875</ele>
        <time>2019-02-14T09:55:38.000Z</time>
      </trkpt>
      <trkpt lat="43.41239704750478267669677734375" lon="-5.88035426102578639984130859375">
        <ele>124.8000030517578125</ele>
        <time>2019-02-14T09:55:39.000Z</time>
      </trkpt>
      <trkpt lat="43.41234910301864147186279296875" lon="-5.88038644753396511077880859375">
        <ele>124</ele>
        <time>2019-02-14T09:55:40.000Z</time>
      </trkpt>
      <trkpt lat="43.412300907075405120849609375" lon="-5.8804118447005748748779296875">
        <ele>123.59999847412109375</ele>
        <time>2019-02-14T09:55:41.000Z</time>
      </trkpt>
      <trkpt lat="43.41220996342599391937255859375" lon="-5.8804540894925594329833984375">
        <ele>123</ele>
        <time>2019-02-14T09:55:43.000Z</time>
      </trkpt>
      <trkpt lat="43.41211088933050632476806640625" lon="-5.88051058351993560791015625">
        <ele>122.40000152587890625</ele>
        <time>2019-02-14T09:55:45.000Z</time>
      </trkpt>
      <trkpt lat="43.4120345301926136016845703125" lon="-5.8805285207927227020263671875">
        <ele>122</ele>
        <time>2019-02-14T09:55:47.000Z</time>
      </trkpt>
      <trkpt lat="43.41188223101198673248291015625" lon="-5.8805607073009014129638671875">
        <ele>121.40000152587890625</ele>
        <time>2019-02-14T09:55:51.000Z</time>
      </trkpt>
      <trkpt lat="43.41182976029813289642333984375" lon="-5.88056632317602634429931640625">
        <ele>121.40000152587890625</ele>
        <time>2019-02-14T09:55:52.000Z</time>
      </trkpt>
      <trkpt lat="43.41172993183135986328125" lon="-5.880596078932285308837890625">
        <ele>120.1999969482421875</ele>
        <time>2019-02-14T09:55:54.000Z</time>
      </trkpt>
      <trkpt lat="43.41167167760431766510009765625" lon="-5.8806180395185947418212890625">
        <ele>120</ele>
        <time>2019-02-14T09:55:55.000Z</time>
      </trkpt>
      <trkpt lat="43.41156070120632648468017578125" lon="-5.88066740892827510833740234375">
        <ele>119.1999969482421875</ele>
        <time>2019-02-14T09:55:57.000Z</time>
      </trkpt>
      <trkpt lat="43.4114085696637630462646484375" lon="-5.880734883248805999755859375">
        <ele>117.59999847412109375</ele>
        <time>2019-02-14T09:56:00.000Z</time>
      </trkpt>
      <trkpt lat="43.41136422939598560333251953125" lon="-5.8807588554918766021728515625">
        <ele>117.40000152587890625</ele>
        <time>2019-02-14T09:56:01.000Z</time>
      </trkpt>
      <trkpt lat="43.41133221052587032318115234375" lon="-5.88078056462109088897705078125">
        <ele>117.1999969482421875</ele>
        <time>2019-02-14T09:56:02.000Z</time>
      </trkpt>
      <trkpt lat="43.41129482723772525787353515625" lon="-5.88081635534763336181640625">
        <ele>116.59999847412109375</ele>
        <time>2019-02-14T09:56:04.000Z</time>
      </trkpt>
      <trkpt lat="43.41125124134123325347900390625" lon="-5.880874358117580413818359375">
        <ele>116.59999847412109375</ele>
        <time>2019-02-14T09:56:06.000Z</time>
      </trkpt>
      <trkpt lat="43.41121369041502475738525390625" lon="-5.88091283105313777923583984375">
        <ele>116.59999847412109375</ele>
        <time>2019-02-14T09:56:08.000Z</time>
      </trkpt>
      <trkpt lat="43.4111782349646091461181640625" lon="-5.88095373474061489105224609375">
        <ele>116.59999847412109375</ele>
        <time>2019-02-14T09:56:10.000Z</time>
      </trkpt>
      <trkpt lat="43.4111574478447437286376953125" lon="-5.88094987906515598297119140625">
        <ele>116.8000030517578125</ele>
        <time>2019-02-14T09:56:11.000Z</time>
      </trkpt>
      <trkpt lat="43.41113456524908542633056640625" lon="-5.88095708750188350677490234375">
        <ele>116.40000152587890625</ele>
        <time>2019-02-14T09:56:12.000Z</time>
      </trkpt>
      <trkpt lat="43.4110873751342296600341796875" lon="-5.8809938840568065643310546875">
        <ele>116.1999969482421875</ele>
        <time>2019-02-14T09:56:14.000Z</time>
      </trkpt>
      <trkpt lat="43.41103130020201206207275390625" lon="-5.8810505457222461700439453125">
        <ele>115.8000030517578125</ele>
        <time>2019-02-14T09:56:16.000Z</time>
      </trkpt>
      <trkpt lat="43.41100028716027736663818359375" lon="-5.88109656237065792083740234375">
        <ele>115.59999847412109375</ele>
        <time>2019-02-14T09:56:17.000Z</time>
      </trkpt>
      <trkpt lat="43.4109748899936676025390625" lon="-5.88112489320337772369384765625">
        <ele>115.40000152587890625</ele>
        <time>2019-02-14T09:56:18.000Z</time>
      </trkpt>
      <trkpt lat="43.41093390248715877532958984375" lon="-5.88117040693759918212890625">
        <ele>115.59999847412109375</ele>
        <time>2019-02-14T09:56:20.000Z</time>
      </trkpt>
      <trkpt lat="43.41089903376996517181396484375" lon="-5.8812248893082141876220703125">
        <ele>116.1999969482421875</ele>
        <time>2019-02-14T09:56:22.000Z</time>
      </trkpt>
      <trkpt lat="43.4108758158981800079345703125" lon="-5.88124525733292102813720703125">
        <ele>116.40000152587890625</ele>
        <time>2019-02-14T09:56:23.000Z</time>
      </trkpt>
      <trkpt lat="43.41082669794559478759765625" lon="-5.881281383335590362548828125">
        <ele>116.8000030517578125</ele>
        <time>2019-02-14T09:56:25.000Z</time>
      </trkpt>
      <trkpt lat="43.4107735566794872283935546875" lon="-5.88133360259234905242919921875">
        <ele>117</ele>
        <time>2019-02-14T09:56:27.000Z</time>
      </trkpt>
      <trkpt lat="43.410731814801692962646484375" lon="-5.88138221763074398040771484375">
        <ele>117</ele>
        <time>2019-02-14T09:56:29.000Z</time>
      </trkpt>
      <trkpt lat="43.4105908311903476715087890625" lon="-5.88148548267781734466552734375">
        <ele>117.40000152587890625</ele>
        <time>2019-02-14T09:56:34.000Z</time>
      </trkpt>
      <trkpt lat="43.41046652756631374359130859375" lon="-5.8815626800060272216796875">
        <ele>118</ele>
        <time>2019-02-14T09:56:38.000Z</time>
      </trkpt>
      <trkpt lat="43.41033744625747203826904296875" lon="-5.881664268672466278076171875">
        <ele>117.59999847412109375</ele>
        <time>2019-02-14T09:56:42.000Z</time>
      </trkpt>
      <trkpt lat="43.4101402200758457183837890625" lon="-5.8817841298878192901611328125">
        <ele>116.8000030517578125</ele>
        <time>2019-02-14T09:56:48.000Z</time>
      </trkpt>
      <trkpt lat="43.40996881015598773956298828125" lon="-5.8818791806697845458984375">
        <ele>118.1999969482421875</ele>
        <time>2019-02-14T09:56:54.000Z</time>
      </trkpt>
      <trkpt lat="43.40984509326517581939697265625" lon="-5.88197666220366954803466796875">
        <ele>118.40000152587890625</ele>
        <time>2019-02-14T09:56:59.000Z</time>
      </trkpt>
      <trkpt lat="43.40975892730057239532470703125" lon="-5.88205151259899139404296875">
        <ele>118.59999847412109375</ele>
        <time>2019-02-14T09:57:04.000Z</time>
      </trkpt>
      <trkpt lat="43.4096731804311275482177734375" lon="-5.88211311958730220794677734375">
        <ele>119.59999847412109375</ele>
        <time>2019-02-14T09:57:08.000Z</time>
      </trkpt>
      <trkpt lat="43.409538902342319488525390625" lon="-5.88220314122736454010009765625">
        <ele>120.1999969482421875</ele>
        <time>2019-02-14T09:57:13.000Z</time>
      </trkpt>
      <trkpt lat="43.409476540982723236083984375" lon="-5.8822374232113361358642578125">
        <ele>120.1999969482421875</ele>
        <time>2019-02-14T09:57:15.000Z</time>
      </trkpt>
      <trkpt lat="43.409409485757350921630859375" lon="-5.88226072490215301513671875">
        <ele>120.1999969482421875</ele>
        <time>2019-02-14T09:57:17.000Z</time>
      </trkpt>
      <trkpt lat="43.409296832978725433349609375" lon="-5.8822987787425518035888671875">
        <ele>120.59999847412109375</ele>
        <time>2019-02-14T09:57:20.000Z</time>
      </trkpt>
      <trkpt lat="43.409243188798427581787109375" lon="-5.88231302797794342041015625">
        <ele>121.1999969482421875</ele>
        <time>2019-02-14T09:57:22.000Z</time>
      </trkpt>
      <trkpt lat="43.40921469032764434814453125" lon="-5.88231143541634082794189453125">
        <ele>122.1999969482421875</ele>
        <time>2019-02-14T09:57:23.000Z</time>
      </trkpt>
      <trkpt lat="43.40915945358574390411376953125" lon="-5.8823225833475589752197265625">
        <ele>123.40000152587890625</ele>
        <time>2019-02-14T09:57:25.000Z</time>
      </trkpt>
      <trkpt lat="43.4091089107096195220947265625" lon="-5.8823271095752716064453125">
        <ele>123.8000030517578125</ele>
        <time>2019-02-14T09:57:27.000Z</time>
      </trkpt>
      <trkpt lat="43.40908586047589778900146484375" lon="-5.88233306072652339935302734375">
        <ele>124.1999969482421875</ele>
        <time>2019-02-14T09:57:28.000Z</time>
      </trkpt>
      <trkpt lat="43.409052751958370208740234375" lon="-5.8823406882584095001220703125">
        <ele>124.59999847412109375</ele>
        <time>2019-02-14T09:57:29.000Z</time>
      </trkpt>
      <trkpt lat="43.40899701230227947235107421875" lon="-5.88236239738762378692626953125">
        <ele>125</ele>
        <time>2019-02-14T09:57:31.000Z</time>
      </trkpt>
      <trkpt lat="43.40891889296472072601318359375" lon="-5.88240497745573520660400390625">
        <ele>125.59999847412109375</ele>
        <time>2019-02-14T09:57:35.000Z</time>
      </trkpt>
      <trkpt lat="43.40889961458742618560791015625" lon="-5.88241989724338054656982421875">
        <ele>126</ele>
        <time>2019-02-14T09:57:36.000Z</time>
      </trkpt>
      <trkpt lat="43.40880171395838260650634765625" lon="-5.88246951811015605926513671875">
        <ele>126.59999847412109375</ele>
        <time>2019-02-14T09:57:41.000Z</time>
      </trkpt>
      <trkpt lat="43.40878461487591266632080078125" lon="-5.88247756473720073699951171875">
        <ele>126.8000030517578125</ele>
        <time>2019-02-14T09:57:42.000Z</time>
      </trkpt>
      <trkpt lat="43.408719487488269805908203125" lon="-5.88252626359462738037109375">
        <ele>126.59999847412109375</ele>
        <time>2019-02-14T09:57:45.000Z</time>
      </trkpt>
      <trkpt lat="43.408672548830509185791015625" lon="-5.88255467824637889862060546875">
        <ele>126.59999847412109375</ele>
        <time>2019-02-14T09:57:47.000Z</time>
      </trkpt>
      <trkpt lat="43.40856651775538921356201171875" lon="-5.88261536322534084320068359375">
        <ele>126.59999847412109375</ele>
        <time>2019-02-14T09:57:51.000Z</time>
      </trkpt>
      <trkpt lat="43.40851253829896450042724609375" lon="-5.882629863917827606201171875">
        <ele>127</ele>
        <time>2019-02-14T09:57:53.000Z</time>
      </trkpt>
      <trkpt lat="43.40844246558845043182373046875" lon="-5.88265492580831050872802734375">
        <ele>127.8000030517578125</ele>
        <time>2019-02-14T09:57:56.000Z</time>
      </trkpt>
      <trkpt lat="43.40830969624221324920654296875" lon="-5.88271267712116241455078125">
        <ele>129</ele>
        <time>2019-02-14T09:58:01.000Z</time>
      </trkpt>
      <trkpt lat="43.40828438289463520050048828125" lon="-5.8827192150056362152099609375">
        <ele>129</ele>
        <time>2019-02-14T09:58:02.000Z</time>
      </trkpt>
      <trkpt lat="43.408264182507991790771484375" lon="-5.88273103348910808563232421875">
        <ele>129.1999969482421875</ele>
        <time>2019-02-14T09:58:03.000Z</time>
      </trkpt>
      <trkpt lat="43.40821967460215091705322265625" lon="-5.8827571012079715728759765625">
        <ele>129.600006103515625</ele>
        <time>2019-02-14T09:58:05.000Z</time>
      </trkpt>
      <trkpt lat="43.4081195108592510223388671875" lon="-5.88278266601264476776123046875">
        <ele>129.8000030517578125</ele>
        <time>2019-02-14T09:58:09.000Z</time>
      </trkpt>
      <trkpt lat="43.408016078174114227294921875" lon="-5.88276623748242855072021484375">
        <ele>130.1999969482421875</ele>
        <time>2019-02-14T09:58:13.000Z</time>
      </trkpt>
      <trkpt lat="43.407994620501995086669921875" lon="-5.88276606984436511993408203125">
        <ele>130.600006103515625</ele>
        <time>2019-02-14T09:58:14.000Z</time>
      </trkpt>
      <trkpt lat="43.407934270799160003662109375" lon="-5.88274754583835601806640625">
        <ele>131.399993896484375</ele>
        <time>2019-02-14T09:58:17.000Z</time>
      </trkpt>
      <trkpt lat="43.4078911878168582916259765625" lon="-5.882732458412647247314453125">
        <ele>132</ele>
        <time>2019-02-14T09:58:19.000Z</time>
      </trkpt>
      <trkpt lat="43.407873921096324920654296875" lon="-5.88272348977625370025634765625">
        <ele>132.399993896484375</ele>
        <time>2019-02-14T09:58:20.000Z</time>
      </trkpt>
      <trkpt lat="43.4077803790569305419921875" lon="-5.88269264437258243560791015625">
        <ele>133</ele>
        <time>2019-02-14T09:58:25.000Z</time>
      </trkpt>
      <trkpt lat="43.40773285366594791412353515625" lon="-5.88267303071916103363037109375">
        <ele>133.399993896484375</ele>
        <time>2019-02-14T09:58:27.000Z</time>
      </trkpt>
      <trkpt lat="43.40764484368264675140380859375" lon="-5.882641933858394622802734375">
        <ele>134.600006103515625</ele>
        <time>2019-02-14T09:58:31.000Z</time>
      </trkpt>
      <trkpt lat="43.40762690640985965728759765625" lon="-5.882639922201633453369140625">
        <ele>135</ele>
        <time>2019-02-14T09:58:32.000Z</time>
      </trkpt>
      <trkpt lat="43.407554067671298980712890625" lon="-5.882632546126842498779296875">
        <ele>136.1999969482421875</ele>
        <time>2019-02-14T09:58:36.000Z</time>
      </trkpt>
      <trkpt lat="43.40754509903490543365478515625" lon="-5.8826283551752567291259765625">
        <ele>136.1999969482421875</ele>
        <time>2019-02-14T09:58:37.000Z</time>
      </trkpt>
      <trkpt lat="43.4075351245701313018798828125" lon="-5.882630534470081329345703125">
        <ele>136.399993896484375</ele>
        <time>2019-02-14T09:58:38.000Z</time>
      </trkpt>
      <trkpt lat="43.40750000439584255218505859375" lon="-5.88264084421098232269287109375">
        <ele>137.600006103515625</ele>
        <time>2019-02-14T09:58:41.000Z</time>
      </trkpt>
      <trkpt lat="43.40748709626495838165283203125" lon="-5.88265098631381988525390625">
        <ele>138.1999969482421875</ele>
        <time>2019-02-14T09:58:43.000Z</time>
      </trkpt>
      <trkpt lat="43.40747636742889881134033203125" lon="-5.8826528303325176239013671875">
        <ele>138.1999969482421875</ele>
        <time>2019-02-14T09:58:44.000Z</time>
      </trkpt>
      <trkpt lat="43.40696222148835659027099609375" lon="-5.88244990445673465728759765625">
        <ele>144.399993896484375</ele>
        <time>2019-02-14T09:59:22.000Z</time>
      </trkpt>
      <trkpt lat="43.40693154372274875640869140625" lon="-5.8824365772306919097900390625">
        <ele>144.1999969482421875</ele>
        <time>2019-02-14T09:59:24.000Z</time>
      </trkpt>
      <trkpt lat="43.40691427700221538543701171875" lon="-5.88242257945239543914794921875">
        <ele>144</ele>
        <time>2019-02-14T09:59:25.000Z</time>
      </trkpt>
      <trkpt lat="43.4068335592746734619140625" lon="-5.882333479821681976318359375">
        <ele>143.399993896484375</ele>
        <time>2019-02-14T09:59:29.000Z</time>
      </trkpt>
      <trkpt lat="43.4068099223077297210693359375" lon="-5.88230632245540618896484375">
        <ele>143.1999969482421875</ele>
        <time>2019-02-14T09:59:30.000Z</time>
      </trkpt>
      <trkpt lat="43.406770862638950347900390625" lon="-5.88227254338562488555908203125">
        <ele>143.399993896484375</ele>
        <time>2019-02-14T09:59:32.000Z</time>
      </trkpt>
      <trkpt lat="43.40675502084195613861083984375" lon="-5.88226114399731159210205078125">
        <ele>143.600006103515625</ele>
        <time>2019-02-14T09:59:33.000Z</time>
      </trkpt>
      <trkpt lat="43.4067418612539768218994140625" lon="-5.8822464756667613983154296875">
        <ele>143.8000030517578125</ele>
        <time>2019-02-14T09:59:34.000Z</time>
      </trkpt>
      <trkpt lat="43.40669877827167510986328125" lon="-5.8822005428373813629150390625">
        <ele>143.8000030517578125</ele>
        <time>2019-02-14T09:59:37.000Z</time>
      </trkpt>
      <trkpt lat="43.4066268615424633026123046875" lon="-5.88214346207678318023681640625">
        <ele>142.399993896484375</ele>
        <time>2019-02-14T09:59:40.000Z</time>
      </trkpt>
      <trkpt lat="43.40657330118119716644287109375" lon="-5.88207053951919078826904296875">
        <ele>141.1999969482421875</ele>
        <time>2019-02-14T09:59:43.000Z</time>
      </trkpt>
      <trkpt lat="43.4065430425107479095458984375" lon="-5.882037766277790069580078125">
        <ele>140.8000030517578125</ele>
        <time>2019-02-14T09:59:44.000Z</time>
      </trkpt>
      <trkpt lat="43.406492583453655242919921875" lon="-5.88198437355458736419677734375">
        <ele>139.600006103515625</ele>
        <time>2019-02-14T09:59:46.000Z</time>
      </trkpt>
      <trkpt lat="43.40647741220891475677490234375" lon="-5.8819645084440708160400390625">
        <ele>139.1999969482421875</ele>
        <time>2019-02-14T09:59:47.000Z</time>
      </trkpt>
      <trkpt lat="43.40644489042460918426513671875" lon="-5.8819142170250415802001953125">
        <ele>138.399993896484375</ele>
        <time>2019-02-14T09:59:49.000Z</time>
      </trkpt>
      <trkpt lat="43.40639174915850162506103515625" lon="-5.88187448680400848388671875">
        <ele>137</ele>
        <time>2019-02-14T09:59:51.000Z</time>
      </trkpt>
      <trkpt lat="43.4063787572085857391357421875" lon="-5.8818568848073482513427734375">
        <ele>136.1999969482421875</ele>
        <time>2019-02-14T09:59:52.000Z</time>
      </trkpt>
      <trkpt lat="43.406371884047985076904296875" lon="-5.8818552084267139434814453125">
        <ele>136</ele>
        <time>2019-02-14T09:59:53.000Z</time>
      </trkpt>
      <trkpt lat="43.406361155211925506591796875" lon="-5.88185847736895084381103515625">
        <ele>135.8000030517578125</ele>
        <time>2019-02-14T09:59:54.000Z</time>
      </trkpt>
      <trkpt lat="43.40625361539423465728759765625" lon="-5.88181103579699993133544921875">
        <ele>135.1999969482421875</ele>
        <time>2019-02-14T10:00:19.000Z</time>
      </trkpt>
      <trkpt lat="43.40623349882662296295166015625" lon="-5.88179427199065685272216796875">
        <ele>135</ele>
        <time>2019-02-14T10:00:20.000Z</time>
      </trkpt>
      <trkpt lat="43.40621002949774265289306640625" lon="-5.8817734010517597198486328125">
        <ele>134.600006103515625</ele>
        <time>2019-02-14T10:00:21.000Z</time>
      </trkpt>
      <trkpt lat="43.40616242028772830963134765625" lon="-5.88173777796328067779541015625">
        <ele>134</ele>
        <time>2019-02-14T10:00:23.000Z</time>
      </trkpt>
      <trkpt lat="43.40613006614148616790771484375" lon="-5.88171212933957576751708984375">
        <ele>133.399993896484375</ele>
        <time>2019-02-14T10:00:24.000Z</time>
      </trkpt>
      <trkpt lat="43.406041301786899566650390625" lon="-5.8816627599298954010009765625">
        <ele>132.1999969482421875</ele>
        <time>2019-02-14T10:00:27.000Z</time>
      </trkpt>
      <trkpt lat="43.406003415584564208984375" lon="-5.8816429786384105682373046875">
        <ele>132.1999969482421875</ele>
        <time>2019-02-14T10:00:28.000Z</time>
      </trkpt>
      <trkpt lat="43.40596762485802173614501953125" lon="-5.881630070507526397705078125">
        <ele>132</ele>
        <time>2019-02-14T10:00:29.000Z</time>
      </trkpt>
      <trkpt lat="43.40590492822229862213134765625" lon="-5.88161766529083251953125">
        <ele>131.600006103515625</ele>
        <time>2019-02-14T10:00:31.000Z</time>
      </trkpt>
      <trkpt lat="43.40586335398256778717041015625" lon="-5.88159847073256969451904296875">
        <ele>131.1999969482421875</ele>
        <time>2019-02-14T10:00:33.000Z</time>
      </trkpt>
      <trkpt lat="43.40585698373615741729736328125" lon="-5.88158053345978260040283203125">
        <ele>131.1999969482421875</ele>
        <time>2019-02-14T10:00:34.000Z</time>
      </trkpt>
      <trkpt lat="43.40572337619960308074951171875" lon="-5.8815331757068634033203125">
        <ele>129.600006103515625</ele>
        <time>2019-02-14T10:01:19.000Z</time>
      </trkpt>
      <trkpt lat="43.405685238540172576904296875" lon="-5.88150442577898502349853515625">
        <ele>129.1999969482421875</ele>
        <time>2019-02-14T10:01:21.000Z</time>
      </trkpt>
      <trkpt lat="43.40567283332347869873046875" lon="-5.881495289504528045654296875">
        <ele>129.1999969482421875</ele>
        <time>2019-02-14T10:01:22.000Z</time>
      </trkpt>
      <trkpt lat="43.40565674006938934326171875" lon="-5.88148958981037139892578125">
        <ele>128.8000030517578125</ele>
        <time>2019-02-14T10:01:23.000Z</time>
      </trkpt>
      <trkpt lat="43.4056198596954345703125" lon="-5.88148078881204128265380859375">
        <ele>128.399993896484375</ele>
        <time>2019-02-14T10:01:25.000Z</time>
      </trkpt>
      <trkpt lat="43.4055476076900959014892578125" lon="-5.88145514018833637237548828125">
        <ele>127.1999969482421875</ele>
        <time>2019-02-14T10:01:28.000Z</time>
      </trkpt>
      <trkpt lat="43.4055295027792453765869140625" lon="-5.88144390843808650970458984375">
        <ele>127.1999969482421875</ele>
        <time>2019-02-14T10:01:29.000Z</time>
      </trkpt>
      <trkpt lat="43.40549270622432231903076171875" lon="-5.88143586181104183197021484375">
        <ele>127</ele>
        <time>2019-02-14T10:01:31.000Z</time>
      </trkpt>
      <trkpt lat="43.40544409118592739105224609375" lon="-5.88144273497164249420166015625">
        <ele>127.40000152587890625</ele>
        <time>2019-02-14T10:01:33.000Z</time>
      </trkpt>
      <trkpt lat="43.40540922246873378753662109375" lon="-5.88146544992923736572265625">
        <ele>128</ele>
        <time>2019-02-14T10:01:35.000Z</time>
      </trkpt>
      <trkpt lat="43.40538851916790008544921875" lon="-5.8815014921128749847412109375">
        <ele>128.399993896484375</ele>
        <time>2019-02-14T10:01:37.000Z</time>
      </trkpt>
      <trkpt lat="43.40539254248142242431640625" lon="-5.88153577409684658050537109375">
        <ele>128.600006103515625</ele>
        <time>2019-02-14T10:01:39.000Z</time>
      </trkpt>
      <trkpt lat="43.40539514087140560150146484375" lon="-5.881569385528564453125">
        <ele>129.1999969482421875</ele>
        <time>2019-02-14T10:01:41.000Z</time>
      </trkpt>
      <trkpt lat="43.40539522469043731689453125" lon="-5.88158355094492435455322265625">
        <ele>129.600006103515625</ele>
        <time>2019-02-14T10:01:42.000Z</time>
      </trkpt>
      <trkpt lat="43.405400253832340240478515625" lon="-5.8815970458090305328369140625">
        <ele>129.8000030517578125</ele>
        <time>2019-02-14T10:01:43.000Z</time>
      </trkpt>
      <trkpt lat="43.40541793964803218841552734375" lon="-5.88164172135293483734130859375">
        <ele>131</ele>
        <time>2019-02-14T10:01:46.000Z</time>
      </trkpt>
      <trkpt lat="43.4054359607398509979248046875" lon="-5.88168815709650516510009765625">
        <ele>131.1999969482421875</ele>
        <time>2019-02-14T10:01:49.000Z</time>
      </trkpt>
      <trkpt lat="43.40548952110111713409423828125" lon="-5.8817784301936626434326171875">
        <ele>131.399993896484375</ele>
        <time>2019-02-14T10:01:55.000Z</time>
      </trkpt>
      <trkpt lat="43.4055702388286590576171875" lon="-5.8818853832781314849853515625">
        <ele>131.600006103515625</ele>
        <time>2019-02-14T10:02:01.000Z</time>
      </trkpt>
      <trkpt lat="43.405597396194934844970703125" lon="-5.88191648013889789581298828125">
        <ele>131.399993896484375</ele>
        <time>2019-02-14T10:02:02.000Z</time>
      </trkpt>
      <trkpt lat="43.405651710927486419677734375" lon="-5.88200767524540424346923828125">
        <ele>131.1999969482421875</ele>
        <time>2019-02-14T10:02:05.000Z</time>
      </trkpt>
      <trkpt lat="43.40569923631846904754638671875" lon="-5.8820865489542484283447265625">
        <ele>131.600006103515625</ele>
        <time>2019-02-14T10:02:08.000Z</time>
      </trkpt>
      <trkpt lat="43.40570845641195774078369140625" lon="-5.88211747817695140838623046875">
        <ele>131.8000030517578125</ele>
        <time>2019-02-14T10:02:09.000Z</time>
      </trkpt>
      <trkpt lat="43.4057112224400043487548828125" lon="-5.8821411989629268646240234375">
        <ele>131.8000030517578125</ele>
        <time>2019-02-14T10:02:10.000Z</time>
      </trkpt>
      <trkpt lat="43.405712060630321502685546875" lon="-5.88220699690282344818115234375">
        <ele>132</ele>
        <time>2019-02-14T10:02:12.000Z</time>
      </trkpt>
      <trkpt lat="43.4057165868580341339111328125" lon="-5.8822645805776119232177734375">
        <ele>132.1999969482421875</ele>
        <time>2019-02-14T10:02:14.000Z</time>
      </trkpt>
      <trkpt lat="43.40572907589375972747802734375" lon="-5.8823217451572418212890625">
        <ele>132.399993896484375</ele>
        <time>2019-02-14T10:02:16.000Z</time>
      </trkpt>
      <trkpt lat="43.40575656853616237640380859375" lon="-5.88236273266375064849853515625">
        <ele>132.8000030517578125</ele>
        <time>2019-02-14T10:02:18.000Z</time>
      </trkpt>
      <trkpt lat="43.4058054350316524505615234375" lon="-5.88238469325006008148193359375">
        <ele>132.600006103515625</ele>
        <time>2019-02-14T10:02:20.000Z</time>
      </trkpt>
      <trkpt lat="43.405883722007274627685546875" lon="-5.88247127830982208251953125">
        <ele>132</ele>
        <time>2019-02-14T10:02:23.000Z</time>
      </trkpt>
      <trkpt lat="43.40591263957321643829345703125" lon="-5.88254369795322418212890625">
        <ele>130.8000030517578125</ele>
        <time>2019-02-14T10:02:25.000Z</time>
      </trkpt>
      <trkpt lat="43.40594264678657054901123046875" lon="-5.8826263435184955596923828125">
        <ele>130</ele>
        <time>2019-02-14T10:02:27.000Z</time>
      </trkpt>
      <trkpt lat="43.40595304034650325775146484375" lon="-5.88268325664103031158447265625">
        <ele>129.399993896484375</ele>
        <time>2019-02-14T10:02:28.000Z</time>
      </trkpt>
      <trkpt lat="43.40598019771277904510498046875" lon="-5.8827634714543819427490234375">
        <ele>128.8000030517578125</ele>
        <time>2019-02-14T10:02:30.000Z</time>
      </trkpt>
      <trkpt lat="43.40599612332880496978759765625" lon="-5.882781408727169036865234375">
        <ele>128.600006103515625</ele>
        <time>2019-02-14T10:02:31.000Z</time>
      </trkpt>
      <trkpt lat="43.40603627264499664306640625" lon="-5.88282926939427852630615234375">
        <ele>128.600006103515625</ele>
        <time>2019-02-14T10:02:33.000Z</time>
      </trkpt>
      <trkpt lat="43.40605764649808406829833984375" lon="-5.882854498922824859619140625">
        <ele>128.8000030517578125</ele>
        <time>2019-02-14T10:02:34.000Z</time>
      </trkpt>
      <trkpt lat="43.406110703945159912109375" lon="-5.88295013643801212310791015625">
        <ele>128.399993896484375</ele>
        <time>2019-02-14T10:02:37.000Z</time>
      </trkpt>
      <trkpt lat="43.406125120818614959716796875" lon="-5.88297612033784389495849609375">
        <ele>128.1999969482421875</ele>
        <time>2019-02-14T10:02:38.000Z</time>
      </trkpt>
      <trkpt lat="43.4061826206743717193603515625" lon="-5.88306161575019359588623046875">
        <ele>127.1999969482421875</ele>
        <time>2019-02-14T10:02:42.000Z</time>
      </trkpt>
      <trkpt lat="43.4061899967491626739501953125" lon="-5.883076451718807220458984375">
        <ele>127.1999969482421875</ele>
        <time>2019-02-14T10:02:43.000Z</time>
      </trkpt>
      <trkpt lat="43.40623919852077960968017578125" lon="-5.8832171000540256500244140625">
        <ele>127.1999969482421875</ele>
        <time>2019-02-14T10:02:49.000Z</time>
      </trkpt>
      <trkpt lat="43.40632058680057525634765625" lon="-5.883333943784236907958984375">
        <ele>128.1999969482421875</ele>
        <time>2019-02-14T10:02:54.000Z</time>
      </trkpt>
      <trkpt lat="43.4063680283725261688232421875" lon="-5.8833797089755535125732421875">
        <ele>128.600006103515625</ele>
        <time>2019-02-14T10:02:56.000Z</time>
      </trkpt>
      <trkpt lat="43.40643323957920074462890625" lon="-5.8834276534616947174072265625">
        <ele>129</ele>
        <time>2019-02-14T10:02:59.000Z</time>
      </trkpt>
      <trkpt lat="43.40645067393779754638671875" lon="-5.88343058712780475616455078125">
        <ele>129.1999969482421875</ele>
        <time>2019-02-14T10:03:00.000Z</time>
      </trkpt>
      <trkpt lat="43.40651663951575756072998046875" lon="-5.88350451551377773284912109375">
        <ele>129.399993896484375</ele>
        <time>2019-02-14T10:03:04.000Z</time>
      </trkpt>
      <trkpt lat="43.4065680205821990966796875" lon="-5.8835768513381481170654296875">
        <ele>129.600006103515625</ele>
        <time>2019-02-14T10:03:08.000Z</time>
      </trkpt>
      <trkpt lat="43.4065841138362884521484375" lon="-5.88360073976218700408935546875">
        <ele>129.8000030517578125</ele>
        <time>2019-02-14T10:03:09.000Z</time>
      </trkpt>
      <trkpt lat="43.40659392066299915313720703125" lon="-5.88362689130008220672607421875">
        <ele>129.8000030517578125</ele>
        <time>2019-02-14T10:03:10.000Z</time>
      </trkpt>
      <trkpt lat="43.406602554023265838623046875" lon="-5.8836682140827178955078125">
        <ele>129.600006103515625</ele>
        <time>2019-02-14T10:03:12.000Z</time>
      </trkpt>
      <trkpt lat="43.40663046576082706451416015625" lon="-5.88373593986034393310546875">
        <ele>128.1999969482421875</ele>
        <time>2019-02-14T10:03:15.000Z</time>
      </trkpt>
      <trkpt lat="43.406661562621593475341796875" lon="-5.88379737921059131622314453125">
        <ele>127.1999969482421875</ele>
        <time>2019-02-14T10:03:18.000Z</time>
      </trkpt>
      <trkpt lat="43.406675644218921661376953125" lon="-5.883852280676364898681640625">
        <ele>126</ele>
        <time>2019-02-14T10:03:22.000Z</time>
      </trkpt>
      <trkpt lat="43.4066758118569850921630859375" lon="-5.8838842995464801788330078125">
        <ele>125.8000030517578125</ele>
        <time>2019-02-14T10:03:25.000Z</time>
      </trkpt>
      <trkpt lat="43.4067133627831935882568359375" lon="-5.88405000977218151092529296875">
        <ele>125.40000152587890625</ele>
        <time>2019-02-14T10:03:32.000Z</time>
      </trkpt>
      <trkpt lat="43.4067090041935443878173828125" lon="-5.88406928814947605133056640625">
        <ele>125.40000152587890625</ele>
        <time>2019-02-14T10:03:33.000Z</time>
      </trkpt>
      <trkpt lat="43.406719900667667388916015625" lon="-5.88415511883795261383056640625">
        <ele>125.40000152587890625</ele>
        <time>2019-02-14T10:03:37.000Z</time>
      </trkpt>
      <trkpt lat="43.40674194507300853729248046875" lon="-5.88428981602191925048828125">
        <ele>125.59999847412109375</ele>
        <time>2019-02-14T10:03:42.000Z</time>
      </trkpt>
      <trkpt lat="43.40677999891340732574462890625" lon="-5.8844353258609771728515625">
        <ele>125.59999847412109375</ele>
        <time>2019-02-14T10:03:47.000Z</time>
      </trkpt>
      <trkpt lat="43.40682224370539188385009765625" lon="-5.8845072425901889801025390625">
        <ele>125.1999969482421875</ele>
        <time>2019-02-14T10:03:50.000Z</time>
      </trkpt>
      <trkpt lat="43.40683154761791229248046875" lon="-5.8845327235758304595947265625">
        <ele>125.1999969482421875</ele>
        <time>2019-02-14T10:03:51.000Z</time>
      </trkpt>
      <trkpt lat="43.40684168972074985504150390625" lon="-5.88460656814277172088623046875">
        <ele>124.8000030517578125</ele>
        <time>2019-02-14T10:03:54.000Z</time>
      </trkpt>
      <trkpt lat="43.40684755705296993255615234375" lon="-5.88465551845729351043701171875">
        <ele>125.1999969482421875</ele>
        <time>2019-02-14T10:03:56.000Z</time>
      </trkpt>
      <trkpt lat="43.40687488205730915069580078125" lon="-5.88471502996981143951416015625">
        <ele>126</ele>
        <time>2019-02-14T10:04:01.000Z</time>
      </trkpt>
      <trkpt lat="43.40704671107232570648193359375" lon="-5.88491368107497692108154296875">
        <ele>129.600006103515625</ele>
        <time>2019-02-14T10:06:38.000Z</time>
      </trkpt>
      <trkpt lat="43.4070526622235774993896484375" lon="-5.8848968334496021270751953125">
        <ele>129.8000030517578125</ele>
        <time>2019-02-14T10:06:39.000Z</time>
      </trkpt>
      <trkpt lat="43.4070902131497859954833984375" lon="-5.884825922548770904541015625">
        <ele>130.399993896484375</ele>
        <time>2019-02-14T10:06:44.000Z</time>
      </trkpt>
      <trkpt lat="43.40712256729602813720703125" lon="-5.88478711433708667755126953125">
        <ele>130.8000030517578125</ele>
        <time>2019-02-14T10:06:47.000Z</time>
      </trkpt>
      <trkpt lat="43.40713421814143657684326171875" lon="-5.88477688841521739959716796875">
        <ele>131.1999969482421875</ele>
        <time>2019-02-14T10:06:48.000Z</time>
      </trkpt>
      <trkpt lat="43.40717579238116741180419921875" lon="-5.884725339710712432861328125">
        <ele>131.8000030517578125</ele>
        <time>2019-02-14T10:06:53.000Z</time>
      </trkpt>
      <trkpt lat="43.40719691477715969085693359375" lon="-5.88470128364861011505126953125">
        <ele>132.399993896484375</ele>
        <time>2019-02-14T10:06:56.000Z</time>
      </trkpt>
      <trkpt lat="43.40723387897014617919921875" lon="-5.88463984429836273193359375">
        <ele>133.600006103515625</ele>
        <time>2019-02-14T10:07:00.000Z</time>
      </trkpt>
      <trkpt lat="43.40726966969668865203857421875" lon="-5.88461813516914844512939453125">
        <ele>134.399993896484375</ele>
        <time>2019-02-14T10:07:03.000Z</time>
      </trkpt>
      <trkpt lat="43.40727888979017734527587890625" lon="-5.88460891507565975189208984375">
        <ele>134.600006103515625</ele>
        <time>2019-02-14T10:07:04.000Z</time>
      </trkpt>
      <trkpt lat="43.4072970785200595855712890625" lon="-5.88459148071706295013427734375">
        <ele>135.1999969482421875</ele>
        <time>2019-02-14T10:07:06.000Z</time>
      </trkpt>
      <trkpt lat="43.4073275886476039886474609375" lon="-5.8845541812479496002197265625">
        <ele>135.8000030517578125</ele>
        <time>2019-02-14T10:07:09.000Z</time>
      </trkpt>
      <trkpt lat="43.40735700912773609161376953125" lon="-5.88453096337616443634033203125">
        <ele>136.1999969482421875</ele>
        <time>2019-02-14T10:07:12.000Z</time>
      </trkpt>
      <trkpt lat="43.4074600227177143096923828125" lon="-5.88454655371606349945068359375">
        <ele>137</ele>
        <time>2019-02-14T10:07:19.000Z</time>
      </trkpt>
      <trkpt lat="43.407474271953105926513671875" lon="-5.88456650264561176300048828125">
        <ele>137</ele>
        <time>2019-02-14T10:07:21.000Z</time>
      </trkpt>
      <trkpt lat="43.40747854672372341156005859375" lon="-5.8845481462776660919189453125">
        <ele>137.1999969482421875</ele>
        <time>2019-02-14T10:07:23.000Z</time>
      </trkpt>
      <trkpt lat="43.40748894028365612030029296875" lon="-5.8845667541027069091796875">
        <ele>137</ele>
        <time>2019-02-14T10:07:24.000Z</time>
      </trkpt>
      <trkpt lat="43.40751391835510730743408203125" lon="-5.884602628648281097412109375">
        <ele>137</ele>
        <time>2019-02-14T10:07:26.000Z</time>
      </trkpt>
      <trkpt lat="43.40755113400518894195556640625" lon="-5.884661972522735595703125">
        <ele>136.399993896484375</ele>
        <time>2019-02-14T10:07:29.000Z</time>
      </trkpt>
      <trkpt lat="43.4075602702796459197998046875" lon="-5.88469055481255054473876953125">
        <ele>136.1999969482421875</ele>
        <time>2019-02-14T10:07:30.000Z</time>
      </trkpt>
      <trkpt lat="43.40758516453206539154052734375" lon="-5.88476783595979213714599609375">
        <ele>135</ele>
        <time>2019-02-14T10:07:32.000Z</time>
      </trkpt>
      <trkpt lat="43.40762774460017681121826171875" lon="-5.88486137799918651580810546875">
        <ele>133.8000030517578125</ele>
        <time>2019-02-14T10:07:34.000Z</time>
      </trkpt>
      <trkpt lat="43.40765322558581829071044921875" lon="-5.88491451926529407501220703125">
        <ele>133.399993896484375</ele>
        <time>2019-02-14T10:07:35.000Z</time>
      </trkpt>
      <trkpt lat="43.40768071822822093963623046875" lon="-5.88496631942689418792724609375">
        <ele>132.8000030517578125</ele>
        <time>2019-02-14T10:07:36.000Z</time>
      </trkpt>
      <trkpt lat="43.4076960571110248565673828125" lon="-5.88502432219684123992919921875">
        <ele>131.399993896484375</ele>
        <time>2019-02-14T10:07:37.000Z</time>
      </trkpt>
      <trkpt lat="43.40773285366594791412353515625" lon="-5.88507813401520252227783203125">
        <ele>130.1999969482421875</ele>
        <time>2019-02-14T10:07:38.000Z</time>
      </trkpt>
      <trkpt lat="43.40776386670768260955810546875" lon="-5.88512641377747058868408203125">
        <ele>129.600006103515625</ele>
        <time>2019-02-14T10:07:39.000Z</time>
      </trkpt>
      <trkpt lat="43.40779052115976810455322265625" lon="-5.88519061915576457977294921875">
        <ele>129</ele>
        <time>2019-02-14T10:07:41.000Z</time>
      </trkpt>
      <trkpt lat="43.407797478139400482177734375" lon="-5.8852319419384002685546875">
        <ele>129</ele>
        <time>2019-02-14T10:07:42.000Z</time>
      </trkpt>
      <trkpt lat="43.40780024416744709014892578125" lon="-5.8852736838161945343017578125">
        <ele>128.8000030517578125</ele>
        <time>2019-02-14T10:07:43.000Z</time>
      </trkpt>
      <trkpt lat="43.40783377178013324737548828125" lon="-5.88543419726192951202392578125">
        <ele>128.1999969482421875</ele>
        <time>2019-02-14T10:07:46.000Z</time>
      </trkpt>
      <trkpt lat="43.407834358513355255126953125" lon="-5.8854986540973186492919921875">
        <ele>127.40000152587890625</ele>
        <time>2019-02-14T10:07:47.000Z</time>
      </trkpt>
      <trkpt lat="43.4078284911811351776123046875" lon="-5.885576270520687103271484375">
        <ele>126.8000030517578125</ele>
        <time>2019-02-14T10:07:48.000Z</time>
      </trkpt>
      <trkpt lat="43.407833687961101531982421875" lon="-5.88570828549563884735107421875">
        <ele>126.1999969482421875</ele>
        <time>2019-02-14T10:07:50.000Z</time>
      </trkpt>
      <trkpt lat="43.40784969739615917205810546875" lon="-5.8858242072165012359619140625">
        <ele>127.1999969482421875</ele>
        <time>2019-02-14T10:07:53.000Z</time>
      </trkpt>
      <trkpt lat="43.407870568335056304931640625" lon="-5.8858852274715900421142578125">
        <ele>128.600006103515625</ele>
        <time>2019-02-14T10:07:55.000Z</time>
      </trkpt>
      <trkpt lat="43.40792513452470302581787109375" lon="-5.88602629490196704864501953125">
        <ele>129.399993896484375</ele>
        <time>2019-02-14T10:08:00.000Z</time>
      </trkpt>
      <trkpt lat="43.40793753974139690399169921875" lon="-5.88606518693268299102783203125">
        <ele>129.1999969482421875</ele>
        <time>2019-02-14T10:08:01.000Z</time>
      </trkpt>
      <trkpt lat="43.4079864062368869781494140625" lon="-5.88617733679711818695068359375">
        <ele>128.600006103515625</ele>
        <time>2019-02-14T10:08:04.000Z</time>
      </trkpt>
      <trkpt lat="43.40800660662353038787841796875" lon="-5.88620650582015514373779296875">
        <ele>128.399993896484375</ele>
        <time>2019-02-14T10:08:05.000Z</time>
      </trkpt>
      <trkpt lat="43.4080598317086696624755859375" lon="-5.8862969465553760528564453125">
        <ele>128.1999969482421875</ele>
        <time>2019-02-14T10:08:08.000Z</time>
      </trkpt>
      <trkpt lat="43.4080762602388858795166015625" lon="-5.88633022271096706390380859375">
        <ele>128.1999969482421875</ele>
        <time>2019-02-14T10:08:09.000Z</time>
      </trkpt>
      <trkpt lat="43.408115990459918975830078125" lon="-5.88643868453800678253173828125">
        <ele>128.399993896484375</ele>
        <time>2019-02-14T10:08:13.000Z</time>
      </trkpt>
      <trkpt lat="43.4081719815731048583984375" lon="-5.88650121353566646575927734375">
        <ele>129</ele>
        <time>2019-02-14T10:08:17.000Z</time>
      </trkpt>
      <trkpt lat="43.4082247875630855560302734375" lon="-5.88653071783483028411865234375">
        <ele>129.600006103515625</ele>
        <time>2019-02-14T10:08:19.000Z</time>
      </trkpt>
      <trkpt lat="43.40823895297944545745849609375" lon="-5.8865386806428432464599609375">
        <ele>130</ele>
        <time>2019-02-14T10:08:20.000Z</time>
      </trkpt>
      <trkpt lat="43.40826594270765781402587890625" lon="-5.8865534327924251556396484375">
        <ele>130.600006103515625</ele>
        <time>2019-02-14T10:08:22.000Z</time>
      </trkpt>
      <trkpt lat="43.40831749141216278076171875" lon="-5.88658176362514495849609375">
        <ele>130.600006103515625</ele>
        <time>2019-02-14T10:08:25.000Z</time>
      </trkpt>
      <trkpt lat="43.408397622406482696533203125" lon="-5.88661654852330684661865234375">
        <ele>130</ele>
        <time>2019-02-14T10:08:29.000Z</time>
      </trkpt>
      <trkpt lat="43.40846962295472621917724609375" lon="-5.88665560819208621978759765625">
        <ele>129</ele>
        <time>2019-02-14T10:08:31.000Z</time>
      </trkpt>
      <trkpt lat="43.408551514148712158203125" lon="-5.886687375605106353759765625">
        <ele>128.1999969482421875</ele>
        <time>2019-02-14T10:08:33.000Z</time>
      </trkpt>
      <trkpt lat="43.4086239337921142578125" lon="-5.886700451374053955078125">
        <ele>128</ele>
        <time>2019-02-14T10:08:35.000Z</time>
      </trkpt>
      <trkpt lat="43.40874874033033847808837890625" lon="-5.8866965956985950469970703125">
        <ele>127.8000030517578125</ele>
        <time>2019-02-14T10:08:38.000Z</time>
      </trkpt>
      <trkpt lat="43.40882048942148685455322265625" lon="-5.8867071568965911865234375">
        <ele>126.8000030517578125</ele>
        <time>2019-02-14T10:08:40.000Z</time>
      </trkpt>
      <trkpt lat="43.40889140032231807708740234375" lon="-5.88672182522714138031005859375">
        <ele>125.1999969482421875</ele>
        <time>2019-02-14T10:08:42.000Z</time>
      </trkpt>
      <trkpt lat="43.4089256823062896728515625" lon="-5.886722914874553680419921875">
        <ele>124.40000152587890625</ele>
        <time>2019-02-14T10:08:43.000Z</time>
      </trkpt>
      <trkpt lat="43.40896348468959331512451171875" lon="-5.8867204003036022186279296875">
        <ele>123.59999847412109375</ele>
        <time>2019-02-14T10:08:44.000Z</time>
      </trkpt>
      <trkpt lat="43.40904772281646728515625" lon="-5.886732973158359527587890625">
        <ele>122.40000152587890625</ele>
        <time>2019-02-14T10:08:46.000Z</time>
      </trkpt>
      <trkpt lat="43.4091350622475147247314453125" lon="-5.8867767266929149627685546875">
        <ele>121.1999969482421875</ele>
        <time>2019-02-14T10:08:48.000Z</time>
      </trkpt>
      <trkpt lat="43.409202285110950469970703125" lon="-5.8868203125894069671630859375">
        <ele>120.1999969482421875</ele>
        <time>2019-02-14T10:08:50.000Z</time>
      </trkpt>
      <trkpt lat="43.4092265926301479339599609375" lon="-5.886846967041492462158203125">
        <ele>120</ele>
        <time>2019-02-14T10:08:51.000Z</time>
      </trkpt>
      <trkpt lat="43.40924897231161594390869140625" lon="-5.88687102310359477996826171875">
        <ele>120</ele>
        <time>2019-02-14T10:08:52.000Z</time>
      </trkpt>
      <trkpt lat="43.4092872776091098785400390625" lon="-5.88691745884716510772705078125">
        <ele>120.40000152587890625</ele>
        <time>2019-02-14T10:08:54.000Z</time>
      </trkpt>
      <trkpt lat="43.4093060530722141265869140625" lon="-5.8869405090808868408203125">
        <ele>120.8000030517578125</ele>
        <time>2019-02-14T10:08:55.000Z</time>
      </trkpt>
      <trkpt lat="43.4093338809907436370849609375" lon="-5.88697948493063449859619140625">
        <ele>121</ele>
        <time>2019-02-14T10:08:57.000Z</time>
      </trkpt>
      <trkpt lat="43.4093655645847320556640625" lon="-5.88702298700809478759765625">
        <ele>121.1999969482421875</ele>
        <time>2019-02-14T10:08:59.000Z</time>
      </trkpt>
      <trkpt lat="43.40940956957638263702392578125" lon="-5.8870845101773738861083984375">
        <ele>121.59999847412109375</ele>
        <time>2019-02-14T10:09:02.000Z</time>
      </trkpt>
      <trkpt lat="43.40943404473364353179931640625" lon="-5.88714041747152805328369140625">
        <ele>121.59999847412109375</ele>
        <time>2019-02-14T10:09:04.000Z</time>
      </trkpt>
      <trkpt lat="43.40945667587220668792724609375" lon="-5.88719422928988933563232421875">
        <ele>121.59999847412109375</ele>
        <time>2019-02-14T10:09:06.000Z</time>
      </trkpt>
      <trkpt lat="43.40949640609323978424072265625" lon="-5.88726731948554515838623046875">
        <ele>121.59999847412109375</ele>
        <time>2019-02-14T10:09:09.000Z</time>
      </trkpt>
      <trkpt lat="43.4095196239650249481201171875" lon="-5.88731811381876468658447265625">
        <ele>121.8000030517578125</ele>
        <time>2019-02-14T10:09:11.000Z</time>
      </trkpt>
      <trkpt lat="43.40959833003580570220947265625" lon="-5.88741282932460308074951171875">
        <ele>121.8000030517578125</ele>
        <time>2019-02-14T10:09:17.000Z</time>
      </trkpt>
      <trkpt lat="43.4096081368625164031982421875" lon="-5.887434370815753936767578125">
        <ele>121.8000030517578125</ele>
        <time>2019-02-14T10:09:18.000Z</time>
      </trkpt>
      <trkpt lat="43.409661613404750823974609375" lon="-5.8875150047242641448974609375">
        <ele>121.1999969482421875</ele>
        <time>2019-02-14T10:09:22.000Z</time>
      </trkpt>
      <trkpt lat="43.40969220735132694244384765625" lon="-5.8876030147075653076171875">
        <ele>121.1999969482421875</ele>
        <time>2019-02-14T10:09:26.000Z</time>
      </trkpt>
      <trkpt lat="43.40969840995967388153076171875" lon="-5.8876601792871952056884765625">
        <ele>122</ele>
        <time>2019-02-14T10:09:29.000Z</time>
      </trkpt>
      <trkpt lat="43.409696482121944427490234375" lon="-5.88769999332726001739501953125">
        <ele>122.1999969482421875</ele>
        <time>2019-02-14T10:09:31.000Z</time>
      </trkpt>
      <trkpt lat="43.40968566946685314178466796875" lon="-5.88774341158568859100341796875">
        <ele>122.40000152587890625</ele>
        <time>2019-02-14T10:09:33.000Z</time>
      </trkpt>
      <trkpt lat="43.409683406352996826171875" lon="-5.88776637800037860870361328125">
        <ele>122.59999847412109375</ele>
        <time>2019-02-14T10:09:34.000Z</time>
      </trkpt>
      <trkpt lat="43.4096798859536647796630859375" lon="-5.88779118843376636505126953125">
        <ele>122.8000030517578125</ele>
        <time>2019-02-14T10:09:35.000Z</time>
      </trkpt>
      <trkpt lat="43.40966957621276378631591796875" lon="-5.887836702167987823486328125">
        <ele>123.40000152587890625</ele>
        <time>2019-02-14T10:09:37.000Z</time>
      </trkpt>
      <trkpt lat="43.4096678160130977630615234375" lon="-5.88786117732524871826171875">
        <ele>123.8000030517578125</ele>
        <time>2019-02-14T10:09:38.000Z</time>
      </trkpt>
      <trkpt lat="43.40966119430959224700927734375" lon="-5.88790551759302616119384765625">
        <ele>124.40000152587890625</ele>
        <time>2019-02-14T10:09:40.000Z</time>
      </trkpt>
      <trkpt lat="43.40966270305216312408447265625" lon="-5.88793451897799968719482421875">
        <ele>125</ele>
        <time>2019-02-14T10:09:42.000Z</time>
      </trkpt>
      <trkpt lat="43.4096604399383068084716796875" lon="-5.8879394643008708953857421875">
        <ele>125</ele>
        <time>2019-02-14T10:09:43.000Z</time>
      </trkpt>
      <trkpt lat="43.40984174050390720367431640625" lon="-5.888430140912532806396484375">
        <ele>130</ele>
        <time>2019-02-14T10:10:25.000Z</time>
      </trkpt>
      <trkpt lat="43.4098605997860431671142578125" lon="-5.88847003877162933349609375">
        <ele>129.8000030517578125</ele>
        <time>2019-02-14T10:10:27.000Z</time>
      </trkpt>
      <trkpt lat="43.4099001623690128326416015625" lon="-5.88857690803706645965576171875">
        <ele>130.600006103515625</ele>
        <time>2019-02-14T10:10:33.000Z</time>
      </trkpt>
      <trkpt lat="43.4099182672798633575439453125" lon="-5.88860817253589630126953125">
        <ele>130.8000030517578125</ele>
        <time>2019-02-14T10:10:35.000Z</time>
      </trkpt>
      <trkpt lat="43.40993821620941162109375" lon="-5.88862401433289051055908203125">
        <ele>131.1999969482421875</ele>
        <time>2019-02-14T10:10:37.000Z</time>
      </trkpt>
      <trkpt lat="43.40998708270490169525146484375" lon="-5.88864765129983425140380859375">
        <ele>131.600006103515625</ele>
        <time>2019-02-14T10:10:40.000Z</time>
      </trkpt>
      <trkpt lat="43.41007567942142486572265625" lon="-5.888621918857097625732421875">
        <ele>131.399993896484375</ele>
        <time>2019-02-14T10:10:44.000Z</time>
      </trkpt>
      <trkpt lat="43.41010778211057186126708984375" lon="-5.88860020972788333892822265625">
        <ele>131</ele>
        <time>2019-02-14T10:10:45.000Z</time>
      </trkpt>
      <trkpt lat="43.41021691448986530303955078125" lon="-5.88858981616795063018798828125">
        <ele>130.1999969482421875</ele>
        <time>2019-02-14T10:10:48.000Z</time>
      </trkpt>
      <trkpt lat="43.4102931059896945953369140625" lon="-5.8886100165545940399169921875">
        <ele>129.8000030517578125</ele>
        <time>2019-02-14T10:10:51.000Z</time>
      </trkpt>
      <trkpt lat="43.41035152785480022430419921875" lon="-5.88860289193689823150634765625">
        <ele>129.1999969482421875</ele>
        <time>2019-02-14T10:10:54.000Z</time>
      </trkpt>
      <trkpt lat="43.41037382371723651885986328125" lon="-5.8886009640991687774658203125">
        <ele>129</ele>
        <time>2019-02-14T10:10:55.000Z</time>
      </trkpt>
      <trkpt lat="43.4103963710367679595947265625" lon="-5.88860138319432735443115234375">
        <ele>129</ele>
        <time>2019-02-14T10:10:56.000Z</time>
      </trkpt>
      <trkpt lat="43.41049938462674617767333984375" lon="-5.88861714117228984832763671875">
        <ele>129</ele>
        <time>2019-02-14T10:11:00.000Z</time>
      </trkpt>
      <trkpt lat="43.41054850257933139801025390625" lon="-5.88861630298197269439697265625">
        <ele>128.8000030517578125</ele>
        <time>2019-02-14T10:11:02.000Z</time>
      </trkpt>
      <trkpt lat="43.41062058694660663604736328125" lon="-5.88860825635492801666259765625">
        <ele>127.8000030517578125</ele>
        <time>2019-02-14T10:11:04.000Z</time>
      </trkpt>
      <trkpt lat="43.4106528572738170623779296875" lon="-5.8886034786701202392578125">
        <ele>127.59999847412109375</ele>
        <time>2019-02-14T10:11:05.000Z</time>
      </trkpt>
      <trkpt lat="43.41069795191287994384765625" lon="-5.88860020972788333892822265625">
        <ele>127.40000152587890625</ele>
        <time>2019-02-14T10:11:07.000Z</time>
      </trkpt>
      <trkpt lat="43.4107430465519428253173828125" lon="-5.88860741816461086273193359375">
        <ele>127.8000030517578125</ele>
        <time>2019-02-14T10:11:09.000Z</time>
      </trkpt>
      <trkpt lat="43.410787470638751983642578125" lon="-5.888613201677799224853515625">
        <ele>128.8000030517578125</ele>
        <time>2019-02-14T10:11:11.000Z</time>
      </trkpt>
      <trkpt lat="43.410808257758617401123046875" lon="-5.888619236648082733154296875">
        <ele>129</ele>
        <time>2019-02-14T10:11:12.000Z</time>
      </trkpt>
      <trkpt lat="43.41084656305611133575439453125" lon="-5.88862887583673000335693359375">
        <ele>129.399993896484375</ele>
        <time>2019-02-14T10:11:14.000Z</time>
      </trkpt>
      <trkpt lat="43.41095033101737499237060546875" lon="-5.88868386112153530120849609375">
        <ele>129.399993896484375</ele>
        <time>2019-02-14T10:11:19.000Z</time>
      </trkpt>
      <trkpt lat="43.411079160869121551513671875" lon="-5.88873825967311859130859375">
        <ele>129.1999969482421875</ele>
        <time>2019-02-14T10:11:24.000Z</time>
      </trkpt>
      <trkpt lat="43.4112043865025043487548828125" lon="-5.88881042785942554473876953125">
        <ele>129.600006103515625</ele>
        <time>2019-02-14T10:11:28.000Z</time>
      </trkpt>
      <trkpt lat="43.41127923689782619476318359375" lon="-5.8888668380677700042724609375">
        <ele>130.399993896484375</ele>
        <time>2019-02-14T10:11:31.000Z</time>
      </trkpt>
      <trkpt lat="43.41130681335926055908203125" lon="-5.8888775669038295745849609375">
        <ele>130.8000030517578125</ele>
        <time>2019-02-14T10:11:32.000Z</time>
      </trkpt>
      <trkpt lat="43.41142625547945499420166015625" lon="-5.88890044949948787689208984375">
        <ele>131.8000030517578125</ele>
        <time>2019-02-14T10:11:36.000Z</time>
      </trkpt>
      <trkpt lat="43.41149113141000270843505859375" lon="-5.88889106176793575286865234375">
        <ele>132.8000030517578125</ele>
        <time>2019-02-14T10:11:39.000Z</time>
      </trkpt>
      <trkpt lat="43.4116566739976406097412109375" lon="-5.88888335041701793670654296875">
        <ele>133.8000030517578125</ele>
        <time>2019-02-14T10:11:45.000Z</time>
      </trkpt>
      <trkpt lat="43.41181249357759952545166015625" lon="-5.8888904750347137451171875">
        <ele>133.8000030517578125</ele>
        <time>2019-02-14T10:11:51.000Z</time>
      </trkpt>
      <trkpt lat="43.4119567461311817169189453125" lon="-5.88891067542135715484619140625">
        <ele>132.8000030517578125</ele>
        <time>2019-02-14T10:11:55.000Z</time>
      </trkpt>
      <trkpt lat="43.4120194427669048309326171875" lon="-5.88893867097795009613037109375">
        <ele>131.600006103515625</ele>
        <time>2019-02-14T10:11:58.000Z</time>
      </trkpt>
      <trkpt lat="43.4120888449251651763916015625" lon="-5.888967923820018768310546875">
        <ele>131.399993896484375</ele>
        <time>2019-02-14T10:12:00.000Z</time>
      </trkpt>
      <trkpt lat="43.4122296608984470367431640625" lon="-5.8890214003622531890869140625">
        <ele>130.399993896484375</ele>
        <time>2019-02-14T10:12:04.000Z</time>
      </trkpt>
      <trkpt lat="43.41225120238959789276123046875" lon="-5.8890374936163425445556640625">
        <ele>130.1999969482421875</ele>
        <time>2019-02-14T10:12:05.000Z</time>
      </trkpt>
      <trkpt lat="43.41230417601764202117919921875" lon="-5.8890978433191776275634765625">
        <ele>130.600006103515625</ele>
        <time>2019-02-14T10:12:08.000Z</time>
      </trkpt>
      <trkpt lat="43.41233032755553722381591796875" lon="-5.88914184831082820892333984375">
        <ele>131.399993896484375</ele>
        <time>2019-02-14T10:12:10.000Z</time>
      </trkpt>
      <trkpt lat="43.41235019266605377197265625" lon="-5.8892001025378704071044921875">
        <ele>132.600006103515625</ele>
        <time>2019-02-14T10:12:13.000Z</time>
      </trkpt>
      <trkpt lat="43.4123822115361690521240234375" lon="-5.88926238007843494415283203125">
        <ele>133.8000030517578125</ele>
        <time>2019-02-14T10:12:16.000Z</time>
      </trkpt>
      <trkpt lat="43.41239503584802150726318359375" lon="-5.88928316719830036163330078125">
        <ele>134</ele>
        <time>2019-02-14T10:12:17.000Z</time>
      </trkpt>
      <trkpt lat="43.41243661008775234222412109375" lon="-5.88934116996824741363525390625">
        <ele>134.8000030517578125</ele>
        <time>2019-02-14T10:12:20.000Z</time>
      </trkpt>
      <trkpt lat="43.41246443800628185272216796875" lon="-5.88938408531248569488525390625">
        <ele>135</ele>
        <time>2019-02-14T10:12:22.000Z</time>
      </trkpt>
      <trkpt lat="43.41254222206771373748779296875" lon="-5.88947393931448459625244140625">
        <ele>135</ele>
        <time>2019-02-14T10:12:26.000Z</time>
      </trkpt>
      <trkpt lat="43.41256300918757915496826171875" lon="-5.88948215357959270477294921875">
        <ele>135</ele>
        <time>2019-02-14T10:12:27.000Z</time>
      </trkpt>
      <trkpt lat="43.41265504248440265655517578125" lon="-5.8894537389278411865234375">
        <ele>135.399993896484375</ele>
        <time>2019-02-14T10:12:32.000Z</time>
      </trkpt>
      <trkpt lat="43.41267817653715610504150390625" lon="-5.88943890295922756195068359375">
        <ele>135.399993896484375</ele>
        <time>2019-02-14T10:12:33.000Z</time>
      </trkpt>
      <trkpt lat="43.412829302251338958740234375" lon="-5.8893593586981296539306640625">
        <ele>134.600006103515625</ele>
        <time>2019-02-14T10:12:39.000Z</time>
      </trkpt>
      <trkpt lat="43.41296617873013019561767578125" lon="-5.8893142640590667724609375">
        <ele>135</ele>
        <time>2019-02-14T10:12:45.000Z</time>
      </trkpt>
      <trkpt lat="43.413125015795230865478515625" lon="-5.8892611227929592132568359375">
        <ele>135.399993896484375</ele>
        <time>2019-02-14T10:12:51.000Z</time>
      </trkpt>
      <trkpt lat="43.4132881276309490203857421875" lon="-5.88921259157359600067138671875">
        <ele>135.8000030517578125</ele>
        <time>2019-02-14T10:12:58.000Z</time>
      </trkpt>
      <trkpt lat="43.41341192834079265594482421875" lon="-5.8891705982387065887451171875">
        <ele>136.1999969482421875</ele>
        <time>2019-02-14T10:13:03.000Z</time>
      </trkpt>
      <trkpt lat="43.41348384507000446319580078125" lon="-5.8891400881111621856689453125">
        <ele>136.8000030517578125</ele>
        <time>2019-02-14T10:13:06.000Z</time>
      </trkpt>
      <trkpt lat="43.41358576901257038116455078125" lon="-5.88908501900732517242431640625">
        <ele>137.399993896484375</ele>
        <time>2019-02-14T10:13:10.000Z</time>
      </trkpt>
      <trkpt lat="43.41365098021924495697021484375" lon="-5.8890475519001483917236328125">
        <ele>137.399993896484375</ele>
        <time>2019-02-14T10:13:13.000Z</time>
      </trkpt>
      <trkpt lat="43.4137645550072193145751953125" lon="-5.8890079893171787261962890625">
        <ele>138.399993896484375</ele>
        <time>2019-02-14T10:13:19.000Z</time>
      </trkpt>
      <trkpt lat="43.41380772180855274200439453125" lon="-5.888996422290802001953125">
        <ele>138.8000030517578125</ele>
        <time>2019-02-14T10:13:21.000Z</time>
      </trkpt>
      <trkpt lat="43.4139033593237400054931640625" lon="-5.8889865316450595855712890625">
        <ele>139.8000030517578125</ele>
        <time>2019-02-14T10:13:26.000Z</time>
      </trkpt>
      <trkpt lat="43.41393764130771160125732421875" lon="-5.88897186331450939178466796875">
        <ele>140.399993896484375</ele>
        <time>2019-02-14T10:13:28.000Z</time>
      </trkpt>
      <trkpt lat="43.41398768126964569091796875" lon="-5.88893783278763294219970703125">
        <ele>141</ele>
        <time>2019-02-14T10:13:31.000Z</time>
      </trkpt>
      <trkpt lat="43.4140585921704769134521484375" lon="-5.88888519443571567535400390625">
        <ele>141.8000030517578125</ele>
        <time>2019-02-14T10:13:36.000Z</time>
      </trkpt>
      <trkpt lat="43.4140756912529468536376953125" lon="-5.88887245394289493560791015625">
        <ele>142</ele>
        <time>2019-02-14T10:13:37.000Z</time>
      </trkpt>
      <trkpt lat="43.4141450934112071990966796875" lon="-5.88881445117294788360595703125">
        <ele>143.1999969482421875</ele>
        <time>2019-02-14T10:13:42.000Z</time>
      </trkpt>
      <trkpt lat="43.4141745977103710174560546875" lon="-5.8887939155101776123046875">
        <ele>143.600006103515625</ele>
        <time>2019-02-14T10:13:44.000Z</time>
      </trkpt>
      <trkpt lat="43.41423419304192066192626953125" lon="-5.88875493966042995452880859375">
        <ele>144.399993896484375</ele>
        <time>2019-02-14T10:13:48.000Z</time>
      </trkpt>
      <trkpt lat="43.414268977940082550048828125" lon="-5.8887402713298797607421875">
        <ele>145</ele>
        <time>2019-02-14T10:13:50.000Z</time>
      </trkpt>
      <trkpt lat="43.4142847359180450439453125" lon="-5.888737253844738006591796875">
        <ele>145.600006103515625</ele>
        <time>2019-02-14T10:13:51.000Z</time>
      </trkpt>
      <trkpt lat="43.41435514390468597412109375" lon="-5.8887243457138538360595703125">
        <ele>146.8000030517578125</ele>
        <time>2019-02-14T10:13:56.000Z</time>
      </trkpt>
      <trkpt lat="43.414397723972797393798828125" lon="-5.88871068321168422698974609375">
        <ele>148</ele>
        <time>2019-02-14T10:13:59.000Z</time>
      </trkpt>
      <trkpt lat="43.414436616003513336181640625" lon="-5.88869878090918064117431640625">
        <ele>148.600006103515625</ele>
        <time>2019-02-14T10:14:02.000Z</time>
      </trkpt>
      <trkpt lat="43.414457738399505615234375" lon="-5.88868997991085052490234375">
        <ele>149.1999969482421875</ele>
        <time>2019-02-14T10:14:04.000Z</time>
      </trkpt>
      <trkpt lat="43.41451867483556270599365234375" lon="-5.888679586350917816162109375">
        <ele>150.399993896484375</ele>
        <time>2019-02-14T10:14:09.000Z</time>
      </trkpt>
      <trkpt lat="43.41453216969966888427734375" lon="-5.8886767365038394927978515625">
        <ele>150.600006103515625</ele>
        <time>2019-02-14T10:14:10.000Z</time>
      </trkpt>
      <trkpt lat="43.41459696181118488311767578125" lon="-5.88868956081569194793701171875">
        <ele>151.399993896484375</ele>
        <time>2019-02-14T10:14:14.000Z</time>
      </trkpt>
      <trkpt lat="43.414638452231884002685546875" lon="-5.88872015476226806640625">
        <ele>152</ele>
        <time>2019-02-14T10:14:17.000Z</time>
      </trkpt>
      <trkpt lat="43.41467122547328472137451171875" lon="-5.88876281864941120147705078125">
        <ele>152.1999969482421875</ele>
        <time>2019-02-14T10:14:20.000Z</time>
      </trkpt>
      <trkpt lat="43.414708189666271209716796875" lon="-5.88881864212453365325927734375">
        <ele>153.399993896484375</ele>
        <time>2019-02-14T10:14:24.000Z</time>
      </trkpt>
      <trkpt lat="43.4147700481116771697998046875" lon="-5.88892173953354358673095703125">
        <ele>154.600006103515625</ele>
        <time>2019-02-14T10:14:31.000Z</time>
      </trkpt>
      <trkpt lat="43.41477801091969013214111328125" lon="-5.8889365755021572113037109375">
        <ele>154.8000030517578125</ele>
        <time>2019-02-14T10:14:32.000Z</time>
      </trkpt>
      <trkpt lat="43.41484037227928638458251953125" lon="-5.889044366776943206787109375">
        <ele>155.8000030517578125</ele>
        <time>2019-02-14T10:14:39.000Z</time>
      </trkpt>
      <trkpt lat="43.4148498438298702239990234375" lon="-5.88905987329781055450439453125">
        <ele>155.8000030517578125</ele>
        <time>2019-02-14T10:14:40.000Z</time>
      </trkpt>
      <trkpt lat="43.41491715051233768463134765625" lon="-5.88919146917760372161865234375">
        <ele>156.399993896484375</ele>
        <time>2019-02-14T10:14:47.000Z</time>
      </trkpt>
      <trkpt lat="43.41496928595006465911865234375" lon="-5.88932440616190433502197265625">
        <ele>156.600006103515625</ele>
        <time>2019-02-14T10:14:53.000Z</time>
      </trkpt>
      <trkpt lat="43.41497666202485561370849609375" lon="-5.8893472887575626373291015625">
        <ele>156.600006103515625</ele>
        <time>2019-02-14T10:14:54.000Z</time>
      </trkpt>
      <trkpt lat="43.41499158181250095367431640625" lon="-5.88939649052917957305908203125">
        <ele>156.8000030517578125</ele>
        <time>2019-02-14T10:14:56.000Z</time>
      </trkpt>
      <trkpt lat="43.41499761678278446197509765625" lon="-5.88941954076290130615234375">
        <ele>156.8000030517578125</ele>
        <time>2019-02-14T10:14:57.000Z</time>
      </trkpt>
      <trkpt lat="43.41502142138779163360595703125" lon="-5.88955365121364593505859375">
        <ele>157.1999969482421875</ele>
        <time>2019-02-14T10:15:02.000Z</time>
      </trkpt>
      <trkpt lat="43.4150352515280246734619140625" lon="-5.8897006697952747344970703125">
        <ele>157.1999969482421875</ele>
        <time>2019-02-14T10:15:06.000Z</time>
      </trkpt>
      <trkpt lat="43.41504715383052825927734375" lon="-5.88985799811780452728271484375">
        <ele>156.399993896484375</ele>
        <time>2019-02-14T10:15:09.000Z</time>
      </trkpt>
      <trkpt lat="43.4150598943233489990234375" lon="-5.88997987098991870880126953125">
        <ele>155.399993896484375</ele>
        <time>2019-02-14T10:15:11.000Z</time>
      </trkpt>
      <trkpt lat="43.41506869532167911529541015625" lon="-5.89004541747272014617919921875">
        <ele>155.1999969482421875</ele>
        <time>2019-02-14T10:15:12.000Z</time>
      </trkpt>
      <trkpt lat="43.4150915779173374176025390625" lon="-5.8901717327535152435302734375">
        <ele>154.399993896484375</ele>
        <time>2019-02-14T10:15:14.000Z</time>
      </trkpt>
      <trkpt lat="43.415105156600475311279296875" lon="-5.8902315795421600341796875">
        <ele>154.1999969482421875</ele>
        <time>2019-02-14T10:15:15.000Z</time>
      </trkpt>
      <trkpt lat="43.415159471333026885986328125" lon="-5.89037616737186908721923828125">
        <ele>154.1999969482421875</ele>
        <time>2019-02-14T10:15:18.000Z</time>
      </trkpt>
      <trkpt lat="43.41524186544120311737060546875" lon="-5.89057615958154201507568359375">
        <ele>155</ele>
        <time>2019-02-14T10:15:24.000Z</time>
      </trkpt>
      <trkpt lat="43.41525904834270477294921875" lon="-5.8906092680990695953369140625">
        <ele>155</ele>
        <time>2019-02-14T10:15:25.000Z</time>
      </trkpt>
      <trkpt lat="43.41527891345322132110595703125" lon="-5.89064623229205608367919921875">
        <ele>155</ele>
        <time>2019-02-14T10:15:26.000Z</time>
      </trkpt>
      <trkpt lat="43.4153199009597301483154296875" lon="-5.890725441277027130126953125">
        <ele>155</ele>
        <time>2019-02-14T10:15:28.000Z</time>
      </trkpt>
      <trkpt lat="43.41535854153335094451904296875" lon="-5.89081269688904285430908203125">
        <ele>154.8000030517578125</ele>
        <time>2019-02-14T10:15:30.000Z</time>
      </trkpt>
      <trkpt lat="43.415407575666904449462890625" lon="-5.89092065580189228057861328125">
        <ele>153.399993896484375</ele>
        <time>2019-02-14T10:15:32.000Z</time>
      </trkpt>
      <trkpt lat="43.41542811132967472076416015625" lon="-5.89098150841891765594482421875">
        <ele>152.600006103515625</ele>
        <time>2019-02-14T10:15:33.000Z</time>
      </trkpt>
      <trkpt lat="43.415444791316986083984375" lon="-5.89104454033076763153076171875">
        <ele>152.1999969482421875</ele>
        <time>2019-02-14T10:15:34.000Z</time>
      </trkpt>
      <trkpt lat="43.4154570288956165313720703125" lon="-5.89111377485096454620361328125">
        <ele>151.399993896484375</ele>
        <time>2019-02-14T10:15:35.000Z</time>
      </trkpt>
      <trkpt lat="43.41546733863651752471923828125" lon="-5.89118870906531810760498046875">
        <ele>150.8000030517578125</ele>
        <time>2019-02-14T10:15:36.000Z</time>
      </trkpt>
      <trkpt lat="43.4154711104929447174072265625" lon="-5.8912694267928600311279296875">
        <ele>150</ele>
        <time>2019-02-14T10:15:37.000Z</time>
      </trkpt>
      <trkpt lat="43.41547119431197643280029296875" lon="-5.89135332964360713958740234375">
        <ele>149</ele>
        <time>2019-02-14T10:15:38.000Z</time>
      </trkpt>
      <trkpt lat="43.41547152958810329437255859375" lon="-5.89152096770703792572021484375">
        <ele>147.8000030517578125</ele>
        <time>2019-02-14T10:15:40.000Z</time>
      </trkpt>
      <trkpt lat="43.41547404415905475616455078125" lon="-5.8915993385016918182373046875">
        <ele>147.600006103515625</ele>
        <time>2019-02-14T10:15:41.000Z</time>
      </trkpt>
      <trkpt lat="43.41548158787190914154052734375" lon="-5.8916687406599521636962890625">
        <ele>147.399993896484375</ele>
        <time>2019-02-14T10:15:42.000Z</time>
      </trkpt>
      <trkpt lat="43.41549214906990528106689453125" lon="-5.8917304314672946929931640625">
        <ele>147.1999969482421875</ele>
        <time>2019-02-14T10:15:43.000Z</time>
      </trkpt>
      <trkpt lat="43.41552852652966976165771484375" lon="-5.89187367819249629974365234375">
        <ele>146.600006103515625</ele>
        <time>2019-02-14T10:15:46.000Z</time>
      </trkpt>
      <trkpt lat="43.41554612852632999420166015625" lon="-5.8919111452996730804443359375">
        <ele>146.399993896484375</ele>
        <time>2019-02-14T10:15:47.000Z</time>
      </trkpt>
      <trkpt lat="43.41557512991130352020263671875" lon="-5.89194743894040584564208984375">
        <ele>146.399993896484375</ele>
        <time>2019-02-14T10:15:48.000Z</time>
      </trkpt>
      <trkpt lat="43.4156553447246551513671875" lon="-5.8920009993016719818115234375">
        <ele>146</ele>
        <time>2019-02-14T10:15:50.000Z</time>
      </trkpt>
      <trkpt lat="43.41569415293633937835693359375" lon="-5.89203796349465847015380859375">
        <ele>145.600006103515625</ele>
        <time>2019-02-14T10:15:51.000Z</time>
      </trkpt>
      <trkpt lat="43.41572449542582035064697265625" lon="-5.89208942838013172149658203125">
        <ele>145.399993896484375</ele>
        <time>2019-02-14T10:15:52.000Z</time>
      </trkpt>
      <trkpt lat="43.4157492220401763916015625" lon="-5.89214877225458621978759765625">
        <ele>145</ele>
        <time>2019-02-14T10:15:53.000Z</time>
      </trkpt>
      <trkpt lat="43.415791802108287811279296875" lon="-5.8922786079347133636474609375">
        <ele>144.1999969482421875</ele>
        <time>2019-02-14T10:15:55.000Z</time>
      </trkpt>
      <trkpt lat="43.41581049375236034393310546875" lon="-5.89234541170299053192138671875">
        <ele>144</ele>
        <time>2019-02-14T10:15:56.000Z</time>
      </trkpt>
      <trkpt lat="43.4158479608595371246337890625" lon="-5.89254473336040973663330078125">
        <ele>143.1999969482421875</ele>
        <time>2019-02-14T10:15:59.000Z</time>
      </trkpt>
      <trkpt lat="43.41582977212965488433837890625" lon="-5.89275486767292022705078125">
        <ele>142.8000030517578125</ele>
        <time>2019-02-14T10:16:02.000Z</time>
      </trkpt>
      <trkpt lat="43.4158016927540302276611328125" lon="-5.89289568364620208740234375">
        <ele>142.399993896484375</ele>
        <time>2019-02-14T10:16:04.000Z</time>
      </trkpt>
      <trkpt lat="43.41570437885820865631103515625" lon="-5.89334755204617977142333984375">
        <ele>141.399993896484375</ele>
        <time>2019-02-14T10:16:10.000Z</time>
      </trkpt>
      <trkpt lat="43.4156947396695613861083984375" lon="-5.89342969469726085662841796875">
        <ele>141</ele>
        <time>2019-02-14T10:16:11.000Z</time>
      </trkpt>
      <trkpt lat="43.415689207613468170166015625" lon="-5.893516279757022857666015625">
        <ele>140.8000030517578125</ele>
        <time>2019-02-14T10:16:12.000Z</time>
      </trkpt>
      <trkpt lat="43.41569180600345134735107421875" lon="-5.893690288066864013671875">
        <ele>140</ele>
        <time>2019-02-14T10:16:14.000Z</time>
      </trkpt>
      <trkpt lat="43.41569884680211544036865234375" lon="-5.89386236853897571563720703125">
        <ele>139.600006103515625</ele>
        <time>2019-02-14T10:16:16.000Z</time>
      </trkpt>
      <trkpt lat="43.41569800861179828643798828125" lon="-5.89394769631326198577880859375">
        <ele>139.399993896484375</ele>
        <time>2019-02-14T10:16:17.000Z</time>
      </trkpt>
      <trkpt lat="43.41569096781313419342041015625" lon="-5.89403092861175537109375">
        <ele>139.1999969482421875</ele>
        <time>2019-02-14T10:16:18.000Z</time>
      </trkpt>
      <trkpt lat="43.41567873023450374603271484375" lon="-5.89411206543445587158203125">
        <ele>138.8000030517578125</ele>
        <time>2019-02-14T10:16:19.000Z</time>
      </trkpt>
      <trkpt lat="43.41566942632198333740234375" lon="-5.89418909512460231781005859375">
        <ele>138.8000030517578125</ele>
        <time>2019-02-14T10:16:20.000Z</time>
      </trkpt>
      <trkpt lat="43.41566540300846099853515625" lon="-5.8942590840160846710205078125">
        <ele>138.8000030517578125</ele>
        <time>2019-02-14T10:16:21.000Z</time>
      </trkpt>
      <trkpt lat="43.41566381044685840606689453125" lon="-5.89432303793728351593017578125">
        <ele>138.8000030517578125</ele>
        <time>2019-02-14T10:16:22.000Z</time>
      </trkpt>
      <trkpt lat="43.4156692586839199066162109375" lon="-5.8943710662424564361572265625">
        <ele>139.399993896484375</ele>
        <time>2019-02-14T10:16:23.000Z</time>
      </trkpt>
      <trkpt lat="43.41566230170428752899169921875" lon="-5.8944149874150753021240234375">
        <ele>139.399993896484375</ele>
        <time>2019-02-14T10:16:24.000Z</time>
      </trkpt>
      <trkpt lat="43.4156491421163082122802734375" lon="-5.8945159055292606353759765625">
        <ele>140</ele>
        <time>2019-02-14T10:16:26.000Z</time>
      </trkpt>
      <trkpt lat="43.41563581489026546478271484375" lon="-5.89460282586514949798583984375">
        <ele>140.399993896484375</ele>
        <time>2019-02-14T10:16:28.000Z</time>
      </trkpt>
      <trkpt lat="43.41561636887490749359130859375" lon="-5.89467792771756649017333984375">
        <ele>141.600006103515625</ele>
        <time>2019-02-14T10:16:30.000Z</time>
      </trkpt>
      <trkpt lat="43.41558284126222133636474609375" lon="-5.89480164460837841033935546875">
        <ele>142.399993896484375</ele>
        <time>2019-02-14T10:16:33.000Z</time>
      </trkpt>
      <trkpt lat="43.4155763871967792510986328125" lon="-5.894843973219394683837890625">
        <ele>142.8000030517578125</ele>
        <time>2019-02-14T10:16:34.000Z</time>
      </trkpt>
      <trkpt lat="43.41557160951197147369384765625" lon="-5.8950272016227245330810546875">
        <ele>143.399993896484375</ele>
        <time>2019-02-14T10:16:38.000Z</time>
      </trkpt>
      <trkpt lat="43.41556825675070285797119140625" lon="-5.89512887410819530487060546875">
        <ele>143.399993896484375</ele>
        <time>2019-02-14T10:16:40.000Z</time>
      </trkpt>
      <trkpt lat="43.41551519930362701416015625" lon="-5.89544990099966526031494140625">
        <ele>142.399993896484375</ele>
        <time>2019-02-14T10:16:45.000Z</time>
      </trkpt>
      <trkpt lat="43.41548209078609943389892578125" lon="-5.89565106667578220367431640625">
        <ele>141.600006103515625</ele>
        <time>2019-02-14T10:16:48.000Z</time>
      </trkpt>
      <trkpt lat="43.41547789983451366424560546875" lon="-5.895717032253742218017578125">
        <ele>141.399993896484375</ele>
        <time>2019-02-14T10:16:49.000Z</time>
      </trkpt>
      <trkpt lat="43.4154801629483699798583984375" lon="-5.89584636501967906951904296875">
        <ele>141.1999969482421875</ele>
        <time>2019-02-14T10:16:51.000Z</time>
      </trkpt>
      <trkpt lat="43.415471948683261871337890625" lon="-5.896232686936855316162109375">
        <ele>142.1999969482421875</ele>
        <time>2019-02-14T10:16:58.000Z</time>
      </trkpt>
      <trkpt lat="43.415465913712978363037109375" lon="-5.896276943385601043701171875">
        <ele>142.8000030517578125</ele>
        <time>2019-02-14T10:16:59.000Z</time>
      </trkpt>
      <trkpt lat="43.41546599753201007843017578125" lon="-5.896405018866062164306640625">
        <ele>144</ele>
        <time>2019-02-14T10:17:02.000Z</time>
      </trkpt>
      <trkpt lat="43.4154731221497058868408203125" lon="-5.8964856527745723724365234375">
        <ele>144.399993896484375</ele>
        <time>2019-02-14T10:17:04.000Z</time>
      </trkpt>
      <trkpt lat="43.41548494063317775726318359375" lon="-5.89665890671312808990478515625">
        <ele>145.1999969482421875</ele>
        <time>2019-02-14T10:17:08.000Z</time>
      </trkpt>
      <trkpt lat="43.415482006967067718505859375" lon="-5.89674725197255611419677734375">
        <ele>145.399993896484375</ele>
        <time>2019-02-14T10:17:10.000Z</time>
      </trkpt>
      <trkpt lat="43.415482006967067718505859375" lon="-5.89694690890610218048095703125">
        <ele>146.399993896484375</ele>
        <time>2019-02-14T10:17:15.000Z</time>
      </trkpt>
      <trkpt lat="43.415479995310306549072265625" lon="-5.89698077179491519927978515625">
        <ele>146.8000030517578125</ele>
        <time>2019-02-14T10:17:16.000Z</time>
      </trkpt>
      <trkpt lat="43.4154815040528774261474609375" lon="-5.89704883284866809844970703125">
        <ele>147.399993896484375</ele>
        <time>2019-02-14T10:17:18.000Z</time>
      </trkpt>
      <trkpt lat="43.415476642549037933349609375" lon="-5.89728243649005889892578125">
        <ele>147.600006103515625</ele>
        <time>2019-02-14T10:17:24.000Z</time>
      </trkpt>
      <trkpt lat="43.4154546819627285003662109375" lon="-5.89757890440523624420166015625">
        <ele>147.1999969482421875</ele>
        <time>2019-02-14T10:17:30.000Z</time>
      </trkpt>
      <trkpt lat="43.41544143855571746826171875" lon="-5.89764260686933994293212890625">
        <ele>146.8000030517578125</ele>
        <time>2019-02-14T10:17:31.000Z</time>
      </trkpt>
      <trkpt lat="43.41539810411632061004638671875" lon="-5.897778309881687164306640625">
        <ele>146.1999969482421875</ele>
        <time>2019-02-14T10:17:33.000Z</time>
      </trkpt>
      <trkpt lat="43.415372036397457122802734375" lon="-5.8978472091257572174072265625">
        <ele>145.399993896484375</ele>
        <time>2019-02-14T10:17:34.000Z</time>
      </trkpt>
      <trkpt lat="43.4153420291841030120849609375" lon="-5.89792440645396709442138671875">
        <ele>144.399993896484375</ele>
        <time>2019-02-14T10:17:35.000Z</time>
      </trkpt>
      <trkpt lat="43.41531931422650814056396484375" lon="-5.8980068005621433258056640625">
        <ele>143.399993896484375</ele>
        <time>2019-02-14T10:17:36.000Z</time>
      </trkpt>
      <trkpt lat="43.41531210578978061676025390625" lon="-5.89808416552841663360595703125">
        <ele>142.1999969482421875</ele>
        <time>2019-02-14T10:17:37.000Z</time>
      </trkpt>
      <trkpt lat="43.41533171944320201873779296875" lon="-5.89821810834109783172607421875">
        <ele>141.1999969482421875</ele>
        <time>2019-02-14T10:17:39.000Z</time>
      </trkpt>
      <trkpt lat="43.415351249277591705322265625" lon="-5.89828021824359893798828125">
        <ele>141.1999969482421875</ele>
        <time>2019-02-14T10:17:40.000Z</time>
      </trkpt>
      <trkpt lat="43.41536424122750759124755859375" lon="-5.8983414061367511749267578125">
        <ele>141</ele>
        <time>2019-02-14T10:17:41.000Z</time>
      </trkpt>
      <trkpt lat="43.41537329368293285369873046875" lon="-5.8985227905213832855224609375">
        <ele>142.1999969482421875</ele>
        <time>2019-02-14T10:17:44.000Z</time>
      </trkpt>
      <trkpt lat="43.4153611399233341217041015625" lon="-5.89865514077246189117431640625">
        <ele>143.399993896484375</ele>
        <time>2019-02-14T10:17:47.000Z</time>
      </trkpt>
      <trkpt lat="43.415359966456890106201171875" lon="-5.8986947871744632720947265625">
        <ele>143.8000030517578125</ele>
        <time>2019-02-14T10:17:48.000Z</time>
      </trkpt>
      <trkpt lat="43.41538108885288238525390625" lon="-5.898816324770450592041015625">
        <ele>144.399993896484375</ele>
        <time>2019-02-14T10:17:51.000Z</time>
      </trkpt>
      <trkpt lat="43.41540715657174587249755859375" lon="-5.89888966642320156097412109375">
        <ele>144.600006103515625</ele>
        <time>2019-02-14T10:17:53.000Z</time>
      </trkpt>
      <trkpt lat="43.4154801629483699798583984375" lon="-5.89912888593971729278564453125">
        <ele>144.1999969482421875</ele>
        <time>2019-02-14T10:17:58.000Z</time>
      </trkpt>
      <trkpt lat="43.4154955856502056121826171875" lon="-5.89918102137744426727294921875">
        <ele>144.1999969482421875</ele>
        <time>2019-02-14T10:17:59.000Z</time>
      </trkpt>
      <trkpt lat="43.415641598403453826904296875" lon="-5.89957681484520435333251953125">
        <ele>144</ele>
        <time>2019-02-14T10:18:07.000Z</time>
      </trkpt>
      <trkpt lat="43.4156568534672260284423828125" lon="-5.89962073601782321929931640625">
        <ele>144.1999969482421875</ele>
        <time>2019-02-14T10:18:08.000Z</time>
      </trkpt>
      <trkpt lat="43.4157089889049530029296875" lon="-5.89979943819344043731689453125">
        <ele>144.600006103515625</ele>
        <time>2019-02-14T10:18:12.000Z</time>
      </trkpt>
      <trkpt lat="43.41573539189994335174560546875" lon="-5.89991292916238307952880859375">
        <ele>144.1999969482421875</ele>
        <time>2019-02-14T10:18:14.000Z</time>
      </trkpt>
      <trkpt lat="43.41576120816171169281005859375" lon="-5.90003899298608303070068359375">
        <ele>143.1999969482421875</ele>
        <time>2019-02-14T10:18:16.000Z</time>
      </trkpt>
      <trkpt lat="43.415789790451526641845703125" lon="-5.90027251280844211578369140625">
        <ele>141.8000030517578125</ele>
        <time>2019-02-14T10:18:19.000Z</time>
      </trkpt>
      <trkpt lat="43.415785767138004302978515625" lon="-5.90045171789824962615966796875">
        <ele>140.399993896484375</ele>
        <time>2019-02-14T10:18:21.000Z</time>
      </trkpt>
      <trkpt lat="43.4157762117683887481689453125" lon="-5.900536961853504180908203125">
        <ele>139.600006103515625</ele>
        <time>2019-02-14T10:18:22.000Z</time>
      </trkpt>
      <trkpt lat="43.41576171107590198516845703125" lon="-5.90061097405850887298583984375">
        <ele>138.8000030517578125</ele>
        <time>2019-02-14T10:18:23.000Z</time>
      </trkpt>
      <trkpt lat="43.415748886764049530029296875" lon="-5.90067752636969089508056640625">
        <ele>138.399993896484375</ele>
        <time>2019-02-14T10:18:24.000Z</time>
      </trkpt>
      <trkpt lat="43.415758609771728515625" lon="-5.9008512832224369049072265625">
        <ele>138</ele>
        <time>2019-02-14T10:18:28.000Z</time>
      </trkpt>
      <trkpt lat="43.4157782234251499176025390625" lon="-5.90087064541876316070556640625">
        <ele>137.8000030517578125</ele>
        <time>2019-02-14T10:18:29.000Z</time>
      </trkpt>
      <trkpt lat="43.41583429835736751556396484375" lon="-5.900859832763671875">
        <ele>136.8000030517578125</ele>
        <time>2019-02-14T10:18:31.000Z</time>
      </trkpt>
      <trkpt lat="43.41586581431329250335693359375" lon="-5.90082655660808086395263671875">
        <ele>136.399993896484375</ele>
        <time>2019-02-14T10:18:32.000Z</time>
      </trkpt>
      <trkpt lat="43.41589917428791522979736328125" lon="-5.90078297071158885955810546875">
        <ele>136.1999969482421875</ele>
        <time>2019-02-14T10:18:33.000Z</time>
      </trkpt>
      <trkpt lat="43.4159740246832370758056640625" lon="-5.90067316778004169464111328125">
        <ele>135.1999969482421875</ele>
        <time>2019-02-14T10:18:35.000Z</time>
      </trkpt>
      <trkpt lat="43.41601702384650707244873046875" lon="-5.90060963295400142669677734375">
        <ele>134.1999969482421875</ele>
        <time>2019-02-14T10:18:36.000Z</time>
      </trkpt>
      <trkpt lat="43.4160571731626987457275390625" lon="-5.900540649890899658203125">
        <ele>133.600006103515625</ele>
        <time>2019-02-14T10:18:37.000Z</time>
      </trkpt>
      <trkpt lat="43.41609598137438297271728515625" lon="-5.90046362020075321197509765625">
        <ele>132.8000030517578125</ele>
        <time>2019-02-14T10:18:38.000Z</time>
      </trkpt>
      <trkpt lat="43.41613252647221088409423828125" lon="-5.9003768675029277801513671875">
        <ele>132</ele>
        <time>2019-02-14T10:18:39.000Z</time>
      </trkpt>
      <trkpt lat="43.4161949716508388519287109375" lon="-5.9001871012151241302490234375">
        <ele>130.1999969482421875</ele>
        <time>2019-02-14T10:18:41.000Z</time>
      </trkpt>
      <trkpt lat="43.41625154949724674224853515625" lon="-5.8999929763376712799072265625">
        <ele>128.399993896484375</ele>
        <time>2019-02-14T10:18:43.000Z</time>
      </trkpt>
      <trkpt lat="43.41630770824849605560302734375" lon="-5.89979759417474269866943359375">
        <ele>127.1999969482421875</ele>
        <time>2019-02-14T10:18:45.000Z</time>
      </trkpt>
      <trkpt lat="43.416334278881549835205078125" lon="-5.8996997773647308349609375">
        <ele>126.1999969482421875</ele>
        <time>2019-02-14T10:18:46.000Z</time>
      </trkpt>
      <trkpt lat="43.4163589216768741607666015625" lon="-5.89960548095405101776123046875">
        <ele>125.59999847412109375</ele>
        <time>2019-02-14T10:18:47.000Z</time>
      </trkpt>
      <trkpt lat="43.41637744568288326263427734375" lon="-5.89951411820948123931884765625">
        <ele>125.59999847412109375</ele>
        <time>2019-02-14T10:18:48.000Z</time>
      </trkpt>
      <trkpt lat="43.416383899748325347900390625" lon="-5.89933306910097599029541015625">
        <ele>124.8000030517578125</ele>
        <time>2019-02-14T10:18:50.000Z</time>
      </trkpt>
      <trkpt lat="43.41636386699974536895751953125" lon="-5.89924371801316738128662109375">
        <ele>124.40000152587890625</ele>
        <time>2019-02-14T10:18:51.000Z</time>
      </trkpt>
      <trkpt lat="43.41629563830792903900146484375" lon="-5.8990709669888019561767578125">
        <ele>123.59999847412109375</ele>
        <time>2019-02-14T10:18:53.000Z</time>
      </trkpt>
      <trkpt lat="43.41625657863914966583251953125" lon="-5.89898806996643543243408203125">
        <ele>122.8000030517578125</ele>
        <time>2019-02-14T10:18:54.000Z</time>
      </trkpt>
      <trkpt lat="43.41616295278072357177734375" lon="-5.89875102974474430084228515625">
        <ele>121.8000030517578125</ele>
        <time>2019-02-14T10:18:57.000Z</time>
      </trkpt>
      <trkpt lat="43.4161503799259662628173828125" lon="-5.8986719883978366851806640625">
        <ele>121.8000030517578125</ele>
        <time>2019-02-14T10:18:58.000Z</time>
      </trkpt>
      <trkpt lat="43.4161963127553462982177734375" lon="-5.8984694816172122955322265625">
        <ele>122.1999969482421875</ele>
        <time>2019-02-14T10:19:01.000Z</time>
      </trkpt>
      <trkpt lat="43.41622573323547840118408203125" lon="-5.89841374196112155914306640625">
        <ele>122.40000152587890625</ele>
        <time>2019-02-14T10:19:02.000Z</time>
      </trkpt>
      <trkpt lat="43.41625808738172054290771484375" lon="-5.8983581699430942535400390625">
        <ele>122.8000030517578125</ele>
        <time>2019-02-14T10:19:03.000Z</time>
      </trkpt>
      <trkpt lat="43.41629127971827983856201171875" lon="-5.898303687572479248046875">
        <ele>122.8000030517578125</ele>
        <time>2019-02-14T10:19:04.000Z</time>
      </trkpt>
      <trkpt lat="43.41632346622645854949951171875" lon="-5.8982460200786590576171875">
        <ele>122.59999847412109375</ele>
        <time>2019-02-14T10:19:05.000Z</time>
      </trkpt>
      <trkpt lat="43.41635045595467090606689453125" lon="-5.8981838263571262359619140625">
        <ele>122.59999847412109375</ele>
        <time>2019-02-14T10:19:06.000Z</time>
      </trkpt>
      <trkpt lat="43.41636688448488712310791015625" lon="-5.89811668731272220611572265625">
        <ele>122.59999847412109375</ele>
        <time>2019-02-14T10:19:07.000Z</time>
      </trkpt>
      <trkpt lat="43.41635129414498805999755859375" lon="-5.89791770093142986297607421875">
        <ele>122.8000030517578125</ele>
        <time>2019-02-14T10:19:10.000Z</time>
      </trkpt>
      <trkpt lat="43.4163366258144378662109375" lon="-5.89785601012408733367919921875">
        <ele>122.8000030517578125</ele>
        <time>2019-02-14T10:19:11.000Z</time>
      </trkpt>
      <trkpt lat="43.41630569659173488616943359375" lon="-5.897737406194210052490234375">
        <ele>123.1999969482421875</ele>
        <time>2019-02-14T10:19:13.000Z</time>
      </trkpt>
      <trkpt lat="43.4162757731974124908447265625" lon="-5.89762316085398197174072265625">
        <ele>123.8000030517578125</ele>
        <time>2019-02-14T10:19:15.000Z</time>
      </trkpt>
      <trkpt lat="43.4162529744207859039306640625" lon="-5.8975179679691791534423828125">
        <ele>124.40000152587890625</ele>
        <time>2019-02-14T10:19:17.000Z</time>
      </trkpt>
      <trkpt lat="43.41624434106051921844482421875" lon="-5.89746843092143535614013671875">
        <ele>124.8000030517578125</ele>
        <time>2019-02-14T10:19:18.000Z</time>
      </trkpt>
      <trkpt lat="43.41623260639607906341552734375" lon="-5.89737170375883579254150390625">
        <ele>125.8000030517578125</ele>
        <time>2019-02-14T10:19:20.000Z</time>
      </trkpt>
      <trkpt lat="43.4162239730358123779296875" lon="-5.8973231725394725799560546875">
        <ele>126</ele>
        <time>2019-02-14T10:19:21.000Z</time>
      </trkpt>
      <trkpt lat="43.416216261684894561767578125" lon="-5.89721747674047946929931640625">
        <ele>126.40000152587890625</ele>
        <time>2019-02-14T10:19:23.000Z</time>
      </trkpt>
      <trkpt lat="43.4162295050919055938720703125" lon="-5.8970626629889011383056640625">
        <ele>127.1999969482421875</ele>
        <time>2019-02-14T10:19:26.000Z</time>
      </trkpt>
      <trkpt lat="43.41625222004950046539306640625" lon="-5.8969111181795597076416015625">
        <ele>127.8000030517578125</ele>
        <time>2019-02-14T10:19:29.000Z</time>
      </trkpt>
      <trkpt lat="43.41625808738172054290771484375" lon="-5.89686267077922821044921875">
        <ele>128</ele>
        <time>2019-02-14T10:19:30.000Z</time>
      </trkpt>
      <trkpt lat="43.41626965440809726715087890625" lon="-5.89676342904567718505859375">
        <ele>128.1999969482421875</ele>
        <time>2019-02-14T10:19:32.000Z</time>
      </trkpt>
      <trkpt lat="43.41628306545317173004150390625" lon="-5.89656536467373371124267578125">
        <ele>129.1999969482421875</ele>
        <time>2019-02-14T10:19:36.000Z</time>
      </trkpt>
      <trkpt lat="43.41628574766218662261962890625" lon="-5.896514318883419036865234375">
        <ele>129.399993896484375</ele>
        <time>2019-02-14T10:19:37.000Z</time>
      </trkpt>
      <trkpt lat="43.416308462619781494140625" lon="-5.8963136561214923858642578125">
        <ele>130.1999969482421875</ele>
        <time>2019-02-14T10:19:41.000Z</time>
      </trkpt>
      <trkpt lat="43.4163351170718669891357421875" lon="-5.896216928958892822265625">
        <ele>130.399993896484375</ele>
        <time>2019-02-14T10:19:43.000Z</time>
      </trkpt>
      <trkpt lat="43.4163518808782100677490234375" lon="-5.8961704932153224945068359375">
        <ele>130.600006103515625</ele>
        <time>2019-02-14T10:19:44.000Z</time>
      </trkpt>
      <trkpt lat="43.4164125658571720123291015625" lon="-5.89604954235255718231201171875">
        <ele>131.399993896484375</ele>
        <time>2019-02-14T10:19:47.000Z</time>
      </trkpt>
      <trkpt lat="43.41643410734832286834716796875" lon="-5.89601266197860240936279296875">
        <ele>131.8000030517578125</ele>
        <time>2019-02-14T10:19:48.000Z</time>
      </trkpt>
      <trkpt lat="43.4164588339626789093017578125" lon="-5.895977206528186798095703125">
        <ele>132</ele>
        <time>2019-02-14T10:19:49.000Z</time>
      </trkpt>
      <trkpt lat="43.4165879152715206146240234375" lon="-5.89579917490482330322265625">
        <ele>132.8000030517578125</ele>
        <time>2019-02-14T10:19:54.000Z</time>
      </trkpt>
      <trkpt lat="43.41661381535232067108154296875" lon="-5.89576698839664459228515625">
        <ele>133</ele>
        <time>2019-02-14T10:19:55.000Z</time>
      </trkpt>
      <trkpt lat="43.41663678176701068878173828125" lon="-5.89573807083070278167724609375">
        <ele>133</ele>
        <time>2019-02-14T10:19:56.000Z</time>
      </trkpt>
      <trkpt lat="43.4167692996561527252197265625" lon="-5.89564251713454723358154296875">
        <ele>134.1999969482421875</ele>
        <time>2019-02-14T10:20:01.000Z</time>
      </trkpt>
      <trkpt lat="43.41692662797868251800537109375" lon="-5.89565626345574855804443359375">
        <ele>135.1999969482421875</ele>
        <time>2019-02-14T10:20:06.000Z</time>
      </trkpt>
      <trkpt lat="43.4170965291559696197509765625" lon="-5.89571493677794933319091796875">
        <ele>135.8000030517578125</ele>
        <time>2019-02-14T10:20:11.000Z</time>
      </trkpt>
      <trkpt lat="43.41727875173091888427734375" lon="-5.89578132145106792449951171875">
        <ele>136.399993896484375</ele>
        <time>2019-02-14T10:20:16.000Z</time>
      </trkpt>
      <trkpt lat="43.41755770146846771240234375" lon="-5.8958818204700946807861328125">
        <ele>136.1999969482421875</ele>
        <time>2019-02-14T10:20:23.000Z</time>
      </trkpt>
      <trkpt lat="43.41759718023240566253662109375" lon="-5.89589682407677173614501953125">
        <ele>136.1999969482421875</ele>
        <time>2019-02-14T10:20:24.000Z</time>
      </trkpt>
      <trkpt lat="43.41791954822838306427001953125" lon="-5.8959988318383693695068359375">
        <ele>136</ele>
        <time>2019-02-14T10:20:32.000Z</time>
      </trkpt>
      <trkpt lat="43.41817595064640045166015625" lon="-5.89598533697426319122314453125">
        <ele>136.1999969482421875</ele>
        <time>2019-02-14T10:20:38.000Z</time>
      </trkpt>
      <trkpt lat="43.4183846600353717803955078125" lon="-5.8959567546844482421875">
        <ele>137</ele>
        <time>2019-02-14T10:20:44.000Z</time>
      </trkpt>
      <trkpt lat="43.418414331972599029541015625" lon="-5.89596102945506572723388671875">
        <ele>137.1999969482421875</ele>
        <time>2019-02-14T10:20:45.000Z</time>
      </trkpt>
      <trkpt lat="43.41843805275857448577880859375" lon="-5.89597946964204311370849609375">
        <ele>137.399993896484375</ele>
        <time>2019-02-14T10:20:46.000Z</time>
      </trkpt>
      <trkpt lat="43.4184584207832813262939453125" lon="-5.89601282961666584014892578125">
        <ele>137.399993896484375</ele>
        <time>2019-02-14T10:20:47.000Z</time>
      </trkpt>
      <trkpt lat="43.41844593174755573272705078125" lon="-5.89609128423035144805908203125">
        <ele>137.600006103515625</ele>
        <time>2019-02-14T10:20:49.000Z</time>
      </trkpt>
      <trkpt lat="43.41844081878662109375" lon="-5.89613202027976512908935546875">
        <ele>137.600006103515625</ele>
        <time>2019-02-14T10:20:50.000Z</time>
      </trkpt>
      <trkpt lat="43.41839530505239963531494140625" lon="-5.89629462920129299163818359375">
        <ele>138</ele>
        <time>2019-02-14T10:20:54.000Z</time>
      </trkpt>
      <trkpt lat="43.4183756075799465179443359375" lon="-5.8963867463171482086181640625">
        <ele>138.1999969482421875</ele>
        <time>2019-02-14T10:20:56.000Z</time>
      </trkpt>
      <trkpt lat="43.41836697421967983245849609375" lon="-5.8964320085942745208740234375">
        <ele>138.399993896484375</ele>
        <time>2019-02-14T10:20:57.000Z</time>
      </trkpt>
      <trkpt lat="43.4183233045041561126708984375" lon="-5.896718502044677734375">
        <ele>139.8000030517578125</ele>
        <time>2019-02-14T10:21:03.000Z</time>
      </trkpt>
      <trkpt lat="43.41831743717193603515625" lon="-5.89676720090210437774658203125">
        <ele>140.1999969482421875</ele>
        <time>2019-02-14T10:21:04.000Z</time>
      </trkpt>
      <trkpt lat="43.41829773969948291778564453125" lon="-5.8968554623425006866455078125">
        <ele>140.8000030517578125</ele>
        <time>2019-02-14T10:21:06.000Z</time>
      </trkpt>
      <trkpt lat="43.41828533448278903961181640625" lon="-5.89689460583031177520751953125">
        <ele>141</ele>
        <time>2019-02-14T10:21:07.000Z</time>
      </trkpt>
      <trkpt lat="43.4182361327111721038818359375" lon="-5.8970063365995883941650390625">
        <ele>141.600006103515625</ele>
        <time>2019-02-14T10:21:10.000Z</time>
      </trkpt>
      <trkpt lat="43.418199755251407623291015625" lon="-5.897076912224292755126953125">
        <ele>142.1999969482421875</ele>
        <time>2019-02-14T10:21:12.000Z</time>
      </trkpt>
      <trkpt lat="43.418111912906169891357421875" lon="-5.897241532802581787109375">
        <ele>143.399993896484375</ele>
        <time>2019-02-14T10:21:17.000Z</time>
      </trkpt>
      <trkpt lat="43.418095149099826812744140625" lon="-5.89727262966334819793701171875">
        <ele>143.600006103515625</ele>
        <time>2019-02-14T10:21:18.000Z</time>
      </trkpt>
      <trkpt lat="43.418044857680797576904296875" lon="-5.89737488888204097747802734375">
        <ele>143.600006103515625</ele>
        <time>2019-02-14T10:21:21.000Z</time>
      </trkpt>
      <trkpt lat="43.417966403067111968994140625" lon="-5.89752651751041412353515625">
        <ele>143.399993896484375</ele>
        <time>2019-02-14T10:21:25.000Z</time>
      </trkpt>
      <trkpt lat="43.41794670559465885162353515625" lon="-5.89757253415882587432861328125">
        <ele>143.1999969482421875</ele>
        <time>2019-02-14T10:21:26.000Z</time>
      </trkpt>
      <trkpt lat="43.41791150160133838653564453125" lon="-5.89767814613878726959228515625">
        <ele>142.8000030517578125</ele>
        <time>2019-02-14T10:21:28.000Z</time>
      </trkpt>
      <trkpt lat="43.417893312871456146240234375" lon="-5.89780001901090145111083984375">
        <ele>142.1999969482421875</ele>
        <time>2019-02-14T10:21:30.000Z</time>
      </trkpt>
      <trkpt lat="43.417893312871456146240234375" lon="-5.89786254800856113433837890625">
        <ele>142</ele>
        <time>2019-02-14T10:21:31.000Z</time>
      </trkpt>
      <trkpt lat="43.417906053364276885986328125" lon="-5.89798207394778728485107421875">
        <ele>141.8000030517578125</ele>
        <time>2019-02-14T10:21:33.000Z</time>
      </trkpt>
      <trkpt lat="43.41796682216227054595947265625" lon="-5.898186005651950836181640625">
        <ele>142.1999969482421875</ele>
        <time>2019-02-14T10:21:37.000Z</time>
      </trkpt>
      <trkpt lat="43.41813915409147739410400390625" lon="-5.89833193458616733551025390625">
        <ele>142.8000030517578125</ele>
        <time>2019-02-14T10:21:42.000Z</time>
      </trkpt>
      <trkpt lat="43.418303690850734710693359375" lon="-5.89841902256011962890625">
        <ele>143</ele>
        <time>2019-02-14T10:21:46.000Z</time>
      </trkpt>
      <trkpt lat="43.41834115795791149139404296875" lon="-5.89844785630702972412109375">
        <ele>143</ele>
        <time>2019-02-14T10:21:47.000Z</time>
      </trkpt>
      <trkpt lat="43.41840972192585468292236328125" lon="-5.89851516298949718475341796875">
        <ele>143.399993896484375</ele>
        <time>2019-02-14T10:21:49.000Z</time>
      </trkpt>
      <trkpt lat="43.4184716641902923583984375" lon="-5.8986451663076877593994140625">
        <ele>144.1999969482421875</ele>
        <time>2019-02-14T10:21:52.000Z</time>
      </trkpt>
      <trkpt lat="43.41848800890147686004638671875" lon="-5.898694284260272979736328125">
        <ele>144.399993896484375</ele>
        <time>2019-02-14T10:21:53.000Z</time>
      </trkpt>
      <trkpt lat="43.418520949780941009521484375" lon="-5.8987739123404026031494140625">
        <ele>145.399993896484375</ele>
        <time>2019-02-14T10:21:55.000Z</time>
      </trkpt>
      <trkpt lat="43.4185368753969669342041015625" lon="-5.89880651794373989105224609375">
        <ele>145.8000030517578125</ele>
        <time>2019-02-14T10:21:56.000Z</time>
      </trkpt>
      <trkpt lat="43.41855925507843494415283203125" lon="-5.89888103306293487548828125">
        <ele>146.600006103515625</ele>
        <time>2019-02-14T10:21:58.000Z</time>
      </trkpt>
      <trkpt lat="43.41857719235122203826904296875" lon="-5.89899502694606781005859375">
        <ele>147.600006103515625</ele>
        <time>2019-02-14T10:22:01.000Z</time>
      </trkpt>
      <trkpt lat="43.41858322732150554656982421875" lon="-5.89907993562519550323486328125">
        <ele>147.8000030517578125</ele>
        <time>2019-02-14T10:22:03.000Z</time>
      </trkpt>
      <trkpt lat="43.418600745499134063720703125" lon="-5.89932720176875591278076171875">
        <ele>148</ele>
        <time>2019-02-14T10:22:09.000Z</time>
      </trkpt>
      <trkpt lat="43.41860351152718067169189453125" lon="-5.89949970133602619171142578125">
        <ele>147.600006103515625</ele>
        <time>2019-02-14T10:22:13.000Z</time>
      </trkpt>
      <trkpt lat="43.41860376298427581787109375" lon="-5.8995487354695796966552734375">
        <ele>147.600006103515625</ele>
        <time>2019-02-14T10:22:14.000Z</time>
      </trkpt>
      <trkpt lat="43.418604098260402679443359375" lon="-5.899789631366729736328125">
        <ele>146.399993896484375</ele>
        <time>2019-02-14T10:22:18.000Z</time>
      </trkpt>
      <trkpt lat="43.41860971413552761077880859375" lon="-5.89994193054735660552978515625">
        <ele>145.8000030517578125</ele>
        <time>2019-02-14T10:22:20.000Z</time>
      </trkpt>
      <trkpt lat="43.418616168200969696044921875" lon="-5.90002072043716907501220703125">
        <ele>145.399993896484375</ele>
        <time>2019-02-14T10:22:21.000Z</time>
      </trkpt>
      <trkpt lat="43.41865464113652706146240234375" lon="-5.9002813138067722320556640625">
        <ele>142.8000030517578125</ele>
        <time>2019-02-14T10:22:24.000Z</time>
      </trkpt>
      <trkpt lat="43.418679535388946533203125" lon="-5.9004476107656955718994140625">
        <ele>143.399993896484375</ele>
        <time>2019-02-14T10:22:26.000Z</time>
      </trkpt>
      <trkpt lat="43.4186961315572261810302734375" lon="-5.90052396990358829498291015625">
        <ele>143.1999969482421875</ele>
        <time>2019-02-14T10:22:27.000Z</time>
      </trkpt>
      <trkpt lat="43.41874189674854278564453125" lon="-5.90065556578338146209716796875">
        <ele>142.8000030517578125</ele>
        <time>2019-02-14T10:22:29.000Z</time>
      </trkpt>
      <trkpt lat="43.418773747980594635009765625" lon="-5.9007111378014087677001953125">
        <ele>142.600006103515625</ele>
        <time>2019-02-14T10:22:30.000Z</time>
      </trkpt>
      <trkpt lat="43.4188444912433624267578125" lon="-5.900795124471187591552734375">
        <ele>142.600006103515625</ele>
        <time>2019-02-14T10:22:32.000Z</time>
      </trkpt>
      <trkpt lat="43.41892420314252376556396484375" lon="-5.90086176060140132904052734375">
        <ele>142.600006103515625</ele>
        <time>2019-02-14T10:22:34.000Z</time>
      </trkpt>
      <trkpt lat="43.41897214762866497039794921875" lon="-5.9008770994842052459716796875">
        <ele>142.399993896484375</ele>
        <time>2019-02-14T10:22:35.000Z</time>
      </trkpt>
      <trkpt lat="43.4190220199525356292724609375" lon="-5.90087592601776123046875">
        <ele>142.1999969482421875</ele>
        <time>2019-02-14T10:22:36.000Z</time>
      </trkpt>
      <trkpt lat="43.419120423495769500732421875" lon="-5.9008475951850414276123046875">
        <ele>141.600006103515625</ele>
        <time>2019-02-14T10:22:38.000Z</time>
      </trkpt>
      <trkpt lat="43.41917549259960651397705078125" lon="-5.90083368122577667236328125">
        <ele>141</ele>
        <time>2019-02-14T10:22:39.000Z</time>
      </trkpt>
      <trkpt lat="43.41923433355987071990966796875" lon="-5.90082705952227115631103515625">
        <ele>140.399993896484375</ele>
        <time>2019-02-14T10:22:40.000Z</time>
      </trkpt>
      <trkpt lat="43.419297449290752410888671875" lon="-5.90083141811192035675048828125">
        <ele>139.399993896484375</ele>
        <time>2019-02-14T10:22:41.000Z</time>
      </trkpt>
      <trkpt lat="43.4194189868867397308349609375" lon="-5.90085824020206928253173828125">
        <ele>138.399993896484375</ele>
        <time>2019-02-14T10:22:43.000Z</time>
      </trkpt>
      <trkpt lat="43.4195284545421600341796875" lon="-5.90091071091592311859130859375">
        <ele>137.399993896484375</ele>
        <time>2019-02-14T10:22:45.000Z</time>
      </trkpt>
      <trkpt lat="43.41956960968673229217529296875" lon="-5.90095144696533679962158203125">
        <ele>137.1999969482421875</ele>
        <time>2019-02-14T10:22:46.000Z</time>
      </trkpt>
      <trkpt lat="43.41959928162395954132080078125" lon="-5.9010125510394573211669921875">
        <ele>136.8000030517578125</ele>
        <time>2019-02-14T10:22:47.000Z</time>
      </trkpt>
      <trkpt lat="43.41964244842529296875" lon="-5.90114439837634563446044921875">
        <ele>136.399993896484375</ele>
        <time>2019-02-14T10:22:49.000Z</time>
      </trkpt>
      <trkpt lat="43.419660888612270355224609375" lon="-5.90120910666882991790771484375">
        <ele>135.600006103515625</ele>
        <time>2019-02-14T10:22:50.000Z</time>
      </trkpt>
      <trkpt lat="43.419687040150165557861328125" lon="-5.90127482078969478607177734375">
        <ele>134.8000030517578125</ele>
        <time>2019-02-14T10:22:51.000Z</time>
      </trkpt>
      <trkpt lat="43.41971847228705883026123046875" lon="-5.901334919035434722900390625">
        <ele>134.1999969482421875</ele>
        <time>2019-02-14T10:22:52.000Z</time>
      </trkpt>
      <trkpt lat="43.41973808594048023223876953125" lon="-5.90146106667816638946533203125">
        <ele>132.8000030517578125</ele>
        <time>2019-02-14T10:22:54.000Z</time>
      </trkpt>
      <trkpt lat="43.41968578286468982696533203125" lon="-5.90159366838634014129638671875">
        <ele>131.600006103515625</ele>
        <time>2019-02-14T10:22:56.000Z</time>
      </trkpt>
      <trkpt lat="43.419644795358180999755859375" lon="-5.90166072361171245574951171875">
        <ele>130.600006103515625</ele>
        <time>2019-02-14T10:22:57.000Z</time>
      </trkpt>
      <trkpt lat="43.4196102619171142578125" lon="-5.90172828175127506256103515625">
        <ele>129.600006103515625</ele>
        <time>2019-02-14T10:22:58.000Z</time>
      </trkpt>
      <trkpt lat="43.41957765631377696990966796875" lon="-5.90187328867614269256591796875">
        <ele>128.399993896484375</ele>
        <time>2019-02-14T10:23:00.000Z</time>
      </trkpt>
      <trkpt lat="43.41961084865033626556396484375" lon="-5.902112759649753570556640625">
        <ele>127.8000030517578125</ele>
        <time>2019-02-14T10:23:03.000Z</time>
      </trkpt>
      <trkpt lat="43.41962342150509357452392578125" lon="-5.9021970815956592559814453125">
        <ele>127.1999969482421875</ele>
        <time>2019-02-14T10:23:04.000Z</time>
      </trkpt>
      <trkpt lat="43.41962174512445926666259765625" lon="-5.90235273353755474090576171875">
        <ele>126.59999847412109375</ele>
        <time>2019-02-14T10:23:06.000Z</time>
      </trkpt>
      <trkpt lat="43.4196067415177822113037109375" lon="-5.90243219397962093353271484375">
        <ele>126.59999847412109375</ele>
        <time>2019-02-14T10:23:07.000Z</time>
      </trkpt>
      <trkpt lat="43.41955997049808502197265625" lon="-5.90257971547544002532958984375">
        <ele>126.8000030517578125</ele>
        <time>2019-02-14T10:23:09.000Z</time>
      </trkpt>
      <trkpt lat="43.41949182562530040740966796875" lon="-5.90269756503403186798095703125">
        <ele>127</ele>
        <time>2019-02-14T10:23:11.000Z</time>
      </trkpt>
      <trkpt lat="43.41945444233715534210205078125" lon="-5.9027455933392047882080078125">
        <ele>127.1999969482421875</ele>
        <time>2019-02-14T10:23:12.000Z</time>
      </trkpt>
      <trkpt lat="43.41932301409542560577392578125" lon="-5.9028894267976284027099609375">
        <ele>127.8000030517578125</ele>
        <time>2019-02-14T10:23:16.000Z</time>
      </trkpt>
      <trkpt lat="43.41929434798657894134521484375" lon="-5.9029088728129863739013671875">
        <ele>128.1999969482421875</ele>
        <time>2019-02-14T10:23:17.000Z</time>
      </trkpt>
      <trkpt lat="43.41923684813082218170166015625" lon="-5.9029162488877773284912109375">
        <ele>128.8000030517578125</ele>
        <time>2019-02-14T10:23:19.000Z</time>
      </trkpt>
      <trkpt lat="43.4192050807178020477294921875" lon="-5.9029095433652400970458984375">
        <ele>128.8000030517578125</ele>
        <time>2019-02-14T10:23:20.000Z</time>
      </trkpt>
      <trkpt lat="43.41917247511446475982666015625" lon="-5.90290007181465625762939453125">
        <ele>129</ele>
        <time>2019-02-14T10:23:21.000Z</time>
      </trkpt>
      <trkpt lat="43.418996371328830718994140625" lon="-5.9028126485645771026611328125">
        <ele>128.600006103515625</ele>
        <time>2019-02-14T10:23:26.000Z</time>
      </trkpt>
      <trkpt lat="43.4188858978450298309326171875" lon="-5.90280971489846706390380859375">
        <ele>128.1999969482421875</ele>
        <time>2019-02-14T10:23:29.000Z</time>
      </trkpt>
      <trkpt lat="43.41885345987975597381591796875" lon="-5.90283486060798168182373046875">
        <ele>128.1999969482421875</ele>
        <time>2019-02-14T10:23:30.000Z</time>
      </trkpt>
      <trkpt lat="43.4187980554997920989990234375" lon="-5.90289286337792873382568359375">
        <ele>128.1999969482421875</ele>
        <time>2019-02-14T10:23:32.000Z</time>
      </trkpt>
      <trkpt lat="43.4187427349388599395751953125" lon="-5.902956314384937286376953125">
        <ele>128.600006103515625</ele>
        <time>2019-02-14T10:23:34.000Z</time>
      </trkpt>
      <trkpt lat="43.418690264225006103515625" lon="-5.90302236378192901611328125">
        <ele>129.399993896484375</ele>
        <time>2019-02-14T10:23:36.000Z</time>
      </trkpt>
      <trkpt lat="43.4186649508774280548095703125" lon="-5.9030520357191562652587890625">
        <ele>129.8000030517578125</ele>
        <time>2019-02-14T10:23:37.000Z</time>
      </trkpt>
      <trkpt lat="43.4186012484133243560791015625" lon="-5.90311079286038875579833984375">
        <ele>130.399993896484375</ele>
        <time>2019-02-14T10:23:40.000Z</time>
      </trkpt>
      <trkpt lat="43.41855841688811779022216796875" lon="-5.90315337292850017547607421875">
        <ele>130.8000030517578125</ele>
        <time>2019-02-14T10:23:42.000Z</time>
      </trkpt>
      <trkpt lat="43.4183858335018157958984375" lon="-5.9033717215061187744140625">
        <ele>131</ele>
        <time>2019-02-14T10:23:49.000Z</time>
      </trkpt>
      <trkpt lat="43.4182877652347087860107421875" lon="-5.90363885276019573211669921875">
        <ele>131.1999969482421875</ele>
        <time>2019-02-14T10:23:56.000Z</time>
      </trkpt>
      <trkpt lat="43.418286927044391632080078125" lon="-5.9037359990179538726806640625">
        <ele>131.600006103515625</ele>
        <time>2019-02-14T10:23:59.000Z</time>
      </trkpt>
      <trkpt lat="43.4182865917682647705078125" lon="-5.90375594794750213623046875">
        <ele>132.1999969482421875</ele>
        <time>2019-02-14T10:24:00.000Z</time>
      </trkpt>
      <trkpt lat="43.41828986071050167083740234375" lon="-5.90380280278623104095458984375">
        <ele>132.600006103515625</ele>
        <time>2019-02-14T10:24:02.000Z</time>
      </trkpt>
      <trkpt lat="43.41831584461033344268798828125" lon="-5.90382727794349193572998046875">
        <ele>132.8000030517578125</ele>
        <time>2019-02-14T10:24:04.000Z</time>
      </trkpt>
      <trkpt lat="43.41833193786442279815673828125" lon="-5.9037500806152820587158203125">
        <ele>132.8000030517578125</ele>
        <time>2019-02-14T10:24:08.000Z</time>
      </trkpt>
      <trkpt lat="43.418315760791301727294921875" lon="-5.90355972759425640106201171875">
        <ele>132.399993896484375</ele>
        <time>2019-02-14T10:24:13.000Z</time>
      </trkpt>
      <trkpt lat="43.41834492981433868408203125" lon="-5.90347356162965297698974609375">
        <ele>131.8000030517578125</ele>
        <time>2019-02-14T10:24:15.000Z</time>
      </trkpt>
      <trkpt lat="43.41836102306842803955078125" lon="-5.903429724276065826416015625">
        <ele>131.8000030517578125</ele>
        <time>2019-02-14T10:24:16.000Z</time>
      </trkpt>
      <trkpt lat="43.41840234585106372833251953125" lon="-5.90334414504468441009521484375">
        <ele>131.399993896484375</ele>
        <time>2019-02-14T10:24:18.000Z</time>
      </trkpt>
      <trkpt lat="43.4185811318457126617431640625" lon="-5.90312294661998748779296875">
        <ele>130.8000030517578125</ele>
        <time>2019-02-14T10:24:25.000Z</time>
      </trkpt>
      <trkpt lat="43.4186347760260105133056640625" lon="-5.9030614234507083892822265625">
        <ele>130.8000030517578125</ele>
        <time>2019-02-14T10:24:27.000Z</time>
      </trkpt>
      <trkpt lat="43.41872437857091426849365234375" lon="-5.9029444120824337005615234375">
        <ele>130.600006103515625</ele>
        <time>2019-02-14T10:24:30.000Z</time>
      </trkpt>
      <trkpt lat="43.418787159025669097900390625" lon="-5.9028676338493824005126953125">
        <ele>130.1999969482421875</ele>
        <time>2019-02-14T10:24:32.000Z</time>
      </trkpt>
      <trkpt lat="43.41884960420429706573486328125" lon="-5.90279915370047092437744140625">
        <ele>129.8000030517578125</ele>
        <time>2019-02-14T10:24:34.000Z</time>
      </trkpt>
      <trkpt lat="43.41888430528342723846435546875" lon="-5.902775265276432037353515625">
        <ele>129.600006103515625</ele>
        <time>2019-02-14T10:24:35.000Z</time>
      </trkpt>
      <trkpt lat="43.418921940028667449951171875" lon="-5.902769565582275390625">
        <ele>129.8000030517578125</ele>
        <time>2019-02-14T10:24:36.000Z</time>
      </trkpt>
      <trkpt lat="43.41895739547908306121826171875" lon="-5.90277786366641521453857421875">
        <ele>129.600006103515625</ele>
        <time>2019-02-14T10:24:37.000Z</time>
      </trkpt>
      <trkpt lat="43.41917096637189388275146484375" lon="-5.902889259159564971923828125">
        <ele>128.600006103515625</ele>
        <time>2019-02-14T10:24:44.000Z</time>
      </trkpt>
      <trkpt lat="43.419250510632991790771484375" lon="-5.9029304981231689453125">
        <ele>128.600006103515625</ele>
        <time>2019-02-14T10:24:47.000Z</time>
      </trkpt>
      <trkpt lat="43.4192583896219730377197265625" lon="-5.9029548056423664093017578125">
        <ele>128.8000030517578125</ele>
        <time>2019-02-14T10:24:48.000Z</time>
      </trkpt>
      <trkpt lat="43.41925327666103839874267578125" lon="-5.9030094556510448455810546875">
        <ele>129</ele>
        <time>2019-02-14T10:24:50.000Z</time>
      </trkpt>
      <trkpt lat="43.419228382408618927001953125" lon="-5.90306469239294528961181640625">
        <ele>129.600006103515625</ele>
        <time>2019-02-14T10:24:52.000Z</time>
      </trkpt>
      <trkpt lat="43.41921119950711727142333984375" lon="-5.90312303043901920318603515625">
        <ele>130</ele>
        <time>2019-02-14T10:24:54.000Z</time>
      </trkpt>
      <trkpt lat="43.41920600272715091705322265625" lon="-5.90315387584269046783447265625">
        <ele>130.8000030517578125</ele>
        <time>2019-02-14T10:24:55.000Z</time>
      </trkpt>
      <trkpt lat="43.4192087687551975250244140625" lon="-5.90325294993817806243896484375">
        <ele>131.600006103515625</ele>
        <time>2019-02-14T10:24:58.000Z</time>
      </trkpt>
      <trkpt lat="43.4192158095538616180419921875" lon="-5.90328748337924480438232421875">
        <ele>131.8000030517578125</ele>
        <time>2019-02-14T10:24:59.000Z</time>
      </trkpt>
      <trkpt lat="43.41922469437122344970703125" lon="-5.9033180773258209228515625">
        <ele>131.8000030517578125</ele>
        <time>2019-02-14T10:25:00.000Z</time>
      </trkpt>
      <trkpt lat="43.4192848764359951019287109375" lon="-5.90341656468808650970458984375">
        <ele>133</ele>
        <time>2019-02-14T10:25:04.000Z</time>
      </trkpt>
      <trkpt lat="43.41934950090944766998291015625" lon="-5.90347222052514553070068359375">
        <ele>133.8000030517578125</ele>
        <time>2019-02-14T10:25:07.000Z</time>
      </trkpt>
      <trkpt lat="43.419444300234317779541015625" lon="-5.90353332459926605224609375">
        <ele>134.399993896484375</ele>
        <time>2019-02-14T10:25:11.000Z</time>
      </trkpt>
      <trkpt lat="43.419489562511444091796875" lon="-5.90356282889842987060546875">
        <ele>134.8000030517578125</ele>
        <time>2019-02-14T10:25:13.000Z</time>
      </trkpt>
      <trkpt lat="43.41953675262629985809326171875" lon="-5.90359141118824481964111328125">
        <ele>135</ele>
        <time>2019-02-14T10:25:15.000Z</time>
      </trkpt>
      <trkpt lat="43.41960280202329158782958984375" lon="-5.90364723466336727142333984375">
        <ele>135.399993896484375</ele>
        <time>2019-02-14T10:25:18.000Z</time>
      </trkpt>
      <trkpt lat="43.41964119113981723785400390625" lon="-5.90369291603565216064453125">
        <ele>135.8000030517578125</ele>
        <time>2019-02-14T10:25:20.000Z</time>
      </trkpt>
      <trkpt lat="43.4197683446109294891357421875" lon="-5.903952755033969879150390625">
        <ele>136.399993896484375</ele>
        <time>2019-02-14T10:25:28.000Z</time>
      </trkpt>
      <trkpt lat="43.41991460882127285003662109375" lon="-5.9043104946613311767578125">
        <ele>136.1999969482421875</ele>
        <time>2019-02-14T10:25:37.000Z</time>
      </trkpt>
      <trkpt lat="43.419927768409252166748046875" lon="-5.90435433201491832733154296875">
        <ele>136.1999969482421875</ele>
        <time>2019-02-14T10:25:38.000Z</time>
      </trkpt>
      <trkpt lat="43.41999507509171962738037109375" lon="-5.90459011495113372802734375">
        <ele>135.8000030517578125</ele>
        <time>2019-02-14T10:25:43.000Z</time>
      </trkpt>
      <trkpt lat="43.42000949196517467498779296875" lon="-5.90463646687567234039306640625">
        <ele>135.8000030517578125</ele>
        <time>2019-02-14T10:25:44.000Z</time>
      </trkpt>
      <trkpt lat="43.42006833292543888092041015625" lon="-5.90488105081021785736083984375">
        <ele>136.1999969482421875</ele>
        <time>2019-02-14T10:25:50.000Z</time>
      </trkpt>
      <trkpt lat="43.4200764633715152740478515625" lon="-5.9049165062606334686279296875">
        <ele>137</ele>
        <time>2019-02-14T10:25:51.000Z</time>
      </trkpt>
      <trkpt lat="43.4201197139918804168701171875" lon="-5.90506025590002536773681640625">
        <ele>138</ele>
        <time>2019-02-14T10:25:55.000Z</time>
      </trkpt>
      <trkpt lat="43.42013069428503513336181640625" lon="-5.9050915203988552093505859375">
        <ele>138.1999969482421875</ele>
        <time>2019-02-14T10:25:56.000Z</time>
      </trkpt>
      <trkpt lat="43.42018718831241130828857421875" lon="-5.9052410535514354705810546875">
        <ele>137.8000030517578125</ele>
        <time>2019-02-14T10:26:00.000Z</time>
      </trkpt>
      <trkpt lat="43.42027536593377590179443359375" lon="-5.905472896993160247802734375">
        <ele>137.1999969482421875</ele>
        <time>2019-02-14T10:26:05.000Z</time>
      </trkpt>
      <trkpt lat="43.4202861785888671875" lon="-5.90551723726093769073486328125">
        <ele>137</ele>
        <time>2019-02-14T10:26:06.000Z</time>
      </trkpt>
      <trkpt lat="43.42030185274779796600341796875" lon="-5.905617736279964447021484375">
        <ele>136.8000030517578125</ele>
        <time>2019-02-14T10:26:08.000Z</time>
      </trkpt>
      <trkpt lat="43.42031677253544330596923828125" lon="-5.9056738950312137603759765625">
        <ele>136.8000030517578125</ele>
        <time>2019-02-14T10:26:09.000Z</time>
      </trkpt>
      <trkpt lat="43.42042825184762477874755859375" lon="-5.9058058261871337890625">
        <ele>135.600006103515625</ele>
        <time>2019-02-14T10:26:12.000Z</time>
      </trkpt>
      <trkpt lat="43.42047460377216339111328125" lon="-5.90584279038012027740478515625">
        <ele>135.1999969482421875</ele>
        <time>2019-02-14T10:26:13.000Z</time>
      </trkpt>
      <trkpt lat="43.4205207042396068572998046875" lon="-5.90588293969631195068359375">
        <ele>135</ele>
        <time>2019-02-14T10:26:14.000Z</time>
      </trkpt>
      <trkpt lat="43.420565128326416015625" lon="-5.90592862106859683990478515625">
        <ele>134.8000030517578125</ele>
        <time>2019-02-14T10:26:15.000Z</time>
      </trkpt>
      <trkpt lat="43.42060326598584651947021484375" lon="-5.905976481735706329345703125">
        <ele>134.8000030517578125</ele>
        <time>2019-02-14T10:26:16.000Z</time>
      </trkpt>
      <trkpt lat="43.420664705336093902587890625" lon="-5.90607211925089359283447265625">
        <ele>134.8000030517578125</ele>
        <time>2019-02-14T10:26:18.000Z</time>
      </trkpt>
      <trkpt lat="43.420684821903705596923828125" lon="-5.90618737041950225830078125">
        <ele>134.8000030517578125</ele>
        <time>2019-02-14T10:26:20.000Z</time>
      </trkpt>
      <trkpt lat="43.42067317105829715728759765625" lon="-5.9062443673610687255859375">
        <ele>134.8000030517578125</ele>
        <time>2019-02-14T10:26:21.000Z</time>
      </trkpt>
      <trkpt lat="43.420632183551788330078125" lon="-5.906357355415821075439453125">
        <ele>134.8000030517578125</ele>
        <time>2019-02-14T10:26:23.000Z</time>
      </trkpt>
      <trkpt lat="43.42060360126197338104248046875" lon="-5.906412340700626373291015625">
        <ele>134.8000030517578125</ele>
        <time>2019-02-14T10:26:24.000Z</time>
      </trkpt>
      <trkpt lat="43.4205726720392704010009765625" lon="-5.90646489523351192474365234375">
        <ele>134.399993896484375</ele>
        <time>2019-02-14T10:26:25.000Z</time>
      </trkpt>
      <trkpt lat="43.42050536535680294036865234375" lon="-5.90657084248960018157958984375">
        <ele>133.600006103515625</ele>
        <time>2019-02-14T10:26:27.000Z</time>
      </trkpt>
      <trkpt lat="43.42043571174144744873046875" lon="-5.9066763706505298614501953125">
        <ele>132.8000030517578125</ele>
        <time>2019-02-14T10:26:29.000Z</time>
      </trkpt>
      <trkpt lat="43.42040746472775936126708984375" lon="-5.9067326970398426055908203125">
        <ele>132.600006103515625</ele>
        <time>2019-02-14T10:26:30.000Z</time>
      </trkpt>
      <trkpt lat="43.42038852162659168243408203125" lon="-5.90680134482681751251220703125">
        <ele>131.8000030517578125</ele>
        <time>2019-02-14T10:26:31.000Z</time>
      </trkpt>
      <trkpt lat="43.4203760325908660888671875" lon="-5.906877033412456512451171875">
        <ele>131.399993896484375</ele>
        <time>2019-02-14T10:26:32.000Z</time>
      </trkpt>
      <trkpt lat="43.42035532929003238677978515625" lon="-5.90710057877004146575927734375">
        <ele>131.1999969482421875</ele>
        <time>2019-02-14T10:26:35.000Z</time>
      </trkpt>
      <trkpt lat="43.4203062951564788818359375" lon="-5.9072349406778812408447265625">
        <ele>131.1999969482421875</ele>
        <time>2019-02-14T10:26:37.000Z</time>
      </trkpt>
      <trkpt lat="43.42023186385631561279296875" lon="-5.90735279023647308349609375">
        <ele>131.1999969482421875</ele>
        <time>2019-02-14T10:26:39.000Z</time>
      </trkpt>
      <trkpt lat="43.42019406147301197052001953125" lon="-5.90740433894097805023193359375">
        <ele>131</ele>
        <time>2019-02-14T10:26:40.000Z</time>
      </trkpt>
      <trkpt lat="43.42008836567401885986328125" lon="-5.90754113160073757171630859375">
        <ele>131.1999969482421875</ele>
        <time>2019-02-14T10:26:43.000Z</time>
      </trkpt>
      <trkpt lat="43.4200305305421352386474609375" lon="-5.907640121877193450927734375">
        <ele>131.399993896484375</ele>
        <time>2019-02-14T10:26:45.000Z</time>
      </trkpt>
      <trkpt lat="43.42000655829906463623046875" lon="-5.90769301168620586395263671875">
        <ele>131.399993896484375</ele>
        <time>2019-02-14T10:26:46.000Z</time>
      </trkpt>
      <trkpt lat="43.419965989887714385986328125" lon="-5.90780113823711872100830078125">
        <ele>131.399993896484375</ele>
        <time>2019-02-14T10:26:48.000Z</time>
      </trkpt>
      <trkpt lat="43.4199296124279499053955078125" lon="-5.907961986958980560302734375">
        <ele>132.1999969482421875</ele>
        <time>2019-02-14T10:26:51.000Z</time>
      </trkpt>
      <trkpt lat="43.4199131838977336883544921875" lon="-5.9080575406551361083984375">
        <ele>132.8000030517578125</ele>
        <time>2019-02-14T10:26:53.000Z</time>
      </trkpt>
      <trkpt lat="43.41990404762327671051025390625" lon="-5.9081975184381008148193359375">
        <ele>133.600006103515625</ele>
        <time>2019-02-14T10:26:56.000Z</time>
      </trkpt>
      <trkpt lat="43.4198970906436443328857421875" lon="-5.90824906714260578155517578125">
        <ele>134</ele>
        <time>2019-02-14T10:26:57.000Z</time>
      </trkpt>
      <trkpt lat="43.41988963074982166290283203125" lon="-5.908404551446437835693359375">
        <ele>134.8000030517578125</ele>
        <time>2019-02-14T10:27:00.000Z</time>
      </trkpt>
      <trkpt lat="43.41987638734281063079833984375" lon="-5.90856741182506084442138671875">
        <ele>134.8000030517578125</ele>
        <time>2019-02-14T10:27:03.000Z</time>
      </trkpt>
      <trkpt lat="43.41981419362127780914306640625" lon="-5.9088315255939960479736328125">
        <ele>135</ele>
        <time>2019-02-14T10:27:08.000Z</time>
      </trkpt>
      <trkpt lat="43.4197995252907276153564453125" lon="-5.908879972994327545166015625">
        <ele>135</ele>
        <time>2019-02-14T10:27:09.000Z</time>
      </trkpt>
      <trkpt lat="43.41978485696017742156982421875" lon="-5.90892724692821502685546875">
        <ele>135</ele>
        <time>2019-02-14T10:27:10.000Z</time>
      </trkpt>
      <trkpt lat="43.41973557136952877044677734375" lon="-5.909062363207340240478515625">
        <ele>135.8000030517578125</ele>
        <time>2019-02-14T10:27:13.000Z</time>
      </trkpt>
      <trkpt lat="43.41971629299223423004150390625" lon="-5.9091051109135150909423828125">
        <ele>136.399993896484375</ele>
        <time>2019-02-14T10:27:14.000Z</time>
      </trkpt>
      <trkpt lat="43.41965275816619396209716796875" lon="-5.90922103263437747955322265625">
        <ele>137</ele>
        <time>2019-02-14T10:27:17.000Z</time>
      </trkpt>
      <trkpt lat="43.41954664327204227447509765625" lon="-5.90936033986508846282958984375">
        <ele>137.8000030517578125</ele>
        <time>2019-02-14T10:27:21.000Z</time>
      </trkpt>
      <trkpt lat="43.4194774925708770751953125" lon="-5.9094092063605785369873046875">
        <ele>137.1999969482421875</ele>
        <time>2019-02-14T10:27:23.000Z</time>
      </trkpt>
      <trkpt lat="43.41932603158056735992431640625" lon="-5.90947383083403110504150390625">
        <ele>136.600006103515625</ele>
        <time>2019-02-14T10:27:27.000Z</time>
      </trkpt>
      <trkpt lat="43.41925478540360927581787109375" lon="-5.9095032513141632080078125">
        <ele>136.399993896484375</ele>
        <time>2019-02-14T10:27:29.000Z</time>
      </trkpt>
      <trkpt lat="43.41916996054351329803466796875" lon="-5.90953971259295940399169921875">
        <ele>136.8000030517578125</ele>
        <time>2019-02-14T10:27:32.000Z</time>
      </trkpt>
      <trkpt lat="43.41911044903099536895751953125" lon="-5.909562595188617706298828125">
        <ele>137.600006103515625</ele>
        <time>2019-02-14T10:27:35.000Z</time>
      </trkpt>
      <trkpt lat="43.4190783463418483734130859375" lon="-5.90957692824304103851318359375">
        <ele>137.600006103515625</ele>
        <time>2019-02-14T10:27:37.000Z</time>
      </trkpt>
      <trkpt lat="43.41894163750112056732177734375" lon="-5.909631662070751190185546875">
        <ele>138.1999969482421875</ele>
        <time>2019-02-14T10:27:43.000Z</time>
      </trkpt>
      <trkpt lat="43.41883786953985691070556640625" lon="-5.909673236310482025146484375">
        <ele>138.600006103515625</ele>
        <time>2019-02-14T10:27:46.000Z</time>
      </trkpt>
      <trkpt lat="43.41873745433986186981201171875" lon="-5.9097384475171566009521484375">
        <ele>138.399993896484375</ele>
        <time>2019-02-14T10:27:49.000Z</time>
      </trkpt>
      <trkpt lat="43.418585993349552154541015625" lon="-5.90991220436990261077880859375">
        <ele>139.8000030517578125</ele>
        <time>2019-02-14T10:27:55.000Z</time>
      </trkpt>
      <trkpt lat="43.4185677208006381988525390625" lon="-5.9099446423351764678955078125">
        <ele>140</ele>
        <time>2019-02-14T10:27:56.000Z</time>
      </trkpt>
      <trkpt lat="43.4184862487018108367919921875" lon="-5.91010130010545253753662109375">
        <ele>141</ele>
        <time>2019-02-14T10:28:01.000Z</time>
      </trkpt>
      <trkpt lat="43.41842782683670520782470703125" lon="-5.9101947583258152008056640625">
        <ele>141.399993896484375</ele>
        <time>2019-02-14T10:28:04.000Z</time>
      </trkpt>
      <trkpt lat="43.41827116906642913818359375" lon="-5.9103791601955890655517578125">
        <ele>140.1999969482421875</ele>
        <time>2019-02-14T10:28:10.000Z</time>
      </trkpt>
      <trkpt lat="43.4182344563305377960205078125" lon="-5.91041176579892635345458984375">
        <ele>140</ele>
        <time>2019-02-14T10:28:11.000Z</time>
      </trkpt>
      <trkpt lat="43.41811484657227993011474609375" lon="-5.9105189703404903411865234375">
        <ele>138.399993896484375</ele>
        <time>2019-02-14T10:28:14.000Z</time>
      </trkpt>
      <trkpt lat="43.4180332906544208526611328125" lon="-5.91060421429574489593505859375">
        <ele>137.399993896484375</ele>
        <time>2019-02-14T10:28:16.000Z</time>
      </trkpt>
      <trkpt lat="43.4179558418691158294677734375" lon="-5.91069809161126613616943359375">
        <ele>136.8000030517578125</ele>
        <time>2019-02-14T10:28:18.000Z</time>
      </trkpt>
      <trkpt lat="43.4178762137889862060546875" lon="-5.9107838384807109832763671875">
        <ele>136</ele>
        <time>2019-02-14T10:28:20.000Z</time>
      </trkpt>
      <trkpt lat="43.417832292616367340087890625" lon="-5.91082432307302951812744140625">
        <ele>135.600006103515625</ele>
        <time>2019-02-14T10:28:21.000Z</time>
      </trkpt>
      <trkpt lat="43.4177348949015140533447265625" lon="-5.91090948320925235748291015625">
        <ele>134.8000030517578125</ele>
        <time>2019-02-14T10:28:23.000Z</time>
      </trkpt>
      <trkpt lat="43.4176829271018505096435546875" lon="-5.91095365583896636962890625">
        <ele>134.600006103515625</ele>
        <time>2019-02-14T10:28:24.000Z</time>
      </trkpt>
      <trkpt lat="43.41757438145577907562255859375" lon="-5.91103923507034778594970703125">
        <ele>133.600006103515625</ele>
        <time>2019-02-14T10:28:26.000Z</time>
      </trkpt>
      <trkpt lat="43.41743088327348232269287109375" lon="-5.91114551760256290435791015625">
        <ele>132.8000030517578125</ele>
        <time>2019-02-14T10:28:29.000Z</time>
      </trkpt>
      <trkpt lat="43.41738863848149776458740234375" lon="-5.9111824817955493927001953125">
        <ele>132.600006103515625</ele>
        <time>2019-02-14T10:28:30.000Z</time>
      </trkpt>
      <trkpt lat="43.4172405302524566650390625" lon="-5.91131432913243770599365234375">
        <ele>130.399993896484375</ele>
        <time>2019-02-14T10:28:33.000Z</time>
      </trkpt>
      <trkpt lat="43.41718755662441253662109375" lon="-5.91136135160923004150390625">
        <ele>129.1999969482421875</ele>
        <time>2019-02-14T10:28:34.000Z</time>
      </trkpt>
      <trkpt lat="43.41713634319603443145751953125" lon="-5.9114134870469570159912109375">
        <ele>128.399993896484375</ele>
        <time>2019-02-14T10:28:35.000Z</time>
      </trkpt>
      <trkpt lat="43.41708688996732234954833984375" lon="-5.91147040016949176788330078125">
        <ele>128.1999969482421875</ele>
        <time>2019-02-14T10:28:36.000Z</time>
      </trkpt>
      <trkpt lat="43.4170435555279254913330078125" lon="-5.91152966022491455078125">
        <ele>127.59999847412109375</ele>
        <time>2019-02-14T10:28:37.000Z</time>
      </trkpt>
      <trkpt lat="43.41700759716331958770751953125" lon="-5.9115925244987010955810546875">
        <ele>127.40000152587890625</ele>
        <time>2019-02-14T10:28:38.000Z</time>
      </trkpt>
      <trkpt lat="43.416980020701885223388671875" lon="-5.91165832243859767913818359375">
        <ele>127.40000152587890625</ele>
        <time>2019-02-14T10:28:39.000Z</time>
      </trkpt>
      <trkpt lat="43.416933082044124603271484375" lon="-5.9118526987731456756591796875">
        <ele>127.1999969482421875</ele>
        <time>2019-02-14T10:28:42.000Z</time>
      </trkpt>
      <trkpt lat="43.4169205091893672943115234375" lon="-5.911913551390171051025390625">
        <ele>127.59999847412109375</ele>
        <time>2019-02-14T10:28:43.000Z</time>
      </trkpt>
      <trkpt lat="43.41690701432526111602783203125" lon="-5.91197197325527667999267578125">
        <ele>128</ele>
        <time>2019-02-14T10:28:44.000Z</time>
      </trkpt>
      <trkpt lat="43.41689310036599636077880859375" lon="-5.9120287187397480010986328125">
        <ele>128.1999969482421875</ele>
        <time>2019-02-14T10:28:45.000Z</time>
      </trkpt>
      <trkpt lat="43.4168782643973827362060546875" lon="-5.91208144091069698333740234375">
        <ele>128.8000030517578125</ele>
        <time>2019-02-14T10:28:46.000Z</time>
      </trkpt>
      <trkpt lat="43.41686208732426166534423828125" lon="-5.91213039122521877288818359375">
        <ele>129.399993896484375</ele>
        <time>2019-02-14T10:28:47.000Z</time>
      </trkpt>
      <trkpt lat="43.41682939790189266204833984375" lon="-5.91222368180751800537109375">
        <ele>130</ele>
        <time>2019-02-14T10:28:49.000Z</time>
      </trkpt>
      <trkpt lat="43.41679402627050876617431640625" lon="-5.91231496073305606842041015625">
        <ele>130.8000030517578125</ele>
        <time>2019-02-14T10:28:51.000Z</time>
      </trkpt>
      <trkpt lat="43.41673200018703937530517578125" lon="-5.9124793298542499542236328125">
        <ele>131.8000030517578125</ele>
        <time>2019-02-14T10:28:55.000Z</time>
      </trkpt>
      <trkpt lat="43.41669763438403606414794921875" lon="-5.9125916473567485809326171875">
        <ele>132.600006103515625</ele>
        <time>2019-02-14T10:28:58.000Z</time>
      </trkpt>
      <trkpt lat="43.41669076122343540191650390625" lon="-5.91262877918779850006103515625">
        <ele>133.1999969482421875</ele>
        <time>2019-02-14T10:28:59.000Z</time>
      </trkpt>
      <trkpt lat="43.416672237217426300048828125" lon="-5.91270756907761096954345703125">
        <ele>134.399993896484375</ele>
        <time>2019-02-14T10:29:01.000Z</time>
      </trkpt>
      <trkpt lat="43.4166472591459751129150390625" lon="-5.91277294792234897613525390625">
        <ele>134.8000030517578125</ele>
        <time>2019-02-14T10:29:03.000Z</time>
      </trkpt>
      <trkpt lat="43.4166311658918857574462890625" lon="-5.91279943473637104034423828125">
        <ele>135</ele>
        <time>2019-02-14T10:29:04.000Z</time>
      </trkpt>
      <trkpt lat="43.41659604571759700775146484375" lon="-5.91284469701349735260009765625">
        <ele>136</ele>
        <time>2019-02-14T10:29:06.000Z</time>
      </trkpt>
      <trkpt lat="43.4164841473102569580078125" lon="-5.912958942353725433349609375">
        <ele>136.399993896484375</ele>
        <time>2019-02-14T10:29:11.000Z</time>
      </trkpt>
      <trkpt lat="43.4163220413029193878173828125" lon="-5.91311543248593807220458984375">
        <ele>134.8000030517578125</ele>
        <time>2019-02-14T10:29:16.000Z</time>
      </trkpt>
      <trkpt lat="43.416278623044490814208984375" lon="-5.9131518937647342681884765625">
        <ele>134.399993896484375</ele>
        <time>2019-02-14T10:29:17.000Z</time>
      </trkpt>
      <trkpt lat="43.41617812402546405792236328125" lon="-5.91321685351431369781494140625">
        <ele>133</ele>
        <time>2019-02-14T10:29:19.000Z</time>
      </trkpt>
      <trkpt lat="43.41606966219842433929443359375" lon="-5.9132695756852626800537109375">
        <ele>132.399993896484375</ele>
        <time>2019-02-14T10:29:21.000Z</time>
      </trkpt>
      <trkpt lat="43.41595784761011600494384765625" lon="-5.913316346704959869384765625">
        <ele>131.8000030517578125</ele>
        <time>2019-02-14T10:29:23.000Z</time>
      </trkpt>
      <trkpt lat="43.415707647800445556640625" lon="-5.9134184382855892181396484375">
        <ele>132</ele>
        <time>2019-02-14T10:29:28.000Z</time>
      </trkpt>
      <trkpt lat="43.4155373275279998779296875" lon="-5.91352078132331371307373046875">
        <ele>131.600006103515625</ele>
        <time>2019-02-14T10:29:32.000Z</time>
      </trkpt>
      <trkpt lat="43.41549097560346126556396484375" lon="-5.91354525648057460784912109375">
        <ele>131.1999969482421875</ele>
        <time>2019-02-14T10:29:33.000Z</time>
      </trkpt>
      <trkpt lat="43.41544219292700290679931640625" lon="-5.91357283294200897216796875">
        <ele>130.8000030517578125</ele>
        <time>2019-02-14T10:29:34.000Z</time>
      </trkpt>
      <trkpt lat="43.415338508784770965576171875" lon="-5.9136266447603702545166015625">
        <ele>129.399993896484375</ele>
        <time>2019-02-14T10:29:36.000Z</time>
      </trkpt>
      <trkpt lat="43.41527757234871387481689453125" lon="-5.913645587861537933349609375">
        <ele>127.8000030517578125</ele>
        <time>2019-02-14T10:29:37.000Z</time>
      </trkpt>
      <trkpt lat="43.415211774408817291259765625" lon="-5.91365598142147064208984375">
        <ele>126.59999847412109375</ele>
        <time>2019-02-14T10:29:38.000Z</time>
      </trkpt>
      <trkpt lat="43.41507959179580211639404296875" lon="-5.91367098502814769744873046875">
        <ele>125.59999847412109375</ele>
        <time>2019-02-14T10:29:40.000Z</time>
      </trkpt>
      <trkpt lat="43.414943553507328033447265625" lon="-5.91370216570794582366943359375">
        <ele>123.59999847412109375</ele>
        <time>2019-02-14T10:29:42.000Z</time>
      </trkpt>
      <trkpt lat="43.41480583883821964263916015625" lon="-5.9137406386435031890869140625">
        <ele>122.59999847412109375</ele>
        <time>2019-02-14T10:29:44.000Z</time>
      </trkpt>
      <trkpt lat="43.41473392210900783538818359375" lon="-5.913756899535655975341796875">
        <ele>122.40000152587890625</ele>
        <time>2019-02-14T10:29:45.000Z</time>
      </trkpt>
      <trkpt lat="43.41451942920684814453125" lon="-5.91381867416203022003173828125">
        <ele>120.8000030517578125</ele>
        <time>2019-02-14T10:29:48.000Z</time>
      </trkpt>
      <trkpt lat="43.4144498594105243682861328125" lon="-5.91385086067020893096923828125">
        <ele>119.59999847412109375</ele>
        <time>2019-02-14T10:29:49.000Z</time>
      </trkpt>
      <trkpt lat="43.4143811278045177459716796875" lon="-5.913888327777385711669921875">
        <ele>119</ele>
        <time>2019-02-14T10:29:50.000Z</time>
      </trkpt>
      <trkpt lat="43.414313904941082000732421875" lon="-5.91393132694065570831298828125">
        <ele>118.40000152587890625</ele>
        <time>2019-02-14T10:29:51.000Z</time>
      </trkpt>
      <trkpt lat="43.41418675146996974945068359375" lon="-5.9140246175229549407958984375">
        <ele>117.59999847412109375</ele>
        <time>2019-02-14T10:29:53.000Z</time>
      </trkpt>
      <trkpt lat="43.41407594271004199981689453125" lon="-5.91410852037370204925537109375">
        <ele>117.40000152587890625</ele>
        <time>2019-02-14T10:29:55.000Z</time>
      </trkpt>
      <trkpt lat="43.41403118334710597991943359375" lon="-5.9141429699957370758056640625">
        <ele>117.40000152587890625</ele>
        <time>2019-02-14T10:29:56.000Z</time>
      </trkpt>
      <trkpt lat="43.41397888027131557464599609375" lon="-5.9141862206161022186279296875">
        <ele>117.8000030517578125</ele>
        <time>2019-02-14T10:29:58.000Z</time>
      </trkpt>
      <trkpt lat="43.41396496631205081939697265625" lon="-5.91419267468154430389404296875">
        <ele>118.1999969482421875</ele>
        <time>2019-02-14T10:29:59.000Z</time>
      </trkpt>
      <trkpt lat="43.41395817697048187255859375" lon="-5.91419669799506664276123046875">
        <ele>118.40000152587890625</ele>
        <time>2019-02-14T10:30:00.000Z</time>
      </trkpt>
      <trkpt lat="43.4139563329517841339111328125" lon="-5.91419887728989124298095703125">
        <ele>118.59999847412109375</ele>
        <time>2019-02-14T10:30:02.000Z</time>
      </trkpt>
      <trkpt lat="43.4139191173017024993896484375" lon="-5.91423206962645053863525390625">
        <ele>119</ele>
        <time>2019-02-14T10:30:14.000Z</time>
      </trkpt>
      <trkpt lat="43.41389891691505908966064453125" lon="-5.9142566286027431488037109375">
        <ele>118.8000030517578125</ele>
        <time>2019-02-14T10:30:15.000Z</time>
      </trkpt>
      <trkpt lat="43.41375055722892284393310546875" lon="-5.91447832994163036346435546875">
        <ele>117.59999847412109375</ele>
        <time>2019-02-14T10:30:20.000Z</time>
      </trkpt>
      <trkpt lat="43.41371518559753894805908203125" lon="-5.9145278669893741607666015625">
        <ele>117</ele>
        <time>2019-02-14T10:30:21.000Z</time>
      </trkpt>
      <trkpt lat="43.4136492200195789337158203125" lon="-5.9146304614841938018798828125">
        <ele>116.1999969482421875</ele>
        <time>2019-02-14T10:30:23.000Z</time>
      </trkpt>
      <trkpt lat="43.41361996717751026153564453125" lon="-5.9146898053586483001708984375">
        <ele>115.8000030517578125</ele>
        <time>2019-02-14T10:30:24.000Z</time>
      </trkpt>
      <trkpt lat="43.41357789002358913421630859375" lon="-5.9148027934134006500244140625">
        <ele>115.40000152587890625</ele>
        <time>2019-02-14T10:30:26.000Z</time>
      </trkpt>
      <trkpt lat="43.413554839789867401123046875" lon="-5.91491661965847015380859375">
        <ele>115.40000152587890625</ele>
        <time>2019-02-14T10:30:28.000Z</time>
      </trkpt>
      <trkpt lat="43.413536064326763153076171875" lon="-5.91503371484577655792236328125">
        <ele>115.59999847412109375</ele>
        <time>2019-02-14T10:30:30.000Z</time>
      </trkpt>
      <trkpt lat="43.41352843679487705230712890625" lon="-5.91508534736931324005126953125">
        <ele>116.1999969482421875</ele>
        <time>2019-02-14T10:30:31.000Z</time>
      </trkpt>
      <trkpt lat="43.41351603157818317413330078125" lon="-5.91513044200837612152099609375">
        <ele>116.40000152587890625</ele>
        <time>2019-02-14T10:30:32.000Z</time>
      </trkpt>
      <trkpt lat="43.41347663663327693939208984375" lon="-5.91521040536463260650634765625">
        <ele>116.8000030517578125</ele>
        <time>2019-02-14T10:30:34.000Z</time>
      </trkpt>
      <trkpt lat="43.41345660388469696044921875" lon="-5.91524183750152587890625">
        <ele>117.1999969482421875</ele>
        <time>2019-02-14T10:30:35.000Z</time>
      </trkpt>
      <trkpt lat="43.4134306199848651885986328125" lon="-5.91526723466813564300537109375">
        <ele>118</ele>
        <time>2019-02-14T10:30:36.000Z</time>
      </trkpt>
      <trkpt lat="43.41340488754212856292724609375" lon="-5.91528676450252532958984375">
        <ele>118.40000152587890625</ele>
        <time>2019-02-14T10:30:37.000Z</time>
      </trkpt>
      <trkpt lat="43.4133571945130825042724609375" lon="-5.9153154306113719940185546875">
        <ele>119.40000152587890625</ele>
        <time>2019-02-14T10:30:39.000Z</time>
      </trkpt>
      <trkpt lat="43.4133367426693439483642578125" lon="-5.91532674618065357208251953125">
        <ele>120</ele>
        <time>2019-02-14T10:30:40.000Z</time>
      </trkpt>
      <trkpt lat="43.41329189948737621307373046875" lon="-5.9153544902801513671875">
        <ele>120.59999847412109375</ele>
        <time>2019-02-14T10:30:42.000Z</time>
      </trkpt>
      <trkpt lat="43.4132485650479793548583984375" lon="-5.91538407839834690093994140625">
        <ele>121.40000152587890625</ele>
        <time>2019-02-14T10:30:44.000Z</time>
      </trkpt>
      <trkpt lat="43.4132240898907184600830078125" lon="-5.91539866290986537933349609375">
        <ele>122</ele>
        <time>2019-02-14T10:30:45.000Z</time>
      </trkpt>
      <trkpt lat="43.4131583757698535919189453125" lon="-5.915419869124889373779296875">
        <ele>122.8000030517578125</ele>
        <time>2019-02-14T10:30:48.000Z</time>
      </trkpt>
      <trkpt lat="43.413139097392559051513671875" lon="-5.91541928239166736602783203125">
        <ele>123</ele>
        <time>2019-02-14T10:30:49.000Z</time>
      </trkpt>
      <trkpt lat="43.41311889700591564178466796875" lon="-5.91542196460068225860595703125">
        <ele>123.1999969482421875</ele>
        <time>2019-02-14T10:30:50.000Z</time>
      </trkpt>
      <trkpt lat="43.41299635358154773712158203125" lon="-5.9153878502547740936279296875">
        <ele>122.8000030517578125</ele>
        <time>2019-02-14T10:30:55.000Z</time>
      </trkpt>
      <trkpt lat="43.4128846228122711181640625" lon="-5.91542079113423824310302734375">
        <ele>121.59999847412109375</ele>
        <time>2019-02-14T10:30:58.000Z</time>
      </trkpt>
      <trkpt lat="43.412844724953174591064453125" lon="-5.915450043976306915283203125">
        <ele>121.1999969482421875</ele>
        <time>2019-02-14T10:30:59.000Z</time>
      </trkpt>
      <trkpt lat="43.41276853345334529876708984375" lon="-5.91549941338598728179931640625">
        <ele>120.40000152587890625</ele>
        <time>2019-02-14T10:31:01.000Z</time>
      </trkpt>
      <trkpt lat="43.41267264448106288909912109375" lon="-5.91553880833089351654052734375">
        <ele>119</ele>
        <time>2019-02-14T10:31:03.000Z</time>
      </trkpt>
      <trkpt lat="43.41258949600160121917724609375" lon="-5.91556579805910587310791015625">
        <ele>117.40000152587890625</ele>
        <time>2019-02-14T10:31:05.000Z</time>
      </trkpt>
      <trkpt lat="43.41253367252647876739501953125" lon="-5.91556973755359649658203125">
        <ele>116</ele>
        <time>2019-02-14T10:31:07.000Z</time>
      </trkpt>
      <trkpt lat="43.41247734613716602325439453125" lon="-5.915546603500843048095703125">
        <ele>115</ele>
        <time>2019-02-14T10:31:10.000Z</time>
      </trkpt>
      <trkpt lat="43.4124715626239776611328125" lon="-5.915551967918872833251953125">
        <ele>115.1999969482421875</ele>
        <time>2019-02-14T10:31:12.000Z</time>
      </trkpt>
      <trkpt lat="43.4124321676790714263916015625" lon="-5.91550041921436786651611328125">
        <ele>114.8000030517578125</ele>
        <time>2019-02-14T10:31:26.000Z</time>
      </trkpt>
      <trkpt lat="43.41241800226271152496337890625" lon="-5.91547560878098011016845703125">
        <ele>114.8000030517578125</ele>
        <time>2019-02-14T10:31:27.000Z</time>
      </trkpt>
      <trkpt lat="43.4124019928276538848876953125" lon="-5.915444679558277130126953125">
        <ele>114.8000030517578125</ele>
        <time>2019-02-14T10:31:28.000Z</time>
      </trkpt>
      <trkpt lat="43.41228003613650798797607421875" lon="-5.91524594463407993316650390625">
        <ele>115.1999969482421875</ele>
        <time>2019-02-14T10:31:34.000Z</time>
      </trkpt>
      <trkpt lat="43.41223661787807941436767578125" lon="-5.91520629823207855224609375">
        <ele>116</ele>
        <time>2019-02-14T10:31:38.000Z</time>
      </trkpt>
      <trkpt lat="43.41219730675220489501953125" lon="-5.91518324799835681915283203125">
        <ele>116.1999969482421875</ele>
        <time>2019-02-14T10:34:40.000Z</time>
      </trkpt>
      <trkpt lat="43.412184901535511016845703125" lon="-5.91516665183007717132568359375">
        <ele>116.1999969482421875</ele>
        <time>2019-02-14T10:34:41.000Z</time>
      </trkpt>
      <trkpt lat="43.412163443863391876220703125" lon="-5.91513781808316707611083984375">
        <ele>116</ele>
        <time>2019-02-14T10:34:43.000Z</time>
      </trkpt>
      <trkpt lat="43.41215196065604686737060546875" lon="-5.91510462574660778045654296875">
        <ele>116</ele>
        <time>2019-02-14T10:34:45.000Z</time>
      </trkpt>
      <trkpt lat="43.41213452629745006561279296875" lon="-5.91507017612457275390625">
        <ele>116</ele>
        <time>2019-02-14T10:34:47.000Z</time>
      </trkpt>
      <trkpt lat="43.41210586018860340118408203125" lon="-5.91504612006247043609619140625">
        <ele>116</ele>
        <time>2019-02-14T10:34:49.000Z</time>
      </trkpt>
      <trkpt lat="43.4120797924697399139404296875" lon="-5.915030948817729949951171875">
        <ele>116</ele>
        <time>2019-02-14T10:34:51.000Z</time>
      </trkpt>
      <trkpt lat="43.41206587851047515869140625" lon="-5.91502751223742961883544921875">
        <ele>116</ele>
        <time>2019-02-14T10:34:52.000Z</time>
      </trkpt>
      <trkpt lat="43.41203427873551845550537109375" lon="-5.9150327928364276885986328125">
        <ele>116.1999969482421875</ele>
        <time>2019-02-14T10:34:54.000Z</time>
      </trkpt>
      <trkpt lat="43.41199555434286594390869140625" lon="-5.915036313235759735107421875">
        <ele>116.59999847412109375</ele>
        <time>2019-02-14T10:34:56.000Z</time>
      </trkpt>
      <trkpt lat="43.4119795449078083038330078125" lon="-5.91504209674894809722900390625">
        <ele>116.59999847412109375</ele>
        <time>2019-02-14T10:34:57.000Z</time>
      </trkpt>
      <trkpt lat="43.411946855485439300537109375" lon="-5.91505433432757854461669921875">
        <ele>116.8000030517578125</ele>
        <time>2019-02-14T10:34:59.000Z</time>
      </trkpt>
      <trkpt lat="43.41191927902400493621826171875" lon="-5.91506875120103359222412109375">
        <ele>117.1999969482421875</ele>
        <time>2019-02-14T10:35:01.000Z</time>
      </trkpt>
      <trkpt lat="43.41189011000096797943115234375" lon="-5.91508551500737667083740234375">
        <ele>117.59999847412109375</ele>
        <time>2019-02-14T10:35:03.000Z</time>
      </trkpt>
      <trkpt lat="43.4118806384503841400146484375" lon="-5.9150968305766582489013671875">
        <ele>117.8000030517578125</ele>
        <time>2019-02-14T10:35:04.000Z</time>
      </trkpt>
      <trkpt lat="43.41185607947409152984619140625" lon="-5.9151171147823333740234375">
        <ele>118.40000152587890625</ele>
        <time>2019-02-14T10:35:06.000Z</time>
      </trkpt>
      <trkpt lat="43.4118444286286830902099609375" lon="-5.91512440703809261322021484375">
        <ele>118.8000030517578125</ele>
        <time>2019-02-14T10:35:07.000Z</time>
      </trkpt>
      <trkpt lat="43.41181886382400989532470703125" lon="-5.915136896073818206787109375">
        <ele>119.1999969482421875</ele>
        <time>2019-02-14T10:35:09.000Z</time>
      </trkpt>
      <trkpt lat="43.41180260293185710906982421875" lon="-5.915147624909877777099609375">
        <ele>119.40000152587890625</ele>
        <time>2019-02-14T10:35:10.000Z</time>
      </trkpt>
      <trkpt lat="43.411783911287784576416015625" lon="-5.9151627123355865478515625">
        <ele>120</ele>
        <time>2019-02-14T10:35:11.000Z</time>
      </trkpt>
      <trkpt lat="43.41174577362835407257080078125" lon="-5.9151856787502765655517578125">
        <ele>121</ele>
        <time>2019-02-14T10:35:14.000Z</time>
      </trkpt>
      <trkpt lat="43.41170084662735462188720703125" lon="-5.91521074064075946807861328125">
        <ele>121.8000030517578125</ele>
        <time>2019-02-14T10:35:17.000Z</time>
      </trkpt>
      <trkpt lat="43.41167050413787364959716796875" lon="-5.915226079523563385009765625">
        <ele>122.1999969482421875</ele>
        <time>2019-02-14T10:35:19.000Z</time>
      </trkpt>
      <trkpt lat="43.41160210780799388885498046875" lon="-5.91525726020336151123046875">
        <ele>123.1999969482421875</ele>
        <time>2019-02-14T10:35:24.000Z</time>
      </trkpt>
      <trkpt lat="43.4115882776677608489990234375" lon="-5.91526555828750133514404296875">
        <ele>123.40000152587890625</ele>
        <time>2019-02-14T10:35:25.000Z</time>
      </trkpt>
      <trkpt lat="43.41150722466409206390380859375" lon="-5.91528567485511302947998046875">
        <ele>124.59999847412109375</ele>
        <time>2019-02-14T10:35:30.000Z</time>
      </trkpt>
      <trkpt lat="43.4114793129265308380126953125" lon="-5.91529472731053829193115234375">
        <ele>124.8000030517578125</ele>
        <time>2019-02-14T10:35:32.000Z</time>
      </trkpt>
      <trkpt lat="43.41144184581935405731201171875" lon="-5.915311910212039947509765625">
        <ele>125.8000030517578125</ele>
        <time>2019-02-14T10:35:35.000Z</time>
      </trkpt>
      <trkpt lat="43.41137059964239597320556640625" lon="-5.91534116305410861968994140625">
        <ele>126.40000152587890625</ele>
        <time>2019-02-14T10:35:40.000Z</time>
      </trkpt>
      <trkpt lat="43.41132516972720623016357421875" lon="-5.9153553284704685211181640625">
        <ele>126.8000030517578125</ele>
        <time>2019-02-14T10:35:43.000Z</time>
      </trkpt>
      <trkpt lat="43.4112645685672760009765625" lon="-5.91536697931587696075439453125">
        <ele>127.1999969482421875</ele>
        <time>2019-02-14T10:35:47.000Z</time>
      </trkpt>
      <trkpt lat="43.41122592799365520477294921875" lon="-5.91538256965577602386474609375">
        <ele>128</ele>
        <time>2019-02-14T10:35:50.000Z</time>
      </trkpt>
      <trkpt lat="43.41117161326110363006591796875" lon="-5.91540318913757801055908203125">
        <ele>128.600006103515625</ele>
        <time>2019-02-14T10:35:54.000Z</time>
      </trkpt>
      <trkpt lat="43.4111577831208705902099609375" lon="-5.91540637426078319549560546875">
        <ele>129</ele>
        <time>2019-02-14T10:35:55.000Z</time>
      </trkpt>
      <trkpt lat="43.4110887162387371063232421875" lon="-5.915400423109531402587890625">
        <ele>130.399993896484375</ele>
        <time>2019-02-14T10:36:00.000Z</time>
      </trkpt>
      <trkpt lat="43.4110511653125286102294921875" lon="-5.91536630876362323760986328125">
        <ele>131.1999969482421875</ele>
        <time>2019-02-14T10:36:03.000Z</time>
      </trkpt>
      <trkpt lat="43.4109432063996791839599609375" lon="-5.915197916328907012939453125">
        <ele>130.399993896484375</ele>
        <time>2019-02-14T10:36:09.000Z</time>
      </trkpt>
      <trkpt lat="43.4108825214207172393798828125" lon="-5.9151246584951877593994140625">
        <ele>129.600006103515625</ele>
        <time>2019-02-14T10:36:11.000Z</time>
      </trkpt>
      <trkpt lat="43.410849161446094512939453125" lon="-5.915096662938594818115234375">
        <ele>129.399993896484375</ele>
        <time>2019-02-14T10:36:12.000Z</time>
      </trkpt>
      <trkpt lat="43.41078436933457851409912109375" lon="-5.91506975702941417694091796875">
        <ele>129.1999969482421875</ele>
        <time>2019-02-14T10:36:14.000Z</time>
      </trkpt>
      <trkpt lat="43.4107621572911739349365234375" lon="-5.91506372205913066864013671875">
        <ele>129.1999969482421875</ele>
        <time>2019-02-14T10:36:15.000Z</time>
      </trkpt>
      <trkpt lat="43.4106997959315776824951171875" lon="-5.91505944728851318359375">
        <ele>129.600006103515625</ele>
        <time>2019-02-14T10:36:18.000Z</time>
      </trkpt>
      <trkpt lat="43.41067858971655368804931640625" lon="-5.91505869291722774505615234375">
        <ele>129.8000030517578125</ele>
        <time>2019-02-14T10:36:19.000Z</time>
      </trkpt>
      <trkpt lat="43.41059426777064800262451171875" lon="-5.91506489552557468414306640625">
        <ele>130</ele>
        <time>2019-02-14T10:36:23.000Z</time>
      </trkpt>
      <trkpt lat="43.41051614843308925628662109375" lon="-5.9150750376284122467041015625">
        <ele>130</ele>
        <time>2019-02-14T10:36:26.000Z</time>
      </trkpt>
      <trkpt lat="43.41037365607917308807373046875" lon="-5.9150877781212329864501953125">
        <ele>130.399993896484375</ele>
        <time>2019-02-14T10:36:32.000Z</time>
      </trkpt>
      <trkpt lat="43.410353623330593109130859375" lon="-5.9150840900838375091552734375">
        <ele>130.8000030517578125</ele>
        <time>2019-02-14T10:36:33.000Z</time>
      </trkpt>
      <trkpt lat="43.410337865352630615234375" lon="-5.915074534714221954345703125">
        <ele>130.8000030517578125</ele>
        <time>2019-02-14T10:36:34.000Z</time>
      </trkpt>
      <trkpt lat="43.41028614901006221771240234375" lon="-5.915046371519565582275390625">
        <ele>131.1999969482421875</ele>
        <time>2019-02-14T10:36:37.000Z</time>
      </trkpt>
      <trkpt lat="43.41023770160973072052001953125" lon="-5.9150213934481143951416015625">
        <ele>131.600006103515625</ele>
        <time>2019-02-14T10:36:40.000Z</time>
      </trkpt>
      <trkpt lat="43.410218171775341033935546875" lon="-5.915014855563640594482421875">
        <ele>131.8000030517578125</ele>
        <time>2019-02-14T10:36:41.000Z</time>
      </trkpt>
      <trkpt lat="43.41015622951090335845947265625" lon="-5.91499716974794864654541015625">
        <ele>132.8000030517578125</ele>
        <time>2019-02-14T10:36:45.000Z</time>
      </trkpt>
      <trkpt lat="43.4101382084190845489501953125" lon="-5.91499767266213893890380859375">
        <ele>133</ele>
        <time>2019-02-14T10:36:46.000Z</time>
      </trkpt>
      <trkpt lat="43.4100812114775180816650390625" lon="-5.91498845256865024566650390625">
        <ele>133.600006103515625</ele>
        <time>2019-02-14T10:36:50.000Z</time>
      </trkpt>
      <trkpt lat="43.41006604023277759552001953125" lon="-5.91498694382607936859130859375">
        <ele>134</ele>
        <time>2019-02-14T10:36:51.000Z</time>
      </trkpt>
      <trkpt lat="43.41004885733127593994140625" lon="-5.9149825014173984527587890625">
        <ele>134.1999969482421875</ele>
        <time>2019-02-14T10:36:52.000Z</time>
      </trkpt>
      <trkpt lat="43.4100114740431308746337890625" lon="-5.914982669055461883544921875">
        <ele>134.600006103515625</ele>
        <time>2019-02-14T10:36:54.000Z</time>
      </trkpt>
      <trkpt lat="43.40994517318904399871826171875" lon="-5.91497621499001979827880859375">
        <ele>135</ele>
        <time>2019-02-14T10:36:58.000Z</time>
      </trkpt>
      <trkpt lat="43.40992840938270092010498046875" lon="-5.9149757958948612213134765625">
        <ele>135.1999969482421875</ele>
        <time>2019-02-14T10:36:59.000Z</time>
      </trkpt>
      <trkpt lat="43.40988985262811183929443359375" lon="-5.91498543508350849151611328125">
        <ele>136.1999969482421875</ele>
        <time>2019-02-14T10:37:01.000Z</time>
      </trkpt>
      <trkpt lat="43.40985297225415706634521484375" lon="-5.915003120899200439453125">
        <ele>137.1999969482421875</ele>
        <time>2019-02-14T10:37:03.000Z</time>
      </trkpt>
      <trkpt lat="43.40984710492193698883056640625" lon="-5.91499482281506061553955078125">
        <ele>137.600006103515625</ele>
        <time>2019-02-14T10:37:04.000Z</time>
      </trkpt>
      <trkpt lat="43.40984207578003406524658203125" lon="-5.9149912185966968536376953125">
        <ele>137.8000030517578125</ele>
        <time>2019-02-14T10:37:05.000Z</time>
      </trkpt>
      <trkpt lat="43.4095538221299648284912109375" lon="-5.9154351241886615753173828125">
        <ele>147.1999969482421875</ele>
        <time>2019-02-14T10:39:18.000Z</time>
      </trkpt>
      <trkpt lat="43.409547619521617889404296875" lon="-5.9154538996517658233642578125">
        <ele>147.399993896484375</ele>
        <time>2019-02-14T10:39:19.000Z</time>
      </trkpt>
      <trkpt lat="43.40954057872295379638671875" lon="-5.9154726751148700714111328125">
        <ele>147.600006103515625</ele>
        <time>2019-02-14T10:39:20.000Z</time>
      </trkpt>
      <trkpt lat="43.40952674858272075653076171875" lon="-5.91552522964775562286376953125">
        <ele>148.399993896484375</ele>
        <time>2019-02-14T10:39:23.000Z</time>
      </trkpt>
      <trkpt lat="43.40951568447053432464599609375" lon="-5.9155859984457492828369140625">
        <ele>149</ele>
        <time>2019-02-14T10:39:26.000Z</time>
      </trkpt>
      <trkpt lat="43.40951099060475826263427734375" lon="-5.91560821048915386199951171875">
        <ele>149.399993896484375</ele>
        <time>2019-02-14T10:39:27.000Z</time>
      </trkpt>
      <trkpt lat="43.4095085598528385162353515625" lon="-5.915625728666782379150390625">
        <ele>149.600006103515625</ele>
        <time>2019-02-14T10:39:28.000Z</time>
      </trkpt>
      <trkpt lat="43.40948970057070255279541015625" lon="-5.9157179296016693115234375">
        <ele>150.8000030517578125</ele>
        <time>2019-02-14T10:39:33.000Z</time>
      </trkpt>
      <trkpt lat="43.409479558467864990234375" lon="-5.91577685438096523284912109375">
        <ele>151.8000030517578125</ele>
        <time>2019-02-14T10:39:36.000Z</time>
      </trkpt>
      <trkpt lat="43.40947746299207210540771484375" lon="-5.91579772531986236572265625">
        <ele>152</ele>
        <time>2019-02-14T10:39:37.000Z</time>
      </trkpt>
      <trkpt lat="43.40947193093597888946533203125" lon="-5.91585480608046054840087890625">
        <ele>152.600006103515625</ele>
        <time>2019-02-14T10:39:40.000Z</time>
      </trkpt>
      <trkpt lat="43.40947025455534458160400390625" lon="-5.9158897586166858673095703125">
        <ele>153.1999969482421875</ele>
        <time>2019-02-14T10:39:42.000Z</time>
      </trkpt>
      <trkpt lat="43.40947327204048633575439453125" lon="-5.9159216098487377166748046875">
        <ele>153.600006103515625</ele>
        <time>2019-02-14T10:39:44.000Z</time>
      </trkpt>
      <trkpt lat="43.409476540982723236083984375" lon="-5.91594784520566463470458984375">
        <ele>154.1999969482421875</ele>
        <time>2019-02-14T10:39:46.000Z</time>
      </trkpt>
      <trkpt lat="43.40948182158172130584716796875" lon="-5.91598506085574626922607421875">
        <ele>155</ele>
        <time>2019-02-14T10:39:49.000Z</time>
      </trkpt>
      <trkpt lat="43.40948165394365787506103515625" lon="-5.91599562205374240875244140625">
        <ele>155.399993896484375</ele>
        <time>2019-02-14T10:39:50.000Z</time>
      </trkpt>
      <trkpt lat="43.4094817377626895904541015625" lon="-5.9160231985151767730712890625">
        <ele>156.1999969482421875</ele>
        <time>2019-02-14T10:39:53.000Z</time>
      </trkpt>
      <trkpt lat="43.40948291122913360595703125" lon="-5.91605027206242084503173828125">
        <ele>156.600006103515625</ele>
        <time>2019-02-14T10:39:55.000Z</time>
      </trkpt>
      <trkpt lat="43.40948601253330707550048828125" lon="-5.9160666167736053466796875">
        <ele>156.8000030517578125</ele>
        <time>2019-02-14T10:39:56.000Z</time>
      </trkpt>
      <trkpt lat="43.40948802419006824493408203125" lon="-5.9161063469946384429931640625">
        <ele>157.399993896484375</ele>
        <time>2019-02-14T10:39:58.000Z</time>
      </trkpt>
      <trkpt lat="43.40948752127587795257568359375" lon="-5.91612227261066436767578125">
        <ele>158.1999969482421875</ele>
        <time>2019-02-14T10:39:59.000Z</time>
      </trkpt>
      <trkpt lat="43.40949137695133686065673828125" lon="-5.9161854721605777740478515625">
        <ele>159</ele>
        <time>2019-02-14T10:40:03.000Z</time>
      </trkpt>
      <trkpt lat="43.40948970057070255279541015625" lon="-5.9161980450153350830078125">
        <ele>159.399993896484375</ele>
        <time>2019-02-14T10:40:04.000Z</time>
      </trkpt>
      <trkpt lat="43.409501016139984130859375" lon="-5.91624121181666851043701171875">
        <ele>160.600006103515625</ele>
        <time>2019-02-14T10:40:07.000Z</time>
      </trkpt>
      <trkpt lat="43.4095077216625213623046875" lon="-5.9162919223308563232421875">
        <ele>161.399993896484375</ele>
        <time>2019-02-14T10:40:10.000Z</time>
      </trkpt>
      <trkpt lat="43.40951442718505859375" lon="-5.91631933115422725677490234375">
        <ele>161.600006103515625</ele>
        <time>2019-02-14T10:40:12.000Z</time>
      </trkpt>
      <trkpt lat="43.4095259942114353179931640625" lon="-5.91637909412384033203125">
        <ele>163</ele>
        <time>2019-02-14T10:40:16.000Z</time>
      </trkpt>
      <trkpt lat="43.40952825732529163360595703125" lon="-5.916394852101802825927734375">
        <ele>163.399993896484375</ele>
        <time>2019-02-14T10:40:17.000Z</time>
      </trkpt>
      <trkpt lat="43.409535549581050872802734375" lon="-5.91644137166440486907958984375">
        <ele>164</ele>
        <time>2019-02-14T10:40:20.000Z</time>
      </trkpt>
      <trkpt lat="43.40954468585550785064697265625" lon="-5.916489399969577789306640625">
        <ele>164.8000030517578125</ele>
        <time>2019-02-14T10:40:23.000Z</time>
      </trkpt>
      <trkpt lat="43.40954996645450592041015625" lon="-5.91650574468076229095458984375">
        <ele>165</ele>
        <time>2019-02-14T10:40:24.000Z</time>
      </trkpt>
      <trkpt lat="43.40955709107220172882080078125" lon="-5.9165378473699092864990234375">
        <ele>165.399993896484375</ele>
        <time>2019-02-14T10:40:26.000Z</time>
      </trkpt>
      <trkpt lat="43.40956144966185092926025390625" lon="-5.91657917015254497528076171875">
        <ele>165.8000030517578125</ele>
        <time>2019-02-14T10:40:29.000Z</time>
      </trkpt>
      <trkpt lat="43.409564383327960968017578125" lon="-5.91661202721297740936279296875">
        <ele>166.399993896484375</ele>
        <time>2019-02-14T10:40:31.000Z</time>
      </trkpt>
      <trkpt lat="43.409569747745990753173828125" lon="-5.91671797446906566619873046875">
        <ele>167.399993896484375</ele>
        <time>2019-02-14T10:40:37.000Z</time>
      </trkpt>
      <trkpt lat="43.40956647880375385284423828125" lon="-5.9167336486279964447021484375">
        <ele>167.8000030517578125</ele>
        <time>2019-02-14T10:40:38.000Z</time>
      </trkpt>
      <trkpt lat="43.40955130755901336669921875" lon="-5.91679609380662441253662109375">
        <ele>168.600006103515625</ele>
        <time>2019-02-14T10:40:42.000Z</time>
      </trkpt>
      <trkpt lat="43.409542255103588104248046875" lon="-5.9168349020183086395263671875">
        <ele>169</ele>
        <time>2019-02-14T10:40:44.000Z</time>
      </trkpt>
      <trkpt lat="43.4095316939055919647216796875" lon="-5.91684957034885883331298828125">
        <ele>169.1999969482421875</ele>
        <time>2019-02-14T10:40:45.000Z</time>
      </trkpt>
      <trkpt lat="43.40948827564716339111328125" lon="-5.9169143624603748321533203125">
        <ele>169.8000030517578125</ele>
        <time>2019-02-14T10:40:50.000Z</time>
      </trkpt>
      <trkpt lat="43.40947176329791545867919921875" lon="-5.91693699359893798828125">
        <ele>170.1999969482421875</ele>
        <time>2019-02-14T10:40:52.000Z</time>
      </trkpt>
      <trkpt lat="43.40946354903280735015869140625" lon="-5.91694763861596584320068359375">
        <ele>170.600006103515625</ele>
        <time>2019-02-14T10:40:53.000Z</time>
      </trkpt>
      <trkpt lat="43.40944309718906879425048828125" lon="-5.9169666655361652374267578125">
        <ele>171</ele>
        <time>2019-02-14T10:40:55.000Z</time>
      </trkpt>
      <trkpt lat="43.40940420515835285186767578125" lon="-5.91699843294918537139892578125">
        <ele>171.399993896484375</ele>
        <time>2019-02-14T10:40:59.000Z</time>
      </trkpt>
      <trkpt lat="43.4093816578388214111328125" lon="-5.91701544821262359619140625">
        <ele>172</ele>
        <time>2019-02-14T10:41:01.000Z</time>
      </trkpt>
      <trkpt lat="43.40934888459742069244384765625" lon="-5.91701402328908443450927734375">
        <ele>173.1999969482421875</ele>
        <time>2019-02-14T10:41:04.000Z</time>
      </trkpt>
      <trkpt lat="43.40931661427021026611328125" lon="-5.9169958345592021942138671875">
        <ele>174</ele>
        <time>2019-02-14T10:41:07.000Z</time>
      </trkpt>
      <trkpt lat="43.4093050472438335418701171875" lon="-5.916992984712123870849609375">
        <ele>174.1999969482421875</ele>
        <time>2019-02-14T10:41:08.000Z</time>
      </trkpt>
      <trkpt lat="43.40923438780009746551513671875" lon="-5.916972197592258453369140625">
        <ele>175.600006103515625</ele>
        <time>2019-02-14T10:41:14.000Z</time>
      </trkpt>
      <trkpt lat="43.40922315604984760284423828125" lon="-5.91696457006037235260009765625">
        <ele>175.8000030517578125</ele>
        <time>2019-02-14T10:41:15.000Z</time>
      </trkpt>
      <trkpt lat="43.4091826714575290679931640625" lon="-5.91693288646638393402099609375">
        <ele>177</ele>
        <time>2019-02-14T10:41:19.000Z</time>
      </trkpt>
      <trkpt lat="43.4091188013553619384765625" lon="-5.91690036468207836151123046875">
        <ele>178.1999969482421875</ele>
        <time>2019-02-14T10:41:25.000Z</time>
      </trkpt>
      <trkpt lat="43.40906138531863689422607421875" lon="-5.91686951927840709686279296875">
        <ele>179.399993896484375</ele>
        <time>2019-02-14T10:41:30.000Z</time>
      </trkpt>
      <trkpt lat="43.40901578776538372039794921875" lon="-5.91685610823333263397216796875">
        <ele>180</ele>
        <time>2019-02-14T10:41:33.000Z</time>
      </trkpt>
      <trkpt lat="43.4089540131390094757080078125" lon="-5.916846133768558502197265625">
        <ele>180.399993896484375</ele>
        <time>2019-02-14T10:41:37.000Z</time>
      </trkpt>
      <trkpt lat="43.408877737820148468017578125" lon="-5.91685929335653781890869140625">
        <ele>181.399993896484375</ele>
        <time>2019-02-14T10:41:42.000Z</time>
      </trkpt>
      <trkpt lat="43.40886239893734455108642578125" lon="-5.91686381958425045013427734375">
        <ele>181.8000030517578125</ele>
        <time>2019-02-14T10:41:43.000Z</time>
      </trkpt>
      <trkpt lat="43.4087540209293365478515625" lon="-5.916889049112796783447265625">
        <ele>182.8000030517578125</ele>
        <time>2019-02-14T10:41:50.000Z</time>
      </trkpt>
      <trkpt lat="43.40873901732265949249267578125" lon="-5.9168939106166362762451171875">
        <ele>183</ele>
        <time>2019-02-14T10:41:51.000Z</time>
      </trkpt>
      <trkpt lat="43.4086762368679046630859375" lon="-5.9169106744229793548583984375">
        <ele>183.8000030517578125</ele>
        <time>2019-02-14T10:41:55.000Z</time>
      </trkpt>
      <trkpt lat="43.408604152500629425048828125" lon="-5.91692953370511531829833984375">
        <ele>184.8000030517578125</ele>
        <time>2019-02-14T10:42:00.000Z</time>
      </trkpt>
      <trkpt lat="43.4085717983543872833251953125" lon="-5.91693238355219364166259765625">
        <ele>185</ele>
        <time>2019-02-14T10:42:02.000Z</time>
      </trkpt>
      <trkpt lat="43.408505581319332122802734375" lon="-5.91693372465670108795166015625">
        <ele>185.399993896484375</ele>
        <time>2019-02-14T10:42:06.000Z</time>
      </trkpt>
      <trkpt lat="43.40840675868093967437744140625" lon="-5.91697026975452899932861328125">
        <ele>186</ele>
        <time>2019-02-14T10:42:12.000Z</time>
      </trkpt>
      <trkpt lat="43.40839066542685031890869140625" lon="-5.9169830940663814544677734375">
        <ele>186</ele>
        <time>2019-02-14T10:42:13.000Z</time>
      </trkpt>
      <trkpt lat="43.408284969627857208251953125" lon="-5.91705358587205410003662109375">
        <ele>186.8000030517578125</ele>
        <time>2019-02-14T10:42:19.000Z</time>
      </trkpt>
      <trkpt lat="43.40826611034572124481201171875" lon="-5.91706565581262111663818359375">
        <ele>187.1999969482421875</ele>
        <time>2019-02-14T10:42:20.000Z</time>
      </trkpt>
      <trkpt lat="43.40815924108028411865234375" lon="-5.9171406738460063934326171875">
        <ele>187.399993896484375</ele>
        <time>2019-02-14T10:42:26.000Z</time>
      </trkpt>
      <trkpt lat="43.40812839567661285400390625" lon="-5.91716229915618896484375">
        <ele>187.600006103515625</ele>
        <time>2019-02-14T10:42:28.000Z</time>
      </trkpt>
      <trkpt lat="43.4080826304852962493896484375" lon="-5.9172120876610279083251953125">
        <ele>188</ele>
        <time>2019-02-14T10:42:31.000Z</time>
      </trkpt>
      <trkpt lat="43.408056981861591339111328125" lon="-5.91724754311144351959228515625">
        <ele>188.1999969482421875</ele>
        <time>2019-02-14T10:42:34.000Z</time>
      </trkpt>
      <trkpt lat="43.40797391720116138458251953125" lon="-5.91730554588139057159423828125">
        <ele>188.8000030517578125</ele>
        <time>2019-02-14T10:42:40.000Z</time>
      </trkpt>
      <trkpt lat="43.40779487974941730499267578125" lon="-5.9173710085451602935791015625">
        <ele>189.1999969482421875</ele>
        <time>2019-02-14T10:42:48.000Z</time>
      </trkpt>
      <trkpt lat="43.40777241624891757965087890625" lon="-5.91737863607704639434814453125">
        <ele>189.399993896484375</ele>
        <time>2019-02-14T10:42:49.000Z</time>
      </trkpt>
      <trkpt lat="43.4076347015798091888427734375" lon="-5.9174291789531707763671875">
        <ele>190.600006103515625</ele>
        <time>2019-02-14T10:42:56.000Z</time>
      </trkpt>
      <trkpt lat="43.40761517174541950225830078125" lon="-5.91743462719023227691650390625">
        <ele>190.600006103515625</ele>
        <time>2019-02-14T10:42:57.000Z</time>
      </trkpt>
      <trkpt lat="43.40749866329133510589599609375" lon="-5.91747703962028026580810546875">
        <ele>191.600006103515625</ele>
        <time>2019-02-14T10:43:03.000Z</time>
      </trkpt>
      <trkpt lat="43.40748273767530918121337890625" lon="-5.91748558916151523590087890625">
        <ele>191.8000030517578125</ele>
        <time>2019-02-14T10:43:04.000Z</time>
      </trkpt>
      <trkpt lat="43.407349549233913421630859375" lon="-5.91752498410642147064208984375">
        <ele>192.8000030517578125</ele>
        <time>2019-02-14T10:43:11.000Z</time>
      </trkpt>
      <trkpt lat="43.40733454562723636627197265625" lon="-5.91752984561026096343994140625">
        <ele>193</ele>
        <time>2019-02-14T10:43:12.000Z</time>
      </trkpt>
      <trkpt lat="43.40727117843925952911376953125" lon="-5.91754250228404998779296875">
        <ele>193.8000030517578125</ele>
        <time>2019-02-14T10:43:17.000Z</time>
      </trkpt>
      <trkpt lat="43.4072457812726497650146484375" lon="-5.91754476539790630340576171875">
        <ele>194</ele>
        <time>2019-02-14T10:43:19.000Z</time>
      </trkpt>
      <trkpt lat="43.40723563916981220245361328125" lon="-5.91753990389406681060791015625">
        <ele>194.1999969482421875</ele>
        <time>2019-02-14T10:43:21.000Z</time>
      </trkpt>
      <trkpt lat="43.407124578952789306640625" lon="-5.91763445176184177398681640625">
        <ele>194.8000030517578125</ele>
        <time>2019-02-14T10:46:03.000Z</time>
      </trkpt>
      <trkpt lat="43.4071140177547931671142578125" lon="-5.917643420398235321044921875">
        <ele>195.1999969482421875</ele>
        <time>2019-02-14T10:46:04.000Z</time>
      </trkpt>
      <trkpt lat="43.40708090923726558685302734375" lon="-5.9176690690219402313232421875">
        <ele>196</ele>
        <time>2019-02-14T10:46:07.000Z</time>
      </trkpt>
      <trkpt lat="43.40705542825162410736083984375" lon="-5.9176895208656787872314453125">
        <ele>196.399993896484375</ele>
        <time>2019-02-14T10:46:09.000Z</time>
      </trkpt>
      <trkpt lat="43.40702542103826999664306640625" lon="-5.9177108108997344970703125">
        <ele>197</ele>
        <time>2019-02-14T10:46:11.000Z</time>
      </trkpt>
      <trkpt lat="43.40701351873576641082763671875" lon="-5.91771952807903289794921875">
        <ele>197.399993896484375</ele>
        <time>2019-02-14T10:46:12.000Z</time>
      </trkpt>
      <trkpt lat="43.4069730341434478759765625" lon="-5.91775414533913135528564453125">
        <ele>197.8000030517578125</ele>
        <time>2019-02-14T10:46:16.000Z</time>
      </trkpt>
      <trkpt lat="43.40695333667099475860595703125" lon="-5.9177684783935546875">
        <ele>198.1999969482421875</ele>
        <time>2019-02-14T10:46:18.000Z</time>
      </trkpt>
      <trkpt lat="43.406912349164485931396484375" lon="-5.9177974797785282135009765625">
        <ele>199.399993896484375</ele>
        <time>2019-02-14T10:46:22.000Z</time>
      </trkpt>
      <trkpt lat="43.4069007821381092071533203125" lon="-5.91780544258654117584228515625">
        <ele>199.399993896484375</ele>
        <time>2019-02-14T10:46:23.000Z</time>
      </trkpt>
      <trkpt lat="43.40682685375213623046875" lon="-5.9178440831601619720458984375">
        <ele>200</ele>
        <time>2019-02-14T10:46:28.000Z</time>
      </trkpt>
      <trkpt lat="43.40681386180222034454345703125" lon="-5.91784869320690631866455078125">
        <ele>200.399993896484375</ele>
        <time>2019-02-14T10:46:29.000Z</time>
      </trkpt>
      <trkpt lat="43.406788296997547149658203125" lon="-5.91785707511007785797119140625">
        <ele>200.8000030517578125</ele>
        <time>2019-02-14T10:46:31.000Z</time>
      </trkpt>
      <trkpt lat="43.40672518126666545867919921875" lon="-5.91787870042026042938232421875">
        <ele>201.399993896484375</ele>
        <time>2019-02-14T10:46:36.000Z</time>
      </trkpt>
      <trkpt lat="43.40671277604997158050537109375" lon="-5.91788155026733875274658203125">
        <ele>201.8000030517578125</ele>
        <time>2019-02-14T10:46:37.000Z</time>
      </trkpt>
      <trkpt lat="43.40664907358586788177490234375" lon="-5.917908288538455963134765625">
        <ele>203</ele>
        <time>2019-02-14T10:46:43.000Z</time>
      </trkpt>
      <trkpt lat="43.406556956470012664794921875" lon="-5.9179173409938812255859375">
        <ele>203.399993896484375</ele>
        <time>2019-02-14T10:46:50.000Z</time>
      </trkpt>
      <trkpt lat="43.40651362203061580657958984375" lon="-5.91791993938386440277099609375">
        <ele>204.1999969482421875</ele>
        <time>2019-02-14T10:46:53.000Z</time>
      </trkpt>
      <trkpt lat="43.40643868781626224517822265625" lon="-5.91793066821992397308349609375">
        <ele>204.399993896484375</ele>
        <time>2019-02-14T10:46:57.000Z</time>
      </trkpt>
      <trkpt lat="43.4062821976840496063232421875" lon="-5.91792178340256214141845703125">
        <ele>204.600006103515625</ele>
        <time>2019-02-14T10:47:05.000Z</time>
      </trkpt>
      <trkpt lat="43.4062112867832183837890625" lon="-5.91791222803294658660888671875">
        <ele>205.1999969482421875</ele>
        <time>2019-02-14T10:47:09.000Z</time>
      </trkpt>
      <trkpt lat="43.40612352825701236724853515625" lon="-5.91789831407368183135986328125">
        <ele>205.8000030517578125</ele>
        <time>2019-02-14T10:47:13.000Z</time>
      </trkpt>
      <trkpt lat="43.4060391224920749664306640625" lon="-5.91788976453244686126708984375">
        <ele>206</ele>
        <time>2019-02-14T10:47:18.000Z</time>
      </trkpt>
      <trkpt lat="43.406014144420623779296875" lon="-5.91788071207702159881591796875">
        <ele>206</ele>
        <time>2019-02-14T10:47:21.000Z</time>
      </trkpt>
      <trkpt lat="43.4059345163404941558837890625" lon="-5.91787668876349925994873046875">
        <ele>206.1999969482421875</ele>
        <time>2019-02-14T10:47:37.000Z</time>
      </trkpt>
      <trkpt lat="43.40591884218156337738037109375" lon="-5.91787668876349925994873046875">
        <ele>206.1999969482421875</ele>
        <time>2019-02-14T10:47:38.000Z</time>
      </trkpt>
      <trkpt lat="43.40584424324333667755126953125" lon="-5.91788155026733875274658203125">
        <ele>206.8000030517578125</ele>
        <time>2019-02-14T10:47:42.000Z</time>
      </trkpt>
      <trkpt lat="43.40578825213015079498291015625" lon="-5.91789663769304752349853515625">
        <ele>207</ele>
        <time>2019-02-14T10:47:45.000Z</time>
      </trkpt>
      <trkpt lat="43.40568716637790203094482421875" lon="-5.9179007448256015777587890625">
        <ele>207.1999969482421875</ele>
        <time>2019-02-14T10:47:51.000Z</time>
      </trkpt>
      <trkpt lat="43.40559261851012706756591796875" lon="-5.91789362020790576934814453125">
        <ele>207.600006103515625</ele>
        <time>2019-02-14T10:47:56.000Z</time>
      </trkpt>
      <trkpt lat="43.4054892696440219879150390625" lon="-5.91789563186466693878173828125">
        <ele>208.399993896484375</ele>
        <time>2019-02-14T10:48:02.000Z</time>
      </trkpt>
      <trkpt lat="43.40537049807608127593994140625" lon="-5.91790552251040935516357421875">
        <ele>208.399993896484375</ele>
        <time>2019-02-14T10:48:08.000Z</time>
      </trkpt>
      <trkpt lat="43.40525365434587001800537109375" lon="-5.91790954582393169403076171875">
        <ele>208.8000030517578125</ele>
        <time>2019-02-14T10:48:14.000Z</time>
      </trkpt>
      <trkpt lat="43.4052136726677417755126953125" lon="-5.91790820471942424774169921875">
        <ele>209.1999969482421875</ele>
        <time>2019-02-14T10:48:16.000Z</time>
      </trkpt>
      <trkpt lat="43.4051472879946231842041015625" lon="-5.91790770180523395538330078125">
        <ele>209.600006103515625</ele>
        <time>2019-02-14T10:48:19.000Z</time>
      </trkpt>
      <trkpt lat="43.405129015445709228515625" lon="-5.91790803708136081695556640625">
        <ele>209.8000030517578125</ele>
        <time>2019-02-14T10:48:20.000Z</time>
      </trkpt>
      <trkpt lat="43.4050084836781024932861328125" lon="-5.91791172511875629425048828125">
        <ele>209.600006103515625</ele>
        <time>2019-02-14T10:48:25.000Z</time>
      </trkpt>
      <trkpt lat="43.40486741624772548675537109375" lon="-5.9179141558706760406494140625">
        <ele>209.600006103515625</ele>
        <time>2019-02-14T10:48:31.000Z</time>
      </trkpt>
      <trkpt lat="43.4047318808734416961669921875" lon="-5.9178967215120792388916015625">
        <ele>210</ele>
        <time>2019-02-14T10:48:37.000Z</time>
      </trkpt>
      <trkpt lat="43.40462786145508289337158203125" lon="-5.91788104735314846038818359375">
        <ele>210.8000030517578125</ele>
        <time>2019-02-14T10:48:42.000Z</time>
      </trkpt>
      <trkpt lat="43.40452208183705806732177734375" lon="-5.91785171069204807281494140625">
        <ele>211.399993896484375</ele>
        <time>2019-02-14T10:48:47.000Z</time>
      </trkpt>
      <trkpt lat="43.404451422393321990966796875" lon="-5.917851962149143218994140625">
        <ele>212</ele>
        <time>2019-02-14T10:48:51.000Z</time>
      </trkpt>
      <trkpt lat="43.4044276177883148193359375" lon="-5.91784869320690631866455078125">
        <ele>212.1999969482421875</ele>
        <time>2019-02-14T10:48:52.000Z</time>
      </trkpt>
      <trkpt lat="43.4042842872440814971923828125" lon="-5.9178343601524829864501953125">
        <ele>212.8000030517578125</ele>
        <time>2019-02-14T10:48:59.000Z</time>
      </trkpt>
      <trkpt lat="43.40426576323807239532470703125" lon="-5.91783394105732440948486328125">
        <ele>213</ele>
        <time>2019-02-14T10:49:00.000Z</time>
      </trkpt>
      <trkpt lat="43.40414942242205142974853515625" lon="-5.9178511239588260650634765625">
        <ele>213.600006103515625</ele>
        <time>2019-02-14T10:49:05.000Z</time>
      </trkpt>
      <trkpt lat="43.40406090952455997467041015625" lon="-5.91784802265465259552001953125">
        <ele>214.1999969482421875</ele>
        <time>2019-02-14T10:49:10.000Z</time>
      </trkpt>
      <trkpt lat="43.40394691564142704010009765625" lon="-5.9178390540182590484619140625">
        <ele>214.1999969482421875</ele>
        <time>2019-02-14T10:49:15.000Z</time>
      </trkpt>
      <trkpt lat="43.4039305709302425384521484375" lon="-5.91784156858921051025390625">
        <ele>214.399993896484375</ele>
        <time>2019-02-14T10:49:16.000Z</time>
      </trkpt>
      <trkpt lat="43.403820097446441650390625" lon="-5.9178259782493114471435546875">
        <ele>215</ele>
        <time>2019-02-14T10:49:21.000Z</time>
      </trkpt>
      <trkpt lat="43.40369964949786663055419921875" lon="-5.917788259685039520263671875">
        <ele>215.1999969482421875</ele>
        <time>2019-02-14T10:49:27.000Z</time>
      </trkpt>
      <trkpt lat="43.40365740470588207244873046875" lon="-5.917774848639965057373046875">
        <ele>215.1999969482421875</ele>
        <time>2019-02-14T10:49:29.000Z</time>
      </trkpt>
      <trkpt lat="43.40359722264111042022705078125" lon="-5.9177609346807003021240234375">
        <ele>215</ele>
        <time>2019-02-14T10:49:32.000Z</time>
      </trkpt>
      <trkpt lat="43.40352849103510379791259765625" lon="-5.917731933295726776123046875">
        <ele>215.1999969482421875</ele>
        <time>2019-02-14T10:49:36.000Z</time>
      </trkpt>
      <trkpt lat="43.4034271538257598876953125" lon="-5.91769983060657978057861328125">
        <ele>215.1999969482421875</ele>
        <time>2019-02-14T10:49:41.000Z</time>
      </trkpt>
      <trkpt lat="43.40332187712192535400390625" lon="-5.91766328550875186920166015625">
        <ele>215.600006103515625</ele>
        <time>2019-02-14T10:49:46.000Z</time>
      </trkpt>
      <trkpt lat="43.4031587652862071990966796875" lon="-5.91761098243296146392822265625">
        <ele>215.600006103515625</ele>
        <time>2019-02-14T10:49:53.000Z</time>
      </trkpt>
      <trkpt lat="43.40304502286016941070556640625" lon="-5.917582400143146514892578125">
        <ele>215.1999969482421875</ele>
        <time>2019-02-14T10:49:58.000Z</time>
      </trkpt>
      <trkpt lat="43.4029844217002391815185546875" lon="-5.9175473637878894805908203125">
        <ele>215.399993896484375</ele>
        <time>2019-02-14T10:50:02.000Z</time>
      </trkpt>
      <trkpt lat="43.40297277085483074188232421875" lon="-5.91753353364765644073486328125">
        <ele>215.399993896484375</ele>
        <time>2019-02-14T10:50:03.000Z</time>
      </trkpt>
      <trkpt lat="43.40294192545115947723388671875" lon="-5.917521379888057708740234375">
        <ele>215.399993896484375</ele>
        <time>2019-02-14T10:50:05.000Z</time>
      </trkpt>
      <trkpt lat="43.4029227308928966522216796875" lon="-5.9175114892423152923583984375">
        <ele>215.600006103515625</ele>
        <time>2019-02-14T10:50:07.000Z</time>
      </trkpt>
      <trkpt lat="43.40292147360742092132568359375" lon="-5.91751702129840850830078125">
        <ele>215.8000030517578125</ele>
        <time>2019-02-14T10:50:08.000Z</time>
      </trkpt>
      <trkpt lat="43.40290990658104419708251953125" lon="-5.91756857000291347503662109375">
        <ele>216</ele>
        <time>2019-02-14T10:50:11.000Z</time>
      </trkpt>
      <trkpt lat="43.40290403924882411956787109375" lon="-5.91759304516017436981201171875">
        <ele>216.399993896484375</ele>
        <time>2019-02-14T10:50:12.000Z</time>
      </trkpt>
      <trkpt lat="43.40290873311460018157958984375" lon="-5.9176499582827091217041015625">
        <ele>217.8000030517578125</ele>
        <time>2019-02-14T10:50:15.000Z</time>
      </trkpt>
      <trkpt lat="43.40292365290224552154541015625" lon="-5.91768893413245677947998046875">
        <ele>218.8000030517578125</ele>
        <time>2019-02-14T10:50:18.000Z</time>
      </trkpt>
      <trkpt lat="43.40293304063379764556884765625" lon="-5.9177027642726898193359375">
        <ele>219</ele>
        <time>2019-02-14T10:50:19.000Z</time>
      </trkpt>
      <trkpt lat="43.4029525704681873321533203125" lon="-5.917752049863338470458984375">
        <ele>219.8000030517578125</ele>
        <time>2019-02-14T10:50:22.000Z</time>
      </trkpt>
      <trkpt lat="43.402957431972026824951171875" lon="-5.91777342371642589569091796875">
        <ele>220</ele>
        <time>2019-02-14T10:50:23.000Z</time>
      </trkpt>
      <trkpt lat="43.40296254493296146392822265625" lon="-5.917792953550815582275390625">
        <ele>220.399993896484375</ele>
        <time>2019-02-14T10:50:24.000Z</time>
      </trkpt>
      <trkpt lat="43.40298266150057315826416015625" lon="-5.917915664613246917724609375">
        <ele>220.600006103515625</ele>
        <time>2019-02-14T10:50:30.000Z</time>
      </trkpt>
      <trkpt lat="43.40298148803412914276123046875" lon="-5.9179567359387874603271484375">
        <ele>221.399993896484375</ele>
        <time>2019-02-14T10:50:32.000Z</time>
      </trkpt>
      <trkpt lat="43.40297721326351165771484375" lon="-5.91798531822860240936279296875">
        <ele>222.600006103515625</ele>
        <time>2019-02-14T10:50:34.000Z</time>
      </trkpt>
      <trkpt lat="43.40296707116067409515380859375" lon="-5.918017923831939697265625">
        <ele>223</ele>
        <time>2019-02-14T10:50:35.000Z</time>
      </trkpt>
      <trkpt lat="43.40294963680207729339599609375" lon="-5.91809545643627643585205078125">
        <ele>223.399993896484375</ele>
        <time>2019-02-14T10:50:39.000Z</time>
      </trkpt>
      <trkpt lat="43.4029291011393070220947265625" lon="-5.9181453287601470947265625">
        <ele>223.8000030517578125</ele>
        <time>2019-02-14T10:50:42.000Z</time>
      </trkpt>
      <trkpt lat="43.40292625129222869873046875" lon="-5.91816670261323451995849609375">
        <ele>223.8000030517578125</ele>
        <time>2019-02-14T10:50:43.000Z</time>
      </trkpt>
      <trkpt lat="43.40289012528955936431884765625" lon="-5.91824482195079326629638671875">
        <ele>224.8000030517578125</ele>
        <time>2019-02-14T10:50:48.000Z</time>
      </trkpt>
      <trkpt lat="43.4028841741383075714111328125" lon="-5.918257646262645721435546875">
        <ele>225</ele>
        <time>2019-02-14T10:50:49.000Z</time>
      </trkpt>
      <trkpt lat="43.402866236865520477294921875" lon="-5.918295197188854217529296875">
        <ele>226</ele>
        <time>2019-02-14T10:50:52.000Z</time>
      </trkpt>
      <trkpt lat="43.4028600342571735382080078125" lon="-5.9183097817003726959228515625">
        <ele>226.1999969482421875</ele>
        <time>2019-02-14T10:50:53.000Z</time>
      </trkpt>
      <trkpt lat="43.40281485579907894134521484375" lon="-5.91835764236748218536376953125">
        <ele>227.1999969482421875</ele>
        <time>2019-02-14T10:50:58.000Z</time>
      </trkpt>
      <trkpt lat="43.40265979059040546417236328125" lon="-5.91877372004091739654541015625">
        <ele>235.1999969482421875</ele>
        <time>2019-02-14T10:51:49.000Z</time>
      </trkpt>
      <trkpt lat="43.40269767679274082183837890625" lon="-5.91886357404291629791259765625">
        <ele>236</ele>
        <time>2019-02-14T10:51:54.000Z</time>
      </trkpt>
      <trkpt lat="43.40271997265517711639404296875" lon="-5.91891654767096042633056640625">
        <ele>236.399993896484375</ele>
        <time>2019-02-14T10:51:57.000Z</time>
      </trkpt>
      <trkpt lat="43.40273187495768070220947265625" lon="-5.9189561940729618072509765625">
        <ele>237</ele>
        <time>2019-02-14T10:52:00.000Z</time>
      </trkpt>
      <trkpt lat="43.40274394489824771881103515625" lon="-5.91902685351669788360595703125">
        <ele>237.399993896484375</ele>
        <time>2019-02-14T10:52:04.000Z</time>
      </trkpt>
      <trkpt lat="43.40275299735367298126220703125" lon="-5.91904311440885066986083984375">
        <ele>237.600006103515625</ele>
        <time>2019-02-14T10:52:05.000Z</time>
      </trkpt>
      <trkpt lat="43.40276624076068401336669921875" lon="-5.9190738759934902191162109375">
        <ele>238</ele>
        <time>2019-02-14T10:52:07.000Z</time>
      </trkpt>
      <trkpt lat="43.40277470648288726806640625" lon="-5.91912291012704372406005859375">
        <ele>238.600006103515625</ele>
        <time>2019-02-14T10:52:10.000Z</time>
      </trkpt>
      <trkpt lat="43.4027807414531707763671875" lon="-5.9191350638866424560546875">
        <ele>238.8000030517578125</ele>
        <time>2019-02-14T10:52:11.000Z</time>
      </trkpt>
      <trkpt lat="43.4028063900768756866455078125" lon="-5.91918409802019596099853515625">
        <ele>239.399993896484375</ele>
        <time>2019-02-14T10:52:14.000Z</time>
      </trkpt>
      <trkpt lat="43.4028322063386440277099609375" lon="-5.91923388652503490447998046875">
        <ele>239.8000030517578125</ele>
        <time>2019-02-14T10:52:17.000Z</time>
      </trkpt>
      <trkpt lat="43.4028513170778751373291015625" lon="-5.91928853653371334075927734375">
        <ele>240.1999969482421875</ele>
        <time>2019-02-14T10:52:20.000Z</time>
      </trkpt>
      <trkpt lat="43.4028513170778751373291015625" lon="-5.9193135984241962432861328125">
        <ele>240.399993896484375</ele>
        <time>2019-02-14T10:52:21.000Z</time>
      </trkpt>
      <trkpt lat="43.40287520550191402435302734375" lon="-5.919362045824527740478515625">
        <ele>240.8000030517578125</ele>
        <time>2019-02-14T10:52:24.000Z</time>
      </trkpt>
      <trkpt lat="43.40289029292762279510498046875" lon="-5.919422395527362823486328125">
        <ele>241.1999969482421875</ele>
        <time>2019-02-14T10:52:27.000Z</time>
      </trkpt>
      <trkpt lat="43.40289942920207977294921875" lon="-5.91943806968629360198974609375">
        <ele>241.399993896484375</ele>
        <time>2019-02-14T10:52:28.000Z</time>
      </trkpt>
      <trkpt lat="43.40291677974164485931396484375" lon="-5.9194926358759403228759765625">
        <ele>242</ele>
        <time>2019-02-14T10:52:31.000Z</time>
      </trkpt>
      <trkpt lat="43.4029267542064189910888671875" lon="-5.91954837553203105926513671875">
        <ele>242.600006103515625</ele>
        <time>2019-02-14T10:52:35.000Z</time>
      </trkpt>
      <trkpt lat="43.40293563902378082275390625" lon="-5.9196133352816104888916015625">
        <ele>243</ele>
        <time>2019-02-14T10:52:38.000Z</time>
      </trkpt>
      <trkpt lat="43.402954079210758209228515625" lon="-5.91969757340848445892333984375">
        <ele>244.399993896484375</ele>
        <time>2019-02-14T10:52:43.000Z</time>
      </trkpt>
      <trkpt lat="43.40298953466117382049560546875" lon="-5.91976596973836421966552734375">
        <ele>245.8000030517578125</ele>
        <time>2019-02-14T10:52:48.000Z</time>
      </trkpt>
      <trkpt lat="43.40300629846751689910888671875" lon="-5.91978617012500762939453125">
        <ele>246.399993896484375</ele>
        <time>2019-02-14T10:52:50.000Z</time>
      </trkpt>
      <trkpt lat="43.4030327014625072479248046875" lon="-5.91982313431799411773681640625">
        <ele>247</ele>
        <time>2019-02-14T10:52:53.000Z</time>
      </trkpt>
      <trkpt lat="43.4030719287693500518798828125" lon="-5.91986739076673984527587890625">
        <ele>248.1999969482421875</ele>
        <time>2019-02-14T10:52:57.000Z</time>
      </trkpt>
      <trkpt lat="43.403076119720935821533203125" lon="-5.919874347746372222900390625">
        <ele>248.600006103515625</ele>
        <time>2019-02-14T10:52:58.000Z</time>
      </trkpt>
      <trkpt lat="43.403079807758331298828125" lon="-5.91987644322216510772705078125">
        <ele>248.8000030517578125</ele>
        <time>2019-02-14T10:52:59.000Z</time>
      </trkpt>
      <trkpt lat="43.403233028948307037353515625" lon="-5.92051380313932895660400390625">
        <ele>264.79998779296875</ele>
        <time>2019-02-14T10:54:33.000Z</time>
      </trkpt>
      <trkpt lat="43.403224647045135498046875" lon="-5.92052754946053028106689453125">
        <ele>265</ele>
        <time>2019-02-14T10:54:34.000Z</time>
      </trkpt>
      <trkpt lat="43.40321618132293224334716796875" lon="-5.9205420501530170440673828125">
        <ele>265</ele>
        <time>2019-02-14T10:54:35.000Z</time>
      </trkpt>
      <trkpt lat="43.40315784327685832977294921875" lon="-5.92062645591795444488525390625">
        <ele>265.79998779296875</ele>
        <time>2019-02-14T10:54:42.000Z</time>
      </trkpt>
      <trkpt lat="43.40315080247819423675537109375" lon="-5.92063668183982372283935546875">
        <ele>266</ele>
        <time>2019-02-14T10:54:43.000Z</time>
      </trkpt>
      <trkpt lat="43.40309011749923229217529296875" lon="-5.92071966268122196197509765625">
        <ele>267</ele>
        <time>2019-02-14T10:54:50.000Z</time>
      </trkpt>
      <trkpt lat="43.403009735047817230224609375" lon="-5.920811109244823455810546875">
        <ele>268</ele>
        <time>2019-02-14T10:54:58.000Z</time>
      </trkpt>
      <trkpt lat="43.40289230458438396453857421875" lon="-5.92087137512862682342529296875">
        <ele>268</ele>
        <time>2019-02-14T10:55:04.000Z</time>
      </trkpt>
      <trkpt lat="43.4027567692101001739501953125" lon="-5.92082493938505649566650390625">
        <ele>267</ele>
        <time>2019-02-14T10:55:09.000Z</time>
      </trkpt>
      <trkpt lat="43.4027262590825557708740234375" lon="-5.92081706039607524871826171875">
        <ele>267</ele>
        <time>2019-02-14T10:55:10.000Z</time>
      </trkpt>
      <trkpt lat="43.4026193059980869293212890625" lon="-5.92078889720141887664794921875">
        <ele>266.600006103515625</ele>
        <time>2019-02-14T10:55:13.000Z</time>
      </trkpt>
      <trkpt lat="43.40254227630794048309326171875" lon="-5.92076643370091915130615234375">
        <ele>266</ele>
        <time>2019-02-14T10:55:15.000Z</time>
      </trkpt>
      <trkpt lat="43.40251646004617214202880859375" lon="-5.92075922526419162750244140625">
        <ele>266</ele>
        <time>2019-02-14T10:55:16.000Z</time>
      </trkpt>
      <trkpt lat="43.4024821780622005462646484375" lon="-5.9207455627620220184326171875">
        <ele>266</ele>
        <time>2019-02-14T10:55:19.000Z</time>
      </trkpt>
      <trkpt lat="43.4024714492261409759521484375" lon="-5.92073407955467700958251953125">
        <ele>266.20001220703125</ele>
        <time>2019-02-14T10:55:20.000Z</time>
      </trkpt>
      <trkpt lat="43.40244085527956485748291015625" lon="-5.9206558763980865478515625">
        <ele>266.79998779296875</ele>
        <time>2019-02-14T10:55:25.000Z</time>
      </trkpt>
      <trkpt lat="43.40242794714868068695068359375" lon="-5.92062209732830524444580078125">
        <ele>267.399993896484375</ele>
        <time>2019-02-14T10:55:27.000Z</time>
      </trkpt>
      <trkpt lat="43.40241470374166965484619140625" lon="-5.9205933474004268646240234375">
        <ele>267.79998779296875</ele>
        <time>2019-02-14T10:55:29.000Z</time>
      </trkpt>
      <trkpt lat="43.40237732045352458953857421875" lon="-5.92052620835602283477783203125">
        <ele>268.79998779296875</ele>
        <time>2019-02-14T10:55:34.000Z</time>
      </trkpt>
      <trkpt lat="43.4023698605597019195556640625" lon="-5.92051195912063121795654296875">
        <ele>269</ele>
        <time>2019-02-14T10:55:35.000Z</time>
      </trkpt>
      <trkpt lat="43.4023165516555309295654296875" lon="-5.92040634714066982269287109375">
        <ele>270</ele>
        <time>2019-02-14T10:55:42.000Z</time>
      </trkpt>
      <trkpt lat="43.4022960998117923736572265625" lon="-5.9203589893877506256103515625">
        <ele>270.79998779296875</ele>
        <time>2019-02-14T10:55:45.000Z</time>
      </trkpt>
      <trkpt lat="43.40229048393666744232177734375" lon="-5.9203439019620418548583984375">
        <ele>271.20001220703125</ele>
        <time>2019-02-14T10:55:46.000Z</time>
      </trkpt>
      <trkpt lat="43.40227447450160980224609375" lon="-5.92029687948524951934814453125">
        <ele>271.79998779296875</ele>
        <time>2019-02-14T10:55:49.000Z</time>
      </trkpt>
      <trkpt lat="43.40226785279810428619384765625" lon="-5.92028330080211162567138671875">
        <ele>272.20001220703125</ele>
        <time>2019-02-14T10:55:50.000Z</time>
      </trkpt>
      <trkpt lat="43.40223583392798900604248046875" lon="-5.92023401521146297454833984375">
        <ele>273.600006103515625</ele>
        <time>2019-02-14T10:55:54.000Z</time>
      </trkpt>
      <trkpt lat="43.40222996659576892852783203125" lon="-5.920219011604785919189453125">
        <ele>274</ele>
        <time>2019-02-14T10:55:55.000Z</time>
      </trkpt>
      <trkpt lat="43.40222083032131195068359375" lon="-5.920185483992099761962890625">
        <ele>274.79998779296875</ele>
        <time>2019-02-14T10:55:57.000Z</time>
      </trkpt>
      <trkpt lat="43.4021941758692264556884765625" lon="-5.920086912810802459716796875">
        <ele>275.79998779296875</ele>
        <time>2019-02-14T10:56:04.000Z</time>
      </trkpt>
      <trkpt lat="43.4021914936602115631103515625" lon="-5.9200733341276645660400390625">
        <ele>276</ele>
        <time>2019-02-14T10:56:05.000Z</time>
      </trkpt>
      <trkpt lat="43.40219040401279926300048828125" lon="-5.9199942089617252349853515625">
        <ele>277.20001220703125</ele>
        <time>2019-02-14T10:56:10.000Z</time>
      </trkpt>
      <trkpt lat="43.40218420140445232391357421875" lon="-5.91994936577975749969482421875">
        <ele>277.600006103515625</ele>
        <time>2019-02-14T10:56:13.000Z</time>
      </trkpt>
      <trkpt lat="43.40216408483684062957763671875" lon="-5.91991013847291469573974609375">
        <ele>278.20001220703125</ele>
        <time>2019-02-14T10:56:16.000Z</time>
      </trkpt>
      <trkpt lat="43.40213994495570659637451171875" lon="-5.91987694613635540008544921875">
        <ele>278.600006103515625</ele>
        <time>2019-02-14T10:56:19.000Z</time>
      </trkpt>
      <trkpt lat="43.40212955139577388763427734375" lon="-5.91986571438610553741455078125">
        <ele>278.79998779296875</ele>
        <time>2019-02-14T10:56:20.000Z</time>
      </trkpt>
      <trkpt lat="43.40211010538041591644287109375" lon="-5.9198490343987941741943359375">
        <ele>279.20001220703125</ele>
        <time>2019-02-14T10:56:22.000Z</time>
      </trkpt>
      <trkpt lat="43.40204179286956787109375" lon="-5.919822715222835540771484375">
        <ele>279.79998779296875</ele>
        <time>2019-02-14T10:56:28.000Z</time>
      </trkpt>
      <trkpt lat="43.4020082652568817138671875" lon="-5.9198067896068096160888671875">
        <ele>280.600006103515625</ele>
        <time>2019-02-14T10:56:31.000Z</time>
      </trkpt>
      <trkpt lat="43.40197063051164150238037109375" lon="-5.91978675685822963714599609375">
        <ele>281.600006103515625</ele>
        <time>2019-02-14T10:56:35.000Z</time>
      </trkpt>
      <trkpt lat="43.4019547887146472930908203125" lon="-5.9197705797851085662841796875">
        <ele>282</ele>
        <time>2019-02-14T10:56:37.000Z</time>
      </trkpt>
      <trkpt lat="43.4019185788929462432861328125" lon="-5.91972439549863338470458984375">
        <ele>282.79998779296875</ele>
        <time>2019-02-14T10:56:42.000Z</time>
      </trkpt>
      <trkpt lat="43.4019061736762523651123046875" lon="-5.91970277018845081329345703125">
        <ele>283</ele>
        <time>2019-02-14T10:56:44.000Z</time>
      </trkpt>
      <trkpt lat="43.40186401270329952239990234375" lon="-5.91965071856975555419921875">
        <ele>284</ele>
        <time>2019-02-14T10:56:49.000Z</time>
      </trkpt>
      <trkpt lat="43.40183551423251628875732421875" lon="-5.91962632723152637481689453125">
        <ele>284.600006103515625</ele>
        <time>2019-02-14T10:56:52.000Z</time>
      </trkpt>
      <trkpt lat="43.401813469827175140380859375" lon="-5.919610820710659027099609375">
        <ele>285.20001220703125</ele>
        <time>2019-02-14T10:56:54.000Z</time>
      </trkpt>
      <trkpt lat="43.40174968354403972625732421875" lon="-5.91956354677677154541015625">
        <ele>286.399993896484375</ele>
        <time>2019-02-14T10:57:00.000Z</time>
      </trkpt>
      <trkpt lat="43.40169972740113735198974609375" lon="-5.91952775605022907257080078125">
        <ele>287.399993896484375</ele>
        <time>2019-02-14T10:57:05.000Z</time>
      </trkpt>
      <trkpt lat="43.40168028138577938079833984375" lon="-5.919514261186122894287109375">
        <ele>287.79998779296875</ele>
        <time>2019-02-14T10:57:07.000Z</time>
      </trkpt>
      <trkpt lat="43.40164222754538059234619140625" lon="-5.9194892831146717071533203125">
        <ele>288.600006103515625</ele>
        <time>2019-02-14T10:57:11.000Z</time>
      </trkpt>
      <trkpt lat="43.401604592800140380859375" lon="-5.919459275901317596435546875">
        <ele>289.20001220703125</ele>
        <time>2019-02-14T10:57:15.000Z</time>
      </trkpt>
      <trkpt lat="43.4015524573624134063720703125" lon="-5.9194265864789485931396484375">
        <ele>289.600006103515625</ele>
        <time>2019-02-14T10:57:20.000Z</time>
      </trkpt>
      <trkpt lat="43.401486910879611968994140625" lon="-5.91938652098178863525390625">
        <ele>290.20001220703125</ele>
        <time>2019-02-14T10:57:26.000Z</time>
      </trkpt>
      <trkpt lat="43.4014693088829517364501953125" lon="-5.91936816461384296417236328125">
        <ele>290.600006103515625</ele>
        <time>2019-02-14T10:57:28.000Z</time>
      </trkpt>
      <trkpt lat="43.40143184177577495574951171875" lon="-5.9193323738873004913330078125">
        <ele>291.399993896484375</ele>
        <time>2019-02-14T10:57:32.000Z</time>
      </trkpt>
      <trkpt lat="43.40139965526759624481201171875" lon="-5.91930815018713474273681640625">
        <ele>291.79998779296875</ele>
        <time>2019-02-14T10:57:35.000Z</time>
      </trkpt>
      <trkpt lat="43.40136009268462657928466796875" lon="-5.91927948407828807830810546875">
        <ele>292.399993896484375</ele>
        <time>2019-02-14T10:57:39.000Z</time>
      </trkpt>
      <trkpt lat="43.401342071592807769775390625" lon="-5.91926523484289646148681640625">
        <ele>292.79998779296875</ele>
        <time>2019-02-14T10:57:41.000Z</time>
      </trkpt>
      <trkpt lat="43.40129085816442966461181640625" lon="-5.919216535985469818115234375">
        <ele>293.600006103515625</ele>
        <time>2019-02-14T10:57:46.000Z</time>
      </trkpt>
      <trkpt lat="43.40127007104456424713134765625" lon="-5.91920136474072933197021484375">
        <ele>294</ele>
        <time>2019-02-14T10:57:48.000Z</time>
      </trkpt>
      <trkpt lat="43.40122447349131107330322265625" lon="-5.91915291734039783477783203125">
        <ele>294.600006103515625</ele>
        <time>2019-02-14T10:57:53.000Z</time>
      </trkpt>
      <trkpt lat="43.40120653621852397918701171875" lon="-5.91913305222988128662109375">
        <ele>295</ele>
        <time>2019-02-14T10:57:55.000Z</time>
      </trkpt>
      <trkpt lat="43.40115590952336788177490234375" lon="-5.91908284462988376617431640625">
        <ele>296</ele>
        <time>2019-02-14T10:58:00.000Z</time>
      </trkpt>
      <trkpt lat="43.4011450968682765960693359375" lon="-5.919075049459934234619140625">
        <ele>296.20001220703125</ele>
        <time>2019-02-14T10:58:01.000Z</time>
      </trkpt>
      <trkpt lat="43.4011258184909820556640625" lon="-5.91905602253973484039306640625">
        <ele>296.399993896484375</ele>
        <time>2019-02-14T10:58:03.000Z</time>
      </trkpt>
      <trkpt lat="43.40109522454440593719482421875" lon="-5.91901226900517940521240234375">
        <ele>297</ele>
        <time>2019-02-14T10:58:07.000Z</time>
      </trkpt>
      <trkpt lat="43.40102951042354106903076171875" lon="-5.91889626346528530120849609375">
        <ele>298.20001220703125</ele>
        <time>2019-02-14T10:58:15.000Z</time>
      </trkpt>
      <trkpt lat="43.4010217152535915374755859375" lon="-5.9188854508101940155029296875">
        <ele>298.20001220703125</ele>
        <time>2019-02-14T10:58:16.000Z</time>
      </trkpt>
      <trkpt lat="43.40094418264925479888916015625" lon="-5.9187952615320682525634765625">
        <ele>299.20001220703125</ele>
        <time>2019-02-14T10:58:25.000Z</time>
      </trkpt>
      <trkpt lat="43.40093714185059070587158203125" lon="-5.9187892265617847442626953125">
        <ele>299.399993896484375</ele>
        <time>2019-02-14T10:58:26.000Z</time>
      </trkpt>
      <trkpt lat="43.4008688293397426605224609375" lon="-5.91872644610702991485595703125">
        <ele>300.399993896484375</ele>
        <time>2019-02-14T10:58:33.000Z</time>
      </trkpt>
      <trkpt lat="43.40086019597947597503662109375" lon="-5.91871705837547779083251953125">
        <ele>300.600006103515625</ele>
        <time>2019-02-14T10:58:34.000Z</time>
      </trkpt>
      <trkpt lat="43.40083236806094646453857421875" lon="-5.9186926670372486114501953125">
        <ele>300.79998779296875</ele>
        <time>2019-02-14T10:58:37.000Z</time>
      </trkpt>
      <trkpt lat="43.40081158094108104705810546875" lon="-5.9186738915741443634033203125">
        <ele>301</ele>
        <time>2019-02-14T10:58:39.000Z</time>
      </trkpt>
      <trkpt lat="43.4007545001804828643798828125" lon="-5.9186239354312419891357421875">
        <ele>301.600006103515625</ele>
        <time>2019-02-14T10:58:43.000Z</time>
      </trkpt>
      <trkpt lat="43.40072575025260448455810546875" lon="-5.91859183274209499359130859375">
        <ele>302.20001220703125</ele>
        <time>2019-02-14T10:58:46.000Z</time>
      </trkpt>
      <trkpt lat="43.4006814099848270416259765625" lon="-5.91855545528233051300048828125">
        <ele>302.79998779296875</ele>
        <time>2019-02-14T10:58:50.000Z</time>
      </trkpt>
      <trkpt lat="43.400642685592174530029296875" lon="-5.91852494515478610992431640625">
        <ele>303.20001220703125</ele>
        <time>2019-02-14T10:58:53.000Z</time>
      </trkpt>
      <trkpt lat="43.40059935115277767181396484375" lon="-5.91848722659051418304443359375">
        <ele>304</ele>
        <time>2019-02-14T10:58:57.000Z</time>
      </trkpt>
      <trkpt lat="43.40056012384593486785888671875" lon="-5.91845738701522350311279296875">
        <ele>304.399993896484375</ele>
        <time>2019-02-14T10:59:01.000Z</time>
      </trkpt>
      <trkpt lat="43.400542438030242919921875" lon="-5.9184443950653076171875">
        <ele>305</ele>
        <time>2019-02-14T10:59:03.000Z</time>
      </trkpt>
      <trkpt lat="43.4004869498312473297119140625" lon="-5.9184110350906848907470703125">
        <ele>305.600006103515625</ele>
        <time>2019-02-14T10:59:07.000Z</time>
      </trkpt>
      <trkpt lat="43.4004460461437702178955078125" lon="-5.91840273700654506683349609375">
        <ele>306</ele>
        <time>2019-02-14T10:59:11.000Z</time>
      </trkpt>
      <trkpt lat="43.40041679330170154571533203125" lon="-5.91839167289435863494873046875">
        <ele>306.79998779296875</ele>
        <time>2019-02-14T10:59:14.000Z</time>
      </trkpt>
      <trkpt lat="43.4004038013517856597900390625" lon="-5.91837801039218902587890625">
        <ele>307</ele>
        <time>2019-02-14T10:59:15.000Z</time>
      </trkpt>
      <trkpt lat="43.400389887392520904541015625" lon="-5.91836870647966861724853515625">
        <ele>307.20001220703125</ele>
        <time>2019-02-14T10:59:16.000Z</time>
      </trkpt>
      <trkpt lat="43.40036742389202117919921875" lon="-5.918352194130420684814453125">
        <ele>307.600006103515625</ele>
        <time>2019-02-14T10:59:18.000Z</time>
      </trkpt>
      <trkpt lat="43.40034873224794864654541015625" lon="-5.91833802871406078338623046875">
        <ele>308.399993896484375</ele>
        <time>2019-02-14T10:59:20.000Z</time>
      </trkpt>
      <trkpt lat="43.40029424987733364105224609375" lon="-5.9182973764836788177490234375">
        <ele>309.20001220703125</ele>
        <time>2019-02-14T10:59:26.000Z</time>
      </trkpt>
      <trkpt lat="43.400284610688686370849609375" lon="-5.9182886593043804168701171875">
        <ele>309.399993896484375</ele>
        <time>2019-02-14T10:59:27.000Z</time>
      </trkpt>
      <trkpt lat="43.40024714358150959014892578125" lon="-5.9182229451835155487060546875">
        <ele>310.600006103515625</ele>
        <time>2019-02-14T10:59:32.000Z</time>
      </trkpt>
      <trkpt lat="43.4002324752509593963623046875" lon="-5.91819838620722293853759765625">
        <ele>310.79998779296875</ele>
        <time>2019-02-14T10:59:34.000Z</time>
      </trkpt>
      <trkpt lat="43.40019517578184604644775390625" lon="-5.9181280620396137237548828125">
        <ele>311.600006103515625</ele>
        <time>2019-02-14T10:59:39.000Z</time>
      </trkpt>
      <trkpt lat="43.400165922939777374267578125" lon="-5.9180740825831890106201171875">
        <ele>312.600006103515625</ele>
        <time>2019-02-14T10:59:43.000Z</time>
      </trkpt>
      <trkpt lat="43.40015896596014499664306640625" lon="-5.91806125827133655548095703125">
        <ele>312.79998779296875</ele>
        <time>2019-02-14T10:59:44.000Z</time>
      </trkpt>
      <trkpt lat="43.40012376196682453155517578125" lon="-5.91799789108335971832275390625">
        <ele>313.79998779296875</ele>
        <time>2019-02-14T10:59:49.000Z</time>
      </trkpt>
      <trkpt lat="43.4001023881137371063232421875" lon="-5.9179517067968845367431640625">
        <ele>314.399993896484375</ele>
        <time>2019-02-14T10:59:52.000Z</time>
      </trkpt>
      <trkpt lat="43.40007950551807880401611328125" lon="-5.9179205261170864105224609375">
        <ele>315</ele>
        <time>2019-02-14T10:59:55.000Z</time>
      </trkpt>
      <trkpt lat="43.4000725485384464263916015625" lon="-5.91790786944329738616943359375">
        <ele>315.20001220703125</ele>
        <time>2019-02-14T10:59:56.000Z</time>
      </trkpt>
      <trkpt lat="43.400058634579181671142578125" lon="-5.917882807552814483642578125">
        <ele>315.399993896484375</ele>
        <time>2019-02-14T10:59:58.000Z</time>
      </trkpt>
      <trkpt lat="43.40004497207701206207275390625" lon="-5.9178585000336170196533203125">
        <ele>316</ele>
        <time>2019-02-14T11:00:00.000Z</time>
      </trkpt>
      <trkpt lat="43.3999997936189174652099609375" lon="-5.91776588000357151031494140625">
        <ele>317.20001220703125</ele>
        <time>2019-02-14T11:00:07.000Z</time>
      </trkpt>
      <trkpt lat="43.39998696930706501007080078125" lon="-5.917733274400234222412109375">
        <ele>317.600006103515625</ele>
        <time>2019-02-14T11:00:09.000Z</time>
      </trkpt>
      <trkpt lat="43.3999578841030597686767578125" lon="-5.91763311065733432769775390625">
        <ele>318.399993896484375</ele>
        <time>2019-02-14T11:00:15.000Z</time>
      </trkpt>
      <trkpt lat="43.39995034039020538330078125" lon="-5.91759941540658473968505859375">
        <ele>318.600006103515625</ele>
        <time>2019-02-14T11:00:17.000Z</time>
      </trkpt>
      <trkpt lat="43.39993617497384548187255859375" lon="-5.91752883978188037872314453125">
        <ele>319.399993896484375</ele>
        <time>2019-02-14T11:00:21.000Z</time>
      </trkpt>
      <trkpt lat="43.399913124740123748779296875" lon="-5.9174457751214504241943359375">
        <ele>320.399993896484375</ele>
        <time>2019-02-14T11:00:26.000Z</time>
      </trkpt>
      <trkpt lat="43.3999089337885379791259765625" lon="-5.91743127442896366119384765625">
        <ele>320.79998779296875</ele>
        <time>2019-02-14T11:00:27.000Z</time>
      </trkpt>
      <trkpt lat="43.3998938463628292083740234375" lon="-5.9173582680523395538330078125">
        <ele>321.79998779296875</ele>
        <time>2019-02-14T11:00:31.000Z</time>
      </trkpt>
      <trkpt lat="43.399884961545467376708984375" lon="-5.91730621643364429473876953125">
        <ele>322.600006103515625</ele>
        <time>2019-02-14T11:00:34.000Z</time>
      </trkpt>
      <trkpt lat="43.39987792074680328369140625" lon="-5.9172741137444972991943359375">
        <ele>322.79998779296875</ele>
        <time>2019-02-14T11:00:36.000Z</time>
      </trkpt>
      <trkpt lat="43.3998569659888744354248046875" lon="-5.91720378957688808441162109375">
        <ele>324</ele>
        <time>2019-02-14T11:00:41.000Z</time>
      </trkpt>
      <trkpt lat="43.39983777143061161041259765625" lon="-5.91715618036687374114990234375">
        <ele>324.399993896484375</ele>
        <time>2019-02-14T11:00:44.000Z</time>
      </trkpt>
      <trkpt lat="43.3998227678239345550537109375" lon="-5.9171386621892452239990234375">
        <ele>325</ele>
        <time>2019-02-14T11:00:46.000Z</time>
      </trkpt>
      <trkpt lat="43.39979401789605617523193359375" lon="-5.91708929277956485748291015625">
        <ele>326</ele>
        <time>2019-02-14T11:00:51.000Z</time>
      </trkpt>
      <trkpt lat="43.39978865347802639007568359375" lon="-5.91707688756287097930908203125">
        <ele>326.20001220703125</ele>
        <time>2019-02-14T11:00:52.000Z</time>
      </trkpt>
      <trkpt lat="43.3997640945017337799072265625" lon="-5.9170008637011051177978515625">
        <ele>327.20001220703125</ele>
        <time>2019-02-14T11:00:58.000Z</time>
      </trkpt>
      <trkpt lat="43.39975856244564056396484375" lon="-5.91698686592280864715576171875">
        <ele>327.399993896484375</ele>
        <time>2019-02-14T11:00:59.000Z</time>
      </trkpt>
      <trkpt lat="43.3997283875942230224609375" lon="-5.91688804328441619873046875">
        <ele>328.600006103515625</ele>
        <time>2019-02-14T11:01:06.000Z</time>
      </trkpt>
      <trkpt lat="43.39969058521091938018798828125" lon="-5.9168042242527008056640625">
        <ele>329.20001220703125</ele>
        <time>2019-02-14T11:01:12.000Z</time>
      </trkpt>
      <trkpt lat="43.3996698819100856781005859375" lon="-5.9167561121284961700439453125">
        <ele>329.600006103515625</ele>
        <time>2019-02-14T11:01:15.000Z</time>
      </trkpt>
      <trkpt lat="43.39963912032544612884521484375" lon="-5.9166783280670642852783203125">
        <ele>330.79998779296875</ele>
        <time>2019-02-14T11:01:20.000Z</time>
      </trkpt>
      <trkpt lat="43.39963207952678203582763671875" lon="-5.9166652522981166839599609375">
        <ele>330.79998779296875</ele>
        <time>2019-02-14T11:01:21.000Z</time>
      </trkpt>
      <trkpt lat="43.3995902538299560546875" lon="-5.916590653359889984130859375">
        <ele>331.600006103515625</ele>
        <time>2019-02-14T11:01:27.000Z</time>
      </trkpt>
      <trkpt lat="43.399581871926784515380859375" lon="-5.9165789186954498291015625">
        <ele>331.79998779296875</ele>
        <time>2019-02-14T11:01:28.000Z</time>
      </trkpt>
      <trkpt lat="43.3995485119521617889404296875" lon="-5.91652334667742252349853515625">
        <ele>332.600006103515625</ele>
        <time>2019-02-14T11:01:33.000Z</time>
      </trkpt>
      <trkpt lat="43.3995394594967365264892578125" lon="-5.916510522365570068359375">
        <ele>332.79998779296875</ele>
        <time>2019-02-14T11:01:34.000Z</time>
      </trkpt>
      <trkpt lat="43.39949696324765682220458984375" lon="-5.91643986292183399200439453125">
        <ele>333.600006103515625</ele>
        <time>2019-02-14T11:01:39.000Z</time>
      </trkpt>
      <trkpt lat="43.399486653506755828857421875" lon="-5.9164248593151569366455078125">
        <ele>333.79998779296875</ele>
        <time>2019-02-14T11:01:40.000Z</time>
      </trkpt>
      <trkpt lat="43.39943644590675830841064453125" lon="-5.91636559925973415374755859375">
        <ele>334.79998779296875</ele>
        <time>2019-02-14T11:01:45.000Z</time>
      </trkpt>
      <trkpt lat="43.39942772872745990753173828125" lon="-5.9163544513285160064697265625">
        <ele>335</ele>
        <time>2019-02-14T11:01:46.000Z</time>
      </trkpt>
      <trkpt lat="43.39937995187938213348388671875" lon="-5.916259400546550750732421875">
        <ele>336</ele>
        <time>2019-02-14T11:01:52.000Z</time>
      </trkpt>
      <trkpt lat="43.3993681333959102630615234375" lon="-5.91624355874955654144287109375">
        <ele>336</ele>
        <time>2019-02-14T11:01:53.000Z</time>
      </trkpt>
      <trkpt lat="43.39932412840425968170166015625" lon="-5.91614616103470325469970703125">
        <ele>337</ele>
        <time>2019-02-14T11:01:58.000Z</time>
      </trkpt>
      <trkpt lat="43.39930987916886806488037109375" lon="-5.91611565090715885162353515625">
        <ele>337.20001220703125</ele>
        <time>2019-02-14T11:02:00.000Z</time>
      </trkpt>
      <trkpt lat="43.39927936904132366180419921875" lon="-5.916033424437046051025390625">
        <ele>337.399993896484375</ele>
        <time>2019-02-14T11:02:04.000Z</time>
      </trkpt>
      <trkpt lat="43.39924014173448085784912109375" lon="-5.9159432351589202880859375">
        <ele>337.20001220703125</ele>
        <time>2019-02-14T11:02:10.000Z</time>
      </trkpt>
      <trkpt lat="43.39924064464867115020751953125" lon="-5.91594122350215911865234375">
        <ele>337.20001220703125</ele>
        <time>2019-02-14T11:02:11.000Z</time>
      </trkpt>
      <trkpt lat="43.39920946396887302398681640625" lon="-5.915877185761928558349609375">
        <ele>337.79998779296875</ele>
        <time>2019-02-14T11:03:11.000Z</time>
      </trkpt>
      <trkpt lat="43.39918582700192928314208984375" lon="-5.9158386290073394775390625">
        <ele>338</ele>
        <time>2019-02-14T11:03:13.000Z</time>
      </trkpt>
      <trkpt lat="43.39914291165769100189208984375" lon="-5.91575925238430500030517578125">
        <ele>338.20001220703125</ele>
        <time>2019-02-14T11:03:18.000Z</time>
      </trkpt>
      <trkpt lat="43.399127237498760223388671875" lon="-5.915721952915191650390625">
        <ele>338</ele>
        <time>2019-02-14T11:03:20.000Z</time>
      </trkpt>
      <trkpt lat="43.39910385198891162872314453125" lon="-5.915641821920871734619140625">
        <ele>337.600006103515625</ele>
        <time>2019-02-14T11:03:23.000Z</time>
      </trkpt>
      <trkpt lat="43.399100415408611297607421875" lon="-5.9155984036624431610107421875">
        <ele>337.399993896484375</ele>
        <time>2019-02-14T11:03:25.000Z</time>
      </trkpt>
      <trkpt lat="43.39909781701862812042236328125" lon="-5.9155784547328948974609375">
        <ele>337.20001220703125</ele>
        <time>2019-02-14T11:03:28.000Z</time>
      </trkpt>
      <trkpt lat="43.39910234324634075164794921875" lon="-5.91551877558231353759765625">
        <ele>337</ele>
        <time>2019-02-14T11:03:49.000Z</time>
      </trkpt>
      <trkpt lat="43.39911810122430324554443359375" lon="-5.91526069678366184234619140625">
        <ele>336.399993896484375</ele>
        <time>2019-02-14T11:03:55.000Z</time>
      </trkpt>
      <trkpt lat="43.39911692775785923004150390625" lon="-5.9152027778327465057373046875">
        <ele>336</ele>
        <time>2019-02-14T11:03:56.000Z</time>
      </trkpt>
      <trkpt lat="43.399108462035655975341796875" lon="-5.9150840900838375091552734375">
        <ele>335.600006103515625</ele>
        <time>2019-02-14T11:03:58.000Z</time>
      </trkpt>
      <trkpt lat="43.39910251088440418243408203125" lon="-5.91501988470554351806640625">
        <ele>335.20001220703125</ele>
        <time>2019-02-14T11:03:59.000Z</time>
      </trkpt>
      <trkpt lat="43.39909471571445465087890625" lon="-5.91496380977332592010498046875">
        <ele>335</ele>
        <time>2019-02-14T11:04:00.000Z</time>
      </trkpt>
      <trkpt lat="43.39908524416387081146240234375" lon="-5.914912931621074676513671875">
        <ele>334.600006103515625</ele>
        <time>2019-02-14T11:04:01.000Z</time>
      </trkpt>
      <trkpt lat="43.399067558348178863525390625" lon="-5.9148167073726654052734375">
        <ele>334.20001220703125</ele>
        <time>2019-02-14T11:04:03.000Z</time>
      </trkpt>
      <trkpt lat="43.3990429155528545379638671875" lon="-5.91464982368052005767822265625">
        <ele>334</ele>
        <time>2019-02-14T11:04:07.000Z</time>
      </trkpt>
      <trkpt lat="43.399027995765209197998046875" lon="-5.9145806729793548583984375">
        <ele>334.20001220703125</ele>
        <time>2019-02-14T11:04:09.000Z</time>
      </trkpt>
      <trkpt lat="43.39902087114751338958740234375" lon="-5.91454982757568359375">
        <ele>334.20001220703125</ele>
        <time>2019-02-14T11:04:10.000Z</time>
      </trkpt>
      <trkpt lat="43.3990134112536907196044921875" lon="-5.9145188145339488983154296875">
        <ele>334.399993896484375</ele>
        <time>2019-02-14T11:04:11.000Z</time>
      </trkpt>
      <trkpt lat="43.398993127048015594482421875" lon="-5.91445921920239925384521484375">
        <ele>334.600006103515625</ele>
        <time>2019-02-14T11:04:13.000Z</time>
      </trkpt>
      <trkpt lat="43.39898147620260715484619140625" lon="-5.9144306369125843048095703125">
        <ele>334.600006103515625</ele>
        <time>2019-02-14T11:04:14.000Z</time>
      </trkpt>
      <trkpt lat="43.39893353171646595001220703125" lon="-5.9143431298434734344482421875">
        <ele>335</ele>
        <time>2019-02-14T11:04:18.000Z</time>
      </trkpt>
      <trkpt lat="43.39891911484301090240478515625" lon="-5.91432519257068634033203125">
        <ele>335</ele>
        <time>2019-02-14T11:04:19.000Z</time>
      </trkpt>
      <trkpt lat="43.39890603907406330108642578125" lon="-5.91430800966918468475341796875">
        <ele>335</ele>
        <time>2019-02-14T11:04:20.000Z</time>
      </trkpt>
      <trkpt lat="43.39883445762097835540771484375" lon="-5.91423324309289455413818359375">
        <ele>335.600006103515625</ele>
        <time>2019-02-14T11:04:25.000Z</time>
      </trkpt>
      <trkpt lat="43.398818112909793853759765625" lon="-5.9142207540571689605712890625">
        <ele>335.79998779296875</ele>
        <time>2019-02-14T11:04:26.000Z</time>
      </trkpt>
      <trkpt lat="43.39878818951547145843505859375" lon="-5.91419904492795467376708984375">
        <ele>336</ele>
        <time>2019-02-14T11:04:28.000Z</time>
      </trkpt>
      <trkpt lat="43.3987257443368434906005859375" lon="-5.91415621340274810791015625">
        <ele>336</ele>
        <time>2019-02-14T11:04:32.000Z</time>
      </trkpt>
      <trkpt lat="43.39869313873350620269775390625" lon="-5.91413014568388462066650390625">
        <ele>336.20001220703125</ele>
        <time>2019-02-14T11:04:34.000Z</time>
      </trkpt>
      <trkpt lat="43.398617617785930633544921875" lon="-5.914069376885890960693359375">
        <ele>336.79998779296875</ele>
        <time>2019-02-14T11:04:39.000Z</time>
      </trkpt>
      <trkpt lat="43.3986033685505390167236328125" lon="-5.91405655257403850555419921875">
        <ele>337</ele>
        <time>2019-02-14T11:04:40.000Z</time>
      </trkpt>
      <trkpt lat="43.3985886164009571075439453125" lon="-5.9140420518815517425537109375">
        <ele>337.20001220703125</ele>
        <time>2019-02-14T11:04:41.000Z</time>
      </trkpt>
      <trkpt lat="43.39852281846106052398681640625" lon="-5.9139998070895671844482421875">
        <ele>337.79998779296875</ele>
        <time>2019-02-14T11:04:45.000Z</time>
      </trkpt>
      <trkpt lat="43.39843296445906162261962890625" lon="-5.91394088231027126312255859375">
        <ele>338.20001220703125</ele>
        <time>2019-02-14T11:04:51.000Z</time>
      </trkpt>
      <trkpt lat="43.39841737411916255950927734375" lon="-5.91393250040709972381591796875">
        <ele>338.399993896484375</ele>
        <time>2019-02-14T11:04:52.000Z</time>
      </trkpt>
      <trkpt lat="43.39836372993886470794677734375" lon="-5.91391338966786861419677734375">
        <ele>339.600006103515625</ele>
        <time>2019-02-14T11:04:55.000Z</time>
      </trkpt>
      <trkpt lat="43.39831779710948467254638671875" lon="-5.9139099530875682830810546875">
        <ele>340.399993896484375</ele>
        <time>2019-02-14T11:04:58.000Z</time>
      </trkpt>
      <trkpt lat="43.39830480515956878662109375" lon="-5.91391305439174175262451171875">
        <ele>340.79998779296875</ele>
        <time>2019-02-14T11:04:59.000Z</time>
      </trkpt>
      <trkpt lat="43.3982288651168346405029296875" lon="-5.91394993476569652557373046875">
        <ele>341.79998779296875</ele>
        <time>2019-02-14T11:05:04.000Z</time>
      </trkpt>
      <trkpt lat="43.39821386151015758514404296875" lon="-5.91396116651594638824462890625">
        <ele>341.79998779296875</ele>
        <time>2019-02-14T11:05:05.000Z</time>
      </trkpt>
      <trkpt lat="43.39811705052852630615234375" lon="-5.9139837138354778289794921875">
        <ele>342.399993896484375</ele>
        <time>2019-02-14T11:05:11.000Z</time>
      </trkpt>
      <trkpt lat="43.39805133640766143798828125" lon="-5.9139811992645263671875">
        <ele>342.79998779296875</ele>
        <time>2019-02-14T11:05:15.000Z</time>
      </trkpt>
      <trkpt lat="43.39798620902001857757568359375" lon="-5.91398128308355808258056640625">
        <ele>343</ele>
        <time>2019-02-14T11:05:19.000Z</time>
      </trkpt>
      <trkpt lat="43.39791429229080677032470703125" lon="-5.91398849152028560638427734375">
        <ele>343.20001220703125</ele>
        <time>2019-02-14T11:05:23.000Z</time>
      </trkpt>
      <trkpt lat="43.39785955846309661865234375" lon="-5.9140011481940746307373046875">
        <ele>343.20001220703125</ele>
        <time>2019-02-14T11:05:26.000Z</time>
      </trkpt>
      <trkpt lat="43.397813625633716583251953125" lon="-5.914012379944324493408203125">
        <ele>343.20001220703125</ele>
        <time>2019-02-14T11:05:28.000Z</time>
      </trkpt>
      <trkpt lat="43.39774950407445430755615234375" lon="-5.9140200912952423095703125">
        <ele>342.600006103515625</ele>
        <time>2019-02-14T11:05:31.000Z</time>
      </trkpt>
      <trkpt lat="43.39770088903605937957763671875" lon="-5.9140242822468280792236328125">
        <ele>342.399993896484375</ele>
        <time>2019-02-14T11:05:33.000Z</time>
      </trkpt>
      <trkpt lat="43.39765042997896671295166015625" lon="-5.91404221951961517333984375">
        <ele>342.399993896484375</ele>
        <time>2019-02-14T11:05:35.000Z</time>
      </trkpt>
      <trkpt lat="43.3975452370941638946533203125" lon="-5.9141027368605136871337890625">
        <ele>342.20001220703125</ele>
        <time>2019-02-14T11:05:40.000Z</time>
      </trkpt>
      <trkpt lat="43.39741070754826068878173828125" lon="-5.9142388589680194854736328125">
        <ele>342.20001220703125</ele>
        <time>2019-02-14T11:05:46.000Z</time>
      </trkpt>
      <trkpt lat="43.3973492681980133056640625" lon="-5.914289988577365875244140625">
        <ele>341.600006103515625</ele>
        <time>2019-02-14T11:05:48.000Z</time>
      </trkpt>
      <trkpt lat="43.39729302562773227691650390625" lon="-5.91434338130056858062744140625">
        <ele>341.20001220703125</ele>
        <time>2019-02-14T11:05:50.000Z</time>
      </trkpt>
      <trkpt lat="43.39726737700402736663818359375" lon="-5.91436433605849742889404296875">
        <ele>341.20001220703125</ele>
        <time>2019-02-14T11:05:51.000Z</time>
      </trkpt>
      <trkpt lat="43.39707056991755962371826171875" lon="-5.91444647870957851409912109375">
        <ele>342</ele>
        <time>2019-02-14T11:05:58.000Z</time>
      </trkpt>
      <trkpt lat="43.3970138244330883026123046875" lon="-5.9144500829279422760009765625">
        <ele>342.399993896484375</ele>
        <time>2019-02-14T11:06:00.000Z</time>
      </trkpt>
      <trkpt lat="43.3969866670668125152587890625" lon="-5.91444991528987884521484375">
        <ele>342.79998779296875</ele>
        <time>2019-02-14T11:06:01.000Z</time>
      </trkpt>
      <trkpt lat="43.396828584372997283935546875" lon="-5.914422757923603057861328125">
        <ele>343.20001220703125</ele>
        <time>2019-02-14T11:06:07.000Z</time>
      </trkpt>
      <trkpt lat="43.3966487087309360504150390625" lon="-5.91433147899806499481201171875">
        <ele>344</ele>
        <time>2019-02-14T11:06:14.000Z</time>
      </trkpt>
      <trkpt lat="43.39662699960172176361083984375" lon="-5.9143122844398021697998046875">
        <ele>344.20001220703125</ele>
        <time>2019-02-14T11:06:15.000Z</time>
      </trkpt>
      <trkpt lat="43.39645005762577056884765625" lon="-5.91416635550558567047119140625">
        <ele>344.20001220703125</ele>
        <time>2019-02-14T11:06:23.000Z</time>
      </trkpt>
      <trkpt lat="43.39635022915899753570556640625" lon="-5.914071388542652130126953125">
        <ele>344</ele>
        <time>2019-02-14T11:06:29.000Z</time>
      </trkpt>
      <trkpt lat="43.3962286077439785003662109375" lon="-5.9139646030962467193603515625">
        <ele>343.20001220703125</ele>
        <time>2019-02-14T11:06:35.000Z</time>
      </trkpt>
      <trkpt lat="43.39612710289657115936279296875" lon="-5.91388799250125885009765625">
        <ele>342.600006103515625</ele>
        <time>2019-02-14T11:06:38.000Z</time>
      </trkpt>
      <trkpt lat="43.3960901387035846710205078125" lon="-5.913851447403430938720703125">
        <ele>342.20001220703125</ele>
        <time>2019-02-14T11:06:39.000Z</time>
      </trkpt>
      <trkpt lat="43.39601612649857997894287109375" lon="-5.91376737691462039947509765625">
        <ele>341</ele>
        <time>2019-02-14T11:06:41.000Z</time>
      </trkpt>
      <trkpt lat="43.39597036130726337432861328125" lon="-5.91370518319308757781982421875">
        <ele>340</ele>
        <time>2019-02-14T11:06:43.000Z</time>
      </trkpt>
      <trkpt lat="43.39596566744148731231689453125" lon="-5.91369688510894775390625">
        <ele>340</ele>
        <time>2019-02-14T11:06:44.000Z</time>
      </trkpt>
      <trkpt lat="43.39596432633697986602783203125" lon="-5.9136970527470111846923828125">
        <ele>340</ele>
        <time>2019-02-14T11:06:45.000Z</time>
      </trkpt>
      <trkpt lat="43.39594320394098758697509765625" lon="-5.913665033876895904541015625">
        <ele>339.600006103515625</ele>
        <time>2019-02-14T11:06:59.000Z</time>
      </trkpt>
      <trkpt lat="43.3959268592298030853271484375" lon="-5.91364366002380847930908203125">
        <ele>339.600006103515625</ele>
        <time>2019-02-14T11:07:00.000Z</time>
      </trkpt>
      <trkpt lat="43.39590632356703281402587890625" lon="-5.91361767612397670745849609375">
        <ele>339.600006103515625</ele>
        <time>2019-02-14T11:07:01.000Z</time>
      </trkpt>
      <trkpt lat="43.39588402770459651947021484375" lon="-5.9135860763490200042724609375">
        <ele>339.600006103515625</ele>
        <time>2019-02-14T11:07:02.000Z</time>
      </trkpt>
      <trkpt lat="43.39583742432296276092529296875" lon="-5.9135113097727298736572265625">
        <ele>338.600006103515625</ele>
        <time>2019-02-14T11:07:04.000Z</time>
      </trkpt>
      <trkpt lat="43.39579115621745586395263671875" lon="-5.9134338609874248504638671875">
        <ele>338</ele>
        <time>2019-02-14T11:07:06.000Z</time>
      </trkpt>
      <trkpt lat="43.395680598914623260498046875" lon="-5.91329044662415981292724609375">
        <ele>337.600006103515625</ele>
        <time>2019-02-14T11:07:10.000Z</time>
      </trkpt>
      <trkpt lat="43.39564765803515911102294921875" lon="-5.91326798312366008758544921875">
        <ele>337.399993896484375</ele>
        <time>2019-02-14T11:07:11.000Z</time>
      </trkpt>
      <trkpt lat="43.3955637551844120025634765625" lon="-5.91324334032833576202392578125">
        <ele>337.600006103515625</ele>
        <time>2019-02-14T11:07:14.000Z</time>
      </trkpt>
      <trkpt lat="43.395531736314296722412109375" lon="-5.91323931701481342315673828125">
        <ele>337.600006103515625</ele>
        <time>2019-02-14T11:07:15.000Z</time>
      </trkpt>
      <trkpt lat="43.3954963646829128265380859375" lon="-5.91323621571063995361328125">
        <ele>337.600006103515625</ele>
        <time>2019-02-14T11:07:16.000Z</time>
      </trkpt>
      <trkpt lat="43.39539469219744205474853515625" lon="-5.9132179431617259979248046875">
        <ele>338</ele>
        <time>2019-02-14T11:07:19.000Z</time>
      </trkpt>
      <trkpt lat="43.39529729448258876800537109375" lon="-5.913192965090274810791015625">
        <ele>338.20001220703125</ele>
        <time>2019-02-14T11:07:22.000Z</time>
      </trkpt>
      <trkpt lat="43.3952673710882663726806640625" lon="-5.91317980550229549407958984375">
        <ele>338.20001220703125</ele>
        <time>2019-02-14T11:07:23.000Z</time>
      </trkpt>
      <trkpt lat="43.3951714821159839630126953125" lon="-5.9131591022014617919921875">
        <ele>338.20001220703125</ele>
        <time>2019-02-14T11:07:26.000Z</time>
      </trkpt>
      <trkpt lat="43.39505220763385295867919921875" lon="-5.9131284244358539581298828125">
        <ele>338.399993896484375</ele>
        <time>2019-02-14T11:07:30.000Z</time>
      </trkpt>
      <trkpt lat="43.39480980299413204193115234375" lon="-5.9131176955997943878173828125">
        <ele>337.20001220703125</ele>
        <time>2019-02-14T11:07:36.000Z</time>
      </trkpt>
      <trkpt lat="43.394676111638545989990234375" lon="-5.913129933178424835205078125">
        <ele>336.79998779296875</ele>
        <time>2019-02-14T11:07:39.000Z</time>
      </trkpt>
      <trkpt lat="43.39463688433170318603515625" lon="-5.913136303424835205078125">
        <ele>335.79998779296875</ele>
        <time>2019-02-14T11:07:40.000Z</time>
      </trkpt>
      <trkpt lat="43.39454778470098972320556640625" lon="-5.91318952850997447967529296875">
        <ele>334.79998779296875</ele>
        <time>2019-02-14T11:07:43.000Z</time>
      </trkpt>
      <trkpt lat="43.39452347718179225921630859375" lon="-5.91320444829761981964111328125">
        <ele>334.79998779296875</ele>
        <time>2019-02-14T11:07:44.000Z</time>
      </trkpt>
      <trkpt lat="43.3944177813827991485595703125" lon="-5.91336085461080074310302734375">
        <ele>334</ele>
        <time>2019-02-14T11:07:49.000Z</time>
      </trkpt>
      <trkpt lat="43.39432784356176853179931640625" lon="-5.91350980103015899658203125">
        <ele>333.79998779296875</ele>
        <time>2019-02-14T11:07:53.000Z</time>
      </trkpt>
      <trkpt lat="43.39424402453005313873291015625" lon="-5.91368414461612701416015625">
        <ele>334.20001220703125</ele>
        <time>2019-02-14T11:07:58.000Z</time>
      </trkpt>
      <trkpt lat="43.3941827528178691864013671875" lon="-5.91381498612463474273681640625">
        <ele>334.79998779296875</ele>
        <time>2019-02-14T11:08:03.000Z</time>
      </trkpt>
      <trkpt lat="43.39407630264759063720703125" lon="-5.91390534304082393646240234375">
        <ele>335.600006103515625</ele>
        <time>2019-02-14T11:08:08.000Z</time>
      </trkpt>
      <trkpt lat="43.394044451415538787841796875" lon="-5.91391774825751781463623046875">
        <ele>335.600006103515625</ele>
        <time>2019-02-14T11:08:09.000Z</time>
      </trkpt>
      <trkpt lat="43.3938977681100368499755859375" lon="-5.91389830224215984344482421875">
        <ele>335.600006103515625</ele>
        <time>2019-02-14T11:08:14.000Z</time>
      </trkpt>
      <trkpt lat="43.3937814272940158843994140625" lon="-5.91379520483314990997314453125">
        <ele>334.399993896484375</ele>
        <time>2019-02-14T11:08:17.000Z</time>
      </trkpt>
      <trkpt lat="43.39365326799452304840087890625" lon="-5.91367651708424091339111328125">
        <ele>333</ele>
        <time>2019-02-14T11:08:20.000Z</time>
      </trkpt>
      <trkpt lat="43.39360968209803104400634765625" lon="-5.91363913379609584808349609375">
        <ele>332.79998779296875</ele>
        <time>2019-02-14T11:08:21.000Z</time>
      </trkpt>
      <trkpt lat="43.39347020722925662994384765625" lon="-5.9135257266461849212646484375">
        <ele>331.79998779296875</ele>
        <time>2019-02-14T11:08:24.000Z</time>
      </trkpt>
      <trkpt lat="43.3934189938008785247802734375" lon="-5.9134905226528644561767578125">
        <ele>331.600006103515625</ele>
        <time>2019-02-14T11:08:25.000Z</time>
      </trkpt>
      <trkpt lat="43.39336694218218326568603515625" lon="-5.913460515439510345458984375">
        <ele>331.20001220703125</ele>
        <time>2019-02-14T11:08:26.000Z</time>
      </trkpt>
      <trkpt lat="43.3933113701641559600830078125" lon="-5.91342866420745849609375">
        <ele>330.20001220703125</ele>
        <time>2019-02-14T11:08:27.000Z</time>
      </trkpt>
      <trkpt lat="43.39319544844329357147216796875" lon="-5.9133634530007839202880859375">
        <ele>329.399993896484375</ele>
        <time>2019-02-14T11:08:29.000Z</time>
      </trkpt>
      <trkpt lat="43.39313275180757045745849609375" lon="-5.9133332781493663787841796875">
        <ele>328.20001220703125</ele>
        <time>2019-02-14T11:08:30.000Z</time>
      </trkpt>
      <trkpt lat="43.39307189919054508209228515625" lon="-5.91330184601247310638427734375">
        <ele>327</ele>
        <time>2019-02-14T11:08:31.000Z</time>
      </trkpt>
      <trkpt lat="43.393011130392551422119140625" lon="-5.9132725931704044342041015625">
        <ele>326.600006103515625</ele>
        <time>2019-02-14T11:08:32.000Z</time>
      </trkpt>
      <trkpt lat="43.39289386756718158721923828125" lon="-5.91321702115237712860107421875">
        <ele>325.399993896484375</ele>
        <time>2019-02-14T11:08:34.000Z</time>
      </trkpt>
      <trkpt lat="43.39277283288538455963134765625" lon="-5.91316672973334789276123046875">
        <ele>324</ele>
        <time>2019-02-14T11:08:36.000Z</time>
      </trkpt>
      <trkpt lat="43.39270594529807567596435546875" lon="-5.91314258985221385955810546875">
        <ele>323.600006103515625</ele>
        <time>2019-02-14T11:08:37.000Z</time>
      </trkpt>
      <trkpt lat="43.392579965293407440185546875" lon="-5.91310403309762477874755859375">
        <ele>322.600006103515625</ele>
        <time>2019-02-14T11:08:39.000Z</time>
      </trkpt>
      <trkpt lat="43.3924738503992557525634765625" lon="-5.9130694158375263214111328125">
        <ele>322.399993896484375</ele>
        <time>2019-02-14T11:08:41.000Z</time>
      </trkpt>
      <trkpt lat="43.3923833258450031280517578125" lon="-5.9130399115383625030517578125">
        <ele>322.399993896484375</ele>
        <time>2019-02-14T11:08:43.000Z</time>
      </trkpt>
      <trkpt lat="43.392272852361202239990234375" lon="-5.912989787757396697998046875">
        <ele>322.20001220703125</ele>
        <time>2019-02-14T11:08:46.000Z</time>
      </trkpt>
      <trkpt lat="43.39223873801529407501220703125" lon="-5.91298299841582775115966796875">
        <ele>322.20001220703125</ele>
        <time>2019-02-14T11:08:47.000Z</time>
      </trkpt>
      <trkpt lat="43.39207026176154613494873046875" lon="-5.912933461368083953857421875">
        <ele>321.20001220703125</ele>
        <time>2019-02-14T11:08:51.000Z</time>
      </trkpt>
      <trkpt lat="43.39202684350311756134033203125" lon="-5.91291560791432857513427734375">
        <ele>320.79998779296875</ele>
        <time>2019-02-14T11:08:52.000Z</time>
      </trkpt>
      <trkpt lat="43.39189977385103702545166015625" lon="-5.91285861097276210784912109375">
        <ele>319.79998779296875</ele>
        <time>2019-02-14T11:08:55.000Z</time>
      </trkpt>
      <trkpt lat="43.39178762398660182952880859375" lon="-5.91282994486391544342041015625">
        <ele>319.20001220703125</ele>
        <time>2019-02-14T11:08:58.000Z</time>
      </trkpt>
      <trkpt lat="43.39171855710446834564208984375" lon="-5.91282139532268047332763671875">
        <ele>318.79998779296875</ele>
        <time>2019-02-14T11:09:00.000Z</time>
      </trkpt>
      <trkpt lat="43.39166306890547275543212890625" lon="-5.91280974447727203369140625">
        <ele>318</ele>
        <time>2019-02-14T11:09:02.000Z</time>
      </trkpt>
      <trkpt lat="43.39163943193852901458740234375" lon="-5.912800692021846771240234375">
        <ele>317.79998779296875</ele>
        <time>2019-02-14T11:09:03.000Z</time>
      </trkpt>
      <trkpt lat="43.39160020463168621063232421875" lon="-5.9127943217754364013671875">
        <ele>318</ele>
        <time>2019-02-14T11:09:05.000Z</time>
      </trkpt>
      <trkpt lat="43.39158344082534313201904296875" lon="-5.91280630789697170257568359375">
        <ele>318.20001220703125</ele>
        <time>2019-02-14T11:09:06.000Z</time>
      </trkpt>
      <trkpt lat="43.39157380163669586181640625" lon="-5.912823490798473358154296875">
        <ele>318.20001220703125</ele>
        <time>2019-02-14T11:09:07.000Z</time>
      </trkpt>
      <trkpt lat="43.39157070033252239227294921875" lon="-5.912848971784114837646484375">
        <ele>318.399993896484375</ele>
        <time>2019-02-14T11:09:08.000Z</time>
      </trkpt>
      <trkpt lat="43.391580171883106231689453125" lon="-5.9128962457180023193359375">
        <ele>318.600006103515625</ele>
        <time>2019-02-14T11:09:10.000Z</time>
      </trkpt>
      <trkpt lat="43.39158729650080204010009765625" lon="-5.91292013414204120635986328125">
        <ele>318.399993896484375</ele>
        <time>2019-02-14T11:09:11.000Z</time>
      </trkpt>
      <trkpt lat="43.3916202373802661895751953125" lon="-5.91299825347959995269775390625">
        <ele>318</ele>
        <time>2019-02-14T11:09:14.000Z</time>
      </trkpt>
      <trkpt lat="43.39163817465305328369140625" lon="-5.9130295179784297943115234375">
        <ele>317.79998779296875</ele>
        <time>2019-02-14T11:09:15.000Z</time>
      </trkpt>
      <trkpt lat="43.391653932631015777587890625" lon="-5.91305944137275218963623046875">
        <ele>317.600006103515625</ele>
        <time>2019-02-14T11:09:16.000Z</time>
      </trkpt>
      <trkpt lat="43.3917114324867725372314453125" lon="-5.9131438471376895904541015625">
        <ele>316.20001220703125</ele>
        <time>2019-02-14T11:09:19.000Z</time>
      </trkpt>
      <trkpt lat="43.39180874638259410858154296875" lon="-5.91336362063884735107421875">
        <ele>315.600006103515625</ele>
        <time>2019-02-14T11:09:25.000Z</time>
      </trkpt>
      <trkpt lat="43.3918569423258304595947265625" lon="-5.91345791704952716827392578125">
        <ele>315</ele>
        <time>2019-02-14T11:09:27.000Z</time>
      </trkpt>
      <trkpt lat="43.3919109217822551727294921875" lon="-5.91355363838374614715576171875">
        <ele>313.79998779296875</ele>
        <time>2019-02-14T11:09:29.000Z</time>
      </trkpt>
      <trkpt lat="43.3919598720967769622802734375" lon="-5.9136705659329891204833984375">
        <ele>313.20001220703125</ele>
        <time>2019-02-14T11:09:31.000Z</time>
      </trkpt>
      <trkpt lat="43.39198887348175048828125" lon="-5.91372043825685977935791015625">
        <ele>312.79998779296875</ele>
        <time>2019-02-14T11:09:32.000Z</time>
      </trkpt>
      <trkpt lat="43.39210445992648601531982421875" lon="-5.91387164779007434844970703125">
        <ele>311.79998779296875</ele>
        <time>2019-02-14T11:09:36.000Z</time>
      </trkpt>
      <trkpt lat="43.39212859980762004852294921875" lon="-5.9139035828411579132080078125">
        <ele>311.600006103515625</ele>
        <time>2019-02-14T11:09:37.000Z</time>
      </trkpt>
      <trkpt lat="43.392182327806949615478515625" lon="-5.91397575102746486663818359375">
        <ele>310.79998779296875</ele>
        <time>2019-02-14T11:09:39.000Z</time>
      </trkpt>
      <trkpt lat="43.3922074735164642333984375" lon="-5.91401397250592708587646484375">
        <ele>310.399993896484375</ele>
        <time>2019-02-14T11:09:40.000Z</time>
      </trkpt>
      <trkpt lat="43.39222691953182220458984375" lon="-5.91405269689857959747314453125">
        <ele>310.399993896484375</ele>
        <time>2019-02-14T11:09:41.000Z</time>
      </trkpt>
      <trkpt lat="43.39225583709776401519775390625" lon="-5.91411891393363475799560546875">
        <ele>309.20001220703125</ele>
        <time>2019-02-14T11:09:43.000Z</time>
      </trkpt>
      <trkpt lat="43.3922860957682132720947265625" lon="-5.91422553174197673797607421875">
        <ele>308.399993896484375</ele>
        <time>2019-02-14T11:09:46.000Z</time>
      </trkpt>
      <trkpt lat="43.3923001773655414581298828125" lon="-5.9143285453319549560546875">
        <ele>307.600006103515625</ele>
        <time>2019-02-14T11:09:48.000Z</time>
      </trkpt>
      <trkpt lat="43.39230738580226898193359375" lon="-5.91438478790223598480224609375">
        <ele>306.399993896484375</ele>
        <time>2019-02-14T11:09:49.000Z</time>
      </trkpt>
      <trkpt lat="43.392310403287410736083984375" lon="-5.9144443832337856292724609375">
        <ele>305.600006103515625</ele>
        <time>2019-02-14T11:09:50.000Z</time>
      </trkpt>
      <trkpt lat="43.3923088945448398590087890625" lon="-5.91450347565114498138427734375">
        <ele>304.79998779296875</ele>
        <time>2019-02-14T11:09:51.000Z</time>
      </trkpt>
      <trkpt lat="43.39229003526270389556884765625" lon="-5.91461210511624813079833984375">
        <ele>303.600006103515625</ele>
        <time>2019-02-14T11:09:53.000Z</time>
      </trkpt>
      <trkpt lat="43.39227679185569286346435546875" lon="-5.914662815630435943603515625">
        <ele>303.20001220703125</ele>
        <time>2019-02-14T11:09:54.000Z</time>
      </trkpt>
      <trkpt lat="43.3922468684613704681396484375" lon="-5.914765410125255584716796875">
        <ele>302.600006103515625</ele>
        <time>2019-02-14T11:09:56.000Z</time>
      </trkpt>
      <trkpt lat="43.3922411687672138214111328125" lon="-5.9148225747048854827880859375">
        <ele>302.399993896484375</ele>
        <time>2019-02-14T11:09:57.000Z</time>
      </trkpt>
      <trkpt lat="43.39224527589976787567138671875" lon="-5.91488049365580081939697265625">
        <ele>301.399993896484375</ele>
        <time>2019-02-14T11:09:58.000Z</time>
      </trkpt>
      <trkpt lat="43.39225952513515949249267578125" lon="-5.914938412606716156005859375">
        <ele>299.399993896484375</ele>
        <time>2019-02-14T11:09:59.000Z</time>
      </trkpt>
      <trkpt lat="43.3923035301268100738525390625" lon="-5.91505617834627628326416015625">
        <ele>297.600006103515625</ele>
        <time>2019-02-14T11:10:01.000Z</time>
      </trkpt>
      <trkpt lat="43.39234887622296810150146484375" lon="-5.915186516940593719482421875">
        <ele>296.399993896484375</ele>
        <time>2019-02-14T11:10:03.000Z</time>
      </trkpt>
      <trkpt lat="43.39236480183899402618408203125" lon="-5.91525415889918804168701171875">
        <ele>296</ele>
        <time>2019-02-14T11:10:04.000Z</time>
      </trkpt>
      <trkpt lat="43.3923950605094432830810546875" lon="-5.91536278836429119110107421875">
        <ele>294.20001220703125</ele>
        <time>2019-02-14T11:10:06.000Z</time>
      </trkpt>
      <trkpt lat="43.39240268804132938385009765625" lon="-5.91549421660602092742919921875">
        <ele>293.20001220703125</ele>
        <time>2019-02-14T11:10:08.000Z</time>
      </trkpt>
      <trkpt lat="43.39239346794784069061279296875" lon="-5.9156346134841442108154296875">
        <ele>291.600006103515625</ele>
        <time>2019-02-14T11:10:10.000Z</time>
      </trkpt>
      <trkpt lat="43.3923846669495105743408203125" lon="-5.91577819548547267913818359375">
        <ele>289.79998779296875</ele>
        <time>2019-02-14T11:10:12.000Z</time>
      </trkpt>
      <trkpt lat="43.3923776261508464813232421875" lon="-5.91592756099998950958251953125">
        <ele>289</ele>
        <time>2019-02-14T11:10:14.000Z</time>
      </trkpt>
      <trkpt lat="43.392384834587574005126953125" lon="-5.91601003892719745635986328125">
        <ele>288.399993896484375</ele>
        <time>2019-02-14T11:10:15.000Z</time>
      </trkpt>
      <trkpt lat="43.392404615879058837890625" lon="-5.9161750786006450653076171875">
        <ele>286.20001220703125</ele>
        <time>2019-02-14T11:10:17.000Z</time>
      </trkpt>
      <trkpt lat="43.39242464862763881683349609375" lon="-5.916339196264743804931640625">
        <ele>285</ele>
        <time>2019-02-14T11:10:19.000Z</time>
      </trkpt>
      <trkpt lat="43.39243437163531780242919921875" lon="-5.91642527841031551361083984375">
        <ele>284.79998779296875</ele>
        <time>2019-02-14T11:10:20.000Z</time>
      </trkpt>
      <trkpt lat="43.39245113544166088104248046875" lon="-5.9167371690273284912109375">
        <ele>284.79998779296875</ele>
        <time>2019-02-14T11:10:24.000Z</time>
      </trkpt>
      <trkpt lat="43.39243772439658641815185546875" lon="-5.9168122708797454833984375">
        <ele>284.79998779296875</ele>
        <time>2019-02-14T11:10:25.000Z</time>
      </trkpt>
      <trkpt lat="43.3923581801354885101318359375" lon="-5.91701854951679706573486328125">
        <ele>285</ele>
        <time>2019-02-14T11:10:28.000Z</time>
      </trkpt>
      <trkpt lat="43.39232205413281917572021484375" lon="-5.91708342544734477996826171875">
        <ele>284.79998779296875</ele>
        <time>2019-02-14T11:10:29.000Z</time>
      </trkpt>
      <trkpt lat="43.3922530710697174072265625" lon="-5.91719976626336574554443359375">
        <ele>285.20001220703125</ele>
        <time>2019-02-14T11:10:32.000Z</time>
      </trkpt>
      <trkpt lat="43.39220286346971988677978515625" lon="-5.9172513149678707122802734375">
        <ele>286.20001220703125</ele>
        <time>2019-02-14T11:10:34.000Z</time>
      </trkpt>
      <trkpt lat="43.39214301668107509613037109375" lon="-5.91730512678623199462890625">
        <ele>286.79998779296875</ele>
        <time>2019-02-14T11:10:36.000Z</time>
      </trkpt>
      <trkpt lat="43.39204855263233184814453125" lon="-5.9173693321645259857177734375">
        <ele>287.20001220703125</ele>
        <time>2019-02-14T11:10:39.000Z</time>
      </trkpt>
      <trkpt lat="43.39198694564402103424072265625" lon="-5.9173991717398166656494140625">
        <ele>287</ele>
        <time>2019-02-14T11:10:41.000Z</time>
      </trkpt>
      <trkpt lat="43.3918968401849269866943359375" lon="-5.9174531511962413787841796875">
        <ele>287.399993896484375</ele>
        <time>2019-02-14T11:10:45.000Z</time>
      </trkpt>
      <trkpt lat="43.3918378315865993499755859375" lon="-5.91750738210976123809814453125">
        <ele>287.399993896484375</ele>
        <time>2019-02-14T11:10:49.000Z</time>
      </trkpt>
      <trkpt lat="43.39182869531214237213134765625" lon="-5.9175391495227813720703125">
        <ele>287.399993896484375</ele>
        <time>2019-02-14T11:10:51.000Z</time>
      </trkpt>
      <trkpt lat="43.39182668365538120269775390625" lon="-5.91765113174915313720703125">
        <ele>288.20001220703125</ele>
        <time>2019-02-14T11:10:55.000Z</time>
      </trkpt>
      <trkpt lat="43.39182651601731777191162109375" lon="-5.9176821447908878326416015625">
        <ele>288.600006103515625</ele>
        <time>2019-02-14T11:10:56.000Z</time>
      </trkpt>
      <trkpt lat="43.3918319642543792724609375" lon="-5.91773503459990024566650390625">
        <ele>289.20001220703125</ele>
        <time>2019-02-14T11:10:58.000Z</time>
      </trkpt>
      <trkpt lat="43.39183338917791843414306640625" lon="-5.91776244342327117919921875">
        <ele>289.600006103515625</ele>
        <time>2019-02-14T11:10:59.000Z</time>
      </trkpt>
      <trkpt lat="43.3918378315865993499755859375" lon="-5.91781516559422016143798828125">
        <ele>290</ele>
        <time>2019-02-14T11:11:01.000Z</time>
      </trkpt>
      <trkpt lat="43.39183959178626537322998046875" lon="-5.917841903865337371826171875">
        <ele>290</ele>
        <time>2019-02-14T11:11:02.000Z</time>
      </trkpt>
      <trkpt lat="43.39183590374886989593505859375" lon="-5.9179030917584896087646484375">
        <ele>290.79998779296875</ele>
        <time>2019-02-14T11:11:04.000Z</time>
      </trkpt>
      <trkpt lat="43.3918212354183197021484375" lon="-5.9179641120135784149169921875">
        <ele>291.20001220703125</ele>
        <time>2019-02-14T11:11:06.000Z</time>
      </trkpt>
      <trkpt lat="43.39180740527808666229248046875" lon="-5.91801281087100505828857421875">
        <ele>291.79998779296875</ele>
        <time>2019-02-14T11:11:08.000Z</time>
      </trkpt>
      <trkpt lat="43.39180178940296173095703125" lon="-5.91803443618118762969970703125">
        <ele>291.79998779296875</ele>
        <time>2019-02-14T11:11:09.000Z</time>
      </trkpt>
      <trkpt lat="43.39177505113184452056884765625" lon="-5.9181292355060577392578125">
        <ele>293</ele>
        <time>2019-02-14T11:11:14.000Z</time>
      </trkpt>
      <trkpt lat="43.39177136309444904327392578125" lon="-5.9181471727788448333740234375">
        <ele>293.20001220703125</ele>
        <time>2019-02-14T11:11:15.000Z</time>
      </trkpt>
      <trkpt lat="43.39176398701965808868408203125" lon="-5.91822889633476734161376953125">
        <ele>294</ele>
        <time>2019-02-14T11:11:19.000Z</time>
      </trkpt>
      <trkpt lat="43.39174906723201274871826171875" lon="-5.9183161519467830657958984375">
        <ele>294.20001220703125</ele>
        <time>2019-02-14T11:11:22.000Z</time>
      </trkpt>
      <trkpt lat="43.39168620295822620391845703125" lon="-5.91846928931772708892822265625">
        <ele>294.399993896484375</ele>
        <time>2019-02-14T11:11:28.000Z</time>
      </trkpt>
      <trkpt lat="43.39155745692551136016845703125" lon="-5.91854539699852466583251953125">
        <ele>294.399993896484375</ele>
        <time>2019-02-14T11:11:34.000Z</time>
      </trkpt>
      <trkpt lat="43.3914331533014774322509765625" lon="-5.91856551356613636016845703125">
        <ele>294.600006103515625</ele>
        <time>2019-02-14T11:11:39.000Z</time>
      </trkpt>
      <trkpt lat="43.39124497957527637481689453125" lon="-5.9186267852783203125">
        <ele>292.600006103515625</ele>
        <time>2019-02-14T11:11:44.000Z</time>
      </trkpt>
      <trkpt lat="43.391142971813678741455078125" lon="-5.91863952577114105224609375">
        <ele>291.399993896484375</ele>
        <time>2019-02-14T11:11:47.000Z</time>
      </trkpt>
      <trkpt lat="43.39103342033922672271728515625" lon="-5.91861647553741931915283203125">
        <ele>291</ele>
        <time>2019-02-14T11:11:50.000Z</time>
      </trkpt>
      <trkpt lat="43.3909607492387294769287109375" lon="-5.91857875697314739227294921875">
        <ele>290.399993896484375</ele>
        <time>2019-02-14T11:11:52.000Z</time>
      </trkpt>
      <trkpt lat="43.39089327491819858551025390625" lon="-5.918529219925403594970703125">
        <ele>288.79998779296875</ele>
        <time>2019-02-14T11:11:54.000Z</time>
      </trkpt>
      <trkpt lat="43.3908618427813053131103515625" lon="-5.91849602758884429931640625">
        <ele>288.20001220703125</ele>
        <time>2019-02-14T11:11:55.000Z</time>
      </trkpt>
      <trkpt lat="43.39080442674458026885986328125" lon="-5.91841581277549266815185546875">
        <ele>287.20001220703125</ele>
        <time>2019-02-14T11:11:57.000Z</time>
      </trkpt>
      <trkpt lat="43.39075631462037563323974609375" lon="-5.91832864098250865936279296875">
        <ele>285</ele>
        <time>2019-02-14T11:11:59.000Z</time>
      </trkpt>
      <trkpt lat="43.39072982780635356903076171875" lon="-5.91829008422791957855224609375">
        <ele>284.399993896484375</ele>
        <time>2019-02-14T11:12:00.000Z</time>
      </trkpt>
      <trkpt lat="43.39069797657430171966552734375" lon="-5.91825119219720363616943359375">
        <ele>283.79998779296875</ele>
        <time>2019-02-14T11:12:01.000Z</time>
      </trkpt>
      <trkpt lat="43.39062161743640899658203125" lon="-5.9181558899581432342529296875">
        <ele>283.20001220703125</ele>
        <time>2019-02-14T11:12:03.000Z</time>
      </trkpt>
      <trkpt lat="43.3905785344541072845458984375" lon="-5.91809847392141819000244140625">
        <ele>282.600006103515625</ele>
        <time>2019-02-14T11:12:04.000Z</time>
      </trkpt>
      <trkpt lat="43.39053033851087093353271484375" lon="-5.91804809868335723876953125">
        <ele>281.20001220703125</ele>
        <time>2019-02-14T11:12:05.000Z</time>
      </trkpt>
      <trkpt lat="43.3904786221683025360107421875" lon="-5.91800912283360958099365234375">
        <ele>279.600006103515625</ele>
        <time>2019-02-14T11:12:06.000Z</time>
      </trkpt>
      <trkpt lat="43.39041768573224544525146484375" lon="-5.9179835580289363861083984375">
        <ele>278.79998779296875</ele>
        <time>2019-02-14T11:12:07.000Z</time>
      </trkpt>
      <trkpt lat="43.3903545700013637542724609375" lon="-5.91797609813511371612548828125">
        <ele>278.399993896484375</ele>
        <time>2019-02-14T11:12:08.000Z</time>
      </trkpt>
      <trkpt lat="43.39024501852691173553466796875" lon="-5.918000154197216033935546875">
        <ele>278.20001220703125</ele>
        <time>2019-02-14T11:12:10.000Z</time>
      </trkpt>
      <trkpt lat="43.3902026899158954620361328125" lon="-5.91802052222192287445068359375">
        <ele>278</ele>
        <time>2019-02-14T11:12:11.000Z</time>
      </trkpt>
      <trkpt lat="43.39012364856898784637451171875" lon="-5.9180499427020549774169921875">
        <ele>277.399993896484375</ele>
        <time>2019-02-14T11:12:13.000Z</time>
      </trkpt>
      <trkpt lat="43.39008844457566738128662109375" lon="-5.91805891133844852447509765625">
        <ele>277</ele>
        <time>2019-02-14T11:12:14.000Z</time>
      </trkpt>
      <trkpt lat="43.3900477923452854156494140625" lon="-5.91807701624929904937744140625">
        <ele>276.600006103515625</ele>
        <time>2019-02-14T11:12:15.000Z</time>
      </trkpt>
      <trkpt lat="43.39000470936298370361328125" lon="-5.9180948697030544281005859375">
        <ele>276.20001220703125</ele>
        <time>2019-02-14T11:12:16.000Z</time>
      </trkpt>
      <trkpt lat="43.3899649791419506072998046875" lon="-5.91810350306332111358642578125">
        <ele>275.79998779296875</ele>
        <time>2019-02-14T11:12:17.000Z</time>
      </trkpt>
      <trkpt lat="43.3899220637977123260498046875" lon="-5.91811238788068294525146484375">
        <ele>275.20001220703125</ele>
        <time>2019-02-14T11:12:18.000Z</time>
      </trkpt>
      <trkpt lat="43.3898739516735076904296875" lon="-5.9181139804422855377197265625">
        <ele>274</ele>
        <time>2019-02-14T11:12:19.000Z</time>
      </trkpt>
      <trkpt lat="43.38982768356800079345703125" lon="-5.9181149862706661224365234375">
        <ele>272.79998779296875</ele>
        <time>2019-02-14T11:12:20.000Z</time>
      </trkpt>
      <trkpt lat="43.38974763639271259307861328125" lon="-5.9181035868823528289794921875">
        <ele>271.79998779296875</ele>
        <time>2019-02-14T11:12:22.000Z</time>
      </trkpt>
      <trkpt lat="43.389677144587039947509765625" lon="-5.91808824799954891204833984375">
        <ele>270.399993896484375</ele>
        <time>2019-02-14T11:12:24.000Z</time>
      </trkpt>
      <trkpt lat="43.38956440798938274383544921875" lon="-5.91806419193744659423828125">
        <ele>269.20001220703125</ele>
        <time>2019-02-14T11:12:27.000Z</time>
      </trkpt>
      <trkpt lat="43.3894794993102550506591796875" lon="-5.91806679032742977142333984375">
        <ele>268.79998779296875</ele>
        <time>2019-02-14T11:12:29.000Z</time>
      </trkpt>
      <trkpt lat="43.38943339884281158447265625" lon="-5.918077267706394195556640625">
        <ele>268.20001220703125</ele>
        <time>2019-02-14T11:12:30.000Z</time>
      </trkpt>
      <trkpt lat="43.3893893100321292877197265625" lon="-5.918090678751468658447265625">
        <ele>267.20001220703125</ele>
        <time>2019-02-14T11:12:31.000Z</time>
      </trkpt>
      <trkpt lat="43.389347903430461883544921875" lon="-5.91810584999620914459228515625">
        <ele>266.79998779296875</ele>
        <time>2019-02-14T11:12:32.000Z</time>
      </trkpt>
      <trkpt lat="43.38931010104715824127197265625" lon="-5.9181153215467929840087890625">
        <ele>266.399993896484375</ele>
        <time>2019-02-14T11:12:33.000Z</time>
      </trkpt>
      <trkpt lat="43.3892236836254596710205078125" lon="-5.9181552194058895111083984375">
        <ele>264.79998779296875</ele>
        <time>2019-02-14T11:12:35.000Z</time>
      </trkpt>
      <trkpt lat="43.38912955485284328460693359375" lon="-5.91815681196749210357666015625">
        <ele>263.399993896484375</ele>
        <time>2019-02-14T11:12:37.000Z</time>
      </trkpt>
      <trkpt lat="43.389086388051509857177734375" lon="-5.91815480031073093414306640625">
        <ele>262.399993896484375</ele>
        <time>2019-02-14T11:12:38.000Z</time>
      </trkpt>
      <trkpt lat="43.38904540054500102996826171875" lon="-5.91814423911273479461669921875">
        <ele>260.79998779296875</ele>
        <time>2019-02-14T11:12:39.000Z</time>
      </trkpt>
      <trkpt lat="43.3890054188668727874755859375" lon="-5.91812714003026485443115234375">
        <ele>260</ele>
        <time>2019-02-14T11:12:40.000Z</time>
      </trkpt>
      <trkpt lat="43.38896476663649082183837890625" lon="-5.9181213565170764923095703125">
        <ele>259.600006103515625</ele>
        <time>2019-02-14T11:12:41.000Z</time>
      </trkpt>
      <trkpt lat="43.38884356431663036346435546875" lon="-5.91814658604562282562255859375">
        <ele>257.79998779296875</ele>
        <time>2019-02-14T11:12:44.000Z</time>
      </trkpt>
      <trkpt lat="43.38880282826721668243408203125" lon="-5.918161757290363311767578125">
        <ele>256.79998779296875</ele>
        <time>2019-02-14T11:12:45.000Z</time>
      </trkpt>
      <trkpt lat="43.38876276277005672454833984375" lon="-5.918177850544452667236328125">
        <ele>255.600006103515625</ele>
        <time>2019-02-14T11:12:46.000Z</time>
      </trkpt>
      <trkpt lat="43.3887298218905925750732421875" lon="-5.9181936085224151611328125">
        <ele>254.399993896484375</ele>
        <time>2019-02-14T11:12:47.000Z</time>
      </trkpt>
      <trkpt lat="43.3886969648301601409912109375" lon="-5.91821447946131229400634765625">
        <ele>253.600006103515625</ele>
        <time>2019-02-14T11:12:48.000Z</time>
      </trkpt>
      <trkpt lat="43.38865899480879306793212890625" lon="-5.9182346798479557037353515625">
        <ele>252.8000030517578125</ele>
        <time>2019-02-14T11:12:49.000Z</time>
      </trkpt>
      <trkpt lat="43.3886164985597133636474609375" lon="-5.9182420559227466583251953125">
        <ele>252.1999969482421875</ele>
        <time>2019-02-14T11:12:50.000Z</time>
      </trkpt>
      <trkpt lat="43.3885383792221546173095703125" lon="-5.91822914779186248779296875">
        <ele>251.600006103515625</ele>
        <time>2019-02-14T11:12:52.000Z</time>
      </trkpt>
      <trkpt lat="43.38851281441748142242431640625" lon="-5.918217413127422332763671875">
        <ele>251.600006103515625</ele>
        <time>2019-02-14T11:12:53.000Z</time>
      </trkpt>
      <trkpt lat="43.3884964697062969207763671875" lon="-5.9182075224816799163818359375">
        <ele>251.600006103515625</ele>
        <time>2019-02-14T11:12:54.000Z</time>
      </trkpt>
      <trkpt lat="43.3884684741497039794921875" lon="-5.91818413697183132171630859375">
        <ele>252.1999969482421875</ele>
        <time>2019-02-14T11:12:56.000Z</time>
      </trkpt>
      <trkpt lat="43.388454057276248931884765625" lon="-5.9181716479361057281494140625">
        <ele>252.399993896484375</ele>
        <time>2019-02-14T11:12:57.000Z</time>
      </trkpt>
      <trkpt lat="43.3884240500628948211669921875" lon="-5.9181411378085613250732421875">
        <ele>252.8000030517578125</ele>
        <time>2019-02-14T11:12:59.000Z</time>
      </trkpt>
      <trkpt lat="43.38838691823184490203857421875" lon="-5.91810836456716060638427734375">
        <ele>253.1999969482421875</ele>
        <time>2019-02-14T11:13:01.000Z</time>
      </trkpt>
      <trkpt lat="43.38837367482483386993408203125" lon="-5.91809227131307125091552734375">
        <ele>253.399993896484375</ele>
        <time>2019-02-14T11:13:02.000Z</time>
      </trkpt>
      <trkpt lat="43.38834752328693866729736328125" lon="-5.91801918111741542816162109375">
        <ele>253.600006103515625</ele>
        <time>2019-02-14T11:13:05.000Z</time>
      </trkpt>
      <trkpt lat="43.38833780027925968170166015625" lon="-5.9179795347154140472412109375">
        <ele>253.8000030517578125</ele>
        <time>2019-02-14T11:13:07.000Z</time>
      </trkpt>
      <trkpt lat="43.388329334557056427001953125" lon="-5.91796763241291046142578125">
        <ele>254</ele>
        <time>2019-02-14T11:13:08.000Z</time>
      </trkpt>
      <trkpt lat="43.38831466622650623321533203125" lon="-5.9179309196770191192626953125">
        <ele>254.600006103515625</ele>
        <time>2019-02-14T11:13:10.000Z</time>
      </trkpt>
      <trkpt lat="43.38830712251365184783935546875" lon="-5.91791692189872264862060546875">
        <ele>255</ele>
        <time>2019-02-14T11:13:11.000Z</time>
      </trkpt>
      <trkpt lat="43.3882780373096466064453125" lon="-5.91786880977451801300048828125">
        <ele>255.8000030517578125</ele>
        <time>2019-02-14T11:13:14.000Z</time>
      </trkpt>
      <trkpt lat="43.38826186023652553558349609375" lon="-5.9178333543241024017333984375">
        <ele>256.399993896484375</ele>
        <time>2019-02-14T11:13:16.000Z</time>
      </trkpt>
      <trkpt lat="43.3882538974285125732421875" lon="-5.91781650669872760772705078125">
        <ele>256.600006103515625</ele>
        <time>2019-02-14T11:13:17.000Z</time>
      </trkpt>
      <trkpt lat="43.3882299251854419708251953125" lon="-5.91775297187268733978271484375">
        <ele>257.600006103515625</ele>
        <time>2019-02-14T11:13:21.000Z</time>
      </trkpt>
      <trkpt lat="43.3882088027894496917724609375" lon="-5.91769396327435970306396484375">
        <ele>258</ele>
        <time>2019-02-14T11:13:25.000Z</time>
      </trkpt>
      <trkpt lat="43.38819363154470920562744140625" lon="-5.9176435880362987518310546875">
        <ele>258.600006103515625</ele>
        <time>2019-02-14T11:13:28.000Z</time>
      </trkpt>
      <trkpt lat="43.3881883509457111358642578125" lon="-5.91755884699523448944091796875">
        <ele>259.600006103515625</ele>
        <time>2019-02-14T11:13:33.000Z</time>
      </trkpt>
      <trkpt lat="43.3881886862218379974365234375" lon="-5.91754174791276454925537109375">
        <ele>259.79998779296875</ele>
        <time>2019-02-14T11:13:34.000Z</time>
      </trkpt>
      <trkpt lat="43.388173095881938934326171875" lon="-5.9174407459795475006103515625">
        <ele>261</ele>
        <time>2019-02-14T11:13:41.000Z</time>
      </trkpt>
      <trkpt lat="43.3881719224154949188232421875" lon="-5.91733463108539581298828125">
        <ele>261.79998779296875</ele>
        <time>2019-02-14T11:13:47.000Z</time>
      </trkpt>
      <trkpt lat="43.3881705813109874725341796875" lon="-5.91730236075818538665771484375">
        <ele>262.20001220703125</ele>
        <time>2019-02-14T11:13:50.000Z</time>
      </trkpt>
      <trkpt lat="43.388169072568416595458984375" lon="-5.9172870218753814697265625">
        <ele>262.20001220703125</ele>
        <time>2019-02-14T11:13:52.000Z</time>
      </trkpt>
      <trkpt lat="43.38811517693102359771728515625" lon="-5.917067416012287139892578125">
        <ele>262.399993896484375</ele>
        <time>2019-02-14T11:14:25.000Z</time>
      </trkpt>
      <trkpt lat="43.38810394518077373504638671875" lon="-5.91704151593148708343505859375">
        <ele>262.600006103515625</ele>
        <time>2019-02-14T11:14:26.000Z</time>
      </trkpt>
      <trkpt lat="43.38805683888494968414306640625" lon="-5.91699130833148956298828125">
        <ele>263</ele>
        <time>2019-02-14T11:14:30.000Z</time>
      </trkpt>
      <trkpt lat="43.38803999125957489013671875" lon="-5.9169877879321575164794921875">
        <ele>263.20001220703125</ele>
        <time>2019-02-14T11:14:31.000Z</time>
      </trkpt>
      <trkpt lat="43.387939743697643280029296875" lon="-5.91698594391345977783203125">
        <ele>263.79998779296875</ele>
        <time>2019-02-14T11:14:37.000Z</time>
      </trkpt>
      <trkpt lat="43.3878862671554088592529296875" lon="-5.91700161807239055633544921875">
        <ele>264.399993896484375</ele>
        <time>2019-02-14T11:14:41.000Z</time>
      </trkpt>
      <trkpt lat="43.38785885833203792572021484375" lon="-5.91702089644968509674072265625">
        <ele>264.600006103515625</ele>
        <time>2019-02-14T11:14:43.000Z</time>
      </trkpt>
      <trkpt lat="43.38783270679414272308349609375" lon="-5.917035229504108428955078125">
        <ele>265.399993896484375</ele>
        <time>2019-02-14T11:14:47.000Z</time>
      </trkpt>
      <trkpt lat="43.3875431120395660400390625" lon="-5.917188785970211029052734375">
        <ele>271.20001220703125</ele>
        <time>2019-02-14T11:15:29.000Z</time>
      </trkpt>
      <trkpt lat="43.38749818503856658935546875" lon="-5.91720856726169586181640625">
        <ele>272.20001220703125</ele>
        <time>2019-02-14T11:15:32.000Z</time>
      </trkpt>
      <trkpt lat="43.3874852769076824188232421875" lon="-5.91721393167972564697265625">
        <ele>272.399993896484375</ele>
        <time>2019-02-14T11:15:33.000Z</time>
      </trkpt>
      <trkpt lat="43.3874618075788021087646484375" lon="-5.91722222976386547088623046875">
        <ele>273</ele>
        <time>2019-02-14T11:15:35.000Z</time>
      </trkpt>
      <trkpt lat="43.38743657805025577545166015625" lon="-5.9172275103628635406494140625">
        <ele>273.399993896484375</ele>
        <time>2019-02-14T11:15:37.000Z</time>
      </trkpt>
      <trkpt lat="43.387375138700008392333984375" lon="-5.91722927056252956390380859375">
        <ele>274.20001220703125</ele>
        <time>2019-02-14T11:15:42.000Z</time>
      </trkpt>
      <trkpt lat="43.38736432604491710662841796875" lon="-5.91722910292446613311767578125">
        <ele>274.399993896484375</ele>
        <time>2019-02-14T11:15:43.000Z</time>
      </trkpt>
      <trkpt lat="43.38728503324091434478759765625" lon="-5.91721820645034313201904296875">
        <ele>275.20001220703125</ele>
        <time>2019-02-14T11:15:49.000Z</time>
      </trkpt>
      <trkpt lat="43.38725955225527286529541015625" lon="-5.91721703298389911651611328125">
        <ele>275.600006103515625</ele>
        <time>2019-02-14T11:15:51.000Z</time>
      </trkpt>
      <trkpt lat="43.38717288337647914886474609375" lon="-5.9172063879668712615966796875">
        <ele>276.399993896484375</ele>
        <time>2019-02-14T11:15:57.000Z</time>
      </trkpt>
      <trkpt lat="43.3871463127434253692626953125" lon="-5.91719926334917545318603515625">
        <ele>276.600006103515625</ele>
        <time>2019-02-14T11:15:59.000Z</time>
      </trkpt>
      <trkpt lat="43.38708152063190937042236328125" lon="-5.9171708486974239349365234375">
        <ele>277.399993896484375</ele>
        <time>2019-02-14T11:16:04.000Z</time>
      </trkpt>
      <trkpt lat="43.38700465857982635498046875" lon="-5.91712466441094875335693359375">
        <ele>277.79998779296875</ele>
        <time>2019-02-14T11:16:09.000Z</time>
      </trkpt>
      <trkpt lat="43.38698999024927616119384765625" lon="-5.9171145223081111907958984375">
        <ele>277.79998779296875</ele>
        <time>2019-02-14T11:16:10.000Z</time>
      </trkpt>
      <trkpt lat="43.3869032375514507293701171875" lon="-5.917062722146511077880859375">
        <ele>277.399993896484375</ele>
        <time>2019-02-14T11:16:15.000Z</time>
      </trkpt>
      <trkpt lat="43.3868827857077121734619140625" lon="-5.91705475933849811553955078125">
        <ele>277.20001220703125</ele>
        <time>2019-02-14T11:16:16.000Z</time>
      </trkpt>
      <trkpt lat="43.38678932748734951019287109375" lon="-5.9170241653919219970703125">
        <ele>277.20001220703125</ele>
        <time>2019-02-14T11:16:19.000Z</time>
      </trkpt>
      <trkpt lat="43.38675999082624912261962890625" lon="-5.91701117344200611114501953125">
        <ele>276.79998779296875</ele>
        <time>2019-02-14T11:16:20.000Z</time>
      </trkpt>
      <trkpt lat="43.38673518039286136627197265625" lon="-5.91699860058724880218505859375">
        <ele>276.600006103515625</ele>
        <time>2019-02-14T11:16:21.000Z</time>
      </trkpt>
      <trkpt lat="43.386630825698375701904296875" lon="-5.91697412542998790740966796875">
        <ele>275.399993896484375</ele>
        <time>2019-02-14T11:16:25.000Z</time>
      </trkpt>
      <trkpt lat="43.38657005690038204193115234375" lon="-5.91697060503065586090087890625">
        <ele>274.20001220703125</ele>
        <time>2019-02-14T11:16:28.000Z</time>
      </trkpt>
      <trkpt lat="43.3865485154092311859130859375" lon="-5.9169713594019412994384765625">
        <ele>273.600006103515625</ele>
        <time>2019-02-14T11:16:29.000Z</time>
      </trkpt>
      <trkpt lat="43.386504761874675750732421875" lon="-5.91696850955486297607421875">
        <ele>273</ele>
        <time>2019-02-14T11:16:31.000Z</time>
      </trkpt>
      <trkpt lat="43.38648037053644657135009765625" lon="-5.9169653244316577911376953125">
        <ele>272.399993896484375</ele>
        <time>2019-02-14T11:16:34.000Z</time>
      </trkpt>
      <trkpt lat="43.38639370165765285491943359375" lon="-5.916935317218303680419921875">
        <ele>271.79998779296875</ele>
        <time>2019-02-14T11:18:19.000Z</time>
      </trkpt>
      <trkpt lat="43.38635179214179515838623046875" lon="-5.916927270591259002685546875">
        <ele>271.600006103515625</ele>
        <time>2019-02-14T11:18:21.000Z</time>
      </trkpt>
      <trkpt lat="43.38633117265999317169189453125" lon="-5.91692626476287841796875">
        <ele>271.600006103515625</ele>
        <time>2019-02-14T11:18:22.000Z</time>
      </trkpt>
      <trkpt lat="43.3863094635307788848876953125" lon="-5.9169354848563671112060546875">
        <ele>271.20001220703125</ele>
        <time>2019-02-14T11:18:23.000Z</time>
      </trkpt>
      <trkpt lat="43.38626562617719173431396484375" lon="-5.91696658171713352203369140625">
        <ele>270.600006103515625</ele>
        <time>2019-02-14T11:18:25.000Z</time>
      </trkpt>
      <trkpt lat="43.38624215684831142425537109375" lon="-5.91698150150477886199951171875">
        <ele>270.20001220703125</ele>
        <time>2019-02-14T11:18:26.000Z</time>
      </trkpt>
      <trkpt lat="43.38621919043362140655517578125" lon="-5.91700262390077114105224609375">
        <ele>269.79998779296875</ele>
        <time>2019-02-14T11:18:27.000Z</time>
      </trkpt>
      <trkpt lat="43.38617627508938312530517578125" lon="-5.91705392114818096160888671875">
        <ele>268.79998779296875</ele>
        <time>2019-02-14T11:18:29.000Z</time>
      </trkpt>
      <trkpt lat="43.38606462813913822174072265625" lon="-5.91712466441094875335693359375">
        <ele>267.600006103515625</ele>
        <time>2019-02-14T11:18:33.000Z</time>
      </trkpt>
      <trkpt lat="43.3860395662486553192138671875" lon="-5.9171440266072750091552734375">
        <ele>267.20001220703125</ele>
        <time>2019-02-14T11:18:34.000Z</time>
      </trkpt>
      <trkpt lat="43.385954909026622772216796875" lon="-5.9172298572957515716552734375">
        <ele>266.79998779296875</ele>
        <time>2019-02-14T11:18:37.000Z</time>
      </trkpt>
      <trkpt lat="43.38591911830008029937744140625" lon="-5.91725475154817104339599609375">
        <ele>266.600006103515625</ele>
        <time>2019-02-14T11:18:38.000Z</time>
      </trkpt>
      <trkpt lat="43.385887183248996734619140625" lon="-5.917264558374881744384765625">
        <ele>266.20001220703125</ele>
        <time>2019-02-14T11:18:39.000Z</time>
      </trkpt>
      <trkpt lat="43.38583664037287235260009765625" lon="-5.9172534942626953125">
        <ele>265.600006103515625</ele>
        <time>2019-02-14T11:18:41.000Z</time>
      </trkpt>
      <trkpt lat="43.38581769727170467376708984375" lon="-5.917240418493747711181640625">
        <ele>265.600006103515625</ele>
        <time>2019-02-14T11:18:42.000Z</time>
      </trkpt>
      <trkpt lat="43.38580244220793247222900390625" lon="-5.91722893528640270233154296875">
        <ele>265.79998779296875</ele>
        <time>2019-02-14T11:18:43.000Z</time>
      </trkpt>
      <trkpt lat="43.3857700042426586151123046875" lon="-5.917216278612613677978515625">
        <ele>266.20001220703125</ele>
        <time>2019-02-14T11:18:45.000Z</time>
      </trkpt>
      <trkpt lat="43.38573463261127471923828125" lon="-5.91720915399491786956787109375">
        <ele>266.399993896484375</ele>
        <time>2019-02-14T11:18:47.000Z</time>
      </trkpt>
      <trkpt lat="43.38571988046169281005859375" lon="-5.91720278374850749969482421875">
        <ele>266.79998779296875</ele>
        <time>2019-02-14T11:18:48.000Z</time>
      </trkpt>
      <trkpt lat="43.38570336811244487762451171875" lon="-5.917194150388240814208984375">
        <ele>267</ele>
        <time>2019-02-14T11:18:49.000Z</time>
      </trkpt>
      <trkpt lat="43.38565391488373279571533203125" lon="-5.9171624667942523956298828125">
        <ele>267.20001220703125</ele>
        <time>2019-02-14T11:18:52.000Z</time>
      </trkpt>
      <trkpt lat="43.38560747914016246795654296875" lon="-5.917100273072719573974609375">
        <ele>267.399993896484375</ele>
        <time>2019-02-14T11:18:56.000Z</time>
      </trkpt>
      <trkpt lat="43.38555098511278629302978515625" lon="-5.916966162621974945068359375">
        <ele>267.20001220703125</ele>
        <time>2019-02-14T11:19:00.000Z</time>
      </trkpt>
      <trkpt lat="43.3855165354907512664794921875" lon="-5.91684655286371707916259765625">
        <ele>265.600006103515625</ele>
        <time>2019-02-14T11:19:02.000Z</time>
      </trkpt>
      <trkpt lat="43.385504968464374542236328125" lon="-5.91673515737056732177734375">
        <ele>265</ele>
        <time>2019-02-14T11:19:04.000Z</time>
      </trkpt>
      <trkpt lat="43.38550656102597713470458984375" lon="-5.9166486561298370361328125">
        <ele>265.600006103515625</ele>
        <time>2019-02-14T11:19:07.000Z</time>
      </trkpt>
      <trkpt lat="43.38550840504467487335205078125" lon="-5.91662325896322727203369140625">
        <ele>266</ele>
        <time>2019-02-14T11:19:08.000Z</time>
      </trkpt>
      <trkpt lat="43.38551326654851436614990234375" lon="-5.91657849960029125213623046875">
        <ele>266.399993896484375</ele>
        <time>2019-02-14T11:19:10.000Z</time>
      </trkpt>
      <trkpt lat="43.385511338710784912109375" lon="-5.9165056608617305755615234375">
        <ele>267.20001220703125</ele>
        <time>2019-02-14T11:19:13.000Z</time>
      </trkpt>
      <trkpt lat="43.3855017833411693572998046875" lon="-5.91646366752684116363525390625">
        <ele>267.79998779296875</ele>
        <time>2019-02-14T11:19:15.000Z</time>
      </trkpt>
      <trkpt lat="43.3854816667735576629638671875" lon="-5.91634095646440982818603515625">
        <ele>268</ele>
        <time>2019-02-14T11:19:20.000Z</time>
      </trkpt>
      <trkpt lat="43.38546582497656345367431640625" lon="-5.91621690429747104644775390625">
        <ele>268</ele>
        <time>2019-02-14T11:19:25.000Z</time>
      </trkpt>
      <trkpt lat="43.3854595385491847991943359375" lon="-5.91619075275957584381103515625">
        <ele>268</ele>
        <time>2019-02-14T11:19:26.000Z</time>
      </trkpt>
      <trkpt lat="43.38543866761028766632080078125" lon="-5.91610492207109928131103515625">
        <ele>268.20001220703125</ele>
        <time>2019-02-14T11:19:30.000Z</time>
      </trkpt>
      <trkpt lat="43.38543028570711612701416015625" lon="-5.91608229093253612518310546875">
        <ele>268.20001220703125</ele>
        <time>2019-02-14T11:19:31.000Z</time>
      </trkpt>
      <trkpt lat="43.38542693294584751129150390625" lon="-5.91604993678629398345947265625">
        <ele>268.20001220703125</ele>
        <time>2019-02-14T11:19:34.000Z</time>
      </trkpt>
      <trkpt lat="43.38539357297122478485107421875" lon="-5.91599126346409320831298828125">
        <ele>268.399993896484375</ele>
        <time>2019-02-14T11:19:38.000Z</time>
      </trkpt>
      <trkpt lat="43.38536851108074188232421875" lon="-5.9159048460423946380615234375">
        <ele>268</ele>
        <time>2019-02-14T11:19:41.000Z</time>
      </trkpt>
      <trkpt lat="43.38530723936855792999267578125" lon="-5.91570384800434112548828125">
        <ele>266.20001220703125</ele>
        <time>2019-02-14T11:19:46.000Z</time>
      </trkpt>
      <trkpt lat="43.385291062295436859130859375" lon="-5.91556294821202754974365234375">
        <ele>265</ele>
        <time>2019-02-14T11:19:49.000Z</time>
      </trkpt>
      <trkpt lat="43.385292403399944305419921875" lon="-5.915472842752933502197265625">
        <ele>264.79998779296875</ele>
        <time>2019-02-14T11:19:51.000Z</time>
      </trkpt>
      <trkpt lat="43.38528745807707309722900390625" lon="-5.91528835706412792205810546875">
        <ele>264</ele>
        <time>2019-02-14T11:19:54.000Z</time>
      </trkpt>
      <trkpt lat="43.38529148139059543609619140625" lon="-5.91522373259067535400390625">
        <ele>263.399993896484375</ele>
        <time>2019-02-14T11:19:55.000Z</time>
      </trkpt>
      <trkpt lat="43.38529500178992748260498046875" lon="-5.9151613712310791015625">
        <ele>263</ele>
        <time>2019-02-14T11:19:56.000Z</time>
      </trkpt>
      <trkpt lat="43.38534914888441562652587890625" lon="-5.91484596021473407745361328125">
        <ele>263.20001220703125</ele>
        <time>2019-02-14T11:20:02.000Z</time>
      </trkpt>
      <trkpt lat="43.38543011806905269622802734375" lon="-5.9146750532090663909912109375">
        <ele>263.600006103515625</ele>
        <time>2019-02-14T11:20:07.000Z</time>
      </trkpt>
      <trkpt lat="43.38545694015920162200927734375" lon="-5.914611853659152984619140625">
        <ele>263.79998779296875</ele>
        <time>2019-02-14T11:20:09.000Z</time>
      </trkpt>
      <trkpt lat="43.385500609874725341796875" lon="-5.9144916571676731109619140625">
        <ele>264.399993896484375</ele>
        <time>2019-02-14T11:20:13.000Z</time>
      </trkpt>
      <trkpt lat="43.3855363167822360992431640625" lon="-5.91441772878170013427734375">
        <ele>265.20001220703125</ele>
        <time>2019-02-14T11:20:16.000Z</time>
      </trkpt>
      <trkpt lat="43.3855502307415008544921875" lon="-5.914393924176692962646484375">
        <ele>265.600006103515625</ele>
        <time>2019-02-14T11:20:17.000Z</time>
      </trkpt>
      <trkpt lat="43.3856251649558544158935546875" lon="-5.91428236104547977447509765625">
        <ele>266.79998779296875</ele>
        <time>2019-02-14T11:20:22.000Z</time>
      </trkpt>
      <trkpt lat="43.3856519870460033416748046875" lon="-5.9142400324344635009765625">
        <ele>267.20001220703125</ele>
        <time>2019-02-14T11:20:24.000Z</time>
      </trkpt>
      <trkpt lat="43.3856888674199581146240234375" lon="-5.9141702950000762939453125">
        <ele>268</ele>
        <time>2019-02-14T11:20:27.000Z</time>
      </trkpt>
      <trkpt lat="43.385731615126132965087890625" lon="-5.914029814302921295166015625">
        <ele>268.20001220703125</ele>
        <time>2019-02-14T11:20:32.000Z</time>
      </trkpt>
      <trkpt lat="43.3857401646673679351806640625" lon="-5.9138097055256366729736328125">
        <ele>269</ele>
        <time>2019-02-14T11:20:39.000Z</time>
      </trkpt>
      <trkpt lat="43.38574024848639965057373046875" lon="-5.91355598531663417816162109375">
        <ele>268.20001220703125</ele>
        <time>2019-02-14T11:20:47.000Z</time>
      </trkpt>
      <trkpt lat="43.38573153130710124969482421875" lon="-5.91352312825620174407958984375">
        <ele>268.20001220703125</ele>
        <time>2019-02-14T11:20:49.000Z</time>
      </trkpt>
      <trkpt lat="43.38572666980326175689697265625" lon="-5.91351625509560108184814453125">
        <ele>268</ele>
        <time>2019-02-14T11:20:51.000Z</time>
      </trkpt>
      <trkpt lat="43.3856620453298091888427734375" lon="-5.913481302559375762939453125">
        <ele>267.79998779296875</ele>
        <time>2019-02-14T11:21:09.000Z</time>
      </trkpt>
      <trkpt lat="43.385627679526805877685546875" lon="-5.91346981935203075408935546875">
        <ele>267.600006103515625</ele>
        <time>2019-02-14T11:21:11.000Z</time>
      </trkpt>
      <trkpt lat="43.385607898235321044921875" lon="-5.91346546076238155364990234375">
        <ele>267.600006103515625</ele>
        <time>2019-02-14T11:21:12.000Z</time>
      </trkpt>
      <trkpt lat="43.38556699454784393310546875" lon="-5.913459174335002899169921875">
        <ele>267</ele>
        <time>2019-02-14T11:21:14.000Z</time>
      </trkpt>
      <trkpt lat="43.38546733371913433074951171875" lon="-5.913466550409793853759765625">
        <ele>266.399993896484375</ele>
        <time>2019-02-14T11:21:18.000Z</time>
      </trkpt>
      <trkpt lat="43.38543849997222423553466796875" lon="-5.91346646659076213836669921875">
        <ele>266.20001220703125</ele>
        <time>2019-02-14T11:21:19.000Z</time>
      </trkpt>
      <trkpt lat="43.38534965179860591888427734375" lon="-5.91345523484051227569580078125">
        <ele>266</ele>
        <time>2019-02-14T11:21:22.000Z</time>
      </trkpt>
      <trkpt lat="43.38529902510344982147216796875" lon="-5.9134271554648876190185546875">
        <ele>265.79998779296875</ele>
        <time>2019-02-14T11:21:24.000Z</time>
      </trkpt>
      <trkpt lat="43.385264575481414794921875" lon="-5.9133924543857574462890625">
        <ele>265.79998779296875</ele>
        <time>2019-02-14T11:21:26.000Z</time>
      </trkpt>
      <trkpt lat="43.38521671481430530548095703125" lon="-5.9133423306047916412353515625">
        <ele>265.399993896484375</ele>
        <time>2019-02-14T11:21:29.000Z</time>
      </trkpt>
      <trkpt lat="43.3851939998567104339599609375" lon="-5.913312323391437530517578125">
        <ele>265.20001220703125</ele>
        <time>2019-02-14T11:21:30.000Z</time>
      </trkpt>
      <trkpt lat="43.38516734540462493896484375" lon="-5.91323755681514739990234375">
        <ele>264.399993896484375</ele>
        <time>2019-02-14T11:21:32.000Z</time>
      </trkpt>
      <trkpt lat="43.385162651538848876953125" lon="-5.913195647299289703369140625">
        <ele>264.20001220703125</ele>
        <time>2019-02-14T11:21:33.000Z</time>
      </trkpt>
      <trkpt lat="43.3851611427962779998779296875" lon="-5.913154073059558868408203125">
        <ele>263.600006103515625</ele>
        <time>2019-02-14T11:21:34.000Z</time>
      </trkpt>
      <trkpt lat="43.3851554431021213531494140625" lon="-5.91313085518777370452880859375">
        <ele>262.79998779296875</ele>
        <time>2019-02-14T11:21:35.000Z</time>
      </trkpt>
      <trkpt lat="43.38515317998826503753662109375" lon="-5.9131073020398616790771484375">
        <ele>261.79998779296875</ele>
        <time>2019-02-14T11:21:36.000Z</time>
      </trkpt>
      <trkpt lat="43.385105989873409271240234375" lon="-5.9130410850048065185546875">
        <ele>260.79998779296875</ele>
        <time>2019-02-14T11:21:40.000Z</time>
      </trkpt>
      <trkpt lat="43.3850927464663982391357421875" lon="-5.913036055862903594970703125">
        <ele>260.79998779296875</ele>
        <time>2019-02-14T11:21:41.000Z</time>
      </trkpt>
      <trkpt lat="43.38507950305938720703125" lon="-5.9130301885306835174560546875">
        <ele>261</ele>
        <time>2019-02-14T11:21:42.000Z</time>
      </trkpt>
      <trkpt lat="43.3850692771375179290771484375" lon="-5.9130281768739223480224609375">
        <ele>261</ele>
        <time>2019-02-14T11:21:43.000Z</time>
      </trkpt>
      <trkpt lat="43.38505871593952178955078125" lon="-5.913034379482269287109375">
        <ele>261</ele>
        <time>2019-02-14T11:21:44.000Z</time>
      </trkpt>
      <trkpt lat="43.385053686797618865966796875" lon="-5.91304116882383823394775390625">
        <ele>261.20001220703125</ele>
        <time>2019-02-14T11:21:45.000Z</time>
      </trkpt>
      <trkpt lat="43.385042957961559295654296875" lon="-5.9130469523370265960693359375">
        <ele>261.20001220703125</ele>
        <time>2019-02-14T11:21:46.000Z</time>
      </trkpt>
      <trkpt lat="43.38502493686974048614501953125" lon="-5.91306044720113277435302734375">
        <ele>261.79998779296875</ele>
        <time>2019-02-14T11:21:48.000Z</time>
      </trkpt>
      <trkpt lat="43.38501404039561748504638671875" lon="-5.91306748799979686737060546875">
        <ele>262.20001220703125</ele>
        <time>2019-02-14T11:21:49.000Z</time>
      </trkpt>
      <trkpt lat="43.38500498794019222259521484375" lon="-5.91307335533201694488525390625">
        <ele>262.79998779296875</ele>
        <time>2019-02-14T11:21:50.000Z</time>
      </trkpt>
      <trkpt lat="43.38499627076089382171630859375" lon="-5.91307285241782665252685546875">
        <ele>263.399993896484375</ele>
        <time>2019-02-14T11:21:51.000Z</time>
      </trkpt>
      <trkpt lat="43.38498629629611968994140625" lon="-5.91307804919779300689697265625">
        <ele>263.79998779296875</ele>
        <time>2019-02-14T11:21:52.000Z</time>
      </trkpt>
      <trkpt lat="43.3849576301872730255126953125" lon="-5.9130851738154888153076171875">
        <ele>264.20001220703125</ele>
        <time>2019-02-14T11:21:54.000Z</time>
      </trkpt>
      <trkpt lat="43.38492921553552150726318359375" lon="-5.91308777220547199249267578125">
        <ele>264.20001220703125</ele>
        <time>2019-02-14T11:21:56.000Z</time>
      </trkpt>
      <trkpt lat="43.38491345755755901336669921875" lon="-5.913088023662567138671875">
        <ele>264.600006103515625</ele>
        <time>2019-02-14T11:21:57.000Z</time>
      </trkpt>
      <trkpt lat="43.3848989568650722503662109375" lon="-5.91308609582483768463134765625">
        <ele>265</ele>
        <time>2019-02-14T11:21:58.000Z</time>
      </trkpt>
      <trkpt lat="43.38484606705605983734130859375" lon="-5.91307620517909526824951171875">
        <ele>265.79998779296875</ele>
        <time>2019-02-14T11:22:02.000Z</time>
      </trkpt>
      <trkpt lat="43.3848345838487148284912109375" lon="-5.91307067312300205230712890625">
        <ele>266</ele>
        <time>2019-02-14T11:22:03.000Z</time>
      </trkpt>
      <trkpt lat="43.384808935225009918212890625" lon="-5.91305692680180072784423828125">
        <ele>266.399993896484375</ele>
        <time>2019-02-14T11:22:05.000Z</time>
      </trkpt>
      <trkpt lat="43.3847574703395366668701171875" lon="-5.91304234229028224945068359375">
        <ele>266.399993896484375</ele>
        <time>2019-02-14T11:22:09.000Z</time>
      </trkpt>
      <trkpt lat="43.384687900543212890625" lon="-5.9129901230335235595703125">
        <ele>266.600006103515625</ele>
        <time>2019-02-14T11:22:14.000Z</time>
      </trkpt>
      <trkpt lat="43.3846015669405460357666015625" lon="-5.912918709218502044677734375">
        <ele>266.600006103515625</ele>
        <time>2019-02-14T11:22:20.000Z</time>
      </trkpt>
      <trkpt lat="43.38453828357160091400146484375" lon="-5.91286146081984043121337890625">
        <ele>267</ele>
        <time>2019-02-14T11:22:24.000Z</time>
      </trkpt>
      <trkpt lat="43.38447868824005126953125" lon="-5.91284385882318019866943359375">
        <ele>267.399993896484375</ele>
        <time>2019-02-14T11:22:28.000Z</time>
      </trkpt>
      <trkpt lat="43.3843888342380523681640625" lon="-5.9128280170261859893798828125">
        <ele>268.20001220703125</ele>
        <time>2019-02-14T11:22:32.000Z</time>
      </trkpt>
      <trkpt lat="43.38434902019798755645751953125" lon="-5.9128263406455516815185546875">
        <ele>268.600006103515625</ele>
        <time>2019-02-14T11:22:34.000Z</time>
      </trkpt>
      <trkpt lat="43.38431884534657001495361328125" lon="-5.9128119237720966339111328125">
        <ele>269.20001220703125</ele>
        <time>2019-02-14T11:22:36.000Z</time>
      </trkpt>
      <trkpt lat="43.38428129442036151885986328125" lon="-5.91280513443052768707275390625">
        <ele>269.399993896484375</ele>
        <time>2019-02-14T11:22:38.000Z</time>
      </trkpt>
      <trkpt lat="43.38425430469214916229248046875" lon="-5.91281200759112834930419921875">
        <ele>269.399993896484375</ele>
        <time>2019-02-14T11:22:39.000Z</time>
      </trkpt>
      <trkpt lat="43.3841365389525890350341796875" lon="-5.9127673320472240447998046875">
        <ele>269.79998779296875</ele>
        <time>2019-02-14T11:22:45.000Z</time>
      </trkpt>
      <trkpt lat="43.38410317897796630859375" lon="-5.91273690573871135711669921875">
        <ele>270</ele>
        <time>2019-02-14T11:22:47.000Z</time>
      </trkpt>
      <trkpt lat="43.3840671367943286895751953125" lon="-5.91269181109964847564697265625">
        <ele>270.20001220703125</ele>
        <time>2019-02-14T11:22:50.000Z</time>
      </trkpt>
      <trkpt lat="43.3840543963015079498291015625" lon="-5.91267655603587627410888671875">
        <ele>270.399993896484375</ele>
        <time>2019-02-14T11:22:51.000Z</time>
      </trkpt>
      <trkpt lat="43.38401424698531627655029296875" lon="-5.9126231633126735687255859375">
        <ele>271.20001220703125</ele>
        <time>2019-02-14T11:22:54.000Z</time>
      </trkpt>
      <trkpt lat="43.38395725004374980926513671875" lon="-5.9125711955130100250244140625">
        <ele>271.600006103515625</ele>
        <time>2019-02-14T11:22:58.000Z</time>
      </trkpt>
      <trkpt lat="43.38389304466545581817626953125" lon="-5.9125155396759510040283203125">
        <ele>271.79998779296875</ele>
        <time>2019-02-14T11:23:02.000Z</time>
      </trkpt>
      <trkpt lat="43.383856751024723052978515625" lon="-5.912494920194149017333984375">
        <ele>272.399993896484375</ele>
        <time>2019-02-14T11:23:04.000Z</time>
      </trkpt>
      <trkpt lat="43.3838247321546077728271484375" lon="-5.912479497492313385009765625">
        <ele>273.79998779296875</ele>
        <time>2019-02-14T11:23:06.000Z</time>
      </trkpt>
      <trkpt lat="43.38378977961838245391845703125" lon="-5.9124679304659366607666015625">
        <ele>275</ele>
        <time>2019-02-14T11:23:08.000Z</time>
      </trkpt>
      <trkpt lat="43.38377066887915134429931640625" lon="-5.912464745342731475830078125">
        <ele>275.20001220703125</ele>
        <time>2019-02-14T11:23:09.000Z</time>
      </trkpt>
      <trkpt lat="43.38375105522572994232177734375" lon="-5.91246063821017742156982421875">
        <ele>275.399993896484375</ele>
        <time>2019-02-14T11:23:10.000Z</time>
      </trkpt>
      <trkpt lat="43.3836959861218929290771484375" lon="-5.91245309449732303619384765625">
        <ele>276.20001220703125</ele>
        <time>2019-02-14T11:23:14.000Z</time>
      </trkpt>
      <trkpt lat="43.383677713572978973388671875" lon="-5.912445299327373504638671875">
        <ele>277.20001220703125</ele>
        <time>2019-02-14T11:23:16.000Z</time>
      </trkpt>
      <trkpt lat="43.38366522453725337982177734375" lon="-5.91243825852870941162109375">
        <ele>277.600006103515625</ele>
        <time>2019-02-14T11:23:17.000Z</time>
      </trkpt>
      <trkpt lat="43.38359213434159755706787109375" lon="-5.91241437010467052459716796875">
        <ele>278.600006103515625</ele>
        <time>2019-02-14T11:23:23.000Z</time>
      </trkpt>
      <trkpt lat="43.38351770304143428802490234375" lon="-5.91238989494740962982177734375">
        <ele>279.79998779296875</ele>
        <time>2019-02-14T11:23:29.000Z</time>
      </trkpt>
      <trkpt lat="43.38349943049252033233642578125" lon="-5.912384279072284698486328125">
        <ele>280</ele>
        <time>2019-02-14T11:23:30.000Z</time>
      </trkpt>
      <trkpt lat="43.3834592811763286590576171875" lon="-5.9123737178742885589599609375">
        <ele>281</ele>
        <time>2019-02-14T11:23:33.000Z</time>
      </trkpt>
      <trkpt lat="43.3834307827055454254150390625" lon="-5.91236659325659275054931640625">
        <ele>281.399993896484375</ele>
        <time>2019-02-14T11:23:36.000Z</time>
      </trkpt>
      <trkpt lat="43.38339683599770069122314453125" lon="-5.91235334984958171844482421875">
        <ele>282.20001220703125</ele>
        <time>2019-02-14T11:23:39.000Z</time>
      </trkpt>
      <trkpt lat="43.38334637694060802459716796875" lon="-5.9123168885707855224609375">
        <ele>283.20001220703125</ele>
        <time>2019-02-14T11:23:44.000Z</time>
      </trkpt>
      <trkpt lat="43.383261971175670623779296875" lon="-5.912295095622539520263671875">
        <ele>283.600006103515625</ele>
        <time>2019-02-14T11:23:50.000Z</time>
      </trkpt>
      <trkpt lat="43.383155353367328643798828125" lon="-5.9122711233794689178466796875">
        <ele>282.79998779296875</ele>
        <time>2019-02-14T11:23:55.000Z</time>
      </trkpt>
      <trkpt lat="43.38312040083110332489013671875" lon="-5.91225880198180675506591796875">
        <ele>282.79998779296875</ele>
        <time>2019-02-14T11:23:56.000Z</time>
      </trkpt>
      <trkpt lat="43.38301026262342929840087890625" lon="-5.91219493187963962554931640625">
        <ele>281.600006103515625</ele>
        <time>2019-02-14T11:23:59.000Z</time>
      </trkpt>
      <trkpt lat="43.3829788304865360260009765625" lon="-5.9121651761233806610107421875">
        <ele>281.20001220703125</ele>
        <time>2019-02-14T11:24:00.000Z</time>
      </trkpt>
      <trkpt lat="43.38294538669288158416748046875" lon="-5.9121376834809780120849609375">
        <ele>280.600006103515625</ele>
        <time>2019-02-14T11:24:01.000Z</time>
      </trkpt>
      <trkpt lat="43.3828775770962238311767578125" lon="-5.912071131169795989990234375">
        <ele>279.20001220703125</ele>
        <time>2019-02-14T11:24:04.000Z</time>
      </trkpt>
      <trkpt lat="43.38286693207919597625732421875" lon="-5.91205470263957977294921875">
        <ele>279</ele>
        <time>2019-02-14T11:24:05.000Z</time>
      </trkpt>
      <trkpt lat="43.3828574605286121368408203125" lon="-5.91204556636512279510498046875">
        <ele>279</ele>
        <time>2019-02-14T11:24:07.000Z</time>
      </trkpt>
      <trkpt lat="43.3828098513185977935791015625" lon="-5.9119801037013530731201171875">
        <ele>278.600006103515625</ele>
        <time>2019-02-14T11:25:23.000Z</time>
      </trkpt>
      <trkpt lat="43.38279685936868190765380859375" lon="-5.9119680337607860565185546875">
        <ele>278.399993896484375</ele>
        <time>2019-02-14T11:25:24.000Z</time>
      </trkpt>
      <trkpt lat="43.38278277777135372161865234375" lon="-5.911955125629901885986328125">
        <ele>277.79998779296875</ele>
        <time>2019-02-14T11:25:25.000Z</time>
      </trkpt>
      <trkpt lat="43.3827652595937252044677734375" lon="-5.9119388647377490997314453125">
        <ele>277.600006103515625</ele>
        <time>2019-02-14T11:25:26.000Z</time>
      </trkpt>
      <trkpt lat="43.38272963650524616241455078125" lon="-5.91191631741821765899658203125">
        <ele>277</ele>
        <time>2019-02-14T11:25:28.000Z</time>
      </trkpt>
      <trkpt lat="43.38271404616534709930419921875" lon="-5.91190139763057231903076171875">
        <ele>276.600006103515625</ele>
        <time>2019-02-14T11:25:29.000Z</time>
      </trkpt>
      <trkpt lat="43.3826415427029132843017578125" lon="-5.911847837269306182861328125">
        <ele>275.79998779296875</ele>
        <time>2019-02-14T11:25:32.000Z</time>
      </trkpt>
      <trkpt lat="43.38261849246919155120849609375" lon="-5.9118282236158847808837890625">
        <ele>274.79998779296875</ele>
        <time>2019-02-14T11:25:33.000Z</time>
      </trkpt>
      <trkpt lat="43.3825557120144367218017578125" lon="-5.91178379952907562255859375">
        <ele>273</ele>
        <time>2019-02-14T11:25:35.000Z</time>
      </trkpt>
      <trkpt lat="43.38248538784682750701904296875" lon="-5.91171951033174991607666015625">
        <ele>271.20001220703125</ele>
        <time>2019-02-14T11:25:37.000Z</time>
      </trkpt>
      <trkpt lat="43.38244398124516010284423828125" lon="-5.91167978011071681976318359375">
        <ele>270.600006103515625</ele>
        <time>2019-02-14T11:25:38.000Z</time>
      </trkpt>
      <trkpt lat="43.38235345669090747833251953125" lon="-5.91157148592174053192138671875">
        <ele>270.399993896484375</ele>
        <time>2019-02-14T11:25:40.000Z</time>
      </trkpt>
      <trkpt lat="43.382311128079891204833984375" lon="-5.9115133993327617645263671875">
        <ele>270</ele>
        <time>2019-02-14T11:25:41.000Z</time>
      </trkpt>
      <trkpt lat="43.38223300874233245849609375" lon="-5.9114010818302631378173828125">
        <ele>269.20001220703125</ele>
        <time>2019-02-14T11:25:43.000Z</time>
      </trkpt>
      <trkpt lat="43.3821956254541873931884765625" lon="-5.911344587802886962890625">
        <ele>268.600006103515625</ele>
        <time>2019-02-14T11:25:44.000Z</time>
      </trkpt>
      <trkpt lat="43.38212412782013416290283203125" lon="-5.91122346930205821990966796875">
        <ele>267.79998779296875</ele>
        <time>2019-02-14T11:25:46.000Z</time>
      </trkpt>
      <trkpt lat="43.3820236288011074066162109375" lon="-5.91104376129806041717529296875">
        <ele>267.600006103515625</ele>
        <time>2019-02-14T11:25:49.000Z</time>
      </trkpt>
      <trkpt lat="43.38196151889860630035400390625" lon="-5.9109477885067462921142578125">
        <ele>266.600006103515625</ele>
        <time>2019-02-14T11:25:51.000Z</time>
      </trkpt>
      <trkpt lat="43.38193905539810657501220703125" lon="-5.9108980000019073486328125">
        <ele>266</ele>
        <time>2019-02-14T11:25:52.000Z</time>
      </trkpt>
      <trkpt lat="43.38189010508358478546142578125" lon="-5.9107156097888946533203125">
        <ele>265</ele>
        <time>2019-02-14T11:25:55.000Z</time>
      </trkpt>
      <trkpt lat="43.381855823099613189697265625" lon="-5.91057085432112216949462890625">
        <ele>263.399993896484375</ele>
        <time>2019-02-14T11:25:57.000Z</time>
      </trkpt>
      <trkpt lat="43.38179706595838069915771484375" lon="-5.9103105962276458740234375">
        <ele>262</ele>
        <time>2019-02-14T11:26:01.000Z</time>
      </trkpt>
      <trkpt lat="43.38178985752165317535400390625" lon="-5.91025225818157196044921875">
        <ele>261.600006103515625</ele>
        <time>2019-02-14T11:26:02.000Z</time>
      </trkpt>
      <trkpt lat="43.38173755444586277008056640625" lon="-5.90993634425103664398193359375">
        <ele>261.600006103515625</ele>
        <time>2019-02-14T11:26:07.000Z</time>
      </trkpt>
      <trkpt lat="43.3817148394882678985595703125" lon="-5.90986895374953746795654296875">
        <ele>260.79998779296875</ele>
        <time>2019-02-14T11:26:08.000Z</time>
      </trkpt>
      <trkpt lat="43.38163076899945735931396484375" lon="-5.9096898324787616729736328125">
        <ele>259.600006103515625</ele>
        <time>2019-02-14T11:26:11.000Z</time>
      </trkpt>
      <trkpt lat="43.381603024899959564208984375" lon="-5.909635685384273529052734375">
        <ele>259</ele>
        <time>2019-02-14T11:26:12.000Z</time>
      </trkpt>
      <trkpt lat="43.3815800584852695465087890625" lon="-5.9095721505582332611083984375">
        <ele>257.399993896484375</ele>
        <time>2019-02-14T11:26:13.000Z</time>
      </trkpt>
      <trkpt lat="43.38156337849795818328857421875" lon="-5.90949587523937225341796875">
        <ele>256.399993896484375</ele>
        <time>2019-02-14T11:26:14.000Z</time>
      </trkpt>
      <trkpt lat="43.38155097328126430511474609375" lon="-5.909407027065753936767578125">
        <ele>255.600006103515625</ele>
        <time>2019-02-14T11:26:15.000Z</time>
      </trkpt>
      <trkpt lat="43.38154342956840991973876953125" lon="-5.909315161406993865966796875">
        <ele>255</ele>
        <time>2019-02-14T11:26:16.000Z</time>
      </trkpt>
      <trkpt lat="43.3815173618495464324951171875" lon="-5.90913268737494945526123046875">
        <ele>254</ele>
        <time>2019-02-14T11:26:18.000Z</time>
      </trkpt>
      <trkpt lat="43.38150923140347003936767578125" lon="-5.9090580046176910400390625">
        <ele>252.8000030517578125</ele>
        <time>2019-02-14T11:26:19.000Z</time>
      </trkpt>
      <trkpt lat="43.38151258416473865509033203125" lon="-5.908913500607013702392578125">
        <ele>252.8000030517578125</ele>
        <time>2019-02-14T11:26:21.000Z</time>
      </trkpt>
      <trkpt lat="43.3815532363951206207275390625" lon="-5.908764302730560302734375">
        <ele>254.1999969482421875</ele>
        <time>2019-02-14T11:26:24.000Z</time>
      </trkpt>
      <trkpt lat="43.38156186975538730621337890625" lon="-5.90873471461236476898193359375">
        <ele>254.399993896484375</ele>
        <time>2019-02-14T11:26:25.000Z</time>
      </trkpt>
      <trkpt lat="43.38156539015471935272216796875" lon="-5.90870873071253299713134765625">
        <ele>255</ele>
        <time>2019-02-14T11:26:26.000Z</time>
      </trkpt>
      <trkpt lat="43.38156891055405139923095703125" lon="-5.90867838822305202484130859375">
        <ele>255.399993896484375</ele>
        <time>2019-02-14T11:26:27.000Z</time>
      </trkpt>
      <trkpt lat="43.38156723417341709136962890625" lon="-5.90861217118799686431884765625">
        <ele>255.600006103515625</ele>
        <time>2019-02-14T11:26:29.000Z</time>
      </trkpt>
      <trkpt lat="43.38154175318777561187744140625" lon="-5.9085458703339099884033203125">
        <ele>254.8000030517578125</ele>
        <time>2019-02-14T11:26:31.000Z</time>
      </trkpt>
      <trkpt lat="43.38147771544754505157470703125" lon="-5.9084556810557842254638671875">
        <ele>254.399993896484375</ele>
        <time>2019-02-14T11:26:34.000Z</time>
      </trkpt>
      <trkpt lat="43.38146765716373920440673828125" lon="-5.90843346901237964630126953125">
        <ele>254.399993896484375</ele>
        <time>2019-02-14T11:26:35.000Z</time>
      </trkpt>
      <trkpt lat="43.3814677409827709197998046875" lon="-5.90842626057565212249755859375">
        <ele>254.399993896484375</ele>
        <time>2019-02-14T11:26:36.000Z</time>
      </trkpt>
      <trkpt lat="43.38146765716373920440673828125" lon="-5.9084231592714786529541015625">
        <ele>254.8000030517578125</ele>
        <time>2019-02-14T11:26:37.000Z</time>
      </trkpt>
      <trkpt lat="43.38136506266891956329345703125" lon="-5.90837663970887660980224609375">
        <ele>255.1999969482421875</ele>
        <time>2019-02-14T11:30:03.000Z</time>
      </trkpt>
      <trkpt lat="43.38135399855673313140869140625" lon="-5.908350907266139984130859375">
        <ele>255.600006103515625</ele>
        <time>2019-02-14T11:30:05.000Z</time>
      </trkpt>
      <trkpt lat="43.3813487179577350616455078125" lon="-5.90833774767816066741943359375">
        <ele>255.8000030517578125</ele>
        <time>2019-02-14T11:30:06.000Z</time>
      </trkpt>
      <trkpt lat="43.38134125806391239166259765625" lon="-5.9083152003586292266845703125">
        <ele>256</ele>
        <time>2019-02-14T11:30:08.000Z</time>
      </trkpt>
      <trkpt lat="43.38131661526858806610107421875" lon="-5.908286534249782562255859375">
        <ele>256.399993896484375</ele>
        <time>2019-02-14T11:30:11.000Z</time>
      </trkpt>
      <trkpt lat="43.3813091553747653961181640625" lon="-5.90827387757599353790283203125">
        <ele>256.600006103515625</ele>
        <time>2019-02-14T11:30:12.000Z</time>
      </trkpt>
      <trkpt lat="43.38128359057009220123291015625" lon="-5.90823666192591190338134765625">
        <ele>257.399993896484375</ele>
        <time>2019-02-14T11:30:15.000Z</time>
      </trkpt>
      <trkpt lat="43.3812716044485569000244140625" lon="-5.90822844766080379486083984375">
        <ele>257.600006103515625</ele>
        <time>2019-02-14T11:30:16.000Z</time>
      </trkpt>
      <trkpt lat="43.38123950175940990447998046875" lon="-5.90820497833192348480224609375">
        <ele>258.20001220703125</ele>
        <time>2019-02-14T11:30:19.000Z</time>
      </trkpt>
      <trkpt lat="43.381206728518009185791015625" lon="-5.90817396529018878936767578125">
        <ele>258.399993896484375</ele>
        <time>2019-02-14T11:30:22.000Z</time>
      </trkpt>
      <trkpt lat="43.38119591586291790008544921875" lon="-5.90816424228250980377197265625">
        <ele>258.600006103515625</ele>
        <time>2019-02-14T11:30:23.000Z</time>
      </trkpt>
      <trkpt lat="43.38118652813136577606201171875" lon="-5.90815233998000621795654296875">
        <ele>258.79998779296875</ele>
        <time>2019-02-14T11:30:24.000Z</time>
      </trkpt>
      <trkpt lat="43.3811649866402149200439453125" lon="-5.90810439549386501312255859375">
        <ele>259.79998779296875</ele>
        <time>2019-02-14T11:30:28.000Z</time>
      </trkpt>
      <trkpt lat="43.38115970604121685028076171875" lon="-5.90809517540037631988525390625">
        <ele>260.20001220703125</ele>
        <time>2019-02-14T11:30:29.000Z</time>
      </trkpt>
      <trkpt lat="43.3811540901660919189453125" lon="-5.90808478184044361114501953125">
        <ele>260.399993896484375</ele>
        <time>2019-02-14T11:30:30.000Z</time>
      </trkpt>
      <trkpt lat="43.38111746124923229217529296875" lon="-5.9080077521502971649169921875">
        <ele>261.20001220703125</ele>
        <time>2019-02-14T11:30:35.000Z</time>
      </trkpt>
      <trkpt lat="43.3811073191463947296142578125" lon="-5.907994844019412994384765625">
        <ele>261.600006103515625</ele>
        <time>2019-02-14T11:30:36.000Z</time>
      </trkpt>
      <trkpt lat="43.38107655756175518035888671875" lon="-5.907943546772003173828125">
        <ele>262.399993896484375</ele>
        <time>2019-02-14T11:30:40.000Z</time>
      </trkpt>
      <trkpt lat="43.3810654096305370330810546875" lon="-5.90792468748986721038818359375">
        <ele>262.79998779296875</ele>
        <time>2019-02-14T11:30:42.000Z</time>
      </trkpt>
      <trkpt lat="43.3810563571751117706298828125" lon="-5.907912366092205047607421875">
        <ele>263</ele>
        <time>2019-02-14T11:30:43.000Z</time>
      </trkpt>
      <trkpt lat="43.38103967718780040740966796875" lon="-5.90789057314395904541015625">
        <ele>263.600006103515625</ele>
        <time>2019-02-14T11:30:45.000Z</time>
      </trkpt>
      <trkpt lat="43.38102492503821849822998046875" lon="-5.9078699536621570587158203125">
        <ele>264.20001220703125</ele>
        <time>2019-02-14T11:30:47.000Z</time>
      </trkpt>
      <trkpt lat="43.38100346736609935760498046875" lon="-5.90783868916332721710205078125">
        <ele>264.600006103515625</ele>
        <time>2019-02-14T11:30:50.000Z</time>
      </trkpt>
      <trkpt lat="43.38099726475775241851806640625" lon="-5.9078307263553142547607421875">
        <ele>264.79998779296875</ele>
        <time>2019-02-14T11:30:51.000Z</time>
      </trkpt>
      <trkpt lat="43.38099089451134204864501953125" lon="-5.90782142244279384613037109375">
        <ele>265</ele>
        <time>2019-02-14T11:30:52.000Z</time>
      </trkpt>
      <trkpt lat="43.38098553009331226348876953125" lon="-5.90781102888286113739013671875">
        <ele>265.20001220703125</ele>
        <time>2019-02-14T11:30:53.000Z</time>
      </trkpt>
      <trkpt lat="43.38096206076443195343017578125" lon="-5.9077797643840312957763671875">
        <ele>265.79998779296875</ele>
        <time>2019-02-14T11:30:56.000Z</time>
      </trkpt>
      <trkpt lat="43.38095334358513355255126953125" lon="-5.90776920318603515625">
        <ele>266</ele>
        <time>2019-02-14T11:30:57.000Z</time>
      </trkpt>
      <trkpt lat="43.3809363283216953277587890625" lon="-5.9077437222003936767578125">
        <ele>266.399993896484375</ele>
        <time>2019-02-14T11:30:59.000Z</time>
      </trkpt>
      <trkpt lat="43.38090204633772373199462890625" lon="-5.9076842106878757476806640625">
        <ele>267.20001220703125</ele>
        <time>2019-02-14T11:31:04.000Z</time>
      </trkpt>
      <trkpt lat="43.3808504976332187652587890625" lon="-5.90760835446417331695556640625">
        <ele>268.20001220703125</ele>
        <time>2019-02-14T11:31:11.000Z</time>
      </trkpt>
      <trkpt lat="43.3808421157300472259521484375" lon="-5.907591842114925384521484375">
        <ele>268.399993896484375</ele>
        <time>2019-02-14T11:31:12.000Z</time>
      </trkpt>
      <trkpt lat="43.38078998029232025146484375" lon="-5.907493270933628082275390625">
        <ele>269.20001220703125</ele>
        <time>2019-02-14T11:31:18.000Z</time>
      </trkpt>
      <trkpt lat="43.38077120482921600341796875" lon="-5.9074605815112590789794921875">
        <ele>269.399993896484375</ele>
        <time>2019-02-14T11:31:20.000Z</time>
      </trkpt>
      <trkpt lat="43.38073206134140491485595703125" lon="-5.9074138104915618896484375">
        <ele>269.79998779296875</ele>
        <time>2019-02-14T11:31:24.000Z</time>
      </trkpt>
      <trkpt lat="43.38071026839315891265869140625" lon="-5.90739528648555278778076171875">
        <ele>270.399993896484375</ele>
        <time>2019-02-14T11:31:26.000Z</time>
      </trkpt>
      <trkpt lat="43.380698449909687042236328125" lon="-5.90738573111593723297119140625">
        <ele>270.600006103515625</ele>
        <time>2019-02-14T11:31:27.000Z</time>
      </trkpt>
      <trkpt lat="43.38065176270902156829833984375" lon="-5.90734164230525493621826171875">
        <ele>271</ele>
        <time>2019-02-14T11:31:31.000Z</time>
      </trkpt>
      <trkpt lat="43.380635082721710205078125" lon="-5.907315574586391448974609375">
        <ele>271.600006103515625</ele>
        <time>2019-02-14T11:31:33.000Z</time>
      </trkpt>
      <trkpt lat="43.3805976994335651397705078125" lon="-5.9072403050959110260009765625">
        <ele>272.399993896484375</ele>
        <time>2019-02-14T11:31:38.000Z</time>
      </trkpt>
      <trkpt lat="43.3805881440639495849609375" lon="-5.90722731314599514007568359375">
        <ele>272.79998779296875</ele>
        <time>2019-02-14T11:31:39.000Z</time>
      </trkpt>
      <trkpt lat="43.38052402250468730926513671875" lon="-5.90718708001077175140380859375">
        <ele>274</ele>
        <time>2019-02-14T11:31:45.000Z</time>
      </trkpt>
      <trkpt lat="43.38047557510435581207275390625" lon="-5.90713192708790302276611328125">
        <ele>275.20001220703125</ele>
        <time>2019-02-14T11:31:50.000Z</time>
      </trkpt>
      <trkpt lat="43.38044808246195316314697265625" lon="-5.907135196030139923095703125">
        <ele>275.399993896484375</ele>
        <time>2019-02-14T11:31:52.000Z</time>
      </trkpt>
      <trkpt lat="43.38039376772940158843994140625" lon="-5.90714081190526485443115234375">
        <ele>276.399993896484375</ele>
        <time>2019-02-14T11:31:56.000Z</time>
      </trkpt>
      <trkpt lat="43.38035412132740020751953125" lon="-5.9071068651974201202392578125">
        <ele>277.20001220703125</ele>
        <time>2019-02-14T11:32:00.000Z</time>
      </trkpt>
      <trkpt lat="43.38033760897815227508544921875" lon="-5.9070833958685398101806640625">
        <ele>277.399993896484375</ele>
        <time>2019-02-14T11:32:02.000Z</time>
      </trkpt>
      <trkpt lat="43.38028765283524990081787109375" lon="-5.90707476250827312469482421875">
        <ele>278.20001220703125</ele>
        <time>2019-02-14T11:32:06.000Z</time>
      </trkpt>
      <trkpt lat="43.380274660885334014892578125" lon="-5.90707191266119480133056640625">
        <ele>278.399993896484375</ele>
        <time>2019-02-14T11:32:07.000Z</time>
      </trkpt>
      <trkpt lat="43.38026083074510097503662109375" lon="-5.90706654824316501617431640625">
        <ele>278.600006103515625</ele>
        <time>2019-02-14T11:32:08.000Z</time>
      </trkpt>
      <trkpt lat="43.3802034147083759307861328125" lon="-5.90704408474266529083251953125">
        <ele>280</ele>
        <time>2019-02-14T11:32:13.000Z</time>
      </trkpt>
      <trkpt lat="43.3801933564245700836181640625" lon="-5.9070344455540180206298828125">
        <ele>280.20001220703125</ele>
        <time>2019-02-14T11:32:14.000Z</time>
      </trkpt>
      <trkpt lat="43.3801413886249065399169921875" lon="-5.90700301341712474822998046875">
        <ele>281</ele>
        <time>2019-02-14T11:32:19.000Z</time>
      </trkpt>
      <trkpt lat="43.38012001477181911468505859375" lon="-5.9069861657917499542236328125">
        <ele>281.399993896484375</ele>
        <time>2019-02-14T11:32:21.000Z</time>
      </trkpt>
      <trkpt lat="43.38007860817015171051025390625" lon="-5.9069395624101161956787109375">
        <ele>282.20001220703125</ele>
        <time>2019-02-14T11:32:25.000Z</time>
      </trkpt>
      <trkpt lat="43.380031920969486236572265625" lon="-5.90691081248223781585693359375">
        <ele>282.79998779296875</ele>
        <time>2019-02-14T11:32:29.000Z</time>
      </trkpt>
      <trkpt lat="43.3800072781741619110107421875" lon="-5.906906537711620330810546875">
        <ele>283.20001220703125</ele>
        <time>2019-02-14T11:32:31.000Z</time>
      </trkpt>
      <trkpt lat="43.37988833896815776824951171875" lon="-5.90685633011162281036376953125">
        <ele>284.399993896484375</ele>
        <time>2019-02-14T11:32:39.000Z</time>
      </trkpt>
      <trkpt lat="43.3798746764659881591796875" lon="-5.90684560127556324005126953125">
        <ele>284.399993896484375</ele>
        <time>2019-02-14T11:32:40.000Z</time>
      </trkpt>
      <trkpt lat="43.3797618560492992401123046875" lon="-5.9067736007273197174072265625">
        <ele>285.399993896484375</ele>
        <time>2019-02-14T11:32:48.000Z</time>
      </trkpt>
      <trkpt lat="43.379683904349803924560546875" lon="-5.906716771423816680908203125">
        <ele>286.600006103515625</ele>
        <time>2019-02-14T11:32:54.000Z</time>
      </trkpt>
      <trkpt lat="43.3796582557260990142822265625" lon="-5.90670545585453510284423828125">
        <ele>287</ele>
        <time>2019-02-14T11:32:56.000Z</time>
      </trkpt>
      <trkpt lat="43.37962296791374683380126953125" lon="-5.90667955577373504638671875">
        <ele>287.600006103515625</ele>
        <time>2019-02-14T11:32:59.000Z</time>
      </trkpt>
      <trkpt lat="43.37958809919655323028564453125" lon="-5.9066267497837543487548828125">
        <ele>288.399993896484375</ele>
        <time>2019-02-14T11:33:03.000Z</time>
      </trkpt>
      <trkpt lat="43.3795818127691745758056640625" lon="-5.90660847723484039306640625">
        <ele>288.600006103515625</ele>
        <time>2019-02-14T11:33:04.000Z</time>
      </trkpt>
      <trkpt lat="43.37953261099755764007568359375" lon="-5.906525664031505584716796875">
        <ele>289.79998779296875</ele>
        <time>2019-02-14T11:33:10.000Z</time>
      </trkpt>
      <trkpt lat="43.3795259892940521240234375" lon="-5.906510911881923675537109375">
        <ele>289.79998779296875</ele>
        <time>2019-02-14T11:33:11.000Z</time>
      </trkpt>
      <trkpt lat="43.37949690409004688262939453125" lon="-5.9064222313463687896728515625">
        <ele>290.79998779296875</ele>
        <time>2019-02-14T11:33:16.000Z</time>
      </trkpt>
      <trkpt lat="43.37947879917919635772705078125" lon="-5.90637269429862499237060546875">
        <ele>291.399993896484375</ele>
        <time>2019-02-14T11:33:19.000Z</time>
      </trkpt>
      <trkpt lat="43.3794567547738552093505859375" lon="-5.90632827021181583404541015625">
        <ele>291.79998779296875</ele>
        <time>2019-02-14T11:33:22.000Z</time>
      </trkpt>
      <trkpt lat="43.37940855883061885833740234375" lon="-5.906243361532688140869140625">
        <ele>292.399993896484375</ele>
        <time>2019-02-14T11:33:28.000Z</time>
      </trkpt>
      <trkpt lat="43.3793826587498188018798828125" lon="-5.906200110912322998046875">
        <ele>293.20001220703125</ele>
        <time>2019-02-14T11:33:31.000Z</time>
      </trkpt>
      <trkpt lat="43.3793266676366329193115234375" lon="-5.90611972846090793609619140625">
        <ele>294</ele>
        <time>2019-02-14T11:33:37.000Z</time>
      </trkpt>
      <trkpt lat="43.379320465028285980224609375" lon="-5.90610329993069171905517578125">
        <ele>294</ele>
        <time>2019-02-14T11:33:38.000Z</time>
      </trkpt>
      <trkpt lat="43.3792757056653499603271484375" lon="-5.90598486363887786865234375">
        <ele>295.20001220703125</ele>
        <time>2019-02-14T11:33:46.000Z</time>
      </trkpt>
      <trkpt lat="43.3792723529040813446044921875" lon="-5.9059672616422176361083984375">
        <ele>295.20001220703125</ele>
        <time>2019-02-14T11:33:47.000Z</time>
      </trkpt>
      <trkpt lat="43.3792726881802082061767578125" lon="-5.9058727137744426727294921875">
        <ele>296.20001220703125</ele>
        <time>2019-02-14T11:33:52.000Z</time>
      </trkpt>
      <trkpt lat="43.3792736940085887908935546875" lon="-5.905853770673274993896484375">
        <ele>296.399993896484375</ele>
        <time>2019-02-14T11:33:53.000Z</time>
      </trkpt>
      <trkpt lat="43.37928635068237781524658203125" lon="-5.905762575566768646240234375">
        <ele>297.399993896484375</ele>
        <time>2019-02-14T11:33:58.000Z</time>
      </trkpt>
      <trkpt lat="43.37928450666368007659912109375" lon="-5.90569308958947658538818359375">
        <ele>298</ele>
        <time>2019-02-14T11:34:02.000Z</time>
      </trkpt>
      <trkpt lat="43.3792912960052490234375" lon="-5.905659310519695281982421875">
        <ele>298.600006103515625</ele>
        <time>2019-02-14T11:34:04.000Z</time>
      </trkpt>
      <trkpt lat="43.3793142624199390411376953125" lon="-5.9055954404175281524658203125">
        <ele>299.600006103515625</ele>
        <time>2019-02-14T11:34:08.000Z</time>
      </trkpt>
      <trkpt lat="43.37932775728404521942138671875" lon="-5.90554523281753063201904296875">
        <ele>300.399993896484375</ele>
        <time>2019-02-14T11:34:11.000Z</time>
      </trkpt>
      <trkpt lat="43.3793280087411403656005859375" lon="-5.9055280499160289764404296875">
        <ele>300.600006103515625</ele>
        <time>2019-02-14T11:34:12.000Z</time>
      </trkpt>
      <trkpt lat="43.37932976894080638885498046875" lon="-5.90545713901519775390625">
        <ele>301.79998779296875</ele>
        <time>2019-02-14T11:34:16.000Z</time>
      </trkpt>
      <trkpt lat="43.37932775728404521942138671875" lon="-5.90538614429533481597900390625">
        <ele>302.79998779296875</ele>
        <time>2019-02-14T11:34:20.000Z</time>
      </trkpt>
      <trkpt lat="43.37933530099689960479736328125" lon="-5.90535127557814121246337890625">
        <ele>303</ele>
        <time>2019-02-14T11:34:22.000Z</time>
      </trkpt>
      <trkpt lat="43.37934167124330997467041015625" lon="-5.90524465776979923248291015625">
        <ele>303.79998779296875</ele>
        <time>2019-02-14T11:34:28.000Z</time>
      </trkpt>
      <trkpt lat="43.37934368290007114410400390625" lon="-5.90520811267197132110595703125">
        <ele>304.600006103515625</ele>
        <time>2019-02-14T11:34:30.000Z</time>
      </trkpt>
      <trkpt lat="43.37935256771743297576904296875" lon="-5.905172489583492279052734375">
        <ele>304.79998779296875</ele>
        <time>2019-02-14T11:34:32.000Z</time>
      </trkpt>
      <trkpt lat="43.37937234900891780853271484375" lon="-5.90508406050503253936767578125">
        <ele>305.79998779296875</ele>
        <time>2019-02-14T11:34:37.000Z</time>
      </trkpt>
      <trkpt lat="43.37935742922127246856689453125" lon="-5.9049926139414310455322265625">
        <ele>307</ele>
        <time>2019-02-14T11:34:42.000Z</time>
      </trkpt>
      <trkpt lat="43.37934569455683231353759765625" lon="-5.90495414100587368011474609375">
        <ele>307.399993896484375</ele>
        <time>2019-02-14T11:34:44.000Z</time>
      </trkpt>
      <trkpt lat="43.37931501679122447967529296875" lon="-5.90484802611172199249267578125">
        <ele>308</ele>
        <time>2019-02-14T11:34:50.000Z</time>
      </trkpt>
      <trkpt lat="43.3793125860393047332763671875" lon="-5.90482975356280803680419921875">
        <ele>308.20001220703125</ele>
        <time>2019-02-14T11:34:51.000Z</time>
      </trkpt>
      <trkpt lat="43.379295654594898223876953125" lon="-5.90473227202892303466796875">
        <ele>309</ele>
        <time>2019-02-14T11:34:56.000Z</time>
      </trkpt>
      <trkpt lat="43.3792872726917266845703125" lon="-5.90465038083493709564208984375">
        <ele>309.600006103515625</ele>
        <time>2019-02-14T11:35:00.000Z</time>
      </trkpt>
      <trkpt lat="43.37927050888538360595703125" lon="-5.9045366384088993072509765625">
        <ele>310.20001220703125</ele>
        <time>2019-02-14T11:35:06.000Z</time>
      </trkpt>
      <trkpt lat="43.37925466708838939666748046875" lon="-5.9044608660042285919189453125">
        <ele>311.20001220703125</ele>
        <time>2019-02-14T11:35:10.000Z</time>
      </trkpt>
      <trkpt lat="43.379251062870025634765625" lon="-5.90444200672209262847900390625">
        <ele>311.399993896484375</ele>
        <time>2019-02-14T11:35:11.000Z</time>
      </trkpt>
      <trkpt lat="43.37922147475183010101318359375" lon="-5.9043006040155887603759765625">
        <ele>312.79998779296875</ele>
        <time>2019-02-14T11:35:19.000Z</time>
      </trkpt>
      <trkpt lat="43.3792103268206119537353515625" lon="-5.90419356711208820343017578125">
        <ele>313.79998779296875</ele>
        <time>2019-02-14T11:35:24.000Z</time>
      </trkpt>
      <trkpt lat="43.37919230572879314422607421875" lon="-5.90413891710340976715087890625">
        <ele>314.79998779296875</ele>
        <time>2019-02-14T11:35:27.000Z</time>
      </trkpt>
      <trkpt lat="43.3791851811110973358154296875" lon="-5.9041215665638446807861328125">
        <ele>314.79998779296875</ele>
        <time>2019-02-14T11:35:28.000Z</time>
      </trkpt>
      <trkpt lat="43.379149474203586578369140625" lon="-5.90399273671209812164306640625">
        <ele>316</ele>
        <time>2019-02-14T11:35:35.000Z</time>
      </trkpt>
      <trkpt lat="43.3791436068713665008544921875" lon="-5.90397798456251621246337890625">
        <ele>316.20001220703125</ele>
        <time>2019-02-14T11:35:36.000Z</time>
      </trkpt>
      <trkpt lat="43.37912189774215221405029296875" lon="-5.90391227044165134429931640625">
        <ele>317</ele>
        <time>2019-02-14T11:35:40.000Z</time>
      </trkpt>
      <trkpt lat="43.37910060770809650421142578125" lon="-5.90384781360626220703125">
        <ele>317.600006103515625</ele>
        <time>2019-02-14T11:35:44.000Z</time>
      </trkpt>
      <trkpt lat="43.379066325724124908447265625" lon="-5.90379022993147373199462890625">
        <ele>318</ele>
        <time>2019-02-14T11:35:48.000Z</time>
      </trkpt>
      <trkpt lat="43.3790299482643604278564453125" lon="-5.90372786857187747955322265625">
        <ele>318.79998779296875</ele>
        <time>2019-02-14T11:35:52.000Z</time>
      </trkpt>
      <trkpt lat="43.379022069275379180908203125" lon="-5.903710015118122100830078125">
        <ele>319</ele>
        <time>2019-02-14T11:35:53.000Z</time>
      </trkpt>
      <trkpt lat="43.3789541758596897125244140625" lon="-5.903558470308780670166015625">
        <ele>320</ele>
        <time>2019-02-14T11:36:01.000Z</time>
      </trkpt>
      <trkpt lat="43.3789466321468353271484375" lon="-5.90354078449308872222900390625">
        <ele>320.20001220703125</ele>
        <time>2019-02-14T11:36:02.000Z</time>
      </trkpt>
      <trkpt lat="43.378914110362529754638671875" lon="-5.90345193631947040557861328125">
        <ele>321.20001220703125</ele>
        <time>2019-02-14T11:36:07.000Z</time>
      </trkpt>
      <trkpt lat="43.37891084142029285430908203125" lon="-5.90343366377055644989013671875">
        <ele>321.399993896484375</ele>
        <time>2019-02-14T11:36:08.000Z</time>
      </trkpt>
      <trkpt lat="43.3788918145000934600830078125" lon="-5.90333593077957630157470703125">
        <ele>322.20001220703125</ele>
        <time>2019-02-14T11:36:13.000Z</time>
      </trkpt>
      <trkpt lat="43.37888267822563648223876953125" lon="-5.90326200239360332489013671875">
        <ele>323</ele>
        <time>2019-02-14T11:36:17.000Z</time>
      </trkpt>
      <trkpt lat="43.37888167239725589752197265625" lon="-5.9032210148870944976806640625">
        <ele>323.20001220703125</ele>
        <time>2019-02-14T11:36:19.000Z</time>
      </trkpt>
      <trkpt lat="43.37889139540493488311767578125" lon="-5.90309570543467998504638671875">
        <ele>324.20001220703125</ele>
        <time>2019-02-14T11:36:25.000Z</time>
      </trkpt>
      <trkpt lat="43.3788908086717128753662109375" lon="-5.90299545787274837493896484375">
        <ele>325.20001220703125</ele>
        <time>2019-02-14T11:36:30.000Z</time>
      </trkpt>
      <trkpt lat="43.37889877147972583770751953125" lon="-5.90290191583335399627685546875">
        <ele>326.20001220703125</ele>
        <time>2019-02-14T11:36:35.000Z</time>
      </trkpt>
      <trkpt lat="43.37890279479324817657470703125" lon="-5.902862437069416046142578125">
        <ele>326.79998779296875</ele>
        <time>2019-02-14T11:36:37.000Z</time>
      </trkpt>
      <trkpt lat="43.3789065666496753692626953125" lon="-5.9027683921158313751220703125">
        <ele>327.79998779296875</ele>
        <time>2019-02-14T11:36:42.000Z</time>
      </trkpt>
      <trkpt lat="43.37890547700226306915283203125" lon="-5.90274534188210964202880859375">
        <ele>328</ele>
        <time>2019-02-14T11:36:43.000Z</time>
      </trkpt>
      <trkpt lat="43.37889826856553554534912109375" lon="-5.9026797115802764892578125">
        <ele>328.79998779296875</ele>
        <time>2019-02-14T11:36:46.000Z</time>
      </trkpt>
      <trkpt lat="43.37889558635652065277099609375" lon="-5.90260134078562259674072265625">
        <ele>329.79998779296875</ele>
        <time>2019-02-14T11:36:50.000Z</time>
      </trkpt>
      <trkpt lat="43.3788757212460041046142578125" lon="-5.90251450426876544952392578125">
        <ele>331</ele>
        <time>2019-02-14T11:36:55.000Z</time>
      </trkpt>
      <trkpt lat="43.37886725552380084991455078125" lon="-5.9024539031088352203369140625">
        <ele>331.600006103515625</ele>
        <time>2019-02-14T11:36:58.000Z</time>
      </trkpt>
      <trkpt lat="43.37885904125869274139404296875" lon="-5.90238936245441436767578125">
        <ele>332</ele>
        <time>2019-02-14T11:37:01.000Z</time>
      </trkpt>
      <trkpt lat="43.37883867323398590087890625" lon="-5.90230294503271579742431640625">
        <ele>332.20001220703125</ele>
        <time>2019-02-14T11:37:05.000Z</time>
      </trkpt>
      <trkpt lat="43.3788264356553554534912109375" lon="-5.90226304717361927032470703125">
        <ele>332.399993896484375</ele>
        <time>2019-02-14T11:37:07.000Z</time>
      </trkpt>
      <trkpt lat="43.378807492554187774658203125" lon="-5.9021625481545925140380859375">
        <ele>332.399993896484375</ele>
        <time>2019-02-14T11:37:11.000Z</time>
      </trkpt>
      <trkpt lat="43.37877220474183559417724609375" lon="-5.90204201638698577880859375">
        <ele>332.399993896484375</ele>
        <time>2019-02-14T11:37:15.000Z</time>
      </trkpt>
      <trkpt lat="43.37875812314450740814208984375" lon="-5.9019791521131992340087890625">
        <ele>332.399993896484375</ele>
        <time>2019-02-14T11:37:17.000Z</time>
      </trkpt>
      <trkpt lat="43.37871721945703029632568359375" lon="-5.9018369950354099273681640625">
        <ele>333.20001220703125</ele>
        <time>2019-02-14T11:37:23.000Z</time>
      </trkpt>
      <trkpt lat="43.37868905626237392425537109375" lon="-5.901708416640758514404296875">
        <ele>333.79998779296875</ele>
        <time>2019-02-14T11:37:29.000Z</time>
      </trkpt>
      <trkpt lat="43.37868268601596355438232421875" lon="-5.90166491456329822540283203125">
        <ele>334.399993896484375</ele>
        <time>2019-02-14T11:37:31.000Z</time>
      </trkpt>
      <trkpt lat="43.37867732159793376922607421875" lon="-5.90153566561639308929443359375">
        <ele>335.399993896484375</ele>
        <time>2019-02-14T11:37:37.000Z</time>
      </trkpt>
      <trkpt lat="43.37867363356053829193115234375" lon="-5.90149727649986743927001953125">
        <ele>335.600006103515625</ele>
        <time>2019-02-14T11:37:39.000Z</time>
      </trkpt>
      <trkpt lat="43.37866240181028842926025390625" lon="-5.901429466903209686279296875">
        <ele>335.79998779296875</ele>
        <time>2019-02-14T11:37:42.000Z</time>
      </trkpt>
      <trkpt lat="43.3786534331738948822021484375" lon="-5.9013484977185726165771484375">
        <ele>336.399993896484375</ele>
        <time>2019-02-14T11:37:45.000Z</time>
      </trkpt>
      <trkpt lat="43.3786447159945964813232421875" lon="-5.9012420475482940673828125">
        <ele>337.20001220703125</ele>
        <time>2019-02-14T11:37:49.000Z</time>
      </trkpt>
      <trkpt lat="43.378639854490756988525390625" lon="-5.90119301341474056243896484375">
        <ele>337.600006103515625</ele>
        <time>2019-02-14T11:37:51.000Z</time>
      </trkpt>
      <trkpt lat="43.3786229230463504791259765625" lon="-5.90110852383077144622802734375">
        <ele>338</ele>
        <time>2019-02-14T11:37:55.000Z</time>
      </trkpt>
      <trkpt lat="43.37860842235386371612548828125" lon="-5.90102688409388065338134765625">
        <ele>338.79998779296875</ele>
        <time>2019-02-14T11:37:59.000Z</time>
      </trkpt>
      <trkpt lat="43.378604315221309661865234375" lon="-5.9009817056357860565185546875">
        <ele>339</ele>
        <time>2019-02-14T11:38:01.000Z</time>
      </trkpt>
      <trkpt lat="43.378604985773563385009765625" lon="-5.900923199951648712158203125">
        <ele>339.79998779296875</ele>
        <time>2019-02-14T11:38:04.000Z</time>
      </trkpt>
      <trkpt lat="43.37860532104969024658203125" lon="-5.900905430316925048828125">
        <ele>340.20001220703125</ele>
        <time>2019-02-14T11:38:05.000Z</time>
      </trkpt>
      <trkpt lat="43.37860188446938991546630859375" lon="-5.90088841505348682403564453125">
        <ele>340.399993896484375</ele>
        <time>2019-02-14T11:38:06.000Z</time>
      </trkpt>
      <trkpt lat="43.37859316729009151458740234375" lon="-5.90085673145949840545654296875">
        <ele>340.79998779296875</ele>
        <time>2019-02-14T11:38:08.000Z</time>
      </trkpt>
      <trkpt lat="43.37857355363667011260986328125" lon="-5.9007855691015720367431640625">
        <ele>342</ele>
        <time>2019-02-14T11:38:13.000Z</time>
      </trkpt>
      <trkpt lat="43.3785659261047840118408203125" lon="-5.90076503343880176544189453125">
        <ele>342.399993896484375</ele>
        <time>2019-02-14T11:38:15.000Z</time>
      </trkpt>
      <trkpt lat="43.37854958139359951019287109375" lon="-5.9007195197045803070068359375">
        <ele>343.20001220703125</ele>
        <time>2019-02-14T11:38:19.000Z</time>
      </trkpt>
      <trkpt lat="43.3785196579992771148681640625" lon="-5.900657661259174346923828125">
        <ele>343.79998779296875</ele>
        <time>2019-02-14T11:38:24.000Z</time>
      </trkpt>
      <trkpt lat="43.3784961886703968048095703125" lon="-5.9006125666201114654541015625">
        <ele>344.20001220703125</ele>
        <time>2019-02-14T11:38:28.000Z</time>
      </trkpt>
      <trkpt lat="43.37846173904836177825927734375" lon="-5.90051910839974880218505859375">
        <ele>345.20001220703125</ele>
        <time>2019-02-14T11:38:34.000Z</time>
      </trkpt>
      <trkpt lat="43.37845670990645885467529296875" lon="-5.90049882419407367706298828125">
        <ele>345.399993896484375</ele>
        <time>2019-02-14T11:38:35.000Z</time>
      </trkpt>
      <trkpt lat="43.378438688814640045166015625" lon="-5.9004100598394870758056640625">
        <ele>346.20001220703125</ele>
        <time>2019-02-14T11:38:40.000Z</time>
      </trkpt>
      <trkpt lat="43.3784251101315021514892578125" lon="-5.90033001266419887542724609375">
        <ele>346.79998779296875</ele>
        <time>2019-02-14T11:38:44.000Z</time>
      </trkpt>
      <trkpt lat="43.3784167282283306121826171875" lon="-5.90028860606253147125244140625">
        <ele>347.20001220703125</ele>
        <time>2019-02-14T11:38:46.000Z</time>
      </trkpt>
      <trkpt lat="43.37840239517390727996826171875" lon="-5.9002353809773921966552734375">
        <ele>347.79998779296875</ele>
        <time>2019-02-14T11:38:49.000Z</time>
      </trkpt>
      <trkpt lat="43.3783899061381816864013671875" lon="-5.90020109899342060089111328125">
        <ele>348.20001220703125</ele>
        <time>2019-02-14T11:38:51.000Z</time>
      </trkpt>
      <trkpt lat="43.37837188504636287689208984375" lon="-5.90019221417605876922607421875">
        <ele>348.399993896484375</ele>
        <time>2019-02-14T11:38:52.000Z</time>
      </trkpt>
      <trkpt lat="43.37833416648209095001220703125" lon="-5.900152064859867095947265625">
        <ele>349</ele>
        <time>2019-02-14T11:38:55.000Z</time>
      </trkpt>
      <trkpt lat="43.37832779623568058013916015625" lon="-5.9001369774341583251953125">
        <ele>349</ele>
        <time>2019-02-14T11:38:56.000Z</time>
      </trkpt>
      <trkpt lat="43.37832645513117313385009765625" lon="-5.90011979453265666961669921875">
        <ele>349.20001220703125</ele>
        <time>2019-02-14T11:38:57.000Z</time>
      </trkpt>
      <trkpt lat="43.3783211745321750640869140625" lon="-5.9000147692859172821044921875">
        <ele>349.79998779296875</ele>
        <time>2019-02-14T11:39:03.000Z</time>
      </trkpt>
      <trkpt lat="43.37830818258225917816162109375" lon="-5.8999809063971042633056640625">
        <ele>350</ele>
        <time>2019-02-14T11:39:05.000Z</time>
      </trkpt>
      <trkpt lat="43.378293849527835845947265625" lon="-5.89990555308759212493896484375">
        <ele>350.399993896484375</ele>
        <time>2019-02-14T11:39:09.000Z</time>
      </trkpt>
      <trkpt lat="43.37830315344035625457763671875" lon="-5.89981980621814727783203125">
        <ele>351.20001220703125</ele>
        <time>2019-02-14T11:39:14.000Z</time>
      </trkpt>
      <trkpt lat="43.3783055841922760009765625" lon="-5.89979876764118671417236328125">
        <ele>351.399993896484375</ele>
        <time>2019-02-14T11:39:15.000Z</time>
      </trkpt>
      <trkpt lat="43.37830231525003910064697265625" lon="-5.8997804112732410430908203125">
        <ele>351.79998779296875</ele>
        <time>2019-02-14T11:39:16.000Z</time>
      </trkpt>
      <trkpt lat="43.37829552590847015380859375" lon="-5.89972601272165775299072265625">
        <ele>352.20001220703125</ele>
        <time>2019-02-14T11:39:19.000Z</time>
      </trkpt>
      <trkpt lat="43.37828840129077434539794921875" lon="-5.89968879707157611846923828125">
        <ele>352.600006103515625</ele>
        <time>2019-02-14T11:39:21.000Z</time>
      </trkpt>
      <trkpt lat="43.37828286923468112945556640625" lon="-5.89963884092867374420166015625">
        <ele>353</ele>
        <time>2019-02-14T11:39:24.000Z</time>
      </trkpt>
      <trkpt lat="43.3782839588820934295654296875" lon="-5.8996037207543849945068359375">
        <ele>353.399993896484375</ele>
        <time>2019-02-14T11:39:26.000Z</time>
      </trkpt>
      <trkpt lat="43.37829611264169216156005859375" lon="-5.89957664720714092254638671875">
        <ele>353.79998779296875</ele>
        <time>2019-02-14T11:39:28.000Z</time>
      </trkpt>
      <trkpt lat="43.37832234799861907958984375" lon="-5.8995641581714153289794921875">
        <ele>354</ele>
        <time>2019-02-14T11:39:30.000Z</time>
      </trkpt>
      <trkpt lat="43.3783345855772495269775390625" lon="-5.89956357143819332122802734375">
        <ele>354.20001220703125</ele>
        <time>2019-02-14T11:39:31.000Z</time>
      </trkpt>
      <trkpt lat="43.3783610723912715911865234375" lon="-5.89957396499812602996826171875">
        <ele>354.600006103515625</ele>
        <time>2019-02-14T11:39:33.000Z</time>
      </trkpt>
      <trkpt lat="43.37839803658425807952880859375" lon="-5.89960129000246524810791015625">
        <ele>355</ele>
        <time>2019-02-14T11:39:36.000Z</time>
      </trkpt>
      <trkpt lat="43.37843089364469051361083984375" lon="-5.8996328897774219512939453125">
        <ele>355.600006103515625</ele>
        <time>2019-02-14T11:39:39.000Z</time>
      </trkpt>
      <trkpt lat="43.378492332994937896728515625" lon="-5.8996939100325107574462890625">
        <ele>356.600006103515625</ele>
        <time>2019-02-14T11:39:45.000Z</time>
      </trkpt>
      <trkpt lat="43.3785657584667205810546875" lon="-5.89979055337607860565185546875">
        <ele>357.600006103515625</ele>
        <time>2019-02-14T11:39:53.000Z</time>
      </trkpt>
      <trkpt lat="43.3786470629274845123291015625" lon="-5.89989147149026393890380859375">
        <ele>358.79998779296875</ele>
        <time>2019-02-14T11:40:01.000Z</time>
      </trkpt>
      <trkpt lat="43.3786651678383350372314453125" lon="-5.8999143540859222412109375">
        <ele>359.20001220703125</ele>
        <time>2019-02-14T11:40:03.000Z</time>
      </trkpt>
      <trkpt lat="43.37869240902364253997802734375" lon="-5.8999545872211456298828125">
        <ele>359.79998779296875</ele>
        <time>2019-02-14T11:40:06.000Z</time>
      </trkpt>
      <trkpt lat="43.378735743463039398193359375" lon="-5.90001585893332958221435546875">
        <ele>360.79998779296875</ele>
        <time>2019-02-14T11:40:11.000Z</time>
      </trkpt>
      <trkpt lat="43.378804810345172882080078125" lon="-5.9000952355563640594482421875">
        <ele>362</ele>
        <time>2019-02-14T11:40:18.000Z</time>
      </trkpt>
      <trkpt lat="43.3788106776773929595947265625" lon="-5.90010973624885082244873046875">
        <ele>362.20001220703125</ele>
        <time>2019-02-14T11:40:19.000Z</time>
      </trkpt>
      <trkpt lat="43.37883607484400272369384765625" lon="-5.90014594607055187225341796875">
        <ele>363.20001220703125</ele>
        <time>2019-02-14T11:40:22.000Z</time>
      </trkpt>
      <trkpt lat="43.37888200767338275909423828125" lon="-5.90016053058207035064697265625">
        <ele>363.79998779296875</ele>
        <time>2019-02-14T11:40:26.000Z</time>
      </trkpt>
      <trkpt lat="43.3789042197167873382568359375" lon="-5.900178886950016021728515625">
        <ele>364</ele>
        <time>2019-02-14T11:40:28.000Z</time>
      </trkpt>
      <trkpt lat="43.3789649046957492828369140625" lon="-5.90024149976670742034912109375">
        <ele>365.20001220703125</ele>
        <time>2019-02-14T11:40:34.000Z</time>
      </trkpt>
      <trkpt lat="43.37902634404599666595458984375" lon="-5.90030352585017681121826171875">
        <ele>366.20001220703125</ele>
        <time>2019-02-14T11:40:40.000Z</time>
      </trkpt>
      <trkpt lat="43.379036150872707366943359375" lon="-5.90031593106687068939208984375">
        <ele>366.399993896484375</ele>
        <time>2019-02-14T11:40:41.000Z</time>
      </trkpt>
      <trkpt lat="43.37909071706235408782958984375" lon="-5.900404863059520721435546875">
        <ele>367.399993896484375</ele>
        <time>2019-02-14T11:40:47.000Z</time>
      </trkpt>
      <trkpt lat="43.37910915724933147430419921875" lon="-5.90043260715901851654052734375">
        <ele>367.600006103515625</ele>
        <time>2019-02-14T11:40:49.000Z</time>
      </trkpt>
      <trkpt lat="43.3791881985962390899658203125" lon="-5.9005388058722019195556640625">
        <ele>368.399993896484375</ele>
        <time>2019-02-14T11:40:57.000Z</time>
      </trkpt>
      <trkpt lat="43.379246033728122711181640625" lon="-5.90062237344682216644287109375">
        <ele>369.600006103515625</ele>
        <time>2019-02-14T11:41:03.000Z</time>
      </trkpt>
      <trkpt lat="43.3792562596499919891357421875" lon="-5.9006360359489917755126953125">
        <ele>369.79998779296875</ele>
        <time>2019-02-14T11:41:04.000Z</time>
      </trkpt>
      <trkpt lat="43.3793078921735286712646484375" lon="-5.90070225298404693603515625">
        <ele>370.600006103515625</ele>
        <time>2019-02-14T11:41:09.000Z</time>
      </trkpt>
      <trkpt lat="43.37934770621359348297119140625" lon="-5.9007641114294528961181640625">
        <ele>371.600006103515625</ele>
        <time>2019-02-14T11:41:13.000Z</time>
      </trkpt>
      <trkpt lat="43.3793920464813709259033203125" lon="-5.900849439203739166259765625">
        <ele>372.79998779296875</ele>
        <time>2019-02-14T11:41:18.000Z</time>
      </trkpt>
      <trkpt lat="43.37942071259021759033203125" lon="-5.90089763514697551727294921875">
        <ele>373.399993896484375</ele>
        <time>2019-02-14T11:41:21.000Z</time>
      </trkpt>
      <trkpt lat="43.3794508874416351318359375" lon="-5.90094641782343387603759765625">
        <ele>373.79998779296875</ele>
        <time>2019-02-14T11:41:24.000Z</time>
      </trkpt>
      <trkpt lat="43.37953981943428516387939453125" lon="-5.90105806477367877960205078125">
        <ele>374.20001220703125</ele>
        <time>2019-02-14T11:41:31.000Z</time>
      </trkpt>
      <trkpt lat="43.37958625517785549163818359375" lon="-5.90114071033895015716552734375">
        <ele>374.399993896484375</ele>
        <time>2019-02-14T11:41:35.000Z</time>
      </trkpt>
      <trkpt lat="43.37961441837251186370849609375" lon="-5.90121229179203510284423828125">
        <ele>374.399993896484375</ele>
        <time>2019-02-14T11:41:38.000Z</time>
      </trkpt>
      <trkpt lat="43.37965683080255985260009765625" lon="-5.90127264149487018585205078125">
        <ele>374.79998779296875</ele>
        <time>2019-02-14T11:41:41.000Z</time>
      </trkpt>
      <trkpt lat="43.37968365289270877838134765625" lon="-5.90130700729787349700927734375">
        <ele>375</ele>
        <time>2019-02-14T11:41:43.000Z</time>
      </trkpt>
      <trkpt lat="43.37970561347901821136474609375" lon="-5.90134506113827228546142578125">
        <ele>375</ele>
        <time>2019-02-14T11:41:45.000Z</time>
      </trkpt>
      <trkpt lat="43.37973210029304027557373046875" lon="-5.901406668126583099365234375">
        <ele>375.399993896484375</ele>
        <time>2019-02-14T11:41:48.000Z</time>
      </trkpt>
      <trkpt lat="43.379757665097713470458984375" lon="-5.9014735557138919830322265625">
        <ele>375.79998779296875</ele>
        <time>2019-02-14T11:41:51.000Z</time>
      </trkpt>
      <trkpt lat="43.37978146970272064208984375" lon="-5.90151219628751277923583984375">
        <ele>375.79998779296875</ele>
        <time>2019-02-14T11:41:53.000Z</time>
      </trkpt>
      <trkpt lat="43.37987945415079593658447265625" lon="-5.9016663394868373870849609375">
        <ele>376.79998779296875</ele>
        <time>2019-02-14T11:42:01.000Z</time>
      </trkpt>
      <trkpt lat="43.379894457757472991943359375" lon="-5.90168586932122707366943359375">
        <ele>377</ele>
        <time>2019-02-14T11:42:02.000Z</time>
      </trkpt>
      <trkpt lat="43.37998087517917156219482421875" lon="-5.90179634280502796173095703125">
        <ele>378.20001220703125</ele>
        <time>2019-02-14T11:42:08.000Z</time>
      </trkpt>
      <trkpt lat="43.38000400923192501068115234375" lon="-5.90182584710419178009033203125">
        <ele>378.399993896484375</ele>
        <time>2019-02-14T11:42:10.000Z</time>
      </trkpt>
      <trkpt lat="43.38005505502223968505859375" lon="-5.901899524033069610595703125">
        <ele>378.79998779296875</ele>
        <time>2019-02-14T11:42:14.000Z</time>
      </trkpt>
      <trkpt lat="43.38011381216347217559814453125" lon="-5.90198091231286525726318359375">
        <ele>379.399993896484375</ele>
        <time>2019-02-14T11:42:19.000Z</time>
      </trkpt>
      <trkpt lat="43.3801360242068767547607421875" lon="-5.9020091593265533447265625">
        <ele>380</ele>
        <time>2019-02-14T11:42:21.000Z</time>
      </trkpt>
      <trkpt lat="43.38016100227832794189453125" lon="-5.9020445309579372406005859375">
        <ele>380.600006103515625</ele>
        <time>2019-02-14T11:42:26.000Z</time>
      </trkpt>
      <trkpt lat="43.3802248723804950714111328125" lon="-5.902091972529888153076171875">
        <ele>381.20001220703125</ele>
        <time>2019-02-14T11:42:37.000Z</time>
      </trkpt>
      <trkpt lat="43.38024507276713848114013671875" lon="-5.90210848487913608551025390625">
        <ele>381.399993896484375</ele>
        <time>2019-02-14T11:42:39.000Z</time>
      </trkpt>
      <trkpt lat="43.380254544317722320556640625" lon="-5.9021166153252124786376953125">
        <ele>381.399993896484375</ele>
        <time>2019-02-14T11:42:40.000Z</time>
      </trkpt>
      <trkpt lat="43.38026552461087703704833984375" lon="-5.9021233208477497100830078125">
        <ele>381.79998779296875</ele>
        <time>2019-02-14T11:42:41.000Z</time>
      </trkpt>
      <trkpt lat="43.3803006447851657867431640625" lon="-5.9021337144076824188232421875">
        <ele>382.399993896484375</ele>
        <time>2019-02-14T11:42:44.000Z</time>
      </trkpt>
      <trkpt lat="43.38032034225761890411376953125" lon="-5.902154333889484405517578125">
        <ele>382.600006103515625</ele>
        <time>2019-02-14T11:42:46.000Z</time>
      </trkpt>
      <trkpt lat="43.380329646170139312744140625" lon="-5.9021655656397342681884765625">
        <ele>382.79998779296875</ele>
        <time>2019-02-14T11:42:47.000Z</time>
      </trkpt>
      <trkpt lat="43.38039301335811614990234375" lon="-5.90222616679966449737548828125">
        <ele>383.79998779296875</ele>
        <time>2019-02-14T11:42:53.000Z</time>
      </trkpt>
      <trkpt lat="43.380404412746429443359375" lon="-5.90223203413188457489013671875">
        <ele>384</ele>
        <time>2019-02-14T11:42:54.000Z</time>
      </trkpt>
      <trkpt lat="43.3804568834602832794189453125" lon="-5.90228140354156494140625">
        <ele>385</ele>
        <time>2019-02-14T11:42:59.000Z</time>
      </trkpt>
      <trkpt lat="43.38049183599650859832763671875" lon="-5.9023363888263702392578125">
        <ele>386.20001220703125</ele>
        <time>2019-02-14T11:43:03.000Z</time>
      </trkpt>
      <trkpt lat="43.38053106330335140228271484375" lon="-5.902406461536884307861328125">
        <ele>387.20001220703125</ele>
        <time>2019-02-14T11:43:08.000Z</time>
      </trkpt>
      <trkpt lat="43.38056140579283237457275390625" lon="-5.90245666913688182830810546875">
        <ele>387.600006103515625</ele>
        <time>2019-02-14T11:43:12.000Z</time>
      </trkpt>
      <trkpt lat="43.38056660257279872894287109375" lon="-5.9024720080196857452392578125">
        <ele>387.79998779296875</ele>
        <time>2019-02-14T11:43:13.000Z</time>
      </trkpt>
      <trkpt lat="43.3805769123136997222900390625" lon="-5.9025048650801181793212890625">
        <ele>388.20001220703125</ele>
        <time>2019-02-14T11:43:15.000Z</time>
      </trkpt>
      <trkpt lat="43.38061102665960788726806640625" lon="-5.9026332758367061614990234375">
        <ele>389</ele>
        <time>2019-02-14T11:43:23.000Z</time>
      </trkpt>
      <trkpt lat="43.3806184865534305572509765625" lon="-5.90268633328378200531005859375">
        <ele>389.399993896484375</ele>
        <time>2019-02-14T11:43:26.000Z</time>
      </trkpt>
      <trkpt lat="43.38064287789165973663330078125" lon="-5.9028230421245098114013671875">
        <ele>390.600006103515625</ele>
        <time>2019-02-14T11:43:34.000Z</time>
      </trkpt>
      <trkpt lat="43.38064916431903839111328125" lon="-5.90283905155956745147705078125">
        <ele>390.79998779296875</ele>
        <time>2019-02-14T11:43:35.000Z</time>
      </trkpt>
      <trkpt lat="43.38067053817212581634521484375" lon="-5.90291733853518962860107421875">
        <ele>391.399993896484375</ele>
        <time>2019-02-14T11:43:40.000Z</time>
      </trkpt>
      <trkpt lat="43.3806788362562656402587890625" lon="-5.90294592082500457763671875">
        <ele>391.399993896484375</ele>
        <time>2019-02-14T11:43:42.000Z</time>
      </trkpt>
      <trkpt lat="43.380715884268283843994140625" lon="-5.90303736738860607147216796875">
        <ele>392.20001220703125</ele>
        <time>2019-02-14T11:43:48.000Z</time>
      </trkpt>
      <trkpt lat="43.3807356655597686767578125" lon="-5.90309872291982173919677734375">
        <ele>392.79998779296875</ele>
        <time>2019-02-14T11:43:51.000Z</time>
      </trkpt>
      <trkpt lat="43.38077514432370662689208984375" lon="-5.9031759202480316162109375">
        <ele>393.20001220703125</ele>
        <time>2019-02-14T11:43:55.000Z</time>
      </trkpt>
      <trkpt lat="43.38079844601452350616455078125" lon="-5.9032106213271617889404296875">
        <ele>393.79998779296875</ele>
        <time>2019-02-14T11:43:57.000Z</time>
      </trkpt>
      <trkpt lat="43.38086248375475406646728515625" lon="-5.90330575592815876007080078125">
        <ele>394.20001220703125</ele>
        <time>2019-02-14T11:44:03.000Z</time>
      </trkpt>
      <trkpt lat="43.38090338744223117828369140625" lon="-5.90336744673550128936767578125">
        <ele>395.20001220703125</ele>
        <time>2019-02-14T11:44:07.000Z</time>
      </trkpt>
      <trkpt lat="43.380978070199489593505859375" lon="-5.90347305871546268463134765625">
        <ele>396.20001220703125</ele>
        <time>2019-02-14T11:44:14.000Z</time>
      </trkpt>
      <trkpt lat="43.38107236661016941070556640625" lon="-5.9035479091107845306396484375">
        <ele>397</ele>
        <time>2019-02-14T11:44:21.000Z</time>
      </trkpt>
      <trkpt lat="43.38108477182686328887939453125" lon="-5.903557799756526947021484375">
        <ele>397.20001220703125</ele>
        <time>2019-02-14T11:44:22.000Z</time>
      </trkpt>
      <trkpt lat="43.38111561723053455352783203125" lon="-5.903599373996257781982421875">
        <ele>397.600006103515625</ele>
        <time>2019-02-14T11:44:25.000Z</time>
      </trkpt>
      <trkpt lat="43.3811519108712673187255859375" lon="-5.90365813113749027252197265625">
        <ele>398</ele>
        <time>2019-02-14T11:44:29.000Z</time>
      </trkpt>
      <trkpt lat="43.38116155005991458892822265625" lon="-5.90367187745869159698486328125">
        <ele>398.20001220703125</ele>
        <time>2019-02-14T11:44:30.000Z</time>
      </trkpt>
      <trkpt lat="43.381213434040546417236328125" lon="-5.903759635984897613525390625">
        <ele>399.20001220703125</ele>
        <time>2019-02-14T11:44:36.000Z</time>
      </trkpt>
      <trkpt lat="43.38124872185289859771728515625" lon="-5.90381487272679805755615234375">
        <ele>400.399993896484375</ele>
        <time>2019-02-14T11:44:40.000Z</time>
      </trkpt>
      <trkpt lat="43.38128392584621906280517578125" lon="-5.90382643975317478179931640625">
        <ele>401</ele>
        <time>2019-02-14T11:44:43.000Z</time>
      </trkpt>
      <trkpt lat="43.3813047967851161956787109375" lon="-5.90381604619324207305908203125">
        <ele>401.600006103515625</ele>
        <time>2019-02-14T11:44:45.000Z</time>
      </trkpt>
      <trkpt lat="43.381320051848888397216796875" lon="-5.9037675149738788604736328125">
        <ele>402.20001220703125</ele>
        <time>2019-02-14T11:44:48.000Z</time>
      </trkpt>
      <trkpt lat="43.38131108321249485015869140625" lon="-5.9037121944129467010498046875">
        <ele>402.399993896484375</ele>
        <time>2019-02-14T11:44:51.000Z</time>
      </trkpt>
      <trkpt lat="43.38130228221416473388671875" lon="-5.9036756493151187896728515625">
        <ele>402.600006103515625</ele>
        <time>2019-02-14T11:44:53.000Z</time>
      </trkpt>
      <trkpt lat="43.381285853683948516845703125" lon="-5.90361990965902805328369140625">
        <ele>403.399993896484375</ele>
        <time>2019-02-14T11:44:56.000Z</time>
      </trkpt>
      <trkpt lat="43.38126414455473423004150390625" lon="-5.90356928296387195587158203125">
        <ele>403.79998779296875</ele>
        <time>2019-02-14T11:44:59.000Z</time>
      </trkpt>
      <trkpt lat="43.38123321533203125" lon="-5.9035049937665462493896484375">
        <ele>404.399993896484375</ele>
        <time>2019-02-14T11:45:03.000Z</time>
      </trkpt>
      <trkpt lat="43.381201364099979400634765625" lon="-5.90340281836688518524169921875">
        <ele>405</ele>
        <time>2019-02-14T11:45:09.000Z</time>
      </trkpt>
      <trkpt lat="43.3811675012111663818359375" lon="-5.9033192507922649383544921875">
        <ele>405.399993896484375</ele>
        <time>2019-02-14T11:45:14.000Z</time>
      </trkpt>
      <trkpt lat="43.38113640435039997100830078125" lon="-5.90324976481497287750244140625">
        <ele>406</ele>
        <time>2019-02-14T11:45:18.000Z</time>
      </trkpt>
      <trkpt lat="43.38110220618546009063720703125" lon="-5.903180278837680816650390625">
        <ele>406.20001220703125</ele>
        <time>2019-02-14T11:45:22.000Z</time>
      </trkpt>
      <trkpt lat="43.381061553955078125" lon="-5.903093107044696807861328125">
        <ele>407</ele>
        <time>2019-02-14T11:45:27.000Z</time>
      </trkpt>
      <trkpt lat="43.38104587979614734649658203125" lon="-5.90303770266473293304443359375">
        <ele>407.399993896484375</ele>
        <time>2019-02-14T11:45:30.000Z</time>
      </trkpt>
      <trkpt lat="43.3810449577867984771728515625" lon="-5.90301892720162868499755859375">
        <ele>407.600006103515625</ele>
        <time>2019-02-14T11:45:31.000Z</time>
      </trkpt>
      <trkpt lat="43.38107605464756488800048828125" lon="-5.90296695940196514129638671875">
        <ele>408</ele>
        <time>2019-02-14T11:45:35.000Z</time>
      </trkpt>
      <trkpt lat="43.38110421784222126007080078125" lon="-5.90297383256256580352783203125">
        <ele>408.399993896484375</ele>
        <time>2019-02-14T11:45:37.000Z</time>
      </trkpt>
      <trkpt lat="43.38114512152969837188720703125" lon="-5.90299545787274837493896484375">
        <ele>409.20001220703125</ele>
        <time>2019-02-14T11:45:40.000Z</time>
      </trkpt>
      <trkpt lat="43.38118418119847774505615234375" lon="-5.90303351171314716339111328125">
        <ele>409.79998779296875</ele>
        <time>2019-02-14T11:45:43.000Z</time>
      </trkpt>
      <trkpt lat="43.3812229894101619720458984375" lon="-5.90306720696389675140380859375">
        <ele>410.399993896484375</ele>
        <time>2019-02-14T11:45:46.000Z</time>
      </trkpt>
      <trkpt lat="43.3813188783824443817138671875" lon="-5.9031544625759124755859375">
        <ele>411.20001220703125</ele>
        <time>2019-02-14T11:45:54.000Z</time>
      </trkpt>
      <trkpt lat="43.381340503692626953125" lon="-5.9031804464757442474365234375">
        <ele>411.399993896484375</ele>
        <time>2019-02-14T11:45:56.000Z</time>
      </trkpt>
      <trkpt lat="43.38140311650931835174560546875" lon="-5.90326988138258457183837890625">
        <ele>412.20001220703125</ele>
        <time>2019-02-14T11:46:02.000Z</time>
      </trkpt>
      <trkpt lat="43.381428010761737823486328125" lon="-5.9033058397471904754638671875">
        <ele>412.399993896484375</ele>
        <time>2019-02-14T11:46:04.000Z</time>
      </trkpt>
      <trkpt lat="43.38150671683251857757568359375" lon="-5.90343047864735126495361328125">
        <ele>413.20001220703125</ele>
        <time>2019-02-14T11:46:11.000Z</time>
      </trkpt>
      <trkpt lat="43.38153018616139888763427734375" lon="-5.9034751541912555694580078125">
        <ele>413.600006103515625</ele>
        <time>2019-02-14T11:46:13.000Z</time>
      </trkpt>
      <trkpt lat="43.38157586753368377685546875" lon="-5.90359828434884548187255859375">
        <ele>414.20001220703125</ele>
        <time>2019-02-14T11:46:19.000Z</time>
      </trkpt>
      <trkpt lat="43.38159472681581974029541015625" lon="-5.9036595560610294342041015625">
        <ele>414.600006103515625</ele>
        <time>2019-02-14T11:46:22.000Z</time>
      </trkpt>
      <trkpt lat="43.3816377259790897369384765625" lon="-5.903787799179553985595703125">
        <ele>415.600006103515625</ele>
        <time>2019-02-14T11:46:28.000Z</time>
      </trkpt>
      <trkpt lat="43.3816437609493732452392578125" lon="-5.90381135232746601104736328125">
        <ele>415.79998779296875</ele>
        <time>2019-02-14T11:46:29.000Z</time>
      </trkpt>
      <trkpt lat="43.38169765658676624298095703125" lon="-5.90392668731510639190673828125">
        <ele>416.399993896484375</ele>
        <time>2019-02-14T11:46:36.000Z</time>
      </trkpt>
      <trkpt lat="43.38170218281447887420654296875" lon="-5.90394596569240093231201171875">
        <ele>416.399993896484375</ele>
        <time>2019-02-14T11:46:37.000Z</time>
      </trkpt>
      <trkpt lat="43.3816987462341785430908203125" lon="-5.90397228486835956573486328125">
        <ele>416.600006103515625</ele>
        <time>2019-02-14T11:46:40.000Z</time>
      </trkpt>
      <trkpt lat="43.3817295916378498077392578125" lon="-5.90402458794414997100830078125">
        <ele>416.79998779296875</ele>
        <time>2019-02-14T11:47:27.000Z</time>
      </trkpt>
      <trkpt lat="43.38174191303551197052001953125" lon="-5.90403799898922443389892578125">
        <ele>417</ele>
        <time>2019-02-14T11:47:28.000Z</time>
      </trkpt>
      <trkpt lat="43.38176898658275604248046875" lon="-5.90405962429940700531005859375">
        <ele>417</ele>
        <time>2019-02-14T11:47:30.000Z</time>
      </trkpt>
      <trkpt lat="43.3818729221820831298828125" lon="-5.904107987880706787109375">
        <ele>418</ele>
        <time>2019-02-14T11:47:37.000Z</time>
      </trkpt>
      <trkpt lat="43.3818881772458553314208984375" lon="-5.90411041863262653350830078125">
        <ele>418</ele>
        <time>2019-02-14T11:47:38.000Z</time>
      </trkpt>
      <trkpt lat="43.3819803781807422637939453125" lon="-5.90411528013646602630615234375">
        <ele>419</ele>
        <time>2019-02-14T11:47:44.000Z</time>
      </trkpt>
      <trkpt lat="43.38202421553432941436767578125" lon="-5.9041068144142627716064453125">
        <ele>419.399993896484375</ele>
        <time>2019-02-14T11:47:47.000Z</time>
      </trkpt>
      <trkpt lat="43.3820846490561962127685546875" lon="-5.904113017022609710693359375">
        <ele>420.20001220703125</ele>
        <time>2019-02-14T11:47:51.000Z</time>
      </trkpt>
      <trkpt lat="43.3821631036698818206787109375" lon="-5.904113352298736572265625">
        <ele>420.79998779296875</ele>
        <time>2019-02-14T11:47:56.000Z</time>
      </trkpt>
      <trkpt lat="43.38217894546687602996826171875" lon="-5.9041121788322925567626953125">
        <ele>421.20001220703125</ele>
        <time>2019-02-14T11:47:57.000Z</time>
      </trkpt>
      <trkpt lat="43.3821952901780605316162109375" lon="-5.904109664261341094970703125">
        <ele>421.399993896484375</ele>
        <time>2019-02-14T11:47:58.000Z</time>
      </trkpt>
      <trkpt lat="43.38226947002112865447998046875" lon="-5.90408326126635074615478515625">
        <ele>422.20001220703125</ele>
        <time>2019-02-14T11:48:03.000Z</time>
      </trkpt>
      <trkpt lat="43.3823129720985889434814453125" lon="-5.90406951494514942169189453125">
        <ele>422.600006103515625</ele>
        <time>2019-02-14T11:48:06.000Z</time>
      </trkpt>
      <trkpt lat="43.38235395960509777069091796875" lon="-5.90407337062060832977294921875">
        <ele>423</ele>
        <time>2019-02-14T11:48:09.000Z</time>
      </trkpt>
      <trkpt lat="43.382408358156681060791015625" lon="-5.90408451855182647705078125">
        <ele>424.20001220703125</ele>
        <time>2019-02-14T11:48:13.000Z</time>
      </trkpt>
      <trkpt lat="43.38243543170392513275146484375" lon="-5.9040880389511585235595703125">
        <ele>424.20001220703125</ele>
        <time>2019-02-14T11:48:15.000Z</time>
      </trkpt>
      <trkpt lat="43.38251841254532337188720703125" lon="-5.9040970914065837860107421875">
        <ele>425.399993896484375</ele>
        <time>2019-02-14T11:48:21.000Z</time>
      </trkpt>
      <trkpt lat="43.38255948387086391448974609375" lon="-5.9040897153317928314208984375">
        <ele>425.79998779296875</ele>
        <time>2019-02-14T11:48:24.000Z</time>
      </trkpt>
      <trkpt lat="43.38261866010725498199462890625" lon="-5.90408946387469768524169921875">
        <ele>426.399993896484375</ele>
        <time>2019-02-14T11:48:28.000Z</time>
      </trkpt>
      <trkpt lat="43.38266526348888874053955078125" lon="-5.9040907211601734161376953125">
        <ele>427</ele>
        <time>2019-02-14T11:48:31.000Z</time>
      </trkpt>
      <trkpt lat="43.38270910084247589111328125" lon="-5.90409549884498119354248046875">
        <ele>427.600006103515625</ele>
        <time>2019-02-14T11:48:34.000Z</time>
      </trkpt>
      <trkpt lat="43.38281328789889812469482421875" lon="-5.9040863625705242156982421875">
        <ele>428.20001220703125</ele>
        <time>2019-02-14T11:48:41.000Z</time>
      </trkpt>
      <trkpt lat="43.3828588016331195831298828125" lon="-5.90407152660191059112548828125">
        <ele>428.600006103515625</ele>
        <time>2019-02-14T11:48:44.000Z</time>
      </trkpt>
      <trkpt lat="43.38291470892727375030517578125" lon="-5.9040414355695247650146484375">
        <ele>429</ele>
        <time>2019-02-14T11:48:48.000Z</time>
      </trkpt>
      <trkpt lat="43.3830150403082370758056640625" lon="-5.9039693512022495269775390625">
        <ele>429.600006103515625</ele>
        <time>2019-02-14T11:48:55.000Z</time>
      </trkpt>
      <trkpt lat="43.3830297924578189849853515625" lon="-5.90395820327103137969970703125">
        <ele>429.79998779296875</ele>
        <time>2019-02-14T11:48:56.000Z</time>
      </trkpt>
      <trkpt lat="43.38311235420405864715576171875" lon="-5.9039190597832202911376953125">
        <ele>430</ele>
        <time>2019-02-14T11:49:01.000Z</time>
      </trkpt>
      <trkpt lat="43.3831984363496303558349609375" lon="-5.903898775577545166015625">
        <ele>430.399993896484375</ele>
        <time>2019-02-14T11:49:06.000Z</time>
      </trkpt>
      <trkpt lat="43.3832507394254207611083984375" lon="-5.903890393674373626708984375">
        <ele>430.600006103515625</ele>
        <time>2019-02-14T11:49:09.000Z</time>
      </trkpt>
      <trkpt lat="43.38332123123109340667724609375" lon="-5.90390170924365520477294921875">
        <ele>431</ele>
        <time>2019-02-14T11:49:13.000Z</time>
      </trkpt>
      <trkpt lat="43.383455090224742889404296875" lon="-5.9039294533431529998779296875">
        <ele>432</ele>
        <time>2019-02-14T11:49:21.000Z</time>
      </trkpt>
      <trkpt lat="43.38352289982140064239501953125" lon="-5.90384068898856639862060546875">
        <ele>432.79998779296875</ele>
        <time>2019-02-14T11:49:27.000Z</time>
      </trkpt>
      <trkpt lat="43.383548967540264129638671875" lon="-5.9037510864436626434326171875">
        <ele>434</ele>
        <time>2019-02-14T11:49:32.000Z</time>
      </trkpt>
      <trkpt lat="43.3835524879395961761474609375" lon="-5.90373356826603412628173828125">
        <ele>434.600006103515625</ele>
        <time>2019-02-14T11:49:33.000Z</time>
      </trkpt>
      <trkpt lat="43.3835538290441036224365234375" lon="-5.90369635261595249176025390625">
        <ele>435.20001220703125</ele>
        <time>2019-02-14T11:49:35.000Z</time>
      </trkpt>
      <trkpt lat="43.38354595005512237548828125" lon="-5.903622172772884368896484375">
        <ele>436.399993896484375</ele>
        <time>2019-02-14T11:49:39.000Z</time>
      </trkpt>
      <trkpt lat="43.38354066945612430572509765625" lon="-5.90358621440827846527099609375">
        <ele>437</ele>
        <time>2019-02-14T11:49:41.000Z</time>
      </trkpt>
      <trkpt lat="43.38353882543742656707763671875" lon="-5.90355000458657741546630859375">
        <ele>437.600006103515625</ele>
        <time>2019-02-14T11:49:43.000Z</time>
      </trkpt>
      <trkpt lat="43.383526168763637542724609375" lon="-5.90348370373249053955078125">
        <ele>438.79998779296875</ele>
        <time>2019-02-14T11:49:47.000Z</time>
      </trkpt>
      <trkpt lat="43.38351468555629253387451171875" lon="-5.9034540317952632904052734375">
        <ele>439.399993896484375</ele>
        <time>2019-02-14T11:49:49.000Z</time>
      </trkpt>
      <trkpt lat="43.38349088095128536224365234375" lon="-5.903414972126483917236328125">
        <ele>440</ele>
        <time>2019-02-14T11:49:52.000Z</time>
      </trkpt>
      <trkpt lat="43.38345902971923351287841796875" lon="-5.90336543507874011993408203125">
        <ele>441.20001220703125</ele>
        <time>2019-02-14T11:49:56.000Z</time>
      </trkpt>
      <trkpt lat="43.38345299474895000457763671875" lon="-5.9033524431288242340087890625">
        <ele>441.600006103515625</ele>
        <time>2019-02-14T11:49:57.000Z</time>
      </trkpt>
      <trkpt lat="43.3834435231983661651611328125" lon="-5.9033249504864215850830078125">
        <ele>442.20001220703125</ele>
        <time>2019-02-14T11:49:59.000Z</time>
      </trkpt>
      <trkpt lat="43.38341091759502887725830078125" lon="-5.903243981301784515380859375">
        <ele>443.20001220703125</ele>
        <time>2019-02-14T11:50:05.000Z</time>
      </trkpt>
      <trkpt lat="43.38339281268417835235595703125" lon="-5.9032242000102996826171875">
        <ele>443.600006103515625</ele>
        <time>2019-02-14T11:50:07.000Z</time>
      </trkpt>
      <trkpt lat="43.383362554013729095458984375" lon="-5.90317835099995136260986328125">
        <ele>444.20001220703125</ele>
        <time>2019-02-14T11:50:11.000Z</time>
      </trkpt>
      <trkpt lat="43.38332600891590118408203125" lon="-5.903120599687099456787109375">
        <ele>445.20001220703125</ele>
        <time>2019-02-14T11:50:16.000Z</time>
      </trkpt>
      <trkpt lat="43.38331771083176136016845703125" lon="-5.903110206127166748046875">
        <ele>445.399993896484375</ele>
        <time>2019-02-14T11:50:17.000Z</time>
      </trkpt>
      <trkpt lat="43.38326557539403438568115234375" lon="-5.90304843150079250335693359375">
        <ele>446.399993896484375</ele>
        <time>2019-02-14T11:50:23.000Z</time>
      </trkpt>
      <trkpt lat="43.3832554332911968231201171875" lon="-5.9030399657785892486572265625">
        <ele>446.600006103515625</ele>
        <time>2019-02-14T11:50:24.000Z</time>
      </trkpt>
      <trkpt lat="43.3831791579723358154296875" lon="-5.9030034206807613372802734375">
        <ele>447.600006103515625</ele>
        <time>2019-02-14T11:50:31.000Z</time>
      </trkpt>
      <trkpt lat="43.38316817767918109893798828125" lon="-5.90299713425338268280029296875">
        <ele>447.79998779296875</ele>
        <time>2019-02-14T11:50:32.000Z</time>
      </trkpt>
      <trkpt lat="43.38311067782342433929443359375" lon="-5.90297651477158069610595703125">
        <ele>448.600006103515625</ele>
        <time>2019-02-14T11:50:37.000Z</time>
      </trkpt>
      <trkpt lat="43.38306876830756664276123046875" lon="-5.90296268463134765625">
        <ele>449.79998779296875</ele>
        <time>2019-02-14T11:50:41.000Z</time>
      </trkpt>
      <trkpt lat="43.3830596320331096649169921875" lon="-5.90295530855655670166015625">
        <ele>450.20001220703125</ele>
        <time>2019-02-14T11:50:42.000Z</time>
      </trkpt>
      <trkpt lat="43.383017219603061676025390625" lon="-5.9029283188283443450927734375">
        <ele>451</ele>
        <time>2019-02-14T11:50:46.000Z</time>
      </trkpt>
      <trkpt lat="43.382972292602062225341796875" lon="-5.90290912427008152008056640625">
        <ele>452</ele>
        <time>2019-02-14T11:50:50.000Z</time>
      </trkpt>
      <trkpt lat="43.3829214982688426971435546875" lon="-5.90287886559963226318359375">
        <ele>453.399993896484375</ele>
        <time>2019-02-14T11:50:55.000Z</time>
      </trkpt>
      <trkpt lat="43.38289375416934490203857421875" lon="-5.90285883285105228424072265625">
        <ele>454.399993896484375</ele>
        <time>2019-02-14T11:50:58.000Z</time>
      </trkpt>
      <trkpt lat="43.38284748606383800506591796875" lon="-5.90282111428678035736083984375">
        <ele>455.600006103515625</ele>
        <time>2019-02-14T11:51:03.000Z</time>
      </trkpt>
      <trkpt lat="43.38279887102544307708740234375" lon="-5.90279781259596347808837890625">
        <ele>457</ele>
        <time>2019-02-14T11:51:08.000Z</time>
      </trkpt>
      <trkpt lat="43.382754363119602203369140625" lon="-5.90276713483035564422607421875">
        <ele>458</ele>
        <time>2019-02-14T11:51:13.000Z</time>
      </trkpt>
      <trkpt lat="43.38272443972527980804443359375" lon="-5.9027321822941303253173828125">
        <ele>458.600006103515625</ele>
        <time>2019-02-14T11:51:17.000Z</time>
      </trkpt>
      <trkpt lat="43.382702060043811798095703125" lon="-5.9027020074427127838134765625">
        <ele>459</ele>
        <time>2019-02-14T11:51:20.000Z</time>
      </trkpt>
      <trkpt lat="43.38265486992895603179931640625" lon="-5.90264693833887577056884765625">
        <ele>460.20001220703125</ele>
        <time>2019-02-14T11:51:26.000Z</time>
      </trkpt>
      <trkpt lat="43.38260189630091190338134765625" lon="-5.902575440704822540283203125">
        <ele>461.399993896484375</ele>
        <time>2019-02-14T11:51:33.000Z</time>
      </trkpt>
      <trkpt lat="43.38258664123713970184326171875" lon="-5.90255674906075000762939453125">
        <ele>461.79998779296875</ele>
        <time>2019-02-14T11:51:35.000Z</time>
      </trkpt>
      <trkpt lat="43.38256560266017913818359375" lon="-5.90252255089581012725830078125">
        <ele>462.399993896484375</ele>
        <time>2019-02-14T11:51:38.000Z</time>
      </trkpt>
      <trkpt lat="43.3825273811817169189453125" lon="-5.90245331637561321258544921875">
        <ele>463.399993896484375</ele>
        <time>2019-02-14T11:51:44.000Z</time>
      </trkpt>
      <trkpt lat="43.38251455686986446380615234375" lon="-5.90242766775190830230712890625">
        <ele>463.79998779296875</ele>
        <time>2019-02-14T11:51:46.000Z</time>
      </trkpt>
      <trkpt lat="43.38248957879841327667236328125" lon="-5.90237754397094249725341796875">
        <ele>464.600006103515625</ele>
        <time>2019-02-14T11:51:50.000Z</time>
      </trkpt>
      <trkpt lat="43.38246627710759639739990234375" lon="-5.90232708491384983062744140625">
        <ele>465.79998779296875</ele>
        <time>2019-02-14T11:51:54.000Z</time>
      </trkpt>
      <trkpt lat="43.38244398124516010284423828125" lon="-5.902278721332550048828125">
        <ele>466.600006103515625</ele>
        <time>2019-02-14T11:51:58.000Z</time>
      </trkpt>
      <trkpt lat="43.3824387006461620330810546875" lon="-5.90226690284907817840576171875">
        <ele>466.600006103515625</ele>
        <time>2019-02-14T11:51:59.000Z</time>
      </trkpt>
      <trkpt lat="43.38240911252796649932861328125" lon="-5.9021907113492488861083984375">
        <ele>467.79998779296875</ele>
        <time>2019-02-14T11:52:05.000Z</time>
      </trkpt>
      <trkpt lat="43.3824008144438266754150390625" lon="-5.9021789766848087310791015625">
        <ele>468</ele>
        <time>2019-02-14T11:52:06.000Z</time>
      </trkpt>
      <trkpt lat="43.38236971758306026458740234375" lon="-5.90210127644240856170654296875">
        <ele>469</ele>
        <time>2019-02-14T11:52:12.000Z</time>
      </trkpt>
      <trkpt lat="43.3823418058454990386962890625" lon="-5.902035646140575408935546875">
        <ele>469.79998779296875</ele>
        <time>2019-02-14T11:52:16.000Z</time>
      </trkpt>
      <trkpt lat="43.3823418058454990386962890625" lon="-5.902035646140575408935546875">
        <ele>470</ele>
        <time>2019-02-14T11:52:17.000Z</time>
      </trkpt>
      <trkpt lat="43.38229344226419925689697265625" lon="-5.9019258432090282440185546875">
        <ele>471.20001220703125</ele>
        <time>2019-02-14T11:52:25.000Z</time>
      </trkpt>
      <trkpt lat="43.38225974701344966888427734375" lon="-5.901815705001354217529296875">
        <ele>472.20001220703125</ele>
        <time>2019-02-14T11:52:32.000Z</time>
      </trkpt>
      <trkpt lat="43.38225119747221469879150390625" lon="-5.90176885016262531280517578125">
        <ele>472.399993896484375</ele>
        <time>2019-02-14T11:52:34.000Z</time>
      </trkpt>
      <trkpt lat="43.38224985636770725250244140625" lon="-5.90173616074025630950927734375">
        <ele>472.79998779296875</ele>
        <time>2019-02-14T11:52:36.000Z</time>
      </trkpt>
      <trkpt lat="43.38224164210259914398193359375" lon="-5.9016874618828296661376953125">
        <ele>473.20001220703125</ele>
        <time>2019-02-14T11:52:40.000Z</time>
      </trkpt>
      <trkpt lat="43.3822120539844036102294921875" lon="-5.90157539583742618560791015625">
        <ele>474.20001220703125</ele>
        <time>2019-02-14T11:52:46.000Z</time>
      </trkpt>
      <trkpt lat="43.38220962323248386383056640625" lon="-5.9015593864023685455322265625">
        <ele>474.20001220703125</ele>
        <time>2019-02-14T11:52:47.000Z</time>
      </trkpt>
      <trkpt lat="43.382191769778728485107421875" lon="-5.90145469643175601959228515625">
        <ele>475.399993896484375</ele>
        <time>2019-02-14T11:52:53.000Z</time>
      </trkpt>
      <trkpt lat="43.3821899257600307464599609375" lon="-5.90143793262541294097900390625">
        <ele>475.600006103515625</ele>
        <time>2019-02-14T11:52:54.000Z</time>
      </trkpt>
      <trkpt lat="43.38218950666487216949462890625" lon="-5.90137481689453125">
        <ele>476.600006103515625</ele>
        <time>2019-02-14T11:52:58.000Z</time>
      </trkpt>
      <trkpt lat="43.38218850083649158477783203125" lon="-5.901314131915569305419921875">
        <ele>478</ele>
        <time>2019-02-14T11:53:02.000Z</time>
      </trkpt>
      <trkpt lat="43.38219403289258480072021484375" lon="-5.90127130039036273956298828125">
        <ele>479</ele>
        <time>2019-02-14T11:53:05.000Z</time>
      </trkpt>
      <trkpt lat="43.38219654746353626251220703125" lon="-5.90125772170722484588623046875">
        <ele>479.20001220703125</ele>
        <time>2019-02-14T11:53:06.000Z</time>
      </trkpt>
      <trkpt lat="43.3822157420217990875244140625" lon="-5.90118982829153537750244140625">
        <ele>480</ele>
        <time>2019-02-14T11:53:11.000Z</time>
      </trkpt>
      <trkpt lat="43.382227309048175811767578125" lon="-5.90111824683845043182373046875">
        <ele>481.20001220703125</ele>
        <time>2019-02-14T11:53:16.000Z</time>
      </trkpt>
      <trkpt lat="43.382232002913951873779296875" lon="-5.90110517106950283050537109375">
        <ele>481.399993896484375</ele>
        <time>2019-02-14T11:53:17.000Z</time>
      </trkpt>
      <trkpt lat="43.38224516250193119049072265625" lon="-5.9010635130107402801513671875">
        <ele>482.20001220703125</ele>
        <time>2019-02-14T11:53:21.000Z</time>
      </trkpt>
      <trkpt lat="43.382248766720294952392578125" lon="-5.9010034985840320587158203125">
        <ele>483.399993896484375</ele>
        <time>2019-02-14T11:53:25.000Z</time>
      </trkpt>
      <trkpt lat="43.38226226158440113067626953125" lon="-5.90091020800173282623291015625">
        <ele>484.399993896484375</ele>
        <time>2019-02-14T11:53:31.000Z</time>
      </trkpt>
      <trkpt lat="43.38227634318172931671142578125" lon="-5.90081096626818180084228515625">
        <ele>485</ele>
        <time>2019-02-14T11:53:37.000Z</time>
      </trkpt>
      <trkpt lat="43.38231070898473262786865234375" lon="-5.90057912282645702362060546875">
        <ele>485</ele>
        <time>2019-02-14T11:53:47.000Z</time>
      </trkpt>
      <trkpt lat="43.38233183138072490692138671875" lon="-5.9005113132297992706298828125">
        <ele>485</ele>
        <time>2019-02-14T11:53:51.000Z</time>
      </trkpt>
      <trkpt lat="43.38238094933331012725830078125" lon="-5.900427661836147308349609375">
        <ele>484.399993896484375</ele>
        <time>2019-02-14T11:53:54.000Z</time>
      </trkpt>
      <trkpt lat="43.38240198791027069091796875" lon="-5.9004053659737110137939453125">
        <ele>483.79998779296875</ele>
        <time>2019-02-14T11:53:56.000Z</time>
      </trkpt>
      <trkpt lat="43.38250835426151752471923828125" lon="-5.90030184946954250335693359375">
        <ele>482.600006103515625</ele>
        <time>2019-02-14T11:53:59.000Z</time>
      </trkpt>
      <trkpt lat="43.3825376071035861968994140625" lon="-5.90026061050593852996826171875">
        <ele>482</ele>
        <time>2019-02-14T11:54:00.000Z</time>
      </trkpt>
      <trkpt lat="43.3825376071035861968994140625" lon="-5.90026061050593852996826171875">
        <ele>481.600006103515625</ele>
        <time>2019-02-14T11:54:01.000Z</time>
      </trkpt>
      <trkpt lat="43.3826049976050853729248046875" lon="-5.9001244045794010162353515625">
        <ele>481</ele>
        <time>2019-02-14T11:54:02.000Z</time>
      </trkpt>
      <trkpt lat="43.3826049976050853729248046875" lon="-5.9001244045794010162353515625">
        <ele>480.20001220703125</ele>
        <time>2019-02-14T11:54:03.000Z</time>
      </trkpt>
      <trkpt lat="43.38267968036234378814697265625" lon="-5.89993069879710674285888671875">
        <ele>478.79998779296875</ele>
        <time>2019-02-14T11:54:04.000Z</time>
      </trkpt>
      <trkpt lat="43.38271907530725002288818359375" lon="-5.8998310379683971405029296875">
        <ele>477</ele>
        <time>2019-02-14T11:54:05.000Z</time>
      </trkpt>
      <trkpt lat="43.38275738060474395751953125" lon="-5.89974059723317623138427734375">
        <ele>475.600006103515625</ele>
        <time>2019-02-14T11:54:06.000Z</time>
      </trkpt>
      <trkpt lat="43.38275738060474395751953125" lon="-5.89974059723317623138427734375">
        <ele>474</ele>
        <time>2019-02-14T11:54:07.000Z</time>
      </trkpt>
      <trkpt lat="43.38284463621675968170166015625" lon="-5.899561308324337005615234375">
        <ele>472.399993896484375</ele>
        <time>2019-02-14T11:54:08.000Z</time>
      </trkpt>
      <trkpt lat="43.38284463621675968170166015625" lon="-5.899561308324337005615234375">
        <ele>470.20001220703125</ele>
        <time>2019-02-14T11:54:09.000Z</time>
      </trkpt>
      <trkpt lat="43.382915966212749481201171875" lon="-5.8993586339056491851806640625">
        <ele>468.600006103515625</ele>
        <time>2019-02-14T11:54:10.000Z</time>
      </trkpt>
      <trkpt lat="43.38293851353228092193603515625" lon="-5.8992523513734340667724609375">
        <ele>467</ele>
        <time>2019-02-14T11:54:11.000Z</time>
      </trkpt>
      <trkpt lat="43.38294941000640392303466796875" lon="-5.89914145879447460174560546875">
        <ele>465.79998779296875</ele>
        <time>2019-02-14T11:54:12.000Z</time>
      </trkpt>
      <trkpt lat="43.38294438086450099945068359375" lon="-5.8988993056118488311767578125">
        <ele>464.399993896484375</ele>
        <time>2019-02-14T11:54:14.000Z</time>
      </trkpt>
      <trkpt lat="43.382960893213748931884765625" lon="-5.8986377902328968048095703125">
        <ele>462.600006103515625</ele>
        <time>2019-02-14T11:54:16.000Z</time>
      </trkpt>
      <trkpt lat="43.38299031369388103485107421875" lon="-5.8985090442001819610595703125">
        <ele>461.20001220703125</ele>
        <time>2019-02-14T11:54:17.000Z</time>
      </trkpt>
      <trkpt lat="43.38302685879170894622802734375" lon="-5.898389518260955810546875">
        <ele>459.20001220703125</ele>
        <time>2019-02-14T11:54:18.000Z</time>
      </trkpt>
      <trkpt lat="43.38302685879170894622802734375" lon="-5.898389518260955810546875">
        <ele>458</ele>
        <time>2019-02-14T11:54:19.000Z</time>
      </trkpt>
      <trkpt lat="43.38311905972659587860107421875" lon="-5.898164547979831695556640625">
        <ele>457.600006103515625</ele>
        <time>2019-02-14T11:54:20.000Z</time>
      </trkpt>
      <trkpt lat="43.38311905972659587860107421875" lon="-5.898164547979831695556640625">
        <ele>456.79998779296875</ele>
        <time>2019-02-14T11:54:21.000Z</time>
      </trkpt>
      <trkpt lat="43.38331871666014194488525390625" lon="-5.89771963655948638916015625">
        <ele>455.600006103515625</ele>
        <time>2019-02-14T11:54:24.000Z</time>
      </trkpt>
      <trkpt lat="43.3834445290267467498779296875" lon="-5.897512771189212799072265625">
        <ele>454.20001220703125</ele>
        <time>2019-02-14T11:54:26.000Z</time>
      </trkpt>
      <trkpt lat="43.3834445290267467498779296875" lon="-5.897512771189212799072265625">
        <ele>454.20001220703125</ele>
        <time>2019-02-14T11:54:27.000Z</time>
      </trkpt>
      <trkpt lat="43.3835816569626331329345703125" lon="-5.897324346005916595458984375">
        <ele>452.79998779296875</ele>
        <time>2019-02-14T11:54:29.000Z</time>
      </trkpt>
      <trkpt lat="43.3837305195629596710205078125" lon="-5.89714840985834598541259765625">
        <ele>451.79998779296875</ele>
        <time>2019-02-14T11:54:30.000Z</time>
      </trkpt>
      <trkpt lat="43.38387778960168361663818359375" lon="-5.8969773352146148681640625">
        <ele>450.20001220703125</ele>
        <time>2019-02-14T11:54:32.000Z</time>
      </trkpt>
      <trkpt lat="43.38387778960168361663818359375" lon="-5.8969773352146148681640625">
        <ele>449.79998779296875</ele>
        <time>2019-02-14T11:54:33.000Z</time>
      </trkpt>
      <trkpt lat="43.38417367078363895416259765625" lon="-5.8966529555618762969970703125">
        <ele>449</ele>
        <time>2019-02-14T11:54:36.000Z</time>
      </trkpt>
      <trkpt lat="43.38417367078363895416259765625" lon="-5.8966529555618762969970703125">
        <ele>448.79998779296875</ele>
        <time>2019-02-14T11:54:37.000Z</time>
      </trkpt>
      <trkpt lat="43.38425866328179836273193359375" lon="-5.8964796178042888641357421875">
        <ele>449.600006103515625</ele>
        <time>2019-02-14T11:54:38.000Z</time>
      </trkpt>
      <trkpt lat="43.38425866328179836273193359375" lon="-5.8964796178042888641357421875">
        <ele>450.20001220703125</ele>
        <time>2019-02-14T11:54:39.000Z</time>
      </trkpt>
      <trkpt lat="43.38429017923772335052490234375" lon="-5.89632430113852024078369140625">
        <ele>452</ele>
        <time>2019-02-14T11:54:41.000Z</time>
      </trkpt>
      <trkpt lat="43.3842914365231990814208984375" lon="-5.8963000774383544921875">
        <ele>453.399993896484375</ele>
        <time>2019-02-14T11:54:42.000Z</time>
      </trkpt>
      <trkpt lat="43.3842914365231990814208984375" lon="-5.8963000774383544921875">
        <ele>454.600006103515625</ele>
        <time>2019-02-14T11:54:43.000Z</time>
      </trkpt>
      <trkpt lat="43.38429604656994342803955078125" lon="-5.896260850131511688232421875">
        <ele>456.20001220703125</ele>
        <time>2019-02-14T11:54:45.000Z</time>
      </trkpt>
      <trkpt lat="43.38430074043571949005126953125" lon="-5.89619471691548824310302734375">
        <ele>456.79998779296875</ele>
        <time>2019-02-14T11:54:48.000Z</time>
      </trkpt>
      <trkpt lat="43.38431130163371562957763671875" lon="-5.89616739191114902496337890625">
        <ele>457.399993896484375</ele>
        <time>2019-02-14T11:54:51.000Z</time>
      </trkpt>
      <trkpt lat="43.38436938822269439697265625" lon="-5.8960970677435398101806640625">
        <ele>458.600006103515625</ele>
        <time>2019-02-14T11:54:56.000Z</time>
      </trkpt>
      <trkpt lat="43.38440568186342716217041015625" lon="-5.8960491232573986053466796875">
        <ele>459.399993896484375</ele>
        <time>2019-02-14T11:55:00.000Z</time>
      </trkpt>
      <trkpt lat="43.38440568186342716217041015625" lon="-5.8960491232573986053466796875">
        <ele>459.79998779296875</ele>
        <time>2019-02-14T11:55:01.000Z</time>
      </trkpt>
      <trkpt lat="43.38445924222469329833984375" lon="-5.89598667807877063751220703125">
        <ele>461</ele>
        <time>2019-02-14T11:55:06.000Z</time>
      </trkpt>
      <trkpt lat="43.38449545204639434814453125" lon="-5.895946025848388671875">
        <ele>462</ele>
        <time>2019-02-14T11:55:10.000Z</time>
      </trkpt>
      <trkpt lat="43.38450509123504161834716796875" lon="-5.89593672193586826324462890625">
        <ele>462.20001220703125</ele>
        <time>2019-02-14T11:55:11.000Z</time>
      </trkpt>
      <trkpt lat="43.38453023694455623626708984375" lon="-5.8959066309034824371337890625">
        <ele>463.20001220703125</ele>
        <time>2019-02-14T11:55:15.000Z</time>
      </trkpt>
      <trkpt lat="43.3845425583422183990478515625" lon="-5.8958875201642513275146484375">
        <ele>463.399993896484375</ele>
        <time>2019-02-14T11:55:16.000Z</time>
      </trkpt>
      <trkpt lat="43.38455856777727603912353515625" lon="-5.8958722651004791259765625">
        <ele>464.20001220703125</ele>
        <time>2019-02-14T11:55:19.000Z</time>
      </trkpt>
      <trkpt lat="43.38461212813854217529296875" lon="-5.89582356624305248260498046875">
        <ele>465.399993896484375</ele>
        <time>2019-02-14T11:55:24.000Z</time>
      </trkpt>
      <trkpt lat="43.3846391178667545318603515625" lon="-5.89578165672719478607177734375">
        <ele>466.399993896484375</ele>
        <time>2019-02-14T11:55:28.000Z</time>
      </trkpt>
      <trkpt lat="43.38467381894588470458984375" lon="-5.8957493863999843597412109375">
        <ele>467.600006103515625</ele>
        <time>2019-02-14T11:55:33.000Z</time>
      </trkpt>
      <trkpt lat="43.384698964655399322509765625" lon="-5.89572667144238948822021484375">
        <ele>468.399993896484375</ele>
        <time>2019-02-14T11:55:35.000Z</time>
      </trkpt>
      <trkpt lat="43.38470743037760257720947265625" lon="-5.8957171998918056488037109375">
        <ele>468.79998779296875</ele>
        <time>2019-02-14T11:55:37.000Z</time>
      </trkpt>
      <trkpt lat="43.38473106734454631805419921875" lon="-5.8956709317862987518310546875">
        <ele>469.600006103515625</ele>
        <time>2019-02-14T11:55:40.000Z</time>
      </trkpt>
      <trkpt lat="43.384735845029354095458984375" lon="-5.89565894566476345062255859375">
        <ele>470</ele>
        <time>2019-02-14T11:55:41.000Z</time>
      </trkpt>
      <trkpt lat="43.38474196381866931915283203125" lon="-5.895647965371608734130859375">
        <ele>470.399993896484375</ele>
        <time>2019-02-14T11:55:43.000Z</time>
      </trkpt>
      <trkpt lat="43.38475420139729976654052734375" lon="-5.89562893845140933990478515625">
        <ele>470.600006103515625</ele>
        <time>2019-02-14T11:55:44.000Z</time>
      </trkpt>
      <trkpt lat="43.38478236459195613861083984375" lon="-5.89560211636126041412353515625">
        <ele>471.20001220703125</ele>
        <time>2019-02-14T11:55:47.000Z</time>
      </trkpt>
      <trkpt lat="43.38480248115956783294677734375" lon="-5.8955703489482402801513671875">
        <ele>472.20001220703125</ele>
        <time>2019-02-14T11:55:50.000Z</time>
      </trkpt>
      <trkpt lat="43.38480248115956783294677734375" lon="-5.8955703489482402801513671875">
        <ele>472.20001220703125</ele>
        <time>2019-02-14T11:55:51.000Z</time>
      </trkpt>
      <trkpt lat="43.38483885861933231353759765625" lon="-5.8955053053796291351318359375">
        <ele>473.399993896484375</ele>
        <time>2019-02-14T11:55:57.000Z</time>
      </trkpt>
      <trkpt lat="43.3848704583942890167236328125" lon="-5.895466245710849761962890625">
        <ele>474</ele>
        <time>2019-02-14T11:56:00.000Z</time>
      </trkpt>
      <trkpt lat="43.38488730601966381072998046875" lon="-5.89544855989515781402587890625">
        <ele>474.20001220703125</ele>
        <time>2019-02-14T11:56:03.000Z</time>
      </trkpt>
      <trkpt lat="43.38493340648710727691650390625" lon="-5.8953859470784664154052734375">
        <ele>475.399993896484375</ele>
        <time>2019-02-14T11:56:08.000Z</time>
      </trkpt>
      <trkpt lat="43.38493340648710727691650390625" lon="-5.8953859470784664154052734375">
        <ele>475.399993896484375</ele>
        <time>2019-02-14T11:56:09.000Z</time>
      </trkpt>
      <trkpt lat="43.38495888747274875640869140625" lon="-5.895354934036731719970703125">
        <ele>475.79998779296875</ele>
        <time>2019-02-14T11:56:11.000Z</time>
      </trkpt>
      <trkpt lat="43.384993337094783782958984375" lon="-5.89534328319132328033447265625">
        <ele>476.399993896484375</ele>
        <time>2019-02-14T11:56:15.000Z</time>
      </trkpt>
      <trkpt lat="43.385016806423664093017578125" lon="-5.8953344821929931640625">
        <ele>476.600006103515625</ele>
        <time>2019-02-14T11:56:16.000Z</time>
      </trkpt>
      <trkpt lat="43.385122083127498626708984375" lon="-5.895330123603343963623046875">
        <ele>477</ele>
        <time>2019-02-14T11:56:22.000Z</time>
      </trkpt>
      <trkpt lat="43.3853069879114627838134765625" lon="-5.89532853104174137115478515625">
        <ele>475.79998779296875</ele>
        <time>2019-02-14T11:56:28.000Z</time>
      </trkpt>
      <trkpt lat="43.385514356195926666259765625" lon="-5.8953242562711238861083984375">
        <ele>475.600006103515625</ele>
        <time>2019-02-14T11:56:35.000Z</time>
      </trkpt>
      <trkpt lat="43.3855601213872432708740234375" lon="-5.895322076976299285888671875">
        <ele>475.20001220703125</ele>
        <time>2019-02-14T11:56:36.000Z</time>
      </trkpt>
      <trkpt lat="43.38566221296787261962890625" lon="-5.89536624960601329803466796875">
        <ele>474</ele>
        <time>2019-02-14T11:56:38.000Z</time>
      </trkpt>
      <trkpt lat="43.38566221296787261962890625" lon="-5.89536624960601329803466796875">
        <ele>473.20001220703125</ele>
        <time>2019-02-14T11:56:39.000Z</time>
      </trkpt>
      <trkpt lat="43.38577059097588062286376953125" lon="-5.895462892949581146240234375">
        <ele>471.600006103515625</ele>
        <time>2019-02-14T11:56:40.000Z</time>
      </trkpt>
      <trkpt lat="43.3858333714306354522705078125" lon="-5.8955163694918155670166015625">
        <ele>470.399993896484375</ele>
        <time>2019-02-14T11:56:41.000Z</time>
      </trkpt>
      <trkpt lat="43.38590369559824466705322265625" lon="-5.89556716382503509521484375">
        <ele>469.20001220703125</ele>
        <time>2019-02-14T11:56:42.000Z</time>
      </trkpt>
      <trkpt lat="43.38590369559824466705322265625" lon="-5.89556716382503509521484375">
        <ele>468</ele>
        <time>2019-02-14T11:56:43.000Z</time>
      </trkpt>
      <trkpt lat="43.38606580160558223724365234375" lon="-5.89562910608947277069091796875">
        <ele>466</ele>
        <time>2019-02-14T11:56:44.000Z</time>
      </trkpt>
      <trkpt lat="43.38606580160558223724365234375" lon="-5.89562910608947277069091796875">
        <ele>464</ele>
        <time>2019-02-14T11:56:45.000Z</time>
      </trkpt>
      <trkpt lat="43.38625053875148296356201171875" lon="-5.895627178251743316650390625">
        <ele>462.20001220703125</ele>
        <time>2019-02-14T11:56:46.000Z</time>
      </trkpt>
      <trkpt lat="43.3863456733524799346923828125" lon="-5.89560429565608501434326171875">
        <ele>461</ele>
        <time>2019-02-14T11:56:47.000Z</time>
      </trkpt>
      <trkpt lat="43.38643779046833515167236328125" lon="-5.8955636434257030487060546875">
        <ele>459.600006103515625</ele>
        <time>2019-02-14T11:56:49.000Z</time>
      </trkpt>
      <trkpt lat="43.38660123758018016815185546875" lon="-5.8954597078263759613037109375">
        <ele>459.20001220703125</ele>
        <time>2019-02-14T11:56:50.000Z</time>
      </trkpt>
      <trkpt lat="43.38673518039286136627197265625" lon="-5.89535317383706569671630859375">
        <ele>459</ele>
        <time>2019-02-14T11:56:52.000Z</time>
      </trkpt>
      <trkpt lat="43.38684196583926677703857421875" lon="-5.8952582068741321563720703125">
        <ele>461.399993896484375</ele>
        <time>2019-02-14T11:56:55.000Z</time>
      </trkpt>
      <trkpt lat="43.38692016899585723876953125" lon="-5.8951831050217151641845703125">
        <ele>462.399993896484375</ele>
        <time>2019-02-14T11:56:56.000Z</time>
      </trkpt>
      <trkpt lat="43.38692016899585723876953125" lon="-5.8951831050217151641845703125">
        <ele>463</ele>
        <time>2019-02-14T11:56:57.000Z</time>
      </trkpt>
      <trkpt lat="43.386968784034252166748046875" lon="-5.89512350969016551971435546875">
        <ele>464</ele>
        <time>2019-02-14T11:56:59.000Z</time>
      </trkpt>
      <trkpt lat="43.38697649538516998291015625" lon="-5.8951091766357421875">
        <ele>465</ele>
        <time>2019-02-14T11:57:00.000Z</time>
      </trkpt>
      <trkpt lat="43.38697649538516998291015625" lon="-5.8951091766357421875">
        <ele>466</ele>
        <time>2019-02-14T11:57:01.000Z</time>
      </trkpt>
      <trkpt lat="43.3870122022926807403564453125" lon="-5.89505662210285663604736328125">
        <ele>467.20001220703125</ele>
        <time>2019-02-14T11:57:04.000Z</time>
      </trkpt>
      <trkpt lat="43.38703609071671962738037109375" lon="-5.895036756992340087890625">
        <ele>468.399993896484375</ele>
        <time>2019-02-14T11:57:07.000Z</time>
      </trkpt>
      <trkpt lat="43.3870790898799896240234375" lon="-5.89498571120202541351318359375">
        <ele>469.399993896484375</ele>
        <time>2019-02-14T11:57:10.000Z</time>
      </trkpt>
      <trkpt lat="43.387097530066967010498046875" lon="-5.89496525935828685760498046875">
        <ele>470.600006103515625</ele>
        <time>2019-02-14T11:57:13.000Z</time>
      </trkpt>
      <trkpt lat="43.38712829165160655975341796875" lon="-5.89491982944309711456298828125">
        <ele>471.600006103515625</ele>
        <time>2019-02-14T11:57:16.000Z</time>
      </trkpt>
      <trkpt lat="43.38715695776045322418212890625" lon="-5.8948798477649688720703125">
        <ele>472.79998779296875</ele>
        <time>2019-02-14T11:57:20.000Z</time>
      </trkpt>
      <trkpt lat="43.387167267501354217529296875" lon="-5.89484070427715778350830078125">
        <ele>473.399993896484375</ele>
        <time>2019-02-14T11:57:23.000Z</time>
      </trkpt>
      <trkpt lat="43.38716718368232250213623046875" lon="-5.89482695795595645904541015625">
        <ele>474.20001220703125</ele>
        <time>2019-02-14T11:57:25.000Z</time>
      </trkpt>
      <trkpt lat="43.3871702849864959716796875" lon="-5.89479879476130008697509765625">
        <ele>474.600006103515625</ele>
        <time>2019-02-14T11:57:27.000Z</time>
      </trkpt>
      <trkpt lat="43.38718461804091930389404296875" lon="-5.89474230073392391204833984375">
        <ele>475.20001220703125</ele>
        <time>2019-02-14T11:57:30.000Z</time>
      </trkpt>
      <trkpt lat="43.3871888928115367889404296875" lon="-5.89471095241606235504150390625">
        <ele>475.600006103515625</ele>
        <time>2019-02-14T11:57:32.000Z</time>
      </trkpt>
      <trkpt lat="43.387187384068965911865234375" lon="-5.89466183446347713470458984375">
        <ele>476.20001220703125</ele>
        <time>2019-02-14T11:57:35.000Z</time>
      </trkpt>
      <trkpt lat="43.387186042964458465576171875" lon="-5.89464507065713405609130859375">
        <ele>476.399993896484375</ele>
        <time>2019-02-14T11:57:36.000Z</time>
      </trkpt>
      <trkpt lat="43.38719232939183712005615234375" lon="-5.8944907598197460174560546875">
        <ele>476.399993896484375</ele>
        <time>2019-02-14T11:57:41.000Z</time>
      </trkpt>
      <trkpt lat="43.38718260638415813446044921875" lon="-5.8943180926144123077392578125">
        <ele>475.399993896484375</ele>
        <time>2019-02-14T11:57:44.000Z</time>
      </trkpt>
      <trkpt lat="43.3871600590646266937255859375" lon="-5.894096978008747100830078125">
        <ele>474.399993896484375</ele>
        <time>2019-02-14T11:57:48.000Z</time>
      </trkpt>
      <trkpt lat="43.38711731135845184326171875" lon="-5.89386337436735630035400390625">
        <ele>474.79998779296875</ele>
        <time>2019-02-14T11:57:54.000Z</time>
      </trkpt>
      <trkpt lat="43.38709107600152492523193359375" lon="-5.8936240710318088531494140625">
        <ele>476.399993896484375</ele>
        <time>2019-02-14T11:58:04.000Z</time>
      </trkpt>
      <trkpt lat="43.3870919980108737945556640625" lon="-5.89359582401812076568603515625">
        <ele>476.600006103515625</ele>
        <time>2019-02-14T11:58:05.000Z</time>
      </trkpt>
      <trkpt lat="43.38709141127765178680419921875" lon="-5.89338384568691253662109375">
        <ele>476.20001220703125</ele>
        <time>2019-02-14T11:58:12.000Z</time>
      </trkpt>
      <trkpt lat="43.38709141127765178680419921875" lon="-5.89338384568691253662109375">
        <ele>476.399993896484375</ele>
        <time>2019-02-14T11:58:13.000Z</time>
      </trkpt>
      <trkpt lat="43.38702519424259662628173828125" lon="-5.89320673607289791107177734375">
        <ele>476.79998779296875</ele>
        <time>2019-02-14T11:58:20.000Z</time>
      </trkpt>
      <trkpt lat="43.38702519424259662628173828125" lon="-5.89320673607289791107177734375">
        <ele>477.399993896484375</ele>
        <time>2019-02-14T11:58:21.000Z</time>
      </trkpt>
      <trkpt lat="43.3869619108736515045166015625" lon="-5.8931268565356731414794921875">
        <ele>478.399993896484375</ele>
        <time>2019-02-14T11:58:26.000Z</time>
      </trkpt>
      <trkpt lat="43.38692042045295238494873046875" lon="-5.8930712006986141204833984375">
        <ele>479.399993896484375</ele>
        <time>2019-02-14T11:58:30.000Z</time>
      </trkpt>
      <trkpt lat="43.38692042045295238494873046875" lon="-5.8930712006986141204833984375">
        <ele>479.600006103515625</ele>
        <time>2019-02-14T11:58:31.000Z</time>
      </trkpt>
      <trkpt lat="43.38686929084360599517822265625" lon="-5.8930031396448612213134765625">
        <ele>480.600006103515625</ele>
        <time>2019-02-14T11:58:35.000Z</time>
      </trkpt>
      <trkpt lat="43.3868385292589664459228515625" lon="-5.8929652534425258636474609375">
        <ele>481.79998779296875</ele>
        <time>2019-02-14T11:58:39.000Z</time>
      </trkpt>
      <trkpt lat="43.38680709712207317352294921875" lon="-5.89294404722750186920166015625">
        <ele>482.600006103515625</ele>
        <time>2019-02-14T11:58:41.000Z</time>
      </trkpt>
      <trkpt lat="43.3867966197431087493896484375" lon="-5.8929352462291717529296875">
        <ele>483</ele>
        <time>2019-02-14T11:58:43.000Z</time>
      </trkpt>
      <trkpt lat="43.386752195656299591064453125" lon="-5.89288470335304737091064453125">
        <ele>484</ele>
        <time>2019-02-14T11:58:47.000Z</time>
      </trkpt>
      <trkpt lat="43.386723361909389495849609375" lon="-5.8928619883954524993896484375">
        <ele>485</ele>
        <time>2019-02-14T11:58:50.000Z</time>
      </trkpt>
      <trkpt lat="43.386723361909389495849609375" lon="-5.8928619883954524993896484375">
        <ele>485.20001220703125</ele>
        <time>2019-02-14T11:58:51.000Z</time>
      </trkpt>
      <trkpt lat="43.3866893313825130462646484375" lon="-5.8928234316408634185791015625">
        <ele>486.20001220703125</ele>
        <time>2019-02-14T11:58:55.000Z</time>
      </trkpt>
      <trkpt lat="43.38664080016314983367919921875" lon="-5.89276467449963092803955078125">
        <ele>487.20001220703125</ele>
        <time>2019-02-14T11:59:00.000Z</time>
      </trkpt>
      <trkpt lat="43.38664080016314983367919921875" lon="-5.89276467449963092803955078125">
        <ele>487.600006103515625</ele>
        <time>2019-02-14T11:59:01.000Z</time>
      </trkpt>
      <trkpt lat="43.38657726533710956573486328125" lon="-5.89268437586724758148193359375">
        <ele>488.79998779296875</ele>
        <time>2019-02-14T11:59:09.000Z</time>
      </trkpt>
      <trkpt lat="43.38651440106332302093505859375" lon="-5.8925971202552318572998046875">
        <ele>490</ele>
        <time>2019-02-14T11:59:16.000Z</time>
      </trkpt>
      <trkpt lat="43.38647089898586273193359375" lon="-5.89256065897643566131591796875">
        <ele>490.79998779296875</ele>
        <time>2019-02-14T11:59:20.000Z</time>
      </trkpt>
      <trkpt lat="43.386446423828601837158203125" lon="-5.89254699647426605224609375">
        <ele>491.20001220703125</ele>
        <time>2019-02-14T11:59:22.000Z</time>
      </trkpt>
      <trkpt lat="43.386348523199558258056640625" lon="-5.892489664256572723388671875">
        <ele>492.20001220703125</ele>
        <time>2019-02-14T11:59:31.000Z</time>
      </trkpt>
      <trkpt lat="43.3863232098519802093505859375" lon="-5.89247591793537139892578125">
        <ele>492.20001220703125</ele>
        <time>2019-02-14T11:59:32.000Z</time>
      </trkpt>
      <trkpt lat="43.38619790039956569671630859375" lon="-5.8924485929310321807861328125">
        <ele>493.20001220703125</ele>
        <time>2019-02-14T11:59:41.000Z</time>
      </trkpt>
      <trkpt lat="43.38618381880223751068115234375" lon="-5.892445407807826995849609375">
        <ele>493.20001220703125</ele>
        <time>2019-02-14T11:59:42.000Z</time>
      </trkpt>
      <trkpt lat="43.38608927093446254730224609375" lon="-5.8924261294305324554443359375">
        <ele>494.20001220703125</ele>
        <time>2019-02-14T11:59:49.000Z</time>
      </trkpt>
      <trkpt lat="43.386020623147487640380859375" lon="-5.89240861125290393829345703125">
        <ele>494.399993896484375</ele>
        <time>2019-02-14T11:59:52.000Z</time>
      </trkpt>
      <trkpt lat="43.3859284222126007080078125" lon="-5.89238346554338932037353515625">
        <ele>495.399993896484375</ele>
        <time>2019-02-14T11:59:58.000Z</time>
      </trkpt>
      <trkpt lat="43.38586874306201934814453125" lon="-5.89236603118479251861572265625">
        <ele>496</ele>
        <time>2019-02-14T12:00:02.000Z</time>
      </trkpt>
      <trkpt lat="43.38574209250509738922119140625" lon="-5.892316997051239013671875">
        <ele>495.600006103515625</ele>
        <time>2019-02-14T12:00:08.000Z</time>
      </trkpt>
      <trkpt lat="43.38570621795952320098876953125" lon="-5.89230316691100597381591796875">
        <ele>495.399993896484375</ele>
        <time>2019-02-14T12:00:09.000Z</time>
      </trkpt>
      <trkpt lat="43.3856033720076084136962890625" lon="-5.89227014221251010894775390625">
        <ele>495</ele>
        <time>2019-02-14T12:00:13.000Z</time>
      </trkpt>
      <trkpt lat="43.38554277084767818450927734375" lon="-5.89224818162620067596435546875">
        <ele>495.399993896484375</ele>
        <time>2019-02-14T12:00:15.000Z</time>
      </trkpt>
      <trkpt lat="43.38549499399960041046142578125" lon="-5.8922249637544155120849609375">
        <ele>496.600006103515625</ele>
        <time>2019-02-14T12:00:19.000Z</time>
      </trkpt>
      <trkpt lat="43.38542927987873554229736328125" lon="-5.89220074005424976348876953125">
        <ele>497.20001220703125</ele>
        <time>2019-02-14T12:00:22.000Z</time>
      </trkpt>
      <trkpt lat="43.38536105118691921234130859375" lon="-5.89219571091234683990478515625">
        <ele>497.79998779296875</ele>
        <time>2019-02-14T12:00:27.000Z</time>
      </trkpt>
      <trkpt lat="43.3852734602987766265869140625" lon="-5.89218766428530216217041015625">
        <ele>498</ele>
        <time>2019-02-14T12:00:31.000Z</time>
      </trkpt>
      <trkpt lat="43.38508025743067264556884765625" lon="-5.89222186245024204254150390625">
        <ele>497.399993896484375</ele>
        <time>2019-02-14T12:00:35.000Z</time>
      </trkpt>
      <trkpt lat="43.384940363466739654541015625" lon="-5.8921911008656024932861328125">
        <ele>497.79998779296875</ele>
        <time>2019-02-14T12:00:40.000Z</time>
      </trkpt>
      <trkpt lat="43.3849016390740871429443359375" lon="-5.89217106811702251434326171875">
        <ele>498.79998779296875</ele>
        <time>2019-02-14T12:00:43.000Z</time>
      </trkpt>
      <trkpt lat="43.3848013915121555328369140625" lon="-5.8920858241617679595947265625">
        <ele>499.399993896484375</ele>
        <time>2019-02-14T12:00:48.000Z</time>
      </trkpt>
      <trkpt lat="43.38477331213653087615966796875" lon="-5.892049111425876617431640625">
        <ele>499.79998779296875</ele>
        <time>2019-02-14T12:00:50.000Z</time>
      </trkpt>
      <trkpt lat="43.38470659218728542327880859375" lon="-5.891915671527385711669921875">
        <ele>499.600006103515625</ele>
        <time>2019-02-14T12:00:57.000Z</time>
      </trkpt>
      <trkpt lat="43.38468027301132678985595703125" lon="-5.89180578477680683135986328125">
        <ele>499.399993896484375</ele>
        <time>2019-02-14T12:00:58.000Z</time>
      </trkpt>
      <trkpt lat="43.38467742316424846649169921875" lon="-5.89166580699384212493896484375">
        <ele>498.79998779296875</ele>
        <time>2019-02-14T12:01:00.000Z</time>
      </trkpt>
      <trkpt lat="43.38471044786274433135986328125" lon="-5.89155189692974090576171875">
        <ele>497.20001220703125</ele>
        <time>2019-02-14T12:01:02.000Z</time>
      </trkpt>
      <trkpt lat="43.38474757969379425048828125" lon="-5.89149833656847476959228515625">
        <ele>496.79998779296875</ele>
        <time>2019-02-14T12:01:04.000Z</time>
      </trkpt>
      <trkpt lat="43.38487037457525730133056640625" lon="-5.89136271737515926361083984375">
        <ele>498.20001220703125</ele>
        <time>2019-02-14T12:01:11.000Z</time>
      </trkpt>
      <trkpt lat="43.38488680310547351837158203125" lon="-5.89134159497916698455810546875">
        <ele>498.399993896484375</ele>
        <time>2019-02-14T12:01:13.000Z</time>
      </trkpt>
      <trkpt lat="43.38498772121965885162353515625" lon="-5.8911436982452869415283203125">
        <ele>498.600006103515625</ele>
        <time>2019-02-14T12:01:20.000Z</time>
      </trkpt>
      <trkpt lat="43.38499962352216243743896484375" lon="-5.89107991196215152740478515625">
        <ele>498.600006103515625</ele>
        <time>2019-02-14T12:01:22.000Z</time>
      </trkpt>
      <trkpt lat="43.3849562890827655792236328125" lon="-5.890887044370174407958984375">
        <ele>499</ele>
        <time>2019-02-14T12:01:28.000Z</time>
      </trkpt>
      <trkpt lat="43.3849308080971240997314453125" lon="-5.890809595584869384765625">
        <ele>498.399993896484375</ele>
        <time>2019-02-14T12:01:31.000Z</time>
      </trkpt>
      <trkpt lat="43.38490641675889492034912109375" lon="-5.8906149677932262420654296875">
        <ele>498</ele>
        <time>2019-02-14T12:01:34.000Z</time>
      </trkpt>
      <trkpt lat="43.3849445544183254241943359375" lon="-5.89036443270742893218994140625">
        <ele>498.399993896484375</ele>
        <time>2019-02-14T12:01:41.000Z</time>
      </trkpt>
      <trkpt lat="43.38503918610513210296630859375" lon="-5.89017567224800586700439453125">
        <ele>498.600006103515625</ele>
        <time>2019-02-14T12:01:47.000Z</time>
      </trkpt>
      <trkpt lat="43.38506164960563182830810546875" lon="-5.89014415629208087921142578125">
        <ele>498.600006103515625</ele>
        <time>2019-02-14T12:01:49.000Z</time>
      </trkpt>
      <trkpt lat="43.38515887968242168426513671875" lon="-5.890013314783573150634765625">
        <ele>499</ele>
        <time>2019-02-14T12:01:52.000Z</time>
      </trkpt>
      <trkpt lat="43.385215289890766143798828125" lon="-5.88994550518691539764404296875">
        <ele>499.20001220703125</ele>
        <time>2019-02-14T12:01:55.000Z</time>
      </trkpt>
      <trkpt lat="43.38528108783066272735595703125" lon="-5.8898689784109592437744140625">
        <ele>498.399993896484375</ele>
        <time>2019-02-14T12:01:57.000Z</time>
      </trkpt>
      <trkpt lat="43.38544721715152263641357421875" lon="-5.88969840668141841888427734375">
        <ele>497.399993896484375</ele>
        <time>2019-02-14T12:02:00.000Z</time>
      </trkpt>
      <trkpt lat="43.38544721715152263641357421875" lon="-5.88969840668141841888427734375">
        <ele>496.79998779296875</ele>
        <time>2019-02-14T12:02:01.000Z</time>
      </trkpt>
      <trkpt lat="43.38553153909742832183837890625" lon="-5.8896215446293354034423828125">
        <ele>496.600006103515625</ele>
        <time>2019-02-14T12:02:02.000Z</time>
      </trkpt>
      <trkpt lat="43.3857304416596889495849609375" lon="-5.8894807286560535430908203125">
        <ele>497.20001220703125</ele>
        <time>2019-02-14T12:02:08.000Z</time>
      </trkpt>
      <trkpt lat="43.38579607196152210235595703125" lon="-5.88944024406373500823974609375">
        <ele>497</ele>
        <time>2019-02-14T12:02:10.000Z</time>
      </trkpt>
      <trkpt lat="43.38600645773112773895263671875" lon="-5.8893181197345256805419921875">
        <ele>497.399993896484375</ele>
        <time>2019-02-14T12:02:17.000Z</time>
      </trkpt>
      <trkpt lat="43.3860871754586696624755859375" lon="-5.88925818912684917449951171875">
        <ele>498</ele>
        <time>2019-02-14T12:02:21.000Z</time>
      </trkpt>
      <trkpt lat="43.3862169273197650909423828125" lon="-5.88913128711283206939697265625">
        <ele>498.79998779296875</ele>
        <time>2019-02-14T12:02:26.000Z</time>
      </trkpt>
      <trkpt lat="43.3862169273197650909423828125" lon="-5.88913128711283206939697265625">
        <ele>498.79998779296875</ele>
        <time>2019-02-14T12:02:27.000Z</time>
      </trkpt>
      <trkpt lat="43.38629848323762416839599609375" lon="-5.8890549279749393463134765625">
        <ele>499.399993896484375</ele>
        <time>2019-02-14T12:02:31.000Z</time>
      </trkpt>
      <trkpt lat="43.3863322623074054718017578125" lon="-5.889013521373271942138671875">
        <ele>499.600006103515625</ele>
        <time>2019-02-14T12:02:32.000Z</time>
      </trkpt>
      <trkpt lat="43.386365287005901336669921875" lon="-5.88897161185741424560546875">
        <ele>500</ele>
        <time>2019-02-14T12:02:34.000Z</time>
      </trkpt>
      <trkpt lat="43.38641599752008914947509765625" lon="-5.88886423967778682708740234375">
        <ele>501</ele>
        <time>2019-02-14T12:02:38.000Z</time>
      </trkpt>
      <trkpt lat="43.38641599752008914947509765625" lon="-5.88886423967778682708740234375">
        <ele>501</ele>
        <time>2019-02-14T12:02:39.000Z</time>
      </trkpt>
      <trkpt lat="43.3864563144743442535400390625" lon="-5.88863306678831577301025390625">
        <ele>501.399993896484375</ele>
        <time>2019-02-14T12:02:46.000Z</time>
      </trkpt>
      <trkpt lat="43.38645505718886852264404296875" lon="-5.88853013701736927032470703125">
        <ele>502</ele>
        <time>2019-02-14T12:02:50.000Z</time>
      </trkpt>
      <trkpt lat="43.3864536322653293609619140625" lon="-5.88842888362705707550048828125">
        <ele>502.20001220703125</ele>
        <time>2019-02-14T12:02:53.000Z</time>
      </trkpt>
      <trkpt lat="43.3864693902432918548583984375" lon="-5.88826376013457775115966796875">
        <ele>501.600006103515625</ele>
        <time>2019-02-14T12:02:56.000Z</time>
      </trkpt>
      <trkpt lat="43.3864693902432918548583984375" lon="-5.88826376013457775115966796875">
        <ele>501</ele>
        <time>2019-02-14T12:02:57.000Z</time>
      </trkpt>
      <trkpt lat="43.38650601916015148162841796875" lon="-5.88815378956496715545654296875">
        <ele>500.399993896484375</ele>
        <time>2019-02-14T12:02:58.000Z</time>
      </trkpt>
      <trkpt lat="43.3865294046700000762939453125" lon="-5.888100564479827880859375">
        <ele>499.79998779296875</ele>
        <time>2019-02-14T12:02:59.000Z</time>
      </trkpt>
      <trkpt lat="43.38655631057918071746826171875" lon="-5.8880487643182277679443359375">
        <ele>499.399993896484375</ele>
        <time>2019-02-14T12:03:00.000Z</time>
      </trkpt>
      <trkpt lat="43.3866350166499614715576171875" lon="-5.8879528753459453582763671875">
        <ele>498.600006103515625</ele>
        <time>2019-02-14T12:03:02.000Z</time>
      </trkpt>
      <trkpt lat="43.3866350166499614715576171875" lon="-5.8879528753459453582763671875">
        <ele>498</ele>
        <time>2019-02-14T12:03:03.000Z</time>
      </trkpt>
      <trkpt lat="43.3867168240249156951904296875" lon="-5.88784910738468170166015625">
        <ele>497.399993896484375</ele>
        <time>2019-02-14T12:03:04.000Z</time>
      </trkpt>
      <trkpt lat="43.38677960447967052459716796875" lon="-5.8877496980130672454833984375">
        <ele>496.20001220703125</ele>
        <time>2019-02-14T12:03:06.000Z</time>
      </trkpt>
      <trkpt lat="43.38677960447967052459716796875" lon="-5.8877496980130672454833984375">
        <ele>496</ele>
        <time>2019-02-14T12:03:07.000Z</time>
      </trkpt>
      <trkpt lat="43.38684414513409137725830078125" lon="-5.8876571618020534515380859375">
        <ele>495.600006103515625</ele>
        <time>2019-02-14T12:03:08.000Z</time>
      </trkpt>
      <trkpt lat="43.38691413402557373046875" lon="-5.88756018318235874176025390625">
        <ele>495.600006103515625</ele>
        <time>2019-02-14T12:03:10.000Z</time>
      </trkpt>
      <trkpt lat="43.38699049316346645355224609375" lon="-5.8874593488872051239013671875">
        <ele>495</ele>
        <time>2019-02-14T12:03:13.000Z</time>
      </trkpt>
      <trkpt lat="43.3871520124375820159912109375" lon="-5.887270756065845489501953125">
        <ele>494.399993896484375</ele>
        <time>2019-02-14T12:03:16.000Z</time>
      </trkpt>
      <trkpt lat="43.3871944248676300048828125" lon="-5.88724552653729915618896484375">
        <ele>493.79998779296875</ele>
        <time>2019-02-14T12:03:17.000Z</time>
      </trkpt>
      <trkpt lat="43.38724010623991489410400390625" lon="-5.88722775690257549285888671875">
        <ele>493</ele>
        <time>2019-02-14T12:03:18.000Z</time>
      </trkpt>
      <trkpt lat="43.38724010623991489410400390625" lon="-5.88722775690257549285888671875">
        <ele>492.399993896484375</ele>
        <time>2019-02-14T12:03:19.000Z</time>
      </trkpt>
      <trkpt lat="43.38733934797346591949462890625" lon="-5.887188613414764404296875">
        <ele>492</ele>
        <time>2019-02-14T12:03:20.000Z</time>
      </trkpt>
      <trkpt lat="43.387437164783477783203125" lon="-5.8871398307383060455322265625">
        <ele>490.600006103515625</ele>
        <time>2019-02-14T12:03:22.000Z</time>
      </trkpt>
      <trkpt lat="43.387533724308013916015625" lon="-5.88708979077637195587158203125">
        <ele>489</ele>
        <time>2019-02-14T12:03:24.000Z</time>
      </trkpt>
      <trkpt lat="43.387533724308013916015625" lon="-5.88708979077637195587158203125">
        <ele>487.600006103515625</ele>
        <time>2019-02-14T12:03:25.000Z</time>
      </trkpt>
      <trkpt lat="43.387634642422199249267578125" lon="-5.88704268448054790496826171875">
        <ele>486.600006103515625</ele>
        <time>2019-02-14T12:03:26.000Z</time>
      </trkpt>
      <trkpt lat="43.38772910647094249725341796875" lon="-5.88699943386018276214599609375">
        <ele>485.399993896484375</ele>
        <time>2019-02-14T12:03:28.000Z</time>
      </trkpt>
      <trkpt lat="43.3878081478178501129150390625" lon="-5.88695232756435871124267578125">
        <ele>484.399993896484375</ele>
        <time>2019-02-14T12:03:31.000Z</time>
      </trkpt>
      <trkpt lat="43.38788115419447422027587890625" lon="-5.886902622878551483154296875">
        <ele>484</ele>
        <time>2019-02-14T12:03:32.000Z</time>
      </trkpt>
      <trkpt lat="43.38794368319213390350341796875" lon="-5.8868585340678691864013671875">
        <ele>482.79998779296875</ele>
        <time>2019-02-14T12:03:34.000Z</time>
      </trkpt>
      <trkpt lat="43.3880012668669223785400390625" lon="-5.88681888766586780548095703125">
        <ele>481.79998779296875</ele>
        <time>2019-02-14T12:03:36.000Z</time>
      </trkpt>
      <trkpt lat="43.3880012668669223785400390625" lon="-5.88681888766586780548095703125">
        <ele>480.79998779296875</ele>
        <time>2019-02-14T12:03:37.000Z</time>
      </trkpt>
      <trkpt lat="43.38805876672267913818359375" lon="-5.88677379302680492401123046875">
        <ele>479.399993896484375</ele>
        <time>2019-02-14T12:03:38.000Z</time>
      </trkpt>
      <trkpt lat="43.38810377754271030426025390625" lon="-5.8867234177887439727783203125">
        <ele>478.20001220703125</ele>
        <time>2019-02-14T12:03:40.000Z</time>
      </trkpt>
      <trkpt lat="43.38812724687159061431884765625" lon="-5.886682011187076568603515625">
        <ele>476.79998779296875</ele>
        <time>2019-02-14T12:03:42.000Z</time>
      </trkpt>
      <trkpt lat="43.3881318569183349609375" lon="-5.8866741321980953216552734375">
        <ele>476.600006103515625</ele>
        <time>2019-02-14T12:03:44.000Z</time>
      </trkpt>
      <trkpt lat="43.3881318569183349609375" lon="-5.8866741321980953216552734375">
        <ele>476.399993896484375</ele>
        <time>2019-02-14T12:03:45.000Z</time>
      </trkpt>
      <trkpt lat="43.388106711208820343017578125" lon="-5.88662342168390750885009765625">
        <ele>476</ele>
        <time>2019-02-14T12:04:35.000Z</time>
      </trkpt>
      <trkpt lat="43.388096652925014495849609375" lon="-5.88661185465753078460693359375">
        <ele>476</ele>
        <time>2019-02-14T12:04:36.000Z</time>
      </trkpt>
      <trkpt lat="43.3880760334432125091552734375" lon="-5.886593498289585113525390625">
        <ele>475.79998779296875</ele>
        <time>2019-02-14T12:04:38.000Z</time>
      </trkpt>
      <trkpt lat="43.3880760334432125091552734375" lon="-5.886593498289585113525390625">
        <ele>475.79998779296875</ele>
        <time>2019-02-14T12:04:39.000Z</time>
      </trkpt>
      <trkpt lat="43.3880455233156681060791015625" lon="-5.8865785785019397735595703125">
        <ele>475.79998779296875</ele>
        <time>2019-02-14T12:04:43.000Z</time>
      </trkpt>
      <trkpt lat="43.387927673757076263427734375" lon="-5.88649802841246128082275390625">
        <ele>476.20001220703125</ele>
        <time>2019-02-14T12:04:52.000Z</time>
      </trkpt>
      <trkpt lat="43.387865312397480010986328125" lon="-5.8864642493426799774169921875">
        <ele>476.399993896484375</ele>
        <time>2019-02-14T12:04:57.000Z</time>
      </trkpt>
      <trkpt lat="43.38781175203621387481689453125" lon="-5.88644539006054401397705078125">
        <ele>476.600006103515625</ele>
        <time>2019-02-14T12:04:59.000Z</time>
      </trkpt>
      <trkpt lat="43.38776246644556522369384765625" lon="-5.886431224644184112548828125">
        <ele>477</ele>
        <time>2019-02-14T12:05:02.000Z</time>
      </trkpt>
      <trkpt lat="43.38776246644556522369384765625" lon="-5.886431224644184112548828125">
        <ele>477.20001220703125</ele>
        <time>2019-02-14T12:05:03.000Z</time>
      </trkpt>
      <trkpt lat="43.38771544396877288818359375" lon="-5.886402390897274017333984375">
        <ele>477.600006103515625</ele>
        <time>2019-02-14T12:05:06.000Z</time>
      </trkpt>
      <trkpt lat="43.38771544396877288818359375" lon="-5.886402390897274017333984375">
        <ele>478</ele>
        <time>2019-02-14T12:05:07.000Z</time>
      </trkpt>
      <trkpt lat="43.38765467517077922821044921875" lon="-5.886389315128326416015625">
        <ele>478.79998779296875</ele>
        <time>2019-02-14T12:05:10.000Z</time>
      </trkpt>
      <trkpt lat="43.387640006840229034423828125" lon="-5.8863861300051212310791015625">
        <ele>479</ele>
        <time>2019-02-14T12:05:11.000Z</time>
      </trkpt>
      <trkpt lat="43.38755358941853046417236328125" lon="-5.88639124296605587005615234375">
        <ele>479.600006103515625</ele>
        <time>2019-02-14T12:05:17.000Z</time>
      </trkpt>
      <trkpt lat="43.38754168711602687835693359375" lon="-5.88639576919376850128173828125">
        <ele>479.79998779296875</ele>
        <time>2019-02-14T12:05:18.000Z</time>
      </trkpt>
      <trkpt lat="43.38750447146594524383544921875" lon="-5.886391662061214447021484375">
        <ele>480</ele>
        <time>2019-02-14T12:05:22.000Z</time>
      </trkpt>
      <trkpt lat="43.38746641762554645538330078125" lon="-5.886387638747692108154296875">
        <ele>480.79998779296875</ele>
        <time>2019-02-14T12:05:27.000Z</time>
      </trkpt>
      <trkpt lat="43.387414030730724334716796875" lon="-5.8863908238708972930908203125">
        <ele>481.20001220703125</ele>
        <time>2019-02-14T12:05:31.000Z</time>
      </trkpt>
      <trkpt lat="43.38735242374241352081298828125" lon="-5.88640767149627208709716796875">
        <ele>481.600006103515625</ele>
        <time>2019-02-14T12:05:34.000Z</time>
      </trkpt>
      <trkpt lat="43.38726776652038097381591796875" lon="-5.88645243085920810699462890625">
        <ele>482.399993896484375</ele>
        <time>2019-02-14T12:05:40.000Z</time>
      </trkpt>
      <trkpt lat="43.3872529305517673492431640625" lon="-5.88646081276237964630126953125">
        <ele>482.600006103515625</ele>
        <time>2019-02-14T12:05:41.000Z</time>
      </trkpt>
      <trkpt lat="43.38716156780719757080078125" lon="-5.88649467565119266510009765625">
        <ele>483.600006103515625</ele>
        <time>2019-02-14T12:05:49.000Z</time>
      </trkpt>
      <trkpt lat="43.38713533245027065277099609375" lon="-5.88650372810661792755126953125">
        <ele>483.79998779296875</ele>
        <time>2019-02-14T12:05:50.000Z</time>
      </trkpt>
      <trkpt lat="43.3870655111968517303466796875" lon="-5.8865113556385040283203125">
        <ele>484.600006103515625</ele>
        <time>2019-02-14T12:05:56.000Z</time>
      </trkpt>
      <trkpt lat="43.3870655111968517303466796875" lon="-5.8865113556385040283203125">
        <ele>485</ele>
        <time>2019-02-14T12:05:57.000Z</time>
      </trkpt>
      <trkpt lat="43.3870105259120464324951171875" lon="-5.88652166537940502166748046875">
        <ele>485.79998779296875</ele>
        <time>2019-02-14T12:06:01.000Z</time>
      </trkpt>
      <trkpt lat="43.38689737021923065185546875" lon="-5.8865168876945972442626953125">
        <ele>487</ele>
        <time>2019-02-14T12:06:08.000Z</time>
      </trkpt>
      <trkpt lat="43.38685520924627780914306640625" lon="-5.88651613332331180572509765625">
        <ele>488.20001220703125</ele>
        <time>2019-02-14T12:06:13.000Z</time>
      </trkpt>
      <trkpt lat="43.38679167442023754119873046875" lon="-5.8865276165306568145751953125">
        <ele>488.600006103515625</ele>
        <time>2019-02-14T12:06:17.000Z</time>
      </trkpt>
      <trkpt lat="43.38675512932240962982177734375" lon="-5.886533148586750030517578125">
        <ele>489.399993896484375</ele>
        <time>2019-02-14T12:06:20.000Z</time>
      </trkpt>
      <trkpt lat="43.38669964112341403961181640625" lon="-5.8865507505834102630615234375">
        <ele>490.20001220703125</ele>
        <time>2019-02-14T12:06:26.000Z</time>
      </trkpt>
      <trkpt lat="43.38669964112341403961181640625" lon="-5.8865507505834102630615234375">
        <ele>490.399993896484375</ele>
        <time>2019-02-14T12:06:27.000Z</time>
      </trkpt>
      <trkpt lat="43.38659738190472126007080078125" lon="-5.8865797519683837890625">
        <ele>491</ele>
        <time>2019-02-14T12:06:36.000Z</time>
      </trkpt>
      <trkpt lat="43.386541642248630523681640625" lon="-5.88659240864217281341552734375">
        <ele>491.600006103515625</ele>
        <time>2019-02-14T12:06:42.000Z</time>
      </trkpt>
      <trkpt lat="43.386514149606227874755859375" lon="-5.886592157185077667236328125">
        <ele>492</ele>
        <time>2019-02-14T12:06:45.000Z</time>
      </trkpt>
      <trkpt lat="43.38643711991608142852783203125" lon="-5.88660028763115406036376953125">
        <ele>492.600006103515625</ele>
        <time>2019-02-14T12:06:52.000Z</time>
      </trkpt>
      <trkpt lat="43.3864217810332775115966796875" lon="-5.886593498289585113525390625">
        <ele>492.79998779296875</ele>
        <time>2019-02-14T12:06:55.000Z</time>
      </trkpt>
      <trkpt lat="43.38634751737117767333984375" lon="-5.8865708671510219573974609375">
        <ele>493.600006103515625</ele>
        <time>2019-02-14T12:07:00.000Z</time>
      </trkpt>
      <trkpt lat="43.3863245509564876556396484375" lon="-5.88655066676437854766845703125">
        <ele>493.79998779296875</ele>
        <time>2019-02-14T12:07:02.000Z</time>
      </trkpt>
      <trkpt lat="43.3863245509564876556396484375" lon="-5.88655066676437854766845703125">
        <ele>494.399993896484375</ele>
        <time>2019-02-14T12:07:03.000Z</time>
      </trkpt>
      <trkpt lat="43.38629513047635555267333984375" lon="-5.88652074337005615234375">
        <ele>494.600006103515625</ele>
        <time>2019-02-14T12:07:04.000Z</time>
      </trkpt>
      <trkpt lat="43.3862923644483089447021484375" lon="-5.8865081705152988433837890625">
        <ele>494.79998779296875</ele>
        <time>2019-02-14T12:07:05.000Z</time>
      </trkpt>
      <trkpt lat="43.386290855705738067626953125" lon="-5.8864669315516948699951171875">
        <ele>495.20001220703125</ele>
        <time>2019-02-14T12:07:08.000Z</time>
      </trkpt>
      <trkpt lat="43.386290855705738067626953125" lon="-5.8864669315516948699951171875">
        <ele>495.399993896484375</ele>
        <time>2019-02-14T12:07:09.000Z</time>
      </trkpt>
      <trkpt lat="43.38629161007702350616455078125" lon="-5.88643935509026050567626953125">
        <ele>495.399993896484375</ele>
        <time>2019-02-14T12:07:10.000Z</time>
      </trkpt>
      <trkpt lat="43.386296220123767852783203125" lon="-5.8864085935056209564208984375">
        <ele>495.79998779296875</ele>
        <time>2019-02-14T12:07:12.000Z</time>
      </trkpt>
      <trkpt lat="43.38629932142794132232666015625" lon="-5.8863777481019496917724609375">
        <ele>496.20001220703125</ele>
        <time>2019-02-14T12:07:14.000Z</time>
      </trkpt>
      <trkpt lat="43.3863047696650028228759765625" lon="-5.8863469026982784271240234375">
        <ele>496.79998779296875</ele>
        <time>2019-02-14T12:07:16.000Z</time>
      </trkpt>
      <trkpt lat="43.38630585931241512298583984375" lon="-5.88625947944819927215576171875">
        <ele>497.79998779296875</ele>
        <time>2019-02-14T12:07:23.000Z</time>
      </trkpt>
      <trkpt lat="43.38623327203094959259033203125" lon="-5.88514938019216060638427734375">
        <ele>515.79998779296875</ele>
        <time>2019-02-14T12:09:57.000Z</time>
      </trkpt>
      <trkpt lat="43.3862383849918842315673828125" lon="-5.8851137571036815643310546875">
        <ele>515.79998779296875</ele>
        <time>2019-02-14T12:09:58.000Z</time>
      </trkpt>
      <trkpt lat="43.38624157011508941650390625" lon="-5.88508349843323230743408203125">
        <ele>516</ele>
        <time>2019-02-14T12:10:00.000Z</time>
      </trkpt>
      <trkpt lat="43.38624157011508941650390625" lon="-5.88508349843323230743408203125">
        <ele>516.20001220703125</ele>
        <time>2019-02-14T12:10:01.000Z</time>
      </trkpt>
      <trkpt lat="43.38627518154680728912353515625" lon="-5.8849591948091983795166015625">
        <ele>516.79998779296875</ele>
        <time>2019-02-14T12:10:09.000Z</time>
      </trkpt>
      <trkpt lat="43.3862797915935516357421875" lon="-5.884929187595844268798828125">
        <ele>517</ele>
        <time>2019-02-14T12:10:10.000Z</time>
      </trkpt>
      <trkpt lat="43.38628406636416912078857421875" lon="-5.8848609589040279388427734375">
        <ele>518</ele>
        <time>2019-02-14T12:10:14.000Z</time>
      </trkpt>
      <trkpt lat="43.38629110716283321380615234375" lon="-5.8848059736192226409912109375">
        <ele>518.5999755859375</ele>
        <time>2019-02-14T12:10:17.000Z</time>
      </trkpt>
      <trkpt lat="43.38629412464797496795654296875" lon="-5.88478828780353069305419921875">
        <ele>519.4000244140625</ele>
        <time>2019-02-14T12:10:19.000Z</time>
      </trkpt>
      <trkpt lat="43.386303596198558807373046875" lon="-5.88474621064960956573486328125">
        <ele>520.5999755859375</ele>
        <time>2019-02-14T12:10:21.000Z</time>
      </trkpt>
      <trkpt lat="43.3863091282546520233154296875" lon="-5.88469776324927806854248046875">
        <ele>521</ele>
        <time>2019-02-14T12:10:22.000Z</time>
      </trkpt>
      <trkpt lat="43.38631424121558666229248046875" lon="-5.884675048291683197021484375">
        <ele>521.4000244140625</ele>
        <time>2019-02-14T12:10:23.000Z</time>
      </trkpt>
      <trkpt lat="43.3863195218145847320556640625" lon="-5.88465468026697635650634765625">
        <ele>521.79998779296875</ele>
        <time>2019-02-14T12:10:25.000Z</time>
      </trkpt>
      <trkpt lat="43.386347182095050811767578125" lon="-5.88457991369068622589111328125">
        <ele>523</ele>
        <time>2019-02-14T12:10:29.000Z</time>
      </trkpt>
      <trkpt lat="43.38635313324630260467529296875" lon="-5.88456650264561176300048828125">
        <ele>523.20001220703125</ele>
        <time>2019-02-14T12:10:30.000Z</time>
      </trkpt>
      <trkpt lat="43.38636553846299648284912109375" lon="-5.88451269082725048065185546875">
        <ele>524.20001220703125</ele>
        <time>2019-02-14T12:10:34.000Z</time>
      </trkpt>
      <trkpt lat="43.38636637665331363677978515625" lon="-5.88449777103960514068603515625">
        <ele>524.4000244140625</ele>
        <time>2019-02-14T12:10:35.000Z</time>
      </trkpt>
      <trkpt lat="43.3863527141511440277099609375" lon="-5.88446055538952350616455078125">
        <ele>524.79998779296875</ele>
        <time>2019-02-14T12:10:38.000Z</time>
      </trkpt>
      <trkpt lat="43.3863527141511440277099609375" lon="-5.88446055538952350616455078125">
        <ele>525.20001220703125</ele>
        <time>2019-02-14T12:10:39.000Z</time>
      </trkpt>
      <trkpt lat="43.38633217848837375640869140625" lon="-5.8844499103724956512451171875">
        <ele>525.4000244140625</ele>
        <time>2019-02-14T12:10:40.000Z</time>
      </trkpt>
      <trkpt lat="43.38627099059522151947021484375" lon="-5.88443733751773834228515625">
        <ele>526.5999755859375</ele>
        <time>2019-02-14T12:10:46.000Z</time>
      </trkpt>
      <trkpt lat="43.3862628601491451263427734375" lon="-5.88443825952708721160888671875">
        <ele>526.79998779296875</ele>
        <time>2019-02-14T12:10:47.000Z</time>
      </trkpt>
      <trkpt lat="43.38622170500457286834716796875" lon="-5.8844170533120632171630859375">
        <ele>527.5999755859375</ele>
        <time>2019-02-14T12:10:52.000Z</time>
      </trkpt>
      <trkpt lat="43.38618532754480838775634765625" lon="-5.88439752347767353057861328125">
        <ele>528.4000244140625</ele>
        <time>2019-02-14T12:10:56.000Z</time>
      </trkpt>
      <trkpt lat="43.38613964617252349853515625" lon="-5.88438344188034534454345703125">
        <ele>528.5999755859375</ele>
        <time>2019-02-14T12:11:00.000Z</time>
      </trkpt>
      <trkpt lat="43.38609798811376094818115234375" lon="-5.88437790982425212860107421875">
        <ele>529</ele>
        <time>2019-02-14T12:11:04.000Z</time>
      </trkpt>
      <trkpt lat="43.38603545911610126495361328125" lon="-5.88437941856682300567626953125">
        <ele>529.4000244140625</ele>
        <time>2019-02-14T12:11:13.000Z</time>
      </trkpt>
      <trkpt lat="43.38599212467670440673828125" lon="-5.8843791671097278594970703125">
        <ele>529.79998779296875</ele>
        <time>2019-02-14T12:11:18.000Z</time>
      </trkpt>
      <trkpt lat="43.38594392873346805572509765625" lon="-5.88438277132809162139892578125">
        <ele>530.4000244140625</ele>
        <time>2019-02-14T12:11:22.000Z</time>
      </trkpt>
      <trkpt lat="43.38591576553881168365478515625" lon="-5.88438964448869228363037109375">
        <ele>530.5999755859375</ele>
        <time>2019-02-14T12:11:24.000Z</time>
      </trkpt>
      <trkpt lat="43.385886512696743011474609375" lon="-5.8843949250876903533935546875">
        <ele>531</ele>
        <time>2019-02-14T12:11:27.000Z</time>
      </trkpt>
      <trkpt lat="43.38585524819791316986083984375" lon="-5.88440892286598682403564453125">
        <ele>531</ele>
        <time>2019-02-14T12:11:28.000Z</time>
      </trkpt>
      <trkpt lat="43.3857911266386508941650390625" lon="-5.8844405226409435272216796875">
        <ele>532</ele>
        <time>2019-02-14T12:11:32.000Z</time>
      </trkpt>
      <trkpt lat="43.38575265370309352874755859375" lon="-5.884461812674999237060546875">
        <ele>532.4000244140625</ele>
        <time>2019-02-14T12:11:35.000Z</time>
      </trkpt>
      <trkpt lat="43.38571661151945590972900390625" lon="-5.88447212241590023040771484375">
        <ele>533</ele>
        <time>2019-02-14T12:11:39.000Z</time>
      </trkpt>
      <trkpt lat="43.3856583572924137115478515625" lon="-5.88450699113309383392333984375">
        <ele>533.4000244140625</ele>
        <time>2019-02-14T12:11:42.000Z</time>
      </trkpt>
      <trkpt lat="43.38562675751745700836181640625" lon="-5.88451470248401165008544921875">
        <ele>534.20001220703125</ele>
        <time>2019-02-14T12:11:45.000Z</time>
      </trkpt>
      <trkpt lat="43.38556758128106594085693359375" lon="-5.88452476076781749725341796875">
        <ele>534.79998779296875</ele>
        <time>2019-02-14T12:11:49.000Z</time>
      </trkpt>
      <trkpt lat="43.38553011417388916015625" lon="-5.88453129865229129791259765625">
        <ele>535.20001220703125</ele>
        <time>2019-02-14T12:11:51.000Z</time>
      </trkpt>
      <trkpt lat="43.38547554798424243927001953125" lon="-5.88454990647733211517333984375">
        <ele>536</ele>
        <time>2019-02-14T12:11:54.000Z</time>
      </trkpt>
      <trkpt lat="43.38547554798424243927001953125" lon="-5.88454990647733211517333984375">
        <ele>536</ele>
        <time>2019-02-14T12:11:55.000Z</time>
      </trkpt>
      <trkpt lat="43.38545325212180614471435546875" lon="-5.88455795310437679290771484375">
        <ele>536.20001220703125</ele>
        <time>2019-02-14T12:11:56.000Z</time>
      </trkpt>
      <trkpt lat="43.38545325212180614471435546875" lon="-5.88455795310437679290771484375">
        <ele>536.20001220703125</ele>
        <time>2019-02-14T12:11:57.000Z</time>
      </trkpt>
      <trkpt lat="43.3854241669178009033203125" lon="-5.8845632337033748626708984375">
        <ele>536.4000244140625</ele>
        <time>2019-02-14T12:11:58.000Z</time>
      </trkpt>
      <trkpt lat="43.385388292372226715087890625" lon="-5.88456398807466030120849609375">
        <ele>536.4000244140625</ele>
        <time>2019-02-14T12:12:01.000Z</time>
      </trkpt>
      <trkpt lat="43.38532048277556896209716796875" lon="-5.88456415571272373199462890625">
        <ele>536.5999755859375</ele>
        <time>2019-02-14T12:12:04.000Z</time>
      </trkpt>
      <trkpt lat="43.38525191880762577056884765625" lon="-5.88458997197449207305908203125">
        <ele>536.5999755859375</ele>
        <time>2019-02-14T12:12:08.000Z</time>
      </trkpt>
      <trkpt lat="43.38507355190813541412353515625" lon="-5.8846520818769931793212890625">
        <ele>537.20001220703125</ele>
        <time>2019-02-14T12:12:17.000Z</time>
      </trkpt>
      <trkpt lat="43.3850531838834285736083984375" lon="-5.88465937413275241851806640625">
        <ele>537.20001220703125</ele>
        <time>2019-02-14T12:12:19.000Z</time>
      </trkpt>
      <trkpt lat="43.38501370511949062347412109375" lon="-5.88467697612941265106201171875">
        <ele>537.4000244140625</ele>
        <time>2019-02-14T12:12:21.000Z</time>
      </trkpt>
      <trkpt lat="43.38490121997892856597900390625" lon="-5.88472290895879268646240234375">
        <ele>537.79998779296875</ele>
        <time>2019-02-14T12:12:26.000Z</time>
      </trkpt>
      <trkpt lat="43.3848340809345245361328125" lon="-5.88476414792239665985107421875">
        <ele>538.5999755859375</ele>
        <time>2019-02-14T12:12:31.000Z</time>
      </trkpt>
      <trkpt lat="43.38476291857659816741943359375" lon="-5.8847858570516109466552734375">
        <ele>538.79998779296875</ele>
        <time>2019-02-14T12:12:34.000Z</time>
      </trkpt>
      <trkpt lat="43.38471530936658382415771484375" lon="-5.88480077683925628662109375">
        <ele>538.79998779296875</ele>
        <time>2019-02-14T12:12:37.000Z</time>
      </trkpt>
      <trkpt lat="43.38465345092117786407470703125" lon="-5.88482768274843692779541015625">
        <ele>538.20001220703125</ele>
        <time>2019-02-14T12:12:39.000Z</time>
      </trkpt>
      <trkpt lat="43.384507857263088226318359375" lon="-5.8849132619798183441162109375">
        <ele>537</ele>
        <time>2019-02-14T12:12:42.000Z</time>
      </trkpt>
      <trkpt lat="43.38443401269614696502685546875" lon="-5.88494435884058475494384765625">
        <ele>535.79998779296875</ele>
        <time>2019-02-14T12:12:44.000Z</time>
      </trkpt>
      <trkpt lat="43.38443401269614696502685546875" lon="-5.88494435884058475494384765625">
        <ele>535.4000244140625</ele>
        <time>2019-02-14T12:12:45.000Z</time>
      </trkpt>
      <trkpt lat="43.38429034687578678131103515625" lon="-5.88502868078649044036865234375">
        <ele>534.79998779296875</ele>
        <time>2019-02-14T12:12:49.000Z</time>
      </trkpt>
      <trkpt lat="43.38420703075826168060302734375" lon="-5.88506304658949375152587890625">
        <ele>534.4000244140625</ele>
        <time>2019-02-14T12:12:50.000Z</time>
      </trkpt>
      <trkpt lat="43.38411591947078704833984375" lon="-5.88503924198448657989501953125">
        <ele>533.5999755859375</ele>
        <time>2019-02-14T12:12:52.000Z</time>
      </trkpt>
      <trkpt lat="43.38394023478031158447265625" lon="-5.88487998582422733306884765625">
        <ele>532.20001220703125</ele>
        <time>2019-02-14T12:12:56.000Z</time>
      </trkpt>
      <trkpt lat="43.383859433233737945556640625" lon="-5.88479247875511646270751953125">
        <ele>531.20001220703125</ele>
        <time>2019-02-14T12:12:58.000Z</time>
      </trkpt>
      <trkpt lat="43.38382297195494174957275390625" lon="-5.8847496472299098968505859375">
        <ele>530.5999755859375</ele>
        <time>2019-02-14T12:12:59.000Z</time>
      </trkpt>
      <trkpt lat="43.38378827087581157684326171875" lon="-5.8847087435424327850341796875">
        <ele>530</ele>
        <time>2019-02-14T12:13:00.000Z</time>
      </trkpt>
      <trkpt lat="43.38372590951621532440185546875" lon="-5.88462735526263713836669921875">
        <ele>528.79998779296875</ele>
        <time>2019-02-14T12:13:03.000Z</time>
      </trkpt>
      <trkpt lat="43.38362046517431735992431640625" lon="-5.88449458591639995574951171875">
        <ele>528.79998779296875</ele>
        <time>2019-02-14T12:13:06.000Z</time>
      </trkpt>
      <trkpt lat="43.38355056010186672210693359375" lon="-5.88441730476915836334228515625">
        <ele>528.4000244140625</ele>
        <time>2019-02-14T12:13:12.000Z</time>
      </trkpt>
      <trkpt lat="43.3834911324083805084228515625" lon="-5.88436919264495372772216796875">
        <ele>528.20001220703125</ele>
        <time>2019-02-14T12:13:51.000Z</time>
      </trkpt>
      <trkpt lat="43.38341963477432727813720703125" lon="-5.88431186042726039886474609375">
        <ele>527.79998779296875</ele>
        <time>2019-02-14T12:13:53.000Z</time>
      </trkpt>
      <trkpt lat="43.3833962492644786834716796875" lon="-5.884286127984523773193359375">
        <ele>527.5999755859375</ele>
        <time>2019-02-14T12:13:54.000Z</time>
      </trkpt>
      <trkpt lat="43.38335174135863780975341796875" lon="-5.8842246048152446746826171875">
        <ele>526.4000244140625</ele>
        <time>2019-02-14T12:13:57.000Z</time>
      </trkpt>
      <trkpt lat="43.38325317017734050750732421875" lon="-5.8840998820960521697998046875">
        <ele>525.20001220703125</ele>
        <time>2019-02-14T12:14:00.000Z</time>
      </trkpt>
      <trkpt lat="43.38325317017734050750732421875" lon="-5.8840998820960521697998046875">
        <ele>524.5999755859375</ele>
        <time>2019-02-14T12:14:01.000Z</time>
      </trkpt>
      <trkpt lat="43.3832105062901973724365234375" lon="-5.88403207249939441680908203125">
        <ele>524</ele>
        <time>2019-02-14T12:14:03.000Z</time>
      </trkpt>
      <trkpt lat="43.38312542997300624847412109375" lon="-5.88391975499689579010009765625">
        <ele>523.4000244140625</ele>
        <time>2019-02-14T12:14:06.000Z</time>
      </trkpt>
      <trkpt lat="43.38312542997300624847412109375" lon="-5.88391975499689579010009765625">
        <ele>523</ele>
        <time>2019-02-14T12:14:07.000Z</time>
      </trkpt>
      <trkpt lat="43.38303574360907077789306640625" lon="-5.88381162844598293304443359375">
        <ele>521.4000244140625</ele>
        <time>2019-02-14T12:14:10.000Z</time>
      </trkpt>
      <trkpt lat="43.382990397512912750244140625" lon="-5.8837491832673549652099609375">
        <ele>520</ele>
        <time>2019-02-14T12:14:12.000Z</time>
      </trkpt>
      <trkpt lat="43.382990397512912750244140625" lon="-5.8837491832673549652099609375">
        <ele>519.20001220703125</ele>
        <time>2019-02-14T12:14:13.000Z</time>
      </trkpt>
      <trkpt lat="43.38296198286116123199462890625" lon="-5.883647762238979339599609375">
        <ele>518.79998779296875</ele>
        <time>2019-02-14T12:14:14.000Z</time>
      </trkpt>
      <trkpt lat="43.382954858243465423583984375" lon="-5.88354550302028656005859375">
        <ele>517.79998779296875</ele>
        <time>2019-02-14T12:14:16.000Z</time>
      </trkpt>
      <trkpt lat="43.38295125402510166168212890625" lon="-5.8834313414990901947021484375">
        <ele>515.79998779296875</ele>
        <time>2019-02-14T12:14:18.000Z</time>
      </trkpt>
      <trkpt lat="43.38295125402510166168212890625" lon="-5.8834313414990901947021484375">
        <ele>515</ele>
        <time>2019-02-14T12:14:19.000Z</time>
      </trkpt>
      <trkpt lat="43.38292242027819156646728515625" lon="-5.88330200873315334320068359375">
        <ele>513.5999755859375</ele>
        <time>2019-02-14T12:14:20.000Z</time>
      </trkpt>
      <trkpt lat="43.38292242027819156646728515625" lon="-5.88330200873315334320068359375">
        <ele>511.79998779296875</ele>
        <time>2019-02-14T12:14:21.000Z</time>
      </trkpt>
      <trkpt lat="43.382920660078525543212890625" lon="-5.88318332098424434661865234375">
        <ele>510.399993896484375</ele>
        <time>2019-02-14T12:14:22.000Z</time>
      </trkpt>
      <trkpt lat="43.3829285390675067901611328125" lon="-5.88312573730945587158203125">
        <ele>509.600006103515625</ele>
        <time>2019-02-14T12:14:23.000Z</time>
      </trkpt>
      <trkpt lat="43.3829382620751857757568359375" lon="-5.8830673992633819580078125">
        <ele>509.20001220703125</ele>
        <time>2019-02-14T12:14:24.000Z</time>
      </trkpt>
      <trkpt lat="43.3829382620751857757568359375" lon="-5.8830673992633819580078125">
        <ele>508.600006103515625</ele>
        <time>2019-02-14T12:14:25.000Z</time>
      </trkpt>
      <trkpt lat="43.3829540200531482696533203125" lon="-5.88297645561397075653076171875">
        <ele>507</ele>
        <time>2019-02-14T12:14:27.000Z</time>
      </trkpt>
      <trkpt lat="43.38296684436500072479248046875" lon="-5.88287972845137119293212890625">
        <ele>505.399993896484375</ele>
        <time>2019-02-14T12:14:29.000Z</time>
      </trkpt>
      <trkpt lat="43.38297924958169460296630859375" lon="-5.88285215198993682861328125">
        <ele>504.399993896484375</ele>
        <time>2019-02-14T12:14:31.000Z</time>
      </trkpt>
      <trkpt lat="43.383013866841793060302734375" lon="-5.882720053195953369140625">
        <ele>503.600006103515625</ele>
        <time>2019-02-14T12:14:34.000Z</time>
      </trkpt>
      <trkpt lat="43.38301948271691799163818359375" lon="-5.8826689235866069793701171875">
        <ele>503.399993896484375</ele>
        <time>2019-02-14T12:14:35.000Z</time>
      </trkpt>
      <trkpt lat="43.383027277886867523193359375" lon="-5.882542692124843597412109375">
        <ele>503.79998779296875</ele>
        <time>2019-02-14T12:14:39.000Z</time>
      </trkpt>
      <trkpt lat="43.38302962481975555419921875" lon="-5.88247127830982208251953125">
        <ele>504</ele>
        <time>2019-02-14T12:14:41.000Z</time>
      </trkpt>
      <trkpt lat="43.38299081660807132720947265625" lon="-5.88228042237460613250732421875">
        <ele>504.20001220703125</ele>
        <time>2019-02-14T12:14:47.000Z</time>
      </trkpt>
      <trkpt lat="43.3829845301806926727294921875" lon="-5.88225376792252063751220703125">
        <ele>504.20001220703125</ele>
        <time>2019-02-14T12:14:48.000Z</time>
      </trkpt>
      <trkpt lat="43.382967598736286163330078125" lon="-5.8821760676801204681396484375">
        <ele>505</ele>
        <time>2019-02-14T12:14:52.000Z</time>
      </trkpt>
      <trkpt lat="43.38296215049922466278076171875" lon="-5.8821422047913074493408203125">
        <ele>505.600006103515625</ele>
        <time>2019-02-14T12:14:53.000Z</time>
      </trkpt>
      <trkpt lat="43.38295343331992626190185546875" lon="-5.88206090033054351806640625">
        <ele>506.20001220703125</ele>
        <time>2019-02-14T12:14:56.000Z</time>
      </trkpt>
      <trkpt lat="43.38295343331992626190185546875" lon="-5.88206090033054351806640625">
        <ele>506.600006103515625</ele>
        <time>2019-02-14T12:14:57.000Z</time>
      </trkpt>
      <trkpt lat="43.38291839696466922760009765625" lon="-5.881964676082134246826171875">
        <ele>507.600006103515625</ele>
        <time>2019-02-14T12:15:00.000Z</time>
      </trkpt>
      <trkpt lat="43.38290314190089702606201171875" lon="-5.8819353394210338592529296875">
        <ele>507.79998779296875</ele>
        <time>2019-02-14T12:15:02.000Z</time>
      </trkpt>
      <trkpt lat="43.3828467316925525665283203125" lon="-5.8818639256060123443603515625">
        <ele>507.79998779296875</ele>
        <time>2019-02-14T12:15:06.000Z</time>
      </trkpt>
      <trkpt lat="43.3828212507069110870361328125" lon="-5.8818324096500873565673828125">
        <ele>508</ele>
        <time>2019-02-14T12:15:08.000Z</time>
      </trkpt>
      <trkpt lat="43.38278797455132007598876953125" lon="-5.88181137107312679290771484375">
        <ele>508.600006103515625</ele>
        <time>2019-02-14T12:15:10.000Z</time>
      </trkpt>
      <trkpt lat="43.3827803470194339752197265625" lon="-5.88179938495159149169921875">
        <ele>508.600006103515625</ele>
        <time>2019-02-14T12:15:11.000Z</time>
      </trkpt>
      <trkpt lat="43.3827553689479827880859375" lon="-5.881746076047420501708984375">
        <ele>508.79998779296875</ele>
        <time>2019-02-14T12:15:14.000Z</time>
      </trkpt>
      <trkpt lat="43.3827553689479827880859375" lon="-5.881746076047420501708984375">
        <ele>509.20001220703125</ele>
        <time>2019-02-14T12:15:15.000Z</time>
      </trkpt>
      <trkpt lat="43.38273466564714908599853515625" lon="-5.88168446905910968780517578125">
        <ele>509.79998779296875</ele>
        <time>2019-02-14T12:15:18.000Z</time>
      </trkpt>
      <trkpt lat="43.38271915912628173828125" lon="-5.88165697641670703887939453125">
        <ele>510.20001220703125</ele>
        <time>2019-02-14T12:15:20.000Z</time>
      </trkpt>
      <trkpt lat="43.38268940337002277374267578125" lon="-5.88154767639935016632080078125">
        <ele>511.20001220703125</ele>
        <time>2019-02-14T12:15:26.000Z</time>
      </trkpt>
      <trkpt lat="43.38268940337002277374267578125" lon="-5.88154767639935016632080078125">
        <ele>511.399993896484375</ele>
        <time>2019-02-14T12:15:27.000Z</time>
      </trkpt>
      <trkpt lat="43.38266082108020782470703125" lon="-5.8815008215606212615966796875">
        <ele>511.79998779296875</ele>
        <time>2019-02-14T12:15:29.000Z</time>
      </trkpt>
      <trkpt lat="43.38262352161109447479248046875" lon="-5.88143100030720233917236328125">
        <ele>512.4000244140625</ele>
        <time>2019-02-14T12:15:34.000Z</time>
      </trkpt>
      <trkpt lat="43.3825969509780406951904296875" lon="-5.88140518404543399810791015625">
        <ele>513.4000244140625</ele>
        <time>2019-02-14T12:15:37.000Z</time>
      </trkpt>
      <trkpt lat="43.38257054798305034637451171875" lon="-5.8813771046698093414306640625">
        <ele>513.5999755859375</ele>
        <time>2019-02-14T12:15:38.000Z</time>
      </trkpt>
      <trkpt lat="43.38251757435500621795654296875" lon="-5.8812865801155567169189453125">
        <ele>514.79998779296875</ele>
        <time>2019-02-14T12:15:44.000Z</time>
      </trkpt>
      <trkpt lat="43.38251757435500621795654296875" lon="-5.8812865801155567169189453125">
        <ele>514.79998779296875</ele>
        <time>2019-02-14T12:15:45.000Z</time>
      </trkpt>
      <trkpt lat="43.38248169980943202972412109375" lon="-5.881251208484172821044921875">
        <ele>515.79998779296875</ele>
        <time>2019-02-14T12:15:49.000Z</time>
      </trkpt>
      <trkpt lat="43.38244733400642871856689453125" lon="-5.88122447021305561065673828125">
        <ele>516.5999755859375</ele>
        <time>2019-02-14T12:15:52.000Z</time>
      </trkpt>
      <trkpt lat="43.3824202604591846466064453125" lon="-5.88115892373025417327880859375">
        <ele>517</ele>
        <time>2019-02-14T12:15:57.000Z</time>
      </trkpt>
      <trkpt lat="43.38239368982613086700439453125" lon="-5.8811229653656482696533203125">
        <ele>517.20001220703125</ele>
        <time>2019-02-14T12:15:59.000Z</time>
      </trkpt>
      <trkpt lat="43.3823287300765514373779296875" lon="-5.8810691535472869873046875">
        <ele>518.20001220703125</ele>
        <time>2019-02-14T12:16:05.000Z</time>
      </trkpt>
      <trkpt lat="43.3823129720985889434814453125" lon="-5.88102581910789012908935546875">
        <ele>518.5999755859375</ele>
        <time>2019-02-14T12:16:08.000Z</time>
      </trkpt>
      <trkpt lat="43.3822626806795597076416015625" lon="-5.88096664287149906158447265625">
        <ele>519.20001220703125</ele>
        <time>2019-02-14T12:16:14.000Z</time>
      </trkpt>
      <trkpt lat="43.38223510421812534332275390625" lon="-5.88092355988919734954833984375">
        <ele>519.5999755859375</ele>
        <time>2019-02-14T12:16:18.000Z</time>
      </trkpt>
      <trkpt lat="43.38217257522046566009521484375" lon="-5.8808098174631595611572265625">
        <ele>520.5999755859375</ele>
        <time>2019-02-14T12:16:26.000Z</time>
      </trkpt>
      <trkpt lat="43.382158242166042327880859375" lon="-5.88077612221240997314453125">
        <ele>520.5999755859375</ele>
        <time>2019-02-14T12:16:28.000Z</time>
      </trkpt>
      <trkpt lat="43.382114656269550323486328125" lon="-5.880679897964000701904296875">
        <ele>521.5999755859375</ele>
        <time>2019-02-14T12:16:34.000Z</time>
      </trkpt>
      <trkpt lat="43.382090516388416290283203125" lon="-5.88060705922544002532958984375">
        <ele>522.5999755859375</ele>
        <time>2019-02-14T12:16:39.000Z</time>
      </trkpt>
      <trkpt lat="43.38208121247589588165283203125" lon="-5.88057696819305419921875">
        <ele>523</ele>
        <time>2019-02-14T12:16:40.000Z</time>
      </trkpt>
      <trkpt lat="43.38207920081913471221923828125" lon="-5.88056422770023345947265625">
        <ele>523.4000244140625</ele>
        <time>2019-02-14T12:16:41.000Z</time>
      </trkpt>
      <trkpt lat="43.38207065127789974212646484375" lon="-5.8805060572922229766845703125">
        <ele>524</ele>
        <time>2019-02-14T12:16:45.000Z</time>
      </trkpt>
      <trkpt lat="43.382063694298267364501953125" lon="-5.88046791963279247283935546875">
        <ele>524.20001220703125</ele>
        <time>2019-02-14T12:16:46.000Z</time>
      </trkpt>
      <trkpt lat="43.38203947059810161590576171875" lon="-5.8803588710725307464599609375">
        <ele>524.79998779296875</ele>
        <time>2019-02-14T12:16:52.000Z</time>
      </trkpt>
      <trkpt lat="43.3820340223610401153564453125" lon="-5.8802891336381435394287109375">
        <ele>525.4000244140625</ele>
        <time>2019-02-14T12:16:56.000Z</time>
      </trkpt>
      <trkpt lat="43.3820365369319915771484375" lon="-5.88023389689624309539794921875">
        <ele>526</ele>
        <time>2019-02-14T12:17:00.000Z</time>
      </trkpt>
      <trkpt lat="43.3820380456745624542236328125" lon="-5.88020405732095241546630859375">
        <ele>526.79998779296875</ele>
        <time>2019-02-14T12:17:02.000Z</time>
      </trkpt>
      <trkpt lat="43.382046930491924285888671875" lon="-5.88005460798740386962890625">
        <ele>527.79998779296875</ele>
        <time>2019-02-14T12:17:10.000Z</time>
      </trkpt>
      <trkpt lat="43.38206763379275798797607421875" lon="-5.87993030436336994171142578125">
        <ele>528.79998779296875</ele>
        <time>2019-02-14T12:17:17.000Z</time>
      </trkpt>
      <trkpt lat="43.38209076784551143646240234375" lon="-5.87982871569693088531494140625">
        <ele>528.79998779296875</ele>
        <time>2019-02-14T12:17:23.000Z</time>
      </trkpt>
      <trkpt lat="43.38209277950227260589599609375" lon="-5.8798111975193023681640625">
        <ele>529</ele>
        <time>2019-02-14T12:17:24.000Z</time>
      </trkpt>
      <trkpt lat="43.382098563015460968017578125" lon="-5.8797453157603740692138671875">
        <ele>529.20001220703125</ele>
        <time>2019-02-14T12:17:29.000Z</time>
      </trkpt>
      <trkpt lat="43.38209621608257293701171875" lon="-5.879717655479907989501953125">
        <ele>529.4000244140625</ele>
        <time>2019-02-14T12:17:33.000Z</time>
      </trkpt>
      <trkpt lat="43.382093869149684906005859375" lon="-5.8796671964228153228759765625">
        <ele>529.79998779296875</ele>
        <time>2019-02-14T12:17:51.000Z</time>
      </trkpt>
      <trkpt lat="43.38209277950227260589599609375" lon="-5.87962000630795955657958984375">
        <ele>529.79998779296875</ele>
        <time>2019-02-14T12:17:52.000Z</time>
      </trkpt>
      <trkpt lat="43.3820943720638751983642578125" lon="-5.879595614969730377197265625">
        <ele>530</ele>
        <time>2019-02-14T12:17:53.000Z</time>
      </trkpt>
      <trkpt lat="43.3820960484445095062255859375" lon="-5.87957273237407207489013671875">
        <ele>530</ele>
        <time>2019-02-14T12:17:54.000Z</time>
      </trkpt>
      <trkpt lat="43.382105268537998199462890625" lon="-5.87953048758208751678466796875">
        <ele>531</ele>
        <time>2019-02-14T12:17:57.000Z</time>
      </trkpt>
      <trkpt lat="43.3821170032024383544921875" lon="-5.87948136962950229644775390625">
        <ele>531</ele>
        <time>2019-02-14T12:17:58.000Z</time>
      </trkpt>
      <trkpt lat="43.38212915696203708648681640625" lon="-5.87943376041948795318603515625">
        <ele>531.20001220703125</ele>
        <time>2019-02-14T12:18:01.000Z</time>
      </trkpt>
      <trkpt lat="43.3821506984531879425048828125" lon="-5.87935061194002628326416015625">
        <ele>532.20001220703125</ele>
        <time>2019-02-14T12:18:04.000Z</time>
      </trkpt>
      <trkpt lat="43.3821637742221355438232421875" lon="-5.8793034218251705169677734375">
        <ele>533.5999755859375</ele>
        <time>2019-02-14T12:18:07.000Z</time>
      </trkpt>
      <trkpt lat="43.38217861019074916839599609375" lon="-5.87925455532968044281005859375">
        <ele>534.20001220703125</ele>
        <time>2019-02-14T12:18:08.000Z</time>
      </trkpt>
      <trkpt lat="43.382191769778728485107421875" lon="-5.8792103826999664306640625">
        <ele>534.79998779296875</ele>
        <time>2019-02-14T12:18:10.000Z</time>
      </trkpt>
      <trkpt lat="43.38220492936670780181884765625" lon="-5.879170484840869903564453125">
        <ele>536.20001220703125</ele>
        <time>2019-02-14T12:18:13.000Z</time>
      </trkpt>
      <trkpt lat="43.3822140656411647796630859375" lon="-5.8791357837617397308349609375">
        <ele>537.4000244140625</ele>
        <time>2019-02-14T12:18:15.000Z</time>
      </trkpt>
      <trkpt lat="43.38223828934133052825927734375" lon="-5.879066549241542816162109375">
        <ele>538.20001220703125</ele>
        <time>2019-02-14T12:18:19.000Z</time>
      </trkpt>
      <trkpt lat="43.38225488550961017608642578125" lon="-5.87902489118278026580810546875">
        <ele>538.5999755859375</ele>
        <time>2019-02-14T12:18:20.000Z</time>
      </trkpt>
      <trkpt lat="43.38225991465151309967041015625" lon="-5.878994800150394439697265625">
        <ele>539.20001220703125</ele>
        <time>2019-02-14T12:18:22.000Z</time>
      </trkpt>
      <trkpt lat="43.38226460851728916168212890625" lon="-5.8789828978478908538818359375">
        <ele>539.4000244140625</ele>
        <time>2019-02-14T12:18:23.000Z</time>
      </trkpt>
      <trkpt lat="43.382265530526638031005859375" lon="-5.87897024117410182952880859375">
        <ele>539.79998779296875</ele>
        <time>2019-02-14T12:18:24.000Z</time>
      </trkpt>
      <trkpt lat="43.3822754211723804473876953125" lon="-5.8789259009063243865966796875">
        <ele>540.5999755859375</ele>
        <time>2019-02-14T12:18:28.000Z</time>
      </trkpt>
      <trkpt lat="43.382283635437488555908203125" lon="-5.8789141662418842315673828125">
        <ele>540.79998779296875</ele>
        <time>2019-02-14T12:18:29.000Z</time>
      </trkpt>
      <trkpt lat="43.3822886645793914794921875" lon="-5.878904275596141815185546875">
        <ele>541</ele>
        <time>2019-02-14T12:18:31.000Z</time>
      </trkpt>
      <trkpt lat="43.3823116309940814971923828125" lon="-5.878851972520351409912109375">
        <ele>542</ele>
        <time>2019-02-14T12:18:35.000Z</time>
      </trkpt>
      <trkpt lat="43.38232764042913913726806640625" lon="-5.87881651706993579864501953125">
        <ele>542.5999755859375</ele>
        <time>2019-02-14T12:18:38.000Z</time>
      </trkpt>
      <trkpt lat="43.38234700262546539306640625" lon="-5.87878315709531307220458984375">
        <ele>543.20001220703125</ele>
        <time>2019-02-14T12:18:42.000Z</time>
      </trkpt>
      <trkpt lat="43.3823703043162822723388671875" lon="-5.8787463605403900146484375">
        <ele>544</ele>
        <time>2019-02-14T12:18:46.000Z</time>
      </trkpt>
      <trkpt lat="43.3823793567717075347900390625" lon="-5.8787243999540805816650390625">
        <ele>544.20001220703125</ele>
        <time>2019-02-14T12:18:49.000Z</time>
      </trkpt>
      <trkpt lat="43.38242612779140472412109375" lon="-5.87865860201418399810791015625">
        <ele>544.5999755859375</ele>
        <time>2019-02-14T12:18:54.000Z</time>
      </trkpt>
      <trkpt lat="43.38254841975867748260498046875" lon="-5.878551900386810302734375">
        <ele>545</ele>
        <time>2019-02-14T12:19:04.000Z</time>
      </trkpt>
      <trkpt lat="43.38261446915566921234130859375" lon="-5.8785410039126873016357421875">
        <ele>545.4000244140625</ele>
        <time>2019-02-14T12:19:08.000Z</time>
      </trkpt>
      <trkpt lat="43.38261446915566921234130859375" lon="-5.8785410039126873016357421875">
        <ele>545.5999755859375</ele>
        <time>2019-02-14T12:19:09.000Z</time>
      </trkpt>
      <trkpt lat="43.38264414109289646148681640625" lon="-5.87854259647428989410400390625">
        <ele>545.5999755859375</ele>
        <time>2019-02-14T12:19:10.000Z</time>
      </trkpt>
      <trkpt lat="43.38271446526050567626953125" lon="-5.8785291016101837158203125">
        <ele>546.4000244140625</ele>
        <time>2019-02-14T12:19:15.000Z</time>
      </trkpt>
      <trkpt lat="43.38283122517168521881103515625" lon="-5.8785021118819713592529296875">
        <ele>546.4000244140625</ele>
        <time>2019-02-14T12:19:20.000Z</time>
      </trkpt>
      <trkpt lat="43.38296315632760524749755859375" lon="-5.8784481324255466461181640625">
        <ele>546.5999755859375</ele>
        <time>2019-02-14T12:19:27.000Z</time>
      </trkpt>
      <trkpt lat="43.3830240927636623382568359375" lon="-5.8784162811934947967529296875">
        <ele>547.20001220703125</ele>
        <time>2019-02-14T12:19:29.000Z</time>
      </trkpt>
      <trkpt lat="43.38304228149354457855224609375" lon="-5.87840463034808635711669921875">
        <ele>547.4000244140625</ele>
        <time>2019-02-14T12:19:31.000Z</time>
      </trkpt>
      <trkpt lat="43.38314219377934932708740234375" lon="-5.8783321268856525421142578125">
        <ele>548.5999755859375</ele>
        <time>2019-02-14T12:19:37.000Z</time>
      </trkpt>
      <trkpt lat="43.38324286043643951416015625" lon="-5.87818016298115253448486328125">
        <ele>549.20001220703125</ele>
        <time>2019-02-14T12:19:45.000Z</time>
      </trkpt>
      <trkpt lat="43.38326641358435153961181640625" lon="-5.8781232498586177825927734375">
        <ele>549.5999755859375</ele>
        <time>2019-02-14T12:19:46.000Z</time>
      </trkpt>
      <trkpt lat="43.38331586681306362152099609375" lon="-5.8780414424836635589599609375">
        <ele>548.79998779296875</ele>
        <time>2019-02-14T12:19:51.000Z</time>
      </trkpt>
      <trkpt lat="43.38336884044110774993896484375" lon="-5.8779765665531158447265625">
        <ele>548.5999755859375</ele>
        <time>2019-02-14T12:19:54.000Z</time>
      </trkpt>
      <trkpt lat="43.38343053124845027923583984375" lon="-5.87790976278483867645263671875">
        <ele>548.5999755859375</ele>
        <time>2019-02-14T12:19:58.000Z</time>
      </trkpt>
      <trkpt lat="43.3834688365459442138671875" lon="-5.87786198593676090240478515625">
        <ele>548.20001220703125</ele>
        <time>2019-02-14T12:20:01.000Z</time>
      </trkpt>
      <trkpt lat="43.38356564752757549285888671875" lon="-5.87774966843426227569580078125">
        <ele>548.20001220703125</ele>
        <time>2019-02-14T12:20:06.000Z</time>
      </trkpt>
      <trkpt lat="43.3835826627910137176513671875" lon="-5.87770859710872173309326171875">
        <ele>547.79998779296875</ele>
        <time>2019-02-14T12:20:08.000Z</time>
      </trkpt>
      <trkpt lat="43.3835826627910137176513671875" lon="-5.87770859710872173309326171875">
        <ele>547.5999755859375</ele>
        <time>2019-02-14T12:20:09.000Z</time>
      </trkpt>
      <trkpt lat="43.38363287039101123809814453125" lon="-5.87759745307266712188720703125">
        <ele>546.5999755859375</ele>
        <time>2019-02-14T12:20:11.000Z</time>
      </trkpt>
      <trkpt lat="43.38365466333925724029541015625" lon="-5.87753592990338802337646484375">
        <ele>545.4000244140625</ele>
        <time>2019-02-14T12:20:12.000Z</time>
      </trkpt>
      <trkpt lat="43.38367209769785404205322265625" lon="-5.87746418081223964691162109375">
        <ele>543.79998779296875</ele>
        <time>2019-02-14T12:20:13.000Z</time>
      </trkpt>
      <trkpt lat="43.38368810713291168212890625" lon="-5.87738891132175922393798828125">
        <ele>542.5999755859375</ele>
        <time>2019-02-14T12:20:15.000Z</time>
      </trkpt>
      <trkpt lat="43.38371752761304378509521484375" lon="-5.87724138982594013214111328125">
        <ele>542</ele>
        <time>2019-02-14T12:20:16.000Z</time>
      </trkpt>
      <trkpt lat="43.3837221376597881317138671875" lon="-5.87716855108737945556640625">
        <ele>541.5999755859375</ele>
        <time>2019-02-14T12:20:17.000Z</time>
      </trkpt>
      <trkpt lat="43.3837295137345790863037109375" lon="-5.87702664546668529510498046875">
        <ele>542.79998779296875</ele>
        <time>2019-02-14T12:20:21.000Z</time>
      </trkpt>
      <trkpt lat="43.38372540660202503204345703125" lon="-5.87692773900926113128662109375">
        <ele>544.4000244140625</ele>
        <time>2019-02-14T12:20:23.000Z</time>
      </trkpt>
      <trkpt lat="43.38371803052723407745361328125" lon="-5.87689806707203388214111328125">
        <ele>545.4000244140625</ele>
        <time>2019-02-14T12:20:25.000Z</time>
      </trkpt>
      <trkpt lat="43.38371048681437969207763671875" lon="-5.87684132158756256103515625">
        <ele>546.20001220703125</ele>
        <time>2019-02-14T12:20:27.000Z</time>
      </trkpt>
      <trkpt lat="43.3836922980844974517822265625" lon="-5.8767569996416568756103515625">
        <ele>547</ele>
        <time>2019-02-14T12:20:29.000Z</time>
      </trkpt>
      <trkpt lat="43.38368601165711879730224609375" lon="-5.87672925554215908050537109375">
        <ele>547.5999755859375</ele>
        <time>2019-02-14T12:20:31.000Z</time>
      </trkpt>
      <trkpt lat="43.38367444463074207305908203125" lon="-5.8766751922667026519775390625">
        <ele>548.4000244140625</ele>
        <time>2019-02-14T12:20:32.000Z</time>
      </trkpt>
      <trkpt lat="43.3836646378040313720703125" lon="-5.87662330828607082366943359375">
        <ele>549.20001220703125</ele>
        <time>2019-02-14T12:20:34.000Z</time>
      </trkpt>
      <trkpt lat="43.38365717791020870208740234375" lon="-5.8765987493097782135009765625">
        <ele>549.5999755859375</ele>
        <time>2019-02-14T12:20:35.000Z</time>
      </trkpt>
      <trkpt lat="43.3836510591208934783935546875" lon="-5.87657586671411991119384765625">
        <ele>550.5999755859375</ele>
        <time>2019-02-14T12:20:37.000Z</time>
      </trkpt>
      <trkpt lat="43.383640833199024200439453125" lon="-5.8765362203121185302734375">
        <ele>551.20001220703125</ele>
        <time>2019-02-14T12:20:38.000Z</time>
      </trkpt>
      <trkpt lat="43.3836265839636325836181640625" lon="-5.87650260888040065765380859375">
        <ele>552</ele>
        <time>2019-02-14T12:20:40.000Z</time>
      </trkpt>
      <trkpt lat="43.38361090980470180511474609375" lon="-5.876470506191253662109375">
        <ele>552.5999755859375</ele>
        <time>2019-02-14T12:20:43.000Z</time>
      </trkpt>
      <trkpt lat="43.38359892368316650390625" lon="-5.87643974460661411285400390625">
        <ele>553.20001220703125</ele>
        <time>2019-02-14T12:20:45.000Z</time>
      </trkpt>
      <trkpt lat="43.3835541643202304840087890625" lon="-5.87636045180261135101318359375">
        <ele>554.20001220703125</ele>
        <time>2019-02-14T12:20:50.000Z</time>
      </trkpt>
      <trkpt lat="43.3835541643202304840087890625" lon="-5.87636045180261135101318359375">
        <ele>554.4000244140625</ele>
        <time>2019-02-14T12:20:51.000Z</time>
      </trkpt>
      <trkpt lat="43.38353513740003108978271484375" lon="-5.8763050474226474761962890625">
        <ele>555.20001220703125</ele>
        <time>2019-02-14T12:20:55.000Z</time>
      </trkpt>
      <trkpt lat="43.38352625258266925811767578125" lon="-5.87627965025603771209716796875">
        <ele>555.5999755859375</ele>
        <time>2019-02-14T12:20:57.000Z</time>
      </trkpt>
      <trkpt lat="43.383509404957294464111328125" lon="-5.876244194805622100830078125">
        <ele>555.79998779296875</ele>
        <time>2019-02-14T12:20:59.000Z</time>
      </trkpt>
      <trkpt lat="43.38349632918834686279296875" lon="-5.87620303966104984283447265625">
        <ele>556.5999755859375</ele>
        <time>2019-02-14T12:21:02.000Z</time>
      </trkpt>
      <trkpt lat="43.3834740333259105682373046875" lon="-5.8761514909565448760986328125">
        <ele>557.20001220703125</ele>
        <time>2019-02-14T12:21:06.000Z</time>
      </trkpt>
      <trkpt lat="43.383456766605377197265625" lon="-5.87609767913818359375">
        <ele>557.5999755859375</ele>
        <time>2019-02-14T12:21:10.000Z</time>
      </trkpt>
      <trkpt lat="43.38343195617198944091796875" lon="-5.8760078251361846923828125">
        <ele>558.4000244140625</ele>
        <time>2019-02-14T12:21:16.000Z</time>
      </trkpt>
      <trkpt lat="43.3834284357726573944091796875" lon="-5.8759918995201587677001953125">
        <ele>558.5999755859375</ele>
        <time>2019-02-14T12:21:17.000Z</time>
      </trkpt>
      <trkpt lat="43.38341393508017063140869140625" lon="-5.87584982626140117645263671875">
        <ele>558.79998779296875</ele>
        <time>2019-02-14T12:21:23.000Z</time>
      </trkpt>
      <trkpt lat="43.38344226591289043426513671875" lon="-5.8757059089839458465576171875">
        <ele>557.4000244140625</ele>
        <time>2019-02-14T12:21:26.000Z</time>
      </trkpt>
      <trkpt lat="43.383465819060802459716796875" lon="-5.875647068023681640625">
        <ele>557.20001220703125</ele>
        <time>2019-02-14T12:21:28.000Z</time>
      </trkpt>
      <trkpt lat="43.3835471235215663909912109375" lon="-5.8754839561879634857177734375">
        <ele>558.4000244140625</ele>
        <time>2019-02-14T12:21:36.000Z</time>
      </trkpt>
      <trkpt lat="43.3835675753653049468994140625" lon="-5.87544430978596210479736328125">
        <ele>558.5999755859375</ele>
        <time>2019-02-14T12:21:38.000Z</time>
      </trkpt>
      <trkpt lat="43.3836244046688079833984375" lon="-5.87531941942870616912841796875">
        <ele>559</ele>
        <time>2019-02-14T12:21:44.000Z</time>
      </trkpt>
      <trkpt lat="43.3836463652551174163818359375" lon="-5.8752568066120147705078125">
        <ele>559.5999755859375</ele>
        <time>2019-02-14T12:21:47.000Z</time>
      </trkpt>
      <trkpt lat="43.38368450291454792022705078125" lon="-5.875198803842067718505859375">
        <ele>560</ele>
        <time>2019-02-14T12:21:51.000Z</time>
      </trkpt>
      <trkpt lat="43.38380268774926662445068359375" lon="-5.875023789703845977783203125">
        <ele>559.79998779296875</ele>
        <time>2019-02-14T12:21:58.000Z</time>
      </trkpt>
      <trkpt lat="43.38388030417263507843017578125" lon="-5.874803848564624786376953125">
        <ele>560.4000244140625</ele>
        <time>2019-02-14T12:22:06.000Z</time>
      </trkpt>
      <trkpt lat="43.3839008398354053497314453125" lon="-5.87462824769318103790283203125">
        <ele>560.5999755859375</ele>
        <time>2019-02-14T12:22:12.000Z</time>
      </trkpt>
      <trkpt lat="43.38386337272822856903076171875" lon="-5.8743252418935298919677734375">
        <ele>561.5999755859375</ele>
        <time>2019-02-14T12:22:20.000Z</time>
      </trkpt>
      <trkpt lat="43.38382531888782978057861328125" lon="-5.87422122247517108917236328125">
        <ele>561.20001220703125</ele>
        <time>2019-02-14T12:22:23.000Z</time>
      </trkpt>
      <trkpt lat="43.38378491811454296112060546875" lon="-5.8741187117993831634521484375">
        <ele>561.20001220703125</ele>
        <time>2019-02-14T12:22:26.000Z</time>
      </trkpt>
      <trkpt lat="43.38378491811454296112060546875" lon="-5.8741187117993831634521484375">
        <ele>561.20001220703125</ele>
        <time>2019-02-14T12:22:27.000Z</time>
      </trkpt>
      <trkpt lat="43.38366656564176082611083984375" lon="-5.87391612119972705841064453125">
        <ele>560.79998779296875</ele>
        <time>2019-02-14T12:22:33.000Z</time>
      </trkpt>
      <trkpt lat="43.3835766278207302093505859375" lon="-5.8737626485526561737060546875">
        <ele>560.20001220703125</ele>
        <time>2019-02-14T12:22:36.000Z</time>
      </trkpt>
      <trkpt lat="43.38345483876764774322509765625" lon="-5.87353541515767574310302734375">
        <ele>561.4000244140625</ele>
        <time>2019-02-14T12:22:42.000Z</time>
      </trkpt>
      <trkpt lat="43.383393399417400360107421875" lon="-5.87335855700075626373291015625">
        <ele>561</ele>
        <time>2019-02-14T12:22:46.000Z</time>
      </trkpt>
      <trkpt lat="43.38335819542407989501953125" lon="-5.873173736035823822021484375">
        <ele>560.5999755859375</ele>
        <time>2019-02-14T12:22:50.000Z</time>
      </trkpt>
      <trkpt lat="43.38334050960838794708251953125" lon="-5.8730619214475154876708984375">
        <ele>561</ele>
        <time>2019-02-14T12:22:53.000Z</time>
      </trkpt>
      <trkpt lat="43.3833120949566364288330078125" lon="-5.87272773496806621551513671875">
        <ele>561.79998779296875</ele>
        <time>2019-02-14T12:23:02.000Z</time>
      </trkpt>
      <trkpt lat="43.38331569917500019073486328125" lon="-5.87260343134403228759765625">
        <ele>561.79998779296875</ele>
        <time>2019-02-14T12:23:07.000Z</time>
      </trkpt>
      <trkpt lat="43.38331771083176136016845703125" lon="-5.8725895173847675323486328125">
        <ele>561.79998779296875</ele>
        <time>2019-02-14T12:23:08.000Z</time>
      </trkpt>
      <trkpt lat="43.383318968117237091064453125" lon="-5.87258826009929180145263671875">
        <ele>561.79998779296875</ele>
        <time>2019-02-14T12:23:09.000Z</time>
      </trkpt>
      <trkpt lat="43.38333430700004100799560546875" lon="-5.87241995148360729217529296875">
        <ele>562.5999755859375</ele>
        <time>2019-02-14T12:27:13.000Z</time>
      </trkpt>
      <trkpt lat="43.3833533339202404022216796875" lon="-5.87237410247325897216796875">
        <ele>562.5999755859375</ele>
        <time>2019-02-14T12:27:15.000Z</time>
      </trkpt>
      <trkpt lat="43.3834394998848438262939453125" lon="-5.8722441829741001129150390625">
        <ele>562.5999755859375</ele>
        <time>2019-02-14T12:27:21.000Z</time>
      </trkpt>
      <trkpt lat="43.38357285596430301666259765625" lon="-5.87215147912502288818359375">
        <ele>562.4000244140625</ele>
        <time>2019-02-14T12:27:27.000Z</time>
      </trkpt>
      <trkpt lat="43.383719623088836669921875" lon="-5.87206254713237285614013671875">
        <ele>562.5999755859375</ele>
        <time>2019-02-14T12:27:33.000Z</time>
      </trkpt>
      <trkpt lat="43.38382950983941555023193359375" lon="-5.871984846889972686767578125">
        <ele>563.20001220703125</ele>
        <time>2019-02-14T12:27:38.000Z</time>
      </trkpt>
      <trkpt lat="43.38384769856929779052734375" lon="-5.8719689212739467620849609375">
        <ele>563.20001220703125</ele>
        <time>2019-02-14T12:27:39.000Z</time>
      </trkpt>
      <trkpt lat="43.38398826308548450469970703125" lon="-5.87178208865225315093994140625">
        <ele>563.20001220703125</ele>
        <time>2019-02-14T12:27:46.000Z</time>
      </trkpt>
      <trkpt lat="43.3841254748404026031494140625" lon="-5.87152292020618915557861328125">
        <ele>563</ele>
        <time>2019-02-14T12:27:54.000Z</time>
      </trkpt>
      <trkpt lat="43.38420736603438854217529296875" lon="-5.87124715559184551239013671875">
        <ele>563.20001220703125</ele>
        <time>2019-02-14T12:28:02.000Z</time>
      </trkpt>
      <trkpt lat="43.3842351101338863372802734375" lon="-5.8709594048559665679931640625">
        <ele>563.5999755859375</ele>
        <time>2019-02-14T12:28:09.000Z</time>
      </trkpt>
      <trkpt lat="43.3843031711876392364501953125" lon="-5.87078447453677654266357421875">
        <ele>563</ele>
        <time>2019-02-14T12:28:13.000Z</time>
      </trkpt>
      <trkpt lat="43.3843930251896381378173828125" lon="-5.8707646094262599945068359375">
        <ele>562</ele>
        <time>2019-02-14T12:28:16.000Z</time>
      </trkpt>
      <trkpt lat="43.384420014917850494384765625" lon="-5.87076268158853054046630859375">
        <ele>562</ele>
        <time>2019-02-14T12:28:17.000Z</time>
      </trkpt>
      <trkpt lat="43.3845113776624202728271484375" lon="-5.8707558922469615936279296875">
        <ele>562.79998779296875</ele>
        <time>2019-02-14T12:28:21.000Z</time>
      </trkpt>
      <trkpt lat="43.3845328353345394134521484375" lon="-5.87074943818151950836181640625">
        <ele>563.20001220703125</ele>
        <time>2019-02-14T12:28:22.000Z</time>
      </trkpt>
      <trkpt lat="43.38463786058127880096435546875" lon="-5.87071607820689678192138671875">
        <ele>564</ele>
        <time>2019-02-14T12:28:26.000Z</time>
      </trkpt>
      <trkpt lat="43.38468764908611774444580078125" lon="-5.8706925250589847564697265625">
        <ele>564.20001220703125</ele>
        <time>2019-02-14T12:28:28.000Z</time>
      </trkpt>
      <trkpt lat="43.38473618030548095703125" lon="-5.870632342994213104248046875">
        <ele>564</ele>
        <time>2019-02-14T12:28:31.000Z</time>
      </trkpt>
      <trkpt lat="43.3848624117672443389892578125" lon="-5.87050066329538822174072265625">
        <ele>564.20001220703125</ele>
        <time>2019-02-14T12:28:37.000Z</time>
      </trkpt>
      <trkpt lat="43.38497514836490154266357421875" lon="-5.8703295886516571044921875">
        <ele>564</ele>
        <time>2019-02-14T12:28:43.000Z</time>
      </trkpt>
      <trkpt lat="43.3850593864917755126953125" lon="-5.8701835758984088897705078125">
        <ele>565</ele>
        <time>2019-02-14T12:28:49.000Z</time>
      </trkpt>
      <trkpt lat="43.3850843645632266998291015625" lon="-5.870185755193233489990234375">
        <ele>565.4000244140625</ele>
        <time>2019-02-14T12:28:52.000Z</time>
      </trkpt>
      <trkpt lat="43.3850867114961147308349609375" lon="-5.870196819305419921875">
        <ele>565.5999755859375</ele>
        <time>2019-02-14T12:28:53.000Z</time>
      </trkpt>
      <trkpt lat="43.38508545421063899993896484375" lon="-5.87022204883396625518798828125">
        <ele>565.79998779296875</ele>
        <time>2019-02-14T12:28:55.000Z</time>
      </trkpt>
      <trkpt lat="43.38508578948676586151123046875" lon="-5.870265550911426544189453125">
        <ele>566.4000244140625</ele>
        <time>2019-02-14T12:28:58.000Z</time>
      </trkpt>
      <trkpt lat="43.38508243672549724578857421875" lon="-5.8702928759157657623291015625">
        <ele>566.5999755859375</ele>
        <time>2019-02-14T12:29:00.000Z</time>
      </trkpt>
      <trkpt lat="43.3850786648690700531005859375" lon="-5.87030771188437938690185546875">
        <ele>566.79998779296875</ele>
        <time>2019-02-14T12:29:01.000Z</time>
      </trkpt>
      <trkpt lat="43.38507455773651599884033203125" lon="-5.87031592614948749542236328125">
        <ele>566.79998779296875</ele>
        <time>2019-02-14T12:29:02.000Z</time>
      </trkpt>
      <trkpt lat="43.385063745081424713134765625" lon="-5.870394296944141387939453125">
        <ele>567</ele>
        <time>2019-02-14T12:29:06.000Z</time>
      </trkpt>
      <trkpt lat="43.3850588835775852203369140625" lon="-5.87041768245398998260498046875">
        <ele>567.4000244140625</ele>
        <time>2019-02-14T12:29:08.000Z</time>
      </trkpt>
      <trkpt lat="43.38504689745604991912841796875" lon="-5.87045774795114994049072265625">
        <ele>567.5999755859375</ele>
        <time>2019-02-14T12:29:10.000Z</time>
      </trkpt>
      <trkpt lat="43.3850350789725780487060546875" lon="-5.87049345485866069793701171875">
        <ele>567.79998779296875</ele>
        <time>2019-02-14T12:29:12.000Z</time>
      </trkpt>
      <trkpt lat="43.3850323967635631561279296875" lon="-5.87053402327001094818115234375">
        <ele>568.20001220703125</ele>
        <time>2019-02-14T12:29:15.000Z</time>
      </trkpt>
      <trkpt lat="43.3850075863301753997802734375" lon="-5.87059839628636837005615234375">
        <ele>568.5999755859375</ele>
        <time>2019-02-14T12:29:19.000Z</time>
      </trkpt>
      <trkpt lat="43.3850030601024627685546875" lon="-5.87061750702559947967529296875">
        <ele>569</ele>
        <time>2019-02-14T12:29:20.000Z</time>
      </trkpt>
      <trkpt lat="43.38499694131314754486083984375" lon="-5.8706315048038959503173828125">
        <ele>569.4000244140625</ele>
        <time>2019-02-14T12:29:21.000Z</time>
      </trkpt>
      <trkpt lat="43.38495939038693904876708984375" lon="-5.8706975542008876800537109375">
        <ele>570</ele>
        <time>2019-02-14T12:29:26.000Z</time>
      </trkpt>
      <trkpt lat="43.38494095019996166229248046875" lon="-5.87073435075581073760986328125">
        <ele>570.5999755859375</ele>
        <time>2019-02-14T12:29:28.000Z</time>
      </trkpt>
      <trkpt lat="43.3849287964403629302978515625" lon="-5.87075681425631046295166015625">
        <ele>570.79998779296875</ele>
        <time>2019-02-14T12:29:29.000Z</time>
      </trkpt>
      <trkpt lat="43.38491521775722503662109375" lon="-5.87078330107033252716064453125">
        <ele>571.5999755859375</ele>
        <time>2019-02-14T12:29:31.000Z</time>
      </trkpt>
      <trkpt lat="43.384881354868412017822265625" lon="-5.87082621641457080841064453125">
        <ele>572.79998779296875</ele>
        <time>2019-02-14T12:29:35.000Z</time>
      </trkpt>
      <trkpt lat="43.384871967136859893798828125" lon="-5.870840884745121002197265625">
        <ele>573</ele>
        <time>2019-02-14T12:29:36.000Z</time>
      </trkpt>
      <trkpt lat="43.38481220416724681854248046875" lon="-5.87092394940555095672607421875">
        <ele>574</ele>
        <time>2019-02-14T12:29:42.000Z</time>
      </trkpt>
      <trkpt lat="43.38478915393352508544921875" lon="-5.8709503524005413055419921875">
        <ele>574.5999755859375</ele>
        <time>2019-02-14T12:29:44.000Z</time>
      </trkpt>
      <trkpt lat="43.384774737060070037841796875" lon="-5.8709687925875186920166015625">
        <ele>575</ele>
        <time>2019-02-14T12:29:45.000Z</time>
      </trkpt>
      <trkpt lat="43.38476375676691532135009765625" lon="-5.8709872327744960784912109375">
        <ele>575.20001220703125</ele>
        <time>2019-02-14T12:29:46.000Z</time>
      </trkpt>
      <trkpt lat="43.384757973253726959228515625" lon="-5.8709952794015407562255859375">
        <ele>575.20001220703125</ele>
        <time>2019-02-14T12:29:47.000Z</time>
      </trkpt>
      <trkpt lat="43.38474112562835216522216796875" lon="-5.87101363576948642730712890625">
        <ele>575.4000244140625</ele>
        <time>2019-02-14T12:29:49.000Z</time>
      </trkpt>
      <trkpt lat="43.3847195841372013092041015625" lon="-5.87104867212474346160888671875">
        <ele>576.4000244140625</ele>
        <time>2019-02-14T12:29:52.000Z</time>
      </trkpt>
      <trkpt lat="43.38469016365706920623779296875" lon="-5.8711163140833377838134765625">
        <ele>577.4000244140625</ele>
        <time>2019-02-14T12:29:57.000Z</time>
      </trkpt>
      <trkpt lat="43.38466937653720378875732421875" lon="-5.87119032628834247589111328125">
        <ele>578.20001220703125</ele>
        <time>2019-02-14T12:30:03.000Z</time>
      </trkpt>
      <trkpt lat="43.38465311564505100250244140625" lon="-5.87124145589768886566162109375">
        <ele>578.79998779296875</ele>
        <time>2019-02-14T12:30:07.000Z</time>
      </trkpt>
      <trkpt lat="43.3846364356577396392822265625" lon="-5.87128956802189350128173828125">
        <ele>579.5999755859375</ele>
        <time>2019-02-14T12:30:11.000Z</time>
      </trkpt>
      <trkpt lat="43.38462553918361663818359375" lon="-5.87132242508232593536376953125">
        <ele>580</ele>
        <time>2019-02-14T12:30:14.000Z</time>
      </trkpt>
      <trkpt lat="43.38459075428545475006103515625" lon="-5.87141781114041805267333984375">
        <ele>579.79998779296875</ele>
        <time>2019-02-14T12:30:19.000Z</time>
      </trkpt>
      <trkpt lat="43.384548090398311614990234375" lon="-5.87158226408064365386962890625">
        <ele>580.4000244140625</ele>
        <time>2019-02-14T12:30:26.000Z</time>
      </trkpt>
      <trkpt lat="43.38450643233954906463623046875" lon="-5.8717114292085170745849609375">
        <ele>580.5999755859375</ele>
        <time>2019-02-14T12:30:31.000Z</time>
      </trkpt>
      <trkpt lat="43.38445949368178844451904296875" lon="-5.87183522991836071014404296875">
        <ele>581</ele>
        <time>2019-02-14T12:30:36.000Z</time>
      </trkpt>
      <trkpt lat="43.38445044122636318206787109375" lon="-5.8718579448759555816650390625">
        <ele>581.20001220703125</ele>
        <time>2019-02-14T12:30:37.000Z</time>
      </trkpt>
      <trkpt lat="43.38438170962035655975341796875" lon="-5.871974118053913116455078125">
        <ele>581.79998779296875</ele>
        <time>2019-02-14T12:30:42.000Z</time>
      </trkpt>
      <trkpt lat="43.38435740210115909576416015625" lon="-5.8720165304839611053466796875">
        <ele>582</ele>
        <time>2019-02-14T12:30:44.000Z</time>
      </trkpt>
      <trkpt lat="43.38434214703738689422607421875" lon="-5.87204176001250743865966796875">
        <ele>582</ele>
        <time>2019-02-14T12:30:45.000Z</time>
      </trkpt>
      <trkpt lat="43.384304009377956390380859375" lon="-5.8720845915377140045166015625">
        <ele>582.20001220703125</ele>
        <time>2019-02-14T12:30:47.000Z</time>
      </trkpt>
      <trkpt lat="43.3842843957245349884033203125" lon="-5.872106216847896575927734375">
        <ele>582.20001220703125</ele>
        <time>2019-02-14T12:30:48.000Z</time>
      </trkpt>
      <trkpt lat="43.3841888420283794403076171875" lon="-5.872251056134700775146484375">
        <ele>582.4000244140625</ele>
        <time>2019-02-14T12:30:54.000Z</time>
      </trkpt>
      <trkpt lat="43.384105861186981201171875" lon="-5.872355997562408447265625">
        <ele>582.20001220703125</ele>
        <time>2019-02-14T12:30:59.000Z</time>
      </trkpt>
      <trkpt lat="43.3840017579495906829833984375" lon="-5.87248885072767734527587890625">
        <ele>583</ele>
        <time>2019-02-14T12:31:05.000Z</time>
      </trkpt>
      <trkpt lat="43.383942581713199615478515625" lon="-5.8725828118622303009033203125">
        <ele>583.20001220703125</ele>
        <time>2019-02-14T12:31:09.000Z</time>
      </trkpt>
      <trkpt lat="43.3839266560971736907958984375" lon="-5.87263151071965694427490234375">
        <ele>583.4000244140625</ele>
        <time>2019-02-14T12:31:11.000Z</time>
      </trkpt>
      <trkpt lat="43.38392020203173160552978515625" lon="-5.872657410800457000732421875">
        <ele>583.79998779296875</ele>
        <time>2019-02-14T12:31:12.000Z</time>
      </trkpt>
      <trkpt lat="43.383912406861782073974609375" lon="-5.87288464419543743133544921875">
        <ele>583.79998779296875</ele>
        <time>2019-02-14T12:31:20.000Z</time>
      </trkpt>
      <trkpt lat="43.38393596000969409942626953125" lon="-5.87304792366921901702880859375">
        <ele>584</ele>
        <time>2019-02-14T12:31:26.000Z</time>
      </trkpt>
      <trkpt lat="43.383950293064117431640625" lon="-5.87310098111629486083984375">
        <ele>584.20001220703125</ele>
        <time>2019-02-14T12:31:28.000Z</time>
      </trkpt>
      <trkpt lat="43.38401399552822113037109375" lon="-5.87327574379742145538330078125">
        <ele>584.4000244140625</ele>
        <time>2019-02-14T12:31:35.000Z</time>
      </trkpt>
      <trkpt lat="43.38402313180267810821533203125" lon="-5.87329954840242862701416015625">
        <ele>584.5999755859375</ele>
        <time>2019-02-14T12:31:36.000Z</time>
      </trkpt>
      <trkpt lat="43.3841311745345592498779296875" lon="-5.87347003631293773651123046875">
        <ele>585.5999755859375</ele>
        <time>2019-02-14T12:31:44.000Z</time>
      </trkpt>
      <trkpt lat="43.384159170091152191162109375" lon="-5.87350976653397083282470703125">
        <ele>585.79998779296875</ele>
        <time>2019-02-14T12:31:46.000Z</time>
      </trkpt>
      <trkpt lat="43.38422614149749279022216796875" lon="-5.87359610013663768768310546875">
        <ele>586.5999755859375</ele>
        <time>2019-02-14T12:31:51.000Z</time>
      </trkpt>
      <trkpt lat="43.38424106128513813018798828125" lon="-5.873611606657505035400390625">
        <ele>587</ele>
        <time>2019-02-14T12:31:52.000Z</time>
      </trkpt>
      <trkpt lat="43.3843085356056690216064453125" lon="-5.87370908819139003753662109375">
        <ele>587.4000244140625</ele>
        <time>2019-02-14T12:31:58.000Z</time>
      </trkpt>
      <trkpt lat="43.38440828025341033935546875" lon="-5.87385409511625766754150390625">
        <ele>587.79998779296875</ele>
        <time>2019-02-14T12:32:05.000Z</time>
      </trkpt>
      <trkpt lat="43.384422026574611663818359375" lon="-5.87387873791158199310302734375">
        <ele>588</ele>
        <time>2019-02-14T12:32:06.000Z</time>
      </trkpt>
      <trkpt lat="43.38447206653654575347900390625" lon="-5.87401318363845348358154296875">
        <ele>588.5999755859375</ele>
        <time>2019-02-14T12:32:11.000Z</time>
      </trkpt>
      <trkpt lat="43.38449620641767978668212890625" lon="-5.87423278950154781341552734375">
        <ele>589.4000244140625</ele>
        <time>2019-02-14T12:32:17.000Z</time>
      </trkpt>
      <trkpt lat="43.38450039736926555633544921875" lon="-5.87426371872425079345703125">
        <ele>589.20001220703125</ele>
        <time>2019-02-14T12:32:18.000Z</time>
      </trkpt>
      <trkpt lat="43.384510539472103118896484375" lon="-5.87449162267148494720458984375">
        <ele>590.4000244140625</ele>
        <time>2019-02-14T12:32:26.000Z</time>
      </trkpt>
      <trkpt lat="43.38451699353754520416259765625" lon="-5.87466345168650150299072265625">
        <ele>591.79998779296875</ele>
        <time>2019-02-14T12:32:32.000Z</time>
      </trkpt>
      <trkpt lat="43.384493105113506317138671875" lon="-5.87481667287647724151611328125">
        <ele>592</ele>
        <time>2019-02-14T12:32:38.000Z</time>
      </trkpt>
      <trkpt lat="43.38445865549147129058837890625" lon="-5.87498188018798828125">
        <ele>592.79998779296875</ele>
        <time>2019-02-14T12:32:44.000Z</time>
      </trkpt>
      <trkpt lat="43.38445295579731464385986328125" lon="-5.87500979192554950714111328125">
        <ele>592.79998779296875</ele>
        <time>2019-02-14T12:32:45.000Z</time>
      </trkpt>
      <trkpt lat="43.384448178112506866455078125" lon="-5.875166617333889007568359375">
        <ele>593.20001220703125</ele>
        <time>2019-02-14T12:32:50.000Z</time>
      </trkpt>
      <trkpt lat="43.38444390334188938140869140625" lon="-5.875379852950572967529296875">
        <ele>593.5999755859375</ele>
        <time>2019-02-14T12:32:56.000Z</time>
      </trkpt>
      <trkpt lat="43.38444390334188938140869140625" lon="-5.87541011162102222442626953125">
        <ele>594</ele>
        <time>2019-02-14T12:32:57.000Z</time>
      </trkpt>
      <trkpt lat="43.38441423140466213226318359375" lon="-5.87556383572518825531005859375">
        <ele>594.4000244140625</ele>
        <time>2019-02-14T12:33:02.000Z</time>
      </trkpt>
      <trkpt lat="43.38443820364773273468017578125" lon="-5.87577941827476024627685546875">
        <ele>594.4000244140625</ele>
        <time>2019-02-14T12:33:09.000Z</time>
      </trkpt>
      <trkpt lat="43.3844610862433910369873046875" lon="-5.87587631307542324066162109375">
        <ele>594.79998779296875</ele>
        <time>2019-02-14T12:33:12.000Z</time>
      </trkpt>
      <trkpt lat="43.384509198367595672607421875" lon="-5.87601696141064167022705078125">
        <ele>594</ele>
        <time>2019-02-14T12:33:16.000Z</time>
      </trkpt>
      <trkpt lat="43.3846022374927997589111328125" lon="-5.87619566358625888824462890625">
        <ele>594.20001220703125</ele>
        <time>2019-02-14T12:33:22.000Z</time>
      </trkpt>
      <trkpt lat="43.3846964500844478607177734375" lon="-5.8763600327074527740478515625">
        <ele>594.4000244140625</ele>
        <time>2019-02-14T12:33:27.000Z</time>
      </trkpt>
      <trkpt lat="43.38471028022468090057373046875" lon="-5.87639112956821918487548828125">
        <ele>594.20001220703125</ele>
        <time>2019-02-14T12:33:28.000Z</time>
      </trkpt>
      <trkpt lat="43.38478487916290760040283203125" lon="-5.876521132886409759521484375">
        <ele>594.20001220703125</ele>
        <time>2019-02-14T12:33:33.000Z</time>
      </trkpt>
      <trkpt lat="43.38479862548410892486572265625" lon="-5.876539908349514007568359375">
        <ele>594.20001220703125</ele>
        <time>2019-02-14T12:33:34.000Z</time>
      </trkpt>
      <trkpt lat="43.38486618362367153167724609375" lon="-5.87671685032546520233154296875">
        <ele>594.20001220703125</ele>
        <time>2019-02-14T12:33:39.000Z</time>
      </trkpt>
      <trkpt lat="43.38486651889979839324951171875" lon="-5.8770057745277881622314453125">
        <ele>593.4000244140625</ele>
        <time>2019-02-14T12:33:45.000Z</time>
      </trkpt>
      <trkpt lat="43.3848664350807666778564453125" lon="-5.87719143368303775787353515625">
        <ele>594.20001220703125</ele>
        <time>2019-02-14T12:33:50.000Z</time>
      </trkpt>
      <trkpt lat="43.38486048392951488494873046875" lon="-5.87740131653845310211181640625">
        <ele>594.20001220703125</ele>
        <time>2019-02-14T12:33:56.000Z</time>
      </trkpt>
      <trkpt lat="43.3848339132964611053466796875" lon="-5.8776035718619823455810546875">
        <ele>595.5999755859375</ele>
        <time>2019-02-14T12:34:01.000Z</time>
      </trkpt>
      <trkpt lat="43.3848268724977970123291015625" lon="-5.87764271534979343414306640625">
        <ele>595.5999755859375</ele>
        <time>2019-02-14T12:34:02.000Z</time>
      </trkpt>
      <trkpt lat="43.3848084323108196258544921875" lon="-5.87771345861256122589111328125">
        <ele>595.20001220703125</ele>
        <time>2019-02-14T12:34:04.000Z</time>
      </trkpt>
      <trkpt lat="43.38479409925639629364013671875" lon="-5.877824015915393829345703125">
        <ele>595.20001220703125</ele>
        <time>2019-02-14T12:34:07.000Z</time>
      </trkpt>
      <trkpt lat="43.38476836681365966796875" lon="-5.87796860374510288238525390625">
        <ele>595.79998779296875</ele>
        <time>2019-02-14T12:34:11.000Z</time>
      </trkpt>
      <trkpt lat="43.384764678776264190673828125" lon="-5.8779948391020298004150390625">
        <ele>596.4000244140625</ele>
        <time>2019-02-14T12:34:12.000Z</time>
      </trkpt>
      <trkpt lat="43.384745903313159942626953125" lon="-5.8780538477003574371337890625">
        <ele>597</ele>
        <time>2019-02-14T12:34:14.000Z</time>
      </trkpt>
      <trkpt lat="43.38472469709813594818115234375" lon="-5.87817345745861530303955078125">
        <ele>597</ele>
        <time>2019-02-14T12:34:18.000Z</time>
      </trkpt>
      <trkpt lat="43.38465311564505100250244140625" lon="-5.87829507887363433837890625">
        <ele>598</ele>
        <time>2019-02-14T12:34:22.000Z</time>
      </trkpt>
      <trkpt lat="43.3846381120383739471435546875" lon="-5.8783153630793094635009765625">
        <ele>598.4000244140625</ele>
        <time>2019-02-14T12:34:23.000Z</time>
      </trkpt>
      <trkpt lat="43.384589664638042449951171875" lon="-5.8783948235213756561279296875">
        <ele>599.20001220703125</ele>
        <time>2019-02-14T12:34:27.000Z</time>
      </trkpt>
      <trkpt lat="43.3845499344170093536376953125" lon="-5.8784397505223751068115234375">
        <ele>599.4000244140625</ele>
        <time>2019-02-14T12:34:29.000Z</time>
      </trkpt>
      <trkpt lat="43.3844604156911373138427734375" lon="-5.87853957898914813995361328125">
        <ele>600.5999755859375</ele>
        <time>2019-02-14T12:34:34.000Z</time>
      </trkpt>
      <trkpt lat="43.38443510234355926513671875" lon="-5.87858115322887897491455078125">
        <ele>600.79998779296875</ele>
        <time>2019-02-14T12:34:36.000Z</time>
      </trkpt>
      <trkpt lat="43.384379111230373382568359375" lon="-5.87863999418914318084716796875">
        <ele>601.20001220703125</ele>
        <time>2019-02-14T12:34:39.000Z</time>
      </trkpt>
      <trkpt lat="43.3843507803976535797119140625" lon="-5.87867536582052707672119140625">
        <ele>601.79998779296875</ele>
        <time>2019-02-14T12:34:41.000Z</time>
      </trkpt>
      <trkpt lat="43.3843075297772884368896484375" lon="-5.8787264116108417510986328125">
        <ele>602.20001220703125</ele>
        <time>2019-02-14T12:34:44.000Z</time>
      </trkpt>
      <trkpt lat="43.38424340821802616119384765625" lon="-5.878787934780120849609375">
        <ele>603</ele>
        <time>2019-02-14T12:34:48.000Z</time>
      </trkpt>
      <trkpt lat="43.38419596664607524871826171875" lon="-5.87883152067661285400390625">
        <ele>603.4000244140625</ele>
        <time>2019-02-14T12:34:51.000Z</time>
      </trkpt>
      <trkpt lat="43.384147100150585174560546875" lon="-5.87888189591467380523681640625">
        <ele>604</ele>
        <time>2019-02-14T12:34:54.000Z</time>
      </trkpt>
      <trkpt lat="43.38406001217663288116455078125" lon="-5.87895481847226619720458984375">
        <ele>604.5999755859375</ele>
        <time>2019-02-14T12:34:59.000Z</time>
      </trkpt>
      <trkpt lat="43.38401240296661853790283203125" lon="-5.87899371050298213958740234375">
        <ele>605.20001220703125</ele>
        <time>2019-02-14T12:35:02.000Z</time>
      </trkpt>
      <trkpt lat="43.3839382231235504150390625" lon="-5.87905556894838809967041015625">
        <ele>605.5999755859375</ele>
        <time>2019-02-14T12:35:06.000Z</time>
      </trkpt>
      <trkpt lat="43.38382481597363948822021484375" lon="-5.879161097109317779541015625">
        <ele>606.20001220703125</ele>
        <time>2019-02-14T12:35:13.000Z</time>
      </trkpt>
      <trkpt lat="43.38378357701003551483154296875" lon="-5.87920493446290493011474609375">
        <ele>606.4000244140625</ele>
        <time>2019-02-14T12:35:16.000Z</time>
      </trkpt>
      <trkpt lat="43.3837010152637958526611328125" lon="-5.87929478846490383148193359375">
        <ele>607.20001220703125</ele>
        <time>2019-02-14T12:35:22.000Z</time>
      </trkpt>
      <trkpt lat="43.38368919678032398223876953125" lon="-5.87931406684219837188720703125">
        <ele>607.4000244140625</ele>
        <time>2019-02-14T12:35:23.000Z</time>
      </trkpt>
      <trkpt lat="43.38366187177598476409912109375" lon="-5.87942428886890411376953125">
        <ele>608.4000244140625</ele>
        <time>2019-02-14T12:35:28.000Z</time>
      </trkpt>
      <trkpt lat="43.38366857729852199554443359375" lon="-5.8794643543660640716552734375">
        <ele>608.79998779296875</ele>
        <time>2019-02-14T12:35:30.000Z</time>
      </trkpt>
      <trkpt lat="43.38367402553558349609375" lon="-5.87948195636272430419921875">
        <ele>608.79998779296875</ele>
        <time>2019-02-14T12:35:31.000Z</time>
      </trkpt>
      <trkpt lat="43.38369606994092464447021484375" lon="-5.87951975874602794647216796875">
        <ele>609.5999755859375</ele>
        <time>2019-02-14T12:35:34.000Z</time>
      </trkpt>
      <trkpt lat="43.3837298490107059478759765625" lon="-5.8795402944087982177734375">
        <ele>610</ele>
        <time>2019-02-14T12:35:37.000Z</time>
      </trkpt>
      <trkpt lat="43.38380184955894947052001953125" lon="-5.8795652724802494049072265625">
        <ele>611</ele>
        <time>2019-02-14T12:35:42.000Z</time>
      </trkpt>
      <trkpt lat="43.38381609879434108734130859375" lon="-5.879570804536342620849609375">
        <ele>611.20001220703125</ele>
        <time>2019-02-14T12:35:43.000Z</time>
      </trkpt>
      <trkpt lat="43.38389740325510501861572265625" lon="-5.8796021528542041778564453125">
        <ele>611.4000244140625</ele>
        <time>2019-02-14T12:35:49.000Z</time>
      </trkpt>
      <trkpt lat="43.3839355409145355224609375" lon="-5.87961916811764240264892578125">
        <ele>612.20001220703125</ele>
        <time>2019-02-14T12:35:52.000Z</time>
      </trkpt>
      <trkpt lat="43.38399128057062625885009765625" lon="-5.87963207624852657318115234375">
        <ele>612.79998779296875</ele>
        <time>2019-02-14T12:35:57.000Z</time>
      </trkpt>
      <trkpt lat="43.38404090143740177154541015625" lon="-5.87964330799877643585205078125">
        <ele>613.5999755859375</ele>
        <time>2019-02-14T12:36:01.000Z</time>
      </trkpt>
      <trkpt lat="43.38407577015459537506103515625" lon="-5.87964481674134731292724609375">
        <ele>614.5999755859375</ele>
        <time>2019-02-14T12:36:04.000Z</time>
      </trkpt>
      <trkpt lat="43.38409974239766597747802734375" lon="-5.8796484209597110748291015625">
        <ele>615.20001220703125</ele>
        <time>2019-02-14T12:36:06.000Z</time>
      </trkpt>
      <trkpt lat="43.38414751924574375152587890625" lon="-5.87965822778642177581787109375">
        <ele>615.79998779296875</ele>
        <time>2019-02-14T12:36:10.000Z</time>
      </trkpt>
      <trkpt lat="43.3841858245432376861572265625" lon="-5.87966434657573699951171875">
        <ele>616.4000244140625</ele>
        <time>2019-02-14T12:36:13.000Z</time>
      </trkpt>
      <trkpt lat="43.38421122170984745025634765625" lon="-5.87966560386121273040771484375">
        <ele>617</ele>
        <time>2019-02-14T12:36:15.000Z</time>
      </trkpt>
      <trkpt lat="43.38426955975592136383056640625" lon="-5.879672057926654815673828125">
        <ele>618</ele>
        <time>2019-02-14T12:36:20.000Z</time>
      </trkpt>
      <trkpt lat="43.38435337878763675689697265625" lon="-5.87968655861914157867431640625">
        <ele>619</ele>
        <time>2019-02-14T12:36:27.000Z</time>
      </trkpt>
      <trkpt lat="43.3844329230487346649169921875" lon="-5.87969326414167881011962890625">
        <ele>619.79998779296875</ele>
        <time>2019-02-14T12:36:34.000Z</time>
      </trkpt>
      <trkpt lat="43.38445848785340785980224609375" lon="-5.8796916715800762176513671875">
        <ele>620</ele>
        <time>2019-02-14T12:36:36.000Z</time>
      </trkpt>
      <trkpt lat="43.38453576900064945220947265625" lon="-5.87969963438808917999267578125">
        <ele>620.79998779296875</ele>
        <time>2019-02-14T12:36:41.000Z</time>
      </trkpt>
      <trkpt lat="43.384670801460742950439453125" lon="-5.87971556000411510467529296875">
        <ele>620.79998779296875</ele>
        <time>2019-02-14T12:36:49.000Z</time>
      </trkpt>
      <trkpt lat="43.38477968238294124603271484375" lon="-5.87968437932431697845458984375">
        <ele>621</ele>
        <time>2019-02-14T12:36:55.000Z</time>
      </trkpt>
      <trkpt lat="43.3847923390567302703857421875" lon="-5.8796678669750690460205078125">
        <ele>621.20001220703125</ele>
        <time>2019-02-14T12:36:56.000Z</time>
      </trkpt>
      <trkpt lat="43.38479988276958465576171875" lon="-5.87964917533099651336669921875">
        <ele>621.20001220703125</ele>
        <time>2019-02-14T12:36:57.000Z</time>
      </trkpt>
      <trkpt lat="43.3848077617585659027099609375" lon="-5.8795910887420177459716796875">
        <ele>621.5999755859375</ele>
        <time>2019-02-14T12:37:00.000Z</time>
      </trkpt>
      <trkpt lat="43.38481002487242221832275390625" lon="-5.8795236982405185699462890625">
        <ele>622.20001220703125</ele>
        <time>2019-02-14T12:37:03.000Z</time>
      </trkpt>
      <trkpt lat="43.3848268724977970123291015625" lon="-5.8793936111032962799072265625">
        <ele>622.79998779296875</ele>
        <time>2019-02-14T12:37:09.000Z</time>
      </trkpt>
      <trkpt lat="43.38487221859395503997802734375" lon="-5.879273079335689544677734375">
        <ele>623.20001220703125</ele>
        <time>2019-02-14T12:37:15.000Z</time>
      </trkpt>
      <trkpt lat="43.38496307842433452606201171875" lon="-5.87915145792067050933837890625">
        <ele>623.79998779296875</ele>
        <time>2019-02-14T12:37:22.000Z</time>
      </trkpt>
      <trkpt lat="43.385000713169574737548828125" lon="-5.879110135138034820556640625">
        <ele>624.20001220703125</ele>
        <time>2019-02-14T12:37:25.000Z</time>
      </trkpt>
      <trkpt lat="43.3850515075027942657470703125" lon="-5.87904400192201137542724609375">
        <ele>624.4000244140625</ele>
        <time>2019-02-14T12:37:29.000Z</time>
      </trkpt>
      <trkpt lat="43.38506734929978847503662109375" lon="-5.87897761724889278411865234375">
        <ele>624.4000244140625</ele>
        <time>2019-02-14T12:37:33.000Z</time>
      </trkpt>
      <trkpt lat="43.3850712887942790985107421875" lon="-5.8789416588842868804931640625">
        <ele>624.4000244140625</ele>
        <time>2019-02-14T12:37:35.000Z</time>
      </trkpt>
      <trkpt lat="43.38510590605437755584716796875" lon="-5.8788722567260265350341796875">
        <ele>624.4000244140625</ele>
        <time>2019-02-14T12:37:38.000Z</time>
      </trkpt>
      <trkpt lat="43.38514052331447601318359375" lon="-5.87883110158145427703857421875">
        <ele>624.4000244140625</ele>
        <time>2019-02-14T12:37:40.000Z</time>
      </trkpt>
      <trkpt lat="43.3852261863648891448974609375" lon="-5.87874057702720165252685546875">
        <ele>624.20001220703125</ele>
        <time>2019-02-14T12:37:44.000Z</time>
      </trkpt>
      <trkpt lat="43.38527195155620574951171875" lon="-5.87867729365825653076171875">
        <ele>623.5999755859375</ele>
        <time>2019-02-14T12:37:46.000Z</time>
      </trkpt>
      <trkpt lat="43.38534395210444927215576171875" lon="-5.8785316161811351776123046875">
        <ele>623.20001220703125</ele>
        <time>2019-02-14T12:37:50.000Z</time>
      </trkpt>
      <trkpt lat="43.3853499032557010650634765625" lon="-5.87848526425659656524658203125">
        <ele>622.79998779296875</ele>
        <time>2019-02-14T12:37:51.000Z</time>
      </trkpt>
      <trkpt lat="43.3853445388376712799072265625" lon="-5.878387950360774993896484375">
        <ele>621.79998779296875</ele>
        <time>2019-02-14T12:37:53.000Z</time>
      </trkpt>
      <trkpt lat="43.385341353714466094970703125" lon="-5.8782764710485935211181640625">
        <ele>621.20001220703125</ele>
        <time>2019-02-14T12:37:55.000Z</time>
      </trkpt>
      <trkpt lat="43.3853368274867534637451171875" lon="-5.8782152831554412841796875">
        <ele>620.79998779296875</ele>
        <time>2019-02-14T12:37:56.000Z</time>
      </trkpt>
      <trkpt lat="43.38532023131847381591796875" lon="-5.87802149355411529541015625">
        <ele>618.79998779296875</ele>
        <time>2019-02-14T12:37:59.000Z</time>
      </trkpt>
      <trkpt lat="43.38531377725303173065185546875" lon="-5.8779537677764892578125">
        <ele>617.79998779296875</ele>
        <time>2019-02-14T12:38:00.000Z</time>
      </trkpt>
      <trkpt lat="43.3852927386760711669921875" lon="-5.87782569229602813720703125">
        <ele>616.5999755859375</ele>
        <time>2019-02-14T12:38:02.000Z</time>
      </trkpt>
      <trkpt lat="43.38526952080428600311279296875" lon="-5.877740196883678436279296875">
        <ele>615.4000244140625</ele>
        <time>2019-02-14T12:38:04.000Z</time>
      </trkpt>
      <trkpt lat="43.38525594212114810943603515625" lon="-5.87766610085964202880859375">
        <ele>614.5999755859375</ele>
        <time>2019-02-14T12:38:06.000Z</time>
      </trkpt>
      <trkpt lat="43.38526398874819278717041015625" lon="-5.87759099900722503662109375">
        <ele>614.20001220703125</ele>
        <time>2019-02-14T12:38:08.000Z</time>
      </trkpt>
      <trkpt lat="43.38527270592749118804931640625" lon="-5.87754674255847930908203125">
        <ele>614</ele>
        <time>2019-02-14T12:38:09.000Z</time>
      </trkpt>
      <trkpt lat="43.38527974672615528106689453125" lon="-5.877498127520084381103515625">
        <ele>613.4000244140625</ele>
        <time>2019-02-14T12:38:10.000Z</time>
      </trkpt>
      <trkpt lat="43.3852831833064556121826171875" lon="-5.87745076976716518402099609375">
        <ele>612.5999755859375</ele>
        <time>2019-02-14T12:38:11.000Z</time>
      </trkpt>
      <trkpt lat="43.3852841891348361968994140625" lon="-5.87736225686967372894287109375">
        <ele>611.4000244140625</ele>
        <time>2019-02-14T12:38:13.000Z</time>
      </trkpt>
      <trkpt lat="43.38527656160295009613037109375" lon="-5.87727039121091365814208984375">
        <ele>610</ele>
        <time>2019-02-14T12:38:15.000Z</time>
      </trkpt>
      <trkpt lat="43.385275639593601226806640625" lon="-5.87721808813512325286865234375">
        <ele>609</ele>
        <time>2019-02-14T12:38:16.000Z</time>
      </trkpt>
      <trkpt lat="43.38527136482298374176025390625" lon="-5.87712169624865055084228515625">
        <ele>606.5999755859375</ele>
        <time>2019-02-14T12:38:18.000Z</time>
      </trkpt>
      <trkpt lat="43.38526113890111446380615234375" lon="-5.8770865760743618011474609375">
        <ele>605.4000244140625</ele>
        <time>2019-02-14T12:38:19.000Z</time>
      </trkpt>
      <trkpt lat="43.3852479793131351470947265625" lon="-5.8770557306706905364990234375">
        <ele>604.5999755859375</ele>
        <time>2019-02-14T12:38:20.000Z</time>
      </trkpt>
      <trkpt lat="43.38523733429610729217529296875" lon="-5.87702077813446521759033203125">
        <ele>604</ele>
        <time>2019-02-14T12:38:21.000Z</time>
      </trkpt>
      <trkpt lat="43.38523708283901214599609375" lon="-5.876934193074703216552734375">
        <ele>603.20001220703125</ele>
        <time>2019-02-14T12:38:23.000Z</time>
      </trkpt>
      <trkpt lat="43.38525979779660701751708984375" lon="-5.87689362466335296630859375">
        <ele>602.79998779296875</ele>
        <time>2019-02-14T12:38:24.000Z</time>
      </trkpt>
      <trkpt lat="43.38531528599560260772705078125" lon="-5.87680913507938385009765625">
        <ele>601.79998779296875</ele>
        <time>2019-02-14T12:38:27.000Z</time>
      </trkpt>
      <trkpt lat="43.3853141963481903076171875" lon="-5.876788012683391571044921875">
        <ele>600.79998779296875</ele>
        <time>2019-02-14T12:38:28.000Z</time>
      </trkpt>
      <trkpt lat="43.3853069879114627838134765625" lon="-5.87676278315484523773193359375">
        <ele>600.20001220703125</ele>
        <time>2019-02-14T12:38:29.000Z</time>
      </trkpt>
      <trkpt lat="43.3852754719555377960205078125" lon="-5.8766329474747180938720703125">
        <ele>599.4000244140625</ele>
        <time>2019-02-14T12:38:32.000Z</time>
      </trkpt>
      <trkpt lat="43.38525585830211639404296875" lon="-5.87658005766570568084716796875">
        <ele>599</ele>
        <time>2019-02-14T12:38:33.000Z</time>
      </trkpt>
      <trkpt lat="43.385221660137176513671875" lon="-5.87648115120828151702880859375">
        <ele>597.4000244140625</ele>
        <time>2019-02-14T12:38:35.000Z</time>
      </trkpt>
      <trkpt lat="43.3851936645805835723876953125" lon="-5.87640345096588134765625">
        <ele>596.4000244140625</ele>
        <time>2019-02-14T12:38:37.000Z</time>
      </trkpt>
      <trkpt lat="43.38517664931714534759521484375" lon="-5.8762839250266551971435546875">
        <ele>596.20001220703125</ele>
        <time>2019-02-14T12:38:41.000Z</time>
      </trkpt>
      <trkpt lat="43.385149575769901275634765625" lon="-5.8762594498693943023681640625">
        <ele>597</ele>
        <time>2019-02-14T12:38:43.000Z</time>
      </trkpt>
      <trkpt lat="43.3851291239261627197265625" lon="-5.87622977793216705322265625">
        <ele>597.4000244140625</ele>
        <time>2019-02-14T12:38:45.000Z</time>
      </trkpt>
      <trkpt lat="43.38511512614786624908447265625" lon="-5.87618778459727764129638671875">
        <ele>597.5999755859375</ele>
        <time>2019-02-14T12:38:47.000Z</time>
      </trkpt>
      <trkpt lat="43.38509869761765003204345703125" lon="-5.876070521771907806396484375">
        <ele>598.20001220703125</ele>
        <time>2019-02-14T12:38:52.000Z</time>
      </trkpt>
      <trkpt lat="43.385095931589603424072265625" lon="-5.8760458789765834808349609375">
        <ele>598.20001220703125</ele>
        <time>2019-02-14T12:38:53.000Z</time>
      </trkpt>
      <trkpt lat="43.38508813641965389251708984375" lon="-5.87599483318626880645751953125">
        <ele>598.5999755859375</ele>
        <time>2019-02-14T12:38:55.000Z</time>
      </trkpt>
      <trkpt lat="43.3850478194653987884521484375" lon="-5.87583012878894805908203125">
        <ele>599.20001220703125</ele>
        <time>2019-02-14T12:39:01.000Z</time>
      </trkpt>
      <trkpt lat="43.3850565366446971893310546875" lon="-5.87563726119697093963623046875">
        <ele>598.5999755859375</ele>
        <time>2019-02-14T12:39:08.000Z</time>
      </trkpt>
      <trkpt lat="43.38510607369244098663330078125" lon="-5.87553651072084903717041015625">
        <ele>598.4000244140625</ele>
        <time>2019-02-14T12:39:13.000Z</time>
      </trkpt>
      <trkpt lat="43.38513842783868312835693359375" lon="-5.87545235641300678253173828125">
        <ele>598.79998779296875</ele>
        <time>2019-02-14T12:39:17.000Z</time>
      </trkpt>
      <trkpt lat="43.385140188038349151611328125" lon="-5.87531321682035923004150390625">
        <ele>599.20001220703125</ele>
        <time>2019-02-14T12:39:23.000Z</time>
      </trkpt>
      <trkpt lat="43.38513918220996856689453125" lon="-5.875288657844066619873046875">
        <ele>599.4000244140625</ele>
        <time>2019-02-14T12:39:24.000Z</time>
      </trkpt>
      <trkpt lat="43.3851371705532073974609375" lon="-5.8752640150487422943115234375">
        <ele>599.5999755859375</ele>
        <time>2019-02-14T12:39:25.000Z</time>
      </trkpt>
      <trkpt lat="43.3851390145719051361083984375" lon="-5.87510651908814907073974609375">
        <ele>600.20001220703125</ele>
        <time>2019-02-14T12:39:32.000Z</time>
      </trkpt>
      <trkpt lat="43.38514111004769802093505859375" lon="-5.87503074668347835540771484375">
        <ele>600.5999755859375</ele>
        <time>2019-02-14T12:39:35.000Z</time>
      </trkpt>
      <trkpt lat="43.38514345698058605194091796875" lon="-5.87495547719299793243408203125">
        <ele>602.20001220703125</ele>
        <time>2019-02-14T12:39:38.000Z</time>
      </trkpt>
      <trkpt lat="43.38514429517090320587158203125" lon="-5.87491490878164768218994140625">
        <ele>603.4000244140625</ele>
        <time>2019-02-14T12:39:40.000Z</time>
      </trkpt>
      <trkpt lat="43.38514127768576145172119140625" lon="-5.87485875003039836883544921875">
        <ele>604.4000244140625</ele>
        <time>2019-02-14T12:39:43.000Z</time>
      </trkpt>
      <trkpt lat="43.385142870247364044189453125" lon="-5.874787084758281707763671875">
        <ele>605.4000244140625</ele>
        <time>2019-02-14T12:39:47.000Z</time>
      </trkpt>
      <trkpt lat="43.38514010421931743621826171875" lon="-5.874706618487834930419921875">
        <ele>606.4000244140625</ele>
        <time>2019-02-14T12:39:52.000Z</time>
      </trkpt>
      <trkpt lat="43.385137505829334259033203125" lon="-5.87467367760837078094482421875">
        <ele>606.5999755859375</ele>
        <time>2019-02-14T12:39:54.000Z</time>
      </trkpt>
      <trkpt lat="43.38513004593551158905029296875" lon="-5.87464115582406520843505859375">
        <ele>606.79998779296875</ele>
        <time>2019-02-14T12:39:56.000Z</time>
      </trkpt>
      <trkpt lat="43.3851225860416889190673828125" lon="-5.8745513856410980224609375">
        <ele>607.20001220703125</ele>
        <time>2019-02-14T12:40:01.000Z</time>
      </trkpt>
      <trkpt lat="43.385123424232006072998046875" lon="-5.874538309872150421142578125">
        <ele>607.4000244140625</ele>
        <time>2019-02-14T12:40:02.000Z</time>
      </trkpt>
      <trkpt lat="43.3851210772991180419921875" lon="-5.8744519762694835662841796875">
        <ele>607.4000244140625</ele>
        <time>2019-02-14T12:40:07.000Z</time>
      </trkpt>
      <trkpt lat="43.3851091749966144561767578125" lon="-5.874405540525913238525390625">
        <ele>607.4000244140625</ele>
        <time>2019-02-14T12:40:10.000Z</time>
      </trkpt>
      <trkpt lat="43.38508394546806812286376953125" lon="-5.87427771650254726409912109375">
        <ele>607.20001220703125</ele>
        <time>2019-02-14T12:40:15.000Z</time>
      </trkpt>
      <trkpt lat="43.3850508369505405426025390625" lon="-5.8741850964725017547607421875">
        <ele>606.4000244140625</ele>
        <time>2019-02-14T12:40:17.000Z</time>
      </trkpt>
      <trkpt lat="43.3849864639341831207275390625" lon="-5.87403061799705028533935546875">
        <ele>605</ele>
        <time>2019-02-14T12:40:20.000Z</time>
      </trkpt>
      <trkpt lat="43.38495017029345035552978515625" lon="-5.8739239163696765899658203125">
        <ele>603.79998779296875</ele>
        <time>2019-02-14T12:40:22.000Z</time>
      </trkpt>
      <trkpt lat="43.3849271200597286224365234375" lon="-5.87386381812393665313720703125">
        <ele>602.79998779296875</ele>
        <time>2019-02-14T12:40:23.000Z</time>
      </trkpt>
      <trkpt lat="43.3849029801785945892333984375" lon="-5.87379927746951580047607421875">
        <ele>601.4000244140625</ele>
        <time>2019-02-14T12:40:24.000Z</time>
      </trkpt>
      <trkpt lat="43.38487808592617511749267578125" lon="-5.87373121641576290130615234375">
        <ele>600.4000244140625</ele>
        <time>2019-02-14T12:40:25.000Z</time>
      </trkpt>
      <trkpt lat="43.3848567120730876922607421875" lon="-5.87366290390491485595703125">
        <ele>599.79998779296875</ele>
        <time>2019-02-14T12:40:26.000Z</time>
      </trkpt>
      <trkpt lat="43.38483701460063457489013671875" lon="-5.873530469834804534912109375">
        <ele>598.5999755859375</ele>
        <time>2019-02-14T12:40:28.000Z</time>
      </trkpt>
      <trkpt lat="43.384823687374591827392578125" lon="-5.8734726347029209136962890625">
        <ele>598</ele>
        <time>2019-02-14T12:40:29.000Z</time>
      </trkpt>
      <trkpt lat="43.38478571735322475433349609375" lon="-5.8733113668859004974365234375">
        <ele>597.79998779296875</ele>
        <time>2019-02-14T12:40:33.000Z</time>
      </trkpt>
      <trkpt lat="43.38480482809245586395263671875" lon="-5.873116739094257354736328125">
        <ele>599.20001220703125</ele>
        <time>2019-02-14T12:40:41.000Z</time>
      </trkpt>
      <trkpt lat="43.38482243008911609649658203125" lon="-5.87295236997306346893310546875">
        <ele>599.5999755859375</ele>
        <time>2019-02-14T12:40:48.000Z</time>
      </trkpt>
      <trkpt lat="43.38482578285038471221923828125" lon="-5.8729271404445171356201171875">
        <ele>599.5999755859375</ele>
        <time>2019-02-14T12:40:49.000Z</time>
      </trkpt>
      <trkpt lat="43.3848412893712520599365234375" lon="-5.87281071580946445465087890625">
        <ele>601</ele>
        <time>2019-02-14T12:40:54.000Z</time>
      </trkpt>
      <trkpt lat="43.38484958745539188385009765625" lon="-5.87276042439043521881103515625">
        <ele>601.4000244140625</ele>
        <time>2019-02-14T12:40:56.000Z</time>
      </trkpt>
      <trkpt lat="43.3848627470433712005615234375" lon="-5.87266101501882076263427734375">
        <ele>602</ele>
        <time>2019-02-14T12:41:00.000Z</time>
      </trkpt>
      <trkpt lat="43.3848818577826023101806640625" lon="-5.8725358732044696807861328125">
        <ele>602.4000244140625</ele>
        <time>2019-02-14T12:41:05.000Z</time>
      </trkpt>
      <trkpt lat="43.38492955081164836883544921875" lon="-5.87232942692935466766357421875">
        <ele>603.4000244140625</ele>
        <time>2019-02-14T12:41:13.000Z</time>
      </trkpt>
      <trkpt lat="43.38495419360697269439697265625" lon="-5.87220403365790843963623046875">
        <ele>603.4000244140625</ele>
        <time>2019-02-14T12:41:18.000Z</time>
      </trkpt>
      <trkpt lat="43.38496291078627109527587890625" lon="-5.87216279469430446624755859375">
        <ele>603.4000244140625</ele>
        <time>2019-02-14T12:41:20.000Z</time>
      </trkpt>
      <trkpt lat="43.3849988691508769989013671875" lon="-5.87207428179681301116943359375">
        <ele>602.79998779296875</ele>
        <time>2019-02-14T12:41:24.000Z</time>
      </trkpt>
      <trkpt lat="43.3850565366446971893310546875" lon="-5.8719819970428943634033203125">
        <ele>602.79998779296875</ele>
        <time>2019-02-14T12:41:28.000Z</time>
      </trkpt>
      <trkpt lat="43.38506944477558135986328125" lon="-5.871955342590808868408203125">
        <ele>602.5999755859375</ele>
        <time>2019-02-14T12:41:29.000Z</time>
      </trkpt>
      <trkpt lat="43.38510121218860149383544921875" lon="-5.8718884550034999847412109375">
        <ele>602.20001220703125</ele>
        <time>2019-02-14T12:41:31.000Z</time>
      </trkpt>
      <trkpt lat="43.38515267707407474517822265625" lon="-5.87176918052136898040771484375">
        <ele>601.5999755859375</ele>
        <time>2019-02-14T12:41:34.000Z</time>
      </trkpt>
      <trkpt lat="43.3851933293044567108154296875" lon="-5.8716661669313907623291015625">
        <ele>601.20001220703125</ele>
        <time>2019-02-14T12:41:36.000Z</time>
      </trkpt>
      <trkpt lat="43.38527320884168148040771484375" lon="-5.871506743133068084716796875">
        <ele>600.20001220703125</ele>
        <time>2019-02-14T12:41:39.000Z</time>
      </trkpt>
      <trkpt lat="43.38529567234218120574951171875" lon="-5.871449410915374755859375">
        <ele>599.5999755859375</ele>
        <time>2019-02-14T12:41:40.000Z</time>
      </trkpt>
      <trkpt lat="43.38534772396087646484375" lon="-5.8713124506175518035888671875">
        <ele>598.79998779296875</ele>
        <time>2019-02-14T12:41:43.000Z</time>
      </trkpt>
      <trkpt lat="43.3853824250400066375732421875" lon="-5.87122838012874126434326171875">
        <ele>598.79998779296875</ele>
        <time>2019-02-14T12:41:45.000Z</time>
      </trkpt>
      <trkpt lat="43.3853995241224765777587890625" lon="-5.8711837045848369598388671875">
        <ele>598.5999755859375</ele>
        <time>2019-02-14T12:41:46.000Z</time>
      </trkpt>
      <trkpt lat="43.385426513850688934326171875" lon="-5.8710948564112186431884765625">
        <ele>597.5999755859375</ele>
        <time>2019-02-14T12:41:48.000Z</time>
      </trkpt>
      <trkpt lat="43.385436236858367919921875" lon="-5.87105168960988521575927734375">
        <ele>597.4000244140625</ele>
        <time>2019-02-14T12:41:49.000Z</time>
      </trkpt>
      <trkpt lat="43.3854618854820728302001953125" lon="-5.8709679543972015380859375">
        <ele>597</ele>
        <time>2019-02-14T12:41:51.000Z</time>
      </trkpt>
      <trkpt lat="43.385472111403942108154296875" lon="-5.8709188364446163177490234375">
        <ele>596.4000244140625</ele>
        <time>2019-02-14T12:41:52.000Z</time>
      </trkpt>
      <trkpt lat="43.38549784384667873382568359375" lon="-5.87083518505096435546875">
        <ele>595.20001220703125</ele>
        <time>2019-02-14T12:41:54.000Z</time>
      </trkpt>
      <trkpt lat="43.3855460397899150848388671875" lon="-5.87075379677116870880126953125">
        <ele>594</ele>
        <time>2019-02-14T12:41:56.000Z</time>
      </trkpt>
      <trkpt lat="43.3855788968503475189208984375" lon="-5.8706999011337757110595703125">
        <ele>593.4000244140625</ele>
        <time>2019-02-14T12:41:57.000Z</time>
      </trkpt>
      <trkpt lat="43.38561569340527057647705078125" lon="-5.870636366307735443115234375">
        <ele>592</ele>
        <time>2019-02-14T12:41:58.000Z</time>
      </trkpt>
      <trkpt lat="43.3856462873518466949462890625" lon="-5.8705718256533145904541015625">
        <ele>591</ele>
        <time>2019-02-14T12:41:59.000Z</time>
      </trkpt>
      <trkpt lat="43.3856707625091075897216796875" lon="-5.87050451897084712982177734375">
        <ele>589.79998779296875</ele>
        <time>2019-02-14T12:42:00.000Z</time>
      </trkpt>
      <trkpt lat="43.3857250772416591644287109375" lon="-5.87037292309105396270751953125">
        <ele>588.5999755859375</ele>
        <time>2019-02-14T12:42:02.000Z</time>
      </trkpt>
      <trkpt lat="43.38575717993080615997314453125" lon="-5.87030855007469654083251953125">
        <ele>588.4000244140625</ele>
        <time>2019-02-14T12:42:03.000Z</time>
      </trkpt>
      <trkpt lat="43.3857894502580165863037109375" lon="-5.87024333886802196502685546875">
        <ele>588.4000244140625</ele>
        <time>2019-02-14T12:42:04.000Z</time>
      </trkpt>
      <trkpt lat="43.38583412580192089080810546875" lon="-5.87012163363397121429443359375">
        <ele>587.4000244140625</ele>
        <time>2019-02-14T12:42:06.000Z</time>
      </trkpt>
      <trkpt lat="43.38585935533046722412109375" lon="-5.87006061337888240814208984375">
        <ele>586.5999755859375</ele>
        <time>2019-02-14T12:42:07.000Z</time>
      </trkpt>
      <trkpt lat="43.38588290847837924957275390625" lon="-5.8700018562376499176025390625">
        <ele>585.5999755859375</ele>
        <time>2019-02-14T12:42:08.000Z</time>
      </trkpt>
      <trkpt lat="43.38595130480825901031494140625" lon="-5.86985894478857517242431640625">
        <ele>584.4000244140625</ele>
        <time>2019-02-14T12:42:11.000Z</time>
      </trkpt>
      <trkpt lat="43.3860013447701930999755859375" lon="-5.86975065059959888458251953125">
        <ele>583.79998779296875</ele>
        <time>2019-02-14T12:42:13.000Z</time>
      </trkpt>
      <trkpt lat="43.3860529772937297821044921875" lon="-5.86963246576488018035888671875">
        <ele>582.79998779296875</ele>
        <time>2019-02-14T12:42:15.000Z</time>
      </trkpt>
      <trkpt lat="43.38611709885299205780029296875" lon="-5.86946382187306880950927734375">
        <ele>582.4000244140625</ele>
        <time>2019-02-14T12:42:18.000Z</time>
      </trkpt>
      <trkpt lat="43.38617979548871517181396484375" lon="-5.86918537504971027374267578125">
        <ele>581.4000244140625</ele>
        <time>2019-02-14T12:42:23.000Z</time>
      </trkpt>
      <trkpt lat="43.38620510883629322052001953125" lon="-5.869065932929515838623046875">
        <ele>580.20001220703125</ele>
        <time>2019-02-14T12:42:25.000Z</time>
      </trkpt>
      <trkpt lat="43.38622941635549068450927734375" lon="-5.8689490891993045806884765625">
        <ele>580.20001220703125</ele>
        <time>2019-02-14T12:42:27.000Z</time>
      </trkpt>
      <trkpt lat="43.38623159565031528472900390625" lon="-5.86876292712986469268798828125">
        <ele>579</ele>
        <time>2019-02-14T12:42:30.000Z</time>
      </trkpt>
      <trkpt lat="43.3862061984837055206298828125" lon="-5.8685755915939807891845703125">
        <ele>578</ele>
        <time>2019-02-14T12:42:33.000Z</time>
      </trkpt>
      <trkpt lat="43.38619739748537540435791015625" lon="-5.868448354303836822509765625">
        <ele>577.79998779296875</ele>
        <time>2019-02-14T12:42:35.000Z</time>
      </trkpt>
      <trkpt lat="43.386211730539798736572265625" lon="-5.8682996593415737152099609375">
        <ele>578</ele>
        <time>2019-02-14T12:42:38.000Z</time>
      </trkpt>
      <trkpt lat="43.38621902279555797576904296875" lon="-5.8682731725275516510009765625">
        <ele>578.20001220703125</ele>
        <time>2019-02-14T12:42:39.000Z</time>
      </trkpt>
      <trkpt lat="43.38622841052711009979248046875" lon="-5.86821190081536769866943359375">
        <ele>578.5999755859375</ele>
        <time>2019-02-14T12:42:42.000Z</time>
      </trkpt>
      <trkpt lat="43.38622371666133403778076171875" lon="-5.86819061078131198883056640625">
        <ele>579</ele>
        <time>2019-02-14T12:42:43.000Z</time>
      </trkpt>
      <trkpt lat="43.38621466420590877532958984375" lon="-5.8681729249656200408935546875">
        <ele>579</ele>
        <time>2019-02-14T12:42:44.000Z</time>
      </trkpt>
      <trkpt lat="43.38618851266801357269287109375" lon="-5.868146605789661407470703125">
        <ele>580</ele>
        <time>2019-02-14T12:42:48.000Z</time>
      </trkpt>
      <trkpt lat="43.386144340038299560546875" lon="-5.86814316920936107635498046875">
        <ele>579.79998779296875</ele>
        <time>2019-02-14T12:43:23.000Z</time>
      </trkpt>
      <trkpt lat="43.386098407208919525146484375" lon="-5.86814970709383487701416015625">
        <ele>579.5999755859375</ele>
        <time>2019-02-14T12:43:25.000Z</time>
      </trkpt>
      <trkpt lat="43.38603847660124301910400390625" lon="-5.8681615255773067474365234375">
        <ele>579</ele>
        <time>2019-02-14T12:43:27.000Z</time>
      </trkpt>
      <trkpt lat="43.38598399423062801361083984375" lon="-5.86817719973623752593994140625">
        <ele>578</ele>
        <time>2019-02-14T12:43:29.000Z</time>
      </trkpt>
      <trkpt lat="43.3859631232917308807373046875" lon="-5.86818717420101165771484375">
        <ele>576.4000244140625</ele>
        <time>2019-02-14T12:43:30.000Z</time>
      </trkpt>
      <trkpt lat="43.3859426714479923248291015625" lon="-5.8681984059512615203857421875">
        <ele>575.20001220703125</ele>
        <time>2019-02-14T12:43:31.000Z</time>
      </trkpt>
      <trkpt lat="43.3858843334019184112548828125" lon="-5.86822070181369781494140625">
        <ele>574</ele>
        <time>2019-02-14T12:43:33.000Z</time>
      </trkpt>
      <trkpt lat="43.38583043776452541351318359375" lon="-5.8682267367839813232421875">
        <ele>573</ele>
        <time>2019-02-14T12:43:35.000Z</time>
      </trkpt>
      <trkpt lat="43.3858229778707027435302734375" lon="-5.86822380311787128448486328125">
        <ele>572</ele>
        <time>2019-02-14T12:43:37.000Z</time>
      </trkpt>
      <trkpt lat="43.38584703393280506134033203125" lon="-5.868286751210689544677734375">
        <ele>565.4000244140625</ele>
        <time>2019-02-15T15:54:06.000Z</time>
      </trkpt>
      <trkpt lat="43.38584787212312221527099609375" lon="-5.86828750558197498321533203125">
        <ele>565.5999755859375</ele>
        <time>2019-02-15T15:54:07.000Z</time>
      </trkpt>
      <trkpt lat="43.3858548291027545928955078125" lon="-5.86826688610017299652099609375">
        <ele>566.4000244140625</ele>
        <time>2019-02-15T15:54:29.000Z</time>
      </trkpt>
      <trkpt lat="43.3858514763414859771728515625" lon="-5.86821894161403179168701171875">
        <ele>566.79998779296875</ele>
        <time>2019-02-15T15:54:31.000Z</time>
      </trkpt>
      <trkpt lat="43.3858451060950756072998046875" lon="-5.868166051805019378662109375">
        <ele>567</ele>
        <time>2019-02-15T15:54:33.000Z</time>
      </trkpt>
      <trkpt lat="43.38583278469741344451904296875" lon="-5.8681414090096950531005859375">
        <ele>567.4000244140625</ele>
        <time>2019-02-15T15:54:34.000Z</time>
      </trkpt>
      <trkpt lat="43.38581065647304058074951171875" lon="-5.86809488944709300994873046875">
        <ele>568.79998779296875</ele>
        <time>2019-02-15T15:54:36.000Z</time>
      </trkpt>
      <trkpt lat="43.38579724542796611785888671875" lon="-5.86804275400936603546142578125">
        <ele>569.5999755859375</ele>
        <time>2019-02-15T15:54:38.000Z</time>
      </trkpt>
      <trkpt lat="43.38579406030476093292236328125" lon="-5.8680160157382488250732421875">
        <ele>570</ele>
        <time>2019-02-15T15:54:39.000Z</time>
      </trkpt>
      <trkpt lat="43.3857924677431583404541015625" lon="-5.86795675568282604217529296875">
        <ele>570.4000244140625</ele>
        <time>2019-02-15T15:54:41.000Z</time>
      </trkpt>
      <trkpt lat="43.38579364120960235595703125" lon="-5.8679288439452648162841796875">
        <ele>570.5999755859375</ele>
        <time>2019-02-15T15:54:42.000Z</time>
      </trkpt>
      <trkpt lat="43.38579439558088779449462890625" lon="-5.8678996749222278594970703125">
        <ele>571</ele>
        <time>2019-02-15T15:54:43.000Z</time>
      </trkpt>
      <trkpt lat="43.38579456321895122528076171875" lon="-5.86787008680403232574462890625">
        <ele>571.4000244140625</ele>
        <time>2019-02-15T15:54:44.000Z</time>
      </trkpt>
      <trkpt lat="43.38579607196152210235595703125" lon="-5.8678163588047027587890625">
        <ele>572</ele>
        <time>2019-02-15T15:54:46.000Z</time>
      </trkpt>
      <trkpt lat="43.38579892180860042572021484375" lon="-5.867741592228412628173828125">
        <ele>573.5999755859375</ele>
        <time>2019-02-15T15:54:49.000Z</time>
      </trkpt>
      <trkpt lat="43.385796658694744110107421875" lon="-5.8676884509623050689697265625">
        <ele>574.20001220703125</ele>
        <time>2019-02-15T15:54:52.000Z</time>
      </trkpt>
      <trkpt lat="43.38578852824866771697998046875" lon="-5.86762013845145702362060546875">
        <ele>574.5999755859375</ele>
        <time>2019-02-15T15:54:56.000Z</time>
      </trkpt>
      <trkpt lat="43.38577897287905216217041015625" lon="-5.867532379925251007080078125">
        <ele>575.5999755859375</ele>
        <time>2019-02-15T15:55:01.000Z</time>
      </trkpt>
      <trkpt lat="43.38577352464199066162109375" lon="-5.867465995252132415771484375">
        <ele>576.4000244140625</ele>
        <time>2019-02-15T15:55:05.000Z</time>
      </trkpt>
      <trkpt lat="43.3857713453471660614013671875" lon="-5.867416374385356903076171875">
        <ele>577</ele>
        <time>2019-02-15T15:55:08.000Z</time>
      </trkpt>
      <trkpt lat="43.38575349189341068267822265625" lon="-5.8673397637903690338134765625">
        <ele>578.20001220703125</ele>
        <time>2019-02-15T15:55:13.000Z</time>
      </trkpt>
      <trkpt lat="43.38574695400893688201904296875" lon="-5.8673260174691677093505859375">
        <ele>578.5999755859375</ele>
        <time>2019-02-15T15:55:14.000Z</time>
      </trkpt>
      <trkpt lat="43.38571845553815364837646484375" lon="-5.8672423660755157470703125">
        <ele>579.5999755859375</ele>
        <time>2019-02-15T15:55:20.000Z</time>
      </trkpt>
      <trkpt lat="43.385708145797252655029296875" lon="-5.86719651706516742706298828125">
        <ele>580.20001220703125</ele>
        <time>2019-02-15T15:55:23.000Z</time>
      </trkpt>
      <trkpt lat="43.3856717683374881744384765625" lon="-5.86709878407418727874755859375">
        <ele>580.5999755859375</ele>
        <time>2019-02-15T15:55:30.000Z</time>
      </trkpt>
      <trkpt lat="43.38566715829074382781982421875" lon="-5.86708436720073223114013671875">
        <ele>581</ele>
        <time>2019-02-15T15:55:31.000Z</time>
      </trkpt>
      <trkpt lat="43.38564184494316577911376953125" lon="-5.86701848544180393218994140625">
        <ele>581.5999755859375</ele>
        <time>2019-02-15T15:55:36.000Z</time>
      </trkpt>
      <trkpt lat="43.3856348879635334014892578125" lon="-5.86699065752327442169189453125">
        <ele>581.79998779296875</ele>
        <time>2019-02-15T15:55:38.000Z</time>
      </trkpt>
      <trkpt lat="43.3856157772243022918701171875" lon="-5.8669002167880535125732421875">
        <ele>583</ele>
        <time>2019-02-15T15:55:44.000Z</time>
      </trkpt>
      <trkpt lat="43.385606892406940460205078125" lon="-5.866853110492229461669921875">
        <ele>583.79998779296875</ele>
        <time>2019-02-15T15:55:47.000Z</time>
      </trkpt>
      <trkpt lat="43.38560379110276699066162109375" lon="-5.86682192981243133544921875">
        <ele>584</ele>
        <time>2019-02-15T15:55:49.000Z</time>
      </trkpt>
      <trkpt lat="43.38560010306537151336669921875" lon="-5.86669385433197021484375">
        <ele>585.20001220703125</ele>
        <time>2019-02-15T15:55:57.000Z</time>
      </trkpt>
      <trkpt lat="43.385600186884403228759765625" lon="-5.86667667143046855926513671875">
        <ele>585.4000244140625</ele>
        <time>2019-02-15T15:55:58.000Z</time>
      </trkpt>
      <trkpt lat="43.38560454547405242919921875" lon="-5.86662881076335906982421875">
        <ele>586.4000244140625</ele>
        <time>2019-02-15T15:56:01.000Z</time>
      </trkpt>
      <trkpt lat="43.38560965843498706817626953125" lon="-5.86652982048690319061279296875">
        <ele>587.20001220703125</ele>
        <time>2019-02-15T15:56:07.000Z</time>
      </trkpt>
      <trkpt lat="43.38561183772981166839599609375" lon="-5.866514481604099273681640625">
        <ele>587.5999755859375</ele>
        <time>2019-02-15T15:56:08.000Z</time>
      </trkpt>
      <trkpt lat="43.3856295235455036163330078125" lon="-5.8664405532181262969970703125">
        <ele>588.5999755859375</ele>
        <time>2019-02-15T15:56:13.000Z</time>
      </trkpt>
      <trkpt lat="43.3856610395014286041259765625" lon="-5.866388417780399322509765625">
        <ele>589.5999755859375</ele>
        <time>2019-02-15T15:56:17.000Z</time>
      </trkpt>
      <trkpt lat="43.3856811560690402984619140625" lon="-5.86636955849826335906982421875">
        <ele>589.79998779296875</ele>
        <time>2019-02-15T15:56:19.000Z</time>
      </trkpt>
      <trkpt lat="43.385711498558521270751953125" lon="-5.86635312996804714202880859375">
        <ele>591</ele>
        <time>2019-02-15T15:56:22.000Z</time>
      </trkpt>
      <trkpt lat="43.385722227394580841064453125" lon="-5.86635128594934940338134765625">
        <ele>591.4000244140625</ele>
        <time>2019-02-15T15:56:23.000Z</time>
      </trkpt>
      <trkpt lat="43.38575382716953754425048828125" lon="-5.86635363288223743438720703125">
        <ele>592</ele>
        <time>2019-02-15T15:56:26.000Z</time>
      </trkpt>
      <trkpt lat="43.38580302894115447998046875" lon="-5.86636436171829700469970703125">
        <ele>593</ele>
        <time>2019-02-15T15:56:30.000Z</time>
      </trkpt>
      <trkpt lat="43.3858722634613513946533203125" lon="-5.866378359496593475341796875">
        <ele>594.20001220703125</ele>
        <time>2019-02-15T15:56:36.000Z</time>
      </trkpt>
      <trkpt lat="43.38589481078088283538818359375" lon="-5.86638011969625949859619140625">
        <ele>594.5999755859375</ele>
        <time>2019-02-15T15:56:38.000Z</time>
      </trkpt>
      <trkpt lat="43.38594225235283374786376953125" lon="-5.8663842268288135528564453125">
        <ele>595.20001220703125</ele>
        <time>2019-02-15T15:56:42.000Z</time>
      </trkpt>
      <trkpt lat="43.38597930036485195159912109375" lon="-5.86637525819242000579833984375">
        <ele>595.4000244140625</ele>
        <time>2019-02-15T15:56:45.000Z</time>
      </trkpt>
      <trkpt lat="43.38601215742528438568115234375" lon="-5.86634608916938304901123046875">
        <ele>596.20001220703125</ele>
        <time>2019-02-15T15:56:48.000Z</time>
      </trkpt>
      <trkpt lat="43.3860271610319614410400390625" lon="-5.8662732504308223724365234375">
        <ele>597.20001220703125</ele>
        <time>2019-02-15T15:56:52.000Z</time>
      </trkpt>
      <trkpt lat="43.386025317013263702392578125" lon="-5.86625472642481327056884765625">
        <ele>597.4000244140625</ele>
        <time>2019-02-15T15:56:53.000Z</time>
      </trkpt>
      <trkpt lat="43.38599137030541896820068359375" lon="-5.86617627181112766265869140625">
        <ele>598.4000244140625</ele>
        <time>2019-02-15T15:56:58.000Z</time>
      </trkpt>
      <trkpt lat="43.3859761990606784820556640625" lon="-5.8661445043981075286865234375">
        <ele>599</ele>
        <time>2019-02-15T15:57:00.000Z</time>
      </trkpt>
      <trkpt lat="43.3859614469110965728759765625" lon="-5.8660911954939365386962890625">
        <ele>599.4000244140625</ele>
        <time>2019-02-15T15:57:03.000Z</time>
      </trkpt>
      <trkpt lat="43.38595381937921047210693359375" lon="-5.8659845776855945587158203125">
        <ele>600.4000244140625</ele>
        <time>2019-02-15T15:57:09.000Z</time>
      </trkpt>
      <trkpt lat="43.3859540708363056182861328125" lon="-5.86596588604152202606201171875">
        <ele>600.79998779296875</ele>
        <time>2019-02-15T15:57:10.000Z</time>
      </trkpt>
      <trkpt lat="43.38594711385667324066162109375" lon="-5.8658518083393573760986328125">
        <ele>601.79998779296875</ele>
        <time>2019-02-15T15:57:16.000Z</time>
      </trkpt>
      <trkpt lat="43.38593403808772563934326171875" lon="-5.8657778799533843994140625">
        <ele>602.5999755859375</ele>
        <time>2019-02-15T15:57:20.000Z</time>
      </trkpt>
      <trkpt lat="43.38593018241226673126220703125" lon="-5.86575985886156558990478515625">
        <ele>602.79998779296875</ele>
        <time>2019-02-15T15:57:21.000Z</time>
      </trkpt>
      <trkpt lat="43.38591895066201686859130859375" lon="-5.8656265027821063995361328125">
        <ele>604.20001220703125</ele>
        <time>2019-02-15T15:57:28.000Z</time>
      </trkpt>
      <trkpt lat="43.38591677136719226837158203125" lon="-5.8655869401991367340087890625">
        <ele>604.4000244140625</ele>
        <time>2019-02-15T15:57:30.000Z</time>
      </trkpt>
      <trkpt lat="43.3859195373952388763427734375" lon="-5.8654917217791080474853515625">
        <ele>605.20001220703125</ele>
        <time>2019-02-15T15:57:35.000Z</time>
      </trkpt>
      <trkpt lat="43.38592397980391979217529296875" lon="-5.86538619361817836761474609375">
        <ele>605.79998779296875</ele>
        <time>2019-02-15T15:57:40.000Z</time>
      </trkpt>
      <trkpt lat="43.385921381413936614990234375" lon="-5.86534428410232067108154296875">
        <ele>606.4000244140625</ele>
        <time>2019-02-15T15:57:42.000Z</time>
      </trkpt>
      <trkpt lat="43.38591526262462139129638671875" lon="-5.865202210843563079833984375">
        <ele>607.4000244140625</ele>
        <time>2019-02-15T15:57:49.000Z</time>
      </trkpt>
      <trkpt lat="43.3859088085591793060302734375" lon="-5.86515904404222965240478515625">
        <ele>607.79998779296875</ele>
        <time>2019-02-15T15:57:51.000Z</time>
      </trkpt>
      <trkpt lat="43.385847620666027069091796875" lon="-5.86507807485759258270263671875">
        <ele>608.5999755859375</ele>
        <time>2019-02-15T15:57:56.000Z</time>
      </trkpt>
      <trkpt lat="43.38583077304065227508544921875" lon="-5.8650662563741207122802734375">
        <ele>608.5999755859375</ele>
        <time>2019-02-15T15:57:57.000Z</time>
      </trkpt>
      <trkpt lat="43.38567855767905712127685546875" lon="-5.864947400987148284912109375">
        <ele>609.4000244140625</ele>
        <time>2019-02-15T15:58:06.000Z</time>
      </trkpt>
      <trkpt lat="43.38566623628139495849609375" lon="-5.86493097245693206787109375">
        <ele>609.5999755859375</ele>
        <time>2019-02-15T15:58:07.000Z</time>
      </trkpt>
      <trkpt lat="43.385578729212284088134765625" lon="-5.86481102742254734039306640625">
        <ele>610.5999755859375</ele>
        <time>2019-02-15T15:58:14.000Z</time>
      </trkpt>
      <trkpt lat="43.38555886410176753997802734375" lon="-5.86477615870535373687744140625">
        <ele>611.20001220703125</ele>
        <time>2019-02-15T15:58:16.000Z</time>
      </trkpt>
      <trkpt lat="43.38552818633615970611572265625" lon="-5.86472687311470508575439453125">
        <ele>611.5999755859375</ele>
        <time>2019-02-15T15:58:19.000Z</time>
      </trkpt>
      <trkpt lat="43.3854769729077816009521484375" lon="-5.864652693271636962890625">
        <ele>612.79998779296875</ele>
        <time>2019-02-15T15:58:24.000Z</time>
      </trkpt>
      <trkpt lat="43.38547051884233951568603515625" lon="-5.86463517509400844573974609375">
        <ele>613.20001220703125</ele>
        <time>2019-02-15T15:58:25.000Z</time>
      </trkpt>
      <trkpt lat="43.385448642075061798095703125" lon="-5.8645606599748134613037109375">
        <ele>614</ele>
        <time>2019-02-15T15:58:29.000Z</time>
      </trkpt>
      <trkpt lat="43.38540513999760150909423828125" lon="-5.864506848156452178955078125">
        <ele>615</ele>
        <time>2019-02-15T15:58:33.000Z</time>
      </trkpt>
      <trkpt lat="43.38539474643766880035400390625" lon="-5.86449377238750457763671875">
        <ele>615.4000244140625</ele>
        <time>2019-02-15T15:58:34.000Z</time>
      </trkpt>
      <trkpt lat="43.3853596262633800506591796875" lon="-5.86440534330904483795166015625">
        <ele>616.4000244140625</ele>
        <time>2019-02-15T15:58:39.000Z</time>
      </trkpt>
      <trkpt lat="43.38535300455987453460693359375" lon="-5.864386819303035736083984375">
        <ele>616.5999755859375</ele>
        <time>2019-02-15T15:58:40.000Z</time>
      </trkpt>
      <trkpt lat="43.38533238507807254791259765625" lon="-5.86431540548801422119140625">
        <ele>617.79998779296875</ele>
        <time>2019-02-15T15:58:44.000Z</time>
      </trkpt>
      <trkpt lat="43.38530858047306537628173828125" lon="-5.864228568971157073974609375">
        <ele>618.5999755859375</ele>
        <time>2019-02-15T15:58:49.000Z</time>
      </trkpt>
      <trkpt lat="43.38530480861663818359375" lon="-5.86421071551740169525146484375">
        <ele>618.79998779296875</ele>
        <time>2019-02-15T15:58:50.000Z</time>
      </trkpt>
      <trkpt lat="43.385291062295436859130859375" lon="-5.8641013316810131072998046875">
        <ele>620</ele>
        <time>2019-02-15T15:58:56.000Z</time>
      </trkpt>
      <trkpt lat="43.38527999818325042724609375" lon="-5.86406730115413665771484375">
        <ele>620.5999755859375</ele>
        <time>2019-02-15T15:58:58.000Z</time>
      </trkpt>
      <trkpt lat="43.3852637372910976409912109375" lon="-5.86403721012175083160400390625">
        <ele>621.20001220703125</ele>
        <time>2019-02-15T15:59:00.000Z</time>
      </trkpt>
      <trkpt lat="43.38522442616522312164306640625" lon="-5.8639915287494659423828125">
        <ele>622</ele>
        <time>2019-02-15T15:59:04.000Z</time>
      </trkpt>
      <trkpt lat="43.3852010406553745269775390625" lon="-5.86397945880889892578125">
        <ele>622.79998779296875</ele>
        <time>2019-02-15T15:59:06.000Z</time>
      </trkpt>
      <trkpt lat="43.385162986814975738525390625" lon="-5.86400116793811321258544921875">
        <ele>623.4000244140625</ele>
        <time>2019-02-15T15:59:09.000Z</time>
      </trkpt>
      <trkpt lat="43.3851393498480319976806640625" lon="-5.8640439994633197784423828125">
        <ele>623.79998779296875</ele>
        <time>2019-02-15T15:59:12.000Z</time>
      </trkpt>
      <trkpt lat="43.3850991167128086090087890625" lon="-5.86412320844829082489013671875">
        <ele>624.79998779296875</ele>
        <time>2019-02-15T15:59:17.000Z</time>
      </trkpt>
      <trkpt lat="43.385006748139858245849609375" lon="-5.8642019145190715789794921875">
        <ele>625.79998779296875</ele>
        <time>2019-02-15T15:59:24.000Z</time>
      </trkpt>
      <trkpt lat="43.3849655091762542724609375" lon="-5.86422286927700042724609375">
        <ele>626.79998779296875</ele>
        <time>2019-02-15T15:59:27.000Z</time>
      </trkpt>
      <trkpt lat="43.3849515952169895172119140625" lon="-5.8642267249524593353271484375">
        <ele>626.79998779296875</ele>
        <time>2019-02-15T15:59:28.000Z</time>
      </trkpt>
      <trkpt lat="43.38485780172049999237060546875" lon="-5.8642543852329254150390625">
        <ele>628</ele>
        <time>2019-02-15T15:59:35.000Z</time>
      </trkpt>
      <trkpt lat="43.38481555692851543426513671875" lon="-5.86426486261188983917236328125">
        <ele>628.4000244140625</ele>
        <time>2019-02-15T15:59:38.000Z</time>
      </trkpt>
      <trkpt lat="43.3847413770854473114013671875" lon="-5.86425597779452800750732421875">
        <ele>629.20001220703125</ele>
        <time>2019-02-15T15:59:43.000Z</time>
      </trkpt>
      <trkpt lat="43.38469603098928928375244140625" lon="-5.8642424829304218292236328125">
        <ele>629.5999755859375</ele>
        <time>2019-02-15T15:59:46.000Z</time>
      </trkpt>
      <trkpt lat="43.38465814478695392608642578125" lon="-5.8641985617578029632568359375">
        <ele>630.20001220703125</ele>
        <time>2019-02-15T15:59:49.000Z</time>
      </trkpt>
      <trkpt lat="43.38461589999496936798095703125" lon="-5.864124633371829986572265625">
        <ele>630.5999755859375</ele>
        <time>2019-02-15T15:59:53.000Z</time>
      </trkpt>
      <trkpt lat="43.3845921792089939117431640625" lon="-5.8639781177043914794921875">
        <ele>631</ele>
        <time>2019-02-15T15:59:59.000Z</time>
      </trkpt>
      <trkpt lat="43.38458857499063014984130859375" lon="-5.86395674385130405426025390625">
        <ele>631</ele>
        <time>2019-02-15T16:00:00.000Z</time>
      </trkpt>
      <trkpt lat="43.38454884476959705352783203125" lon="-5.8638733439147472381591796875">
        <ele>631</ele>
        <time>2019-02-15T16:00:05.000Z</time>
      </trkpt>
      <trkpt lat="43.38454909622669219970703125" lon="-5.8638656325638294219970703125">
        <ele>631</ele>
        <time>2019-02-15T16:00:06.000Z</time>
      </trkpt>
      <trkpt lat="43.38454909622669219970703125" lon="-5.86386454291641712188720703125">
        <ele>631</ele>
        <time>2019-02-15T16:00:07.000Z</time>
      </trkpt>
      <trkpt lat="43.38455052115023136138916015625" lon="-5.8638344518840312957763671875">
        <ele>631.20001220703125</ele>
        <time>2019-02-15T16:00:56.000Z</time>
      </trkpt>
      <trkpt lat="43.38455622084438800811767578125" lon="-5.86381576023995876312255859375">
        <ele>631.20001220703125</ele>
        <time>2019-02-15T16:00:57.000Z</time>
      </trkpt>
      <trkpt lat="43.384576924145221710205078125" lon="-5.86377820931375026702880859375">
        <ele>631</ele>
        <time>2019-02-15T16:00:59.000Z</time>
      </trkpt>
      <trkpt lat="43.38464607484638690948486328125" lon="-5.8637016825377941131591796875">
        <ele>630.20001220703125</ele>
        <time>2019-02-15T16:01:04.000Z</time>
      </trkpt>
      <trkpt lat="43.3846838772296905517578125" lon="-5.86367410607635974884033203125">
        <ele>630.20001220703125</ele>
        <time>2019-02-15T16:01:07.000Z</time>
      </trkpt>
      <trkpt lat="43.38469334878027439117431640625" lon="-5.8636614494025707244873046875">
        <ele>630.20001220703125</ele>
        <time>2019-02-15T16:01:08.000Z</time>
      </trkpt>
      <trkpt lat="43.3847115375101566314697265625" lon="-5.8636295981705188751220703125">
        <ele>630.4000244140625</ele>
        <time>2019-02-15T16:01:10.000Z</time>
      </trkpt>
      <trkpt lat="43.38471631519496440887451171875" lon="-5.86360705085098743438720703125">
        <ele>630.4000244140625</ele>
        <time>2019-02-15T16:01:11.000Z</time>
      </trkpt>
      <trkpt lat="43.3847041614353656768798828125" lon="-5.8635689131915569305419921875">
        <ele>630.79998779296875</ele>
        <time>2019-02-15T16:01:13.000Z</time>
      </trkpt>
      <trkpt lat="43.38460399769246578216552734375" lon="-5.8635570108890533447265625">
        <ele>630</ele>
        <time>2019-02-15T16:01:17.000Z</time>
      </trkpt>
      <trkpt lat="43.38457734324038028717041015625" lon="-5.8635702542960643768310546875">
        <ele>629.5999755859375</ele>
        <time>2019-02-15T16:01:18.000Z</time>
      </trkpt>
      <trkpt lat="43.3845559693872928619384765625" lon="-5.86357251740992069244384765625">
        <ele>629</ele>
        <time>2019-02-15T16:01:19.000Z</time>
      </trkpt>
      <trkpt lat="43.38453778065741062164306640625" lon="-5.86353731341660022735595703125">
        <ele>628.4000244140625</ele>
        <time>2019-02-15T16:01:21.000Z</time>
      </trkpt>
      <trkpt lat="43.38453560136258602142333984375" lon="-5.86348165757954120635986328125">
        <ele>627.79998779296875</ele>
        <time>2019-02-15T16:01:23.000Z</time>
      </trkpt>
      <trkpt lat="43.38451766408979892730712890625" lon="-5.863461457192897796630859375">
        <ele>627.20001220703125</ele>
        <time>2019-02-15T16:01:25.000Z</time>
      </trkpt>
      <trkpt lat="43.38450442068278789520263671875" lon="-5.863462798297405242919921875">
        <ele>626.79998779296875</ele>
        <time>2019-02-15T16:01:26.000Z</time>
      </trkpt>
      <trkpt lat="43.3844755031168460845947265625" lon="-5.86343354545533657073974609375">
        <ele>625.5999755859375</ele>
        <time>2019-02-15T16:01:30.000Z</time>
      </trkpt>
      <trkpt lat="43.38446787558495998382568359375" lon="-5.86334654130041599273681640625">
        <ele>624.20001220703125</ele>
        <time>2019-02-15T16:01:33.000Z</time>
      </trkpt>
      <trkpt lat="43.384458906948566436767578125" lon="-5.8632780611515045166015625">
        <ele>623</ele>
        <time>2019-02-15T16:01:35.000Z</time>
      </trkpt>
      <trkpt lat="43.3844657801091670989990234375" lon="-5.86314822547137737274169921875">
        <ele>621.5999755859375</ele>
        <time>2019-02-15T16:01:38.000Z</time>
      </trkpt>
      <trkpt lat="43.38447424583137035369873046875" lon="-5.863070525228977203369140625">
        <ele>620.5999755859375</ele>
        <time>2019-02-15T16:01:40.000Z</time>
      </trkpt>
      <trkpt lat="43.38447608985006809234619140625" lon="-5.8630364947021007537841796875">
        <ele>620.4000244140625</ele>
        <time>2019-02-15T16:01:41.000Z</time>
      </trkpt>
      <trkpt lat="43.3844647742807865142822265625" lon="-5.862982682883739471435546875">
        <ele>620.20001220703125</ele>
        <time>2019-02-15T16:01:43.000Z</time>
      </trkpt>
      <trkpt lat="43.38446469046175479888916015625" lon="-5.86288972757756710052490234375">
        <ele>619.20001220703125</ele>
        <time>2019-02-15T16:01:46.000Z</time>
      </trkpt>
      <trkpt lat="43.3844630979001522064208984375" lon="-5.86286810226738452911376953125">
        <ele>618</ele>
        <time>2019-02-15T16:01:47.000Z</time>
      </trkpt>
      <trkpt lat="43.38445982895791530609130859375" lon="-5.8628437109291553497314453125">
        <ele>617.79998779296875</ele>
        <time>2019-02-15T16:01:48.000Z</time>
      </trkpt>
      <trkpt lat="43.38447374291718006134033203125" lon="-5.8627505041658878326416015625">
        <ele>616.79998779296875</ele>
        <time>2019-02-15T16:01:51.000Z</time>
      </trkpt>
      <trkpt lat="43.3844848908483982086181640625" lon="-5.86270884610712528228759765625">
        <ele>616.4000244140625</ele>
        <time>2019-02-15T16:01:52.000Z</time>
      </trkpt>
      <trkpt lat="43.38448732160031795501708984375" lon="-5.8626200817525386810302734375">
        <ele>615.5999755859375</ele>
        <time>2019-02-15T16:01:54.000Z</time>
      </trkpt>
      <trkpt lat="43.384481370449066162109375" lon="-5.86258001625537872314453125">
        <ele>614.4000244140625</ele>
        <time>2019-02-15T16:01:55.000Z</time>
      </trkpt>
      <trkpt lat="43.38447692804038524627685546875" lon="-5.86253869347274303436279296875">
        <ele>613.5999755859375</ele>
        <time>2019-02-15T16:01:56.000Z</time>
      </trkpt>
      <trkpt lat="43.384472317993640899658203125" lon="-5.86249577812850475311279296875">
        <ele>613.20001220703125</ele>
        <time>2019-02-15T16:01:57.000Z</time>
      </trkpt>
      <trkpt lat="43.38444842956960201263427734375" lon="-5.86235512979328632354736328125">
        <ele>611.5999755859375</ele>
        <time>2019-02-15T16:02:00.000Z</time>
      </trkpt>
      <trkpt lat="43.384431414306163787841796875" lon="-5.8622616715729236602783203125">
        <ele>609.79998779296875</ele>
        <time>2019-02-15T16:02:02.000Z</time>
      </trkpt>
      <trkpt lat="43.3844211883842945098876953125" lon="-5.86222588084638118743896484375">
        <ele>608.4000244140625</ele>
        <time>2019-02-15T16:02:03.000Z</time>
      </trkpt>
      <trkpt lat="43.38440333493053913116455078125" lon="-5.86216201074421405792236328125">
        <ele>607.4000244140625</ele>
        <time>2019-02-15T16:02:05.000Z</time>
      </trkpt>
      <trkpt lat="43.384383134543895721435546875" lon="-5.862107612192630767822265625">
        <ele>606.4000244140625</ele>
        <time>2019-02-15T16:02:07.000Z</time>
      </trkpt>
      <trkpt lat="43.38436997495591640472412109375" lon="-5.8620923571288585662841796875">
        <ele>605.79998779296875</ele>
        <time>2019-02-15T16:02:08.000Z</time>
      </trkpt>
      <trkpt lat="43.38435539044439792633056640625" lon="-5.862080790102481842041015625">
        <ele>605.20001220703125</ele>
        <time>2019-02-15T16:02:09.000Z</time>
      </trkpt>
      <trkpt lat="43.38434147648513317108154296875" lon="-5.86206209845840930938720703125">
        <ele>604.5999755859375</ele>
        <time>2019-02-15T16:02:10.000Z</time>
      </trkpt>
      <trkpt lat="43.38433225639164447784423828125" lon="-5.86202940903604030609130859375">
        <ele>603.79998779296875</ele>
        <time>2019-02-15T16:02:11.000Z</time>
      </trkpt>
      <trkpt lat="43.38432990945875644683837890625" lon="-5.86199269630014896392822265625">
        <ele>602.79998779296875</ele>
        <time>2019-02-15T16:02:12.000Z</time>
      </trkpt>
      <trkpt lat="43.38433125056326389312744140625" lon="-5.86195229552686214447021484375">
        <ele>602.4000244140625</ele>
        <time>2019-02-15T16:02:13.000Z</time>
      </trkpt>
      <trkpt lat="43.38433359749615192413330078125" lon="-5.86190837435424327850341796875">
        <ele>602</ele>
        <time>2019-02-15T16:02:14.000Z</time>
      </trkpt>
      <trkpt lat="43.38433963246643543243408203125" lon="-5.86181223392486572265625">
        <ele>601</ele>
        <time>2019-02-15T16:02:16.000Z</time>
      </trkpt>
      <trkpt lat="43.38434114120900630950927734375" lon="-5.86170871742069721221923828125">
        <ele>599.4000244140625</ele>
        <time>2019-02-15T16:02:18.000Z</time>
      </trkpt>
      <trkpt lat="43.384337536990642547607421875" lon="-5.861653983592987060546875">
        <ele>598.20001220703125</ele>
        <time>2019-02-15T16:02:19.000Z</time>
      </trkpt>
      <trkpt lat="43.38433410041034221649169921875" lon="-5.86160109378397464752197265625">
        <ele>597.20001220703125</ele>
        <time>2019-02-15T16:02:20.000Z</time>
      </trkpt>
      <trkpt lat="43.38432890363037586212158203125" lon="-5.86153051815927028656005859375">
        <ele>595.79998779296875</ele>
        <time>2019-02-15T16:02:22.000Z</time>
      </trkpt>
      <trkpt lat="43.3843246288597583770751953125" lon="-5.861512161791324615478515625">
        <ele>595.4000244140625</ele>
        <time>2019-02-15T16:02:23.000Z</time>
      </trkpt>
      <trkpt lat="43.3843236230313777923583984375" lon="-5.86150369606912136077880859375">
        <ele>595.20001220703125</ele>
        <time>2019-02-15T16:02:25.000Z</time>
      </trkpt>
      <trkpt lat="43.38431783951818943023681640625" lon="-5.8614687435328960418701171875">
        <ele>594.79998779296875</ele>
        <time>2019-02-15T16:02:33.000Z</time>
      </trkpt>
      <trkpt lat="43.3843115530908107757568359375" lon="-5.8614380657672882080078125">
        <ele>594.79998779296875</ele>
        <time>2019-02-15T16:02:34.000Z</time>
      </trkpt>
      <trkpt lat="43.38431306183338165283203125" lon="-5.86130688898265361785888671875">
        <ele>594.20001220703125</ele>
        <time>2019-02-15T16:02:37.000Z</time>
      </trkpt>
      <trkpt lat="43.3843164145946502685546875" lon="-5.861243270337581634521484375">
        <ele>593.79998779296875</ele>
        <time>2019-02-15T16:02:38.000Z</time>
      </trkpt>
      <trkpt lat="43.38432471267879009246826171875" lon="-5.86117596365511417388916015625">
        <ele>592.79998779296875</ele>
        <time>2019-02-15T16:02:39.000Z</time>
      </trkpt>
      <trkpt lat="43.3843360282480716705322265625" lon="-5.86106867529451847076416015625">
        <ele>591.4000244140625</ele>
        <time>2019-02-15T16:02:41.000Z</time>
      </trkpt>
      <trkpt lat="43.38433309458196163177490234375" lon="-5.86101402528584003448486328125">
        <ele>590.5999755859375</ele>
        <time>2019-02-15T16:02:42.000Z</time>
      </trkpt>
      <trkpt lat="43.384325802326202392578125" lon="-5.8609591238200664520263671875">
        <ele>589.5999755859375</ele>
        <time>2019-02-15T16:02:43.000Z</time>
      </trkpt>
      <trkpt lat="43.38431817479431629180908203125" lon="-5.86085326038300991058349609375">
        <ele>589.79998779296875</ele>
        <time>2019-02-15T16:02:45.000Z</time>
      </trkpt>
      <trkpt lat="43.384311385452747344970703125" lon="-5.86074027232825756072998046875">
        <ele>588.79998779296875</ele>
        <time>2019-02-15T16:02:47.000Z</time>
      </trkpt>
      <trkpt lat="43.3843055181205272674560546875" lon="-5.86067941971123218536376953125">
        <ele>588</ele>
        <time>2019-02-15T16:02:48.000Z</time>
      </trkpt>
      <trkpt lat="43.38428758084774017333984375" lon="-5.86049593985080718994140625">
        <ele>586.5999755859375</ele>
        <time>2019-02-15T16:02:51.000Z</time>
      </trkpt>
      <trkpt lat="43.38428230024874210357666015625" lon="-5.860446989536285400390625">
        <ele>586.4000244140625</ele>
        <time>2019-02-15T16:02:52.000Z</time>
      </trkpt>
      <trkpt lat="43.38428045623004436492919921875" lon="-5.86039309389889240264892578125">
        <ele>586.20001220703125</ele>
        <time>2019-02-15T16:02:53.000Z</time>
      </trkpt>
      <trkpt lat="43.38427542708814144134521484375" lon="-5.860274992883205413818359375">
        <ele>585</ele>
        <time>2019-02-15T16:02:55.000Z</time>
      </trkpt>
      <trkpt lat="43.38426151312887668609619140625" lon="-5.8602198399603366851806640625">
        <ele>584.4000244140625</ele>
        <time>2019-02-15T16:02:56.000Z</time>
      </trkpt>
      <trkpt lat="43.38424005545675754547119140625" lon="-5.86015705950558185577392578125">
        <ele>583.5999755859375</ele>
        <time>2019-02-15T16:02:57.000Z</time>
      </trkpt>
      <trkpt lat="43.384200744330883026123046875" lon="-5.860022865235805511474609375">
        <ele>581.5999755859375</ele>
        <time>2019-02-15T16:02:59.000Z</time>
      </trkpt>
      <trkpt lat="43.38418976403772830963134765625" lon="-5.85996679030358791351318359375">
        <ele>581.4000244140625</ele>
        <time>2019-02-15T16:03:00.000Z</time>
      </trkpt>
      <trkpt lat="43.38415808044373989105224609375" lon="-5.8598342724144458770751953125">
        <ele>580.5999755859375</ele>
        <time>2019-02-15T16:03:03.000Z</time>
      </trkpt>
      <trkpt lat="43.38415640406310558319091796875" lon="-5.8597911894321441650390625">
        <ele>580.4000244140625</ele>
        <time>2019-02-15T16:03:04.000Z</time>
      </trkpt>
      <trkpt lat="43.38413829915225505828857421875" lon="-5.85963319055736064910888671875">
        <ele>580</ele>
        <time>2019-02-15T16:03:09.000Z</time>
      </trkpt>
      <trkpt lat="43.38413067162036895751953125" lon="-5.85946504957973957061767578125">
        <ele>580.20001220703125</ele>
        <time>2019-02-15T16:03:15.000Z</time>
      </trkpt>
      <trkpt lat="43.38413067162036895751953125" lon="-5.85935189388692378997802734375">
        <ele>580.20001220703125</ele>
        <time>2019-02-15T16:03:18.000Z</time>
      </trkpt>
      <trkpt lat="43.38412052951753139495849609375" lon="-5.85921862162649631500244140625">
        <ele>580.4000244140625</ele>
        <time>2019-02-15T16:03:22.000Z</time>
      </trkpt>
      <trkpt lat="43.384121619164943695068359375" lon="-5.85908685810863971710205078125">
        <ele>580.5999755859375</ele>
        <time>2019-02-15T16:03:27.000Z</time>
      </trkpt>
      <trkpt lat="43.384120278060436248779296875" lon="-5.859064646065235137939453125">
        <ele>581</ele>
        <time>2019-02-15T16:03:28.000Z</time>
      </trkpt>
      <trkpt lat="43.3840956352651119232177734375" lon="-5.85893581621348857879638671875">
        <ele>581.4000244140625</ele>
        <time>2019-02-15T16:03:33.000Z</time>
      </trkpt>
      <trkpt lat="43.38408239185810089111328125" lon="-5.8588844351470470428466796875">
        <ele>581.5999755859375</ele>
        <time>2019-02-15T16:03:35.000Z</time>
      </trkpt>
      <trkpt lat="43.38403687812387943267822265625" lon="-5.8587466366589069366455078125">
        <ele>581.5999755859375</ele>
        <time>2019-02-15T16:03:41.000Z</time>
      </trkpt>
      <trkpt lat="43.384020365774631500244140625" lon="-5.85870900191366672515869140625">
        <ele>582.20001220703125</ele>
        <time>2019-02-15T16:03:43.000Z</time>
      </trkpt>
      <trkpt lat="43.3839491195976734161376953125" lon="-5.85858025588095188140869140625">
        <ele>583</ele>
        <time>2019-02-15T16:03:49.000Z</time>
      </trkpt>
      <trkpt lat="43.38390804827213287353515625" lon="-5.858521498739719390869140625">
        <ele>582.79998779296875</ele>
        <time>2019-02-15T16:03:52.000Z</time>
      </trkpt>
      <trkpt lat="43.38391014374792575836181640625" lon="-5.85847548209130764007568359375">
        <ele>582.5999755859375</ele>
        <time>2019-02-15T16:03:54.000Z</time>
      </trkpt>
      <trkpt lat="43.383944928646087646484375" lon="-5.85838361643254756927490234375">
        <ele>581.20001220703125</ele>
        <time>2019-02-15T16:03:58.000Z</time>
      </trkpt>
      <trkpt lat="43.38389539159834384918212890625" lon="-5.858296193182468414306640625">
        <ele>579.79998779296875</ele>
        <time>2019-02-15T16:04:02.000Z</time>
      </trkpt>
      <trkpt lat="43.38388131000101566314697265625" lon="-5.8582403697073459625244140625">
        <ele>579</ele>
        <time>2019-02-15T16:04:04.000Z</time>
      </trkpt>
      <trkpt lat="43.38387259282171726226806640625" lon="-5.858215391635894775390625">
        <ele>578.5999755859375</ele>
        <time>2019-02-15T16:04:05.000Z</time>
      </trkpt>
      <trkpt lat="43.38386152870953083038330078125" lon="-5.85819334723055362701416015625">
        <ele>578.20001220703125</ele>
        <time>2019-02-15T16:04:06.000Z</time>
      </trkpt>
      <trkpt lat="43.38385708630084991455078125" lon="-5.8581733144819736480712890625">
        <ele>577.79998779296875</ele>
        <time>2019-02-15T16:04:07.000Z</time>
      </trkpt>
      <trkpt lat="43.3838559128344058990478515625" lon="-5.8581485040485858917236328125">
        <ele>577.4000244140625</ele>
        <time>2019-02-15T16:04:08.000Z</time>
      </trkpt>
      <trkpt lat="43.38386203162372112274169921875" lon="-5.85808522067964076995849609375">
        <ele>576.4000244140625</ele>
        <time>2019-02-15T16:04:10.000Z</time>
      </trkpt>
      <trkpt lat="43.38387343101203441619873046875" lon="-5.85805135779082775115966796875">
        <ele>575.5999755859375</ele>
        <time>2019-02-15T16:04:11.000Z</time>
      </trkpt>
      <trkpt lat="43.3839169330894947052001953125" lon="-5.857991091907024383544921875">
        <ele>574.5999755859375</ele>
        <time>2019-02-15T16:04:13.000Z</time>
      </trkpt>
      <trkpt lat="43.3839357085525989532470703125" lon="-5.85796234197914600372314453125">
        <ele>573.5999755859375</ele>
        <time>2019-02-15T16:04:14.000Z</time>
      </trkpt>
      <trkpt lat="43.38395155034959316253662109375" lon="-5.85793669335544109344482421875">
        <ele>573</ele>
        <time>2019-02-15T16:04:15.000Z</time>
      </trkpt>
      <trkpt lat="43.38399362750351428985595703125" lon="-5.85781104862689971923828125">
        <ele>572.4000244140625</ele>
        <time>2019-02-15T16:04:19.000Z</time>
      </trkpt>
      <trkpt lat="43.38401642628014087677001953125" lon="-5.857656486332416534423828125">
        <ele>572.5999755859375</ele>
        <time>2019-02-15T16:04:22.000Z</time>
      </trkpt>
      <trkpt lat="43.3840540610253810882568359375" lon="-5.85753955878317356109619140625">
        <ele>571.5999755859375</ele>
        <time>2019-02-15T16:04:24.000Z</time>
      </trkpt>
      <trkpt lat="43.38409571908414363861083984375" lon="-5.85739639587700366973876953125">
        <ele>570.4000244140625</ele>
        <time>2019-02-15T16:04:27.000Z</time>
      </trkpt>
      <trkpt lat="43.384125642478466033935546875" lon="-5.857295729219913482666015625">
        <ele>569.79998779296875</ele>
        <time>2019-02-15T16:04:29.000Z</time>
      </trkpt>
      <trkpt lat="43.38413863442838191986083984375" lon="-5.857249461114406585693359375">
        <ele>569.20001220703125</ele>
        <time>2019-02-15T16:04:30.000Z</time>
      </trkpt>
      <trkpt lat="43.384144417941570281982421875" lon="-5.85721014998853206634521484375">
        <ele>569</ele>
        <time>2019-02-15T16:04:31.000Z</time>
      </trkpt>
      <trkpt lat="43.38413737714290618896484375" lon="-5.8571825735270977020263671875">
        <ele>568.79998779296875</ele>
        <time>2019-02-15T16:04:32.000Z</time>
      </trkpt>
      <trkpt lat="43.3841248042881488800048828125" lon="-5.85711794905364513397216796875">
        <ele>568.20001220703125</ele>
        <time>2019-02-15T16:04:34.000Z</time>
      </trkpt>
      <trkpt lat="43.38413494639098644256591796875" lon="-5.8570928871631622314453125">
        <ele>568</ele>
        <time>2019-02-15T16:04:36.000Z</time>
      </trkpt>
      <trkpt lat="43.38413779623806476593017578125" lon="-5.85708475671708583831787109375">
        <ele>567.79998779296875</ele>
        <time>2019-02-15T16:04:38.000Z</time>
      </trkpt>
      <trkpt lat="43.38419831357896327972412109375" lon="-5.8571101538836956024169921875">
        <ele>567.79998779296875</ele>
        <time>2019-02-15T16:06:02.000Z</time>
      </trkpt>
      <trkpt lat="43.38421122170984745025634765625" lon="-5.8571168594062328338623046875">
        <ele>567.5999755859375</ele>
        <time>2019-02-15T16:06:03.000Z</time>
      </trkpt>
      <trkpt lat="43.38422345928847789764404296875" lon="-5.85712180472910404205322265625">
        <ele>567.5999755859375</ele>
        <time>2019-02-15T16:06:04.000Z</time>
      </trkpt>
      <trkpt lat="43.38424776680767536163330078125" lon="-5.8571339584887027740478515625">
        <ele>567.5999755859375</ele>
        <time>2019-02-15T16:06:06.000Z</time>
      </trkpt>
      <trkpt lat="43.38431834243237972259521484375" lon="-5.857170335948467254638671875">
        <ele>567.4000244140625</ele>
        <time>2019-02-15T16:06:12.000Z</time>
      </trkpt>
      <trkpt lat="43.3843313343822956085205078125" lon="-5.85717394016683101654052734375">
        <ele>567.4000244140625</ele>
        <time>2019-02-15T16:06:13.000Z</time>
      </trkpt>
      <trkpt lat="43.3843936957418918609619140625" lon="-5.8571577630937099456787109375">
        <ele>567.4000244140625</ele>
        <time>2019-02-15T16:06:17.000Z</time>
      </trkpt>
      <trkpt lat="43.38443468324840068817138671875" lon="-5.85717494599521160125732421875">
        <ele>567</ele>
        <time>2019-02-15T16:06:19.000Z</time>
      </trkpt>
      <trkpt lat="43.38444977067410945892333984375" lon="-5.85717963986098766326904296875">
        <ele>566.79998779296875</ele>
        <time>2019-02-15T16:06:20.000Z</time>
      </trkpt>
      <trkpt lat="43.384466953575611114501953125" lon="-5.85718349553644657135009765625">
        <ele>566.79998779296875</ele>
        <time>2019-02-15T16:06:21.000Z</time>
      </trkpt>
      <trkpt lat="43.384512551128864288330078125" lon="-5.85723043419420719146728515625">
        <ele>567</ele>
        <time>2019-02-15T16:06:25.000Z</time>
      </trkpt>
      <trkpt lat="43.38453040458261966705322265625" lon="-5.85726656019687652587890625">
        <ele>566.79998779296875</ele>
        <time>2019-02-15T16:06:27.000Z</time>
      </trkpt>
      <trkpt lat="43.38457097299396991729736328125" lon="-5.8574611879885196685791015625">
        <ele>567.5999755859375</ele>
        <time>2019-02-15T16:06:36.000Z</time>
      </trkpt>
      <trkpt lat="43.3845811150968074798583984375" lon="-5.85757342167198657989501953125">
        <ele>567.79998779296875</ele>
        <time>2019-02-15T16:06:41.000Z</time>
      </trkpt>
      <trkpt lat="43.38458522222936153411865234375" lon="-5.85764550603926181793212890625">
        <ele>568</ele>
        <time>2019-02-15T16:06:44.000Z</time>
      </trkpt>
      <trkpt lat="43.38458941318094730377197265625" lon="-5.85782580077648162841796875">
        <ele>568.20001220703125</ele>
        <time>2019-02-15T16:06:51.000Z</time>
      </trkpt>
      <trkpt lat="43.38459293358027935028076171875" lon="-5.85801489651203155517578125">
        <ele>568.4000244140625</ele>
        <time>2019-02-15T16:06:58.000Z</time>
      </trkpt>
      <trkpt lat="43.384588658809661865234375" lon="-5.85806627757847309112548828125">
        <ele>568.79998779296875</ele>
        <time>2019-02-15T16:07:00.000Z</time>
      </trkpt>
      <trkpt lat="43.3845868147909641265869140625" lon="-5.85816199891269207000732421875">
        <ele>568.79998779296875</ele>
        <time>2019-02-15T16:07:04.000Z</time>
      </trkpt>
      <trkpt lat="43.38458036072552204132080078125" lon="-5.858229808509349822998046875">
        <ele>569.20001220703125</ele>
        <time>2019-02-15T16:07:07.000Z</time>
      </trkpt>
      <trkpt lat="43.3845848031342029571533203125" lon="-5.858370959758758544921875">
        <ele>569.79998779296875</ele>
        <time>2019-02-15T16:07:13.000Z</time>
      </trkpt>
      <trkpt lat="43.38458036072552204132080078125" lon="-5.85858260281383991241455078125">
        <ele>570.5999755859375</ele>
        <time>2019-02-15T16:07:22.000Z</time>
      </trkpt>
      <trkpt lat="43.3845791034400463104248046875" lon="-5.85860791616141796112060546875">
        <ele>570.79998779296875</ele>
        <time>2019-02-15T16:07:23.000Z</time>
      </trkpt>
      <trkpt lat="43.38456443510949611663818359375" lon="-5.85886188782751560211181640625">
        <ele>571.79998779296875</ele>
        <time>2019-02-15T16:07:33.000Z</time>
      </trkpt>
      <trkpt lat="43.384562842547893524169921875" lon="-5.85888502188026905059814453125">
        <ele>571.79998779296875</ele>
        <time>2019-02-15T16:07:34.000Z</time>
      </trkpt>
      <trkpt lat="43.3845616690814495086669921875" lon="-5.85904830135405063629150390625">
        <ele>572.4000244140625</ele>
        <time>2019-02-15T16:07:41.000Z</time>
      </trkpt>
      <trkpt lat="43.38456845842301845550537109375" lon="-5.85914117284119129180908203125">
        <ele>572.79998779296875</ele>
        <time>2019-02-15T16:07:45.000Z</time>
      </trkpt>
      <trkpt lat="43.384577594697475433349609375" lon="-5.85922616533935070037841796875">
        <ele>573.20001220703125</ele>
        <time>2019-02-15T16:07:49.000Z</time>
      </trkpt>
      <trkpt lat="43.38459469377994537353515625" lon="-5.85933831520378589630126953125">
        <ele>574</ele>
        <time>2019-02-15T16:07:54.000Z</time>
      </trkpt>
      <trkpt lat="43.3846062608063220977783203125" lon="-5.859443843364715576171875">
        <ele>575.4000244140625</ele>
        <time>2019-02-15T16:07:59.000Z</time>
      </trkpt>
      <trkpt lat="43.38462528772652149200439453125" lon="-5.85955875925719738006591796875">
        <ele>576.20001220703125</ele>
        <time>2019-02-15T16:08:05.000Z</time>
      </trkpt>
      <trkpt lat="43.3846293948590755462646484375" lon="-5.8595781214535236358642578125">
        <ele>576.5999755859375</ele>
        <time>2019-02-15T16:08:06.000Z</time>
      </trkpt>
      <trkpt lat="43.38464297354221343994140625" lon="-5.859633274376392364501953125">
        <ele>577</ele>
        <time>2019-02-15T16:08:09.000Z</time>
      </trkpt>
      <trkpt lat="43.3846582286059856414794921875" lon="-5.85968792438507080078125">
        <ele>577.5999755859375</ele>
        <time>2019-02-15T16:08:12.000Z</time>
      </trkpt>
      <trkpt lat="43.38469770736992359161376953125" lon="-5.859813652932643890380859375">
        <ele>578.79998779296875</ele>
        <time>2019-02-15T16:08:19.000Z</time>
      </trkpt>
      <trkpt lat="43.38472000323235988616943359375" lon="-5.85989738814532756805419921875">
        <ele>580</ele>
        <time>2019-02-15T16:08:24.000Z</time>
      </trkpt>
      <trkpt lat="43.38473525829613208770751953125" lon="-5.85998070426285266876220703125">
        <ele>581.20001220703125</ele>
        <time>2019-02-15T16:08:29.000Z</time>
      </trkpt>
      <trkpt lat="43.38473794050514698028564453125" lon="-5.85999763570725917816162109375">
        <ele>581.5999755859375</ele>
        <time>2019-02-15T16:08:30.000Z</time>
      </trkpt>
      <trkpt lat="43.38475353084504604339599609375" lon="-5.86006402038037776947021484375">
        <ele>582.4000244140625</ele>
        <time>2019-02-15T16:08:34.000Z</time>
      </trkpt>
      <trkpt lat="43.384772725403308868408203125" lon="-5.86012638173997402191162109375">
        <ele>583.5999755859375</ele>
        <time>2019-02-15T16:08:38.000Z</time>
      </trkpt>
      <trkpt lat="43.38478236459195613861083984375" lon="-5.8601586520671844482421875">
        <ele>584.20001220703125</ele>
        <time>2019-02-15T16:08:40.000Z</time>
      </trkpt>
      <trkpt lat="43.384792506694793701171875" lon="-5.8601879887282848358154296875">
        <ele>584.79998779296875</ele>
        <time>2019-02-15T16:08:42.000Z</time>
      </trkpt>
      <trkpt lat="43.3848137967288494110107421875" lon="-5.8602453209459781646728515625">
        <ele>586</ele>
        <time>2019-02-15T16:08:46.000Z</time>
      </trkpt>
      <trkpt lat="43.38484472595155239105224609375" lon="-5.86031489074230194091796875">
        <ele>586.79998779296875</ele>
        <time>2019-02-15T16:08:51.000Z</time>
      </trkpt>
      <trkpt lat="43.38485847227275371551513671875" lon="-5.86034330539405345916748046875">
        <ele>587</ele>
        <time>2019-02-15T16:08:53.000Z</time>
      </trkpt>
      <trkpt lat="43.3849244378507137298583984375" lon="-5.86048814468085765838623046875">
        <ele>587.79998779296875</ele>
        <time>2019-02-15T16:09:02.000Z</time>
      </trkpt>
      <trkpt lat="43.38494027964770793914794921875" lon="-5.86052116937935352325439453125">
        <ele>588.20001220703125</ele>
        <time>2019-02-15T16:09:04.000Z</time>
      </trkpt>
      <trkpt lat="43.38500641286373138427734375" lon="-5.860673971474170684814453125">
        <ele>589</ele>
        <time>2019-02-15T16:09:13.000Z</time>
      </trkpt>
      <trkpt lat="43.3850203268229961395263671875" lon="-5.86070557124912738800048828125">
        <ele>589.20001220703125</ele>
        <time>2019-02-15T16:09:15.000Z</time>
      </trkpt>
      <trkpt lat="43.38507078588008880615234375" lon="-5.86082316935062408447265625">
        <ele>590.5999755859375</ele>
        <time>2019-02-15T16:09:22.000Z</time>
      </trkpt>
      <trkpt lat="43.38508780114352703094482421875" lon="-5.8608640730381011962890625">
        <ele>592</ele>
        <time>2019-02-15T16:09:25.000Z</time>
      </trkpt>
      <trkpt lat="43.38511076755821704864501953125" lon="-5.86091545410454273223876953125">
        <ele>593.20001220703125</ele>
        <time>2019-02-15T16:09:29.000Z</time>
      </trkpt>
      <trkpt lat="43.38512334041297435760498046875" lon="-5.8609574474394321441650390625">
        <ele>594</ele>
        <time>2019-02-15T16:09:32.000Z</time>
      </trkpt>
      <trkpt lat="43.3851276151835918426513671875" lon="-5.86097094230353832244873046875">
        <ele>594.5999755859375</ele>
        <time>2019-02-15T16:09:33.000Z</time>
      </trkpt>
      <trkpt lat="43.38515116833150386810302734375" lon="-5.86103699170053005218505859375">
        <ele>595.79998779296875</ele>
        <time>2019-02-15T16:09:38.000Z</time>
      </trkpt>
      <trkpt lat="43.3851675130426883697509765625" lon="-5.86107571609318256378173828125">
        <ele>596.4000244140625</ele>
        <time>2019-02-15T16:09:41.000Z</time>
      </trkpt>
      <trkpt lat="43.38517765514552593231201171875" lon="-5.86110438220202922821044921875">
        <ele>597</ele>
        <time>2019-02-15T16:09:43.000Z</time>
      </trkpt>
      <trkpt lat="43.3851980231702327728271484375" lon="-5.8611562661826610565185546875">
        <ele>598.20001220703125</ele>
        <time>2019-02-15T16:09:47.000Z</time>
      </trkpt>
      <trkpt lat="43.38520414195954799652099609375" lon="-5.8611686713993549346923828125">
        <ele>598.5999755859375</ele>
        <time>2019-02-15T16:09:48.000Z</time>
      </trkpt>
      <trkpt lat="43.38522425852715969085693359375" lon="-5.86120462976396083831787109375">
        <ele>599.4000244140625</ele>
        <time>2019-02-15T16:09:51.000Z</time>
      </trkpt>
      <trkpt lat="43.3852553553879261016845703125" lon="-5.86127101443707942962646484375">
        <ele>600.5999755859375</ele>
        <time>2019-02-15T16:09:56.000Z</time>
      </trkpt>
      <trkpt lat="43.38527907617390155792236328125" lon="-5.86132281459867954254150390625">
        <ele>601.79998779296875</ele>
        <time>2019-02-15T16:10:00.000Z</time>
      </trkpt>
      <trkpt lat="43.38528293184936046600341796875" lon="-5.861335135996341705322265625">
        <ele>602.20001220703125</ele>
        <time>2019-02-15T16:10:01.000Z</time>
      </trkpt>
      <trkpt lat="43.3852862007915973663330078125" lon="-5.86136288009583950042724609375">
        <ele>602.79998779296875</ele>
        <time>2019-02-15T16:10:03.000Z</time>
      </trkpt>
      <trkpt lat="43.3852846920490264892578125" lon="-5.8613929711282253265380859375">
        <ele>603.20001220703125</ele>
        <time>2019-02-15T16:10:05.000Z</time>
      </trkpt>
      <trkpt lat="43.3852794952690601348876953125" lon="-5.861422307789325714111328125">
        <ele>603.79998779296875</ele>
        <time>2019-02-15T16:10:07.000Z</time>
      </trkpt>
      <trkpt lat="43.3852553553879261016845703125" lon="-5.86148961447179317474365234375">
        <ele>604.79998779296875</ele>
        <time>2019-02-15T16:10:12.000Z</time>
      </trkpt>
      <trkpt lat="43.3852536790072917938232421875" lon="-5.86150436662137508392333984375">
        <ele>605</ele>
        <time>2019-02-15T16:10:13.000Z</time>
      </trkpt>
      <trkpt lat="43.3852520026266574859619140625" lon="-5.8615820668637752532958984375">
        <ele>605.5999755859375</ele>
        <time>2019-02-15T16:10:18.000Z</time>
      </trkpt>
      <trkpt lat="43.3852707780897617340087890625" lon="-5.8616206236183643341064453125">
        <ele>605.4000244140625</ele>
        <time>2019-02-15T16:10:21.000Z</time>
      </trkpt>
      <trkpt lat="43.3853217400610446929931640625" lon="-5.86170427501201629638671875">
        <ele>605.79998779296875</ele>
        <time>2019-02-15T16:10:28.000Z</time>
      </trkpt>
      <trkpt lat="43.38532936759293079376220703125" lon="-5.861717350780963897705078125">
        <ele>606</ele>
        <time>2019-02-15T16:10:29.000Z</time>
      </trkpt>
      <trkpt lat="43.38535786606371402740478515625" lon="-5.861827991902828216552734375">
        <ele>606.4000244140625</ele>
        <time>2019-02-15T16:10:36.000Z</time>
      </trkpt>
      <trkpt lat="43.38536339811980724334716796875" lon="-5.8618807978928089141845703125">
        <ele>606.79998779296875</ele>
        <time>2019-02-15T16:10:39.000Z</time>
      </trkpt>
      <trkpt lat="43.38536809198558330535888671875" lon="-5.86191591806709766387939453125">
        <ele>607</ele>
        <time>2019-02-15T16:10:41.000Z</time>
      </trkpt>
      <trkpt lat="43.38537965901196002960205078125" lon="-5.86198749952018260955810546875">
        <ele>607.4000244140625</ele>
        <time>2019-02-15T16:10:45.000Z</time>
      </trkpt>
      <trkpt lat="43.38539675809442996978759765625" lon="-5.8620822988450527191162109375">
        <ele>607.79998779296875</ele>
        <time>2019-02-15T16:10:50.000Z</time>
      </trkpt>
      <trkpt lat="43.38539801537990570068359375" lon="-5.862104594707489013671875">
        <ele>607.79998779296875</ele>
        <time>2019-02-15T16:10:51.000Z</time>
      </trkpt>
      <trkpt lat="43.38540069758892059326171875" lon="-5.862149856984615325927734375">
        <ele>608</ele>
        <time>2019-02-15T16:10:53.000Z</time>
      </trkpt>
      <trkpt lat="43.38541955687105655670166015625" lon="-5.862318165600299835205078125">
        <ele>608</ele>
        <time>2019-02-15T16:10:58.000Z</time>
      </trkpt>
      <trkpt lat="43.385437242686748504638671875" lon="-5.86247096769511699676513671875">
        <ele>607.4000244140625</ele>
        <time>2019-02-15T16:11:01.000Z</time>
      </trkpt>
      <trkpt lat="43.38544554077088832855224609375" lon="-5.86253031156957149505615234375">
        <ele>606.79998779296875</ele>
        <time>2019-02-15T16:11:02.000Z</time>
      </trkpt>
      <trkpt lat="43.38546683080494403839111328125" lon="-5.86266173981130123138427734375">
        <ele>606</ele>
        <time>2019-02-15T16:11:04.000Z</time>
      </trkpt>
      <trkpt lat="43.38547839783132076263427734375" lon="-5.86273265071213245391845703125">
        <ele>605.5999755859375</ele>
        <time>2019-02-15T16:11:05.000Z</time>
      </trkpt>
      <trkpt lat="43.38551200926303863525390625" lon="-5.86296248249709606170654296875">
        <ele>604.4000244140625</ele>
        <time>2019-02-15T16:11:08.000Z</time>
      </trkpt>
      <trkpt lat="43.38554595597088336944580078125" lon="-5.86311369203031063079833984375">
        <ele>604</ele>
        <time>2019-02-15T16:11:10.000Z</time>
      </trkpt>
      <trkpt lat="43.38556288741528987884521484375" lon="-5.86318728514015674591064453125">
        <ele>604</ele>
        <time>2019-02-15T16:11:11.000Z</time>
      </trkpt>
      <trkpt lat="43.3855795674026012420654296875" lon="-5.86326121352612972259521484375">
        <ele>603.20001220703125</ele>
        <time>2019-02-15T16:11:12.000Z</time>
      </trkpt>
      <trkpt lat="43.3856147713959217071533203125" lon="-5.86340588517487049102783203125">
        <ele>602.79998779296875</ele>
        <time>2019-02-15T16:11:14.000Z</time>
      </trkpt>
      <trkpt lat="43.38565944693982601165771484375" lon="-5.86353848688304424285888671875">
        <ele>602.5999755859375</ele>
        <time>2019-02-15T16:11:16.000Z</time>
      </trkpt>
      <trkpt lat="43.38568626902997493743896484375" lon="-5.86359699256718158721923828125">
        <ele>602.5999755859375</ele>
        <time>2019-02-15T16:11:17.000Z</time>
      </trkpt>
      <trkpt lat="43.38581820018589496612548828125" lon="-5.86378675885498523712158203125">
        <ele>603.5999755859375</ele>
        <time>2019-02-15T16:11:22.000Z</time>
      </trkpt>
      <trkpt lat="43.385857678949832916259765625" lon="-5.8638404868543148040771484375">
        <ele>604.4000244140625</ele>
        <time>2019-02-15T16:11:24.000Z</time>
      </trkpt>
      <trkpt lat="43.3859104849398136138916015625" lon="-5.8639633655548095703125">
        <ele>605</ele>
        <time>2019-02-15T16:11:28.000Z</time>
      </trkpt>
      <trkpt lat="43.38594962842762470245361328125" lon="-5.86409118957817554473876953125">
        <ele>605.5999755859375</ele>
        <time>2019-02-15T16:11:32.000Z</time>
      </trkpt>
      <trkpt lat="43.38598466478288173675537109375" lon="-5.86422010324895381927490234375">
        <ele>606.79998779296875</ele>
        <time>2019-02-15T16:11:36.000Z</time>
      </trkpt>
      <trkpt lat="43.38599623180925846099853515625" lon="-5.86429067887365818023681640625">
        <ele>607</ele>
        <time>2019-02-15T16:11:38.000Z</time>
      </trkpt>
      <trkpt lat="43.38600561954081058502197265625" lon="-5.8646186627447605133056640625">
        <ele>607.5999755859375</ele>
        <time>2019-02-15T16:11:47.000Z</time>
      </trkpt>
      <trkpt lat="43.3860000036656856536865234375" lon="-5.86468647234141826629638671875">
        <ele>608</ele>
        <time>2019-02-15T16:11:49.000Z</time>
      </trkpt>
      <trkpt lat="43.3859829045832157135009765625" lon="-5.864873640239238739013671875">
        <ele>608.4000244140625</ele>
        <time>2019-02-15T16:11:54.000Z</time>
      </trkpt>
      <trkpt lat="43.3859778754413127899169921875" lon="-5.8649076707661151885986328125">
        <ele>608.20001220703125</ele>
        <time>2019-02-15T16:11:55.000Z</time>
      </trkpt>
      <trkpt lat="43.38597041554749011993408203125" lon="-5.8649720437824726104736328125">
        <ele>608.20001220703125</ele>
        <time>2019-02-15T16:11:57.000Z</time>
      </trkpt>
      <trkpt lat="43.3859523944556713104248046875" lon="-5.8650588802993297576904296875">
        <ele>608.20001220703125</ele>
        <time>2019-02-15T16:12:00.000Z</time>
      </trkpt>
      <trkpt lat="43.38594543747603893280029296875" lon="-5.86515217088162899017333984375">
        <ele>608.20001220703125</ele>
        <time>2019-02-15T16:12:03.000Z</time>
      </trkpt>
      <trkpt lat="43.385961614549160003662109375" lon="-5.8652067370712757110595703125">
        <ele>608</ele>
        <time>2019-02-15T16:12:06.000Z</time>
      </trkpt>
      <trkpt lat="43.3859617821872234344482421875" lon="-5.86520858108997344970703125">
        <ele>608</ele>
        <time>2019-02-15T16:12:07.000Z</time>
      </trkpt>
      <trkpt lat="43.38595063425600528717041015625" lon="-5.8652459643781185150146484375">
        <ele>608</ele>
        <time>2019-02-15T16:16:42.000Z</time>
      </trkpt>
      <trkpt lat="43.38594359345734119415283203125" lon="-5.865279324352741241455078125">
        <ele>608</ele>
        <time>2019-02-15T16:16:43.000Z</time>
      </trkpt>
      <trkpt lat="43.3859363012015819549560546875" lon="-5.86532416753470897674560546875">
        <ele>608</ele>
        <time>2019-02-15T16:16:44.000Z</time>
      </trkpt>
      <trkpt lat="43.385932445526123046875" lon="-5.86537982337176799774169921875">
        <ele>607.79998779296875</ele>
        <time>2019-02-15T16:16:45.000Z</time>
      </trkpt>
      <trkpt lat="43.3859339542686939239501953125" lon="-5.8655203878879547119140625">
        <ele>606.79998779296875</ele>
        <time>2019-02-15T16:16:47.000Z</time>
      </trkpt>
      <trkpt lat="43.38593579828739166259765625" lon="-5.8656062185764312744140625">
        <ele>606.4000244140625</ele>
        <time>2019-02-15T16:16:48.000Z</time>
      </trkpt>
      <trkpt lat="43.38594241999089717864990234375" lon="-5.86570135317742824554443359375">
        <ele>605.5999755859375</ele>
        <time>2019-02-15T16:16:49.000Z</time>
      </trkpt>
      <trkpt lat="43.385973684489727020263671875" lon="-5.86592313833534717559814453125">
        <ele>603.20001220703125</ele>
        <time>2019-02-15T16:16:51.000Z</time>
      </trkpt>
      <trkpt lat="43.38599338196218013763427734375" lon="-5.866048447787761688232421875">
        <ele>601.79998779296875</ele>
        <time>2019-02-15T16:16:52.000Z</time>
      </trkpt>
      <trkpt lat="43.3860174380242824554443359375" lon="-5.866170488297939300537109375">
        <ele>600</ele>
        <time>2019-02-15T16:16:53.000Z</time>
      </trkpt>
      <trkpt lat="43.386044092476367950439453125" lon="-5.86628490127623081207275390625">
        <ele>598.4000244140625</ele>
        <time>2019-02-15T16:16:54.000Z</time>
      </trkpt>
      <trkpt lat="43.38607133366167545318603515625" lon="-5.866390764713287353515625">
        <ele>597</ele>
        <time>2019-02-15T16:16:55.000Z</time>
      </trkpt>
      <trkpt lat="43.386102430522441864013671875" lon="-5.86649143137037754058837890625">
        <ele>595.79998779296875</ele>
        <time>2019-02-15T16:16:56.000Z</time>
      </trkpt>
      <trkpt lat="43.386141322553157806396484375" lon="-5.86658832617104053497314453125">
        <ele>594.5999755859375</ele>
        <time>2019-02-15T16:16:57.000Z</time>
      </trkpt>
      <trkpt lat="43.3862340264022350311279296875" lon="-5.8667704649269580841064453125">
        <ele>592.5999755859375</ele>
        <time>2019-02-15T16:16:59.000Z</time>
      </trkpt>
      <trkpt lat="43.3862709067761898040771484375" lon="-5.86686409078538417816162109375">
        <ele>591.20001220703125</ele>
        <time>2019-02-15T16:17:00.000Z</time>
      </trkpt>
      <trkpt lat="43.3862920291721820831298828125" lon="-5.8669645898044109344482421875">
        <ele>589.79998779296875</ele>
        <time>2019-02-15T16:17:01.000Z</time>
      </trkpt>
      <trkpt lat="43.38629412464797496795654296875" lon="-5.86706676520407199859619140625">
        <ele>588.79998779296875</ele>
        <time>2019-02-15T16:17:02.000Z</time>
      </trkpt>
      <trkpt lat="43.38626579381525516510009765625" lon="-5.86725108325481414794921875">
        <ele>587</ele>
        <time>2019-02-15T16:17:04.000Z</time>
      </trkpt>
      <trkpt lat="43.3862336911261081695556640625" lon="-5.86741528473794460296630859375">
        <ele>585.4000244140625</ele>
        <time>2019-02-15T16:17:06.000Z</time>
      </trkpt>
      <trkpt lat="43.38621986098587512969970703125" lon="-5.86750832386314868927001953125">
        <ele>584.4000244140625</ele>
        <time>2019-02-15T16:17:07.000Z</time>
      </trkpt>
      <trkpt lat="43.38620997034013271331787109375" lon="-5.8676183782517910003662109375">
        <ele>583.5999755859375</ele>
        <time>2019-02-15T16:17:08.000Z</time>
      </trkpt>
      <trkpt lat="43.3862075395882129669189453125" lon="-5.8677437715232372283935546875">
        <ele>582.4000244140625</ele>
        <time>2019-02-15T16:17:09.000Z</time>
      </trkpt>
      <trkpt lat="43.386215083301067352294921875" lon="-5.86787511594593524932861328125">
        <ele>579.79998779296875</ele>
        <time>2019-02-15T16:17:10.000Z</time>
      </trkpt>
      <trkpt lat="43.3862296678125858306884765625" lon="-5.86800067685544490814208984375">
        <ele>577.4000244140625</ele>
        <time>2019-02-15T16:17:11.000Z</time>
      </trkpt>
      <trkpt lat="43.38624961674213409423828125" lon="-5.86812271736562252044677734375">
        <ele>575.20001220703125</ele>
        <time>2019-02-15T16:17:12.000Z</time>
      </trkpt>
      <trkpt lat="43.386274762451648712158203125" lon="-5.86824190802872180938720703125">
        <ele>573.5999755859375</ele>
        <time>2019-02-15T16:17:13.000Z</time>
      </trkpt>
      <trkpt lat="43.3863108046352863311767578125" lon="-5.86835883557796478271484375">
        <ele>572.4000244140625</ele>
        <time>2019-02-15T16:17:14.000Z</time>
      </trkpt>
      <trkpt lat="43.3863574080169200897216796875" lon="-5.8684786967933177947998046875">
        <ele>571</ele>
        <time>2019-02-15T16:17:15.000Z</time>
      </trkpt>
      <trkpt lat="43.38641063310205936431884765625" lon="-5.86860450915992259979248046875">
        <ele>569.5999755859375</ele>
        <time>2019-02-15T16:17:16.000Z</time>
      </trkpt>
      <trkpt lat="43.38646880351006984710693359375" lon="-5.86873426102101802825927734375">
        <ele>568</ele>
        <time>2019-02-15T16:17:17.000Z</time>
      </trkpt>
      <trkpt lat="43.386530242860317230224609375" lon="-5.86886920966207981109619140625">
        <ele>565.4000244140625</ele>
        <time>2019-02-15T16:17:18.000Z</time>
      </trkpt>
      <trkpt lat="43.38659319095313549041748046875" lon="-5.8690104447305202484130859375">
        <ele>562.5999755859375</ele>
        <time>2019-02-15T16:17:19.000Z</time>
      </trkpt>
      <trkpt lat="43.38665655814111232757568359375" lon="-5.86914849467575550079345703125">
        <ele>560.79998779296875</ele>
        <time>2019-02-15T16:17:20.000Z</time>
      </trkpt>
      <trkpt lat="43.38671959005296230316162109375" lon="-5.86928394623100757598876953125">
        <ele>559</ele>
        <time>2019-02-15T16:17:21.000Z</time>
      </trkpt>
      <trkpt lat="43.38678312487900257110595703125" lon="-5.8694224990904331207275390625">
        <ele>557</ele>
        <time>2019-02-15T16:17:22.000Z</time>
      </trkpt>
      <trkpt lat="43.386844061315059661865234375" lon="-5.86956180632114410400390625">
        <ele>555</ele>
        <time>2019-02-15T16:17:23.000Z</time>
      </trkpt>
      <trkpt lat="43.386901058256626129150390625" lon="-5.8697027899324893951416015625">
        <ele>554</ele>
        <time>2019-02-15T16:17:24.000Z</time>
      </trkpt>
      <trkpt lat="43.38695503771305084228515625" lon="-5.86984888650476932525634765625">
        <ele>553</ele>
        <time>2019-02-15T16:17:25.000Z</time>
      </trkpt>
      <trkpt lat="43.3870051614940166473388671875" lon="-5.8700011856853961944580078125">
        <ele>550.5999755859375</ele>
        <time>2019-02-15T16:17:26.000Z</time>
      </trkpt>
      <trkpt lat="43.3870547823607921600341796875" lon="-5.87015868164598941802978515625">
        <ele>549.4000244140625</ele>
        <time>2019-02-15T16:17:27.000Z</time>
      </trkpt>
      <trkpt lat="43.38710532523691654205322265625" lon="-5.87031911127269268035888671875">
        <ele>548</ele>
        <time>2019-02-15T16:17:28.000Z</time>
      </trkpt>
      <trkpt lat="43.38715695776045322418212890625" lon="-5.8704823069274425506591796875">
        <ele>546.4000244140625</ele>
        <time>2019-02-15T16:17:29.000Z</time>
      </trkpt>
      <trkpt lat="43.38720842264592647552490234375" lon="-5.87064583785831928253173828125">
        <ele>544.79998779296875</ele>
        <time>2019-02-15T16:17:30.000Z</time>
      </trkpt>
      <trkpt lat="43.3872593007981777191162109375" lon="-5.87081171572208404541015625">
        <ele>542</ele>
        <time>2019-02-15T16:17:31.000Z</time>
      </trkpt>
      <trkpt lat="43.3873099274933338165283203125" lon="-5.87097524665296077728271484375">
        <ele>540.20001220703125</ele>
        <time>2019-02-15T16:17:32.000Z</time>
      </trkpt>
      <trkpt lat="43.38735627941787242889404296875" lon="-5.871139951050281524658203125">
        <ele>537.79998779296875</ele>
        <time>2019-02-15T16:17:33.000Z</time>
      </trkpt>
      <trkpt lat="43.387399278581142425537109375" lon="-5.87130700238049030303955078125">
        <ele>536.4000244140625</ele>
        <time>2019-02-15T16:17:34.000Z</time>
      </trkpt>
      <trkpt lat="43.3874732069671154022216796875" lon="-5.871643535792827606201171875">
        <ele>534.79998779296875</ele>
        <time>2019-02-15T16:17:36.000Z</time>
      </trkpt>
      <trkpt lat="43.3875310420989990234375" lon="-5.87197453714907169342041015625">
        <ele>533.5999755859375</ele>
        <time>2019-02-15T16:17:38.000Z</time>
      </trkpt>
      <trkpt lat="43.38760572485625743865966796875" lon="-5.872442163527011871337890625">
        <ele>532</ele>
        <time>2019-02-15T16:17:41.000Z</time>
      </trkpt>
      <trkpt lat="43.387670852243900299072265625" lon="-5.8727538026869297027587890625">
        <ele>531</ele>
        <time>2019-02-15T16:17:43.000Z</time>
      </trkpt>
      <trkpt lat="43.38771301321685314178466796875" lon="-5.87290978990495204925537109375">
        <ele>529.20001220703125</ele>
        <time>2019-02-15T16:17:44.000Z</time>
      </trkpt>
      <trkpt lat="43.38776104152202606201171875" lon="-5.8730646036565303802490234375">
        <ele>528.20001220703125</ele>
        <time>2019-02-15T16:17:45.000Z</time>
      </trkpt>
      <trkpt lat="43.387814350426197052001953125" lon="-5.87321455590426921844482421875">
        <ele>526.79998779296875</ele>
        <time>2019-02-15T16:17:46.000Z</time>
      </trkpt>
      <trkpt lat="43.38787025772035121917724609375" lon="-5.873358137905597686767578125">
        <ele>525.79998779296875</ele>
        <time>2019-02-15T16:17:47.000Z</time>
      </trkpt>
      <trkpt lat="43.3879749476909637451171875" lon="-5.8736305497586727142333984375">
        <ele>525</ele>
        <time>2019-02-15T16:17:49.000Z</time>
      </trkpt>
      <trkpt lat="43.38805549778044223785400390625" lon="-5.87390287779271602630615234375">
        <ele>525.20001220703125</ele>
        <time>2019-02-15T16:17:51.000Z</time>
      </trkpt>
      <trkpt lat="43.3880803920328617095947265625" lon="-5.87404034100472927093505859375">
        <ele>525.20001220703125</ele>
        <time>2019-02-15T16:17:52.000Z</time>
      </trkpt>
      <trkpt lat="43.38811869733035564422607421875" lon="-5.87440780363976955413818359375">
        <ele>525.4000244140625</ele>
        <time>2019-02-15T16:17:55.000Z</time>
      </trkpt>
      <trkpt lat="43.38811567984521389007568359375" lon="-5.87451475672423839569091796875">
        <ele>525.4000244140625</ele>
        <time>2019-02-15T16:17:56.000Z</time>
      </trkpt>
      <trkpt lat="43.3880468644201755523681640625" lon="-5.87482019327580928802490234375">
        <ele>524.5999755859375</ele>
        <time>2019-02-15T16:17:59.000Z</time>
      </trkpt>
      <trkpt lat="43.3880009315907955169677734375" lon="-5.87491792626678943634033203125">
        <ele>524</ele>
        <time>2019-02-15T16:18:00.000Z</time>
      </trkpt>
      <trkpt lat="43.387951813638210296630859375" lon="-5.87501205503940582275390625">
        <ele>523.4000244140625</ele>
        <time>2019-02-15T16:18:01.000Z</time>
      </trkpt>
      <trkpt lat="43.3878958225250244140625" lon="-5.8751010708510875701904296875">
        <ele>522.79998779296875</ele>
        <time>2019-02-15T16:18:02.000Z</time>
      </trkpt>
      <trkpt lat="43.387834466993808746337890625" lon="-5.87518363259732723236083984375">
        <ele>522.20001220703125</ele>
        <time>2019-02-15T16:18:03.000Z</time>
      </trkpt>
      <trkpt lat="43.3877689205110073089599609375" lon="-5.8752603270113468170166015625">
        <ele>522</ele>
        <time>2019-02-15T16:18:04.000Z</time>
      </trkpt>
      <trkpt lat="43.387641012668609619140625" lon="-5.8753981254994869232177734375">
        <ele>521.4000244140625</ele>
        <time>2019-02-15T16:18:06.000Z</time>
      </trkpt>
      <trkpt lat="43.38753615505993366241455078125" lon="-5.875506587326526641845703125">
        <ele>521.4000244140625</ele>
        <time>2019-02-15T16:18:08.000Z</time>
      </trkpt>
      <trkpt lat="43.3874084986746311187744140625" lon="-5.87564933113753795623779296875">
        <ele>521.79998779296875</ele>
        <time>2019-02-15T16:18:11.000Z</time>
      </trkpt>
      <trkpt lat="43.38735778816044330596923828125" lon="-5.87571957148611545562744140625">
        <ele>522</ele>
        <time>2019-02-15T16:18:13.000Z</time>
      </trkpt>
      <trkpt lat="43.38732174597680568695068359375" lon="-5.87577925063669681549072265625">
        <ele>522.20001220703125</ele>
        <time>2019-02-15T16:18:17.000Z</time>
      </trkpt>
      <trkpt lat="43.3872509188950061798095703125" lon="-5.87587765417993068695068359375">
        <ele>522.20001220703125</ele>
        <time>2019-02-15T16:20:26.000Z</time>
      </trkpt>
      <trkpt lat="43.38724345900118350982666015625" lon="-5.8758909814059734344482421875">
        <ele>522.20001220703125</ele>
        <time>2019-02-15T16:20:27.000Z</time>
      </trkpt>
      <trkpt lat="43.3872354961931705474853515625" lon="-5.8759141154587268829345703125">
        <ele>522.20001220703125</ele>
        <time>2019-02-15T16:20:29.000Z</time>
      </trkpt>
      <trkpt lat="43.38723859749734401702880859375" lon="-5.87592543102800846099853515625">
        <ele>522.20001220703125</ele>
        <time>2019-02-15T16:20:30.000Z</time>
      </trkpt>
      <trkpt lat="43.387261815369129180908203125" lon="-5.875951834022998809814453125">
        <ele>522.20001220703125</ele>
        <time>2019-02-15T16:20:32.000Z</time>
      </trkpt>
      <trkpt lat="43.38727145455777645111083984375" lon="-5.87596449069678783416748046875">
        <ele>522.20001220703125</ele>
        <time>2019-02-15T16:20:33.000Z</time>
      </trkpt>
      <trkpt lat="43.38729509152472019195556640625" lon="-5.87599466554820537567138671875">
        <ele>522.20001220703125</ele>
        <time>2019-02-15T16:20:35.000Z</time>
      </trkpt>
      <trkpt lat="43.38730732910335063934326171875" lon="-5.87600790895521640777587890625">
        <ele>522.20001220703125</ele>
        <time>2019-02-15T16:20:36.000Z</time>
      </trkpt>
      <trkpt lat="43.3873330615460872650146484375" lon="-5.87604110129177570343017578125">
        <ele>522.4000244140625</ele>
        <time>2019-02-15T16:20:38.000Z</time>
      </trkpt>
      <trkpt lat="43.38735225610435009002685546875" lon="-5.8760716952383518218994140625">
        <ele>522.4000244140625</ele>
        <time>2019-02-15T16:20:40.000Z</time>
      </trkpt>
      <trkpt lat="43.38736583478748798370361328125" lon="-5.8760975115001201629638671875">
        <ele>522.79998779296875</ele>
        <time>2019-02-15T16:20:42.000Z</time>
      </trkpt>
      <trkpt lat="43.387375809252262115478515625" lon="-5.87611251510679721832275390625">
        <ele>523</ele>
        <time>2019-02-15T16:20:43.000Z</time>
      </trkpt>
      <trkpt lat="43.3873977698385715484619140625" lon="-5.876134224236011505126953125">
        <ele>523.20001220703125</ele>
        <time>2019-02-15T16:20:45.000Z</time>
      </trkpt>
      <trkpt lat="43.3874235861003398895263671875" lon="-5.876163728535175323486328125">
        <ele>523.4000244140625</ele>
        <time>2019-02-15T16:20:47.000Z</time>
      </trkpt>
      <trkpt lat="43.3874641545116901397705078125" lon="-5.87619801051914691925048828125">
        <ele>523.79998779296875</ele>
        <time>2019-02-15T16:20:50.000Z</time>
      </trkpt>
      <trkpt lat="43.3874973468482494354248046875" lon="-5.87623002938926219940185546875">
        <ele>524.20001220703125</ele>
        <time>2019-02-15T16:20:53.000Z</time>
      </trkpt>
      <trkpt lat="43.38754990138113498687744140625" lon="-5.87627529166638851165771484375">
        <ele>524.5999755859375</ele>
        <time>2019-02-15T16:20:57.000Z</time>
      </trkpt>
      <trkpt lat="43.38762332685291767120361328125" lon="-5.87635156698524951934814453125">
        <ele>525</ele>
        <time>2019-02-15T16:21:02.000Z</time>
      </trkpt>
      <trkpt lat="43.3876341395080089569091796875" lon="-5.87637386284768581390380859375">
        <ele>525</ele>
        <time>2019-02-15T16:21:03.000Z</time>
      </trkpt>
      <trkpt lat="43.38767655193805694580078125" lon="-5.87642800994217395782470703125">
        <ele>525.79998779296875</ele>
        <time>2019-02-15T16:21:07.000Z</time>
      </trkpt>
      <trkpt lat="43.3876911364495754241943359375" lon="-5.87644301354885101318359375">
        <ele>525.79998779296875</ele>
        <time>2019-02-15T16:21:08.000Z</time>
      </trkpt>
      <trkpt lat="43.38774788193404674530029296875" lon="-5.87651409208774566650390625">
        <ele>526.20001220703125</ele>
        <time>2019-02-15T16:21:13.000Z</time>
      </trkpt>
      <trkpt lat="43.3877692557871341705322265625" lon="-5.87654837407171726226806640625">
        <ele>526.5999755859375</ele>
        <time>2019-02-15T16:21:15.000Z</time>
      </trkpt>
      <trkpt lat="43.38781225495040416717529296875" lon="-5.876609981060028076171875">
        <ele>526.79998779296875</ele>
        <time>2019-02-15T16:21:19.000Z</time>
      </trkpt>
      <trkpt lat="43.38784419000148773193359375" lon="-5.87666521780192852020263671875">
        <ele>527.4000244140625</ele>
        <time>2019-02-15T16:21:22.000Z</time>
      </trkpt>
      <trkpt lat="43.3878752030432224273681640625" lon="-5.876722298562526702880859375">
        <ele>528</ele>
        <time>2019-02-15T16:21:25.000Z</time>
      </trkpt>
      <trkpt lat="43.3879110775887966156005859375" lon="-5.8767841570079326629638671875">
        <ele>528</ele>
        <time>2019-02-15T16:21:28.000Z</time>
      </trkpt>
      <trkpt lat="43.38798995129764080047607421875" lon="-5.8769028447568416595458984375">
        <ele>529</ele>
        <time>2019-02-15T16:21:34.000Z</time>
      </trkpt>
      <trkpt lat="43.388010822236537933349609375" lon="-5.876952297985553741455078125">
        <ele>529</ele>
        <time>2019-02-15T16:21:36.000Z</time>
      </trkpt>
      <trkpt lat="43.3880726806819438934326171875" lon="-5.87705765850841999053955078125">
        <ele>529.20001220703125</ele>
        <time>2019-02-15T16:21:41.000Z</time>
      </trkpt>
      <trkpt lat="43.38810193352401256561279296875" lon="-5.8771070279181003570556640625">
        <ele>529.5999755859375</ele>
        <time>2019-02-15T16:21:44.000Z</time>
      </trkpt>
      <trkpt lat="43.38811920024454593658447265625" lon="-5.87715438567101955413818359375">
        <ele>529.79998779296875</ele>
        <time>2019-02-15T16:21:46.000Z</time>
      </trkpt>
      <trkpt lat="43.388149626553058624267578125" lon="-5.8772451616823673248291015625">
        <ele>529.5999755859375</ele>
        <time>2019-02-15T16:21:49.000Z</time>
      </trkpt>
      <trkpt lat="43.38817586190998554229736328125" lon="-5.87732143700122833251953125">
        <ele>529</ele>
        <time>2019-02-15T16:21:51.000Z</time>
      </trkpt>
      <trkpt lat="43.3882061205804347991943359375" lon="-5.87740316055715084075927734375">
        <ele>528.20001220703125</ele>
        <time>2019-02-15T16:21:53.000Z</time>
      </trkpt>
      <trkpt lat="43.388234786689281463623046875" lon="-5.87749619968235492706298828125">
        <ele>527.5999755859375</ele>
        <time>2019-02-15T16:21:55.000Z</time>
      </trkpt>
      <trkpt lat="43.3882651291787624359130859375" lon="-5.87765268981456756591796875">
        <ele>526.4000244140625</ele>
        <time>2019-02-15T16:21:58.000Z</time>
      </trkpt>
      <trkpt lat="43.3882761932909488677978515625" lon="-5.87776157073676586151123046875">
        <ele>525.79998779296875</ele>
        <time>2019-02-15T16:22:00.000Z</time>
      </trkpt>
      <trkpt lat="43.388277031481266021728515625" lon="-5.87787070311605930328369140625">
        <ele>525.5999755859375</ele>
        <time>2019-02-15T16:22:02.000Z</time>
      </trkpt>
      <trkpt lat="43.38828943669795989990234375" lon="-5.87798067368566989898681640625">
        <ele>525.20001220703125</ele>
        <time>2019-02-15T16:22:04.000Z</time>
      </trkpt>
      <trkpt lat="43.3883157558739185333251953125" lon="-5.87813573889434337615966796875">
        <ele>525.4000244140625</ele>
        <time>2019-02-15T16:22:07.000Z</time>
      </trkpt>
      <trkpt lat="43.38834567926824092864990234375" lon="-5.8782157860696315765380859375">
        <ele>525.5999755859375</ele>
        <time>2019-02-15T16:22:09.000Z</time>
      </trkpt>
      <trkpt lat="43.38835909031331539154052734375" lon="-5.87824881076812744140625">
        <ele>525.5999755859375</ele>
        <time>2019-02-15T16:22:10.000Z</time>
      </trkpt>
      <trkpt lat="43.3883714117109775543212890625" lon="-5.8782828412950038909912109375">
        <ele>525.79998779296875</ele>
        <time>2019-02-15T16:22:11.000Z</time>
      </trkpt>
      <trkpt lat="43.3883885107934474945068359375" lon="-5.878313519060611724853515625">
        <ele>526</ele>
        <time>2019-02-15T16:22:12.000Z</time>
      </trkpt>
      <trkpt lat="43.38840502314269542694091796875" lon="-5.8783405087888240814208984375">
        <ele>526.20001220703125</ele>
        <time>2019-02-15T16:22:13.000Z</time>
      </trkpt>
      <trkpt lat="43.3884193561971187591552734375" lon="-5.87836557067930698394775390625">
        <ele>526.79998779296875</ele>
        <time>2019-02-15T16:22:14.000Z</time>
      </trkpt>
      <trkpt lat="43.38844626210629940032958984375" lon="-5.87841577827930450439453125">
        <ele>527.79998779296875</ele>
        <time>2019-02-15T16:22:16.000Z</time>
      </trkpt>
      <trkpt lat="43.38845841586589813232421875" lon="-5.87844260036945343017578125">
        <ele>528.20001220703125</ele>
        <time>2019-02-15T16:22:17.000Z</time>
      </trkpt>
      <trkpt lat="43.3884837292134761810302734375" lon="-5.87852231226861476898193359375">
        <ele>528.5999755859375</ele>
        <time>2019-02-15T16:22:20.000Z</time>
      </trkpt>
      <trkpt lat="43.388499654829502105712890625" lon="-5.8785785548388957977294921875">
        <ele>528.79998779296875</ele>
        <time>2019-02-15T16:22:22.000Z</time>
      </trkpt>
      <trkpt lat="43.38851281441748142242431640625" lon="-5.87863882072269916534423828125">
        <ele>528.79998779296875</ele>
        <time>2019-02-15T16:22:24.000Z</time>
      </trkpt>
      <trkpt lat="43.388551957905292510986328125" lon="-5.8788588456809520721435546875">
        <ele>529.20001220703125</ele>
        <time>2019-02-15T16:22:32.000Z</time>
      </trkpt>
      <trkpt lat="43.3885501138865947723388671875" lon="-5.87898398749530315399169921875">
        <ele>530</ele>
        <time>2019-02-15T16:22:37.000Z</time>
      </trkpt>
      <trkpt lat="43.3885360322892665863037109375" lon="-5.8790502883493900299072265625">
        <ele>530.79998779296875</ele>
        <time>2019-02-15T16:22:40.000Z</time>
      </trkpt>
      <trkpt lat="43.3885293267667293548583984375" lon="-5.8790690638124942779541015625">
        <ele>531.20001220703125</ele>
        <time>2019-02-15T16:22:41.000Z</time>
      </trkpt>
      <trkpt lat="43.38849990628659725189208984375" lon="-5.87914626114070415496826171875">
        <ele>532.4000244140625</ele>
        <time>2019-02-15T16:22:45.000Z</time>
      </trkpt>
      <trkpt lat="43.38847316801548004150390625" lon="-5.87922513484954833984375">
        <ele>533.20001220703125</ele>
        <time>2019-02-15T16:22:49.000Z</time>
      </trkpt>
      <trkpt lat="43.3884649537503719329833984375" lon="-5.8792662061750888824462890625">
        <ele>533.5999755859375</ele>
        <time>2019-02-15T16:22:51.000Z</time>
      </trkpt>
      <trkpt lat="43.3884683065116405487060546875" lon="-5.879369638860225677490234375">
        <ele>534.79998779296875</ele>
        <time>2019-02-15T16:22:56.000Z</time>
      </trkpt>
      <trkpt lat="43.3884857408702373504638671875" lon="-5.879469551146030426025390625">
        <ele>536</ele>
        <time>2019-02-15T16:23:01.000Z</time>
      </trkpt>
      <trkpt lat="43.38850879110395908355712890625" lon="-5.879576168954372406005859375">
        <ele>537</ele>
        <time>2019-02-15T16:23:06.000Z</time>
      </trkpt>
      <trkpt lat="43.3885139040648937225341796875" lon="-5.879596956074237823486328125">
        <ele>537.20001220703125</ele>
        <time>2019-02-15T16:23:07.000Z</time>
      </trkpt>
      <trkpt lat="43.38853896595537662506103515625" lon="-5.8797132968902587890625">
        <ele>538.4000244140625</ele>
        <time>2019-02-15T16:23:13.000Z</time>
      </trkpt>
      <trkpt lat="43.3885543048381805419921875" lon="-5.87974891997873783111572265625">
        <ele>538.5999755859375</ele>
        <time>2019-02-15T16:23:15.000Z</time>
      </trkpt>
      <trkpt lat="43.38859143666923046112060546875" lon="-5.87992745451629161834716796875">
        <ele>538.79998779296875</ele>
        <time>2019-02-15T16:23:21.000Z</time>
      </trkpt>
      <trkpt lat="43.38858422823250293731689453125" lon="-5.88016114197671413421630859375">
        <ele>537.79998779296875</ele>
        <time>2019-02-15T16:23:27.000Z</time>
      </trkpt>
      <trkpt lat="43.38858573697507381439208984375" lon="-5.8803340606391429901123046875">
        <ele>537.5999755859375</ele>
        <time>2019-02-15T16:23:31.000Z</time>
      </trkpt>
      <trkpt lat="43.3886071108281612396240234375" lon="-5.88042835704982280731201171875">
        <ele>537</ele>
        <time>2019-02-15T16:23:33.000Z</time>
      </trkpt>
      <trkpt lat="43.38867927901446819305419921875" lon="-5.88053748942911624908447265625">
        <ele>536.4000244140625</ele>
        <time>2019-02-15T16:23:36.000Z</time>
      </trkpt>
      <trkpt lat="43.388704173266887664794921875" lon="-5.88056649081408977508544921875">
        <ele>536.4000244140625</ele>
        <time>2019-02-15T16:23:37.000Z</time>
      </trkpt>
      <trkpt lat="43.38872353546321392059326171875" lon="-5.88059775531291961669921875">
        <ele>536.4000244140625</ele>
        <time>2019-02-15T16:23:38.000Z</time>
      </trkpt>
      <trkpt lat="43.38873811997473239898681640625" lon="-5.880632959306240081787109375">
        <ele>536.5999755859375</ele>
        <time>2019-02-15T16:23:39.000Z</time>
      </trkpt>
      <trkpt lat="43.38874809443950653076171875" lon="-5.88066807948052883148193359375">
        <ele>536</ele>
        <time>2019-02-15T16:23:40.000Z</time>
      </trkpt>
      <trkpt lat="43.38875421322882175445556640625" lon="-5.8807038702070713043212890625">
        <ele>535.79998779296875</ele>
        <time>2019-02-15T16:23:41.000Z</time>
      </trkpt>
      <trkpt lat="43.388763181865215301513671875" lon="-5.880804955959320068359375">
        <ele>535.5999755859375</ele>
        <time>2019-02-15T16:23:43.000Z</time>
      </trkpt>
      <trkpt lat="43.388772569596767425537109375" lon="-5.8809484541416168212890625">
        <ele>535.4000244140625</ele>
        <time>2019-02-15T16:23:45.000Z</time>
      </trkpt>
      <trkpt lat="43.3887928538024425506591796875" lon="-5.88112388737499713897705078125">
        <ele>533</ele>
        <time>2019-02-15T16:23:47.000Z</time>
      </trkpt>
      <trkpt lat="43.3888049237430095672607421875" lon="-5.88121038861572742462158203125">
        <ele>531.79998779296875</ele>
        <time>2019-02-15T16:23:48.000Z</time>
      </trkpt>
      <trkpt lat="43.38881238363683223724365234375" lon="-5.881295464932918548583984375">
        <ele>531</ele>
        <time>2019-02-15T16:23:49.000Z</time>
      </trkpt>
      <trkpt lat="43.388811461627483367919921875" lon="-5.88137350045144557952880859375">
        <ele>530.4000244140625</ele>
        <time>2019-02-15T16:23:50.000Z</time>
      </trkpt>
      <trkpt lat="43.3888198435306549072265625" lon="-5.8815011568367481231689453125">
        <ele>528.20001220703125</ele>
        <time>2019-02-15T16:23:52.000Z</time>
      </trkpt>
      <trkpt lat="43.38884339667856693267822265625" lon="-5.88155169971287250518798828125">
        <ele>527</ele>
        <time>2019-02-15T16:23:53.000Z</time>
      </trkpt>
      <trkpt lat="43.38891648687422275543212890625" lon="-5.88164691813290119171142578125">
        <ele>525</ele>
        <time>2019-02-15T16:23:55.000Z</time>
      </trkpt>
      <trkpt lat="43.388959653675556182861328125" lon="-5.881687738001346588134765625">
        <ele>524.5999755859375</ele>
        <time>2019-02-15T16:23:56.000Z</time>
      </trkpt>
      <trkpt lat="43.38900935836136341094970703125" lon="-5.88171355426311492919921875">
        <ele>524.4000244140625</ele>
        <time>2019-02-15T16:23:57.000Z</time>
      </trkpt>
      <trkpt lat="43.38906618766486644744873046875" lon="-5.8817271329462528228759765625">
        <ele>523.5999755859375</ele>
        <time>2019-02-15T16:23:58.000Z</time>
      </trkpt>
      <trkpt lat="43.38918336667120456695556640625" lon="-5.88177968747913837432861328125">
        <ele>521.5999755859375</ele>
        <time>2019-02-15T16:24:00.000Z</time>
      </trkpt>
      <trkpt lat="43.38924271054565906524658203125" lon="-5.88182662613689899444580078125">
        <ele>520.79998779296875</ele>
        <time>2019-02-15T16:24:01.000Z</time>
      </trkpt>
      <trkpt lat="43.38930691592395305633544921875" lon="-5.881870798766613006591796875">
        <ele>520</ele>
        <time>2019-02-15T16:24:02.000Z</time>
      </trkpt>
      <trkpt lat="43.38944572024047374725341796875" lon="-5.8819175697863101959228515625">
        <ele>519.20001220703125</ele>
        <time>2019-02-15T16:24:04.000Z</time>
      </trkpt>
      <trkpt lat="43.38951612822711467742919921875" lon="-5.88192167691886425018310546875">
        <ele>518.4000244140625</ele>
        <time>2019-02-15T16:24:05.000Z</time>
      </trkpt>
      <trkpt lat="43.3896454609930515289306640625" lon="-5.88193349540233612060546875">
        <ele>514.79998779296875</ele>
        <time>2019-02-15T16:24:07.000Z</time>
      </trkpt>
      <trkpt lat="43.38970120064914226531982421875" lon="-5.881944559514522552490234375">
        <ele>518</ele>
        <time>2019-02-15T16:24:08.000Z</time>
      </trkpt>
      <trkpt lat="43.389749564230442047119140625" lon="-5.88196777738630771636962890625">
        <ele>518</ele>
        <time>2019-02-15T16:24:09.000Z</time>
      </trkpt>
      <trkpt lat="43.389861881732940673828125" lon="-5.88211848400533199310302734375">
        <ele>518.5999755859375</ele>
        <time>2019-02-15T16:24:12.000Z</time>
      </trkpt>
      <trkpt lat="43.39003899134695529937744140625" lon="-5.88244303129613399505615234375">
        <ele>517</ele>
        <time>2019-02-15T16:24:17.000Z</time>
      </trkpt>
      <trkpt lat="43.39007788337767124176025390625" lon="-5.88250882923603057861328125">
        <ele>516.5999755859375</ele>
        <time>2019-02-15T16:24:18.000Z</time>
      </trkpt>
      <trkpt lat="43.39017863385379314422607421875" lon="-5.88264235295355319976806640625">
        <ele>515.79998779296875</ele>
        <time>2019-02-15T16:24:20.000Z</time>
      </trkpt>
      <trkpt lat="43.3902301825582981109619140625" lon="-5.88270865380764007568359375">
        <ele>514.5999755859375</ele>
        <time>2019-02-15T16:24:21.000Z</time>
      </trkpt>
      <trkpt lat="43.3902816474437713623046875" lon="-5.88276674039661884307861328125">
        <ele>514</ele>
        <time>2019-02-15T16:24:22.000Z</time>
      </trkpt>
      <trkpt lat="43.39033738709986209869384765625" lon="-5.88281468488276004791259765625">
        <ele>513.5999755859375</ele>
        <time>2019-02-15T16:24:23.000Z</time>
      </trkpt>
      <trkpt lat="43.390522040426731109619140625" lon="-5.88292549364268779754638671875">
        <ele>511.20001220703125</ele>
        <time>2019-02-15T16:24:26.000Z</time>
      </trkpt>
      <trkpt lat="43.3905892632901668548583984375" lon="-5.88296212255954742431640625">
        <ele>509.600006103515625</ele>
        <time>2019-02-15T16:24:27.000Z</time>
      </trkpt>
      <trkpt lat="43.390658162534236907958984375" lon="-5.882998667657375335693359375">
        <ele>508.399993896484375</ele>
        <time>2019-02-15T16:24:28.000Z</time>
      </trkpt>
      <trkpt lat="43.3907964639365673065185546875" lon="-5.88306379504501819610595703125">
        <ele>507</ele>
        <time>2019-02-15T16:24:30.000Z</time>
      </trkpt>
      <trkpt lat="43.39086326770484447479248046875" lon="-5.88308525271713733673095703125">
        <ele>505.600006103515625</ele>
        <time>2019-02-15T16:24:31.000Z</time>
      </trkpt>
      <trkpt lat="43.39092479087412357330322265625" lon="-5.88309916667640209197998046875">
        <ele>503.79998779296875</ele>
        <time>2019-02-15T16:24:32.000Z</time>
      </trkpt>
      <trkpt lat="43.3909858949482440948486328125" lon="-5.88310486637055873870849609375">
        <ele>502.600006103515625</ele>
        <time>2019-02-15T16:24:33.000Z</time>
      </trkpt>
      <trkpt lat="43.39112310670316219329833984375" lon="-5.8830843307077884674072265625">
        <ele>500.600006103515625</ele>
        <time>2019-02-15T16:24:35.000Z</time>
      </trkpt>
      <trkpt lat="43.3911971189081668853759765625" lon="-5.8830544911324977874755859375">
        <ele>499.79998779296875</ele>
        <time>2019-02-15T16:24:36.000Z</time>
      </trkpt>
      <trkpt lat="43.39127029292285442352294921875" lon="-5.88301819749176502227783203125">
        <ele>499.20001220703125</ele>
        <time>2019-02-15T16:24:37.000Z</time>
      </trkpt>
      <trkpt lat="43.3914271183311939239501953125" lon="-5.882956422865390777587890625">
        <ele>497.399993896484375</ele>
        <time>2019-02-15T16:24:39.000Z</time>
      </trkpt>
      <trkpt lat="43.3915793336927890777587890625" lon="-5.8829257450997829437255859375">
        <ele>495.79998779296875</ele>
        <time>2019-02-15T16:24:41.000Z</time>
      </trkpt>
      <trkpt lat="43.3916497416794300079345703125" lon="-5.882936306297779083251953125">
        <ele>495.20001220703125</ele>
        <time>2019-02-15T16:24:42.000Z</time>
      </trkpt>
      <trkpt lat="43.3917144499719142913818359375" lon="-5.88296287693083286285400390625">
        <ele>493.79998779296875</ele>
        <time>2019-02-15T16:24:43.000Z</time>
      </trkpt>
      <trkpt lat="43.39177404530346393585205078125" lon="-5.8829951472580432891845703125">
        <ele>493.20001220703125</ele>
        <time>2019-02-15T16:24:44.000Z</time>
      </trkpt>
      <trkpt lat="43.3918311260640621185302734375" lon="-5.88302020914852619171142578125">
        <ele>492.399993896484375</ele>
        <time>2019-02-15T16:24:45.000Z</time>
      </trkpt>
      <trkpt lat="43.392009995877742767333984375" lon="-5.88303060270845890045166015625">
        <ele>491.20001220703125</ele>
        <time>2019-02-15T16:24:48.000Z</time>
      </trkpt>
      <trkpt lat="43.39207470417022705078125" lon="-5.8830189518630504608154296875">
        <ele>490.79998779296875</ele>
        <time>2019-02-15T16:24:49.000Z</time>
      </trkpt>
      <trkpt lat="43.39214284904301166534423828125" lon="-5.88300545699894428253173828125">
        <ele>490</ele>
        <time>2019-02-15T16:24:50.000Z</time>
      </trkpt>
      <trkpt lat="43.39221350848674774169921875" lon="-5.88299523107707500457763671875">
        <ele>488</ele>
        <time>2019-02-15T16:24:51.000Z</time>
      </trkpt>
      <trkpt lat="43.39228383265435695648193359375" lon="-5.8829968236386775970458984375">
        <ele>487</ele>
        <time>2019-02-15T16:24:52.000Z</time>
      </trkpt>
      <trkpt lat="43.39235189370810985565185546875" lon="-5.88301467709243297576904296875">
        <ele>485.79998779296875</ele>
        <time>2019-02-15T16:24:53.000Z</time>
      </trkpt>
      <trkpt lat="43.39241333305835723876953125" lon="-5.883046276867389678955078125">
        <ele>484.79998779296875</ele>
        <time>2019-02-15T16:24:54.000Z</time>
      </trkpt>
      <trkpt lat="43.3925186097621917724609375" lon="-5.88313068263232707977294921875">
        <ele>483.20001220703125</ele>
        <time>2019-02-15T16:24:56.000Z</time>
      </trkpt>
      <trkpt lat="43.39256881736218929290771484375" lon="-5.88317041285336017608642578125">
        <ele>482.79998779296875</ele>
        <time>2019-02-15T16:24:57.000Z</time>
      </trkpt>
      <trkpt lat="43.39262279681861400604248046875" lon="-5.88319773785769939422607421875">
        <ele>482</ele>
        <time>2019-02-15T16:24:58.000Z</time>
      </trkpt>
      <trkpt lat="43.39268197305500507354736328125" lon="-5.88321098126471042633056640625">
        <ele>480.79998779296875</ele>
        <time>2019-02-15T16:24:59.000Z</time>
      </trkpt>
      <trkpt lat="43.39274458587169647216796875" lon="-5.88321114890277385711669921875">
        <ele>479.79998779296875</ele>
        <time>2019-02-15T16:25:00.000Z</time>
      </trkpt>
      <trkpt lat="43.39286033995449542999267578125" lon="-5.88318147696554660797119140625">
        <ele>478.20001220703125</ele>
        <time>2019-02-15T16:25:02.000Z</time>
      </trkpt>
      <trkpt lat="43.392917923629283905029296875" lon="-5.8831590972840785980224609375">
        <ele>477.20001220703125</ele>
        <time>2019-02-15T16:25:03.000Z</time>
      </trkpt>
      <trkpt lat="43.392976932227611541748046875" lon="-5.88313914835453033447265625">
        <ele>476.600006103515625</ele>
        <time>2019-02-15T16:25:04.000Z</time>
      </trkpt>
      <trkpt lat="43.39303334243595600128173828125" lon="-5.88313110172748565673828125">
        <ele>476</ele>
        <time>2019-02-15T16:25:05.000Z</time>
      </trkpt>
      <trkpt lat="43.3931301534175872802734375" lon="-5.88318097405135631561279296875">
        <ele>475.20001220703125</ele>
        <time>2019-02-15T16:25:07.000Z</time>
      </trkpt>
      <trkpt lat="43.39316795580089092254638671875" lon="-5.8832372166216373443603515625">
        <ele>474.600006103515625</ele>
        <time>2019-02-15T16:25:08.000Z</time>
      </trkpt>
      <trkpt lat="43.3932325802743434906005859375" lon="-5.88339638896286487579345703125">
        <ele>473.20001220703125</ele>
        <time>2019-02-15T16:25:10.000Z</time>
      </trkpt>
      <trkpt lat="43.3932640962302684783935546875" lon="-5.8834809623658657073974609375">
        <ele>472.20001220703125</ele>
        <time>2019-02-15T16:25:11.000Z</time>
      </trkpt>
      <trkpt lat="43.39329754002392292022705078125" lon="-5.88355782441794872283935546875">
        <ele>470.79998779296875</ele>
        <time>2019-02-15T16:25:12.000Z</time>
      </trkpt>
      <trkpt lat="43.393353112041950225830078125" lon="-5.8837112970650196075439453125">
        <ele>469.399993896484375</ele>
        <time>2019-02-15T16:25:14.000Z</time>
      </trkpt>
      <trkpt lat="43.393367193639278411865234375" lon="-5.883795954287052154541015625">
        <ele>468.79998779296875</ele>
        <time>2019-02-15T16:25:15.000Z</time>
      </trkpt>
      <trkpt lat="43.39337348006665706634521484375" lon="-5.8838801085948944091796875">
        <ele>468</ele>
        <time>2019-02-15T16:25:16.000Z</time>
      </trkpt>
      <trkpt lat="43.39337490499019622802734375" lon="-5.8839614130556583404541015625">
        <ele>467.20001220703125</ele>
        <time>2019-02-15T16:25:17.000Z</time>
      </trkpt>
      <trkpt lat="43.39337381534278392791748046875" lon="-5.88403902947902679443359375">
        <ele>466</ele>
        <time>2019-02-15T16:25:18.000Z</time>
      </trkpt>
      <trkpt lat="43.393369875848293304443359375" lon="-5.88411220349371433258056640625">
        <ele>465.399993896484375</ele>
        <time>2019-02-15T16:25:19.000Z</time>
      </trkpt>
      <trkpt lat="43.39336216449737548828125" lon="-5.88417959399521350860595703125">
        <ele>464.399993896484375</ele>
        <time>2019-02-15T16:25:20.000Z</time>
      </trkpt>
      <trkpt lat="43.39334967546164989471435546875" lon="-5.8842417038977146148681640625">
        <ele>463.79998779296875</ele>
        <time>2019-02-15T16:25:21.000Z</time>
      </trkpt>
      <trkpt lat="43.39332955889403820037841796875" lon="-5.884298197925090789794921875">
        <ele>463.20001220703125</ele>
        <time>2019-02-15T16:25:22.000Z</time>
      </trkpt>
      <trkpt lat="43.39329334907233715057373046875" lon="-5.8843476511538028717041015625">
        <ele>462.20001220703125</ele>
        <time>2019-02-15T16:25:23.000Z</time>
      </trkpt>
      <trkpt lat="43.3931792713701725006103515625" lon="-5.88441093452274799346923828125">
        <ele>460.20001220703125</ele>
        <time>2019-02-15T16:25:25.000Z</time>
      </trkpt>
      <trkpt lat="43.3931138925254344940185546875" lon="-5.88443172164261341094970703125">
        <ele>459.399993896484375</ele>
        <time>2019-02-15T16:25:26.000Z</time>
      </trkpt>
      <trkpt lat="43.393048346042633056640625" lon="-5.884452760219573974609375">
        <ele>458.399993896484375</ele>
        <time>2019-02-15T16:25:27.000Z</time>
      </trkpt>
      <trkpt lat="43.392919264733791351318359375" lon="-5.88449307717382907867431640625">
        <ele>457.399993896484375</ele>
        <time>2019-02-15T16:25:29.000Z</time>
      </trkpt>
      <trkpt lat="43.392854891717433929443359375" lon="-5.88450565002858638763427734375">
        <ele>457</ele>
        <time>2019-02-15T16:25:30.000Z</time>
      </trkpt>
      <trkpt lat="43.39273779653012752532958984375" lon="-5.88447765447199344635009765625">
        <ele>456.600006103515625</ele>
        <time>2019-02-15T16:25:32.000Z</time>
      </trkpt>
      <trkpt lat="43.39265682734549045562744140625" lon="-5.88440523482859134674072265625">
        <ele>456.20001220703125</ele>
        <time>2019-02-15T16:25:34.000Z</time>
      </trkpt>
      <trkpt lat="43.39260988868772983551025390625" lon="-5.88438210077583789825439453125">
        <ele>455.79998779296875</ele>
        <time>2019-02-15T16:25:35.000Z</time>
      </trkpt>
      <trkpt lat="43.39255406521260738372802734375" lon="-5.88438226841390132904052734375">
        <ele>455</ele>
        <time>2019-02-15T16:25:36.000Z</time>
      </trkpt>
      <trkpt lat="43.392425738275051116943359375" lon="-5.88443272747099399566650390625">
        <ele>453.600006103515625</ele>
        <time>2019-02-15T16:25:38.000Z</time>
      </trkpt>
      <trkpt lat="43.392366059124469757080078125" lon="-5.88446415960788726806640625">
        <ele>452.399993896484375</ele>
        <time>2019-02-15T16:25:39.000Z</time>
      </trkpt>
      <trkpt lat="43.3923166058957576751708984375" lon="-5.8844991959631443023681640625">
        <ele>451.399993896484375</ele>
        <time>2019-02-15T16:25:40.000Z</time>
      </trkpt>
      <trkpt lat="43.39227830059826374053955078125" lon="-5.88454328477382659912109375">
        <ele>450.600006103515625</ele>
        <time>2019-02-15T16:25:41.000Z</time>
      </trkpt>
      <trkpt lat="43.392165564000606536865234375" lon="-5.8847962506115436553955078125">
        <ele>449.600006103515625</ele>
        <time>2019-02-15T16:25:45.000Z</time>
      </trkpt>
      <trkpt lat="43.39207914657890796661376953125" lon="-5.884909071028232574462890625">
        <ele>447.20001220703125</ele>
        <time>2019-02-15T16:25:47.000Z</time>
      </trkpt>
      <trkpt lat="43.39202717877924442291259765625" lon="-5.88495927862823009490966796875">
        <ele>445.20001220703125</ele>
        <time>2019-02-15T16:25:48.000Z</time>
      </trkpt>
      <trkpt lat="43.3919682539999485015869140625" lon="-5.88500705547630786895751953125">
        <ele>444.20001220703125</ele>
        <time>2019-02-15T16:25:49.000Z</time>
      </trkpt>
      <trkpt lat="43.39190371334552764892578125" lon="-5.88505550287663936614990234375">
        <ele>443.600006103515625</ele>
        <time>2019-02-15T16:25:50.000Z</time>
      </trkpt>
      <trkpt lat="43.3918381668627262115478515625" lon="-5.88510428555309772491455078125">
        <ele>443</ele>
        <time>2019-02-15T16:25:51.000Z</time>
      </trkpt>
      <trkpt lat="43.39171453379094600677490234375" lon="-5.88521760888397693634033203125">
        <ele>441.79998779296875</ele>
        <time>2019-02-15T16:25:53.000Z</time>
      </trkpt>
      <trkpt lat="43.39166424237191677093505859375" lon="-5.88529723696410655975341796875">
        <ele>441.20001220703125</ele>
        <time>2019-02-15T16:25:54.000Z</time>
      </trkpt>
      <trkpt lat="43.39162568561732769012451171875" lon="-5.8853870071470737457275390625">
        <ele>440.600006103515625</ele>
        <time>2019-02-15T16:25:55.000Z</time>
      </trkpt>
      <trkpt lat="43.39156902395188808441162109375" lon="-5.8855779469013214111328125">
        <ele>440</ele>
        <time>2019-02-15T16:25:57.000Z</time>
      </trkpt>
      <trkpt lat="43.39153784327208995819091796875" lon="-5.8856699801981449127197265625">
        <ele>440</ele>
        <time>2019-02-15T16:25:58.000Z</time>
      </trkpt>
      <trkpt lat="43.3914653398096561431884765625" lon="-5.885836780071258544921875">
        <ele>439.79998779296875</ele>
        <time>2019-02-15T16:26:00.000Z</time>
      </trkpt>
      <trkpt lat="43.39139199815690517425537109375" lon="-5.88597483001649379730224609375">
        <ele>439.600006103515625</ele>
        <time>2019-02-15T16:26:02.000Z</time>
      </trkpt>
      <trkpt lat="43.39135964401066303253173828125" lon="-5.88604406453669071197509765625">
        <ele>439.600006103515625</ele>
        <time>2019-02-15T16:26:03.000Z</time>
      </trkpt>
      <trkpt lat="43.39131974615156650543212890625" lon="-5.8862074278295040130615234375">
        <ele>439</ele>
        <time>2019-02-15T16:26:05.000Z</time>
      </trkpt>
      <trkpt lat="43.3913003839552402496337890625" lon="-5.88629543781280517578125">
        <ele>438</ele>
        <time>2019-02-15T16:26:06.000Z</time>
      </trkpt>
      <trkpt lat="43.3912420459091663360595703125" lon="-5.88646240532398223876953125">
        <ele>436.20001220703125</ele>
        <time>2019-02-15T16:26:08.000Z</time>
      </trkpt>
      <trkpt lat="43.39118898846209049224853515625" lon="-5.8866117708384990692138671875">
        <ele>434.20001220703125</ele>
        <time>2019-02-15T16:26:10.000Z</time>
      </trkpt>
      <trkpt lat="43.39116954244673252105712890625" lon="-5.88668561540544033050537109375">
        <ele>433.399993896484375</ele>
        <time>2019-02-15T16:26:11.000Z</time>
      </trkpt>
      <trkpt lat="43.39114875532686710357666015625" lon="-5.88676122017204761505126953125">
        <ele>432</ele>
        <time>2019-02-15T16:26:12.000Z</time>
      </trkpt>
      <trkpt lat="43.3911210112273693084716796875" lon="-5.88683146052062511444091796875">
        <ele>430.20001220703125</ele>
        <time>2019-02-15T16:26:13.000Z</time>
      </trkpt>
      <trkpt lat="43.3910888247191905975341796875" lon="-5.8868863619863986968994140625">
        <ele>429</ele>
        <time>2019-02-15T16:26:14.000Z</time>
      </trkpt>
      <trkpt lat="43.39105353690683841705322265625" lon="-5.8869292773306369781494140625">
        <ele>428.399993896484375</ele>
        <time>2019-02-15T16:26:15.000Z</time>
      </trkpt>
      <trkpt lat="43.39100928045809268951416015625" lon="-5.88696221821010112762451171875">
        <ele>427.79998779296875</ele>
        <time>2019-02-15T16:26:16.000Z</time>
      </trkpt>
      <trkpt lat="43.39088539592921733856201171875" lon="-5.88700127787888050079345703125">
        <ele>426</ele>
        <time>2019-02-15T16:26:18.000Z</time>
      </trkpt>
      <trkpt lat="43.39082169346511363983154296875" lon="-5.88701603002846240997314453125">
        <ele>424</ele>
        <time>2019-02-15T16:26:19.000Z</time>
      </trkpt>
      <trkpt lat="43.39076084084808826446533203125" lon="-5.8870248310267925262451171875">
        <ele>422.79998779296875</ele>
        <time>2019-02-15T16:26:20.000Z</time>
      </trkpt>
      <trkpt lat="43.3907019160687923431396484375" lon="-5.88702893815934658050537109375">
        <ele>421.79998779296875</ele>
        <time>2019-02-15T16:26:21.000Z</time>
      </trkpt>
      <trkpt lat="43.3906522952020168304443359375" lon="-5.8870318718254566192626953125">
        <ele>420.79998779296875</ele>
        <time>2019-02-15T16:26:22.000Z</time>
      </trkpt>
      <trkpt lat="43.39057962410151958465576171875" lon="-5.88702994398772716522216796875">
        <ele>419.399993896484375</ele>
        <time>2019-02-15T16:26:24.000Z</time>
      </trkpt>
      <trkpt lat="43.3905337750911712646484375" lon="-5.88702969253063201904296875">
        <ele>418.79998779296875</ele>
        <time>2019-02-15T16:26:26.000Z</time>
      </trkpt>
      <trkpt lat="43.39052765630185604095458984375" lon="-5.88702541776001453399658203125">
        <ele>418.600006103515625</ele>
        <time>2019-02-15T16:26:28.000Z</time>
      </trkpt>
      <trkpt lat="43.39047485031187534332275390625" lon="-5.887050814926624298095703125">
        <ele>418</ele>
        <time>2019-02-15T16:26:53.000Z</time>
      </trkpt>
      <trkpt lat="43.3904454298317432403564453125" lon="-5.88707990013062953948974609375">
        <ele>417.79998779296875</ele>
        <time>2019-02-15T16:26:55.000Z</time>
      </trkpt>
      <trkpt lat="43.390404023230075836181640625" lon="-5.88710772804915904998779296875">
        <ele>416.79998779296875</ele>
        <time>2019-02-15T16:26:57.000Z</time>
      </trkpt>
      <trkpt lat="43.39035616256296634674072265625" lon="-5.8871327899396419525146484375">
        <ele>415.600006103515625</ele>
        <time>2019-02-15T16:26:59.000Z</time>
      </trkpt>
      <trkpt lat="43.39033269323408603668212890625" lon="-5.88714527897536754608154296875">
        <ele>415.20001220703125</ele>
        <time>2019-02-15T16:27:00.000Z</time>
      </trkpt>
      <trkpt lat="43.3902992494404315948486328125" lon="-5.8871738612651824951171875">
        <ele>414.600006103515625</ele>
        <time>2019-02-15T16:27:02.000Z</time>
      </trkpt>
      <trkpt lat="43.39028223417699337005615234375" lon="-5.88719724677503108978271484375">
        <ele>414</ele>
        <time>2019-02-15T16:27:04.000Z</time>
      </trkpt>
      <trkpt lat="43.39028474874794483184814453125" lon="-5.88722054846584796905517578125">
        <ele>413.20001220703125</ele>
        <time>2019-02-15T16:27:07.000Z</time>
      </trkpt>
      <trkpt lat="43.3902896940708160400390625" lon="-5.88723295368254184722900390625">
        <ele>413</ele>
        <time>2019-02-15T16:27:08.000Z</time>
      </trkpt>
      <trkpt lat="43.39029598049819469451904296875" lon="-5.8872541598975658416748046875">
        <ele>412.600006103515625</ele>
        <time>2019-02-15T16:27:09.000Z</time>
      </trkpt>
      <trkpt lat="43.39031358249485492706298828125" lon="-5.887302942574024200439453125">
        <ele>412.20001220703125</ele>
        <time>2019-02-15T16:27:11.000Z</time>
      </trkpt>
      <trkpt lat="43.3903257362544536590576171875" lon="-5.88731878437101840972900390625">
        <ele>411.79998779296875</ele>
        <time>2019-02-15T16:27:12.000Z</time>
      </trkpt>
      <trkpt lat="43.39035683311522006988525390625" lon="-5.88734828867018222808837890625">
        <ele>411.20001220703125</ele>
        <time>2019-02-15T16:27:14.000Z</time>
      </trkpt>
      <trkpt lat="43.39037544094026088714599609375" lon="-5.88736622594296932220458984375">
        <ele>410.600006103515625</ele>
        <time>2019-02-15T16:27:15.000Z</time>
      </trkpt>
      <trkpt lat="43.39040008373558521270751953125" lon="-5.8873869292438030242919921875">
        <ele>409</ele>
        <time>2019-02-15T16:27:17.000Z</time>
      </trkpt>
      <trkpt lat="43.3904068730771541595458984375" lon="-5.8873882703483104705810546875">
        <ele>408.600006103515625</ele>
        <time>2019-02-15T16:27:18.000Z</time>
      </trkpt>
      <trkpt lat="43.3904491178691387176513671875" lon="-5.88739908300340175628662109375">
        <ele>407.79998779296875</ele>
        <time>2019-02-15T16:27:23.000Z</time>
      </trkpt>
      <trkpt lat="43.39048205874860286712646484375" lon="-5.88740914128720760345458984375">
        <ele>407.600006103515625</ele>
        <time>2019-02-15T16:27:25.000Z</time>
      </trkpt>
      <trkpt lat="43.3905634470283985137939453125" lon="-5.8874425850808620452880859375">
        <ele>406.600006103515625</ele>
        <time>2019-02-15T16:27:29.000Z</time>
      </trkpt>
      <trkpt lat="43.39062890969216823577880859375" lon="-5.887484662234783172607421875">
        <ele>405.20001220703125</ele>
        <time>2019-02-15T16:27:32.000Z</time>
      </trkpt>
      <trkpt lat="43.3906657062470912933349609375" lon="-5.88753034360706806182861328125">
        <ele>404.399993896484375</ele>
        <time>2019-02-15T16:27:34.000Z</time>
      </trkpt>
      <trkpt lat="43.39068087749183177947998046875" lon="-5.88755649514496326446533203125">
        <ele>404.20001220703125</ele>
        <time>2019-02-15T16:27:35.000Z</time>
      </trkpt>
      <trkpt lat="43.390738964080810546875" lon="-5.88764601387083530426025390625">
        <ele>402.79998779296875</ele>
        <time>2019-02-15T16:27:39.000Z</time>
      </trkpt>
      <trkpt lat="43.3907510340213775634765625" lon="-5.88766344822943210601806640625">
        <ele>402.79998779296875</ele>
        <time>2019-02-15T16:27:40.000Z</time>
      </trkpt>
      <trkpt lat="43.3907622657716274261474609375" lon="-5.8876735903322696685791015625">
        <ele>402.600006103515625</ele>
        <time>2019-02-15T16:27:41.000Z</time>
      </trkpt>
      <trkpt lat="43.39082420803606510162353515625" lon="-5.88772480376064777374267578125">
        <ele>402.20001220703125</ele>
        <time>2019-02-15T16:27:44.000Z</time>
      </trkpt>
      <trkpt lat="43.3908444084227085113525390625" lon="-5.88773922063410282135009765625">
        <ele>401.600006103515625</ele>
        <time>2019-02-15T16:27:45.000Z</time>
      </trkpt>
      <trkpt lat="43.3908611722290515899658203125" lon="-5.8877510391175746917724609375">
        <ele>400.399993896484375</ele>
        <time>2019-02-15T16:27:47.000Z</time>
      </trkpt>
      <trkpt lat="43.3908621780574321746826171875" lon="-5.88775950483977794647216796875">
        <ele>400.399993896484375</ele>
        <time>2019-02-15T16:27:48.000Z</time>
      </trkpt>
      <trkpt lat="43.39092671871185302734375" lon="-5.88781960308551788330078125">
        <ele>399.399993896484375</ele>
        <time>2019-02-15T16:27:55.000Z</time>
      </trkpt>
      <trkpt lat="43.3909537084400653839111328125" lon="-5.887834019958972930908203125">
        <ele>399.399993896484375</ele>
        <time>2019-02-15T16:27:56.000Z</time>
      </trkpt>
      <trkpt lat="43.39105236344039440155029296875" lon="-5.8878978900611400604248046875">
        <ele>398.399993896484375</ele>
        <time>2019-02-15T16:28:00.000Z</time>
      </trkpt>
      <trkpt lat="43.39115596376359462738037109375" lon="-5.88798279874026775360107421875">
        <ele>397.20001220703125</ele>
        <time>2019-02-15T16:28:03.000Z</time>
      </trkpt>
      <trkpt lat="43.39123257435858249664306640625" lon="-5.88802621699869632720947265625">
        <ele>396.20001220703125</ele>
        <time>2019-02-15T16:28:05.000Z</time>
      </trkpt>
      <trkpt lat="43.3913027308881282806396484375" lon="-5.8880702219903469085693359375">
        <ele>395.600006103515625</ele>
        <time>2019-02-15T16:28:08.000Z</time>
      </trkpt>
      <trkpt lat="43.39141010306775569915771484375" lon="-5.8880957029759883880615234375">
        <ele>395</ele>
        <time>2019-02-15T16:28:11.000Z</time>
      </trkpt>
      <trkpt lat="43.391496352851390838623046875" lon="-5.88811389170587062835693359375">
        <ele>393.600006103515625</ele>
        <time>2019-02-15T16:28:13.000Z</time>
      </trkpt>
      <trkpt lat="43.3915618993341922760009765625" lon="-5.88814406655728816986083984375">
        <ele>392.20001220703125</ele>
        <time>2019-02-15T16:28:15.000Z</time>
      </trkpt>
      <trkpt lat="43.3916111849248409271240234375" lon="-5.88814406655728816986083984375">
        <ele>391.79998779296875</ele>
        <time>2019-02-15T16:28:17.000Z</time>
      </trkpt>
      <trkpt lat="43.3916938304901123046875" lon="-5.8881356008350849151611328125">
        <ele>391.600006103515625</ele>
        <time>2019-02-15T16:28:21.000Z</time>
      </trkpt>
      <trkpt lat="43.3917714469134807586669921875" lon="-5.88813006877899169921875">
        <ele>390.600006103515625</ele>
        <time>2019-02-15T16:28:23.000Z</time>
      </trkpt>
      <trkpt lat="43.3918143622577190399169921875" lon="-5.88812529109418392181396484375">
        <ele>389.600006103515625</ele>
        <time>2019-02-15T16:28:24.000Z</time>
      </trkpt>
      <trkpt lat="43.3918589539825916290283203125" lon="-5.8881121315062046051025390625">
        <ele>389</ele>
        <time>2019-02-15T16:28:25.000Z</time>
      </trkpt>
      <trkpt lat="43.39193816296756267547607421875" lon="-5.8880688808858394622802734375">
        <ele>387.20001220703125</ele>
        <time>2019-02-15T16:28:27.000Z</time>
      </trkpt>
      <trkpt lat="43.39200253598392009735107421875" lon="-5.88799528777599334716796875">
        <ele>386.399993896484375</ele>
        <time>2019-02-15T16:28:29.000Z</time>
      </trkpt>
      <trkpt lat="43.3920296095311641693115234375" lon="-5.8879575692117214202880859375">
        <ele>386</ele>
        <time>2019-02-15T16:28:30.000Z</time>
      </trkpt>
      <trkpt lat="43.3920527435839176177978515625" lon="-5.88792194612324237823486328125">
        <ele>385.79998779296875</ele>
        <time>2019-02-15T16:28:31.000Z</time>
      </trkpt>
      <trkpt lat="43.392096497118473052978515625" lon="-5.88785723783075809478759765625">
        <ele>385.20001220703125</ele>
        <time>2019-02-15T16:28:33.000Z</time>
      </trkpt>
      <trkpt lat="43.392114602029323577880859375" lon="-5.887817926704883575439453125">
        <ele>384.79998779296875</ele>
        <time>2019-02-15T16:28:34.000Z</time>
      </trkpt>
      <trkpt lat="43.39215894229710102081298828125" lon="-5.88772195391356945037841796875">
        <ele>383.600006103515625</ele>
        <time>2019-02-15T16:28:36.000Z</time>
      </trkpt>
      <trkpt lat="43.392215184867382049560546875" lon="-5.88763528503477573394775390625">
        <ele>381.79998779296875</ele>
        <time>2019-02-15T16:28:38.000Z</time>
      </trkpt>
      <trkpt lat="43.3922482095658779144287109375" lon="-5.88759639300405979156494140625">
        <ele>381</ele>
        <time>2019-02-15T16:28:39.000Z</time>
      </trkpt>
      <trkpt lat="43.392286263406276702880859375" lon="-5.8875600993633270263671875">
        <ele>380.399993896484375</ele>
        <time>2019-02-15T16:28:40.000Z</time>
      </trkpt>
      <trkpt lat="43.39232641272246837615966796875" lon="-5.88752564974129199981689453125">
        <ele>379.79998779296875</ele>
        <time>2019-02-15T16:28:41.000Z</time>
      </trkpt>
      <trkpt lat="43.39235943742096424102783203125" lon="-5.8874844945967197418212890625">
        <ele>378.79998779296875</ele>
        <time>2019-02-15T16:28:42.000Z</time>
      </trkpt>
      <trkpt lat="43.392381481826305389404296875" lon="-5.8874340355396270751953125">
        <ele>377.399993896484375</ele>
        <time>2019-02-15T16:28:43.000Z</time>
      </trkpt>
      <trkpt lat="43.39239698834717273712158203125" lon="-5.88738131336867809295654296875">
        <ele>376.79998779296875</ele>
        <time>2019-02-15T16:28:44.000Z</time>
      </trkpt>
      <trkpt lat="43.39242674410343170166015625" lon="-5.88728575967252254486083984375">
        <ele>376</ele>
        <time>2019-02-15T16:28:46.000Z</time>
      </trkpt>
      <trkpt lat="43.3925025165081024169921875" lon="-5.8871894516050815582275390625">
        <ele>375.600006103515625</ele>
        <time>2019-02-15T16:28:49.000Z</time>
      </trkpt>
      <trkpt lat="43.39261491782963275909423828125" lon="-5.887177884578704833984375">
        <ele>375</ele>
        <time>2019-02-15T16:28:52.000Z</time>
      </trkpt>
      <trkpt lat="43.39265246875584125518798828125" lon="-5.8871817402541637420654296875">
        <ele>374.600006103515625</ele>
        <time>2019-02-15T16:28:53.000Z</time>
      </trkpt>
      <trkpt lat="43.3926924504339694976806640625" lon="-5.88719104416668415069580078125">
        <ele>373.79998779296875</ele>
        <time>2019-02-15T16:28:54.000Z</time>
      </trkpt>
      <trkpt lat="43.3927761018276214599609375" lon="-5.88721468113362789154052734375">
        <ele>372.600006103515625</ele>
        <time>2019-02-15T16:28:56.000Z</time>
      </trkpt>
      <trkpt lat="43.392818681895732879638671875" lon="-5.88722683489322662353515625">
        <ele>372.20001220703125</ele>
        <time>2019-02-15T16:28:57.000Z</time>
      </trkpt>
      <trkpt lat="43.3929073624312877655029296875" lon="-5.8872618712484836578369140625">
        <ele>371.20001220703125</ele>
        <time>2019-02-15T16:28:59.000Z</time>
      </trkpt>
      <trkpt lat="43.3929965458810329437255859375" lon="-5.8873000927269458770751953125">
        <ele>369.600006103515625</ele>
        <time>2019-02-15T16:29:01.000Z</time>
      </trkpt>
      <trkpt lat="43.393096961081027984619140625" lon="-5.8873570896685123443603515625">
        <ele>368.600006103515625</ele>
        <time>2019-02-15T16:29:04.000Z</time>
      </trkpt>
      <trkpt lat="43.3932020701467990875244140625" lon="-5.8874083869159221649169921875">
        <ele>367.20001220703125</ele>
        <time>2019-02-15T16:29:07.000Z</time>
      </trkpt>
      <trkpt lat="43.3932473324239253997802734375" lon="-5.88741517625749111175537109375">
        <ele>366</ele>
        <time>2019-02-15T16:29:08.000Z</time>
      </trkpt>
      <trkpt lat="43.39329033158719539642333984375" lon="-5.88741752319037914276123046875">
        <ele>365.399993896484375</ele>
        <time>2019-02-15T16:29:09.000Z</time>
      </trkpt>
      <trkpt lat="43.3933361805975437164306640625" lon="-5.8874160982668399810791015625">
        <ele>365</ele>
        <time>2019-02-15T16:29:10.000Z</time>
      </trkpt>
      <trkpt lat="43.3933844603598117828369140625" lon="-5.88740251958370208740234375">
        <ele>364.79998779296875</ele>
        <time>2019-02-15T16:29:11.000Z</time>
      </trkpt>
      <trkpt lat="43.3934317342936992645263671875" lon="-5.887373350560665130615234375">
        <ele>364.79998779296875</ele>
        <time>2019-02-15T16:29:12.000Z</time>
      </trkpt>
      <trkpt lat="43.39358143508434295654296875" lon="-5.8872719295322895050048828125">
        <ele>363.600006103515625</ele>
        <time>2019-02-15T16:29:15.000Z</time>
      </trkpt>
      <trkpt lat="43.39363298378884792327880859375" lon="-5.88724586181342601776123046875">
        <ele>363.20001220703125</ele>
        <time>2019-02-15T16:29:16.000Z</time>
      </trkpt>
      <trkpt lat="43.3936811797320842742919921875" lon="-5.88722507469356060028076171875">
        <ele>362.79998779296875</ele>
        <time>2019-02-15T16:29:17.000Z</time>
      </trkpt>
      <trkpt lat="43.39372417889535427093505859375" lon="-5.887214429676532745361328125">
        <ele>362.600006103515625</ele>
        <time>2019-02-15T16:29:18.000Z</time>
      </trkpt>
      <trkpt lat="43.3937864564359188079833984375" lon="-5.8872082270681858062744140625">
        <ele>362</ele>
        <time>2019-02-15T16:29:20.000Z</time>
      </trkpt>
      <trkpt lat="43.39383951388299465179443359375" lon="-5.887202359735965728759765625">
        <ele>361.600006103515625</ele>
        <time>2019-02-15T16:29:22.000Z</time>
      </trkpt>
      <trkpt lat="43.3939319662749767303466796875" lon="-5.88722641579806804656982421875">
        <ele>361.399993896484375</ele>
        <time>2019-02-15T16:29:24.000Z</time>
      </trkpt>
      <trkpt lat="43.39397965930402278900146484375" lon="-5.8872353844344615936279296875">
        <ele>360.600006103515625</ele>
        <time>2019-02-15T16:29:25.000Z</time>
      </trkpt>
      <trkpt lat="43.3940509893000125885009765625" lon="-5.887236893177032470703125">
        <ele>359</ele>
        <time>2019-02-15T16:29:27.000Z</time>
      </trkpt>
      <trkpt lat="43.394167162477970123291015625" lon="-5.88724770583212375640869140625">
        <ele>358</ele>
        <time>2019-02-15T16:29:30.000Z</time>
      </trkpt>
      <trkpt lat="43.39426296763122081756591796875" lon="-5.88725776411592960357666015625">
        <ele>357.79998779296875</ele>
        <time>2019-02-15T16:29:32.000Z</time>
      </trkpt>
      <trkpt lat="43.394449464976787567138671875" lon="-5.887239240109920501708984375">
        <ele>357</ele>
        <time>2019-02-15T16:29:36.000Z</time>
      </trkpt>
      <trkpt lat="43.39449430815875530242919921875" lon="-5.88722859509289264678955078125">
        <ele>356.399993896484375</ele>
        <time>2019-02-15T16:29:37.000Z</time>
      </trkpt>
      <trkpt lat="43.39457578025758266448974609375" lon="-5.88721183128654956817626953125">
        <ele>355.79998779296875</ele>
        <time>2019-02-15T16:29:39.000Z</time>
      </trkpt>
      <trkpt lat="43.3946159295737743377685546875" lon="-5.88720210827887058258056640625">
        <ele>355.399993896484375</ele>
        <time>2019-02-15T16:29:40.000Z</time>
      </trkpt>
      <trkpt lat="43.39469765312969684600830078125" lon="-5.88717293925583362579345703125">
        <ele>354.399993896484375</ele>
        <time>2019-02-15T16:29:42.000Z</time>
      </trkpt>
      <trkpt lat="43.39477443136274814605712890625" lon="-5.88712499476969242095947265625">
        <ele>352.600006103515625</ele>
        <time>2019-02-15T16:29:44.000Z</time>
      </trkpt>
      <trkpt lat="43.39484970085322856903076171875" lon="-5.88707126677036285400390625">
        <ele>351.20001220703125</ele>
        <time>2019-02-15T16:29:46.000Z</time>
      </trkpt>
      <trkpt lat="43.3948791213333606719970703125" lon="-5.88705073110759258270263671875">
        <ele>350.79998779296875</ele>
        <time>2019-02-15T16:29:47.000Z</time>
      </trkpt>
      <trkpt lat="43.3949170075356960296630859375" lon="-5.88703078217804431915283203125">
        <ele>350.20001220703125</ele>
        <time>2019-02-15T16:29:49.000Z</time>
      </trkpt>
      <trkpt lat="43.39492916129529476165771484375" lon="-5.88702575303614139556884765625">
        <ele>350</ele>
        <time>2019-02-15T16:29:50.000Z</time>
      </trkpt>
      <trkpt lat="43.394941650331020355224609375" lon="-5.88703363202512264251708984375">
        <ele>349.399993896484375</ele>
        <time>2019-02-15T16:29:51.000Z</time>
      </trkpt>
      <trkpt lat="43.39496503584086894989013671875" lon="-5.88706229813396930694580078125">
        <ele>348.79998779296875</ele>
        <time>2019-02-15T16:29:52.000Z</time>
      </trkpt>
      <trkpt lat="43.3950061909854412078857421875" lon="-5.88712063618004322052001953125">
        <ele>347.600006103515625</ele>
        <time>2019-02-15T16:29:54.000Z</time>
      </trkpt>
      <trkpt lat="43.3950326777994632720947265625" lon="-5.88714762590825557708740234375">
        <ele>346.399993896484375</ele>
        <time>2019-02-15T16:29:55.000Z</time>
      </trkpt>
      <trkpt lat="43.3950742520391941070556640625" lon="-5.88720738887786865234375">
        <ele>345</ele>
        <time>2019-02-15T16:29:57.000Z</time>
      </trkpt>
      <trkpt lat="43.395113982260227203369140625" lon="-5.8872427605092525482177734375">
        <ele>343.600006103515625</ele>
        <time>2019-02-15T16:29:59.000Z</time>
      </trkpt>
      <trkpt lat="43.395159579813480377197265625" lon="-5.88721401058137416839599609375">
        <ele>342.600006103515625</ele>
        <time>2019-02-15T16:30:01.000Z</time>
      </trkpt>
      <trkpt lat="43.395181037485599517822265625" lon="-5.88718257844448089599609375">
        <ele>342</ele>
        <time>2019-02-15T16:30:02.000Z</time>
      </trkpt>
      <trkpt lat="43.39521448127925395965576171875" lon="-5.8870667405426502227783203125">
        <ele>341.399993896484375</ele>
        <time>2019-02-15T16:30:05.000Z</time>
      </trkpt>
      <trkpt lat="43.3952222764492034912109375" lon="-5.88702960871160030364990234375">
        <ele>341</ele>
        <time>2019-02-15T16:30:06.000Z</time>
      </trkpt>
      <trkpt lat="43.395274579524993896484375" lon="-5.88687487877905368804931640625">
        <ele>339.399993896484375</ele>
        <time>2019-02-15T16:30:09.000Z</time>
      </trkpt>
      <trkpt lat="43.395306766033172607421875" lon="-5.88680949993431568145751953125">
        <ele>338.399993896484375</ele>
        <time>2019-02-15T16:30:10.000Z</time>
      </trkpt>
      <trkpt lat="43.395331911742687225341796875" lon="-5.88675082661211490631103515625">
        <ele>337.600006103515625</ele>
        <time>2019-02-15T16:30:11.000Z</time>
      </trkpt>
      <trkpt lat="43.39537918567657470703125" lon="-5.88664169423282146453857421875">
        <ele>336</ele>
        <time>2019-02-15T16:30:13.000Z</time>
      </trkpt>
      <trkpt lat="43.3954095281660556793212890625" lon="-5.8865909837186336517333984375">
        <ele>335.600006103515625</ele>
        <time>2019-02-15T16:30:14.000Z</time>
      </trkpt>
      <trkpt lat="43.3954447321593761444091796875" lon="-5.8865400217473506927490234375">
        <ele>335</ele>
        <time>2019-02-15T16:30:15.000Z</time>
      </trkpt>
      <trkpt lat="43.39554053731262683868408203125" lon="-5.88645863346755504608154296875">
        <ele>334.20001220703125</ele>
        <time>2019-02-15T16:30:17.000Z</time>
      </trkpt>
      <trkpt lat="43.39559376239776611328125" lon="-5.88641974143683910369873046875">
        <ele>333.399993896484375</ele>
        <time>2019-02-15T16:30:18.000Z</time>
      </trkpt>
      <trkpt lat="43.39568168856203556060791015625" lon="-5.88635645806789398193359375">
        <ele>332.600006103515625</ele>
        <time>2019-02-15T16:30:20.000Z</time>
      </trkpt>
      <trkpt lat="43.39572343043982982635498046875" lon="-5.8863261155784130096435546875">
        <ele>331.79998779296875</ele>
        <time>2019-02-15T16:30:21.000Z</time>
      </trkpt>
      <trkpt lat="43.395764417946338653564453125" lon="-5.8862986229360103607177734375">
        <ele>331.20001220703125</ele>
        <time>2019-02-15T16:30:22.000Z</time>
      </trkpt>
      <trkpt lat="43.39580071158707141876220703125" lon="-5.88627154938876628875732421875">
        <ele>330.79998779296875</ele>
        <time>2019-02-15T16:30:23.000Z</time>
      </trkpt>
      <trkpt lat="43.39587430469691753387451171875" lon="-5.886216647922992706298828125">
        <ele>330.20001220703125</ele>
        <time>2019-02-15T16:30:25.000Z</time>
      </trkpt>
      <trkpt lat="43.39591453783214092254638671875" lon="-5.88619544170796871185302734375">
        <ele>330</ele>
        <time>2019-02-15T16:30:26.000Z</time>
      </trkpt>
      <trkpt lat="43.39599148370325565338134765625" lon="-5.88614649139344692230224609375">
        <ele>328.600006103515625</ele>
        <time>2019-02-15T16:30:28.000Z</time>
      </trkpt>
      <trkpt lat="43.3960264362394809722900390625" lon="-5.8861189149320125579833984375">
        <ele>327.600006103515625</ele>
        <time>2019-02-15T16:30:29.000Z</time>
      </trkpt>
      <trkpt lat="43.39607899077236652374267578125" lon="-5.88609854690730571746826171875">
        <ele>326</ele>
        <time>2019-02-15T16:30:30.000Z</time>
      </trkpt>
      <trkpt lat="43.3961991034448146820068359375" lon="-5.8860622532665729522705078125">
        <ele>324.79998779296875</ele>
        <time>2019-02-15T16:30:32.000Z</time>
      </trkpt>
      <trkpt lat="43.39629909954965114593505859375" lon="-5.8860218524932861328125">
        <ele>323.20001220703125</ele>
        <time>2019-02-15T16:30:34.000Z</time>
      </trkpt>
      <trkpt lat="43.39635928161442279815673828125" lon="-5.8859972096979618072509765625">
        <ele>321.20001220703125</ele>
        <time>2019-02-15T16:30:35.000Z</time>
      </trkpt>
      <trkpt lat="43.39641560800373554229736328125" lon="-5.88596778921782970428466796875">
        <ele>320.399993896484375</ele>
        <time>2019-02-15T16:30:36.000Z</time>
      </trkpt>
      <trkpt lat="43.3964748680591583251953125" lon="-5.885937698185443878173828125">
        <ele>320</ele>
        <time>2019-02-15T16:30:37.000Z</time>
      </trkpt>
      <trkpt lat="43.39666086249053478240966796875" lon="-5.8858956210315227508544921875">
        <ele>319.399993896484375</ele>
        <time>2019-02-15T16:30:40.000Z</time>
      </trkpt>
      <trkpt lat="43.39671752415597438812255859375" lon="-5.8858758397400379180908203125">
        <ele>318.600006103515625</ele>
        <time>2019-02-15T16:30:41.000Z</time>
      </trkpt>
      <trkpt lat="43.39685062877833843231201171875" lon="-5.885853879153728485107421875">
        <ele>316.20001220703125</ele>
        <time>2019-02-15T16:30:43.000Z</time>
      </trkpt>
      <trkpt lat="43.39692053385078907012939453125" lon="-5.88585329242050647735595703125">
        <ele>315</ele>
        <time>2019-02-15T16:30:44.000Z</time>
      </trkpt>
      <trkpt lat="43.39698390103876590728759765625" lon="-5.88585429824888706207275390625">
        <ele>313.79998779296875</ele>
        <time>2019-02-15T16:30:45.000Z</time>
      </trkpt>
      <trkpt lat="43.397043831646442413330078125" lon="-5.885850526392459869384765625">
        <ele>313.20001220703125</ele>
        <time>2019-02-15T16:30:46.000Z</time>
      </trkpt>
      <trkpt lat="43.39710175059735774993896484375" lon="-5.8858394622802734375">
        <ele>312.79998779296875</ele>
        <time>2019-02-15T16:30:47.000Z</time>
      </trkpt>
      <trkpt lat="43.397154472768306732177734375" lon="-5.88581959716975688934326171875">
        <ele>312.399993896484375</ele>
        <time>2019-02-15T16:30:48.000Z</time>
      </trkpt>
      <trkpt lat="43.3972498588263988494873046875" lon="-5.88577567599713802337646484375">
        <ele>311.600006103515625</ele>
        <time>2019-02-15T16:30:50.000Z</time>
      </trkpt>
      <trkpt lat="43.39729604311287403106689453125" lon="-5.8857621811330318450927734375">
        <ele>310.20001220703125</ele>
        <time>2019-02-15T16:30:51.000Z</time>
      </trkpt>
      <trkpt lat="43.397381119430065155029296875" lon="-5.8857514522969722747802734375">
        <ele>308.399993896484375</ele>
        <time>2019-02-15T16:30:53.000Z</time>
      </trkpt>
      <trkpt lat="43.397419340908527374267578125" lon="-5.88574265129864215850830078125">
        <ele>307.399993896484375</ele>
        <time>2019-02-15T16:30:54.000Z</time>
      </trkpt>
      <trkpt lat="43.3974520303308963775634765625" lon="-5.8857286535203456878662109375">
        <ele>306.600006103515625</ele>
        <time>2019-02-15T16:30:55.000Z</time>
      </trkpt>
      <trkpt lat="43.39747709222137928009033203125" lon="-5.88571465574204921722412109375">
        <ele>305.79998779296875</ele>
        <time>2019-02-15T16:30:56.000Z</time>
      </trkpt>
      <trkpt lat="43.39749938808381557464599609375" lon="-5.88570023886859416961669921875">
        <ele>305</ele>
        <time>2019-02-15T16:30:57.000Z</time>
      </trkpt>
      <trkpt lat="43.39752285741269588470458984375" lon="-5.8856941200792789459228515625">
        <ele>304.20001220703125</ele>
        <time>2019-02-15T16:30:58.000Z</time>
      </trkpt>
      <trkpt lat="43.39756049215793609619140625" lon="-5.88572890497744083404541015625">
        <ele>304</ele>
        <time>2019-02-15T16:31:00.000Z</time>
      </trkpt>
      <trkpt lat="43.3975636772811412811279296875" lon="-5.8857430703938007354736328125">
        <ele>303.600006103515625</ele>
        <time>2019-02-15T16:31:01.000Z</time>
      </trkpt>
      <trkpt lat="43.397564180195331573486328125" lon="-5.88574893772602081298828125">
        <ele>303.399993896484375</ele>
        <time>2019-02-15T16:31:03.000Z</time>
      </trkpt>
      <trkpt lat="43.39755118824541568756103515625" lon="-5.88581155054271221160888671875">
        <ele>303.20001220703125</ele>
        <time>2019-02-15T16:32:54.000Z</time>
      </trkpt>
      <trkpt lat="43.39754037559032440185546875" lon="-5.88584817945957183837890625">
        <ele>302.79998779296875</ele>
        <time>2019-02-15T16:32:55.000Z</time>
      </trkpt>
      <trkpt lat="43.39751631952822208404541015625" lon="-5.88592487387359142303466796875">
        <ele>302.79998779296875</ele>
        <time>2019-02-15T16:32:57.000Z</time>
      </trkpt>
      <trkpt lat="43.397509865462779998779296875" lon="-5.8859579823911190032958984375">
        <ele>302.600006103515625</ele>
        <time>2019-02-15T16:32:58.000Z</time>
      </trkpt>
      <trkpt lat="43.39751221239566802978515625" lon="-5.88602386415004730224609375">
        <ele>302.20001220703125</ele>
        <time>2019-02-15T16:33:00.000Z</time>
      </trkpt>
      <trkpt lat="43.397541046142578125" lon="-5.88609485886991024017333984375">
        <ele>301.399993896484375</ele>
        <time>2019-02-15T16:33:03.000Z</time>
      </trkpt>
      <trkpt lat="43.39754381217062473297119140625" lon="-5.88610231876373291015625">
        <ele>301.20001220703125</ele>
        <time>2019-02-15T16:33:04.000Z</time>
      </trkpt>
      <trkpt lat="43.3975450694561004638671875" lon="-5.88610156439244747161865234375">
        <ele>301.399993896484375</ele>
        <time>2019-02-15T16:33:05.000Z</time>
      </trkpt>
      <trkpt lat="43.39758303947746753692626953125" lon="-5.8861417137086391448974609375">
        <ele>301.20001220703125</ele>
        <time>2019-02-15T16:33:16.000Z</time>
      </trkpt>
      <trkpt lat="43.3976223506033420562744140625" lon="-5.88618940673768520355224609375">
        <ele>301</ele>
        <time>2019-02-15T16:33:18.000Z</time>
      </trkpt>
      <trkpt lat="43.397670798003673553466796875" lon="-5.8862637542188167572021484375">
        <ele>300.399993896484375</ele>
        <time>2019-02-15T16:33:20.000Z</time>
      </trkpt>
      <trkpt lat="43.397698290646076202392578125" lon="-5.88630205951631069183349609375">
        <ele>300.20001220703125</ele>
        <time>2019-02-15T16:33:21.000Z</time>
      </trkpt>
      <trkpt lat="43.39778839610517024993896484375" lon="-5.886401049792766571044921875">
        <ele>299.399993896484375</ele>
        <time>2019-02-15T16:33:24.000Z</time>
      </trkpt>
      <trkpt lat="43.397849835455417633056640625" lon="-5.88644488714635372161865234375">
        <ele>299.20001220703125</ele>
        <time>2019-02-15T16:33:26.000Z</time>
      </trkpt>
      <trkpt lat="43.3979398570954799652099609375" lon="-5.8864806778728961944580078125">
        <ele>298.79998779296875</ele>
        <time>2019-02-15T16:33:29.000Z</time>
      </trkpt>
      <trkpt lat="43.39803784154355525970458984375" lon="-5.88651747442781925201416015625">
        <ele>297.79998779296875</ele>
        <time>2019-02-15T16:33:32.000Z</time>
      </trkpt>
      <trkpt lat="43.3980883844196796417236328125" lon="-5.886531807482242584228515625">
        <ele>297.399993896484375</ele>
        <time>2019-02-15T16:33:33.000Z</time>
      </trkpt>
      <trkpt lat="43.39814797975122928619384765625" lon="-5.8865435421466827392578125">
        <ele>296.399993896484375</ele>
        <time>2019-02-15T16:33:34.000Z</time>
      </trkpt>
      <trkpt lat="43.398213274776935577392578125" lon="-5.88654597289860248565673828125">
        <ele>295.600006103515625</ele>
        <time>2019-02-15T16:33:35.000Z</time>
      </trkpt>
      <trkpt lat="43.39828494004905223846435546875" lon="-5.8865349926054477691650390625">
        <ele>294.600006103515625</ele>
        <time>2019-02-15T16:33:36.000Z</time>
      </trkpt>
      <trkpt lat="43.39835920371115207672119140625" lon="-5.88651093654334545135498046875">
        <ele>293.600006103515625</ele>
        <time>2019-02-15T16:33:37.000Z</time>
      </trkpt>
      <trkpt lat="43.398431874811649322509765625" lon="-5.88647581636905670166015625">
        <ele>292.20001220703125</ele>
        <time>2019-02-15T16:33:38.000Z</time>
      </trkpt>
      <trkpt lat="43.3985044620931148529052734375" lon="-5.88643164373934268951416015625">
        <ele>290.399993896484375</ele>
        <time>2019-02-15T16:33:39.000Z</time>
      </trkpt>
      <trkpt lat="43.39857612736523151397705078125" lon="-5.8863824419677257537841796875">
        <ele>289.20001220703125</ele>
        <time>2019-02-15T16:33:40.000Z</time>
      </trkpt>
      <trkpt lat="43.39864636771380901336669921875" lon="-5.886331982910633087158203125">
        <ele>288.20001220703125</ele>
        <time>2019-02-15T16:33:41.000Z</time>
      </trkpt>
      <trkpt lat="43.3987130038440227508544921875" lon="-5.8862805180251598358154296875">
        <ele>287</ele>
        <time>2019-02-15T16:33:42.000Z</time>
      </trkpt>
      <trkpt lat="43.3987817354500293731689453125" lon="-5.88622746057808399200439453125">
        <ele>285.399993896484375</ele>
        <time>2019-02-15T16:33:43.000Z</time>
      </trkpt>
      <trkpt lat="43.39885122142732143402099609375" lon="-5.88617180474102497100830078125">
        <ele>284.399993896484375</ele>
        <time>2019-02-15T16:33:44.000Z</time>
      </trkpt>
      <trkpt lat="43.39891525916755199432373046875" lon="-5.88611464016139507293701171875">
        <ele>282.600006103515625</ele>
        <time>2019-02-15T16:33:45.000Z</time>
      </trkpt>
      <trkpt lat="43.398970328271389007568359375" lon="-5.8860568888485431671142578125">
        <ele>281.20001220703125</ele>
        <time>2019-02-15T16:33:46.000Z</time>
      </trkpt>
      <trkpt lat="43.39901802130043506622314453125" lon="-5.88599444366991519927978515625">
        <ele>280.399993896484375</ele>
        <time>2019-02-15T16:33:47.000Z</time>
      </trkpt>
      <trkpt lat="43.39905691333115100860595703125" lon="-5.885922610759735107421875">
        <ele>279.399993896484375</ele>
        <time>2019-02-15T16:33:48.000Z</time>
      </trkpt>
      <trkpt lat="43.399114497005939483642578125" lon="-5.8857608400285243988037109375">
        <ele>277.79998779296875</ele>
        <time>2019-02-15T16:33:50.000Z</time>
      </trkpt>
      <trkpt lat="43.39919353835284709930419921875" lon="-5.88560719974339008331298828125">
        <ele>275.600006103515625</ele>
        <time>2019-02-15T16:33:52.000Z</time>
      </trkpt>
      <trkpt lat="43.3992474339902400970458984375" lon="-5.8855402283370494842529296875">
        <ele>274.600006103515625</ele>
        <time>2019-02-15T16:33:53.000Z</time>
      </trkpt>
      <trkpt lat="43.39930535294115543365478515625" lon="-5.8854849077761173248291015625">
        <ele>273.600006103515625</ele>
        <time>2019-02-15T16:33:54.000Z</time>
      </trkpt>
      <trkpt lat="43.39936167933046817779541015625" lon="-5.8854403160512447357177734375">
        <ele>273</ele>
        <time>2019-02-15T16:33:55.000Z</time>
      </trkpt>
      <trkpt lat="43.39946662075817584991455078125" lon="-5.88536093942821025848388671875">
        <ele>271.20001220703125</ele>
        <time>2019-02-15T16:33:57.000Z</time>
      </trkpt>
      <trkpt lat="43.3995542116463184356689453125" lon="-5.8852777071297168731689453125">
        <ele>270.399993896484375</ele>
        <time>2019-02-15T16:33:59.000Z</time>
      </trkpt>
      <trkpt lat="43.39959469623863697052001953125" lon="-5.88524208404123783111572265625">
        <ele>269.600006103515625</ele>
        <time>2019-02-15T16:34:00.000Z</time>
      </trkpt>
      <trkpt lat="43.39963710866868495941162109375" lon="-5.88520981371402740478515625">
        <ele>268.600006103515625</ele>
        <time>2019-02-15T16:34:01.000Z</time>
      </trkpt>
      <trkpt lat="43.3996799401938915252685546875" lon="-5.88518056087195873260498046875">
        <ele>267</ele>
        <time>2019-02-15T16:34:02.000Z</time>
      </trkpt>
      <trkpt lat="43.39972101151943206787109375" lon="-5.88515759445726871490478515625">
        <ele>265.600006103515625</ele>
        <time>2019-02-15T16:34:03.000Z</time>
      </trkpt>
      <trkpt lat="43.39975981973111629486083984375" lon="-5.88513932190835475921630859375">
        <ele>264.600006103515625</ele>
        <time>2019-02-15T16:34:04.000Z</time>
      </trkpt>
      <trkpt lat="43.399827294051647186279296875" lon="-5.88511233218014240264892578125">
        <ele>262.79998779296875</ele>
        <time>2019-02-15T16:34:06.000Z</time>
      </trkpt>
      <trkpt lat="43.39987716637551784515380859375" lon="-5.885092131793498992919921875">
        <ele>261.399993896484375</ele>
        <time>2019-02-15T16:34:08.000Z</time>
      </trkpt>
      <trkpt lat="43.39990030042827129364013671875" lon="-5.8850809000432491302490234375">
        <ele>261</ele>
        <time>2019-02-15T16:34:09.000Z</time>
      </trkpt>
      <trkpt lat="43.39994992129504680633544921875" lon="-5.88506354950368404388427734375">
        <ele>260</ele>
        <time>2019-02-15T16:34:11.000Z</time>
      </trkpt>
      <trkpt lat="43.40007112361490726470947265625" lon="-5.8850638009607791900634765625">
        <ele>258.600006103515625</ele>
        <time>2019-02-15T16:34:15.000Z</time>
      </trkpt>
      <trkpt lat="43.4001124463975429534912109375" lon="-5.88507126085460186004638671875">
        <ele>258.20001220703125</ele>
        <time>2019-02-15T16:34:16.000Z</time>
      </trkpt>
      <trkpt lat="43.40019953437149524688720703125" lon="-5.8851030282676219940185546875">
        <ele>257.20001220703125</ele>
        <time>2019-02-15T16:34:18.000Z</time>
      </trkpt>
      <trkpt lat="43.4002867899835109710693359375" lon="-5.88515876792371273040771484375">
        <ele>256.399993896484375</ele>
        <time>2019-02-15T16:34:20.000Z</time>
      </trkpt>
      <trkpt lat="43.40032861568033695220947265625" lon="-5.88519237935543060302734375">
        <ele>256</ele>
        <time>2019-02-15T16:34:21.000Z</time>
      </trkpt>
      <trkpt lat="43.4004071541130542755126953125" lon="-5.88525650091469287872314453125">
        <ele>255.600006103515625</ele>
        <time>2019-02-15T16:34:23.000Z</time>
      </trkpt>
      <trkpt lat="43.40049524791538715362548828125" lon="-5.885315425693988800048828125">
        <ele>255.600006103515625</ele>
        <time>2019-02-15T16:34:25.000Z</time>
      </trkpt>
      <trkpt lat="43.40058644302189350128173828125" lon="-5.88537284173071384429931640625">
        <ele>255.399993896484375</ele>
        <time>2019-02-15T16:34:27.000Z</time>
      </trkpt>
      <trkpt lat="43.4007715992629528045654296875" lon="-5.8854885958135128021240234375">
        <ele>255</ele>
        <time>2019-02-15T16:34:31.000Z</time>
      </trkpt>
      <trkpt lat="43.4008694998919963836669921875" lon="-5.88553645648062229156494140625">
        <ele>255.1999969482421875</ele>
        <time>2019-02-15T16:34:33.000Z</time>
      </trkpt>
      <trkpt lat="43.4009194560348987579345703125" lon="-5.88555674068629741668701171875">
        <ele>255.1999969482421875</ele>
        <time>2019-02-15T16:34:34.000Z</time>
      </trkpt>
      <trkpt lat="43.40101861394941806793212890625" lon="-5.88558532297611236572265625">
        <ele>255.399993896484375</ele>
        <time>2019-02-15T16:34:36.000Z</time>
      </trkpt>
      <trkpt lat="43.40116764418780803680419921875" lon="-5.88558456860482692718505859375">
        <ele>255.8000030517578125</ele>
        <time>2019-02-15T16:34:39.000Z</time>
      </trkpt>
      <trkpt lat="43.40131080709397792816162109375" lon="-5.88555020280182361602783203125">
        <ele>255.8000030517578125</ele>
        <time>2019-02-15T16:34:42.000Z</time>
      </trkpt>
      <trkpt lat="43.40144910849630832672119140625" lon="-5.885503850877285003662109375">
        <ele>256.20001220703125</ele>
        <time>2019-02-15T16:34:45.000Z</time>
      </trkpt>
      <trkpt lat="43.4014954604208469390869140625" lon="-5.88549136184155941009521484375">
        <ele>256.20001220703125</ele>
        <time>2019-02-15T16:34:46.000Z</time>
      </trkpt>
      <trkpt lat="43.401629067957401275634765625" lon="-5.88547878898680210113525390625">
        <ele>256.79998779296875</ele>
        <time>2019-02-15T16:34:49.000Z</time>
      </trkpt>
      <trkpt lat="43.4016976319253444671630859375" lon="-5.88549035601317882537841796875">
        <ele>257</ele>
        <time>2019-02-15T16:34:51.000Z</time>
      </trkpt>
      <trkpt lat="43.40177566744387149810791015625" lon="-5.88552773930132389068603515625">
        <ele>257.20001220703125</ele>
        <time>2019-02-15T16:34:54.000Z</time>
      </trkpt>
      <trkpt lat="43.40183987282216548919677734375" lon="-5.88557065464556217193603515625">
        <ele>257.20001220703125</ele>
        <time>2019-02-15T16:34:56.000Z</time>
      </trkpt>
      <trkpt lat="43.40192377567291259765625" lon="-5.88563117198646068572998046875">
        <ele>257.20001220703125</ele>
        <time>2019-02-15T16:34:58.000Z</time>
      </trkpt>
      <trkpt lat="43.40202460996806621551513671875" lon="-5.88565581478178501129150390625">
        <ele>256.79998779296875</ele>
        <time>2019-02-15T16:35:00.000Z</time>
      </trkpt>
      <trkpt lat="43.40212921611964702606201171875" lon="-5.8856153301894664764404296875">
        <ele>256</ele>
        <time>2019-02-15T16:35:02.000Z</time>
      </trkpt>
      <trkpt lat="43.4021807648241519927978515625" lon="-5.88558926247060298919677734375">
        <ele>255.8000030517578125</ele>
        <time>2019-02-15T16:35:03.000Z</time>
      </trkpt>
      <trkpt lat="43.4022297151386737823486328125" lon="-5.8855596743524074554443359375">
        <ele>255.600006103515625</ele>
        <time>2019-02-15T16:35:04.000Z</time>
      </trkpt>
      <trkpt lat="43.40231336653232574462890625" lon="-5.88547744788229465484619140625">
        <ele>255.399993896484375</ele>
        <time>2019-02-15T16:35:06.000Z</time>
      </trkpt>
      <trkpt lat="43.40234957635402679443359375" lon="-5.88543780148029327392578125">
        <ele>255.399993896484375</ele>
        <time>2019-02-15T16:35:07.000Z</time>
      </trkpt>
      <trkpt lat="43.40238335542380809783935546875" lon="-5.88539781980216503143310546875">
        <ele>255.399993896484375</ele>
        <time>2019-02-15T16:35:08.000Z</time>
      </trkpt>
      <trkpt lat="43.40241520665585994720458984375" lon="-5.885354988276958465576171875">
        <ele>255.600006103515625</ele>
        <time>2019-02-15T16:35:09.000Z</time>
      </trkpt>
      <trkpt lat="43.40244957245886325836181640625" lon="-5.8853152580559253692626953125">
        <ele>256</ele>
        <time>2019-02-15T16:35:10.000Z</time>
      </trkpt>
      <trkpt lat="43.40255476534366607666015625" lon="-5.8852166868746280670166015625">
        <ele>256.399993896484375</ele>
        <time>2019-02-15T16:35:13.000Z</time>
      </trkpt>
      <trkpt lat="43.40272600762546062469482421875" lon="-5.8850805647671222686767578125">
        <ele>256.79998779296875</ele>
        <time>2019-02-15T16:35:19.000Z</time>
      </trkpt>
      <trkpt lat="43.40274662710726261138916015625" lon="-5.885072685778141021728515625">
        <ele>257.20001220703125</ele>
        <time>2019-02-15T16:35:22.000Z</time>
      </trkpt>
      <trkpt lat="43.40277797542512416839599609375" lon="-5.88506740517914295196533203125">
        <ele>257.399993896484375</ele>
        <time>2019-02-15T16:35:27.000Z</time>
      </trkpt>
      <trkpt lat="43.40279608033597469329833984375" lon="-5.88506740517914295196533203125">
        <ele>257.399993896484375</ele>
        <time>2019-02-15T16:35:28.000Z</time>
      </trkpt>
      <trkpt lat="43.402844108641147613525390625" lon="-5.88507779873907566070556640625">
        <ele>257.399993896484375</ele>
        <time>2019-02-15T16:35:30.000Z</time>
      </trkpt>
      <trkpt lat="43.4029039554297924041748046875" lon="-5.88508416898548603057861328125">
        <ele>256.79998779296875</ele>
        <time>2019-02-15T16:35:32.000Z</time>
      </trkpt>
      <trkpt lat="43.403094895184040069580078125" lon="-5.885004289448261260986328125">
        <ele>256.600006103515625</ele>
        <time>2019-02-15T16:35:37.000Z</time>
      </trkpt>
      <trkpt lat="43.4031336195766925811767578125" lon="-5.88498710654675960540771484375">
        <ele>256.600006103515625</ele>
        <time>2019-02-15T16:35:38.000Z</time>
      </trkpt>
      <trkpt lat="43.4033086337149143218994140625" lon="-5.8849189616739749908447265625">
        <ele>256</ele>
        <time>2019-02-15T16:35:42.000Z</time>
      </trkpt>
      <trkpt lat="43.40338465757668018341064453125" lon="-5.884888954460620880126953125">
        <ele>255.1999969482421875</ele>
        <time>2019-02-15T16:35:44.000Z</time>
      </trkpt>
      <trkpt lat="43.403422124683856964111328125" lon="-5.884875543415546417236328125">
        <ele>254.600006103515625</ele>
        <time>2019-02-15T16:35:45.000Z</time>
      </trkpt>
      <trkpt lat="43.40345942415297031402587890625" lon="-5.884859450161457061767578125">
        <ele>254</ele>
        <time>2019-02-15T16:35:46.000Z</time>
      </trkpt>
      <trkpt lat="43.4034933708608150482177734375" lon="-5.8848425187170505523681640625">
        <ele>253.399993896484375</ele>
        <time>2019-02-15T16:35:47.000Z</time>
      </trkpt>
      <trkpt lat="43.403566963970661163330078125" lon="-5.8848170377314090728759765625">
        <ele>252</ele>
        <time>2019-02-15T16:35:49.000Z</time>
      </trkpt>
      <trkpt lat="43.40364198200404644012451171875" lon="-5.8848009444773197174072265625">
        <ele>250.600006103515625</ele>
        <time>2019-02-15T16:35:51.000Z</time>
      </trkpt>
      <trkpt lat="43.40367500670254230499267578125" lon="-5.88479214347898960113525390625">
        <ele>250</ele>
        <time>2019-02-15T16:35:52.000Z</time>
      </trkpt>
      <trkpt lat="43.40370819903910160064697265625" lon="-5.88478761725127696990966796875">
        <ele>249</ele>
        <time>2019-02-15T16:35:53.000Z</time>
      </trkpt>
      <trkpt lat="43.4037418104708194732666015625" lon="-5.884783007204532623291015625">
        <ele>247.600006103515625</ele>
        <time>2019-02-15T16:35:54.000Z</time>
      </trkpt>
      <trkpt lat="43.40379637666046619415283203125" lon="-5.88475358672440052032470703125">
        <ele>246</ele>
        <time>2019-02-15T16:35:56.000Z</time>
      </trkpt>
      <trkpt lat="43.4038269706070423126220703125" lon="-5.88472592644393444061279296875">
        <ele>245.8000030517578125</ele>
        <time>2019-02-15T16:35:57.000Z</time>
      </trkpt>
      <trkpt lat="43.40388522483408451080322265625" lon="-5.88468334637582302093505859375">
        <ele>245.1999969482421875</ele>
        <time>2019-02-15T16:35:59.000Z</time>
      </trkpt>
      <trkpt lat="43.40394146740436553955078125" lon="-5.8846366591751575469970703125">
        <ele>243.600006103515625</ele>
        <time>2019-02-15T16:36:01.000Z</time>
      </trkpt>
      <trkpt lat="43.40396535582840442657470703125" lon="-5.8845994435250759124755859375">
        <ele>243</ele>
        <time>2019-02-15T16:36:02.000Z</time>
      </trkpt>
      <trkpt lat="43.40399100445210933685302734375" lon="-5.88455325923860073089599609375">
        <ele>241.8000030517578125</ele>
        <time>2019-02-15T16:36:03.000Z</time>
      </trkpt>
      <trkpt lat="43.4040452353656291961669921875" lon="-5.88447815738618373870849609375">
        <ele>240.1999969482421875</ele>
        <time>2019-02-15T16:36:05.000Z</time>
      </trkpt>
      <trkpt lat="43.4040777571499347686767578125" lon="-5.8844639919698238372802734375">
        <ele>239.600006103515625</ele>
        <time>2019-02-15T16:36:06.000Z</time>
      </trkpt>
      <trkpt lat="43.4041119553148746490478515625" lon="-5.8844487369060516357421875">
        <ele>239</ele>
        <time>2019-02-15T16:36:07.000Z</time>
      </trkpt>
      <trkpt lat="43.4041659347712993621826171875" lon="-5.884390734136104583740234375">
        <ele>237.8000030517578125</ele>
        <time>2019-02-15T16:36:09.000Z</time>
      </trkpt>
      <trkpt lat="43.4041781723499298095703125" lon="-5.88434387929737567901611328125">
        <ele>237.1999969482421875</ele>
        <time>2019-02-15T16:36:10.000Z</time>
      </trkpt>
      <trkpt lat="43.40418362058699131011962890625" lon="-5.88428973220288753509521484375">
        <ele>236</ele>
        <time>2019-02-15T16:36:11.000Z</time>
      </trkpt>
      <trkpt lat="43.40418110601603984832763671875" lon="-5.88419568724930286407470703125">
        <ele>234.1999969482421875</ele>
        <time>2019-02-15T16:36:13.000Z</time>
      </trkpt>
      <trkpt lat="43.40417976491153240203857421875" lon="-5.8841578848659992218017578125">
        <ele>233.8000030517578125</ele>
        <time>2019-02-15T16:36:14.000Z</time>
      </trkpt>
      <trkpt lat="43.40417708270251750946044921875" lon="-5.884113796055316925048828125">
        <ele>232.8000030517578125</ele>
        <time>2019-02-15T16:36:15.000Z</time>
      </trkpt>
      <trkpt lat="43.40417481958866119384765625" lon="-5.8840599842369556427001953125">
        <ele>231.1999969482421875</ele>
        <time>2019-02-15T16:36:16.000Z</time>
      </trkpt>
      <trkpt lat="43.40417725034058094024658203125" lon="-5.884003154933452606201171875">
        <ele>230</ele>
        <time>2019-02-15T16:36:17.000Z</time>
      </trkpt>
      <trkpt lat="43.4041821956634521484375" lon="-5.88394607417285442352294921875">
        <ele>229.1999969482421875</ele>
        <time>2019-02-15T16:36:18.000Z</time>
      </trkpt>
      <trkpt lat="43.40418797917664051055908203125" lon="-5.88388622738420963287353515625">
        <ele>228</ele>
        <time>2019-02-15T16:36:19.000Z</time>
      </trkpt>
      <trkpt lat="43.40420105494558811187744140625" lon="-5.883824788033962249755859375">
        <ele>226.399993896484375</ele>
        <time>2019-02-15T16:36:20.000Z</time>
      </trkpt>
      <trkpt lat="43.404206335544586181640625" lon="-5.88376653380692005157470703125">
        <ele>224.8000030517578125</ele>
        <time>2019-02-15T16:36:21.000Z</time>
      </trkpt>
      <trkpt lat="43.40421278961002826690673828125" lon="-5.88371071033179759979248046875">
        <ele>223.8000030517578125</ele>
        <time>2019-02-15T16:36:22.000Z</time>
      </trkpt>
      <trkpt lat="43.4042306430637836456298828125" lon="-5.88360317051410675048828125">
        <ele>222</ele>
        <time>2019-02-15T16:36:24.000Z</time>
      </trkpt>
      <trkpt lat="43.40423743240535259246826171875" lon="-5.8835520409047603607177734375">
        <ele>221.1999969482421875</ele>
        <time>2019-02-15T16:36:25.000Z</time>
      </trkpt>
      <trkpt lat="43.404238522052764892578125" lon="-5.8834688924252986907958984375">
        <ele>218.8000030517578125</ele>
        <time>2019-02-15T16:36:27.000Z</time>
      </trkpt>
      <trkpt lat="43.4042423777282238006591796875" lon="-5.8833924494683742523193359375">
        <ele>217</ele>
        <time>2019-02-15T16:36:29.000Z</time>
      </trkpt>
      <trkpt lat="43.40424195863306522369384765625" lon="-5.8833535574376583099365234375">
        <ele>215.600006103515625</ele>
        <time>2019-02-15T16:36:30.000Z</time>
      </trkpt>
      <trkpt lat="43.40424028225243091583251953125" lon="-5.8833168447017669677734375">
        <ele>214.600006103515625</ele>
        <time>2019-02-15T16:36:31.000Z</time>
      </trkpt>
      <trkpt lat="43.40424028225243091583251953125" lon="-5.883281640708446502685546875">
        <ele>213.8000030517578125</ele>
        <time>2019-02-15T16:36:32.000Z</time>
      </trkpt>
      <trkpt lat="43.40423516929149627685546875" lon="-5.88324316777288913726806640625">
        <ele>212.600006103515625</ele>
        <time>2019-02-15T16:36:33.000Z</time>
      </trkpt>
      <trkpt lat="43.4042356722056865692138671875" lon="-5.88321198709309101104736328125">
        <ele>211.399993896484375</ele>
        <time>2019-02-15T16:36:34.000Z</time>
      </trkpt>
      <trkpt lat="43.40423340909183025360107421875" lon="-5.883177034556865692138671875">
        <ele>210.399993896484375</ele>
        <time>2019-02-15T16:36:35.000Z</time>
      </trkpt>
      <trkpt lat="43.40422988869249820709228515625" lon="-5.8831014297902584075927734375">
        <ele>208.600006103515625</ele>
        <time>2019-02-15T16:36:37.000Z</time>
      </trkpt>
      <trkpt lat="43.40422837994992733001708984375" lon="-5.88304887525737285614013671875">
        <ele>207.8000030517578125</ele>
        <time>2019-02-15T16:36:38.000Z</time>
      </trkpt>
      <trkpt lat="43.40422980487346649169921875" lon="-5.88301576673984527587890625">
        <ele>207.1999969482421875</ele>
        <time>2019-02-15T16:36:39.000Z</time>
      </trkpt>
      <trkpt lat="43.4042433835566043853759765625" lon="-5.88295809924602508544921875">
        <ele>205.399993896484375</ele>
        <time>2019-02-15T16:36:41.000Z</time>
      </trkpt>
      <trkpt lat="43.40426241047680377960205078125" lon="-5.88292918168008327484130859375">
        <ele>204.600006103515625</ele>
        <time>2019-02-15T16:36:42.000Z</time>
      </trkpt>
      <trkpt lat="43.40427934192121028900146484375" lon="-5.8829056285321712493896484375">
        <ele>204</ele>
        <time>2019-02-15T16:36:43.000Z</time>
      </trkpt>
      <trkpt lat="43.40432711876928806304931640625" lon="-5.882847793400287628173828125">
        <ele>202.399993896484375</ele>
        <time>2019-02-15T16:36:46.000Z</time>
      </trkpt>
      <trkpt lat="43.40436584316194057464599609375" lon="-5.88285475037992000579833984375">
        <ele>199.8000030517578125</ele>
        <time>2019-02-15T16:36:48.000Z</time>
      </trkpt>
      <trkpt lat="43.40439132414758205413818359375" lon="-5.88285860605537891387939453125">
        <ele>198.600006103515625</ele>
        <time>2019-02-15T16:36:49.000Z</time>
      </trkpt>
      <trkpt lat="43.40443943627178668975830078125" lon="-5.8828710950911045074462890625">
        <ele>197.1999969482421875</ele>
        <time>2019-02-15T16:36:51.000Z</time>
      </trkpt>
      <trkpt lat="43.404452763497829437255859375" lon="-5.882865227758884429931640625">
        <ele>196</ele>
        <time>2019-02-15T16:36:52.000Z</time>
      </trkpt>
      <trkpt lat="43.404466845095157623291015625" lon="-5.8828513137996196746826171875">
        <ele>195</ele>
        <time>2019-02-15T16:36:53.000Z</time>
      </trkpt>
      <trkpt lat="43.404486961662769317626953125" lon="-5.8828099071979522705078125">
        <ele>193.600006103515625</ele>
        <time>2019-02-15T16:36:55.000Z</time>
      </trkpt>
      <trkpt lat="43.40449140407145023345947265625" lon="-5.8827765472233295440673828125">
        <ele>193.399993896484375</ele>
        <time>2019-02-15T16:36:56.000Z</time>
      </trkpt>
      <trkpt lat="43.40448754839599132537841796875" lon="-5.88272633962333202362060546875">
        <ele>193.1999969482421875</ele>
        <time>2019-02-15T16:36:57.000Z</time>
      </trkpt>
      <trkpt lat="43.40447916649281978607177734375" lon="-5.8826597034931182861328125">
        <ele>192.600006103515625</ele>
        <time>2019-02-15T16:36:58.000Z</time>
      </trkpt>
      <trkpt lat="43.40447388589382171630859375" lon="-5.88258485309779644012451171875">
        <ele>191.399993896484375</ele>
        <time>2019-02-15T16:36:59.000Z</time>
      </trkpt>
      <trkpt lat="43.4044686891138553619384765625" lon="-5.8825056441128253936767578125">
        <ele>189.600006103515625</ele>
        <time>2019-02-15T16:37:00.000Z</time>
      </trkpt>
      <trkpt lat="43.4044651687145233154296875" lon="-5.8824332244694232940673828125">
        <ele>188.600006103515625</ele>
        <time>2019-02-15T16:37:01.000Z</time>
      </trkpt>
      <trkpt lat="43.404442369937896728515625" lon="-5.88230925612151622772216796875">
        <ele>187</ele>
        <time>2019-02-15T16:37:03.000Z</time>
      </trkpt>
      <trkpt lat="43.404427953064441680908203125" lon="-5.88226315565407276153564453125">
        <ele>186.399993896484375</ele>
        <time>2019-02-15T16:37:04.000Z</time>
      </trkpt>
      <trkpt lat="43.4044120274484157562255859375" lon="-5.88218872435390949249267578125">
        <ele>185.8000030517578125</ele>
        <time>2019-02-15T16:37:06.000Z</time>
      </trkpt>
      <trkpt lat="43.404409848153591156005859375" lon="-5.88215217925608158111572265625">
        <ele>185</ele>
        <time>2019-02-15T16:37:07.000Z</time>
      </trkpt>
      <trkpt lat="43.40441730804741382598876953125" lon="-5.8821178972721099853515625">
        <ele>184.1999969482421875</ele>
        <time>2019-02-15T16:37:08.000Z</time>
      </trkpt>
      <trkpt lat="43.404442034661769866943359375" lon="-5.88207975961267948150634765625">
        <ele>183.1999969482421875</ele>
        <time>2019-02-15T16:37:10.000Z</time>
      </trkpt>
      <trkpt lat="43.40448201633989810943603515625" lon="-5.88206467218697071075439453125">
        <ele>182.399993896484375</ele>
        <time>2019-02-15T16:37:12.000Z</time>
      </trkpt>
      <trkpt lat="43.40450699441134929656982421875" lon="-5.88205712847411632537841796875">
        <ele>181.8000030517578125</ele>
        <time>2019-02-15T16:37:13.000Z</time>
      </trkpt>
      <trkpt lat="43.40455326251685619354248046875" lon="-5.88204807601869106292724609375">
        <ele>179.1999969482421875</ele>
        <time>2019-02-15T16:37:15.000Z</time>
      </trkpt>
      <trkpt lat="43.4045696072280406951904296875" lon="-5.882044471800327301025390625">
        <ele>177.8000030517578125</ele>
        <time>2019-02-15T16:37:16.000Z</time>
      </trkpt>
      <trkpt lat="43.4045939147472381591796875" lon="-5.88204807601869106292724609375">
        <ele>176.399993896484375</ele>
        <time>2019-02-15T16:37:17.000Z</time>
      </trkpt>
      <trkpt lat="43.40462006628513336181640625" lon="-5.88205754756927490234375">
        <ele>175</ele>
        <time>2019-02-15T16:37:18.000Z</time>
      </trkpt>
      <trkpt lat="43.40467463247478008270263671875" lon="-5.88207858614623546600341796875">
        <ele>173.1999969482421875</ele>
        <time>2019-02-15T16:37:20.000Z</time>
      </trkpt>
      <trkpt lat="43.40474001131951808929443359375" lon="-5.88210809044539928436279296875">
        <ele>172</ele>
        <time>2019-02-15T16:37:22.000Z</time>
      </trkpt>
      <trkpt lat="43.404772616922855377197265625" lon="-5.88212451897561550140380859375">
        <ele>170.1999969482421875</ele>
        <time>2019-02-15T16:37:23.000Z</time>
      </trkpt>
      <trkpt lat="43.4048272669315338134765625" lon="-5.88216408155858516693115234375">
        <ele>168.8000030517578125</ele>
        <time>2019-02-15T16:37:25.000Z</time>
      </trkpt>
      <trkpt lat="43.4048814140260219573974609375" lon="-5.88218403048813343048095703125">
        <ele>167.1999969482421875</ele>
        <time>2019-02-15T16:37:27.000Z</time>
      </trkpt>
      <trkpt lat="43.40496632270514965057373046875" lon="-5.88219811208546161651611328125">
        <ele>165.8000030517578125</ele>
        <time>2019-02-15T16:37:29.000Z</time>
      </trkpt>
      <trkpt lat="43.4050534106791019439697265625" lon="-5.8822023868560791015625">
        <ele>164.1999969482421875</ele>
        <time>2019-02-15T16:37:31.000Z</time>
      </trkpt>
      <trkpt lat="43.4051171131432056427001953125" lon="-5.8821663446724414825439453125">
        <ele>162.600006103515625</ele>
        <time>2019-02-15T16:37:33.000Z</time>
      </trkpt>
      <trkpt lat="43.4051372297108173370361328125" lon="-5.88213306851685047149658203125">
        <ele>162</ele>
        <time>2019-02-15T16:37:34.000Z</time>
      </trkpt>
      <trkpt lat="43.40514871291816234588623046875" lon="-5.88209501467645168304443359375">
        <ele>161.399993896484375</ele>
        <time>2019-02-15T16:37:35.000Z</time>
      </trkpt>
      <trkpt lat="43.40513898991048336029052734375" lon="-5.88202142156660556793212890625">
        <ele>160</ele>
        <time>2019-02-15T16:37:37.000Z</time>
      </trkpt>
      <trkpt lat="43.40511669404804706573486328125" lon="-5.88198336772620677947998046875">
        <ele>159.1999969482421875</ele>
        <time>2019-02-15T16:37:38.000Z</time>
      </trkpt>
      <trkpt lat="43.4050815738737583160400390625" lon="-5.8819356746971607208251953125">
        <ele>157.8000030517578125</ele>
        <time>2019-02-15T16:37:39.000Z</time>
      </trkpt>
      <trkpt lat="43.40505215339362621307373046875" lon="-5.8818904124200344085693359375">
        <ele>156.399993896484375</ele>
        <time>2019-02-15T16:37:40.000Z</time>
      </trkpt>
      <trkpt lat="43.40502432547509670257568359375" lon="-5.88184054009616374969482421875">
        <ele>155.399993896484375</ele>
        <time>2019-02-15T16:37:41.000Z</time>
      </trkpt>
      <trkpt lat="43.40500521473586559295654296875" lon="-5.88179041631519794464111328125">
        <ele>154.1999969482421875</ele>
        <time>2019-02-15T16:37:42.000Z</time>
      </trkpt>
      <trkpt lat="43.4049159474670886993408203125" lon="-5.88161724619567394256591796875">
        <ele>152.8000030517578125</ele>
        <time>2019-02-15T16:37:45.000Z</time>
      </trkpt>
      <trkpt lat="43.40488485060632228851318359375" lon="-5.88156469166278839111328125">
        <ele>152.399993896484375</ele>
        <time>2019-02-15T16:37:46.000Z</time>
      </trkpt>
      <trkpt lat="43.404861129820346832275390625" lon="-5.88152906857430934906005859375">
        <ele>151.399993896484375</ele>
        <time>2019-02-15T16:37:47.000Z</time>
      </trkpt>
      <trkpt lat="43.40484646148979663848876953125" lon="-5.88150677271187305450439453125">
        <ele>149.8000030517578125</ele>
        <time>2019-02-15T16:37:48.000Z</time>
      </trkpt>
      <trkpt lat="43.4048331342637538909912109375" lon="-5.88149235583841800689697265625">
        <ele>148.600006103515625</ele>
        <time>2019-02-15T16:37:49.000Z</time>
      </trkpt>
      <trkpt lat="43.40482550673186779022216796875" lon="-5.88147215545177459716796875">
        <ele>147.8000030517578125</ele>
        <time>2019-02-15T16:37:50.000Z</time>
      </trkpt>
      <trkpt lat="43.40482265688478946685791015625" lon="-5.88143703527748584747314453125">
        <ele>147.1999969482421875</ele>
        <time>2019-02-15T16:37:51.000Z</time>
      </trkpt>
      <trkpt lat="43.404842354357242584228515625" lon="-5.88140132836997509002685546875">
        <ele>146.600006103515625</ele>
        <time>2019-02-15T16:37:53.000Z</time>
      </trkpt>
      <trkpt lat="43.40486708097159862518310546875" lon="-5.8814109675586223602294921875">
        <ele>146.1999969482421875</ele>
        <time>2019-02-15T16:37:54.000Z</time>
      </trkpt>
      <trkpt lat="43.404985181987285614013671875" lon="-5.881432592868804931640625">
        <ele>145</ele>
        <time>2019-02-15T16:37:57.000Z</time>
      </trkpt>
      <trkpt lat="43.40503907762467861175537109375" lon="-5.88142764754593372344970703125">
        <ele>144.399993896484375</ele>
        <time>2019-02-15T16:37:58.000Z</time>
      </trkpt>
      <trkpt lat="43.40509255416691303253173828125" lon="-5.88140501640737056732177734375">
        <ele>143.399993896484375</ele>
        <time>2019-02-15T16:37:59.000Z</time>
      </trkpt>
      <trkpt lat="43.4052022732794284820556640625" lon="-5.88137417100369930267333984375">
        <ele>142</ele>
        <time>2019-02-15T16:38:01.000Z</time>
      </trkpt>
      <trkpt lat="43.4052589349448680877685546875" lon="-5.8813613466918468475341796875">
        <ele>141.399993896484375</ele>
        <time>2019-02-15T16:38:02.000Z</time>
      </trkpt>
      <trkpt lat="43.4053119085729122161865234375" lon="-5.88135304860770702362060546875">
        <ele>140.600006103515625</ele>
        <time>2019-02-15T16:38:03.000Z</time>
      </trkpt>
      <trkpt lat="43.40539924800395965576171875" lon="-5.8813641965389251708984375">
        <ele>139.600006103515625</ele>
        <time>2019-02-15T16:38:05.000Z</time>
      </trkpt>
      <trkpt lat="43.4054356254637241363525390625" lon="-5.88136377744376659393310546875">
        <ele>138.600006103515625</ele>
        <time>2019-02-15T16:38:06.000Z</time>
      </trkpt>
      <trkpt lat="43.4054805524647235870361328125" lon="-5.88136210106313228607177734375">
        <ele>137.600006103515625</ele>
        <time>2019-02-15T16:38:08.000Z</time>
      </trkpt>
      <trkpt lat="43.40549756772816181182861328125" lon="-5.881369896233081817626953125">
        <ele>137.399993896484375</ele>
        <time>2019-02-15T16:38:09.000Z</time>
      </trkpt>
      <trkpt lat="43.40553310699760913848876953125" lon="-5.8813962154090404510498046875">
        <ele>137.399993896484375</ele>
        <time>2019-02-15T16:38:11.000Z</time>
      </trkpt>
      <trkpt lat="43.4055606834590435028076171875" lon="-5.88141021318733692169189453125">
        <ele>137.600006103515625</ele>
        <time>2019-02-15T16:38:13.000Z</time>
      </trkpt>
      <trkpt lat="43.40556948445737361907958984375" lon="-5.881412141025066375732421875">
        <ele>137.8000030517578125</ele>
        <time>2019-02-15T16:38:14.000Z</time>
      </trkpt>
      <trkpt lat="43.405594043433666229248046875" lon="-5.88142362423241138458251953125">
        <ele>137.8000030517578125</ele>
        <time>2019-02-15T16:38:16.000Z</time>
      </trkpt>
      <trkpt lat="43.405610136687755584716796875" lon="-5.88143728673458099365234375">
        <ele>137.8000030517578125</ele>
        <time>2019-02-15T16:38:17.000Z</time>
      </trkpt>
      <trkpt lat="43.40563570149242877960205078125" lon="-5.8814595825970172882080078125">
        <ele>138.1999969482421875</ele>
        <time>2019-02-15T16:38:19.000Z</time>
      </trkpt>
      <trkpt lat="43.40565330348908901214599609375" lon="-5.88147617876529693603515625">
        <ele>138.1999969482421875</ele>
        <time>2019-02-15T16:38:20.000Z</time>
      </trkpt>
      <trkpt lat="43.405697643756866455078125" lon="-5.8815063536167144775390625">
        <ele>139</ele>
        <time>2019-02-15T16:38:22.000Z</time>
      </trkpt>
      <trkpt lat="43.40572723187506198883056640625" lon="-5.8815117180347442626953125">
        <ele>139.8000030517578125</ele>
        <time>2019-02-15T16:38:24.000Z</time>
      </trkpt>
      <trkpt lat="43.405737541615962982177734375" lon="-5.88150610215961933135986328125">
        <ele>140</ele>
        <time>2019-02-15T16:38:25.000Z</time>
      </trkpt>
      <trkpt lat="43.405756317079067230224609375" lon="-5.88150023482739925384521484375">
        <ele>140.399993896484375</ele>
        <time>2019-02-15T16:38:27.000Z</time>
      </trkpt>
      <trkpt lat="43.40577182359993457794189453125" lon="-5.881459750235080718994140625">
        <ele>141</ele>
        <time>2019-02-15T16:40:58.000Z</time>
      </trkpt>
      <trkpt lat="43.4057687222957611083984375" lon="-5.88144055567681789398193359375">
        <ele>141</ele>
        <time>2019-02-15T16:40:59.000Z</time>
      </trkpt>
      <trkpt lat="43.40576562099158763885498046875" lon="-5.88142781518399715423583984375">
        <ele>141.1999969482421875</ele>
        <time>2019-02-15T16:41:00.000Z</time>
      </trkpt>
      <trkpt lat="43.40575137175619602203369140625" lon="-5.88139378465712070465087890625">
        <ele>141.1999969482421875</ele>
        <time>2019-02-15T16:41:02.000Z</time>
      </trkpt>
      <trkpt lat="43.4057393856346607208251953125" lon="-5.8813465945422649383544921875">
        <ele>141.8000030517578125</ele>
        <time>2019-02-15T16:41:04.000Z</time>
      </trkpt>
      <trkpt lat="43.4057306684553623199462890625" lon="-5.8813237957656383514404296875">
        <ele>142</ele>
        <time>2019-02-15T16:41:05.000Z</time>
      </trkpt>
      <trkpt lat="43.405705355107784271240234375" lon="-5.88127844966948032379150390625">
        <ele>142.600006103515625</ele>
        <time>2019-02-15T16:41:07.000Z</time>
      </trkpt>
      <trkpt lat="43.40568632818758487701416015625" lon="-5.88124140165746212005615234375">
        <ele>142.8000030517578125</ele>
        <time>2019-02-15T16:41:09.000Z</time>
      </trkpt>
      <trkpt lat="43.4056649543344974517822265625" lon="-5.88118356652557849884033203125">
        <ele>143.1999969482421875</ele>
        <time>2019-02-15T16:41:12.000Z</time>
      </trkpt>
      <trkpt lat="43.40563318692147731781005859375" lon="-5.8811286650598049163818359375">
        <ele>143.399993896484375</ele>
        <time>2019-02-15T16:41:15.000Z</time>
      </trkpt>
      <trkpt lat="43.40561055578291416168212890625" lon="-5.88109555654227733612060546875">
        <ele>143.8000030517578125</ele>
        <time>2019-02-15T16:41:17.000Z</time>
      </trkpt>
      <trkpt lat="43.4056002460420131683349609375" lon="-5.88107787072658538818359375">
        <ele>143.8000030517578125</ele>
        <time>2019-02-15T16:41:18.000Z</time>
      </trkpt>
      <trkpt lat="43.40559496544301509857177734375" lon="-5.881062448024749755859375">
        <ele>144</ele>
        <time>2019-02-15T16:41:19.000Z</time>
      </trkpt>
      <trkpt lat="43.40556462295353412628173828125" lon="-5.8809965662658214569091796875">
        <ele>145.1999969482421875</ele>
        <time>2019-02-15T16:41:23.000Z</time>
      </trkpt>
      <trkpt lat="43.40554685331881046295166015625" lon="-5.88097150437533855438232421875">
        <ele>145.8000030517578125</ele>
        <time>2019-02-15T16:41:25.000Z</time>
      </trkpt>
      <trkpt lat="43.40550544671714305877685546875" lon="-5.88091517798602581024169921875">
        <ele>146.1999969482421875</ele>
        <time>2019-02-15T16:41:29.000Z</time>
      </trkpt>
      <trkpt lat="43.40547326020896434783935546875" lon="-5.88087729178369045257568359375">
        <ele>146.8000030517578125</ele>
        <time>2019-02-15T16:41:32.000Z</time>
      </trkpt>
      <trkpt lat="43.4054560773074626922607421875" lon="-5.8808627910912036895751953125">
        <ele>147</ele>
        <time>2019-02-15T16:41:33.000Z</time>
      </trkpt>
      <trkpt lat="43.40542581863701343536376953125" lon="-5.8808359690010547637939453125">
        <ele>147.600006103515625</ele>
        <time>2019-02-15T16:41:35.000Z</time>
      </trkpt>
      <trkpt lat="43.40539120137691497802734375" lon="-5.88080554269254207611083984375">
        <ele>147.8000030517578125</ele>
        <time>2019-02-15T16:41:38.000Z</time>
      </trkpt>
      <trkpt lat="43.40531551279127597808837890625" lon="-5.88073127903044223785400390625">
        <ele>147.8000030517578125</ele>
        <time>2019-02-15T16:41:44.000Z</time>
      </trkpt>
      <trkpt lat="43.4052425064146518707275390625" lon="-5.8806498907506465911865234375">
        <ele>148.1999969482421875</ele>
        <time>2019-02-15T16:41:51.000Z</time>
      </trkpt>
      <trkpt lat="43.40522892773151397705078125" lon="-5.880634970963001251220703125">
        <ele>148.1999969482421875</ele>
        <time>2019-02-15T16:41:52.000Z</time>
      </trkpt>
      <trkpt lat="43.4051821567118167877197265625" lon="-5.88058912195265293121337890625">
        <ele>149</ele>
        <time>2019-02-15T16:41:56.000Z</time>
      </trkpt>
      <trkpt lat="43.405157513916492462158203125" lon="-5.8805568516254425048828125">
        <ele>149.1999969482421875</ele>
        <time>2019-02-15T16:41:58.000Z</time>
      </trkpt>
      <trkpt lat="43.4051437675952911376953125" lon="-5.8805275149643421173095703125">
        <ele>149.399993896484375</ele>
        <time>2019-02-15T16:42:00.000Z</time>
      </trkpt>
      <trkpt lat="43.40507981367409229278564453125" lon="-5.88039063848555088043212890625">
        <ele>150.1999969482421875</ele>
        <time>2019-02-15T16:42:07.000Z</time>
      </trkpt>
      <trkpt lat="43.40504519641399383544921875" lon="-5.8802884630858898162841796875">
        <ele>151.399993896484375</ele>
        <time>2019-02-15T16:42:12.000Z</time>
      </trkpt>
      <trkpt lat="43.4050399996340274810791015625" lon="-5.88027496822178363800048828125">
        <ele>151.600006103515625</ele>
        <time>2019-02-15T16:42:13.000Z</time>
      </trkpt>
      <trkpt lat="43.40503471903502941131591796875" lon="-5.8802609704434871673583984375">
        <ele>151.8000030517578125</ele>
        <time>2019-02-15T16:42:14.000Z</time>
      </trkpt>
      <trkpt lat="43.405023403465747833251953125" lon="-5.88022719137370586395263671875">
        <ele>152.600006103515625</ele>
        <time>2019-02-15T16:42:16.000Z</time>
      </trkpt>
      <trkpt lat="43.40501124970614910125732421875" lon="-5.88017941452562808990478515625">
        <ele>153.1999969482421875</ele>
        <time>2019-02-15T16:42:19.000Z</time>
      </trkpt>
      <trkpt lat="43.40500454418361186981201171875" lon="-5.88016315363347530364990234375">
        <ele>153.399993896484375</ele>
        <time>2019-02-15T16:42:20.000Z</time>
      </trkpt>
      <trkpt lat="43.4050027839839458465576171875" lon="-5.880141444504261016845703125">
        <ele>153.8000030517578125</ele>
        <time>2019-02-15T16:42:21.000Z</time>
      </trkpt>
      <trkpt lat="43.40500135906040668487548828125" lon="-5.88012878783047199249267578125">
        <ele>154.1999969482421875</ele>
        <time>2019-02-15T16:42:22.000Z</time>
      </trkpt>
      <trkpt lat="43.40499096550047397613525390625" lon="-5.8800608105957508087158203125">
        <ele>155.1999969482421875</ele>
        <time>2019-02-15T16:42:26.000Z</time>
      </trkpt>
      <trkpt lat="43.40498459525406360626220703125" lon="-5.8800150454044342041015625">
        <ele>155.8000030517578125</ele>
        <time>2019-02-15T16:42:29.000Z</time>
      </trkpt>
      <trkpt lat="43.40497554279863834381103515625" lon="-5.8799890615046024322509765625">
        <ele>156.1999969482421875</ele>
        <time>2019-02-15T16:42:31.000Z</time>
      </trkpt>
      <trkpt lat="43.4049613773822784423828125" lon="-5.879885293543338775634765625">
        <ele>157</ele>
        <time>2019-02-15T16:42:36.000Z</time>
      </trkpt>
      <trkpt lat="43.404962383210659027099609375" lon="-5.8798546157777309417724609375">
        <ele>157.399993896484375</ele>
        <time>2019-02-15T16:42:38.000Z</time>
      </trkpt>
      <trkpt lat="43.40496079064905643463134765625" lon="-5.87982603348791599273681640625">
        <ele>157.600006103515625</ele>
        <time>2019-02-15T16:42:40.000Z</time>
      </trkpt>
      <trkpt lat="43.404963053762912750244140625" lon="-5.87981480173766613006591796875">
        <ele>157.8000030517578125</ele>
        <time>2019-02-15T16:42:41.000Z</time>
      </trkpt>
      <trkpt lat="43.40496280230581760406494140625" lon="-5.87970181368291378021240234375">
        <ele>158.600006103515625</ele>
        <time>2019-02-15T16:42:48.000Z</time>
      </trkpt>
      <trkpt lat="43.4049635566771030426025390625" lon="-5.87968605570495128631591796875">
        <ele>158.600006103515625</ele>
        <time>2019-02-15T16:42:49.000Z</time>
      </trkpt>
      <trkpt lat="43.40493178926408290863037109375" lon="-5.87955839931964874267578125">
        <ele>159.8000030517578125</ele>
        <time>2019-02-15T16:42:56.000Z</time>
      </trkpt>
      <trkpt lat="43.4049276821315288543701171875" lon="-5.87953937239944934844970703125">
        <ele>159.8000030517578125</ele>
        <time>2019-02-15T16:42:57.000Z</time>
      </trkpt>
      <trkpt lat="43.404912762343883514404296875" lon="-5.879463516175746917724609375">
        <ele>160.8000030517578125</ele>
        <time>2019-02-15T16:43:01.000Z</time>
      </trkpt>
      <trkpt lat="43.4049102477729320526123046875" lon="-5.87944432161748409271240234375">
        <ele>161</ele>
        <time>2019-02-15T16:43:02.000Z</time>
      </trkpt>
      <trkpt lat="43.40489021502435207366943359375" lon="-5.879325382411479949951171875">
        <ele>162</ele>
        <time>2019-02-15T16:43:08.000Z</time>
      </trkpt>
      <trkpt lat="43.40488468296825885772705078125" lon="-5.879265032708644866943359375">
        <ele>162.600006103515625</ele>
        <time>2019-02-15T16:43:11.000Z</time>
      </trkpt>
      <trkpt lat="43.4048817493021488189697265625" lon="-5.879216082394123077392578125">
        <ele>163</ele>
        <time>2019-02-15T16:43:14.000Z</time>
      </trkpt>
      <trkpt lat="43.40487931855022907257080078125" lon="-5.87915380485355854034423828125">
        <ele>164.1999969482421875</ele>
        <time>2019-02-15T16:43:19.000Z</time>
      </trkpt>
      <trkpt lat="43.40487864799797534942626953125" lon="-5.879115164279937744140625">
        <ele>164.8000030517578125</ele>
        <time>2019-02-15T16:43:22.000Z</time>
      </trkpt>
      <trkpt lat="43.404879234731197357177734375" lon="-5.8790626935660839080810546875">
        <ele>165.600006103515625</ele>
        <time>2019-02-15T16:43:25.000Z</time>
      </trkpt>
      <trkpt lat="43.40487009845674037933349609375" lon="-5.87900049984455108642578125">
        <ele>166.8000030517578125</ele>
        <time>2019-02-15T16:43:30.000Z</time>
      </trkpt>
      <trkpt lat="43.40486741624772548675537109375" lon="-5.8789859153330326080322265625">
        <ele>167.1999969482421875</ele>
        <time>2019-02-15T16:43:31.000Z</time>
      </trkpt>
      <trkpt lat="43.40486322529613971710205078125" lon="-5.87891022674739360809326171875">
        <ele>168</ele>
        <time>2019-02-15T16:43:36.000Z</time>
      </trkpt>
      <trkpt lat="43.40485752560198307037353515625" lon="-5.87887116707861423492431640625">
        <ele>168.600006103515625</ele>
        <time>2019-02-15T16:43:39.000Z</time>
      </trkpt>
      <trkpt lat="43.4048594534397125244140625" lon="-5.87881383486092090606689453125">
        <ele>169</ele>
        <time>2019-02-15T16:43:42.000Z</time>
      </trkpt>
      <trkpt lat="43.40486305765807628631591796875" lon="-5.878739990293979644775390625">
        <ele>169.8000030517578125</ele>
        <time>2019-02-15T16:43:47.000Z</time>
      </trkpt>
      <trkpt lat="43.40486406348645687103271484375" lon="-5.87872532196342945098876953125">
        <ele>170</ele>
        <time>2019-02-15T16:43:48.000Z</time>
      </trkpt>
      <trkpt lat="43.40486590750515460968017578125" lon="-5.87866513989865779876708984375">
        <ele>170.399993896484375</ele>
        <time>2019-02-15T16:43:51.000Z</time>
      </trkpt>
      <trkpt lat="43.40486238710582256317138671875" lon="-5.8786238171160221099853515625">
        <ele>170.8000030517578125</ele>
        <time>2019-02-15T16:43:53.000Z</time>
      </trkpt>
      <trkpt lat="43.4048602916300296783447265625" lon="-5.87858215905725955963134765625">
        <ele>171</ele>
        <time>2019-02-15T16:43:55.000Z</time>
      </trkpt>
      <trkpt lat="43.40485341846942901611328125" lon="-5.8784940652549266815185546875">
        <ele>172</ele>
        <time>2019-02-15T16:43:59.000Z</time>
      </trkpt>
      <trkpt lat="43.40485207736492156982421875" lon="-5.878474451601505279541015625">
        <ele>172.1999969482421875</ele>
        <time>2019-02-15T16:44:00.000Z</time>
      </trkpt>
      <trkpt lat="43.4048415161669254302978515625" lon="-5.87837562896311283111572265625">
        <ele>173</ele>
        <time>2019-02-15T16:44:05.000Z</time>
      </trkpt>
      <trkpt lat="43.40483891777694225311279296875" lon="-5.87835316546261310577392578125">
        <ele>173.1999969482421875</ele>
        <time>2019-02-15T16:44:06.000Z</time>
      </trkpt>
      <trkpt lat="43.4048321284353733062744140625" lon="-5.878312177956104278564453125">
        <ele>173.399993896484375</ele>
        <time>2019-02-15T16:44:08.000Z</time>
      </trkpt>
      <trkpt lat="43.40482869185507297515869140625" lon="-5.878263898193836212158203125">
        <ele>173.600006103515625</ele>
        <time>2019-02-15T16:44:10.000Z</time>
      </trkpt>
      <trkpt lat="43.40483129024505615234375" lon="-5.8781889639794826507568359375">
        <ele>174.1999969482421875</ele>
        <time>2019-02-15T16:44:13.000Z</time>
      </trkpt>
      <trkpt lat="43.40483573265373706817626953125" lon="-5.87814747355878353118896484375">
        <ele>174.600006103515625</ele>
        <time>2019-02-15T16:44:15.000Z</time>
      </trkpt>
      <trkpt lat="43.40483305044472217559814453125" lon="-5.87801855988800525665283203125">
        <ele>175.399993896484375</ele>
        <time>2019-02-15T16:44:21.000Z</time>
      </trkpt>
      <trkpt lat="43.40483137406408786773681640625" lon="-5.8779958449304103851318359375">
        <ele>175.600006103515625</ele>
        <time>2019-02-15T16:44:22.000Z</time>
      </trkpt>
      <trkpt lat="43.40483003295958042144775390625" lon="-5.87797145359218120574951171875">
        <ele>175.600006103515625</ele>
        <time>2019-02-15T16:44:23.000Z</time>
      </trkpt>
      <trkpt lat="43.4047977626323699951171875" lon="-5.8778070844709873199462890625">
        <ele>176.399993896484375</ele>
        <time>2019-02-15T16:44:30.000Z</time>
      </trkpt>
      <trkpt lat="43.40478862635791301727294921875" lon="-5.877756960690021514892578125">
        <ele>176.8000030517578125</ele>
        <time>2019-02-15T16:44:32.000Z</time>
      </trkpt>
      <trkpt lat="43.404777310788631439208984375" lon="-5.87766987271606922149658203125">
        <ele>177.600006103515625</ele>
        <time>2019-02-15T16:44:36.000Z</time>
      </trkpt>
      <trkpt lat="43.404769599437713623046875" lon="-5.877560488879680633544921875">
        <ele>178.8000030517578125</ele>
        <time>2019-02-15T16:44:41.000Z</time>
      </trkpt>
      <trkpt lat="43.40476968325674533843994140625" lon="-5.87754070758819580078125">
        <ele>179</ele>
        <time>2019-02-15T16:44:42.000Z</time>
      </trkpt>
      <trkpt lat="43.40476398356258869171142578125" lon="-5.87740064598619937896728515625">
        <ele>179.399993896484375</ele>
        <time>2019-02-15T16:44:48.000Z</time>
      </trkpt>
      <trkpt lat="43.40476297773420810699462890625" lon="-5.8773239515721797943115234375">
        <ele>180</ele>
        <time>2019-02-15T16:44:51.000Z</time>
      </trkpt>
      <trkpt lat="43.40476649813354015350341796875" lon="-5.87711633183062076568603515625">
        <ele>181</ele>
        <time>2019-02-15T16:45:00.000Z</time>
      </trkpt>
      <trkpt lat="43.40476683340966701507568359375" lon="-5.87709252722561359405517578125">
        <ele>181.1999969482421875</ele>
        <time>2019-02-15T16:45:01.000Z</time>
      </trkpt>
      <trkpt lat="43.40477219782769680023193359375" lon="-5.8769256435334682464599609375">
        <ele>182.1999969482421875</ele>
        <time>2019-02-15T16:45:09.000Z</time>
      </trkpt>
      <trkpt lat="43.4047734551131725311279296875" lon="-5.87681860662996768951416015625">
        <ele>183.399993896484375</ele>
        <time>2019-02-15T16:45:14.000Z</time>
      </trkpt>
      <trkpt lat="43.40477370657026767730712890625" lon="-5.8767841570079326629638671875">
        <ele>183.600006103515625</ele>
        <time>2019-02-15T16:45:16.000Z</time>
      </trkpt>
      <trkpt lat="43.40478577651083469390869140625" lon="-5.87666035629808902740478515625">
        <ele>184.399993896484375</ele>
        <time>2019-02-15T16:45:22.000Z</time>
      </trkpt>
      <trkpt lat="43.40480321086943149566650390625" lon="-5.87657553143799304962158203125">
        <ele>185.600006103515625</ele>
        <time>2019-02-15T16:45:27.000Z</time>
      </trkpt>
      <trkpt lat="43.404808826744556427001953125" lon="-5.87654535658657550811767578125">
        <ele>186</ele>
        <time>2019-02-15T16:45:29.000Z</time>
      </trkpt>
      <trkpt lat="43.40482634492218494415283203125" lon="-5.876486599445343017578125">
        <ele>186.600006103515625</ele>
        <time>2019-02-15T16:45:33.000Z</time>
      </trkpt>
      <trkpt lat="43.404849059879779815673828125" lon="-5.87641753256320953369140625">
        <ele>187</ele>
        <time>2019-02-15T16:45:37.000Z</time>
      </trkpt>
      <trkpt lat="43.404861129820346832275390625" lon="-5.8763583563268184661865234375">
        <ele>187.8000030517578125</ele>
        <time>2019-02-15T16:45:40.000Z</time>
      </trkpt>
      <trkpt lat="43.40486473403871059417724609375" lon="-5.8762832544744014739990234375">
        <ele>188.1999969482421875</ele>
        <time>2019-02-15T16:45:44.000Z</time>
      </trkpt>
      <trkpt lat="43.40485065244138240814208984375" lon="-5.876175798475742340087890625">
        <ele>188.8000030517578125</ele>
        <time>2019-02-15T16:45:49.000Z</time>
      </trkpt>
      <trkpt lat="43.40484629385173320770263671875" lon="-5.8761115930974483489990234375">
        <ele>188.8000030517578125</ele>
        <time>2019-02-15T16:45:52.000Z</time>
      </trkpt>
      <trkpt lat="43.40482433326542377471923828125" lon="-5.87595325894653797149658203125">
        <ele>189</ele>
        <time>2019-02-15T16:45:58.000Z</time>
      </trkpt>
      <trkpt lat="43.40479734353721141815185546875" lon="-5.87583222426474094390869140625">
        <ele>189.399993896484375</ele>
        <time>2019-02-15T16:46:03.000Z</time>
      </trkpt>
      <trkpt lat="43.404786027967929840087890625" lon="-5.87578277103602886199951171875">
        <ele>189.399993896484375</ele>
        <time>2019-02-15T16:46:05.000Z</time>
      </trkpt>
      <trkpt lat="43.40476901270449161529541015625" lon="-5.87569995783269405364990234375">
        <ele>189.600006103515625</ele>
        <time>2019-02-15T16:46:09.000Z</time>
      </trkpt>
      <trkpt lat="43.40476892888545989990234375" lon="-5.8756780810654163360595703125">
        <ele>189.600006103515625</ele>
        <time>2019-02-15T16:46:10.000Z</time>
      </trkpt>
      <trkpt lat="43.404767252504825592041015625" lon="-5.875637345016002655029296875">
        <ele>190</ele>
        <time>2019-02-15T16:46:12.000Z</time>
      </trkpt>
      <trkpt lat="43.40476767159998416900634765625" lon="-5.87561580352485179901123046875">
        <ele>190.1999969482421875</ele>
        <time>2019-02-15T16:46:13.000Z</time>
      </trkpt>
      <trkpt lat="43.40477420948445796966552734375" lon="-5.8755062520503997802734375">
        <ele>190.600006103515625</ele>
        <time>2019-02-15T16:46:18.000Z</time>
      </trkpt>
      <trkpt lat="43.4047731198370456695556640625" lon="-5.875484459102153778076171875">
        <ele>190.8000030517578125</ele>
        <time>2019-02-15T16:46:19.000Z</time>
      </trkpt>
      <trkpt lat="43.4047724492847919464111328125" lon="-5.8753756619989871978759765625">
        <ele>191.1999969482421875</ele>
        <time>2019-02-15T16:46:24.000Z</time>
      </trkpt>
      <trkpt lat="43.40477337129414081573486328125" lon="-5.87535395286977291107177734375">
        <ele>191.399993896484375</ele>
        <time>2019-02-15T16:46:25.000Z</time>
      </trkpt>
      <trkpt lat="43.40478694997727870941162109375" lon="-5.8752338401973247528076171875">
        <ele>192.399993896484375</ele>
        <time>2019-02-15T16:46:31.000Z</time>
      </trkpt>
      <trkpt lat="43.40479332022368907928466796875" lon="-5.875159241259098052978515625">
        <ele>193.399993896484375</ele>
        <time>2019-02-15T16:46:35.000Z</time>
      </trkpt>
      <trkpt lat="43.404792733490467071533203125" lon="-5.8751161582767963409423828125">
        <ele>194</ele>
        <time>2019-02-15T16:46:37.000Z</time>
      </trkpt>
      <trkpt lat="43.40478477068245410919189453125" lon="-5.87505606003105640411376953125">
        <ele>194.600006103515625</ele>
        <time>2019-02-15T16:46:40.000Z</time>
      </trkpt>
      <trkpt lat="43.40477538295090198516845703125" lon="-5.87497995235025882720947265625">
        <ele>195.600006103515625</ele>
        <time>2019-02-15T16:46:44.000Z</time>
      </trkpt>
      <trkpt lat="43.40477387420833110809326171875" lon="-5.87496218271553516387939453125">
        <ele>195.8000030517578125</ele>
        <time>2019-02-15T16:46:45.000Z</time>
      </trkpt>
      <trkpt lat="43.4047469682991504669189453125" lon="-5.87482907809317111968994140625">
        <ele>196.8000030517578125</ele>
        <time>2019-02-15T16:46:52.000Z</time>
      </trkpt>
      <trkpt lat="43.4047446213662624359130859375" lon="-5.8748103864490985870361328125">
        <ele>197</ele>
        <time>2019-02-15T16:46:53.000Z</time>
      </trkpt>
      <trkpt lat="43.40475660748779773712158203125" lon="-5.87469982914626598358154296875">
        <ele>198</ele>
        <time>2019-02-15T16:46:59.000Z</time>
      </trkpt>
      <trkpt lat="43.40476348064839839935302734375" lon="-5.8746702410280704498291015625">
        <ele>198.399993896484375</ele>
        <time>2019-02-15T16:47:01.000Z</time>
      </trkpt>
      <trkpt lat="43.40477965772151947021484375" lon="-5.87461173534393310546875">
        <ele>199.399993896484375</ele>
        <time>2019-02-15T16:47:05.000Z</time>
      </trkpt>
      <trkpt lat="43.40480052866041660308837890625" lon="-5.87454007007181644439697265625">
        <ele>200.1999969482421875</ele>
        <time>2019-02-15T16:47:10.000Z</time>
      </trkpt>
      <trkpt lat="43.40480572544038295745849609375" lon="-5.87452548556029796600341796875">
        <ele>200.399993896484375</ele>
        <time>2019-02-15T16:47:11.000Z</time>
      </trkpt>
      <trkpt lat="43.40482114814221858978271484375" lon="-5.87447284720838069915771484375">
        <ele>201.600006103515625</ele>
        <time>2019-02-15T16:47:15.000Z</time>
      </trkpt>
      <trkpt lat="43.4048277698457241058349609375" lon="-5.874448120594024658203125">
        <ele>201.8000030517578125</ele>
        <time>2019-02-15T16:47:17.000Z</time>
      </trkpt>
      <trkpt lat="43.40483640320599079132080078125" lon="-5.87440512143075466156005859375">
        <ele>202.600006103515625</ele>
        <time>2019-02-15T16:47:20.000Z</time>
      </trkpt>
      <trkpt lat="43.404844366014003753662109375" lon="-5.8743188716471195220947265625">
        <ele>203.8000030517578125</ele>
        <time>2019-02-15T16:47:25.000Z</time>
      </trkpt>
      <trkpt lat="43.4048633091151714324951171875" lon="-5.87419523857533931732177734375">
        <ele>204.600006103515625</ele>
        <time>2019-02-15T16:47:32.000Z</time>
      </trkpt>
      <trkpt lat="43.40486146509647369384765625" lon="-5.87416690774261951446533203125">
        <ele>204.8000030517578125</ele>
        <time>2019-02-15T16:47:33.000Z</time>
      </trkpt>
      <trkpt lat="43.4048626385629177093505859375" lon="-5.87405442260205745697021484375">
        <ele>205.399993896484375</ele>
        <time>2019-02-15T16:47:38.000Z</time>
      </trkpt>
      <trkpt lat="43.4048626385629177093505859375" lon="-5.87398854084312915802001953125">
        <ele>206.1999969482421875</ele>
        <time>2019-02-15T16:47:41.000Z</time>
      </trkpt>
      <trkpt lat="43.40487227775156497955322265625" lon="-5.8738769777119159698486328125">
        <ele>207.1999969482421875</ele>
        <time>2019-02-15T16:47:47.000Z</time>
      </trkpt>
      <trkpt lat="43.4048648178577423095703125" lon="-5.873745717108249664306640625">
        <ele>208.600006103515625</ele>
        <time>2019-02-15T16:47:54.000Z</time>
      </trkpt>
      <trkpt lat="43.4048629738390445709228515625" lon="-5.8737247623503208160400390625">
        <ele>209</ele>
        <time>2019-02-15T16:47:55.000Z</time>
      </trkpt>
      <trkpt lat="43.4048408456146717071533203125" lon="-5.87361588142812252044677734375">
        <ele>209.600006103515625</ele>
        <time>2019-02-15T16:48:01.000Z</time>
      </trkpt>
      <trkpt lat="43.40483221225440502166748046875" lon="-5.87359928525984287261962890625">
        <ele>209.8000030517578125</ele>
        <time>2019-02-15T16:48:02.000Z</time>
      </trkpt>
      <trkpt lat="43.40477370657026767730712890625" lon="-5.87349467910826206207275390625">
        <ele>210.399993896484375</ele>
        <time>2019-02-15T16:48:08.000Z</time>
      </trkpt>
      <trkpt lat="43.40476624667644500732421875" lon="-5.8734736405313014984130859375">
        <ele>210.600006103515625</ele>
        <time>2019-02-15T16:48:09.000Z</time>
      </trkpt>
      <trkpt lat="43.404761217534542083740234375" lon="-5.87332469411194324493408203125">
        <ele>211.600006103515625</ele>
        <time>2019-02-15T16:48:16.000Z</time>
      </trkpt>
      <trkpt lat="43.40476113371551036834716796875" lon="-5.87330482900142669677734375">
        <ele>211.8000030517578125</ele>
        <time>2019-02-15T16:48:17.000Z</time>
      </trkpt>
      <trkpt lat="43.40476180426776409149169921875" lon="-5.8732329122722148895263671875">
        <ele>212.8000030517578125</ele>
        <time>2019-02-15T16:48:21.000Z</time>
      </trkpt>
      <trkpt lat="43.40475660748779773712158203125" lon="-5.8730907551944255828857421875">
        <ele>213.8000030517578125</ele>
        <time>2019-02-15T16:48:28.000Z</time>
      </trkpt>
      <trkpt lat="43.40474747121334075927734375" lon="-5.872953124344348907470703125">
        <ele>215</ele>
        <time>2019-02-15T16:48:35.000Z</time>
      </trkpt>
      <trkpt lat="43.404737412929534912109375" lon="-5.87289839051663875579833984375">
        <ele>215.399993896484375</ele>
        <time>2019-02-15T16:48:38.000Z</time>
      </trkpt>
      <trkpt lat="43.40472509153187274932861328125" lon="-5.87277106940746307373046875">
        <ele>216.1999969482421875</ele>
        <time>2019-02-15T16:48:45.000Z</time>
      </trkpt>
      <trkpt lat="43.40472307987511157989501953125" lon="-5.87275237776339054107666015625">
        <ele>216.600006103515625</ele>
        <time>2019-02-15T16:48:46.000Z</time>
      </trkpt>
      <trkpt lat="43.4047198109328746795654296875" lon="-5.8726792037487030029296875">
        <ele>217.399993896484375</ele>
        <time>2019-02-15T16:48:50.000Z</time>
      </trkpt>
      <trkpt lat="43.4047221578657627105712890625" lon="-5.87260971777141094207763671875">
        <ele>218.1999969482421875</ele>
        <time>2019-02-15T16:48:54.000Z</time>
      </trkpt>
      <trkpt lat="43.40472291223704814910888671875" lon="-5.87259161286056041717529296875">
        <ele>218.600006103515625</ele>
        <time>2019-02-15T16:48:55.000Z</time>
      </trkpt>
      <trkpt lat="43.4047214873135089874267578125" lon="-5.8724460192024707794189453125">
        <ele>219.8000030517578125</ele>
        <time>2019-02-15T16:49:03.000Z</time>
      </trkpt>
      <trkpt lat="43.40472023002803325653076171875" lon="-5.87242850102484226226806640625">
        <ele>220</ele>
        <time>2019-02-15T16:49:04.000Z</time>
      </trkpt>
      <trkpt lat="43.40470212511718273162841796875" lon="-5.8723104000091552734375">
        <ele>220.8000030517578125</ele>
        <time>2019-02-15T16:49:10.000Z</time>
      </trkpt>
      <trkpt lat="43.40469055809080600738525390625" lon="-5.872230939567089080810546875">
        <ele>220.600006103515625</ele>
        <time>2019-02-15T16:49:13.000Z</time>
      </trkpt>
      <trkpt lat="43.40467899106442928314208984375" lon="-5.87217754684388637542724609375">
        <ele>220.399993896484375</ele>
        <time>2019-02-15T16:49:15.000Z</time>
      </trkpt>
      <trkpt lat="43.40466298162937164306640625" lon="-5.87212004698812961578369140625">
        <ele>220.1999969482421875</ele>
        <time>2019-02-15T16:49:17.000Z</time>
      </trkpt>
      <trkpt lat="43.40464864857494831085205078125" lon="-5.8720098249614238739013671875">
        <ele>220</ele>
        <time>2019-02-15T16:49:20.000Z</time>
      </trkpt>
      <trkpt lat="43.40467111207544803619384765625" lon="-5.8718441985547542572021484375">
        <ele>219</ele>
        <time>2019-02-15T16:49:24.000Z</time>
      </trkpt>
      <trkpt lat="43.40468284673988819122314453125" lon="-5.8718046359717845916748046875">
        <ele>218.600006103515625</ele>
        <time>2019-02-15T16:49:25.000Z</time>
      </trkpt>
      <trkpt lat="43.40469785034656524658203125" lon="-5.87176859378814697265625">
        <ele>218.399993896484375</ele>
        <time>2019-02-15T16:49:26.000Z</time>
      </trkpt>
      <trkpt lat="43.40471721254289150238037109375" lon="-5.8717342279851436614990234375">
        <ele>218.1999969482421875</ele>
        <time>2019-02-15T16:49:27.000Z</time>
      </trkpt>
      <trkpt lat="43.4047736227512359619140625" lon="-5.87168519385159015655517578125">
        <ele>217.8000030517578125</ele>
        <time>2019-02-15T16:49:29.000Z</time>
      </trkpt>
      <trkpt lat="43.40480505488812923431396484375" lon="-5.87167949415743350982666015625">
        <ele>217.600006103515625</ele>
        <time>2019-02-15T16:49:30.000Z</time>
      </trkpt>
      <trkpt lat="43.40494687668979167938232421875" lon="-5.8716921508312225341796875">
        <ele>218</ele>
        <time>2019-02-15T16:49:36.000Z</time>
      </trkpt>
      <trkpt lat="43.40501368045806884765625" lon="-5.87170623242855072021484375">
        <ele>218.8000030517578125</ele>
        <time>2019-02-15T16:49:39.000Z</time>
      </trkpt>
      <trkpt lat="43.40511887334287166595458984375" lon="-5.8717234991490840911865234375">
        <ele>219.399993896484375</ele>
        <time>2019-02-15T16:49:44.000Z</time>
      </trkpt>
      <trkpt lat="43.40517939068377017974853515625" lon="-5.87174084968864917755126953125">
        <ele>219.8000030517578125</ele>
        <time>2019-02-15T16:49:47.000Z</time>
      </trkpt>
      <trkpt lat="43.4053055383265018463134765625" lon="-5.8717580325901508331298828125">
        <ele>220.600006103515625</ele>
        <time>2019-02-15T16:49:53.000Z</time>
      </trkpt>
      <trkpt lat="43.405390195548534393310546875" lon="-5.8717457950115203857421875">
        <ele>220.8000030517578125</ele>
        <time>2019-02-15T16:49:57.000Z</time>
      </trkpt>
      <trkpt lat="43.40548507869243621826171875" lon="-5.87172006256878376007080078125">
        <ele>221.600006103515625</ele>
        <time>2019-02-15T16:50:02.000Z</time>
      </trkpt>
      <trkpt lat="43.40550242923200130462646484375" lon="-5.871713943779468536376953125">
        <ele>222</ele>
        <time>2019-02-15T16:50:03.000Z</time>
      </trkpt>
      <trkpt lat="43.40559144504368305206298828125" lon="-5.87168670259416103363037109375">
        <ele>222.8000030517578125</ele>
        <time>2019-02-15T16:50:09.000Z</time>
      </trkpt>
      <trkpt lat="43.40561592020094394683837890625" lon="-5.87168955244123935699462890625">
        <ele>223.1999969482421875</ele>
        <time>2019-02-15T16:50:11.000Z</time>
      </trkpt>
      <trkpt lat="43.40565674006938934326171875" lon="-5.87174973450601100921630859375">
        <ele>223.8000030517578125</ele>
        <time>2019-02-15T16:50:16.000Z</time>
      </trkpt>
      <trkpt lat="43.40565095655620098114013671875" lon="-5.87181528098881244659423828125">
        <ele>224.399993896484375</ele>
        <time>2019-02-15T16:50:19.000Z</time>
      </trkpt>
      <trkpt lat="43.4056327678263187408447265625" lon="-5.87189222685992717742919921875">
        <ele>224.8000030517578125</ele>
        <time>2019-02-15T16:50:23.000Z</time>
      </trkpt>
      <trkpt lat="43.4056230448186397552490234375" lon="-5.871957354247570037841796875">
        <ele>225.399993896484375</ele>
        <time>2019-02-15T16:50:26.000Z</time>
      </trkpt>
      <trkpt lat="43.40561005286872386932373046875" lon="-5.87205634452402591705322265625">
        <ele>226.8000030517578125</ele>
        <time>2019-02-15T16:50:30.000Z</time>
      </trkpt>
      <trkpt lat="43.405609466135501861572265625" lon="-5.872080735862255096435546875">
        <ele>227.1999969482421875</ele>
        <time>2019-02-15T16:50:31.000Z</time>
      </trkpt>
      <trkpt lat="43.40560820885002613067626953125" lon="-5.8721503056585788726806640625">
        <ele>227.8000030517578125</ele>
        <time>2019-02-15T16:50:34.000Z</time>
      </trkpt>
      <trkpt lat="43.40561055578291416168212890625" lon="-5.8722285926342010498046875">
        <ele>228.600006103515625</ele>
        <time>2019-02-15T16:50:38.000Z</time>
      </trkpt>
      <trkpt lat="43.4056113101541996002197265625" lon="-5.87224661372601985931396484375">
        <ele>228.600006103515625</ele>
        <time>2019-02-15T16:50:39.000Z</time>
      </trkpt>
      <trkpt lat="43.4056123159825801849365234375" lon="-5.8722661435604095458984375">
        <ele>229</ele>
        <time>2019-02-15T16:50:40.000Z</time>
      </trkpt>
      <trkpt lat="43.40561340562999248504638671875" lon="-5.87237066589295864105224609375">
        <ele>230</ele>
        <time>2019-02-15T16:50:45.000Z</time>
      </trkpt>
      <trkpt lat="43.40561239980161190032958984375" lon="-5.872495137155055999755859375">
        <ele>231.1999969482421875</ele>
        <time>2019-02-15T16:50:51.000Z</time>
      </trkpt>
      <trkpt lat="43.405614830553531646728515625" lon="-5.872516930103302001953125">
        <ele>231.399993896484375</ele>
        <time>2019-02-15T16:50:52.000Z</time>
      </trkpt>
      <trkpt lat="43.40560854412615299224853515625" lon="-5.872581303119659423828125">
        <ele>232.1999969482421875</ele>
        <time>2019-02-15T16:50:55.000Z</time>
      </trkpt>
      <trkpt lat="43.40560938231647014617919921875" lon="-5.87260167114436626434326171875">
        <ele>232.399993896484375</ele>
        <time>2019-02-15T16:50:56.000Z</time>
      </trkpt>
      <trkpt lat="43.405606448650360107421875" lon="-5.872643999755382537841796875">
        <ele>232.399993896484375</ele>
        <time>2019-02-15T16:50:58.000Z</time>
      </trkpt>
      <trkpt lat="43.40560586191713809967041015625" lon="-5.8726901002228260040283203125">
        <ele>232.8000030517578125</ele>
        <time>2019-02-15T16:51:00.000Z</time>
      </trkpt>
      <trkpt lat="43.4056113101541996002197265625" lon="-5.87282127700746059417724609375">
        <ele>233</ele>
        <time>2019-02-15T16:51:07.000Z</time>
      </trkpt>
      <trkpt lat="43.4055828116834163665771484375" lon="-5.8730163238942623138427734375">
        <ele>233.399993896484375</ele>
        <time>2019-02-15T16:51:15.000Z</time>
      </trkpt>
      <trkpt lat="43.40557920746505260467529296875" lon="-5.873035602271556854248046875">
        <ele>233.600006103515625</ele>
        <time>2019-02-15T16:51:16.000Z</time>
      </trkpt>
      <trkpt lat="43.4055667184293270111083984375" lon="-5.873094610869884490966796875">
        <ele>233.399993896484375</ele>
        <time>2019-02-15T16:51:19.000Z</time>
      </trkpt>
      <trkpt lat="43.40556512586772441864013671875" lon="-5.87311514653265476226806640625">
        <ele>233.399993896484375</ele>
        <time>2019-02-15T16:51:20.000Z</time>
      </trkpt>
      <trkpt lat="43.40553872287273406982421875" lon="-5.87325411848723888397216796875">
        <ele>233.1999969482421875</ele>
        <time>2019-02-15T16:51:24.000Z</time>
      </trkpt>
      <trkpt lat="43.40552070178091526031494140625" lon="-5.87341672740876674652099609375">
        <ele>233</ele>
        <time>2019-02-15T16:51:27.000Z</time>
      </trkpt>
      <trkpt lat="43.405512906610965728759765625" lon="-5.87354228831827640533447265625">
        <ele>232.1999969482421875</ele>
        <time>2019-02-15T16:51:29.000Z</time>
      </trkpt>
      <trkpt lat="43.405508212745189666748046875" lon="-5.87371093221008777618408203125">
        <ele>231.399993896484375</ele>
        <time>2019-02-15T16:51:32.000Z</time>
      </trkpt>
      <trkpt lat="43.40552053414285182952880859375" lon="-5.87386406958103179931640625">
        <ele>231.399993896484375</ele>
        <time>2019-02-15T16:51:35.000Z</time>
      </trkpt>
      <trkpt lat="43.40560116805136203765869140625" lon="-5.87426547892391681671142578125">
        <ele>232.1999969482421875</ele>
        <time>2019-02-15T16:51:43.000Z</time>
      </trkpt>
      <trkpt lat="43.4056414850056171417236328125" lon="-5.8744325302541255950927734375">
        <ele>233.600006103515625</ele>
        <time>2019-02-15T16:51:47.000Z</time>
      </trkpt>
      <trkpt lat="43.40566570870578289031982421875" lon="-5.87455398403108119964599609375">
        <ele>234</ele>
        <time>2019-02-15T16:51:50.000Z</time>
      </trkpt>
      <trkpt lat="43.4056830592453479766845703125" lon="-5.87476319633424282073974609375">
        <ele>234.1999969482421875</ele>
        <time>2019-02-15T16:51:55.000Z</time>
      </trkpt>
      <trkpt lat="43.405686914920806884765625" lon="-5.8747981488704681396484375">
        <ele>234.600006103515625</ele>
        <time>2019-02-15T16:51:56.000Z</time>
      </trkpt>
      <trkpt lat="43.4056890942156314849853515625" lon="-5.874929241836071014404296875">
        <ele>235.600006103515625</ele>
        <time>2019-02-15T16:52:00.000Z</time>
      </trkpt>
      <trkpt lat="43.40568087995052337646484375" lon="-5.874972827732563018798828125">
        <ele>235.8000030517578125</ele>
        <time>2019-02-15T16:52:01.000Z</time>
      </trkpt>
      <trkpt lat="43.4056662954390048980712890625" lon="-5.87507952935993671417236328125">
        <ele>235.1999969482421875</ele>
        <time>2019-02-15T16:52:03.000Z</time>
      </trkpt>
      <trkpt lat="43.40566118247807025909423828125" lon="-5.8751506917178630828857421875">
        <ele>234.8000030517578125</ele>
        <time>2019-02-15T16:52:04.000Z</time>
      </trkpt>
      <trkpt lat="43.40565565042197704315185546875" lon="-5.87522529065608978271484375">
        <ele>234</ele>
        <time>2019-02-15T16:52:05.000Z</time>
      </trkpt>
      <trkpt lat="43.4056552313268184661865234375" lon="-5.875298045575618743896484375">
        <ele>232.8000030517578125</ele>
        <time>2019-02-15T16:52:06.000Z</time>
      </trkpt>
      <trkpt lat="43.4056572429835796356201171875" lon="-5.87537457235157489776611328125">
        <ele>231.600006103515625</ele>
        <time>2019-02-15T16:52:07.000Z</time>
      </trkpt>
      <trkpt lat="43.4056694805622100830078125" lon="-5.8755520172417163848876953125">
        <ele>229.1999969482421875</ele>
        <time>2019-02-15T16:52:09.000Z</time>
      </trkpt>
      <trkpt lat="43.40568951331079006195068359375" lon="-5.875646062195301055908203125">
        <ele>228</ele>
        <time>2019-02-15T16:52:10.000Z</time>
      </trkpt>
      <trkpt lat="43.4057155810296535491943359375" lon="-5.8757344074547290802001953125">
        <ele>226.399993896484375</ele>
        <time>2019-02-15T16:52:11.000Z</time>
      </trkpt>
      <trkpt lat="43.405740559101104736328125" lon="-5.8758105151355266571044921875">
        <ele>225.399993896484375</ele>
        <time>2019-02-15T16:52:12.000Z</time>
      </trkpt>
      <trkpt lat="43.405753634870052337646484375" lon="-5.87587228976190090179443359375">
        <ele>225</ele>
        <time>2019-02-15T16:52:13.000Z</time>
      </trkpt>
      <trkpt lat="43.40574600733816623687744140625" lon="-5.87597337551414966583251953125">
        <ele>224.1999969482421875</ele>
        <time>2019-02-15T16:52:15.000Z</time>
      </trkpt>
      <trkpt lat="43.40573594905436038970947265625" lon="-5.87605920620262622833251953125">
        <ele>223.8000030517578125</ele>
        <time>2019-02-15T16:52:17.000Z</time>
      </trkpt>
      <trkpt lat="43.4057266451418399810791015625" lon="-5.87611846625804901123046875">
        <ele>223.399993896484375</ele>
        <time>2019-02-15T16:52:18.000Z</time>
      </trkpt>
      <trkpt lat="43.40572086162865161895751953125" lon="-5.8761856891214847564697265625">
        <ele>223.1999969482421875</ele>
        <time>2019-02-15T16:52:19.000Z</time>
      </trkpt>
      <trkpt lat="43.40570627711713314056396484375" lon="-5.87638844735920429229736328125">
        <ele>222.8000030517578125</ele>
        <time>2019-02-15T16:52:22.000Z</time>
      </trkpt>
      <trkpt lat="43.405704014003276824951171875" lon="-5.87645818479359149932861328125">
        <ele>222.600006103515625</ele>
        <time>2019-02-15T16:52:23.000Z</time>
      </trkpt>
      <trkpt lat="43.4057139046490192413330078125" lon="-5.87660134769976139068603515625">
        <ele>222.1999969482421875</ele>
        <time>2019-02-15T16:52:25.000Z</time>
      </trkpt>
      <trkpt lat="43.40572245419025421142578125" lon="-5.8766877651214599609375">
        <ele>222</ele>
        <time>2019-02-15T16:52:26.000Z</time>
      </trkpt>
      <trkpt lat="43.40573058463633060455322265625" lon="-5.87677284143865108489990234375">
        <ele>222</ele>
        <time>2019-02-15T16:52:27.000Z</time>
      </trkpt>
      <trkpt lat="43.405734188854694366455078125" lon="-5.87684894911944866180419921875">
        <ele>221.600006103515625</ele>
        <time>2019-02-15T16:52:28.000Z</time>
      </trkpt>
      <trkpt lat="43.405753634870052337646484375" lon="-5.87698607705533504486083984375">
        <ele>221.1999969482421875</ele>
        <time>2019-02-15T16:52:30.000Z</time>
      </trkpt>
      <trkpt lat="43.40576461516320705413818359375" lon="-5.877068974077701568603515625">
        <ele>220.8000030517578125</ele>
        <time>2019-02-15T16:52:31.000Z</time>
      </trkpt>
      <trkpt lat="43.40579663403332233428955078125" lon="-5.87722529657185077667236328125">
        <ele>220.1999969482421875</ele>
        <time>2019-02-15T16:52:33.000Z</time>
      </trkpt>
      <trkpt lat="43.4058107994496822357177734375" lon="-5.87731330655515193939208984375">
        <ele>219.8000030517578125</ele>
        <time>2019-02-15T16:52:34.000Z</time>
      </trkpt>
      <trkpt lat="43.40582479722797870635986328125" lon="-5.8774094469845294952392578125">
        <ele>219.399993896484375</ele>
        <time>2019-02-15T16:52:35.000Z</time>
      </trkpt>
      <trkpt lat="43.405841477215290069580078125" lon="-5.87750609032809734344482421875">
        <ele>218.8000030517578125</ele>
        <time>2019-02-15T16:52:36.000Z</time>
      </trkpt>
      <trkpt lat="43.4058691374957561492919921875" lon="-5.8776609040796756744384765625">
        <ele>218.8000030517578125</ele>
        <time>2019-02-15T16:52:38.000Z</time>
      </trkpt>
      <trkpt lat="43.405880033969879150390625" lon="-5.8777034841477870941162109375">
        <ele>219</ele>
        <time>2019-02-15T16:52:39.000Z</time>
      </trkpt>
      <trkpt lat="43.40589344501495361328125" lon="-5.8777547813951969146728515625">
        <ele>219.399993896484375</ele>
        <time>2019-02-15T16:52:41.000Z</time>
      </trkpt>
      <trkpt lat="43.405904509127140045166015625" lon="-5.87779878638684749603271484375">
        <ele>220.1999969482421875</ele>
        <time>2019-02-15T16:52:43.000Z</time>
      </trkpt>
      <trkpt lat="43.40591096319258213043212890625" lon="-5.8778181485831737518310546875">
        <ele>220.399993896484375</ele>
        <time>2019-02-15T16:52:44.000Z</time>
      </trkpt>
      <trkpt lat="43.4059174172580242156982421875" lon="-5.8778459765017032623291015625">
        <ele>220.399993896484375</ele>
        <time>2019-02-15T16:52:45.000Z</time>
      </trkpt>
      <trkpt lat="43.40592630207538604736328125" lon="-5.8778664283454418182373046875">
        <ele>220.600006103515625</ele>
        <time>2019-02-15T16:52:46.000Z</time>
      </trkpt>
      <trkpt lat="43.40592353604733943939208984375" lon="-5.877904482185840606689453125">
        <ele>220.600006103515625</ele>
        <time>2019-02-15T16:52:48.000Z</time>
      </trkpt>
      <trkpt lat="43.40594247914850711822509765625" lon="-5.87794664315879344940185546875">
        <ele>220.8000030517578125</ele>
        <time>2019-02-15T16:52:51.000Z</time>
      </trkpt>
      <trkpt lat="43.40596117079257965087890625" lon="-5.87798318825662136077880859375">
        <ele>221</ele>
        <time>2019-02-15T16:52:53.000Z</time>
      </trkpt>
      <trkpt lat="43.405968211591243743896484375" lon="-5.87799693457782268524169921875">
        <ele>221</ele>
        <time>2019-02-15T16:52:54.000Z</time>
      </trkpt>
      <trkpt lat="43.40597131289541721343994140625" lon="-5.878019817173480987548828125">
        <ele>221</ele>
        <time>2019-02-15T16:52:55.000Z</time>
      </trkpt>
      <trkpt lat="43.40597215108573436737060546875" lon="-5.878031216561794281005859375">
        <ele>221.1999969482421875</ele>
        <time>2019-02-15T16:52:56.000Z</time>
      </trkpt>
      <trkpt lat="43.4059760905802249908447265625" lon="-5.87804965674877166748046875">
        <ele>221.399993896484375</ele>
        <time>2019-02-15T16:52:58.000Z</time>
      </trkpt>
      <trkpt lat="43.4060297347605228424072265625" lon="-5.87810464203357696533203125">
        <ele>221.600006103515625</ele>
        <time>2019-02-15T16:53:03.000Z</time>
      </trkpt>
      <trkpt lat="43.406058065593242645263671875" lon="-5.8781292848289012908935546875">
        <ele>221.600006103515625</ele>
        <time>2019-02-15T16:53:05.000Z</time>
      </trkpt>
      <trkpt lat="43.4061038307845592498779296875" lon="-5.8781643211841583251953125">
        <ele>222</ele>
        <time>2019-02-15T16:53:07.000Z</time>
      </trkpt>
      <trkpt lat="43.40612352825701236724853515625" lon="-5.87818586267530918121337890625">
        <ele>222.1999969482421875</ele>
        <time>2019-02-15T16:53:08.000Z</time>
      </trkpt>
      <trkpt lat="43.40614196844398975372314453125" lon="-5.87820790708065032958984375">
        <ele>222.600006103515625</ele>
        <time>2019-02-15T16:53:09.000Z</time>
      </trkpt>
      <trkpt lat="43.40616501867771148681640625" lon="-5.87824855931103229522705078125">
        <ele>223.8000030517578125</ele>
        <time>2019-02-15T16:53:11.000Z</time>
      </trkpt>
      <trkpt lat="43.4061925113201141357421875" lon="-5.87830605916678905487060546875">
        <ele>224.600006103515625</ele>
        <time>2019-02-15T16:53:14.000Z</time>
      </trkpt>
      <trkpt lat="43.40630323626101016998291015625" lon="-5.87849917821586132049560546875">
        <ele>223.8000030517578125</ele>
        <time>2019-02-15T16:53:20.000Z</time>
      </trkpt>
      <trkpt lat="43.4063871391117572784423828125" lon="-5.87868827395141124725341796875">
        <ele>225</ele>
        <time>2019-02-15T16:53:26.000Z</time>
      </trkpt>
      <trkpt lat="43.406403400003910064697265625" lon="-5.87871526367962360382080078125">
        <ele>225.399993896484375</ele>
        <time>2019-02-15T16:53:27.000Z</time>
      </trkpt>
      <trkpt lat="43.406434915959835052490234375" lon="-5.8787596039474010467529296875">
        <ele>226.1999969482421875</ele>
        <time>2019-02-15T16:53:29.000Z</time>
      </trkpt>
      <trkpt lat="43.40648981742560863494873046875" lon="-5.87883286178112030029296875">
        <ele>227.1999969482421875</ele>
        <time>2019-02-15T16:53:33.000Z</time>
      </trkpt>
      <trkpt lat="43.4065028093755245208740234375" lon="-5.8788430877029895782470703125">
        <ele>227.399993896484375</ele>
        <time>2019-02-15T16:53:34.000Z</time>
      </trkpt>
      <trkpt lat="43.406582772731781005859375" lon="-5.8789188601076602935791015625">
        <ele>228.1999969482421875</ele>
        <time>2019-02-15T16:53:39.000Z</time>
      </trkpt>
      <trkpt lat="43.4065975248813629150390625" lon="-5.8789322711527347564697265625">
        <ele>228.399993896484375</ele>
        <time>2019-02-15T16:53:40.000Z</time>
      </trkpt>
      <trkpt lat="43.40668008662760257720947265625" lon="-5.879007875919342041015625">
        <ele>228.1999969482421875</ele>
        <time>2019-02-15T16:53:45.000Z</time>
      </trkpt>
      <trkpt lat="43.4067428670823574066162109375" lon="-5.87906579487025737762451171875">
        <ele>228</ele>
        <time>2019-02-15T16:53:48.000Z</time>
      </trkpt>
      <trkpt lat="43.40680028311908245086669921875" lon="-5.87911256588995456695556640625">
        <ele>227.600006103515625</ele>
        <time>2019-02-15T16:53:51.000Z</time>
      </trkpt>
      <trkpt lat="43.40682392008602619171142578125" lon="-5.87912656366825103759765625">
        <ele>227.399993896484375</ele>
        <time>2019-02-15T16:53:52.000Z</time>
      </trkpt>
      <trkpt lat="43.40691444464027881622314453125" lon="-5.87921465747058391571044921875">
        <ele>227.600006103515625</ele>
        <time>2019-02-15T16:53:56.000Z</time>
      </trkpt>
      <trkpt lat="43.407062552869319915771484375" lon="-5.8793124742805957794189453125">
        <ele>228.600006103515625</ele>
        <time>2019-02-15T16:54:03.000Z</time>
      </trkpt>
      <trkpt lat="43.40707965195178985595703125" lon="-5.8793201856315135955810546875">
        <ele>228.8000030517578125</ele>
        <time>2019-02-15T16:54:04.000Z</time>
      </trkpt>
      <trkpt lat="43.4071063064038753509521484375" lon="-5.8793255500495433807373046875">
        <ele>229.8000030517578125</ele>
        <time>2019-02-15T16:54:06.000Z</time>
      </trkpt>
      <trkpt lat="43.407138325273990631103515625" lon="-5.879328735172748565673828125">
        <ele>230.8000030517578125</ele>
        <time>2019-02-15T16:54:08.000Z</time>
      </trkpt>
      <trkpt lat="43.40715944766998291015625" lon="-5.879332758486270904541015625">
        <ele>231.399993896484375</ele>
        <time>2019-02-15T16:54:10.000Z</time>
      </trkpt>
      <trkpt lat="43.407242596149444580078125" lon="-5.8793329261243343353271484375">
        <ele>231.399993896484375</ele>
        <time>2019-02-15T16:54:16.000Z</time>
      </trkpt>
      <trkpt lat="43.4072504751384258270263671875" lon="-5.879337452352046966552734375">
        <ele>231.1999969482421875</ele>
        <time>2019-02-15T16:54:18.000Z</time>
      </trkpt>
      <trkpt lat="43.40730655007064342498779296875" lon="-5.8793597482144832611083984375">
        <ele>230.600006103515625</ele>
        <time>2019-02-15T16:54:25.000Z</time>
      </trkpt>
      <trkpt lat="43.40732968412339687347412109375" lon="-5.8793631009757518768310546875">
        <ele>230.399993896484375</ele>
        <time>2019-02-15T16:54:26.000Z</time>
      </trkpt>
      <trkpt lat="43.407353572547435760498046875" lon="-5.87936419062316417694091796875">
        <ele>230</ele>
        <time>2019-02-15T16:54:27.000Z</time>
      </trkpt>
      <trkpt lat="43.40742138214409351348876953125" lon="-5.8793785236775875091552734375">
        <ele>228.600006103515625</ele>
        <time>2019-02-15T16:54:30.000Z</time>
      </trkpt>
      <trkpt lat="43.407458849251270294189453125" lon="-5.87942169047892093658447265625">
        <ele>227.399993896484375</ele>
        <time>2019-02-15T16:54:32.000Z</time>
      </trkpt>
      <trkpt lat="43.407477624714374542236328125" lon="-5.879440717399120330810546875">
        <ele>227.1999969482421875</ele>
        <time>2019-02-15T16:54:33.000Z</time>
      </trkpt>
      <trkpt lat="43.40749966911971569061279296875" lon="-5.87948019616305828094482421875">
        <ele>226.8000030517578125</ele>
        <time>2019-02-15T16:54:35.000Z</time>
      </trkpt>
      <trkpt lat="43.407502435147762298583984375" lon="-5.879513807594776153564453125">
        <ele>226</ele>
        <time>2019-02-15T16:54:36.000Z</time>
      </trkpt>
      <trkpt lat="43.40749941766262054443359375" lon="-5.87954523973166942596435546875">
        <ele>225</ele>
        <time>2019-02-15T16:54:37.000Z</time>
      </trkpt>
      <trkpt lat="43.40750134550034999847412109375" lon="-5.87961799465119838714599609375">
        <ele>222.8000030517578125</ele>
        <time>2019-02-15T16:54:39.000Z</time>
      </trkpt>
      <trkpt lat="43.4075133316218852996826171875" lon="-5.87968370877206325531005859375">
        <ele>221.600006103515625</ele>
        <time>2019-02-15T16:54:41.000Z</time>
      </trkpt>
      <trkpt lat="43.40754099190235137939453125" lon="-5.879749171435832977294921875">
        <ele>220.399993896484375</ele>
        <time>2019-02-15T16:54:43.000Z</time>
      </trkpt>
      <trkpt lat="43.4075659699738025665283203125" lon="-5.87982737459242343902587890625">
        <ele>219.8000030517578125</ele>
        <time>2019-02-15T16:54:45.000Z</time>
      </trkpt>
      <trkpt lat="43.40758130885660648345947265625" lon="-5.87987096048891544342041015625">
        <ele>219.399993896484375</ele>
        <time>2019-02-15T16:54:46.000Z</time>
      </trkpt>
      <trkpt lat="43.40760008431971073150634765625" lon="-5.8799414522945880889892578125">
        <ele>218.1999969482421875</ele>
        <time>2019-02-15T16:54:48.000Z</time>
      </trkpt>
      <trkpt lat="43.40760678984224796295166015625" lon="-5.8799608983099460601806640625">
        <ele>217.399993896484375</ele>
        <time>2019-02-15T16:54:49.000Z</time>
      </trkpt>
      <trkpt lat="43.4076113998889923095703125" lon="-5.879979170858860015869140625">
        <ele>216.8000030517578125</ele>
        <time>2019-02-15T16:54:50.000Z</time>
      </trkpt>
      <trkpt lat="43.4076363779604434967041015625" lon="-5.88005335070192813873291015625">
        <ele>215.600006103515625</ele>
        <time>2019-02-15T16:55:08.000Z</time>
      </trkpt>
      <trkpt lat="43.40763947926461696624755859375" lon="-5.88007832877337932586669921875">
        <ele>215.399993896484375</ele>
        <time>2019-02-15T16:55:09.000Z</time>
      </trkpt>
      <trkpt lat="43.40764157474040985107421875" lon="-5.8801040612161159515380859375">
        <ele>215.399993896484375</ele>
        <time>2019-02-15T16:55:10.000Z</time>
      </trkpt>
      <trkpt lat="43.40764291584491729736328125" lon="-5.88012610562145709991455078125">
        <ele>215.1999969482421875</ele>
        <time>2019-02-15T16:55:11.000Z</time>
      </trkpt>
      <trkpt lat="43.40764182619750499725341796875" lon="-5.88014387525618076324462890625">
        <ele>215.1999969482421875</ele>
        <time>2019-02-15T16:55:12.000Z</time>
      </trkpt>
      <trkpt lat="43.4076484479010105133056640625" lon="-5.88019450195133686065673828125">
        <ele>215</ele>
        <time>2019-02-15T16:55:14.000Z</time>
      </trkpt>
      <trkpt lat="43.40770284645259380340576171875" lon="-5.88030749000608921051025390625">
        <ele>214.8000030517578125</ele>
        <time>2019-02-15T16:55:17.000Z</time>
      </trkpt>
      <trkpt lat="43.40773218311369419097900390625" lon="-5.880341939628124237060546875">
        <ele>214.1999969482421875</ele>
        <time>2019-02-15T16:55:18.000Z</time>
      </trkpt>
      <trkpt lat="43.40775866992771625518798828125" lon="-5.88037253357470035552978515625">
        <ele>213.600006103515625</ele>
        <time>2019-02-15T16:55:19.000Z</time>
      </trkpt>
      <trkpt lat="43.407798148691654205322265625" lon="-5.88040103204548358917236328125">
        <ele>212.600006103515625</ele>
        <time>2019-02-15T16:55:21.000Z</time>
      </trkpt>
      <trkpt lat="43.40781994163990020751953125" lon="-5.88041603565216064453125">
        <ele>212.600006103515625</ele>
        <time>2019-02-15T16:55:22.000Z</time>
      </trkpt>
      <trkpt lat="43.40795539319515228271484375" lon="-5.88050697930157184600830078125">
        <ele>212.399993896484375</ele>
        <time>2019-02-15T16:55:27.000Z</time>
      </trkpt>
      <trkpt lat="43.40804792940616607666015625" lon="-5.8805885352194309234619140625">
        <ele>211.8000030517578125</ele>
        <time>2019-02-15T16:55:31.000Z</time>
      </trkpt>
      <trkpt lat="43.40811431407928466796875" lon="-5.880645699799060821533203125">
        <ele>211.600006103515625</ele>
        <time>2019-02-15T16:55:33.000Z</time>
      </trkpt>
      <trkpt lat="43.40814926661550998687744140625" lon="-5.88066791184246540069580078125">
        <ele>211.399993896484375</ele>
        <time>2019-02-15T16:55:34.000Z</time>
      </trkpt>
      <trkpt lat="43.4081791900098323822021484375" lon="-5.88068869896233081817626953125">
        <ele>210.399993896484375</ele>
        <time>2019-02-15T16:55:35.000Z</time>
      </trkpt>
      <trkpt lat="43.4082036651670932769775390625" lon="-5.88070982135832309722900390625">
        <ele>210</ele>
        <time>2019-02-15T16:55:36.000Z</time>
      </trkpt>
      <trkpt lat="43.4082143940031528472900390625" lon="-5.8807253278791904449462890625">
        <ele>209.600006103515625</ele>
        <time>2019-02-15T16:55:37.000Z</time>
      </trkpt>
      <trkpt lat="43.40822638012468814849853515625" lon="-5.880744270980358123779296875">
        <ele>209.399993896484375</ele>
        <time>2019-02-15T16:55:38.000Z</time>
      </trkpt>
      <trkpt lat="43.4082324989140033721923828125" lon="-5.88075625710189342498779296875">
        <ele>209.1999969482421875</ele>
        <time>2019-02-15T16:55:39.000Z</time>
      </trkpt>
      <trkpt lat="43.4083099476993083953857421875" lon="-5.8808302693068981170654296875">
        <ele>208.600006103515625</ele>
        <time>2019-02-15T16:55:52.000Z</time>
      </trkpt>
      <trkpt lat="43.40834775008261203765869140625" lon="-5.88086958043277263641357421875">
        <ele>208</ele>
        <time>2019-02-15T16:55:54.000Z</time>
      </trkpt>
      <trkpt lat="43.4083758294582366943359375" lon="-5.8809043653309345245361328125">
        <ele>207.1999969482421875</ele>
        <time>2019-02-15T16:55:56.000Z</time>
      </trkpt>
      <trkpt lat="43.4083890728652477264404296875" lon="-5.8809167705476284027099609375">
        <ele>206.8000030517578125</ele>
        <time>2019-02-15T16:55:57.000Z</time>
      </trkpt>
      <trkpt lat="43.40840223245322704315185546875" lon="-5.88093562982976436614990234375">
        <ele>206</ele>
        <time>2019-02-15T16:55:58.000Z</time>
      </trkpt>
      <trkpt lat="43.4084209240972995758056640625" lon="-5.88097603060305118560791015625">
        <ele>205.600006103515625</ele>
        <time>2019-02-15T16:56:00.000Z</time>
      </trkpt>
      <trkpt lat="43.4084105305373668670654296875" lon="-5.88101073168218135833740234375">
        <ele>204.8000030517578125</ele>
        <time>2019-02-15T16:56:02.000Z</time>
      </trkpt>
      <trkpt lat="43.4083917550742626190185546875" lon="-5.8810294233262538909912109375">
        <ele>204</ele>
        <time>2019-02-15T16:56:03.000Z</time>
      </trkpt>
      <trkpt lat="43.4083723090589046478271484375" lon="-5.88104677386581897735595703125">
        <ele>202.8000030517578125</ele>
        <time>2019-02-15T16:56:04.000Z</time>
      </trkpt>
      <trkpt lat="43.4083505161106586456298828125" lon="-5.881065465509891510009765625">
        <ele>201.8000030517578125</ele>
        <time>2019-02-15T16:56:05.000Z</time>
      </trkpt>
      <trkpt lat="43.40832830406725406646728515625" lon="-5.88108801282942295074462890625">
        <ele>200.8000030517578125</ele>
        <time>2019-02-15T16:56:06.000Z</time>
      </trkpt>
      <trkpt lat="43.40829058550298213958740234375" lon="-5.88112975470721721649169921875">
        <ele>199.1999969482421875</ele>
        <time>2019-02-15T16:56:08.000Z</time>
      </trkpt>
      <trkpt lat="43.408272564411163330078125" lon="-5.88115305639803409576416015625">
        <ele>198.399993896484375</ele>
        <time>2019-02-15T16:56:09.000Z</time>
      </trkpt>
      <trkpt lat="43.408251106739044189453125" lon="-5.88117635808885097503662109375">
        <ele>197.8000030517578125</ele>
        <time>2019-02-15T16:56:10.000Z</time>
      </trkpt>
      <trkpt lat="43.40823040343821048736572265625" lon="-5.88120485655963420867919921875">
        <ele>196.600006103515625</ele>
        <time>2019-02-15T16:56:11.000Z</time>
      </trkpt>
      <trkpt lat="43.4082026593387126922607421875" lon="-5.8812269009649753570556640625">
        <ele>196.1999969482421875</ele>
        <time>2019-02-15T16:56:12.000Z</time>
      </trkpt>
      <trkpt lat="43.4081751666963100433349609375" lon="-5.88125514797866344451904296875">
        <ele>195.600006103515625</ele>
        <time>2019-02-15T16:56:13.000Z</time>
      </trkpt>
      <trkpt lat="43.4081151522696018218994140625" lon="-5.88132840581238269805908203125">
        <ele>193.399993896484375</ele>
        <time>2019-02-15T16:56:15.000Z</time>
      </trkpt>
      <trkpt lat="43.408083803951740264892578125" lon="-5.8813620172441005706787109375">
        <ele>191.399993896484375</ele>
        <time>2019-02-15T16:56:16.000Z</time>
      </trkpt>
      <trkpt lat="43.40804851613938808441162109375" lon="-5.88139613159000873565673828125">
        <ele>189.8000030517578125</ele>
        <time>2019-02-15T16:56:17.000Z</time>
      </trkpt>
      <trkpt lat="43.40800702571868896484375" lon="-5.88143368251621723175048828125">
        <ele>188.399993896484375</ele>
        <time>2019-02-15T16:56:18.000Z</time>
      </trkpt>
      <trkpt lat="43.4079592488706111907958984375" lon="-5.88147215545177459716796875">
        <ele>186.8000030517578125</ele>
        <time>2019-02-15T16:56:19.000Z</time>
      </trkpt>
      <trkpt lat="43.40787199325859546661376953125" lon="-5.88152856566011905670166015625">
        <ele>185.1999969482421875</ele>
        <time>2019-02-15T16:56:21.000Z</time>
      </trkpt>
      <trkpt lat="43.407831676304340362548828125" lon="-5.8815400488674640655517578125">
        <ele>184.1999969482421875</ele>
        <time>2019-02-15T16:56:22.000Z</time>
      </trkpt>
      <trkpt lat="43.40779353864490985870361328125" lon="-5.88154516182839870452880859375">
        <ele>183.399993896484375</ele>
        <time>2019-02-15T16:56:23.000Z</time>
      </trkpt>
      <trkpt lat="43.40774123556911945343017578125" lon="-5.88156376965343952178955078125">
        <ele>182.600006103515625</ele>
        <time>2019-02-15T16:56:25.000Z</time>
      </trkpt>
      <trkpt lat="43.4077101387083530426025390625" lon="-5.8815698884427547454833984375">
        <ele>182</ele>
        <time>2019-02-15T16:56:26.000Z</time>
      </trkpt>
      <trkpt lat="43.40764149092137813568115234375" lon="-5.8815900050103664398193359375">
        <ele>180.8000030517578125</ele>
        <time>2019-02-15T16:56:28.000Z</time>
      </trkpt>
      <trkpt lat="43.407612740993499755859375" lon="-5.88159612379968166351318359375">
        <ele>180.1999969482421875</ele>
        <time>2019-02-15T16:56:29.000Z</time>
      </trkpt>
      <trkpt lat="43.40756244957447052001953125" lon="-5.88160936720669269561767578125">
        <ele>179.600006103515625</ele>
        <time>2019-02-15T16:56:31.000Z</time>
      </trkpt>
      <trkpt lat="43.4075041115283966064453125" lon="-5.8816352672874927520751953125">
        <ele>177.8000030517578125</ele>
        <time>2019-02-15T16:56:33.000Z</time>
      </trkpt>
      <trkpt lat="43.407435715198516845703125" lon="-5.88166854344308376312255859375">
        <ele>176.399993896484375</ele>
        <time>2019-02-15T16:56:35.000Z</time>
      </trkpt>
      <trkpt lat="43.407368995249271392822265625" lon="-5.881693772971630096435546875">
        <ele>175.399993896484375</ele>
        <time>2019-02-15T16:56:37.000Z</time>
      </trkpt>
      <trkpt lat="43.4073369763791561126708984375" lon="-5.88170257396996021270751953125">
        <ele>174.600006103515625</ele>
        <time>2019-02-15T16:56:38.000Z</time>
      </trkpt>
      <trkpt lat="43.40730487369000911712646484375" lon="-5.88170844130218029022216796875">
        <ele>174.1999969482421875</ele>
        <time>2019-02-15T16:56:39.000Z</time>
      </trkpt>
      <trkpt lat="43.40720881707966327667236328125" lon="-5.88172000832855701446533203125">
        <ele>173</ele>
        <time>2019-02-15T16:56:42.000Z</time>
      </trkpt>
      <trkpt lat="43.40715416707098484039306640625" lon="-5.88170525617897510528564453125">
        <ele>171.399993896484375</ele>
        <time>2019-02-15T16:56:44.000Z</time>
      </trkpt>
      <trkpt lat="43.4071218967437744140625" lon="-5.8817073516547679901123046875">
        <ele>170</ele>
        <time>2019-02-15T16:56:45.000Z</time>
      </trkpt>
      <trkpt lat="43.40709063224494457244873046875" lon="-5.8817103691399097442626953125">
        <ele>169.1999969482421875</ele>
        <time>2019-02-15T16:56:46.000Z</time>
      </trkpt>
      <trkpt lat="43.40705945156514644622802734375" lon="-5.88171883486211299896240234375">
        <ele>168.8000030517578125</ele>
        <time>2019-02-15T16:56:47.000Z</time>
      </trkpt>
      <trkpt lat="43.4070427715778350830078125" lon="-5.8817261271178722381591796875">
        <ele>167.600006103515625</ele>
        <time>2019-02-15T16:56:48.000Z</time>
      </trkpt>
      <trkpt lat="43.40701251290738582611083984375" lon="-5.881721936166286468505859375">
        <ele>166.399993896484375</ele>
        <time>2019-02-15T16:56:50.000Z</time>
      </trkpt>
      <trkpt lat="43.4070023708045482635498046875" lon="-5.8817237801849842071533203125">
        <ele>166.1999969482421875</ele>
        <time>2019-02-15T16:56:51.000Z</time>
      </trkpt>
      <trkpt lat="43.40700413100421428680419921875" lon="-5.88209501467645168304443359375">
        <ele>159.399993896484375</ele>
        <time>2019-02-15T16:58:53.000Z</time>
      </trkpt>
      <trkpt lat="43.40702290646731853485107421875" lon="-5.882124602794647216796875">
        <ele>158.8000030517578125</ele>
        <time>2019-02-15T16:58:55.000Z</time>
      </trkpt>
      <trkpt lat="43.40703212656080722808837890625" lon="-5.88214564137160778045654296875">
        <ele>158.1999969482421875</ele>
        <time>2019-02-15T16:58:56.000Z</time>
      </trkpt>
      <trkpt lat="43.40704017318785190582275390625" lon="-5.8821661770343780517578125">
        <ele>158</ele>
        <time>2019-02-15T16:58:57.000Z</time>
      </trkpt>
      <trkpt lat="43.40705241076648235321044921875" lon="-5.88221118785440921783447265625">
        <ele>157</ele>
        <time>2019-02-15T16:58:59.000Z</time>
      </trkpt>
      <trkpt lat="43.4070615470409393310546875" lon="-5.88223448954522609710693359375">
        <ele>156.600006103515625</ele>
        <time>2019-02-15T16:59:00.000Z</time>
      </trkpt>
      <trkpt lat="43.407077975571155548095703125" lon="-5.882275812327861785888671875">
        <ele>156.1999969482421875</ele>
        <time>2019-02-15T16:59:02.000Z</time>
      </trkpt>
      <trkpt lat="43.40709767304360866546630859375" lon="-5.88231713511049747467041015625">
        <ele>155.399993896484375</ele>
        <time>2019-02-15T16:59:04.000Z</time>
      </trkpt>
      <trkpt lat="43.40712717734277248382568359375" lon="-5.88240933604538440704345703125">
        <ele>154.1999969482421875</ele>
        <time>2019-02-15T16:59:07.000Z</time>
      </trkpt>
      <trkpt lat="43.40721250511705875396728515625" lon="-5.8825368247926235198974609375">
        <ele>153.1999969482421875</ele>
        <time>2019-02-15T16:59:11.000Z</time>
      </trkpt>
      <trkpt lat="43.407271765172481536865234375" lon="-5.8825676701962947845458984375">
        <ele>152.1999969482421875</ele>
        <time>2019-02-15T16:59:13.000Z</time>
      </trkpt>
      <trkpt lat="43.40734359808266162872314453125" lon="-5.8825703524053096771240234375">
        <ele>151.1999969482421875</ele>
        <time>2019-02-15T16:59:15.000Z</time>
      </trkpt>
      <trkpt lat="43.4073778800666332244873046875" lon="-5.88257663883268833160400390625">
        <ele>150.399993896484375</ele>
        <time>2019-02-15T16:59:16.000Z</time>
      </trkpt>
      <trkpt lat="43.40745105408132076263427734375" lon="-5.88257965631783008575439453125">
        <ele>148.8000030517578125</ele>
        <time>2019-02-15T16:59:18.000Z</time>
      </trkpt>
      <trkpt lat="43.4074969030916690826416015625" lon="-5.88257982395589351654052734375">
        <ele>147.600006103515625</ele>
        <time>2019-02-15T16:59:19.000Z</time>
      </trkpt>
      <trkpt lat="43.40759731829166412353515625" lon="-5.88259273208677768707275390625">
        <ele>146.1999969482421875</ele>
        <time>2019-02-15T16:59:21.000Z</time>
      </trkpt>
      <trkpt lat="43.40764685533940792083740234375" lon="-5.88261150754988193511962890625">
        <ele>145.8000030517578125</ele>
        <time>2019-02-15T16:59:22.000Z</time>
      </trkpt>
      <trkpt lat="43.40769815258681774139404296875" lon="-5.88263682089745998382568359375">
        <ele>145.1999969482421875</ele>
        <time>2019-02-15T16:59:23.000Z</time>
      </trkpt>
      <trkpt lat="43.40774978511035442352294921875" lon="-5.8826618827879428863525390625">
        <ele>144</ele>
        <time>2019-02-15T16:59:24.000Z</time>
      </trkpt>
      <trkpt lat="43.407840393483638763427734375" lon="-5.8827014453709125518798828125">
        <ele>142.8000030517578125</ele>
        <time>2019-02-15T16:59:26.000Z</time>
      </trkpt>
      <trkpt lat="43.4079240448772907257080078125" lon="-5.88272516615688800811767578125">
        <ele>142</ele>
        <time>2019-02-15T16:59:28.000Z</time>
      </trkpt>
      <trkpt lat="43.4079689718782901763916015625" lon="-5.88273036293685436248779296875">
        <ele>141.399993896484375</ele>
        <time>2019-02-15T16:59:29.000Z</time>
      </trkpt>
      <trkpt lat="43.40801700018346309661865234375" lon="-5.88272701017558574676513671875">
        <ele>140.8000030517578125</ele>
        <time>2019-02-15T16:59:30.000Z</time>
      </trkpt>
      <trkpt lat="43.4080665372312068939208984375" lon="-5.88272281922399997711181640625">
        <ele>140.399993896484375</ele>
        <time>2019-02-15T16:59:31.000Z</time>
      </trkpt>
      <trkpt lat="43.408117331564426422119140625" lon="-5.88271007873117923736572265625">
        <ele>139.8000030517578125</ele>
        <time>2019-02-15T16:59:32.000Z</time>
      </trkpt>
      <trkpt lat="43.40816167183220386505126953125" lon="-5.88268778286874294281005859375">
        <ele>139.399993896484375</ele>
        <time>2019-02-15T16:59:33.000Z</time>
      </trkpt>
      <trkpt lat="43.40820626355707645416259765625" lon="-5.8826705999672412872314453125">
        <ele>138.399993896484375</ele>
        <time>2019-02-15T16:59:34.000Z</time>
      </trkpt>
      <trkpt lat="43.40829846449196338653564453125" lon="-5.88265056721866130828857421875">
        <ele>137.600006103515625</ele>
        <time>2019-02-15T16:59:36.000Z</time>
      </trkpt>
      <trkpt lat="43.408351354300975799560546875" lon="-5.8826414309442043304443359375">
        <ele>137.600006103515625</ele>
        <time>2019-02-15T16:59:37.000Z</time>
      </trkpt>
      <trkpt lat="43.40840600430965423583984375" lon="-5.8826340548694133758544921875">
        <ele>137.399993896484375</ele>
        <time>2019-02-15T16:59:38.000Z</time>
      </trkpt>
      <trkpt lat="43.40846090577542781829833984375" lon="-5.8826203085482120513916015625">
        <ele>137.399993896484375</ele>
        <time>2019-02-15T16:59:39.000Z</time>
      </trkpt>
      <trkpt lat="43.40851890854537487030029296875" lon="-5.882606394588947296142578125">
        <ele>137.399993896484375</ele>
        <time>2019-02-15T16:59:40.000Z</time>
      </trkpt>
      <trkpt lat="43.4085769951343536376953125" lon="-5.88258015923202037811279296875">
        <ele>137.1999969482421875</ele>
        <time>2019-02-15T16:59:41.000Z</time>
      </trkpt>
      <trkpt lat="43.40863122604787349700927734375" lon="-5.8825499005615711212158203125">
        <ele>137.1999969482421875</ele>
        <time>2019-02-15T16:59:42.000Z</time>
      </trkpt>
      <trkpt lat="43.4087568707764148712158203125" lon="-5.88248393498361110687255859375">
        <ele>136.600006103515625</ele>
        <time>2019-02-15T16:59:45.000Z</time>
      </trkpt>
      <trkpt lat="43.40879417024552822113037109375" lon="-5.88246323168277740478515625">
        <ele>136.399993896484375</ele>
        <time>2019-02-15T16:59:46.000Z</time>
      </trkpt>
      <trkpt lat="43.408834151923656463623046875" lon="-5.8824439533054828643798828125">
        <ele>136.1999969482421875</ele>
        <time>2019-02-15T16:59:47.000Z</time>
      </trkpt>
      <trkpt lat="43.4088825993239879608154296875" lon="-5.88242425583302974700927734375">
        <ele>135.399993896484375</ele>
        <time>2019-02-15T16:59:48.000Z</time>
      </trkpt>
      <trkpt lat="43.40893599204719066619873046875" lon="-5.88240615092217922210693359375">
        <ele>134.399993896484375</ele>
        <time>2019-02-15T16:59:49.000Z</time>
      </trkpt>
      <trkpt lat="43.408986367285251617431640625" lon="-5.8823926560580730438232421875">
        <ele>133.8000030517578125</ele>
        <time>2019-02-15T16:59:50.000Z</time>
      </trkpt>
      <trkpt lat="43.409040682017803192138671875" lon="-5.88238687254488468170166015625">
        <ele>133.399993896484375</ele>
        <time>2019-02-15T16:59:51.000Z</time>
      </trkpt>
      <trkpt lat="43.409159369766712188720703125" lon="-5.88235887698829174041748046875">
        <ele>131.8000030517578125</ele>
        <time>2019-02-15T16:59:53.000Z</time>
      </trkpt>
      <trkpt lat="43.409227095544338226318359375" lon="-5.88231847621500492095947265625">
        <ele>131.399993896484375</ele>
        <time>2019-02-15T16:59:54.000Z</time>
      </trkpt>
      <trkpt lat="43.4093628823757171630859375" lon="-5.88221353478729724884033203125">
        <ele>130.600006103515625</ele>
        <time>2019-02-15T16:59:56.000Z</time>
      </trkpt>
      <trkpt lat="43.40949456207454204559326171875" lon="-5.88213063776493072509765625">
        <ele>129.399993896484375</ele>
        <time>2019-02-15T16:59:58.000Z</time>
      </trkpt>
      <trkpt lat="43.40955960564315319061279296875" lon="-5.88209250010550022125244140625">
        <ele>129</ele>
        <time>2019-02-15T16:59:59.000Z</time>
      </trkpt>
      <trkpt lat="43.4097757749259471893310546875" lon="-5.881934501230716705322265625">
        <ele>129</ele>
        <time>2019-02-15T17:00:02.000Z</time>
      </trkpt>
      <trkpt lat="43.4101335145533084869384765625" lon="-5.8817150630056858062744140625">
        <ele>128.399993896484375</ele>
        <time>2019-02-15T17:00:07.000Z</time>
      </trkpt>
      <trkpt lat="43.41019378043711185455322265625" lon="-5.881676338613033294677734375">
        <ele>128</ele>
        <time>2019-02-15T17:00:08.000Z</time>
      </trkpt>
      <trkpt lat="43.41034649871289730072021484375" lon="-5.88157273828983306884765625">
        <ele>127.59999847412109375</ele>
        <time>2019-02-15T17:00:11.000Z</time>
      </trkpt>
      <trkpt lat="43.41039025224745273590087890625" lon="-5.8815480954945087432861328125">
        <ele>127.40000152587890625</ele>
        <time>2019-02-15T17:00:12.000Z</time>
      </trkpt>
      <trkpt lat="43.4104309044778347015380859375" lon="-5.88152454234659671783447265625">
        <ele>127.40000152587890625</ele>
        <time>2019-02-15T17:00:13.000Z</time>
      </trkpt>
      <trkpt lat="43.4106065891683101654052734375" lon="-5.8814260549843311309814453125">
        <ele>128</ele>
        <time>2019-02-15T17:00:18.000Z</time>
      </trkpt>
      <trkpt lat="43.4106461517512798309326171875" lon="-5.88141038082540035247802734375">
        <ele>128.600006103515625</ele>
        <time>2019-02-15T17:00:19.000Z</time>
      </trkpt>
      <trkpt lat="43.41072921641170978546142578125" lon="-5.8813655376434326171875">
        <ele>127</ele>
        <time>2019-02-15T17:00:22.000Z</time>
      </trkpt>
      <trkpt lat="43.4107567928731441497802734375" lon="-5.88135036639869213104248046875">
        <ele>126.59999847412109375</ele>
        <time>2019-02-15T17:00:23.000Z</time>
      </trkpt>
      <trkpt lat="43.4108114428818225860595703125" lon="-5.88133133947849273681640625">
        <ele>125.8000030517578125</ele>
        <time>2019-02-15T17:00:25.000Z</time>
      </trkpt>
      <trkpt lat="43.410855866968631744384765625" lon="-5.881316922605037689208984375">
        <ele>126.40000152587890625</ele>
        <time>2019-02-15T17:00:27.000Z</time>
      </trkpt>
      <trkpt lat="43.41087631881237030029296875" lon="-5.88131365366280078887939453125">
        <ele>126.8000030517578125</ele>
        <time>2019-02-15T17:00:28.000Z</time>
      </trkpt>
      <trkpt lat="43.4109204076230525970458984375" lon="-5.8813043497502803802490234375">
        <ele>127.40000152587890625</ele>
        <time>2019-02-15T17:00:30.000Z</time>
      </trkpt>
      <trkpt lat="43.41096139512956142425537109375" lon="-5.881290100514888763427734375">
        <ele>127.1999969482421875</ele>
        <time>2019-02-15T17:00:32.000Z</time>
      </trkpt>
      <trkpt lat="43.4109767340123653411865234375" lon="-5.8812810480594635009765625">
        <ele>127.59999847412109375</ele>
        <time>2019-02-15T17:00:33.000Z</time>
      </trkpt>
      <trkpt lat="43.41102761216461658477783203125" lon="-5.88124626316130161285400390625">
        <ele>127.59999847412109375</ele>
        <time>2019-02-15T17:00:37.000Z</time>
      </trkpt>
      <trkpt lat="43.41104135848581790924072265625" lon="-5.88123469613492488861083984375">
        <ele>127.8000030517578125</ele>
        <time>2019-02-15T17:00:38.000Z</time>
      </trkpt>
      <trkpt lat="43.411088883876800537109375" lon="-5.88120125234127044677734375">
        <ele>127.8000030517578125</ele>
        <time>2019-02-15T17:00:41.000Z</time>
      </trkpt>
      <trkpt lat="43.4111232496798038482666015625" lon="-5.881176106631755828857421875">
        <ele>128.1999969482421875</ele>
        <time>2019-02-15T17:00:43.000Z</time>
      </trkpt>
      <trkpt lat="43.41113825328648090362548828125" lon="-5.881169736385345458984375">
        <ele>128.1999969482421875</ele>
        <time>2019-02-15T17:00:44.000Z</time>
      </trkpt>
      <trkpt lat="43.4112147800624370574951171875" lon="-5.881142914295196533203125">
        <ele>128.399993896484375</ele>
        <time>2019-02-15T17:00:48.000Z</time>
      </trkpt>
      <trkpt lat="43.411258198320865631103515625" lon="-5.88112019933760166168212890625">
        <ele>129</ele>
        <time>2019-02-15T17:00:50.000Z</time>
      </trkpt>
      <trkpt lat="43.411315865814685821533203125" lon="-5.88108365423977375030517578125">
        <ele>129.1999969482421875</ele>
        <time>2019-02-15T17:00:53.000Z</time>
      </trkpt>
      <trkpt lat="43.41134143061935901641845703125" lon="-5.88107543997466564178466796875">
        <ele>129.399993896484375</ele>
        <time>2019-02-15T17:00:54.000Z</time>
      </trkpt>
      <trkpt lat="43.411476798355579376220703125" lon="-5.8810089714825153350830078125">
        <ele>129.600006103515625</ele>
        <time>2019-02-15T17:01:00.000Z</time>
      </trkpt>
      <trkpt lat="43.41149901039898395538330078125" lon="-5.88100268505513668060302734375">
        <ele>129.8000030517578125</ele>
        <time>2019-02-15T17:01:01.000Z</time>
      </trkpt>
      <trkpt lat="43.411523401737213134765625" lon="-5.88099614717066287994384765625">
        <ele>129.8000030517578125</ele>
        <time>2019-02-15T17:01:02.000Z</time>
      </trkpt>
      <trkpt lat="43.4116154350340366363525390625" lon="-5.88096949271857738494873046875">
        <ele>130.399993896484375</ele>
        <time>2019-02-15T17:01:06.000Z</time>
      </trkpt>
      <trkpt lat="43.41167620383203029632568359375" lon="-5.8809492923319339752197265625">
        <ele>131</ele>
        <time>2019-02-15T17:01:09.000Z</time>
      </trkpt>
      <trkpt lat="43.41172498650848865509033203125" lon="-5.88091735728085041046142578125">
        <ele>132.1999969482421875</ele>
        <time>2019-02-15T17:01:12.000Z</time>
      </trkpt>
      <trkpt lat="43.41177192516624927520751953125" lon="-5.88088072836399078369140625">
        <ele>132.600006103515625</ele>
        <time>2019-02-15T17:01:15.000Z</time>
      </trkpt>
      <trkpt lat="43.4118732623755931854248046875" lon="-5.8808114938437938690185546875">
        <ele>133</ele>
        <time>2019-02-15T17:01:22.000Z</time>
      </trkpt>
      <trkpt lat="43.41197376139461994171142578125" lon="-5.88074737228453159332275390625">
        <ele>133.399993896484375</ele>
        <time>2019-02-15T17:01:29.000Z</time>
      </trkpt>
      <trkpt lat="43.4120479412376880645751953125" lon="-5.88070361874997615814208984375">
        <ele>133.600006103515625</ele>
        <time>2019-02-15T17:01:35.000Z</time>
      </trkpt>
      <trkpt lat="43.41205942444503307342529296875" lon="-5.88069842197000980377197265625">
        <ele>134</ele>
        <time>2019-02-15T17:01:36.000Z</time>
      </trkpt>
      <trkpt lat="43.4120853245258331298828125" lon="-5.88067629374563694000244140625">
        <ele>134.399993896484375</ele>
        <time>2019-02-15T17:01:41.000Z</time>
      </trkpt>
      <trkpt lat="43.412139974534511566162109375" lon="-5.8806078135967254638671875">
        <ele>134.399993896484375</ele>
        <time>2019-02-15T17:02:09.000Z</time>
      </trkpt>
      <trkpt lat="43.41215439140796661376953125" lon="-5.88060085661709308624267578125">
        <ele>134.399993896484375</ele>
        <time>2019-02-15T17:02:10.000Z</time>
      </trkpt>
      <trkpt lat="43.4122122265398502349853515625" lon="-5.8805778063833713531494140625">
        <ele>135.399993896484375</ele>
        <time>2019-02-15T17:02:14.000Z</time>
      </trkpt>
      <trkpt lat="43.4122279845178127288818359375" lon="-5.88056959211826324462890625">
        <ele>135.399993896484375</ele>
        <time>2019-02-15T17:02:15.000Z</time>
      </trkpt>
      <trkpt lat="43.41228154487907886505126953125" lon="-5.8805483020842075347900390625">
        <ele>135.600006103515625</ele>
        <time>2019-02-15T17:02:18.000Z</time>
      </trkpt>
      <trkpt lat="43.4123131446540355682373046875" lon="-5.88053514249622821807861328125">
        <ele>136.1999969482421875</ele>
        <time>2019-02-15T17:02:20.000Z</time>
      </trkpt>
      <trkpt lat="43.412329070270061492919921875" lon="-5.880527012050151824951171875">
        <ele>136.600006103515625</ele>
        <time>2019-02-15T17:02:21.000Z</time>
      </trkpt>
      <trkpt lat="43.4123768471181392669677734375" lon="-5.88050144724547863006591796875">
        <ele>137.399993896484375</ele>
        <time>2019-02-15T17:02:24.000Z</time>
      </trkpt>
      <trkpt lat="43.41242529451847076416015625" lon="-5.8804728649556636810302734375">
        <ele>138.600006103515625</ele>
        <time>2019-02-15T17:02:27.000Z</time>
      </trkpt>
      <trkpt lat="43.41245479881763458251953125" lon="-5.88045216165482997894287109375">
        <ele>139</ele>
        <time>2019-02-15T17:02:29.000Z</time>
      </trkpt>
      <trkpt lat="43.41248136945068836212158203125" lon="-5.8804299496114253997802734375">
        <ele>139.399993896484375</ele>
        <time>2019-02-15T17:02:31.000Z</time>
      </trkpt>
      <trkpt lat="43.4125200100243091583251953125" lon="-5.880407653748989105224609375">
        <ele>140</ele>
        <time>2019-02-15T17:02:34.000Z</time>
      </trkpt>
      <trkpt lat="43.41253182850778102874755859375" lon="-5.88039985857903957366943359375">
        <ele>140.1999969482421875</ele>
        <time>2019-02-15T17:02:35.000Z</time>
      </trkpt>
      <trkpt lat="43.41254591010510921478271484375" lon="-5.88039466179907321929931640625">
        <ele>140.600006103515625</ele>
        <time>2019-02-15T17:02:36.000Z</time>
      </trkpt>
      <trkpt lat="43.4125949442386627197265625" lon="-5.88036130182445049285888671875">
        <ele>141.600006103515625</ele>
        <time>2019-02-15T17:02:40.000Z</time>
      </trkpt>
      <trkpt lat="43.4126298129558563232421875" lon="-5.88033355772495269775390625">
        <ele>141.8000030517578125</ele>
        <time>2019-02-15T17:02:43.000Z</time>
      </trkpt>
      <trkpt lat="43.412667699158191680908203125" lon="-5.88027991354465484619140625">
        <ele>142.8000030517578125</ele>
        <time>2019-02-15T17:02:47.000Z</time>
      </trkpt>
      <trkpt lat="43.4126993827521800994873046875" lon="-5.880229957401752471923828125">
        <ele>143.8000030517578125</ele>
        <time>2019-02-15T17:02:51.000Z</time>
      </trkpt>
      <trkpt lat="43.41275210492312908172607421875" lon="-5.8801250159740447998046875">
        <ele>144.600006103515625</ele>
        <time>2019-02-15T17:02:58.000Z</time>
      </trkpt>
      <trkpt lat="43.412776999175548553466796875" lon="-5.8800581283867359161376953125">
        <ele>145.1999969482421875</ele>
        <time>2019-02-15T17:03:01.000Z</time>
      </trkpt>
      <trkpt lat="43.4128090180456638336181640625" lon="-5.87999199517071247100830078125">
        <ele>145.8000030517578125</ele>
        <time>2019-02-15T17:03:05.000Z</time>
      </trkpt>
      <trkpt lat="43.41283491812646389007568359375" lon="-5.8799464814364910125732421875">
        <ele>146.600006103515625</ele>
        <time>2019-02-15T17:03:08.000Z</time>
      </trkpt>
      <trkpt lat="43.412842042744159698486328125" lon="-5.879932902753353118896484375">
        <ele>146.600006103515625</ele>
        <time>2019-02-15T17:03:09.000Z</time>
      </trkpt>
      <trkpt lat="43.412855453789234161376953125" lon="-5.8799050748348236083984375">
        <ele>147</ele>
        <time>2019-02-15T17:03:11.000Z</time>
      </trkpt>
      <trkpt lat="43.4128707088530063629150390625" lon="-5.87987783364951610565185546875">
        <ele>147.1999969482421875</ele>
        <time>2019-02-15T17:03:13.000Z</time>
      </trkpt>
      <trkpt lat="43.41289225034415721893310546875" lon="-5.879845060408115386962890625">
        <ele>147.8000030517578125</ele>
        <time>2019-02-15T17:03:16.000Z</time>
      </trkpt>
      <trkpt lat="43.4128985367715358734130859375" lon="-5.8798341639339923858642578125">
        <ele>148</ele>
        <time>2019-02-15T17:03:17.000Z</time>
      </trkpt>
      <trkpt lat="43.41290985234081745147705078125" lon="-5.87981463409960269927978515625">
        <ele>148.399993896484375</ele>
        <time>2019-02-15T17:03:19.000Z</time>
      </trkpt>
      <trkpt lat="43.41294589452445507049560546875" lon="-5.87976853363215923309326171875">
        <ele>148.8000030517578125</ele>
        <time>2019-02-15T17:03:24.000Z</time>
      </trkpt>
      <trkpt lat="43.4129518456757068634033203125" lon="-5.87974674068391323089599609375">
        <ele>149</ele>
        <time>2019-02-15T17:03:26.000Z</time>
      </trkpt>
      <trkpt lat="43.41299526393413543701171875" lon="-5.8796990476548671722412109375">
        <ele>149.8000030517578125</ele>
        <time>2019-02-15T17:03:30.000Z</time>
      </trkpt>
      <trkpt lat="43.4130108542740345001220703125" lon="-5.879676081240177154541015625">
        <ele>150.399993896484375</ele>
        <time>2019-02-15T17:03:32.000Z</time>
      </trkpt>
      <trkpt lat="43.41305485926568508148193359375" lon="-5.879627130925655364990234375">
        <ele>151</ele>
        <time>2019-02-15T17:03:36.000Z</time>
      </trkpt>
      <trkpt lat="43.413086794316768646240234375" lon="-5.87959486059844493865966796875">
        <ele>151.399993896484375</ele>
        <time>2019-02-15T17:03:39.000Z</time>
      </trkpt>
      <trkpt lat="43.41311973519623279571533203125" lon="-5.87954976595938205718994140625">
        <ele>152.1999969482421875</ele>
        <time>2019-02-15T17:03:43.000Z</time>
      </trkpt>
      <trkpt lat="43.4131375886499881744384765625" lon="-5.87953283451497554779052734375">
        <ele>152.600006103515625</ele>
        <time>2019-02-15T17:03:45.000Z</time>
      </trkpt>
      <trkpt lat="43.41317354701459407806396484375" lon="-5.87948891334235668182373046875">
        <ele>153.399993896484375</ele>
        <time>2019-02-15T17:03:49.000Z</time>
      </trkpt>
      <trkpt lat="43.41319450177252292633056640625" lon="-5.87946225889027118682861328125">
        <ele>153.600006103515625</ele>
        <time>2019-02-15T17:03:51.000Z</time>
      </trkpt>
      <trkpt lat="43.4132230840623378753662109375" lon="-5.87942403741180896759033203125">
        <ele>153.8000030517578125</ele>
        <time>2019-02-15T17:03:54.000Z</time>
      </trkpt>
      <trkpt lat="43.413243032991886138916015625" lon="-5.8794029988348484039306640625">
        <ele>154.399993896484375</ele>
        <time>2019-02-15T17:03:56.000Z</time>
      </trkpt>
      <trkpt lat="43.41326038353145122528076171875" lon="-5.87937869131565093994140625">
        <ele>154.8000030517578125</ele>
        <time>2019-02-15T17:03:58.000Z</time>
      </trkpt>
      <trkpt lat="43.41330698691308498382568359375" lon="-5.87930870242416858673095703125">
        <ele>155.600006103515625</ele>
        <time>2019-02-15T17:04:04.000Z</time>
      </trkpt>
      <trkpt lat="43.4133213199675083160400390625" lon="-5.87926260195672512054443359375">
        <ele>156</ele>
        <time>2019-02-15T17:04:07.000Z</time>
      </trkpt>
      <trkpt lat="43.41333682648837566375732421875" lon="-5.879217423498630523681640625">
        <ele>156.600006103515625</ele>
        <time>2019-02-15T17:04:10.000Z</time>
      </trkpt>
      <trkpt lat="43.41334453783929347991943359375" lon="-5.87920158170163631439208984375">
        <ele>156.8000030517578125</ele>
        <time>2019-02-15T17:04:11.000Z</time>
      </trkpt>
      <trkpt lat="43.413369767367839813232421875" lon="-5.879153721034526824951171875">
        <ele>157.8000030517578125</ele>
        <time>2019-02-15T17:04:15.000Z</time>
      </trkpt>
      <trkpt lat="43.4133809991180896759033203125" lon="-5.87911927141249179840087890625">
        <ele>158.1999969482421875</ele>
        <time>2019-02-15T17:04:17.000Z</time>
      </trkpt>
      <trkpt lat="43.413397930562496185302734375" lon="-5.87907493114471435546875">
        <ele>159</ele>
        <time>2019-02-15T17:04:20.000Z</time>
      </trkpt>
      <trkpt lat="43.41340639628469944000244140625" lon="-5.87906177155673503875732421875">
        <ele>159.1999969482421875</ele>
        <time>2019-02-15T17:04:21.000Z</time>
      </trkpt>
      <trkpt lat="43.4134188853204250335693359375" lon="-5.87903494946658611297607421875">
        <ele>159.399993896484375</ele>
        <time>2019-02-15T17:04:23.000Z</time>
      </trkpt>
      <trkpt lat="43.4134487248957157135009765625" lon="-5.87897929362952709197998046875">
        <ele>159.8000030517578125</ele>
        <time>2019-02-15T17:04:27.000Z</time>
      </trkpt>
      <trkpt lat="43.4134554304182529449462890625" lon="-5.87896521203219890594482421875">
        <ele>160</ele>
        <time>2019-02-15T17:04:28.000Z</time>
      </trkpt>
      <trkpt lat="43.41346867382526397705078125" lon="-5.8789408206939697265625">
        <ele>160.1999969482421875</ele>
        <time>2019-02-15T17:04:30.000Z</time>
      </trkpt>
      <trkpt lat="43.41350429691374301910400390625" lon="-5.8788457699120044708251953125">
        <ele>161.1999969482421875</ele>
        <time>2019-02-15T17:04:36.000Z</time>
      </trkpt>
      <trkpt lat="43.4135114215314388275146484375" lon="-5.878829173743724822998046875">
        <ele>161.399993896484375</ele>
        <time>2019-02-15T17:04:37.000Z</time>
      </trkpt>
      <trkpt lat="43.4135543368756771087646484375" lon="-5.87875801138579845428466796875">
        <ele>162.1999969482421875</ele>
        <time>2019-02-15T17:04:42.000Z</time>
      </trkpt>
      <trkpt lat="43.41358006931841373443603515625" lon="-5.8787357993423938751220703125">
        <ele>162.399993896484375</ele>
        <time>2019-02-15T17:04:44.000Z</time>
      </trkpt>
      <trkpt lat="43.41364075429737567901611328125" lon="-5.87869933806359767913818359375">
        <ele>163.1999969482421875</ele>
        <time>2019-02-15T17:04:48.000Z</time>
      </trkpt>
      <trkpt lat="43.41367495246231555938720703125" lon="-5.878666229546070098876953125">
        <ele>163.600006103515625</ele>
        <time>2019-02-15T17:04:50.000Z</time>
      </trkpt>
      <trkpt lat="43.41371417976915836334228515625" lon="-5.878615267574787139892578125">
        <ele>164.399993896484375</ele>
        <time>2019-02-15T17:04:53.000Z</time>
      </trkpt>
      <trkpt lat="43.4137402474880218505859375" lon="-5.87856858037412166595458984375">
        <ele>165.1999969482421875</ele>
        <time>2019-02-15T17:04:56.000Z</time>
      </trkpt>
      <trkpt lat="43.41375407762825489044189453125" lon="-5.87854318320751190185546875">
        <ele>165.600006103515625</ele>
        <time>2019-02-15T17:04:58.000Z</time>
      </trkpt>
      <trkpt lat="43.413763381540775299072265625" lon="-5.87853237055242061614990234375">
        <ele>165.600006103515625</ele>
        <time>2019-02-15T17:04:59.000Z</time>
      </trkpt>
      <trkpt lat="43.41376882977783679962158203125" lon="-5.878519713878631591796875">
        <ele>165.600006103515625</ele>
        <time>2019-02-15T17:05:00.000Z</time>
      </trkpt>
      <trkpt lat="43.4137796424329280853271484375" lon="-5.87849490344524383544921875">
        <ele>165.8000030517578125</ele>
        <time>2019-02-15T17:05:02.000Z</time>
      </trkpt>
      <trkpt lat="43.41379833407700061798095703125" lon="-5.87845073081552982330322265625">
        <ele>166.600006103515625</ele>
        <time>2019-02-15T17:05:05.000Z</time>
      </trkpt>
      <trkpt lat="43.41382347978651523590087890625" lon="-5.878391973674297332763671875">
        <ele>167.600006103515625</ele>
        <time>2019-02-15T17:05:09.000Z</time>
      </trkpt>
      <trkpt lat="43.41382917948067188262939453125" lon="-5.8783760480582714080810546875">
        <ele>168.1999969482421875</ele>
        <time>2019-02-15T17:05:10.000Z</time>
      </trkpt>
      <trkpt lat="43.413849882781505584716796875" lon="-5.87831377051770687103271484375">
        <ele>169.1999969482421875</ele>
        <time>2019-02-15T17:05:14.000Z</time>
      </trkpt>
      <trkpt lat="43.4138661436736583709716796875" lon="-5.87828795425593852996826171875">
        <ele>169.600006103515625</ele>
        <time>2019-02-15T17:05:16.000Z</time>
      </trkpt>
      <trkpt lat="43.41388047672808170318603515625" lon="-5.87825744412839412689208984375">
        <ele>170.1999969482421875</ele>
        <time>2019-02-15T17:05:18.000Z</time>
      </trkpt>
      <trkpt lat="43.41388416476547718048095703125" lon="-5.878209583461284637451171875">
        <ele>171</ele>
        <time>2019-02-15T17:05:21.000Z</time>
      </trkpt>
      <trkpt lat="43.41388684697449207305908203125" lon="-5.8781946636736392974853515625">
        <ele>171.1999969482421875</ele>
        <time>2019-02-15T17:05:22.000Z</time>
      </trkpt>
      <trkpt lat="43.41389019973576068878173828125" lon="-5.87816574610769748687744140625">
        <ele>172</ele>
        <time>2019-02-15T17:05:24.000Z</time>
      </trkpt>
      <trkpt lat="43.4138973243534564971923828125" lon="-5.87813682854175567626953125">
        <ele>172.399993896484375</ele>
        <time>2019-02-15T17:05:26.000Z</time>
      </trkpt>
      <trkpt lat="43.41392196714878082275390625" lon="-5.87804705835878849029541015625">
        <ele>173.8000030517578125</ele>
        <time>2019-02-15T17:05:32.000Z</time>
      </trkpt>
      <trkpt lat="43.413928337395191192626953125" lon="-5.87803230620920658111572265625">
        <ele>174</ele>
        <time>2019-02-15T17:05:33.000Z</time>
      </trkpt>
      <trkpt lat="43.41395147144794464111328125" lon="-5.8779760636389255523681640625">
        <ele>174.8000030517578125</ele>
        <time>2019-02-15T17:05:37.000Z</time>
      </trkpt>
      <trkpt lat="43.413954488933086395263671875" lon="-5.877962149679660797119140625">
        <ele>174.8000030517578125</ele>
        <time>2019-02-15T17:05:38.000Z</time>
      </trkpt>
      <trkpt lat="43.41395574621856212615966796875" lon="-5.87793423794209957122802734375">
        <ele>175.1999969482421875</ele>
        <time>2019-02-15T17:05:40.000Z</time>
      </trkpt>
      <trkpt lat="43.41396261937916278839111328125" lon="-5.8778826892375946044921875">
        <ele>175.8000030517578125</ele>
        <time>2019-02-15T17:05:44.000Z</time>
      </trkpt>
      <trkpt lat="43.41398173011839389801025390625" lon="-5.87784446775913238525390625">
        <ele>176.399993896484375</ele>
        <time>2019-02-15T17:05:47.000Z</time>
      </trkpt>
      <trkpt lat="43.4140461869537830352783203125" lon="-5.87778386659920215606689453125">
        <ele>176.8000030517578125</ele>
        <time>2019-02-15T17:05:53.000Z</time>
      </trkpt>
      <trkpt lat="43.4140673093497753143310546875" lon="-5.87775151245296001434326171875">
        <ele>177</ele>
        <time>2019-02-15T17:05:56.000Z</time>
      </trkpt>
      <trkpt lat="43.41411617584526538848876953125" lon="-5.87767138145864009857177734375">
        <ele>177.8000030517578125</ele>
        <time>2019-02-15T17:06:02.000Z</time>
      </trkpt>
      <trkpt lat="43.41413578949868679046630859375" lon="-5.8776364289224147796630859375">
        <ele>178</ele>
        <time>2019-02-15T17:06:05.000Z</time>
      </trkpt>
      <trkpt lat="43.41416277922689914703369140625" lon="-5.87758295238018035888671875">
        <ele>178.8000030517578125</ele>
        <time>2019-02-15T17:06:10.000Z</time>
      </trkpt>
      <trkpt lat="43.414173088967800140380859375" lon="-5.8775462396442890167236328125">
        <ele>179.1999969482421875</ele>
        <time>2019-02-15T17:06:13.000Z</time>
      </trkpt>
      <trkpt lat="43.41418893076479434967041015625" lon="-5.8775113709270954132080078125">
        <ele>179.399993896484375</ele>
        <time>2019-02-15T17:06:16.000Z</time>
      </trkpt>
      <trkpt lat="43.41419999487698078155517578125" lon="-5.87748371064662933349609375">
        <ele>179.600006103515625</ele>
        <time>2019-02-15T17:06:18.000Z</time>
      </trkpt>
      <trkpt lat="43.41424140147864818572998046875" lon="-5.87743132375180721282958984375">
        <ele>179.8000030517578125</ele>
        <time>2019-02-15T17:06:22.000Z</time>
      </trkpt>
      <trkpt lat="43.414250873029232025146484375" lon="-5.8774174936115741729736328125">
        <ele>179.8000030517578125</ele>
        <time>2019-02-15T17:06:23.000Z</time>
      </trkpt>
      <trkpt lat="43.41428230516612529754638671875" lon="-5.87734582833945751190185546875">
        <ele>179.8000030517578125</ele>
        <time>2019-02-15T17:06:27.000Z</time>
      </trkpt>
      <trkpt lat="43.4143003262579441070556640625" lon="-5.87731129489839076995849609375">
        <ele>179.8000030517578125</ele>
        <time>2019-02-15T17:06:29.000Z</time>
      </trkpt>
      <trkpt lat="43.41430778615176677703857421875" lon="-5.8772961236536502838134765625">
        <ele>179.600006103515625</ele>
        <time>2019-02-15T17:06:30.000Z</time>
      </trkpt>
      <trkpt lat="43.41433779336512088775634765625" lon="-5.87723250500857830047607421875">
        <ele>179.8000030517578125</ele>
        <time>2019-02-15T17:06:34.000Z</time>
      </trkpt>
      <trkpt lat="43.41436411254107952117919921875" lon="-5.87717869319021701812744140625">
        <ele>180.399993896484375</ele>
        <time>2019-02-15T17:06:37.000Z</time>
      </trkpt>
      <trkpt lat="43.41443720273673534393310546875" lon="-5.87710015475749969482421875">
        <ele>180.8000030517578125</ele>
        <time>2019-02-15T17:06:43.000Z</time>
      </trkpt>
      <trkpt lat="43.4144532121717929840087890625" lon="-5.87707174010574817657470703125">
        <ele>181</ele>
        <time>2019-02-15T17:06:45.000Z</time>
      </trkpt>
      <trkpt lat="43.4144776873290538787841796875" lon="-5.8770292438566684722900390625">
        <ele>181.399993896484375</ele>
        <time>2019-02-15T17:06:48.000Z</time>
      </trkpt>
      <trkpt lat="43.4145018272101879119873046875" lon="-5.87700284086167812347412109375">
        <ele>181.600006103515625</ele>
        <time>2019-02-15T17:06:50.000Z</time>
      </trkpt>
      <trkpt lat="43.41458941809833049774169921875" lon="-5.87691566906869411468505859375">
        <ele>182</ele>
        <time>2019-02-15T17:06:56.000Z</time>
      </trkpt>
      <trkpt lat="43.4146242029964923858642578125" lon="-5.8768730051815509796142578125">
        <ele>182.1999969482421875</ele>
        <time>2019-02-15T17:06:59.000Z</time>
      </trkpt>
      <trkpt lat="43.41469042003154754638671875" lon="-5.87678926996886730194091796875">
        <ele>182.399993896484375</ele>
        <time>2019-02-15T17:07:05.000Z</time>
      </trkpt>
      <trkpt lat="43.4147107042372226715087890625" lon="-5.876763872802257537841796875">
        <ele>182.399993896484375</ele>
        <time>2019-02-15T17:07:07.000Z</time>
      </trkpt>
      <trkpt lat="43.4147579781711101531982421875" lon="-5.87669304572045803070068359375">
        <ele>183</ele>
        <time>2019-02-15T17:07:12.000Z</time>
      </trkpt>
      <trkpt lat="43.4147821180522441864013671875" lon="-5.8766488730907440185546875">
        <ele>183.600006103515625</ele>
        <time>2019-02-15T17:07:15.000Z</time>
      </trkpt>
      <trkpt lat="43.41481824405491352081298828125" lon="-5.8765984140336513519287109375">
        <ele>184.399993896484375</ele>
        <time>2019-02-15T17:07:19.000Z</time>
      </trkpt>
      <trkpt lat="43.414828218519687652587890625" lon="-5.876587517559528350830078125">
        <ele>184.600006103515625</ele>
        <time>2019-02-15T17:07:20.000Z</time>
      </trkpt>
      <trkpt lat="43.41485043056309223175048828125" lon="-5.8765481226146221160888671875">
        <ele>184.8000030517578125</ele>
        <time>2019-02-15T17:07:23.000Z</time>
      </trkpt>
      <trkpt lat="43.414874486625194549560546875" lon="-5.8765109069645404815673828125">
        <ele>185.1999969482421875</ele>
        <time>2019-02-15T17:07:25.000Z</time>
      </trkpt>
      <trkpt lat="43.414936177432537078857421875" lon="-5.87642130441963672637939453125">
        <ele>185.600006103515625</ele>
        <time>2019-02-15T17:07:29.000Z</time>
      </trkpt>
      <trkpt lat="43.41495118103921413421630859375" lon="-5.87640118785202503204345703125">
        <ele>185.8000030517578125</ele>
        <time>2019-02-15T17:07:30.000Z</time>
      </trkpt>
      <trkpt lat="43.41502460651099681854248046875" lon="-5.87629951536655426025390625">
        <ele>186.600006103515625</ele>
        <time>2019-02-15T17:07:35.000Z</time>
      </trkpt>
      <trkpt lat="43.4150392748415470123291015625" lon="-5.87628283537924289703369140625">
        <ele>187</ele>
        <time>2019-02-15T17:07:36.000Z</time>
      </trkpt>
      <trkpt lat="43.41507422737777233123779296875" lon="-5.876226089894771575927734375">
        <ele>187.600006103515625</ele>
        <time>2019-02-15T17:07:39.000Z</time>
      </trkpt>
      <trkpt lat="43.41512049548327922821044921875" lon="-5.87614051066339015960693359375">
        <ele>188</ele>
        <time>2019-02-15T17:07:43.000Z</time>
      </trkpt>
      <trkpt lat="43.41520138084888458251953125" lon="-5.8759996108710765838623046875">
        <ele>188.1999969482421875</ele>
        <time>2019-02-15T17:07:49.000Z</time>
      </trkpt>
      <trkpt lat="43.41528327204287052154541015625" lon="-5.87586239911615848541259765625">
        <ele>188.399993896484375</ele>
        <time>2019-02-15T17:07:55.000Z</time>
      </trkpt>
      <trkpt lat="43.41537698172032833099365234375" lon="-5.8757360838353633880615234375">
        <ele>188.600006103515625</ele>
        <time>2019-02-15T17:08:00.000Z</time>
      </trkpt>
      <trkpt lat="43.41543339192867279052734375" lon="-5.87570381350815296173095703125">
        <ele>188.600006103515625</ele>
        <time>2019-02-15T17:08:02.000Z</time>
      </trkpt>
      <trkpt lat="43.415461890399456024169921875" lon="-5.87570180185139179229736328125">
        <ele>188.8000030517578125</ele>
        <time>2019-02-15T17:08:03.000Z</time>
      </trkpt>
      <trkpt lat="43.4155720286071300506591796875" lon="-5.8757270313799381256103515625">
        <ele>189.399993896484375</ele>
        <time>2019-02-15T17:08:08.000Z</time>
      </trkpt>
      <trkpt lat="43.4156652353703975677490234375" lon="-5.87576282210648059844970703125">
        <ele>189.600006103515625</ele>
        <time>2019-02-15T17:08:13.000Z</time>
      </trkpt>
      <trkpt lat="43.4156840108335018157958984375" lon="-5.87577053345739841461181640625">
        <ele>190</ele>
        <time>2019-02-15T17:08:14.000Z</time>
      </trkpt>
      <trkpt lat="43.41576472856104373931884765625" lon="-5.87580825202167034149169921875">
        <ele>191</ele>
        <time>2019-02-15T17:08:18.000Z</time>
      </trkpt>
      <trkpt lat="43.4157819114625453948974609375" lon="-5.87581428699195384979248046875">
        <ele>191.1999969482421875</ele>
        <time>2019-02-15T17:08:19.000Z</time>
      </trkpt>
      <trkpt lat="43.41589615680277347564697265625" lon="-5.8758547715842723846435546875">
        <ele>191.399993896484375</ele>
        <time>2019-02-15T17:08:25.000Z</time>
      </trkpt>
      <trkpt lat="43.41606413014233112335205078125" lon="-5.87592794559895992279052734375">
        <ele>192.1999969482421875</ele>
        <time>2019-02-15T17:08:33.000Z</time>
      </trkpt>
      <trkpt lat="43.416221626102924346923828125" lon="-5.8759737946093082427978515625">
        <ele>193.1999969482421875</ele>
        <time>2019-02-15T17:08:40.000Z</time>
      </trkpt>
      <trkpt lat="43.4163334406912326812744140625" lon="-5.87600153870880603790283203125">
        <ele>194.399993896484375</ele>
        <time>2019-02-15T17:08:45.000Z</time>
      </trkpt>
      <trkpt lat="43.41640208847820758819580078125" lon="-5.87601788341999053955078125">
        <ele>195</ele>
        <time>2019-02-15T17:08:48.000Z</time>
      </trkpt>
      <trkpt lat="43.41648557223379611968994140625" lon="-5.87603556923568248748779296875">
        <ele>195.600006103515625</ele>
        <time>2019-02-15T17:08:52.000Z</time>
      </trkpt>
      <trkpt lat="43.41659470461308956146240234375" lon="-5.8760368265211582183837890625">
        <ele>196.399993896484375</ele>
        <time>2019-02-15T17:08:57.000Z</time>
      </trkpt>
      <trkpt lat="43.41676536016166210174560546875" lon="-5.8759533427655696868896484375">
        <ele>196.600006103515625</ele>
        <time>2019-02-15T17:09:05.000Z</time>
      </trkpt>
      <trkpt lat="43.41685404069721698760986328125" lon="-5.87592157535254955291748046875">
        <ele>196.8000030517578125</ele>
        <time>2019-02-15T17:09:09.000Z</time>
      </trkpt>
      <trkpt lat="43.41696568764746189117431640625" lon="-5.875837840139865875244140625">
        <ele>196.600006103515625</ele>
        <time>2019-02-15T17:09:15.000Z</time>
      </trkpt>
      <trkpt lat="43.4170567989349365234375" lon="-5.87578914128243923187255859375">
        <ele>196.8000030517578125</ele>
        <time>2019-02-15T17:09:18.000Z</time>
      </trkpt>
      <trkpt lat="43.4171454794704914093017578125" lon="-5.8757530152797698974609375">
        <ele>196.8000030517578125</ele>
        <time>2019-02-15T17:09:21.000Z</time>
      </trkpt>
      <trkpt lat="43.41722552664577960968017578125" lon="-5.87570783682167530059814453125">
        <ele>196.8000030517578125</ele>
        <time>2019-02-15T17:09:24.000Z</time>
      </trkpt>
      <trkpt lat="43.41729777865111827850341796875" lon="-5.87565838359296321868896484375">
        <ele>196.8000030517578125</ele>
        <time>2019-02-15T17:09:27.000Z</time>
      </trkpt>
      <trkpt lat="43.41739316470921039581298828125" lon="-5.87558780796825885772705078125">
        <ele>197.1999969482421875</ele>
        <time>2019-02-15T17:09:31.000Z</time>
      </trkpt>
      <trkpt lat="43.41748528182506561279296875" lon="-5.87550801225006580352783203125">
        <ele>197.600006103515625</ele>
        <time>2019-02-15T17:09:35.000Z</time>
      </trkpt>
      <trkpt lat="43.41759801842272281646728515625" lon="-5.875408016145229339599609375">
        <ele>197.8000030517578125</ele>
        <time>2019-02-15T17:09:40.000Z</time>
      </trkpt>
      <trkpt lat="43.4177291952073574066162109375" lon="-5.87529796175658702850341796875">
        <ele>198.399993896484375</ele>
        <time>2019-02-15T17:09:46.000Z</time>
      </trkpt>
      <trkpt lat="43.41782868839800357818603515625" lon="-5.87520391680300235748291015625">
        <ele>198.399993896484375</ele>
        <time>2019-02-15T17:09:50.000Z</time>
      </trkpt>
      <trkpt lat="43.41789607889950275421142578125" lon="-5.87514021433889865875244140625">
        <ele>198</ele>
        <time>2019-02-15T17:09:52.000Z</time>
      </trkpt>
      <trkpt lat="43.4180302731692790985107421875" lon="-5.8750315010547637939453125">
        <ele>195.8000030517578125</ele>
        <time>2019-02-15T17:09:55.000Z</time>
      </trkpt>
      <trkpt lat="43.41812842525541782379150390625" lon="-5.87497659958899021148681640625">
        <ele>194.8000030517578125</ele>
        <time>2019-02-15T17:09:57.000Z</time>
      </trkpt>
      <trkpt lat="43.41818005777895450592041015625" lon="-5.874957740306854248046875">
        <ele>194.399993896484375</ele>
        <time>2019-02-15T17:09:58.000Z</time>
      </trkpt>
      <trkpt lat="43.41823185794055461883544921875" lon="-5.87494541890919208526611328125">
        <ele>194.1999969482421875</ele>
        <time>2019-02-15T17:09:59.000Z</time>
      </trkpt>
      <trkpt lat="43.41828214935958385467529296875" lon="-5.87493829429149627685546875">
        <ele>194.600006103515625</ele>
        <time>2019-02-15T17:10:00.000Z</time>
      </trkpt>
      <trkpt lat="43.41837066225707530975341796875" lon="-5.8749377913773059844970703125">
        <ele>194.8000030517578125</ele>
        <time>2019-02-15T17:10:02.000Z</time>
      </trkpt>
      <trkpt lat="43.4184580855071544647216796875" lon="-5.87492932565510272979736328125">
        <ele>195.600006103515625</ele>
        <time>2019-02-15T17:10:05.000Z</time>
      </trkpt>
      <trkpt lat="43.4184797108173370361328125" lon="-5.8749206922948360443115234375">
        <ele>196.1999969482421875</ele>
        <time>2019-02-15T17:10:06.000Z</time>
      </trkpt>
      <trkpt lat="43.41850049793720245361328125" lon="-5.8749109692871570587158203125">
        <ele>196.8000030517578125</ele>
        <time>2019-02-15T17:10:07.000Z</time>
      </trkpt>
      <trkpt lat="43.4185774438083171844482421875" lon="-5.87485003285109996795654296875">
        <ele>197.399993896484375</ele>
        <time>2019-02-15T17:10:11.000Z</time>
      </trkpt>
      <trkpt lat="43.418609797954559326171875" lon="-5.8748103864490985870361328125">
        <ele>197</ele>
        <time>2019-02-15T17:10:13.000Z</time>
      </trkpt>
      <trkpt lat="43.41864290647208690643310546875" lon="-5.87477358989417552947998046875">
        <ele>196.8000030517578125</ele>
        <time>2019-02-15T17:10:16.000Z</time>
      </trkpt>
      <trkpt lat="43.41865765862166881561279296875" lon="-5.874773003160953521728515625">
        <ele>196.600006103515625</ele>
        <time>2019-02-15T17:10:18.000Z</time>
      </trkpt>
      <trkpt lat="43.4186582453548908233642578125" lon="-5.87477442808449268341064453125">
        <ele>196.600006103515625</ele>
        <time>2019-02-15T17:10:19.000Z</time>
      </trkpt>
    </trkseg>
  </trk>
</gpx>
